<?xml version="1.0" encoding="UTF-8"?>
<gpx version="1.1" creator="https://www.youtrack.es" xsi:schemaLocation="http://www.topografix.com/GPX/1/1 http://www.topografix.com/GPX/1/1/gpx.xsd http://www.garmin.com/xmlschemas/GpxExtensions/v3 http://www.garmin.com/xmlschemas/GpxExtensionsv3.xsd http://www.garmin.com/xmlschemas/TrackPointExtension/v1 http://www.garmin.com/xmlschemas/TrackPointExtensionv1.xsd" xmlns:gpxtpx="http://www.garmin.com/xmlschemas/TrackPointExtension/v1" xmlns:gpxx="http://www.garmin.com/xmlschemas/GpxExtensions/v3" xmlns:xsi="http://www.w3.org/2001/XMLSchema-instance">
  <metadata>
    <link href="https://www.youtrack.es">
      <text>YouTrack.es</text>
    </link>
    <time>2026-05-08T21:30:21Z</time>
  </metadata>
  <trk>
    <src>https://www.youtrack.es</src>
    <link href="https://www.youtrack.es/ruta/10249-ruta-el-burgo">
      <text>YouTrack.es</text>
    </link>
    <trkseg>
      <trkpt lat="36.790752" lon="-4.950159">
        <ele>572.977</ele>
        <time>2018-03-31T11:27:21Z</time>
      </trkpt>
      <trkpt lat="36.790754" lon="-4.950218">
        <ele>556.561</ele>
        <time>2018-03-31T11:27:33Z</time>
      </trkpt>
      <trkpt lat="36.790759" lon="-4.950274">
        <ele>556.527</ele>
        <time>2018-03-31T11:28:04Z</time>
      </trkpt>
      <trkpt lat="36.790726" lon="-4.950235">
        <ele>556.508</ele>
        <time>2018-03-31T11:28:17Z</time>
      </trkpt>
      <trkpt lat="36.790692" lon="-4.950271">
        <ele>556.589</ele>
        <time>2018-03-31T11:28:48Z</time>
      </trkpt>
      <trkpt lat="36.790726" lon="-4.950313">
        <ele>556.760</ele>
        <time>2018-03-31T11:29:22Z</time>
      </trkpt>
      <trkpt lat="36.790736" lon="-4.950371">
        <ele>561.673</ele>
        <time>2018-03-31T11:29:30Z</time>
      </trkpt>
      <trkpt lat="36.790664" lon="-4.950358">
        <ele>556.589</ele>
        <time>2018-03-31T11:29:55Z</time>
      </trkpt>
      <trkpt lat="36.790632" lon="-4.950318">
        <ele>556.548</ele>
        <time>2018-03-31T11:30:03Z</time>
      </trkpt>
      <trkpt lat="36.790620" lon="-4.950257">
        <ele>556.585</ele>
        <time>2018-03-31T11:30:16Z</time>
      </trkpt>
      <trkpt lat="36.790640" lon="-4.950201">
        <ele>556.547</ele>
        <time>2018-03-31T11:30:45Z</time>
      </trkpt>
      <trkpt lat="36.790679" lon="-4.950233">
        <ele>556.569</ele>
        <time>2018-03-31T11:31:26Z</time>
      </trkpt>
      <trkpt lat="36.790633" lon="-4.950242">
        <ele>556.568</ele>
        <time>2018-03-31T11:31:35Z</time>
      </trkpt>
      <trkpt lat="36.790657" lon="-4.950300">
        <ele>556.542</ele>
        <time>2018-03-31T11:32:26Z</time>
      </trkpt>
      <trkpt lat="36.790660" lon="-4.950243">
        <ele>556.526</ele>
        <time>2018-03-31T11:32:34Z</time>
      </trkpt>
      <trkpt lat="36.790641" lon="-4.950187">
        <ele>556.508</ele>
        <time>2018-03-31T11:32:36Z</time>
      </trkpt>
      <trkpt lat="36.790633" lon="-4.950124">
        <ele>556.528</ele>
        <time>2018-03-31T11:32:39Z</time>
      </trkpt>
      <trkpt lat="36.790605" lon="-4.950061">
        <ele>556.579</ele>
        <time>2018-03-31T11:32:42Z</time>
      </trkpt>
      <trkpt lat="36.790597" lon="-4.949986">
        <ele>556.582</ele>
        <time>2018-03-31T11:32:46Z</time>
      </trkpt>
      <trkpt lat="36.790577" lon="-4.949932">
        <ele>556.558</ele>
        <time>2018-03-31T11:32:48Z</time>
      </trkpt>
      <trkpt lat="36.790536" lon="-4.949872">
        <ele>556.557</ele>
        <time>2018-03-31T11:32:51Z</time>
      </trkpt>
      <trkpt lat="36.790502" lon="-4.949817">
        <ele>556.564</ele>
        <time>2018-03-31T11:32:54Z</time>
      </trkpt>
      <trkpt lat="36.790485" lon="-4.949753">
        <ele>556.586</ele>
        <time>2018-03-31T11:32:58Z</time>
      </trkpt>
      <trkpt lat="36.790490" lon="-4.949695">
        <ele>556.588</ele>
        <time>2018-03-31T11:33:00Z</time>
      </trkpt>
      <trkpt lat="36.790483" lon="-4.949627">
        <ele>556.576</ele>
        <time>2018-03-31T11:33:02Z</time>
      </trkpt>
      <trkpt lat="36.790470" lon="-4.949570">
        <ele>556.590</ele>
        <time>2018-03-31T11:33:04Z</time>
      </trkpt>
      <trkpt lat="36.790465" lon="-4.949512">
        <ele>556.519</ele>
        <time>2018-03-31T11:33:06Z</time>
      </trkpt>
      <trkpt lat="36.790449" lon="-4.949439">
        <ele>556.508</ele>
        <time>2018-03-31T11:33:09Z</time>
      </trkpt>
      <trkpt lat="36.790442" lon="-4.949367">
        <ele>556.529</ele>
        <time>2018-03-31T11:33:12Z</time>
      </trkpt>
      <trkpt lat="36.790433" lon="-4.949295">
        <ele>556.580</ele>
        <time>2018-03-31T11:33:14Z</time>
      </trkpt>
      <trkpt lat="36.790427" lon="-4.949228">
        <ele>556.583</ele>
        <time>2018-03-31T11:33:17Z</time>
      </trkpt>
      <trkpt lat="36.790393" lon="-4.949174">
        <ele>556.569</ele>
        <time>2018-03-31T11:33:22Z</time>
      </trkpt>
      <trkpt lat="36.790368" lon="-4.949112">
        <ele>556.588</ele>
        <time>2018-03-31T11:33:25Z</time>
      </trkpt>
      <trkpt lat="36.790387" lon="-4.949038">
        <ele>556.535</ele>
        <time>2018-03-31T11:33:28Z</time>
      </trkpt>
      <trkpt lat="36.790402" lon="-4.948957">
        <ele>556.557</ele>
        <time>2018-03-31T11:33:30Z</time>
      </trkpt>
      <trkpt lat="36.790394" lon="-4.948902">
        <ele>556.599</ele>
        <time>2018-03-31T11:33:34Z</time>
      </trkpt>
      <trkpt lat="36.790397" lon="-4.948843">
        <ele>556.591</ele>
        <time>2018-03-31T11:33:38Z</time>
      </trkpt>
      <trkpt lat="36.790414" lon="-4.948777">
        <ele>556.581</ele>
        <time>2018-03-31T11:33:42Z</time>
      </trkpt>
      <trkpt lat="36.790427" lon="-4.948719">
        <ele>556.519</ele>
        <time>2018-03-31T11:33:46Z</time>
      </trkpt>
      <trkpt lat="36.790452" lon="-4.948661">
        <ele>556.508</ele>
        <time>2018-03-31T11:33:49Z</time>
      </trkpt>
      <trkpt lat="36.790484" lon="-4.948587">
        <ele>556.521</ele>
        <time>2018-03-31T11:33:52Z</time>
      </trkpt>
      <trkpt lat="36.790517" lon="-4.948508">
        <ele>557.782</ele>
        <time>2018-03-31T11:33:54Z</time>
      </trkpt>
      <trkpt lat="36.790551" lon="-4.948444">
        <ele>559.315</ele>
        <time>2018-03-31T11:33:56Z</time>
      </trkpt>
      <trkpt lat="36.790559" lon="-4.948389">
        <ele>560.571</ele>
        <time>2018-03-31T11:33:58Z</time>
      </trkpt>
      <trkpt lat="36.790550" lon="-4.948322">
        <ele>561.760</ele>
        <time>2018-03-31T11:34:00Z</time>
      </trkpt>
      <trkpt lat="36.790558" lon="-4.948250">
        <ele>562.397</ele>
        <time>2018-03-31T11:34:03Z</time>
      </trkpt>
      <trkpt lat="36.790594" lon="-4.948205">
        <ele>573.889</ele>
        <time>2018-03-31T11:34:06Z</time>
      </trkpt>
      <trkpt lat="36.790638" lon="-4.948177">
        <ele>591.181</ele>
        <time>2018-03-31T11:34:08Z</time>
      </trkpt>
      <trkpt lat="36.790674" lon="-4.948107">
        <ele>607.415</ele>
        <time>2018-03-31T11:34:11Z</time>
      </trkpt>
      <trkpt lat="36.790705" lon="-4.948062">
        <ele>614.865</ele>
        <time>2018-03-31T11:34:13Z</time>
      </trkpt>
      <trkpt lat="36.790741" lon="-4.947989">
        <ele>620.511</ele>
        <time>2018-03-31T11:34:15Z</time>
      </trkpt>
      <trkpt lat="36.790782" lon="-4.947927">
        <ele>625.308</ele>
        <time>2018-03-31T11:34:17Z</time>
      </trkpt>
      <trkpt lat="36.790825" lon="-4.947863">
        <ele>629.343</ele>
        <time>2018-03-31T11:34:19Z</time>
      </trkpt>
      <trkpt lat="36.790881" lon="-4.947792">
        <ele>632.354</ele>
        <time>2018-03-31T11:34:21Z</time>
      </trkpt>
      <trkpt lat="36.790935" lon="-4.947728">
        <ele>634.597</ele>
        <time>2018-03-31T11:34:23Z</time>
      </trkpt>
      <trkpt lat="36.790987" lon="-4.947644">
        <ele>635.953</ele>
        <time>2018-03-31T11:34:25Z</time>
      </trkpt>
      <trkpt lat="36.791039" lon="-4.947552">
        <ele>636.752</ele>
        <time>2018-03-31T11:34:27Z</time>
      </trkpt>
      <trkpt lat="36.791083" lon="-4.947459">
        <ele>637.169</ele>
        <time>2018-03-31T11:34:29Z</time>
      </trkpt>
      <trkpt lat="36.791117" lon="-4.947393">
        <ele>637.321</ele>
        <time>2018-03-31T11:34:31Z</time>
      </trkpt>
      <trkpt lat="36.791151" lon="-4.947315">
        <ele>637.683</ele>
        <time>2018-03-31T11:34:33Z</time>
      </trkpt>
      <trkpt lat="36.791183" lon="-4.947230">
        <ele>637.811</ele>
        <time>2018-03-31T11:34:35Z</time>
      </trkpt>
      <trkpt lat="36.791208" lon="-4.947137">
        <ele>637.921</ele>
        <time>2018-03-31T11:34:37Z</time>
      </trkpt>
      <trkpt lat="36.791209" lon="-4.947078">
        <ele>637.903</ele>
        <time>2018-03-31T11:34:38Z</time>
      </trkpt>
      <trkpt lat="36.791215" lon="-4.947021">
        <ele>637.808</ele>
        <time>2018-03-31T11:34:39Z</time>
      </trkpt>
      <trkpt lat="36.791227" lon="-4.946966">
        <ele>637.663</ele>
        <time>2018-03-31T11:34:40Z</time>
      </trkpt>
      <trkpt lat="36.791241" lon="-4.946907">
        <ele>637.414</ele>
        <time>2018-03-31T11:34:41Z</time>
      </trkpt>
      <trkpt lat="36.791259" lon="-4.946852">
        <ele>637.237</ele>
        <time>2018-03-31T11:34:42Z</time>
      </trkpt>
      <trkpt lat="36.791295" lon="-4.946741">
        <ele>636.813</ele>
        <time>2018-03-31T11:34:44Z</time>
      </trkpt>
      <trkpt lat="36.791313" lon="-4.946686">
        <ele>636.562</ele>
        <time>2018-03-31T11:34:45Z</time>
      </trkpt>
      <trkpt lat="36.791352" lon="-4.946593">
        <ele>635.839</ele>
        <time>2018-03-31T11:34:47Z</time>
      </trkpt>
      <trkpt lat="36.791378" lon="-4.946544">
        <ele>635.211</ele>
        <time>2018-03-31T11:34:48Z</time>
      </trkpt>
      <trkpt lat="36.791406" lon="-4.946495">
        <ele>634.413</ele>
        <time>2018-03-31T11:34:49Z</time>
      </trkpt>
      <trkpt lat="36.791440" lon="-4.946404">
        <ele>632.223</ele>
        <time>2018-03-31T11:34:51Z</time>
      </trkpt>
      <trkpt lat="36.791469" lon="-4.946307">
        <ele>629.583</ele>
        <time>2018-03-31T11:34:53Z</time>
      </trkpt>
      <trkpt lat="36.791479" lon="-4.946248">
        <ele>628.111</ele>
        <time>2018-03-31T11:34:54Z</time>
      </trkpt>
      <trkpt lat="36.791483" lon="-4.946174">
        <ele>564.908</ele>
        <time>2018-03-31T11:34:55Z</time>
      </trkpt>
      <trkpt lat="36.791481" lon="-4.946105">
        <ele>559.034</ele>
        <time>2018-03-31T11:34:56Z</time>
      </trkpt>
      <trkpt lat="36.791477" lon="-4.946040">
        <ele>558.975</ele>
        <time>2018-03-31T11:34:57Z</time>
      </trkpt>
      <trkpt lat="36.791474" lon="-4.945983">
        <ele>559.058</ele>
        <time>2018-03-31T11:34:58Z</time>
      </trkpt>
      <trkpt lat="36.791469" lon="-4.945914">
        <ele>558.934</ele>
        <time>2018-03-31T11:34:59Z</time>
      </trkpt>
      <trkpt lat="36.791463" lon="-4.945848">
        <ele>558.653</ele>
        <time>2018-03-31T11:35:00Z</time>
      </trkpt>
      <trkpt lat="36.791454" lon="-4.945781">
        <ele>558.250</ele>
        <time>2018-03-31T11:35:01Z</time>
      </trkpt>
      <trkpt lat="36.791439" lon="-4.945716">
        <ele>557.852</ele>
        <time>2018-03-31T11:35:02Z</time>
      </trkpt>
      <trkpt lat="36.791426" lon="-4.945651">
        <ele>557.424</ele>
        <time>2018-03-31T11:35:03Z</time>
      </trkpt>
      <trkpt lat="36.791407" lon="-4.945583">
        <ele>557.197</ele>
        <time>2018-03-31T11:35:04Z</time>
      </trkpt>
      <trkpt lat="36.791380" lon="-4.945525">
        <ele>556.923</ele>
        <time>2018-03-31T11:35:05Z</time>
      </trkpt>
      <trkpt lat="36.791352" lon="-4.945458">
        <ele>556.825</ele>
        <time>2018-03-31T11:35:06Z</time>
      </trkpt>
      <trkpt lat="36.791331" lon="-4.945398">
        <ele>556.808</ele>
        <time>2018-03-31T11:35:07Z</time>
      </trkpt>
      <trkpt lat="36.791310" lon="-4.945347">
        <ele>556.931</ele>
        <time>2018-03-31T11:35:08Z</time>
      </trkpt>
      <trkpt lat="36.791288" lon="-4.945293">
        <ele>557.172</ele>
        <time>2018-03-31T11:35:09Z</time>
      </trkpt>
      <trkpt lat="36.791270" lon="-4.945233">
        <ele>557.355</ele>
        <time>2018-03-31T11:35:10Z</time>
      </trkpt>
      <trkpt lat="36.791227" lon="-4.945145">
        <ele>557.431</ele>
        <time>2018-03-31T11:35:12Z</time>
      </trkpt>
      <trkpt lat="36.791182" lon="-4.945068">
        <ele>557.240</ele>
        <time>2018-03-31T11:35:14Z</time>
      </trkpt>
      <trkpt lat="36.791143" lon="-4.944999">
        <ele>556.867</ele>
        <time>2018-03-31T11:35:16Z</time>
      </trkpt>
      <trkpt lat="36.791120" lon="-4.944934">
        <ele>556.529</ele>
        <time>2018-03-31T11:35:18Z</time>
      </trkpt>
      <trkpt lat="36.791084" lon="-4.944864">
        <ele>556.521</ele>
        <time>2018-03-31T11:35:21Z</time>
      </trkpt>
      <trkpt lat="36.791056" lon="-4.944807">
        <ele>556.871</ele>
        <time>2018-03-31T11:35:23Z</time>
      </trkpt>
      <trkpt lat="36.791025" lon="-4.944747">
        <ele>557.241</ele>
        <time>2018-03-31T11:35:25Z</time>
      </trkpt>
      <trkpt lat="36.790991" lon="-4.944682">
        <ele>557.615</ele>
        <time>2018-03-31T11:35:27Z</time>
      </trkpt>
      <trkpt lat="36.790961" lon="-4.944624">
        <ele>557.708</ele>
        <time>2018-03-31T11:35:29Z</time>
      </trkpt>
      <trkpt lat="36.790939" lon="-4.944566">
        <ele>557.569</ele>
        <time>2018-03-31T11:35:32Z</time>
      </trkpt>
      <trkpt lat="36.790914" lon="-4.944514">
        <ele>556.580</ele>
        <time>2018-03-31T11:35:41Z</time>
      </trkpt>
      <trkpt lat="36.790952" lon="-4.944458">
        <ele>555.333</ele>
        <time>2018-03-31T11:36:51Z</time>
      </trkpt>
      <trkpt lat="36.790992" lon="-4.944427">
        <ele>553.499</ele>
        <time>2018-03-31T11:37:14Z</time>
      </trkpt>
      <trkpt lat="36.791042" lon="-4.944426">
        <ele>552.618</ele>
        <time>2018-03-31T11:37:28Z</time>
      </trkpt>
      <trkpt lat="36.791097" lon="-4.944407">
        <ele>551.635</ele>
        <time>2018-03-31T11:37:30Z</time>
      </trkpt>
      <trkpt lat="36.791148" lon="-4.944379">
        <ele>550.697</ele>
        <time>2018-03-31T11:37:32Z</time>
      </trkpt>
      <trkpt lat="36.791201" lon="-4.944342">
        <ele>550.659</ele>
        <time>2018-03-31T11:37:34Z</time>
      </trkpt>
      <trkpt lat="36.791269" lon="-4.944312">
        <ele>550.623</ele>
        <time>2018-03-31T11:37:36Z</time>
      </trkpt>
      <trkpt lat="36.791337" lon="-4.944297">
        <ele>550.683</ele>
        <time>2018-03-31T11:37:38Z</time>
      </trkpt>
      <trkpt lat="36.791420" lon="-4.944278">
        <ele>550.611</ele>
        <time>2018-03-31T11:37:40Z</time>
      </trkpt>
      <trkpt lat="36.791465" lon="-4.944270">
        <ele>550.608</ele>
        <time>2018-03-31T11:37:41Z</time>
      </trkpt>
      <trkpt lat="36.791549" lon="-4.944258">
        <ele>550.654</ele>
        <time>2018-03-31T11:37:43Z</time>
      </trkpt>
      <trkpt lat="36.791630" lon="-4.944236">
        <ele>550.645</ele>
        <time>2018-03-31T11:37:45Z</time>
      </trkpt>
      <trkpt lat="36.791677" lon="-4.944218">
        <ele>550.678</ele>
        <time>2018-03-31T11:37:46Z</time>
      </trkpt>
      <trkpt lat="36.791729" lon="-4.944200">
        <ele>551.014</ele>
        <time>2018-03-31T11:37:47Z</time>
      </trkpt>
      <trkpt lat="36.791781" lon="-4.944178">
        <ele>551.473</ele>
        <time>2018-03-31T11:37:48Z</time>
      </trkpt>
      <trkpt lat="36.791829" lon="-4.944153">
        <ele>551.760</ele>
        <time>2018-03-31T11:37:49Z</time>
      </trkpt>
      <trkpt lat="36.791883" lon="-4.944125">
        <ele>545.482</ele>
        <time>2018-03-31T11:37:50Z</time>
      </trkpt>
      <trkpt lat="36.791925" lon="-4.944098">
        <ele>544.874</ele>
        <time>2018-03-31T11:37:51Z</time>
      </trkpt>
      <trkpt lat="36.792007" lon="-4.944049">
        <ele>544.741</ele>
        <time>2018-03-31T11:37:53Z</time>
      </trkpt>
      <trkpt lat="36.792050" lon="-4.944026">
        <ele>544.781</ele>
        <time>2018-03-31T11:37:54Z</time>
      </trkpt>
      <trkpt lat="36.792100" lon="-4.944003">
        <ele>544.709</ele>
        <time>2018-03-31T11:37:55Z</time>
      </trkpt>
      <trkpt lat="36.792153" lon="-4.943980">
        <ele>544.708</ele>
        <time>2018-03-31T11:37:56Z</time>
      </trkpt>
      <trkpt lat="36.792207" lon="-4.943956">
        <ele>544.716</ele>
        <time>2018-03-31T11:37:57Z</time>
      </trkpt>
      <trkpt lat="36.792262" lon="-4.943925">
        <ele>544.737</ele>
        <time>2018-03-31T11:37:58Z</time>
      </trkpt>
      <trkpt lat="36.792313" lon="-4.943895">
        <ele>544.720</ele>
        <time>2018-03-31T11:37:59Z</time>
      </trkpt>
      <trkpt lat="36.792364" lon="-4.943871">
        <ele>544.716</ele>
        <time>2018-03-31T11:38:00Z</time>
      </trkpt>
      <trkpt lat="36.792413" lon="-4.943843">
        <ele>544.785</ele>
        <time>2018-03-31T11:38:01Z</time>
      </trkpt>
      <trkpt lat="36.792457" lon="-4.943823">
        <ele>544.672</ele>
        <time>2018-03-31T11:38:02Z</time>
      </trkpt>
      <trkpt lat="36.792508" lon="-4.943808">
        <ele>544.434</ele>
        <time>2018-03-31T11:38:03Z</time>
      </trkpt>
      <trkpt lat="36.792558" lon="-4.943797">
        <ele>544.166</ele>
        <time>2018-03-31T11:38:04Z</time>
      </trkpt>
      <trkpt lat="36.792611" lon="-4.943784">
        <ele>543.791</ele>
        <time>2018-03-31T11:38:05Z</time>
      </trkpt>
      <trkpt lat="36.792698" lon="-4.943750">
        <ele>542.781</ele>
        <time>2018-03-31T11:38:07Z</time>
      </trkpt>
      <trkpt lat="36.792741" lon="-4.943734">
        <ele>542.219</ele>
        <time>2018-03-31T11:38:08Z</time>
      </trkpt>
      <trkpt lat="36.792785" lon="-4.943714">
        <ele>541.708</ele>
        <time>2018-03-31T11:38:09Z</time>
      </trkpt>
      <trkpt lat="36.792819" lon="-4.943678">
        <ele>541.241</ele>
        <time>2018-03-31T11:38:10Z</time>
      </trkpt>
      <trkpt lat="36.792852" lon="-4.943634">
        <ele>540.982</ele>
        <time>2018-03-31T11:38:11Z</time>
      </trkpt>
      <trkpt lat="36.792897" lon="-4.943542">
        <ele>540.825</ele>
        <time>2018-03-31T11:38:13Z</time>
      </trkpt>
      <trkpt lat="36.792943" lon="-4.943462">
        <ele>541.091</ele>
        <time>2018-03-31T11:38:15Z</time>
      </trkpt>
      <trkpt lat="36.793002" lon="-4.943383">
        <ele>541.570</ele>
        <time>2018-03-31T11:38:17Z</time>
      </trkpt>
      <trkpt lat="36.793057" lon="-4.943318">
        <ele>542.257</ele>
        <time>2018-03-31T11:38:19Z</time>
      </trkpt>
      <trkpt lat="36.793100" lon="-4.943263">
        <ele>542.839</ele>
        <time>2018-03-31T11:38:21Z</time>
      </trkpt>
      <trkpt lat="36.793149" lon="-4.943201">
        <ele>542.961</ele>
        <time>2018-03-31T11:38:23Z</time>
      </trkpt>
      <trkpt lat="36.793212" lon="-4.943131">
        <ele>542.847</ele>
        <time>2018-03-31T11:38:25Z</time>
      </trkpt>
      <trkpt lat="36.793249" lon="-4.943095">
        <ele>542.829</ele>
        <time>2018-03-31T11:38:26Z</time>
      </trkpt>
      <trkpt lat="36.793286" lon="-4.943055">
        <ele>542.821</ele>
        <time>2018-03-31T11:38:27Z</time>
      </trkpt>
      <trkpt lat="36.793329" lon="-4.942980">
        <ele>542.908</ele>
        <time>2018-03-31T11:38:29Z</time>
      </trkpt>
      <trkpt lat="36.793393" lon="-4.942905">
        <ele>542.856</ele>
        <time>2018-03-31T11:38:31Z</time>
      </trkpt>
      <trkpt lat="36.793435" lon="-4.942872">
        <ele>542.687</ele>
        <time>2018-03-31T11:38:32Z</time>
      </trkpt>
      <trkpt lat="36.793475" lon="-4.942842">
        <ele>542.380</ele>
        <time>2018-03-31T11:38:33Z</time>
      </trkpt>
      <trkpt lat="36.793522" lon="-4.942812">
        <ele>541.916</ele>
        <time>2018-03-31T11:38:34Z</time>
      </trkpt>
      <trkpt lat="36.793572" lon="-4.942787">
        <ele>541.595</ele>
        <time>2018-03-31T11:38:35Z</time>
      </trkpt>
      <trkpt lat="36.793660" lon="-4.942775">
        <ele>540.672</ele>
        <time>2018-03-31T11:38:37Z</time>
      </trkpt>
      <trkpt lat="36.793707" lon="-4.942774">
        <ele>540.314</ele>
        <time>2018-03-31T11:38:38Z</time>
      </trkpt>
      <trkpt lat="36.793758" lon="-4.942770">
        <ele>540.036</ele>
        <time>2018-03-31T11:38:39Z</time>
      </trkpt>
      <trkpt lat="36.793804" lon="-4.942769">
        <ele>539.731</ele>
        <time>2018-03-31T11:38:40Z</time>
      </trkpt>
      <trkpt lat="36.793856" lon="-4.942759">
        <ele>539.561</ele>
        <time>2018-03-31T11:38:41Z</time>
      </trkpt>
      <trkpt lat="36.793929" lon="-4.942739">
        <ele>539.107</ele>
        <time>2018-03-31T11:38:43Z</time>
      </trkpt>
      <trkpt lat="36.793996" lon="-4.942728">
        <ele>538.708</ele>
        <time>2018-03-31T11:38:45Z</time>
      </trkpt>
      <trkpt lat="36.794047" lon="-4.942724">
        <ele>537.935</ele>
        <time>2018-03-31T11:38:50Z</time>
      </trkpt>
      <trkpt lat="36.794027" lon="-4.942664">
        <ele>536.716</ele>
        <time>2018-03-31T11:39:16Z</time>
      </trkpt>
      <trkpt lat="36.794059" lon="-4.942624">
        <ele>535.679</ele>
        <time>2018-03-31T11:39:32Z</time>
      </trkpt>
      <trkpt lat="36.794114" lon="-4.942637">
        <ele>535.685</ele>
        <time>2018-03-31T11:39:36Z</time>
      </trkpt>
      <trkpt lat="36.794172" lon="-4.942642">
        <ele>535.724</ele>
        <time>2018-03-31T11:39:38Z</time>
      </trkpt>
      <trkpt lat="36.794238" lon="-4.942640">
        <ele>535.841</ele>
        <time>2018-03-31T11:39:40Z</time>
      </trkpt>
      <trkpt lat="36.794307" lon="-4.942643">
        <ele>536.183</ele>
        <time>2018-03-31T11:39:42Z</time>
      </trkpt>
      <trkpt lat="36.794376" lon="-4.942634">
        <ele>536.545</ele>
        <time>2018-03-31T11:39:44Z</time>
      </trkpt>
      <trkpt lat="36.794445" lon="-4.942614">
        <ele>536.954</ele>
        <time>2018-03-31T11:39:46Z</time>
      </trkpt>
      <trkpt lat="36.794508" lon="-4.942607">
        <ele>537.256</ele>
        <time>2018-03-31T11:39:48Z</time>
      </trkpt>
      <trkpt lat="36.794554" lon="-4.942601">
        <ele>537.711</ele>
        <time>2018-03-31T11:39:50Z</time>
      </trkpt>
      <trkpt lat="36.794601" lon="-4.942557">
        <ele>538.208</ele>
        <time>2018-03-31T11:39:52Z</time>
      </trkpt>
      <trkpt lat="36.794653" lon="-4.942485">
        <ele>538.277</ele>
        <time>2018-03-31T11:39:54Z</time>
      </trkpt>
      <trkpt lat="36.794700" lon="-4.942434">
        <ele>537.918</ele>
        <time>2018-03-31T11:39:56Z</time>
      </trkpt>
      <trkpt lat="36.794743" lon="-4.942374">
        <ele>537.691</ele>
        <time>2018-03-31T11:39:58Z</time>
      </trkpt>
      <trkpt lat="36.794790" lon="-4.942294">
        <ele>537.497</ele>
        <time>2018-03-31T11:40:00Z</time>
      </trkpt>
      <trkpt lat="36.794850" lon="-4.942222">
        <ele>537.456</ele>
        <time>2018-03-31T11:40:02Z</time>
      </trkpt>
      <trkpt lat="36.794881" lon="-4.942179">
        <ele>537.563</ele>
        <time>2018-03-31T11:40:03Z</time>
      </trkpt>
      <trkpt lat="36.794917" lon="-4.942129">
        <ele>537.745</ele>
        <time>2018-03-31T11:40:04Z</time>
      </trkpt>
      <trkpt lat="36.794957" lon="-4.942085">
        <ele>537.937</ele>
        <time>2018-03-31T11:40:05Z</time>
      </trkpt>
      <trkpt lat="36.794993" lon="-4.942041">
        <ele>538.267</ele>
        <time>2018-03-31T11:40:06Z</time>
      </trkpt>
      <trkpt lat="36.795019" lon="-4.941995">
        <ele>538.681</ele>
        <time>2018-03-31T11:40:07Z</time>
      </trkpt>
      <trkpt lat="36.795048" lon="-4.941941">
        <ele>538.919</ele>
        <time>2018-03-31T11:40:08Z</time>
      </trkpt>
      <trkpt lat="36.795076" lon="-4.941889">
        <ele>539.208</ele>
        <time>2018-03-31T11:40:09Z</time>
      </trkpt>
      <trkpt lat="36.795103" lon="-4.941829">
        <ele>539.528</ele>
        <time>2018-03-31T11:40:10Z</time>
      </trkpt>
      <trkpt lat="36.795130" lon="-4.941778">
        <ele>539.739</ele>
        <time>2018-03-31T11:40:11Z</time>
      </trkpt>
      <trkpt lat="36.795175" lon="-4.941686">
        <ele>540.092</ele>
        <time>2018-03-31T11:40:13Z</time>
      </trkpt>
      <trkpt lat="36.795195" lon="-4.941630">
        <ele>540.168</ele>
        <time>2018-03-31T11:40:14Z</time>
      </trkpt>
      <trkpt lat="36.795218" lon="-4.941542">
        <ele>540.187</ele>
        <time>2018-03-31T11:40:16Z</time>
      </trkpt>
      <trkpt lat="36.795227" lon="-4.941487">
        <ele>540.084</ele>
        <time>2018-03-31T11:40:17Z</time>
      </trkpt>
      <trkpt lat="36.795244" lon="-4.941401">
        <ele>539.576</ele>
        <time>2018-03-31T11:40:19Z</time>
      </trkpt>
      <trkpt lat="36.795263" lon="-4.941314">
        <ele>538.838</ele>
        <time>2018-03-31T11:40:21Z</time>
      </trkpt>
      <trkpt lat="36.795280" lon="-4.941235">
        <ele>538.087</ele>
        <time>2018-03-31T11:40:23Z</time>
      </trkpt>
      <trkpt lat="36.795294" lon="-4.941161">
        <ele>537.142</ele>
        <time>2018-03-31T11:40:25Z</time>
      </trkpt>
      <trkpt lat="36.795310" lon="-4.941062">
        <ele>536.226</ele>
        <time>2018-03-31T11:40:27Z</time>
      </trkpt>
      <trkpt lat="36.795324" lon="-4.940972">
        <ele>535.608</ele>
        <time>2018-03-31T11:40:29Z</time>
      </trkpt>
      <trkpt lat="36.795349" lon="-4.940882">
        <ele>535.410</ele>
        <time>2018-03-31T11:40:31Z</time>
      </trkpt>
      <trkpt lat="36.795373" lon="-4.940788">
        <ele>535.691</ele>
        <time>2018-03-31T11:40:33Z</time>
      </trkpt>
      <trkpt lat="36.795393" lon="-4.940678">
        <ele>535.834</ele>
        <time>2018-03-31T11:40:35Z</time>
      </trkpt>
      <trkpt lat="36.795405" lon="-4.940588">
        <ele>535.710</ele>
        <time>2018-03-31T11:40:37Z</time>
      </trkpt>
      <trkpt lat="36.795410" lon="-4.940500">
        <ele>535.589</ele>
        <time>2018-03-31T11:40:39Z</time>
      </trkpt>
      <trkpt lat="36.795420" lon="-4.940402">
        <ele>535.286</ele>
        <time>2018-03-31T11:40:41Z</time>
      </trkpt>
      <trkpt lat="36.795432" lon="-4.940342">
        <ele>535.098</ele>
        <time>2018-03-31T11:40:42Z</time>
      </trkpt>
      <trkpt lat="36.795444" lon="-4.940279">
        <ele>534.920</ele>
        <time>2018-03-31T11:40:43Z</time>
      </trkpt>
      <trkpt lat="36.795455" lon="-4.940220">
        <ele>534.713</ele>
        <time>2018-03-31T11:40:44Z</time>
      </trkpt>
      <trkpt lat="36.795461" lon="-4.940114">
        <ele>534.643</ele>
        <time>2018-03-31T11:40:46Z</time>
      </trkpt>
      <trkpt lat="36.795458" lon="-4.940011">
        <ele>534.607</ele>
        <time>2018-03-31T11:40:48Z</time>
      </trkpt>
      <trkpt lat="36.795465" lon="-4.939928">
        <ele>534.508</ele>
        <time>2018-03-31T11:40:50Z</time>
      </trkpt>
      <trkpt lat="36.795468" lon="-4.939841">
        <ele>534.253</ele>
        <time>2018-03-31T11:40:52Z</time>
      </trkpt>
      <trkpt lat="36.795495" lon="-4.939755">
        <ele>533.764</ele>
        <time>2018-03-31T11:40:54Z</time>
      </trkpt>
      <trkpt lat="36.795530" lon="-4.939678">
        <ele>533.257</ele>
        <time>2018-03-31T11:40:56Z</time>
      </trkpt>
      <trkpt lat="36.795569" lon="-4.939609">
        <ele>533.093</ele>
        <time>2018-03-31T11:40:58Z</time>
      </trkpt>
      <trkpt lat="36.795599" lon="-4.939559">
        <ele>533.162</ele>
        <time>2018-03-31T11:41:00Z</time>
      </trkpt>
      <trkpt lat="36.795634" lon="-4.939504">
        <ele>533.429</ele>
        <time>2018-03-31T11:41:02Z</time>
      </trkpt>
      <trkpt lat="36.795668" lon="-4.939451">
        <ele>533.821</ele>
        <time>2018-03-31T11:41:04Z</time>
      </trkpt>
      <trkpt lat="36.795701" lon="-4.939394">
        <ele>534.243</ele>
        <time>2018-03-31T11:41:06Z</time>
      </trkpt>
      <trkpt lat="36.795734" lon="-4.939335">
        <ele>534.326</ele>
        <time>2018-03-31T11:41:08Z</time>
      </trkpt>
      <trkpt lat="36.795761" lon="-4.939285">
        <ele>534.247</ele>
        <time>2018-03-31T11:41:10Z</time>
      </trkpt>
      <trkpt lat="36.795807" lon="-4.939220">
        <ele>533.911</ele>
        <time>2018-03-31T11:41:13Z</time>
      </trkpt>
      <trkpt lat="36.795851" lon="-4.939164">
        <ele>533.708</ele>
        <time>2018-03-31T11:41:15Z</time>
      </trkpt>
      <trkpt lat="36.795892" lon="-4.939095">
        <ele>533.684</ele>
        <time>2018-03-31T11:41:17Z</time>
      </trkpt>
      <trkpt lat="36.795939" lon="-4.939013">
        <ele>533.745</ele>
        <time>2018-03-31T11:41:19Z</time>
      </trkpt>
      <trkpt lat="36.795985" lon="-4.938921">
        <ele>533.778</ele>
        <time>2018-03-31T11:41:21Z</time>
      </trkpt>
      <trkpt lat="36.796023" lon="-4.938848">
        <ele>533.524</ele>
        <time>2018-03-31T11:41:23Z</time>
      </trkpt>
      <trkpt lat="36.796060" lon="-4.938799">
        <ele>533.263</ele>
        <time>2018-03-31T11:41:25Z</time>
      </trkpt>
      <trkpt lat="36.796116" lon="-4.938743">
        <ele>533.070</ele>
        <time>2018-03-31T11:41:27Z</time>
      </trkpt>
      <trkpt lat="36.796184" lon="-4.938692">
        <ele>533.092</ele>
        <time>2018-03-31T11:41:29Z</time>
      </trkpt>
      <trkpt lat="36.796240" lon="-4.938645">
        <ele>533.144</ele>
        <time>2018-03-31T11:41:31Z</time>
      </trkpt>
      <trkpt lat="36.796287" lon="-4.938601">
        <ele>533.125</ele>
        <time>2018-03-31T11:41:33Z</time>
      </trkpt>
      <trkpt lat="36.796333" lon="-4.938563">
        <ele>533.026</ele>
        <time>2018-03-31T11:41:35Z</time>
      </trkpt>
      <trkpt lat="36.796374" lon="-4.938533">
        <ele>533.008</ele>
        <time>2018-03-31T11:41:37Z</time>
      </trkpt>
      <trkpt lat="36.796414" lon="-4.938505">
        <ele>533.008</ele>
        <time>2018-03-31T11:41:39Z</time>
      </trkpt>
      <trkpt lat="36.796467" lon="-4.938464">
        <ele>534.254</ele>
        <time>2018-03-31T11:41:41Z</time>
      </trkpt>
      <trkpt lat="36.796521" lon="-4.938425">
        <ele>535.795</ele>
        <time>2018-03-31T11:41:43Z</time>
      </trkpt>
      <trkpt lat="36.796582" lon="-4.938390">
        <ele>536.598</ele>
        <time>2018-03-31T11:41:45Z</time>
      </trkpt>
      <trkpt lat="36.796649" lon="-4.938369">
        <ele>536.884</ele>
        <time>2018-03-31T11:41:47Z</time>
      </trkpt>
      <trkpt lat="36.796710" lon="-4.938357">
        <ele>536.313</ele>
        <time>2018-03-31T11:41:49Z</time>
      </trkpt>
      <trkpt lat="36.796757" lon="-4.938366">
        <ele>535.110</ele>
        <time>2018-03-31T11:41:51Z</time>
      </trkpt>
      <trkpt lat="36.796816" lon="-4.938409">
        <ele>529.862</ele>
        <time>2018-03-31T11:42:23Z</time>
      </trkpt>
      <trkpt lat="36.796905" lon="-4.938460">
        <ele>529.294</ele>
        <time>2018-03-31T11:42:25Z</time>
      </trkpt>
      <trkpt lat="36.796962" lon="-4.938488">
        <ele>529.081</ele>
        <time>2018-03-31T11:42:26Z</time>
      </trkpt>
      <trkpt lat="36.797022" lon="-4.938512">
        <ele>528.961</ele>
        <time>2018-03-31T11:42:27Z</time>
      </trkpt>
      <trkpt lat="36.797083" lon="-4.938540">
        <ele>532.617</ele>
        <time>2018-03-31T11:42:28Z</time>
      </trkpt>
      <trkpt lat="36.797145" lon="-4.938571">
        <ele>532.908</ele>
        <time>2018-03-31T11:42:29Z</time>
      </trkpt>
      <trkpt lat="36.797208" lon="-4.938602">
        <ele>532.980</ele>
        <time>2018-03-31T11:42:30Z</time>
      </trkpt>
      <trkpt lat="36.797258" lon="-4.938630">
        <ele>532.941</ele>
        <time>2018-03-31T11:42:31Z</time>
      </trkpt>
      <trkpt lat="36.797312" lon="-4.938660">
        <ele>532.974</ele>
        <time>2018-03-31T11:42:32Z</time>
      </trkpt>
      <trkpt lat="36.797369" lon="-4.938688">
        <ele>532.940</ele>
        <time>2018-03-31T11:42:33Z</time>
      </trkpt>
      <trkpt lat="36.797419" lon="-4.938716">
        <ele>532.929</ele>
        <time>2018-03-31T11:42:34Z</time>
      </trkpt>
      <trkpt lat="36.797477" lon="-4.938742">
        <ele>532.946</ele>
        <time>2018-03-31T11:42:35Z</time>
      </trkpt>
      <trkpt lat="36.797532" lon="-4.938764">
        <ele>532.148</ele>
        <time>2018-03-31T11:42:36Z</time>
      </trkpt>
      <trkpt lat="36.797591" lon="-4.938782">
        <ele>532.710</ele>
        <time>2018-03-31T11:42:37Z</time>
      </trkpt>
      <trkpt lat="36.797644" lon="-4.938791">
        <ele>532.119</ele>
        <time>2018-03-31T11:42:38Z</time>
      </trkpt>
      <trkpt lat="36.797689" lon="-4.938797">
        <ele>532.009</ele>
        <time>2018-03-31T11:42:39Z</time>
      </trkpt>
      <trkpt lat="36.797736" lon="-4.938801">
        <ele>532.119</ele>
        <time>2018-03-31T11:42:40Z</time>
      </trkpt>
      <trkpt lat="36.797782" lon="-4.938801">
        <ele>532.208</ele>
        <time>2018-03-31T11:42:41Z</time>
      </trkpt>
      <trkpt lat="36.797864" lon="-4.938787">
        <ele>532.523</ele>
        <time>2018-03-31T11:42:43Z</time>
      </trkpt>
      <trkpt lat="36.797931" lon="-4.938754">
        <ele>532.714</ele>
        <time>2018-03-31T11:42:45Z</time>
      </trkpt>
      <trkpt lat="36.797975" lon="-4.938737">
        <ele>532.847</ele>
        <time>2018-03-31T11:42:46Z</time>
      </trkpt>
      <trkpt lat="36.798060" lon="-4.938708">
        <ele>532.913</ele>
        <time>2018-03-31T11:42:48Z</time>
      </trkpt>
      <trkpt lat="36.798141" lon="-4.938678">
        <ele>533.072</ele>
        <time>2018-03-31T11:42:50Z</time>
      </trkpt>
      <trkpt lat="36.798232" lon="-4.938666">
        <ele>533.229</ele>
        <time>2018-03-31T11:42:52Z</time>
      </trkpt>
      <trkpt lat="36.798308" lon="-4.938660">
        <ele>533.471</ele>
        <time>2018-03-31T11:42:54Z</time>
      </trkpt>
      <trkpt lat="36.798369" lon="-4.938664">
        <ele>533.613</ele>
        <time>2018-03-31T11:42:56Z</time>
      </trkpt>
      <trkpt lat="36.798426" lon="-4.938689">
        <ele>534.087</ele>
        <time>2018-03-31T11:43:00Z</time>
      </trkpt>
      <trkpt lat="36.798476" lon="-4.938697">
        <ele>534.342</ele>
        <time>2018-03-31T11:43:03Z</time>
      </trkpt>
      <trkpt lat="36.798531" lon="-4.938718">
        <ele>534.626</ele>
        <time>2018-03-31T11:43:06Z</time>
      </trkpt>
      <trkpt lat="36.798591" lon="-4.938754">
        <ele>535.008</ele>
        <time>2018-03-31T11:43:09Z</time>
      </trkpt>
      <trkpt lat="36.798648" lon="-4.938782">
        <ele>535.550</ele>
        <time>2018-03-31T11:43:12Z</time>
      </trkpt>
      <trkpt lat="36.798698" lon="-4.938821">
        <ele>535.841</ele>
        <time>2018-03-31T11:43:15Z</time>
      </trkpt>
      <trkpt lat="36.798742" lon="-4.938845">
        <ele>535.914</ele>
        <time>2018-03-31T11:43:17Z</time>
      </trkpt>
      <trkpt lat="36.798805" lon="-4.938871">
        <ele>535.780</ele>
        <time>2018-03-31T11:43:20Z</time>
      </trkpt>
      <trkpt lat="36.798862" lon="-4.938895">
        <ele>535.329</ele>
        <time>2018-03-31T11:43:22Z</time>
      </trkpt>
      <trkpt lat="36.798913" lon="-4.938918">
        <ele>534.886</ele>
        <time>2018-03-31T11:43:24Z</time>
      </trkpt>
      <trkpt lat="36.798976" lon="-4.938941">
        <ele>534.598</ele>
        <time>2018-03-31T11:43:26Z</time>
      </trkpt>
      <trkpt lat="36.799044" lon="-4.938962">
        <ele>534.470</ele>
        <time>2018-03-31T11:43:28Z</time>
      </trkpt>
      <trkpt lat="36.799103" lon="-4.938973">
        <ele>534.596</ele>
        <time>2018-03-31T11:43:30Z</time>
      </trkpt>
      <trkpt lat="36.799152" lon="-4.938996">
        <ele>534.631</ele>
        <time>2018-03-31T11:43:32Z</time>
      </trkpt>
      <trkpt lat="36.799198" lon="-4.939028">
        <ele>534.924</ele>
        <time>2018-03-31T11:43:34Z</time>
      </trkpt>
      <trkpt lat="36.799248" lon="-4.939059">
        <ele>535.308</ele>
        <time>2018-03-31T11:43:36Z</time>
      </trkpt>
      <trkpt lat="36.799299" lon="-4.939076">
        <ele>535.711</ele>
        <time>2018-03-31T11:43:38Z</time>
      </trkpt>
      <trkpt lat="36.799350" lon="-4.939107">
        <ele>536.212</ele>
        <time>2018-03-31T11:43:40Z</time>
      </trkpt>
      <trkpt lat="36.799397" lon="-4.939136">
        <ele>536.765</ele>
        <time>2018-03-31T11:43:42Z</time>
      </trkpt>
      <trkpt lat="36.799442" lon="-4.939162">
        <ele>537.221</ele>
        <time>2018-03-31T11:43:44Z</time>
      </trkpt>
      <trkpt lat="36.799494" lon="-4.939194">
        <ele>537.720</ele>
        <time>2018-03-31T11:43:46Z</time>
      </trkpt>
      <trkpt lat="36.799541" lon="-4.939227">
        <ele>538.347</ele>
        <time>2018-03-31T11:43:48Z</time>
      </trkpt>
      <trkpt lat="36.799589" lon="-4.939263">
        <ele>538.989</ele>
        <time>2018-03-31T11:43:50Z</time>
      </trkpt>
      <trkpt lat="36.799640" lon="-4.939285">
        <ele>539.541</ele>
        <time>2018-03-31T11:43:52Z</time>
      </trkpt>
      <trkpt lat="36.799685" lon="-4.939295">
        <ele>540.191</ele>
        <time>2018-03-31T11:43:54Z</time>
      </trkpt>
      <trkpt lat="36.799748" lon="-4.939305">
        <ele>540.781</ele>
        <time>2018-03-31T11:43:57Z</time>
      </trkpt>
      <trkpt lat="36.799807" lon="-4.939313">
        <ele>541.119</ele>
        <time>2018-03-31T11:44:00Z</time>
      </trkpt>
      <trkpt lat="36.799858" lon="-4.939318">
        <ele>541.308</ele>
        <time>2018-03-31T11:44:02Z</time>
      </trkpt>
      <trkpt lat="36.799903" lon="-4.939309">
        <ele>541.521</ele>
        <time>2018-03-31T11:44:04Z</time>
      </trkpt>
      <trkpt lat="36.799967" lon="-4.939309">
        <ele>541.632</ele>
        <time>2018-03-31T11:44:07Z</time>
      </trkpt>
      <trkpt lat="36.800034" lon="-4.939313">
        <ele>541.695</ele>
        <time>2018-03-31T11:44:10Z</time>
      </trkpt>
      <trkpt lat="36.800081" lon="-4.939314">
        <ele>541.721</ele>
        <time>2018-03-31T11:44:12Z</time>
      </trkpt>
      <trkpt lat="36.800140" lon="-4.939334">
        <ele>541.830</ele>
        <time>2018-03-31T11:44:15Z</time>
      </trkpt>
      <trkpt lat="36.800188" lon="-4.939352">
        <ele>542.077</ele>
        <time>2018-03-31T11:44:17Z</time>
      </trkpt>
      <trkpt lat="36.800231" lon="-4.939368">
        <ele>542.259</ele>
        <time>2018-03-31T11:44:19Z</time>
      </trkpt>
      <trkpt lat="36.800305" lon="-4.939391">
        <ele>542.641</ele>
        <time>2018-03-31T11:44:22Z</time>
      </trkpt>
      <trkpt lat="36.800369" lon="-4.939404">
        <ele>543.087</ele>
        <time>2018-03-31T11:44:25Z</time>
      </trkpt>
      <trkpt lat="36.800428" lon="-4.939417">
        <ele>543.242</ele>
        <time>2018-03-31T11:44:27Z</time>
      </trkpt>
      <trkpt lat="36.800484" lon="-4.939420">
        <ele>543.426</ele>
        <time>2018-03-31T11:44:29Z</time>
      </trkpt>
      <trkpt lat="36.800540" lon="-4.939425">
        <ele>543.608</ele>
        <time>2018-03-31T11:44:31Z</time>
      </trkpt>
      <trkpt lat="36.800603" lon="-4.939435">
        <ele>543.840</ele>
        <time>2018-03-31T11:44:33Z</time>
      </trkpt>
      <trkpt lat="36.800672" lon="-4.939440">
        <ele>544.071</ele>
        <time>2018-03-31T11:44:36Z</time>
      </trkpt>
      <trkpt lat="36.800722" lon="-4.939434">
        <ele>544.124</ele>
        <time>2018-03-31T11:44:38Z</time>
      </trkpt>
      <trkpt lat="36.800772" lon="-4.939442">
        <ele>544.180</ele>
        <time>2018-03-31T11:44:40Z</time>
      </trkpt>
      <trkpt lat="36.800818" lon="-4.939446">
        <ele>544.299</ele>
        <time>2018-03-31T11:44:42Z</time>
      </trkpt>
      <trkpt lat="36.800868" lon="-4.939447">
        <ele>544.376</ele>
        <time>2018-03-31T11:44:44Z</time>
      </trkpt>
      <trkpt lat="36.800919" lon="-4.939454">
        <ele>544.438</ele>
        <time>2018-03-31T11:44:46Z</time>
      </trkpt>
      <trkpt lat="36.800970" lon="-4.939443">
        <ele>544.520</ele>
        <time>2018-03-31T11:44:48Z</time>
      </trkpt>
      <trkpt lat="36.801030" lon="-4.939434">
        <ele>544.518</ele>
        <time>2018-03-31T11:44:50Z</time>
      </trkpt>
      <trkpt lat="36.801088" lon="-4.939425">
        <ele>544.498</ele>
        <time>2018-03-31T11:44:52Z</time>
      </trkpt>
      <trkpt lat="36.801149" lon="-4.939428">
        <ele>544.317</ele>
        <time>2018-03-31T11:44:54Z</time>
      </trkpt>
      <trkpt lat="36.801215" lon="-4.939427">
        <ele>544.308</ele>
        <time>2018-03-31T11:44:56Z</time>
      </trkpt>
      <trkpt lat="36.801271" lon="-4.939425">
        <ele>544.333</ele>
        <time>2018-03-31T11:44:58Z</time>
      </trkpt>
      <trkpt lat="36.801324" lon="-4.939430">
        <ele>544.334</ele>
        <time>2018-03-31T11:45:00Z</time>
      </trkpt>
      <trkpt lat="36.801380" lon="-4.939436">
        <ele>544.327</ele>
        <time>2018-03-31T11:45:02Z</time>
      </trkpt>
      <trkpt lat="36.801437" lon="-4.939448">
        <ele>544.433</ele>
        <time>2018-03-31T11:45:04Z</time>
      </trkpt>
      <trkpt lat="36.801483" lon="-4.939451">
        <ele>544.572</ele>
        <time>2018-03-31T11:45:06Z</time>
      </trkpt>
      <trkpt lat="36.801537" lon="-4.939458">
        <ele>544.679</ele>
        <time>2018-03-31T11:45:08Z</time>
      </trkpt>
      <trkpt lat="36.801596" lon="-4.939466">
        <ele>544.641</ele>
        <time>2018-03-31T11:45:10Z</time>
      </trkpt>
      <trkpt lat="36.801650" lon="-4.939479">
        <ele>546.533</ele>
        <time>2018-03-31T11:45:12Z</time>
      </trkpt>
      <trkpt lat="36.801697" lon="-4.939507">
        <ele>549.369</ele>
        <time>2018-03-31T11:45:14Z</time>
      </trkpt>
      <trkpt lat="36.801749" lon="-4.939530">
        <ele>551.404</ele>
        <time>2018-03-31T11:45:16Z</time>
      </trkpt>
      <trkpt lat="36.801799" lon="-4.939557">
        <ele>553.124</ele>
        <time>2018-03-31T11:45:18Z</time>
      </trkpt>
      <trkpt lat="36.801846" lon="-4.939583">
        <ele>557.608</ele>
        <time>2018-03-31T11:45:20Z</time>
      </trkpt>
      <trkpt lat="36.801892" lon="-4.939610">
        <ele>559.028</ele>
        <time>2018-03-31T11:45:22Z</time>
      </trkpt>
      <trkpt lat="36.801938" lon="-4.939638">
        <ele>560.159</ele>
        <time>2018-03-31T11:45:24Z</time>
      </trkpt>
      <trkpt lat="36.801992" lon="-4.939664">
        <ele>560.992</ele>
        <time>2018-03-31T11:45:26Z</time>
      </trkpt>
      <trkpt lat="36.802038" lon="-4.939692">
        <ele>561.088</ele>
        <time>2018-03-31T11:45:28Z</time>
      </trkpt>
      <trkpt lat="36.802093" lon="-4.939719">
        <ele>560.237</ele>
        <time>2018-03-31T11:45:31Z</time>
      </trkpt>
      <trkpt lat="36.802149" lon="-4.939747">
        <ele>558.544</ele>
        <time>2018-03-31T11:45:34Z</time>
      </trkpt>
      <trkpt lat="36.802214" lon="-4.939756">
        <ele>556.656</ele>
        <time>2018-03-31T11:45:37Z</time>
      </trkpt>
      <trkpt lat="36.802271" lon="-4.939802">
        <ele>555.698</ele>
        <time>2018-03-31T11:45:40Z</time>
      </trkpt>
      <trkpt lat="36.802321" lon="-4.939826">
        <ele>555.587</ele>
        <time>2018-03-31T11:45:42Z</time>
      </trkpt>
      <trkpt lat="36.802379" lon="-4.939854">
        <ele>555.042</ele>
        <time>2018-03-31T11:45:45Z</time>
      </trkpt>
      <trkpt lat="36.802431" lon="-4.939879">
        <ele>554.226</ele>
        <time>2018-03-31T11:45:47Z</time>
      </trkpt>
      <trkpt lat="36.802486" lon="-4.939913">
        <ele>551.308</ele>
        <time>2018-03-31T11:45:50Z</time>
      </trkpt>
      <trkpt lat="36.802536" lon="-4.939948">
        <ele>549.430</ele>
        <time>2018-03-31T11:45:52Z</time>
      </trkpt>
      <trkpt lat="36.802587" lon="-4.939978">
        <ele>548.061</ele>
        <time>2018-03-31T11:45:54Z</time>
      </trkpt>
      <trkpt lat="36.802633" lon="-4.940010">
        <ele>546.934</ele>
        <time>2018-03-31T11:45:56Z</time>
      </trkpt>
      <trkpt lat="36.802681" lon="-4.940023">
        <ele>546.620</ele>
        <time>2018-03-31T11:45:58Z</time>
      </trkpt>
      <trkpt lat="36.802726" lon="-4.940035">
        <ele>547.269</ele>
        <time>2018-03-31T11:46:00Z</time>
      </trkpt>
      <trkpt lat="36.802771" lon="-4.940052">
        <ele>548.266</ele>
        <time>2018-03-31T11:46:02Z</time>
      </trkpt>
      <trkpt lat="36.802813" lon="-4.940081">
        <ele>548.848</ele>
        <time>2018-03-31T11:46:04Z</time>
      </trkpt>
      <trkpt lat="36.802854" lon="-4.940111">
        <ele>548.880</ele>
        <time>2018-03-31T11:46:06Z</time>
      </trkpt>
      <trkpt lat="36.802906" lon="-4.940127">
        <ele>547.967</ele>
        <time>2018-03-31T11:46:08Z</time>
      </trkpt>
      <trkpt lat="36.802966" lon="-4.940158">
        <ele>546.681</ele>
        <time>2018-03-31T11:46:11Z</time>
      </trkpt>
      <trkpt lat="36.803016" lon="-4.940180">
        <ele>546.119</ele>
        <time>2018-03-31T11:46:13Z</time>
      </trkpt>
      <trkpt lat="36.803067" lon="-4.940206">
        <ele>545.608</ele>
        <time>2018-03-31T11:46:15Z</time>
      </trkpt>
      <trkpt lat="36.803111" lon="-4.940223">
        <ele>545.448</ele>
        <time>2018-03-31T11:46:17Z</time>
      </trkpt>
      <trkpt lat="36.803160" lon="-4.940251">
        <ele>545.119</ele>
        <time>2018-03-31T11:46:19Z</time>
      </trkpt>
      <trkpt lat="36.803212" lon="-4.940277">
        <ele>544.792</ele>
        <time>2018-03-31T11:46:21Z</time>
      </trkpt>
      <trkpt lat="36.803267" lon="-4.940299">
        <ele>543.928</ele>
        <time>2018-03-31T11:46:23Z</time>
      </trkpt>
      <trkpt lat="36.803314" lon="-4.940322">
        <ele>543.397</ele>
        <time>2018-03-31T11:46:25Z</time>
      </trkpt>
      <trkpt lat="36.803361" lon="-4.940341">
        <ele>543.594</ele>
        <time>2018-03-31T11:46:27Z</time>
      </trkpt>
      <trkpt lat="36.803423" lon="-4.940377">
        <ele>544.246</ele>
        <time>2018-03-31T11:46:30Z</time>
      </trkpt>
      <trkpt lat="36.803469" lon="-4.940400">
        <ele>544.788</ele>
        <time>2018-03-31T11:46:32Z</time>
      </trkpt>
      <trkpt lat="36.803520" lon="-4.940429">
        <ele>545.799</ele>
        <time>2018-03-31T11:46:34Z</time>
      </trkpt>
      <trkpt lat="36.803565" lon="-4.940471">
        <ele>546.607</ele>
        <time>2018-03-31T11:46:36Z</time>
      </trkpt>
      <trkpt lat="36.803616" lon="-4.940516">
        <ele>547.327</ele>
        <time>2018-03-31T11:46:38Z</time>
      </trkpt>
      <trkpt lat="36.803664" lon="-4.940551">
        <ele>547.208</ele>
        <time>2018-03-31T11:46:40Z</time>
      </trkpt>
      <trkpt lat="36.803709" lon="-4.940575">
        <ele>547.561</ele>
        <time>2018-03-31T11:46:42Z</time>
      </trkpt>
      <trkpt lat="36.803772" lon="-4.940613">
        <ele>548.442</ele>
        <time>2018-03-31T11:46:44Z</time>
      </trkpt>
      <trkpt lat="36.803811" lon="-4.940645">
        <ele>548.575</ele>
        <time>2018-03-31T11:46:46Z</time>
      </trkpt>
      <trkpt lat="36.803866" lon="-4.940687">
        <ele>547.461</ele>
        <time>2018-03-31T11:46:49Z</time>
      </trkpt>
      <trkpt lat="36.803911" lon="-4.940707">
        <ele>546.340</ele>
        <time>2018-03-31T11:46:51Z</time>
      </trkpt>
      <trkpt lat="36.803965" lon="-4.940724">
        <ele>545.497</ele>
        <time>2018-03-31T11:46:54Z</time>
      </trkpt>
      <trkpt lat="36.804030" lon="-4.940724">
        <ele>544.699</ele>
        <time>2018-03-31T11:46:59Z</time>
      </trkpt>
      <trkpt lat="36.804078" lon="-4.940713">
        <ele>545.651</ele>
        <time>2018-03-31T11:47:02Z</time>
      </trkpt>
      <trkpt lat="36.804144" lon="-4.940710">
        <ele>546.582</ele>
        <time>2018-03-31T11:47:04Z</time>
      </trkpt>
      <trkpt lat="36.804210" lon="-4.940695">
        <ele>548.043</ele>
        <time>2018-03-31T11:47:07Z</time>
      </trkpt>
      <trkpt lat="36.804255" lon="-4.940668">
        <ele>547.717</ele>
        <time>2018-03-31T11:47:09Z</time>
      </trkpt>
      <trkpt lat="36.804322" lon="-4.940630">
        <ele>548.008</ele>
        <time>2018-03-31T11:47:12Z</time>
      </trkpt>
      <trkpt lat="36.804377" lon="-4.940609">
        <ele>548.750</ele>
        <time>2018-03-31T11:47:14Z</time>
      </trkpt>
      <trkpt lat="36.804422" lon="-4.940592">
        <ele>549.361</ele>
        <time>2018-03-31T11:47:16Z</time>
      </trkpt>
      <trkpt lat="36.804481" lon="-4.940576">
        <ele>551.144</ele>
        <time>2018-03-31T11:47:19Z</time>
      </trkpt>
      <trkpt lat="36.804531" lon="-4.940576">
        <ele>552.960</ele>
        <time>2018-03-31T11:47:21Z</time>
      </trkpt>
      <trkpt lat="36.804594" lon="-4.940582">
        <ele>554.469</ele>
        <time>2018-03-31T11:47:23Z</time>
      </trkpt>
      <trkpt lat="36.804655" lon="-4.940575">
        <ele>555.816</ele>
        <time>2018-03-31T11:47:25Z</time>
      </trkpt>
      <trkpt lat="36.804710" lon="-4.940561">
        <ele>556.738</ele>
        <time>2018-03-31T11:47:27Z</time>
      </trkpt>
      <trkpt lat="36.804766" lon="-4.940553">
        <ele>557.080</ele>
        <time>2018-03-31T11:47:29Z</time>
      </trkpt>
      <trkpt lat="36.804825" lon="-4.940548">
        <ele>557.098</ele>
        <time>2018-03-31T11:47:31Z</time>
      </trkpt>
      <trkpt lat="36.804880" lon="-4.940540">
        <ele>557.415</ele>
        <time>2018-03-31T11:47:33Z</time>
      </trkpt>
      <trkpt lat="36.804935" lon="-4.940530">
        <ele>558.226</ele>
        <time>2018-03-31T11:47:35Z</time>
      </trkpt>
      <trkpt lat="36.805002" lon="-4.940523">
        <ele>560.008</ele>
        <time>2018-03-31T11:47:38Z</time>
      </trkpt>
      <trkpt lat="36.805062" lon="-4.940523">
        <ele>560.641</ele>
        <time>2018-03-31T11:47:40Z</time>
      </trkpt>
      <trkpt lat="36.805132" lon="-4.940525">
        <ele>560.482</ele>
        <time>2018-03-31T11:47:42Z</time>
      </trkpt>
      <trkpt lat="36.805188" lon="-4.940535">
        <ele>560.115</ele>
        <time>2018-03-31T11:47:44Z</time>
      </trkpt>
      <trkpt lat="36.805243" lon="-4.940541">
        <ele>559.951</ele>
        <time>2018-03-31T11:47:46Z</time>
      </trkpt>
      <trkpt lat="36.805299" lon="-4.940547">
        <ele>559.840</ele>
        <time>2018-03-31T11:47:48Z</time>
      </trkpt>
      <trkpt lat="36.805354" lon="-4.940563">
        <ele>559.727</ele>
        <time>2018-03-31T11:47:50Z</time>
      </trkpt>
      <trkpt lat="36.805409" lon="-4.940576">
        <ele>559.579</ele>
        <time>2018-03-31T11:47:52Z</time>
      </trkpt>
      <trkpt lat="36.805453" lon="-4.940591">
        <ele>559.411</ele>
        <time>2018-03-31T11:47:54Z</time>
      </trkpt>
      <trkpt lat="36.805500" lon="-4.940601">
        <ele>558.519</ele>
        <time>2018-03-31T11:47:56Z</time>
      </trkpt>
      <trkpt lat="36.805555" lon="-4.940620">
        <ele>557.609</ele>
        <time>2018-03-31T11:47:58Z</time>
      </trkpt>
      <trkpt lat="36.805610" lon="-4.940638">
        <ele>557.119</ele>
        <time>2018-03-31T11:48:00Z</time>
      </trkpt>
      <trkpt lat="36.805657" lon="-4.940653">
        <ele>556.808</ele>
        <time>2018-03-31T11:48:02Z</time>
      </trkpt>
      <trkpt lat="36.805706" lon="-4.940658">
        <ele>556.573</ele>
        <time>2018-03-31T11:48:04Z</time>
      </trkpt>
      <trkpt lat="36.805753" lon="-4.940677">
        <ele>556.154</ele>
        <time>2018-03-31T11:48:06Z</time>
      </trkpt>
      <trkpt lat="36.805793" lon="-4.940705">
        <ele>555.467</ele>
        <time>2018-03-31T11:48:08Z</time>
      </trkpt>
      <trkpt lat="36.805833" lon="-4.940734">
        <ele>554.753</ele>
        <time>2018-03-31T11:48:10Z</time>
      </trkpt>
      <trkpt lat="36.805878" lon="-4.940754">
        <ele>554.262</ele>
        <time>2018-03-31T11:48:12Z</time>
      </trkpt>
      <trkpt lat="36.805942" lon="-4.940784">
        <ele>553.469</ele>
        <time>2018-03-31T11:48:15Z</time>
      </trkpt>
      <trkpt lat="36.805999" lon="-4.940824">
        <ele>552.711</ele>
        <time>2018-03-31T11:48:18Z</time>
      </trkpt>
      <trkpt lat="36.806047" lon="-4.940853">
        <ele>552.773</ele>
        <time>2018-03-31T11:48:20Z</time>
      </trkpt>
      <trkpt lat="36.806100" lon="-4.940885">
        <ele>552.729</ele>
        <time>2018-03-31T11:48:22Z</time>
      </trkpt>
      <trkpt lat="36.806160" lon="-4.940903">
        <ele>553.300</ele>
        <time>2018-03-31T11:48:24Z</time>
      </trkpt>
      <trkpt lat="36.806217" lon="-4.940918">
        <ele>554.020</ele>
        <time>2018-03-31T11:48:26Z</time>
      </trkpt>
      <trkpt lat="36.806273" lon="-4.940923">
        <ele>554.908</ele>
        <time>2018-03-31T11:48:28Z</time>
      </trkpt>
      <trkpt lat="36.806326" lon="-4.940934">
        <ele>556.074</ele>
        <time>2018-03-31T11:48:30Z</time>
      </trkpt>
      <trkpt lat="36.806376" lon="-4.940943">
        <ele>557.355</ele>
        <time>2018-03-31T11:48:32Z</time>
      </trkpt>
      <trkpt lat="36.806422" lon="-4.940954">
        <ele>558.378</ele>
        <time>2018-03-31T11:48:34Z</time>
      </trkpt>
      <trkpt lat="36.806468" lon="-4.940979">
        <ele>559.374</ele>
        <time>2018-03-31T11:48:36Z</time>
      </trkpt>
      <trkpt lat="36.806514" lon="-4.940992">
        <ele>559.893</ele>
        <time>2018-03-31T11:48:39Z</time>
      </trkpt>
      <trkpt lat="36.806564" lon="-4.940997">
        <ele>559.720</ele>
        <time>2018-03-31T11:48:41Z</time>
      </trkpt>
      <trkpt lat="36.806606" lon="-4.941022">
        <ele>559.352</ele>
        <time>2018-03-31T11:48:43Z</time>
      </trkpt>
      <trkpt lat="36.806661" lon="-4.941057">
        <ele>559.164</ele>
        <time>2018-03-31T11:48:45Z</time>
      </trkpt>
      <trkpt lat="36.806717" lon="-4.941081">
        <ele>559.183</ele>
        <time>2018-03-31T11:48:47Z</time>
      </trkpt>
      <trkpt lat="36.806767" lon="-4.941106">
        <ele>559.325</ele>
        <time>2018-03-31T11:48:48Z</time>
      </trkpt>
      <trkpt lat="36.806818" lon="-4.941145">
        <ele>559.517</ele>
        <time>2018-03-31T11:48:50Z</time>
      </trkpt>
      <trkpt lat="36.806867" lon="-4.941182">
        <ele>559.608</ele>
        <time>2018-03-31T11:48:52Z</time>
      </trkpt>
      <trkpt lat="36.806915" lon="-4.941214">
        <ele>559.510</ele>
        <time>2018-03-31T11:48:54Z</time>
      </trkpt>
      <trkpt lat="36.806962" lon="-4.941233">
        <ele>559.071</ele>
        <time>2018-03-31T11:48:56Z</time>
      </trkpt>
      <trkpt lat="36.807011" lon="-4.941252">
        <ele>558.454</ele>
        <time>2018-03-31T11:48:58Z</time>
      </trkpt>
      <trkpt lat="36.807055" lon="-4.941273">
        <ele>558.170</ele>
        <time>2018-03-31T11:49:00Z</time>
      </trkpt>
      <trkpt lat="36.807096" lon="-4.941303">
        <ele>558.349</ele>
        <time>2018-03-31T11:49:02Z</time>
      </trkpt>
      <trkpt lat="36.807143" lon="-4.941317">
        <ele>558.816</ele>
        <time>2018-03-31T11:49:04Z</time>
      </trkpt>
      <trkpt lat="36.807204" lon="-4.941338">
        <ele>559.368</ele>
        <time>2018-03-31T11:49:07Z</time>
      </trkpt>
      <trkpt lat="36.807267" lon="-4.941362">
        <ele>559.510</ele>
        <time>2018-03-31T11:49:10Z</time>
      </trkpt>
      <trkpt lat="36.807325" lon="-4.941394">
        <ele>560.047</ele>
        <time>2018-03-31T11:49:13Z</time>
      </trkpt>
      <trkpt lat="36.807385" lon="-4.941421">
        <ele>560.529</ele>
        <time>2018-03-31T11:49:16Z</time>
      </trkpt>
      <trkpt lat="36.807449" lon="-4.941446">
        <ele>560.421</ele>
        <time>2018-03-31T11:49:19Z</time>
      </trkpt>
      <trkpt lat="36.807502" lon="-4.941478">
        <ele>560.308</ele>
        <time>2018-03-31T11:49:21Z</time>
      </trkpt>
      <trkpt lat="36.807554" lon="-4.941497">
        <ele>560.066</ele>
        <time>2018-03-31T11:49:23Z</time>
      </trkpt>
      <trkpt lat="36.807600" lon="-4.941505">
        <ele>559.547</ele>
        <time>2018-03-31T11:49:25Z</time>
      </trkpt>
      <trkpt lat="36.807652" lon="-4.941514">
        <ele>559.250</ele>
        <time>2018-03-31T11:49:27Z</time>
      </trkpt>
      <trkpt lat="36.807705" lon="-4.941532">
        <ele>558.896</ele>
        <time>2018-03-31T11:49:29Z</time>
      </trkpt>
      <trkpt lat="36.807752" lon="-4.941535">
        <ele>558.525</ele>
        <time>2018-03-31T11:49:31Z</time>
      </trkpt>
      <trkpt lat="36.807800" lon="-4.941530">
        <ele>558.732</ele>
        <time>2018-03-31T11:49:33Z</time>
      </trkpt>
      <trkpt lat="36.807863" lon="-4.941536">
        <ele>558.834</ele>
        <time>2018-03-31T11:49:35Z</time>
      </trkpt>
      <trkpt lat="36.807938" lon="-4.941555">
        <ele>559.096</ele>
        <time>2018-03-31T11:49:37Z</time>
      </trkpt>
      <trkpt lat="36.807995" lon="-4.941581">
        <ele>559.285</ele>
        <time>2018-03-31T11:49:39Z</time>
      </trkpt>
      <trkpt lat="36.808040" lon="-4.941587">
        <ele>559.589</ele>
        <time>2018-03-31T11:49:41Z</time>
      </trkpt>
      <trkpt lat="36.808091" lon="-4.941596">
        <ele>560.017</ele>
        <time>2018-03-31T11:49:43Z</time>
      </trkpt>
      <trkpt lat="36.808139" lon="-4.941605">
        <ele>560.408</ele>
        <time>2018-03-31T11:49:45Z</time>
      </trkpt>
      <trkpt lat="36.808189" lon="-4.941625">
        <ele>560.990</ele>
        <time>2018-03-31T11:49:47Z</time>
      </trkpt>
      <trkpt lat="36.808236" lon="-4.941639">
        <ele>561.631</ele>
        <time>2018-03-31T11:49:49Z</time>
      </trkpt>
      <trkpt lat="36.808286" lon="-4.941655">
        <ele>562.264</ele>
        <time>2018-03-31T11:49:51Z</time>
      </trkpt>
      <trkpt lat="36.808337" lon="-4.941670">
        <ele>562.680</ele>
        <time>2018-03-31T11:49:53Z</time>
      </trkpt>
      <trkpt lat="36.808393" lon="-4.941691">
        <ele>563.249</ele>
        <time>2018-03-31T11:49:55Z</time>
      </trkpt>
      <trkpt lat="36.808448" lon="-4.941706">
        <ele>563.646</ele>
        <time>2018-03-31T11:49:57Z</time>
      </trkpt>
      <trkpt lat="36.808514" lon="-4.941714">
        <ele>564.228</ele>
        <time>2018-03-31T11:49:59Z</time>
      </trkpt>
      <trkpt lat="36.808577" lon="-4.941732">
        <ele>564.340</ele>
        <time>2018-03-31T11:50:01Z</time>
      </trkpt>
      <trkpt lat="36.808639" lon="-4.941735">
        <ele>564.451</ele>
        <time>2018-03-31T11:50:03Z</time>
      </trkpt>
      <trkpt lat="36.808694" lon="-4.941732">
        <ele>564.301</ele>
        <time>2018-03-31T11:50:05Z</time>
      </trkpt>
      <trkpt lat="36.808749" lon="-4.941734">
        <ele>564.511</ele>
        <time>2018-03-31T11:50:07Z</time>
      </trkpt>
      <trkpt lat="36.808799" lon="-4.941739">
        <ele>564.608</ele>
        <time>2018-03-31T11:50:09Z</time>
      </trkpt>
      <trkpt lat="36.808859" lon="-4.941746">
        <ele>564.787</ele>
        <time>2018-03-31T11:50:11Z</time>
      </trkpt>
      <trkpt lat="36.808929" lon="-4.941758">
        <ele>564.818</ele>
        <time>2018-03-31T11:50:13Z</time>
      </trkpt>
      <trkpt lat="36.808983" lon="-4.941763">
        <ele>565.091</ele>
        <time>2018-03-31T11:50:15Z</time>
      </trkpt>
      <trkpt lat="36.809046" lon="-4.941754">
        <ele>564.767</ele>
        <time>2018-03-31T11:50:18Z</time>
      </trkpt>
      <trkpt lat="36.809093" lon="-4.941754">
        <ele>564.126</ele>
        <time>2018-03-31T11:50:20Z</time>
      </trkpt>
      <trkpt lat="36.809158" lon="-4.941755">
        <ele>562.373</ele>
        <time>2018-03-31T11:50:23Z</time>
      </trkpt>
      <trkpt lat="36.809230" lon="-4.941759">
        <ele>560.895</ele>
        <time>2018-03-31T11:50:26Z</time>
      </trkpt>
      <trkpt lat="36.809288" lon="-4.941762">
        <ele>560.137</ele>
        <time>2018-03-31T11:50:28Z</time>
      </trkpt>
      <trkpt lat="36.809355" lon="-4.941772">
        <ele>559.487</ele>
        <time>2018-03-31T11:50:30Z</time>
      </trkpt>
      <trkpt lat="36.809413" lon="-4.941778">
        <ele>558.742</ele>
        <time>2018-03-31T11:50:32Z</time>
      </trkpt>
      <trkpt lat="36.809470" lon="-4.941784">
        <ele>558.526</ele>
        <time>2018-03-31T11:50:34Z</time>
      </trkpt>
      <trkpt lat="36.809530" lon="-4.941790">
        <ele>559.108</ele>
        <time>2018-03-31T11:50:36Z</time>
      </trkpt>
      <trkpt lat="36.809590" lon="-4.941804">
        <ele>559.690</ele>
        <time>2018-03-31T11:50:38Z</time>
      </trkpt>
      <trkpt lat="36.809645" lon="-4.941813">
        <ele>559.551</ele>
        <time>2018-03-31T11:50:40Z</time>
      </trkpt>
      <trkpt lat="36.809692" lon="-4.941823">
        <ele>559.834</ele>
        <time>2018-03-31T11:50:42Z</time>
      </trkpt>
      <trkpt lat="36.809748" lon="-4.941851">
        <ele>559.280</ele>
        <time>2018-03-31T11:50:45Z</time>
      </trkpt>
      <trkpt lat="36.809810" lon="-4.941875">
        <ele>558.379</ele>
        <time>2018-03-31T11:50:48Z</time>
      </trkpt>
      <trkpt lat="36.809877" lon="-4.941897">
        <ele>557.676</ele>
        <time>2018-03-31T11:50:51Z</time>
      </trkpt>
      <trkpt lat="36.809925" lon="-4.941894">
        <ele>557.278</ele>
        <time>2018-03-31T11:50:53Z</time>
      </trkpt>
      <trkpt lat="36.809994" lon="-4.941873">
        <ele>557.010</ele>
        <time>2018-03-31T11:50:56Z</time>
      </trkpt>
      <trkpt lat="36.810039" lon="-4.941860">
        <ele>557.216</ele>
        <time>2018-03-31T11:50:58Z</time>
      </trkpt>
      <trkpt lat="36.810089" lon="-4.941867">
        <ele>557.676</ele>
        <time>2018-03-31T11:51:01Z</time>
      </trkpt>
      <trkpt lat="36.810148" lon="-4.941871">
        <ele>557.713</ele>
        <time>2018-03-31T11:51:04Z</time>
      </trkpt>
      <trkpt lat="36.810212" lon="-4.941882">
        <ele>557.208</ele>
        <time>2018-03-31T11:51:07Z</time>
      </trkpt>
      <trkpt lat="36.810270" lon="-4.941901">
        <ele>556.973</ele>
        <time>2018-03-31T11:51:10Z</time>
      </trkpt>
      <trkpt lat="36.810316" lon="-4.941910">
        <ele>556.374</ele>
        <time>2018-03-31T11:51:13Z</time>
      </trkpt>
      <trkpt lat="36.810376" lon="-4.941923">
        <ele>555.877</ele>
        <time>2018-03-31T11:51:16Z</time>
      </trkpt>
      <trkpt lat="36.810434" lon="-4.941931">
        <ele>555.893</ele>
        <time>2018-03-31T11:51:19Z</time>
      </trkpt>
      <trkpt lat="36.810489" lon="-4.941954">
        <ele>555.062</ele>
        <time>2018-03-31T11:51:22Z</time>
      </trkpt>
      <trkpt lat="36.810549" lon="-4.941970">
        <ele>555.319</ele>
        <time>2018-03-31T11:51:25Z</time>
      </trkpt>
      <trkpt lat="36.810601" lon="-4.941984">
        <ele>555.961</ele>
        <time>2018-03-31T11:51:28Z</time>
      </trkpt>
      <trkpt lat="36.810668" lon="-4.941981">
        <ele>556.963</ele>
        <time>2018-03-31T11:51:31Z</time>
      </trkpt>
      <trkpt lat="36.810729" lon="-4.941978">
        <ele>557.797</ele>
        <time>2018-03-31T11:51:34Z</time>
      </trkpt>
      <trkpt lat="36.810789" lon="-4.941969">
        <ele>558.523</ele>
        <time>2018-03-31T11:51:37Z</time>
      </trkpt>
      <trkpt lat="36.810852" lon="-4.941982">
        <ele>560.425</ele>
        <time>2018-03-31T11:51:40Z</time>
      </trkpt>
      <trkpt lat="36.810915" lon="-4.941989">
        <ele>561.808</ele>
        <time>2018-03-31T11:51:43Z</time>
      </trkpt>
      <trkpt lat="36.810978" lon="-4.942002">
        <ele>562.491</ele>
        <time>2018-03-31T11:51:46Z</time>
      </trkpt>
      <trkpt lat="36.811033" lon="-4.941992">
        <ele>563.252</ele>
        <time>2018-03-31T11:51:49Z</time>
      </trkpt>
      <trkpt lat="36.811095" lon="-4.941981">
        <ele>563.995</ele>
        <time>2018-03-31T11:51:52Z</time>
      </trkpt>
      <trkpt lat="36.811149" lon="-4.941983">
        <ele>563.861</ele>
        <time>2018-03-31T11:51:54Z</time>
      </trkpt>
      <trkpt lat="36.811202" lon="-4.941999">
        <ele>563.630</ele>
        <time>2018-03-31T11:51:56Z</time>
      </trkpt>
      <trkpt lat="36.811255" lon="-4.942009">
        <ele>563.567</ele>
        <time>2018-03-31T11:51:58Z</time>
      </trkpt>
      <trkpt lat="36.811305" lon="-4.942011">
        <ele>563.159</ele>
        <time>2018-03-31T11:52:00Z</time>
      </trkpt>
      <trkpt lat="36.811354" lon="-4.942019">
        <ele>562.951</ele>
        <time>2018-03-31T11:52:02Z</time>
      </trkpt>
      <trkpt lat="36.811402" lon="-4.942036">
        <ele>563.113</ele>
        <time>2018-03-31T11:52:04Z</time>
      </trkpt>
      <trkpt lat="36.811460" lon="-4.942061">
        <ele>564.443</ele>
        <time>2018-03-31T11:52:07Z</time>
      </trkpt>
      <trkpt lat="36.811507" lon="-4.942064">
        <ele>564.507</ele>
        <time>2018-03-31T11:52:09Z</time>
      </trkpt>
      <trkpt lat="36.811567" lon="-4.942074">
        <ele>564.208</ele>
        <time>2018-03-31T11:52:12Z</time>
      </trkpt>
      <trkpt lat="36.811612" lon="-4.942084">
        <ele>564.473</ele>
        <time>2018-03-31T11:52:14Z</time>
      </trkpt>
      <trkpt lat="36.811660" lon="-4.942091">
        <ele>564.534</ele>
        <time>2018-03-31T11:52:16Z</time>
      </trkpt>
      <trkpt lat="36.811708" lon="-4.942100">
        <ele>564.327</ele>
        <time>2018-03-31T11:52:18Z</time>
      </trkpt>
      <trkpt lat="36.811753" lon="-4.942112">
        <ele>564.173</ele>
        <time>2018-03-31T11:52:20Z</time>
      </trkpt>
      <trkpt lat="36.811799" lon="-4.942121">
        <ele>564.452</ele>
        <time>2018-03-31T11:52:22Z</time>
      </trkpt>
      <trkpt lat="36.811862" lon="-4.942138">
        <ele>565.129</ele>
        <time>2018-03-31T11:52:25Z</time>
      </trkpt>
      <trkpt lat="36.811911" lon="-4.942139">
        <ele>565.531</ele>
        <time>2018-03-31T11:52:27Z</time>
      </trkpt>
      <trkpt lat="36.811957" lon="-4.942147">
        <ele>566.113</ele>
        <time>2018-03-31T11:52:29Z</time>
      </trkpt>
      <trkpt lat="36.812004" lon="-4.942156">
        <ele>567.371</ele>
        <time>2018-03-31T11:52:31Z</time>
      </trkpt>
      <trkpt lat="36.812051" lon="-4.942150">
        <ele>569.141</ele>
        <time>2018-03-31T11:52:33Z</time>
      </trkpt>
      <trkpt lat="36.812102" lon="-4.942138">
        <ele>569.815</ele>
        <time>2018-03-31T11:52:35Z</time>
      </trkpt>
      <trkpt lat="36.812161" lon="-4.942128">
        <ele>570.208</ele>
        <time>2018-03-31T11:52:37Z</time>
      </trkpt>
      <trkpt lat="36.812222" lon="-4.942120">
        <ele>571.249</ele>
        <time>2018-03-31T11:52:39Z</time>
      </trkpt>
      <trkpt lat="36.812287" lon="-4.942109">
        <ele>571.040</ele>
        <time>2018-03-31T11:52:41Z</time>
      </trkpt>
      <trkpt lat="36.812343" lon="-4.942095">
        <ele>569.733</ele>
        <time>2018-03-31T11:52:43Z</time>
      </trkpt>
      <trkpt lat="36.812398" lon="-4.942101">
        <ele>568.739</ele>
        <time>2018-03-31T11:52:45Z</time>
      </trkpt>
      <trkpt lat="36.812453" lon="-4.942109">
        <ele>567.928</ele>
        <time>2018-03-31T11:52:47Z</time>
      </trkpt>
      <trkpt lat="36.812509" lon="-4.942114">
        <ele>567.545</ele>
        <time>2018-03-31T11:52:49Z</time>
      </trkpt>
      <trkpt lat="36.812568" lon="-4.942115">
        <ele>566.827</ele>
        <time>2018-03-31T11:52:51Z</time>
      </trkpt>
      <trkpt lat="36.812627" lon="-4.942113">
        <ele>566.469</ele>
        <time>2018-03-31T11:52:53Z</time>
      </trkpt>
      <trkpt lat="36.812684" lon="-4.942102">
        <ele>566.137</ele>
        <time>2018-03-31T11:52:55Z</time>
      </trkpt>
      <trkpt lat="36.812737" lon="-4.942099">
        <ele>566.249</ele>
        <time>2018-03-31T11:52:57Z</time>
      </trkpt>
      <trkpt lat="36.812788" lon="-4.942105">
        <ele>566.413</ele>
        <time>2018-03-31T11:52:59Z</time>
      </trkpt>
      <trkpt lat="36.812852" lon="-4.942095">
        <ele>567.208</ele>
        <time>2018-03-31T11:53:02Z</time>
      </trkpt>
      <trkpt lat="36.812900" lon="-4.942093">
        <ele>568.285</ele>
        <time>2018-03-31T11:53:04Z</time>
      </trkpt>
      <trkpt lat="36.812958" lon="-4.942082">
        <ele>569.696</ele>
        <time>2018-03-31T11:53:06Z</time>
      </trkpt>
      <trkpt lat="36.813015" lon="-4.942062">
        <ele>571.129</ele>
        <time>2018-03-31T11:53:08Z</time>
      </trkpt>
      <trkpt lat="36.813078" lon="-4.942049">
        <ele>571.965</ele>
        <time>2018-03-31T11:53:10Z</time>
      </trkpt>
      <trkpt lat="36.813147" lon="-4.942038">
        <ele>572.974</ele>
        <time>2018-03-31T11:53:13Z</time>
      </trkpt>
      <trkpt lat="36.813202" lon="-4.942028">
        <ele>573.481</ele>
        <time>2018-03-31T11:53:15Z</time>
      </trkpt>
      <trkpt lat="36.813270" lon="-4.942022">
        <ele>573.283</ele>
        <time>2018-03-31T11:53:17Z</time>
      </trkpt>
      <trkpt lat="36.813319" lon="-4.942022">
        <ele>573.375</ele>
        <time>2018-03-31T11:53:19Z</time>
      </trkpt>
      <trkpt lat="36.813364" lon="-4.942024">
        <ele>573.457</ele>
        <time>2018-03-31T11:53:21Z</time>
      </trkpt>
      <trkpt lat="36.813427" lon="-4.942028">
        <ele>572.400</ele>
        <time>2018-03-31T11:53:24Z</time>
      </trkpt>
      <trkpt lat="36.813474" lon="-4.942031">
        <ele>571.120</ele>
        <time>2018-03-31T11:53:26Z</time>
      </trkpt>
      <trkpt lat="36.813529" lon="-4.942031">
        <ele>569.708</ele>
        <time>2018-03-31T11:53:28Z</time>
      </trkpt>
      <trkpt lat="36.813578" lon="-4.942036">
        <ele>568.197</ele>
        <time>2018-03-31T11:53:30Z</time>
      </trkpt>
      <trkpt lat="36.813633" lon="-4.942053">
        <ele>566.038</ele>
        <time>2018-03-31T11:53:33Z</time>
      </trkpt>
      <trkpt lat="36.813679" lon="-4.942054">
        <ele>565.461</ele>
        <time>2018-03-31T11:53:35Z</time>
      </trkpt>
      <trkpt lat="36.813743" lon="-4.942051">
        <ele>565.177</ele>
        <time>2018-03-31T11:53:38Z</time>
      </trkpt>
      <trkpt lat="36.813806" lon="-4.942039">
        <ele>565.216</ele>
        <time>2018-03-31T11:53:41Z</time>
      </trkpt>
      <trkpt lat="36.813861" lon="-4.942033">
        <ele>565.523</ele>
        <time>2018-03-31T11:53:43Z</time>
      </trkpt>
      <trkpt lat="36.813917" lon="-4.942034">
        <ele>566.025</ele>
        <time>2018-03-31T11:53:45Z</time>
      </trkpt>
      <trkpt lat="36.813975" lon="-4.942027">
        <ele>566.647</ele>
        <time>2018-03-31T11:53:47Z</time>
      </trkpt>
      <trkpt lat="36.814036" lon="-4.942028">
        <ele>566.135</ele>
        <time>2018-03-31T11:53:49Z</time>
      </trkpt>
      <trkpt lat="36.814088" lon="-4.942031">
        <ele>565.486</ele>
        <time>2018-03-31T11:53:51Z</time>
      </trkpt>
      <trkpt lat="36.814142" lon="-4.942043">
        <ele>565.114</ele>
        <time>2018-03-31T11:53:53Z</time>
      </trkpt>
      <trkpt lat="36.814200" lon="-4.942055">
        <ele>565.408</ele>
        <time>2018-03-31T11:53:55Z</time>
      </trkpt>
      <trkpt lat="36.814247" lon="-4.942065">
        <ele>566.335</ele>
        <time>2018-03-31T11:53:57Z</time>
      </trkpt>
      <trkpt lat="36.814300" lon="-4.942082">
        <ele>567.056</ele>
        <time>2018-03-31T11:53:59Z</time>
      </trkpt>
      <trkpt lat="36.814347" lon="-4.942094">
        <ele>567.729</ele>
        <time>2018-03-31T11:54:01Z</time>
      </trkpt>
      <trkpt lat="36.814395" lon="-4.942110">
        <ele>568.395</ele>
        <time>2018-03-31T11:54:03Z</time>
      </trkpt>
      <trkpt lat="36.814450" lon="-4.942134">
        <ele>569.014</ele>
        <time>2018-03-31T11:54:05Z</time>
      </trkpt>
      <trkpt lat="36.814505" lon="-4.942153">
        <ele>569.941</ele>
        <time>2018-03-31T11:54:07Z</time>
      </trkpt>
      <trkpt lat="36.814554" lon="-4.942173">
        <ele>571.163</ele>
        <time>2018-03-31T11:54:09Z</time>
      </trkpt>
      <trkpt lat="36.814602" lon="-4.942191">
        <ele>572.915</ele>
        <time>2018-03-31T11:54:11Z</time>
      </trkpt>
      <trkpt lat="36.814653" lon="-4.942201">
        <ele>574.348</ele>
        <time>2018-03-31T11:54:13Z</time>
      </trkpt>
      <trkpt lat="36.814706" lon="-4.942208">
        <ele>574.861</ele>
        <time>2018-03-31T11:54:15Z</time>
      </trkpt>
      <trkpt lat="36.814754" lon="-4.942209">
        <ele>575.017</ele>
        <time>2018-03-31T11:54:17Z</time>
      </trkpt>
      <trkpt lat="36.814803" lon="-4.942200">
        <ele>575.408</ele>
        <time>2018-03-31T11:54:19Z</time>
      </trkpt>
      <trkpt lat="36.814849" lon="-4.942204">
        <ele>576.016</ele>
        <time>2018-03-31T11:54:21Z</time>
      </trkpt>
      <trkpt lat="36.814902" lon="-4.942232">
        <ele>577.387</ele>
        <time>2018-03-31T11:54:24Z</time>
      </trkpt>
      <trkpt lat="36.814952" lon="-4.942252">
        <ele>578.970</ele>
        <time>2018-03-31T11:54:27Z</time>
      </trkpt>
      <trkpt lat="36.814998" lon="-4.942275">
        <ele>580.216</ele>
        <time>2018-03-31T11:54:29Z</time>
      </trkpt>
      <trkpt lat="36.815042" lon="-4.942305">
        <ele>581.125</ele>
        <time>2018-03-31T11:54:31Z</time>
      </trkpt>
      <trkpt lat="36.815092" lon="-4.942340">
        <ele>581.712</ele>
        <time>2018-03-31T11:54:33Z</time>
      </trkpt>
      <trkpt lat="36.815139" lon="-4.942361">
        <ele>582.484</ele>
        <time>2018-03-31T11:54:35Z</time>
      </trkpt>
      <trkpt lat="36.815187" lon="-4.942396">
        <ele>582.696</ele>
        <time>2018-03-31T11:54:38Z</time>
      </trkpt>
      <trkpt lat="36.815234" lon="-4.942432">
        <ele>582.666</ele>
        <time>2018-03-31T11:54:41Z</time>
      </trkpt>
      <trkpt lat="36.815289" lon="-4.942465">
        <ele>582.529</ele>
        <time>2018-03-31T11:54:44Z</time>
      </trkpt>
      <trkpt lat="36.815347" lon="-4.942499">
        <ele>582.621</ele>
        <time>2018-03-31T11:54:47Z</time>
      </trkpt>
      <trkpt lat="36.815389" lon="-4.942520">
        <ele>582.208</ele>
        <time>2018-03-31T11:54:49Z</time>
      </trkpt>
      <trkpt lat="36.815443" lon="-4.942537">
        <ele>582.168</ele>
        <time>2018-03-31T11:54:51Z</time>
      </trkpt>
      <trkpt lat="36.815498" lon="-4.942547">
        <ele>581.839</ele>
        <time>2018-03-31T11:54:53Z</time>
      </trkpt>
      <trkpt lat="36.815551" lon="-4.942558">
        <ele>582.282</ele>
        <time>2018-03-31T11:54:55Z</time>
      </trkpt>
      <trkpt lat="36.815597" lon="-4.942568">
        <ele>583.048</ele>
        <time>2018-03-31T11:54:57Z</time>
      </trkpt>
      <trkpt lat="36.815645" lon="-4.942567">
        <ele>582.947</ele>
        <time>2018-03-31T11:54:59Z</time>
      </trkpt>
      <trkpt lat="36.815707" lon="-4.942559">
        <ele>582.694</ele>
        <time>2018-03-31T11:55:01Z</time>
      </trkpt>
      <trkpt lat="36.815769" lon="-4.942563">
        <ele>581.886</ele>
        <time>2018-03-31T11:55:03Z</time>
      </trkpt>
      <trkpt lat="36.815823" lon="-4.942563">
        <ele>580.998</ele>
        <time>2018-03-31T11:55:05Z</time>
      </trkpt>
      <trkpt lat="36.815877" lon="-4.942564">
        <ele>579.911</ele>
        <time>2018-03-31T11:55:07Z</time>
      </trkpt>
      <trkpt lat="36.815927" lon="-4.942573">
        <ele>579.121</ele>
        <time>2018-03-31T11:55:09Z</time>
      </trkpt>
      <trkpt lat="36.815992" lon="-4.942578">
        <ele>579.503</ele>
        <time>2018-03-31T11:55:12Z</time>
      </trkpt>
      <trkpt lat="36.816054" lon="-4.942580">
        <ele>581.308</ele>
        <time>2018-03-31T11:55:15Z</time>
      </trkpt>
      <trkpt lat="36.816118" lon="-4.942604">
        <ele>582.563</ele>
        <time>2018-03-31T11:55:18Z</time>
      </trkpt>
      <trkpt lat="36.816175" lon="-4.942637">
        <ele>582.864</ele>
        <time>2018-03-31T11:55:21Z</time>
      </trkpt>
      <trkpt lat="36.816230" lon="-4.942661">
        <ele>582.997</ele>
        <time>2018-03-31T11:55:24Z</time>
      </trkpt>
      <trkpt lat="36.816270" lon="-4.942688">
        <ele>583.033</ele>
        <time>2018-03-31T11:55:26Z</time>
      </trkpt>
      <trkpt lat="36.816314" lon="-4.942747">
        <ele>582.722</ele>
        <time>2018-03-31T11:55:29Z</time>
      </trkpt>
      <trkpt lat="36.816356" lon="-4.942811">
        <ele>581.429</ele>
        <time>2018-03-31T11:55:32Z</time>
      </trkpt>
      <trkpt lat="36.816398" lon="-4.942857">
        <ele>581.191</ele>
        <time>2018-03-31T11:55:35Z</time>
      </trkpt>
      <trkpt lat="36.816450" lon="-4.942903">
        <ele>581.063</ele>
        <time>2018-03-31T11:55:38Z</time>
      </trkpt>
      <trkpt lat="36.816499" lon="-4.942951">
        <ele>582.618</ele>
        <time>2018-03-31T11:55:41Z</time>
      </trkpt>
      <trkpt lat="36.816539" lon="-4.942992">
        <ele>583.198</ele>
        <time>2018-03-31T11:55:45Z</time>
      </trkpt>
      <trkpt lat="36.816594" lon="-4.943038">
        <ele>583.217</ele>
        <time>2018-03-31T11:55:48Z</time>
      </trkpt>
      <trkpt lat="36.816630" lon="-4.943073">
        <ele>583.708</ele>
        <time>2018-03-31T11:55:50Z</time>
      </trkpt>
      <trkpt lat="36.816682" lon="-4.943107">
        <ele>583.863</ele>
        <time>2018-03-31T11:55:51Z</time>
      </trkpt>
      <trkpt lat="36.816735" lon="-4.943143">
        <ele>583.774</ele>
        <time>2018-03-31T11:55:53Z</time>
      </trkpt>
      <trkpt lat="36.816785" lon="-4.943186">
        <ele>583.147</ele>
        <time>2018-03-31T11:55:56Z</time>
      </trkpt>
      <trkpt lat="36.816834" lon="-4.943204">
        <ele>583.013</ele>
        <time>2018-03-31T11:55:59Z</time>
      </trkpt>
      <trkpt lat="36.816880" lon="-4.943208">
        <ele>582.222</ele>
        <time>2018-03-31T11:56:01Z</time>
      </trkpt>
      <trkpt lat="36.816933" lon="-4.943212">
        <ele>582.029</ele>
        <time>2018-03-31T11:56:03Z</time>
      </trkpt>
      <trkpt lat="36.817000" lon="-4.943211">
        <ele>582.081</ele>
        <time>2018-03-31T11:56:05Z</time>
      </trkpt>
      <trkpt lat="36.817066" lon="-4.943195">
        <ele>582.893</ele>
        <time>2018-03-31T11:56:08Z</time>
      </trkpt>
      <trkpt lat="36.817124" lon="-4.943166">
        <ele>584.235</ele>
        <time>2018-03-31T11:56:11Z</time>
      </trkpt>
      <trkpt lat="36.817172" lon="-4.943134">
        <ele>586.986</ele>
        <time>2018-03-31T11:56:14Z</time>
      </trkpt>
      <trkpt lat="36.817224" lon="-4.943099">
        <ele>588.314</ele>
        <time>2018-03-31T11:56:17Z</time>
      </trkpt>
      <trkpt lat="36.817293" lon="-4.943074">
        <ele>589.208</ele>
        <time>2018-03-31T11:56:20Z</time>
      </trkpt>
      <trkpt lat="36.817354" lon="-4.943066">
        <ele>590.025</ele>
        <time>2018-03-31T11:56:23Z</time>
      </trkpt>
      <trkpt lat="36.817409" lon="-4.943044">
        <ele>590.586</ele>
        <time>2018-03-31T11:56:25Z</time>
      </trkpt>
      <trkpt lat="36.817458" lon="-4.943021">
        <ele>591.039</ele>
        <time>2018-03-31T11:56:27Z</time>
      </trkpt>
      <trkpt lat="36.817500" lon="-4.942996">
        <ele>590.545</ele>
        <time>2018-03-31T11:56:29Z</time>
      </trkpt>
      <trkpt lat="36.817556" lon="-4.942982">
        <ele>589.194</ele>
        <time>2018-03-31T11:56:31Z</time>
      </trkpt>
      <trkpt lat="36.817613" lon="-4.942982">
        <ele>587.841</ele>
        <time>2018-03-31T11:56:33Z</time>
      </trkpt>
      <trkpt lat="36.817674" lon="-4.942971">
        <ele>586.593</ele>
        <time>2018-03-31T11:56:35Z</time>
      </trkpt>
      <trkpt lat="36.817727" lon="-4.942958">
        <ele>585.265</ele>
        <time>2018-03-31T11:56:37Z</time>
      </trkpt>
      <trkpt lat="36.817782" lon="-4.942935">
        <ele>583.783</ele>
        <time>2018-03-31T11:56:39Z</time>
      </trkpt>
      <trkpt lat="36.817837" lon="-4.942920">
        <ele>582.225</ele>
        <time>2018-03-31T11:56:41Z</time>
      </trkpt>
      <trkpt lat="36.817890" lon="-4.942911">
        <ele>581.017</ele>
        <time>2018-03-31T11:56:43Z</time>
      </trkpt>
      <trkpt lat="36.817940" lon="-4.942917">
        <ele>580.008</ele>
        <time>2018-03-31T11:56:45Z</time>
      </trkpt>
      <trkpt lat="36.817992" lon="-4.942918">
        <ele>581.210</ele>
        <time>2018-03-31T11:56:48Z</time>
      </trkpt>
      <trkpt lat="36.818044" lon="-4.942921">
        <ele>582.691</ele>
        <time>2018-03-31T11:56:50Z</time>
      </trkpt>
      <trkpt lat="36.818106" lon="-4.942902">
        <ele>589.024</ele>
        <time>2018-03-31T11:57:00Z</time>
      </trkpt>
      <trkpt lat="36.818149" lon="-4.942883">
        <ele>587.960</ele>
        <time>2018-03-31T11:57:03Z</time>
      </trkpt>
      <trkpt lat="36.818201" lon="-4.942854">
        <ele>588.049</ele>
        <time>2018-03-31T11:57:07Z</time>
      </trkpt>
      <trkpt lat="36.818236" lon="-4.942818">
        <ele>586.936</ele>
        <time>2018-03-31T11:57:13Z</time>
      </trkpt>
      <trkpt lat="36.818193" lon="-4.942835">
        <ele>575.568</ele>
        <time>2018-03-31T11:57:29Z</time>
      </trkpt>
      <trkpt lat="36.818154" lon="-4.942864">
        <ele>578.560</ele>
        <time>2018-03-31T11:57:34Z</time>
      </trkpt>
      <trkpt lat="36.818142" lon="-4.942923">
        <ele>593.757</ele>
        <time>2018-03-31T11:57:46Z</time>
      </trkpt>
      <trkpt lat="36.818103" lon="-4.942952">
        <ele>594.900</ele>
        <time>2018-03-31T11:57:55Z</time>
      </trkpt>
      <trkpt lat="36.818133" lon="-4.942903">
        <ele>594.920</ele>
        <time>2018-03-31T11:58:56Z</time>
      </trkpt>
      <trkpt lat="36.818106" lon="-4.942948">
        <ele>594.908</ele>
        <time>2018-03-31T12:02:03Z</time>
      </trkpt>
      <trkpt lat="36.818143" lon="-4.942914">
        <ele>594.957</ele>
        <time>2018-03-31T12:02:08Z</time>
      </trkpt>
      <trkpt lat="36.818186" lon="-4.942870">
        <ele>594.978</ele>
        <time>2018-03-31T12:02:11Z</time>
      </trkpt>
      <trkpt lat="36.818223" lon="-4.942818">
        <ele>594.981</ele>
        <time>2018-03-31T12:02:14Z</time>
      </trkpt>
      <trkpt lat="36.818270" lon="-4.942770">
        <ele>594.937</ele>
        <time>2018-03-31T12:02:17Z</time>
      </trkpt>
      <trkpt lat="36.818300" lon="-4.942723">
        <ele>595.786</ele>
        <time>2018-03-31T12:02:19Z</time>
      </trkpt>
      <trkpt lat="36.818340" lon="-4.942693">
        <ele>596.643</ele>
        <time>2018-03-31T12:02:21Z</time>
      </trkpt>
      <trkpt lat="36.818389" lon="-4.942652">
        <ele>597.675</ele>
        <time>2018-03-31T12:02:24Z</time>
      </trkpt>
      <trkpt lat="36.818444" lon="-4.942617">
        <ele>598.727</ele>
        <time>2018-03-31T12:02:27Z</time>
      </trkpt>
      <trkpt lat="36.818509" lon="-4.942580">
        <ele>599.582</ele>
        <time>2018-03-31T12:02:30Z</time>
      </trkpt>
      <trkpt lat="36.818551" lon="-4.942543">
        <ele>600.243</ele>
        <time>2018-03-31T12:02:32Z</time>
      </trkpt>
      <trkpt lat="36.818591" lon="-4.942506">
        <ele>600.817</ele>
        <time>2018-03-31T12:02:34Z</time>
      </trkpt>
      <trkpt lat="36.818631" lon="-4.942476">
        <ele>601.408</ele>
        <time>2018-03-31T12:02:36Z</time>
      </trkpt>
      <trkpt lat="36.818670" lon="-4.942431">
        <ele>602.450</ele>
        <time>2018-03-31T12:02:39Z</time>
      </trkpt>
      <trkpt lat="36.818714" lon="-4.942385">
        <ele>603.471</ele>
        <time>2018-03-31T12:02:42Z</time>
      </trkpt>
      <trkpt lat="36.818767" lon="-4.942364">
        <ele>604.164</ele>
        <time>2018-03-31T12:02:45Z</time>
      </trkpt>
      <trkpt lat="36.818826" lon="-4.942317">
        <ele>604.870</ele>
        <time>2018-03-31T12:02:48Z</time>
      </trkpt>
      <trkpt lat="36.818869" lon="-4.942298">
        <ele>605.569</ele>
        <time>2018-03-31T12:02:50Z</time>
      </trkpt>
      <trkpt lat="36.818918" lon="-4.942280">
        <ele>605.956</ele>
        <time>2018-03-31T12:02:52Z</time>
      </trkpt>
      <trkpt lat="36.818978" lon="-4.942264">
        <ele>606.348</ele>
        <time>2018-03-31T12:02:54Z</time>
      </trkpt>
      <trkpt lat="36.819053" lon="-4.942263">
        <ele>606.740</ele>
        <time>2018-03-31T12:02:56Z</time>
      </trkpt>
      <trkpt lat="36.819105" lon="-4.942262">
        <ele>606.659</ele>
        <time>2018-03-31T12:02:58Z</time>
      </trkpt>
      <trkpt lat="36.819149" lon="-4.942241">
        <ele>606.803</ele>
        <time>2018-03-31T12:03:00Z</time>
      </trkpt>
      <trkpt lat="36.819206" lon="-4.942205">
        <ele>607.423</ele>
        <time>2018-03-31T12:03:02Z</time>
      </trkpt>
      <trkpt lat="36.819242" lon="-4.942170">
        <ele>607.908</ele>
        <time>2018-03-31T12:03:04Z</time>
      </trkpt>
      <trkpt lat="36.819292" lon="-4.942118">
        <ele>608.437</ele>
        <time>2018-03-31T12:03:07Z</time>
      </trkpt>
      <trkpt lat="36.819338" lon="-4.942077">
        <ele>608.848</ele>
        <time>2018-03-31T12:03:09Z</time>
      </trkpt>
      <trkpt lat="36.819421" lon="-4.942045">
        <ele>609.391</ele>
        <time>2018-03-31T12:03:11Z</time>
      </trkpt>
      <trkpt lat="36.819477" lon="-4.942041">
        <ele>608.997</ele>
        <time>2018-03-31T12:03:12Z</time>
      </trkpt>
      <trkpt lat="36.819526" lon="-4.942031">
        <ele>608.386</ele>
        <time>2018-03-31T12:03:13Z</time>
      </trkpt>
      <trkpt lat="36.819565" lon="-4.941990">
        <ele>607.533</ele>
        <time>2018-03-31T12:03:15Z</time>
      </trkpt>
      <trkpt lat="36.819606" lon="-4.941952">
        <ele>607.485</ele>
        <time>2018-03-31T12:03:17Z</time>
      </trkpt>
      <trkpt lat="36.819661" lon="-4.941922">
        <ele>606.917</ele>
        <time>2018-03-31T12:03:19Z</time>
      </trkpt>
      <trkpt lat="36.819719" lon="-4.941905">
        <ele>606.362</ele>
        <time>2018-03-31T12:03:21Z</time>
      </trkpt>
      <trkpt lat="36.819788" lon="-4.941884">
        <ele>605.783</ele>
        <time>2018-03-31T12:03:23Z</time>
      </trkpt>
      <trkpt lat="36.819834" lon="-4.941878">
        <ele>605.811</ele>
        <time>2018-03-31T12:03:24Z</time>
      </trkpt>
      <trkpt lat="36.819887" lon="-4.941851">
        <ele>605.908</ele>
        <time>2018-03-31T12:03:26Z</time>
      </trkpt>
      <trkpt lat="36.819935" lon="-4.941824">
        <ele>606.138</ele>
        <time>2018-03-31T12:03:28Z</time>
      </trkpt>
      <trkpt lat="36.819979" lon="-4.941785">
        <ele>606.459</ele>
        <time>2018-03-31T12:03:30Z</time>
      </trkpt>
      <trkpt lat="36.820034" lon="-4.941744">
        <ele>606.592</ele>
        <time>2018-03-31T12:03:32Z</time>
      </trkpt>
      <trkpt lat="36.820078" lon="-4.941699">
        <ele>606.668</ele>
        <time>2018-03-31T12:03:34Z</time>
      </trkpt>
      <trkpt lat="36.820114" lon="-4.941651">
        <ele>606.627</ele>
        <time>2018-03-31T12:03:36Z</time>
      </trkpt>
      <trkpt lat="36.820144" lon="-4.941606">
        <ele>606.744</ele>
        <time>2018-03-31T12:03:38Z</time>
      </trkpt>
      <trkpt lat="36.820170" lon="-4.941558">
        <ele>606.916</ele>
        <time>2018-03-31T12:03:40Z</time>
      </trkpt>
      <trkpt lat="36.820196" lon="-4.941504">
        <ele>607.198</ele>
        <time>2018-03-31T12:03:42Z</time>
      </trkpt>
      <trkpt lat="36.820218" lon="-4.941448">
        <ele>607.345</ele>
        <time>2018-03-31T12:03:44Z</time>
      </trkpt>
      <trkpt lat="36.820246" lon="-4.941388">
        <ele>607.647</ele>
        <time>2018-03-31T12:03:46Z</time>
      </trkpt>
      <trkpt lat="36.820276" lon="-4.941328">
        <ele>607.911</ele>
        <time>2018-03-31T12:03:48Z</time>
      </trkpt>
      <trkpt lat="36.820298" lon="-4.941259">
        <ele>608.308</ele>
        <time>2018-03-31T12:03:50Z</time>
      </trkpt>
      <trkpt lat="36.820325" lon="-4.941214">
        <ele>608.736</ele>
        <time>2018-03-31T12:03:52Z</time>
      </trkpt>
      <trkpt lat="36.820365" lon="-4.941169">
        <ele>609.087</ele>
        <time>2018-03-31T12:03:54Z</time>
      </trkpt>
      <trkpt lat="36.820420" lon="-4.941133">
        <ele>609.180</ele>
        <time>2018-03-31T12:03:56Z</time>
      </trkpt>
      <trkpt lat="36.820468" lon="-4.941097">
        <ele>609.156</ele>
        <time>2018-03-31T12:03:58Z</time>
      </trkpt>
      <trkpt lat="36.820513" lon="-4.941069">
        <ele>609.215</ele>
        <time>2018-03-31T12:04:00Z</time>
      </trkpt>
      <trkpt lat="36.820554" lon="-4.941039">
        <ele>609.312</ele>
        <time>2018-03-31T12:04:02Z</time>
      </trkpt>
      <trkpt lat="36.820613" lon="-4.941002">
        <ele>609.654</ele>
        <time>2018-03-31T12:04:05Z</time>
      </trkpt>
      <trkpt lat="36.820657" lon="-4.940977">
        <ele>609.816</ele>
        <time>2018-03-31T12:04:07Z</time>
      </trkpt>
      <trkpt lat="36.820702" lon="-4.940952">
        <ele>610.098</ele>
        <time>2018-03-31T12:04:09Z</time>
      </trkpt>
      <trkpt lat="36.820761" lon="-4.940929">
        <ele>610.215</ele>
        <time>2018-03-31T12:04:11Z</time>
      </trkpt>
      <trkpt lat="36.820814" lon="-4.940911">
        <ele>610.226</ele>
        <time>2018-03-31T12:04:13Z</time>
      </trkpt>
      <trkpt lat="36.820864" lon="-4.940899">
        <ele>610.108</ele>
        <time>2018-03-31T12:04:15Z</time>
      </trkpt>
      <trkpt lat="36.820920" lon="-4.940895">
        <ele>609.961</ele>
        <time>2018-03-31T12:04:17Z</time>
      </trkpt>
      <trkpt lat="36.820982" lon="-4.940893">
        <ele>609.692</ele>
        <time>2018-03-31T12:04:19Z</time>
      </trkpt>
      <trkpt lat="36.821041" lon="-4.940895">
        <ele>609.215</ele>
        <time>2018-03-31T12:04:21Z</time>
      </trkpt>
      <trkpt lat="36.821087" lon="-4.940905">
        <ele>608.711</ele>
        <time>2018-03-31T12:04:23Z</time>
      </trkpt>
      <trkpt lat="36.821132" lon="-4.940926">
        <ele>608.160</ele>
        <time>2018-03-31T12:04:26Z</time>
      </trkpt>
      <trkpt lat="36.821177" lon="-4.940940">
        <ele>607.837</ele>
        <time>2018-03-31T12:04:29Z</time>
      </trkpt>
      <trkpt lat="36.821240" lon="-4.940965">
        <ele>607.799</ele>
        <time>2018-03-31T12:04:32Z</time>
      </trkpt>
      <trkpt lat="36.821288" lon="-4.940977">
        <ele>607.751</ele>
        <time>2018-03-31T12:04:34Z</time>
      </trkpt>
      <trkpt lat="36.821342" lon="-4.940992">
        <ele>607.749</ele>
        <time>2018-03-31T12:04:37Z</time>
      </trkpt>
      <trkpt lat="36.821399" lon="-4.941000">
        <ele>607.702</ele>
        <time>2018-03-31T12:04:41Z</time>
      </trkpt>
      <trkpt lat="36.821449" lon="-4.941012">
        <ele>607.822</ele>
        <time>2018-03-31T12:04:44Z</time>
      </trkpt>
      <trkpt lat="36.821495" lon="-4.941021">
        <ele>608.208</ele>
        <time>2018-03-31T12:04:47Z</time>
      </trkpt>
      <trkpt lat="36.821540" lon="-4.941035">
        <ele>608.746</ele>
        <time>2018-03-31T12:04:50Z</time>
      </trkpt>
      <trkpt lat="36.821593" lon="-4.941060">
        <ele>609.247</ele>
        <time>2018-03-31T12:04:53Z</time>
      </trkpt>
      <trkpt lat="36.821641" lon="-4.941093">
        <ele>609.710</ele>
        <time>2018-03-31T12:04:56Z</time>
      </trkpt>
      <trkpt lat="36.821698" lon="-4.941096">
        <ele>610.796</ele>
        <time>2018-03-31T12:05:00Z</time>
      </trkpt>
      <trkpt lat="36.821745" lon="-4.941108">
        <ele>611.265</ele>
        <time>2018-03-31T12:05:03Z</time>
      </trkpt>
      <trkpt lat="36.821801" lon="-4.941108">
        <ele>611.812</ele>
        <time>2018-03-31T12:05:06Z</time>
      </trkpt>
      <trkpt lat="36.821858" lon="-4.941102">
        <ele>612.464</ele>
        <time>2018-03-31T12:05:09Z</time>
      </trkpt>
      <trkpt lat="36.821918" lon="-4.941090">
        <ele>613.116</ele>
        <time>2018-03-31T12:05:13Z</time>
      </trkpt>
      <trkpt lat="36.821967" lon="-4.941077">
        <ele>613.777</ele>
        <time>2018-03-31T12:05:16Z</time>
      </trkpt>
      <trkpt lat="36.822017" lon="-4.941041">
        <ele>614.761</ele>
        <time>2018-03-31T12:05:21Z</time>
      </trkpt>
      <trkpt lat="36.822062" lon="-4.941016">
        <ele>615.827</ele>
        <time>2018-03-31T12:05:25Z</time>
      </trkpt>
      <trkpt lat="36.822105" lon="-4.940963">
        <ele>616.708</ele>
        <time>2018-03-31T12:05:29Z</time>
      </trkpt>
      <trkpt lat="36.822141" lon="-4.940926">
        <ele>617.699</ele>
        <time>2018-03-31T12:05:32Z</time>
      </trkpt>
      <trkpt lat="36.822185" lon="-4.940882">
        <ele>618.430</ele>
        <time>2018-03-31T12:05:35Z</time>
      </trkpt>
      <trkpt lat="36.822217" lon="-4.940839">
        <ele>619.133</ele>
        <time>2018-03-31T12:05:37Z</time>
      </trkpt>
      <trkpt lat="36.822252" lon="-4.940782">
        <ele>620.479</ele>
        <time>2018-03-31T12:05:40Z</time>
      </trkpt>
      <trkpt lat="36.822276" lon="-4.940724">
        <ele>621.998</ele>
        <time>2018-03-31T12:05:43Z</time>
      </trkpt>
      <trkpt lat="36.822301" lon="-4.940664">
        <ele>623.195</ele>
        <time>2018-03-31T12:05:46Z</time>
      </trkpt>
      <trkpt lat="36.822303" lon="-4.940598">
        <ele>623.997</ele>
        <time>2018-03-31T12:05:49Z</time>
      </trkpt>
      <trkpt lat="36.822324" lon="-4.940530">
        <ele>624.729</ele>
        <time>2018-03-31T12:05:53Z</time>
      </trkpt>
      <trkpt lat="36.822356" lon="-4.940470">
        <ele>625.455</ele>
        <time>2018-03-31T12:05:57Z</time>
      </trkpt>
      <trkpt lat="36.822384" lon="-4.940418">
        <ele>626.107</ele>
        <time>2018-03-31T12:06:01Z</time>
      </trkpt>
      <trkpt lat="36.822414" lon="-4.940356">
        <ele>626.717</ele>
        <time>2018-03-31T12:06:05Z</time>
      </trkpt>
      <trkpt lat="36.822455" lon="-4.940308">
        <ele>627.508</ele>
        <time>2018-03-31T12:06:09Z</time>
      </trkpt>
      <trkpt lat="36.822489" lon="-4.940257">
        <ele>628.197</ele>
        <time>2018-03-31T12:06:13Z</time>
      </trkpt>
      <trkpt lat="36.822523" lon="-4.940211">
        <ele>628.418</ele>
        <time>2018-03-31T12:06:17Z</time>
      </trkpt>
      <trkpt lat="36.822564" lon="-4.940164">
        <ele>628.591</ele>
        <time>2018-03-31T12:06:22Z</time>
      </trkpt>
      <trkpt lat="36.822604" lon="-4.940133">
        <ele>628.777</ele>
        <time>2018-03-31T12:06:25Z</time>
      </trkpt>
      <trkpt lat="36.822649" lon="-4.940105">
        <ele>629.186</ele>
        <time>2018-03-31T12:06:29Z</time>
      </trkpt>
      <trkpt lat="36.822685" lon="-4.940067">
        <ele>629.053</ele>
        <time>2018-03-31T12:06:32Z</time>
      </trkpt>
      <trkpt lat="36.822739" lon="-4.940052">
        <ele>629.375</ele>
        <time>2018-03-31T12:06:36Z</time>
      </trkpt>
      <trkpt lat="36.822798" lon="-4.940041">
        <ele>629.847</ele>
        <time>2018-03-31T12:06:40Z</time>
      </trkpt>
      <trkpt lat="36.822858" lon="-4.940025">
        <ele>630.397</ele>
        <time>2018-03-31T12:06:44Z</time>
      </trkpt>
      <trkpt lat="36.822910" lon="-4.940022">
        <ele>630.723</ele>
        <time>2018-03-31T12:06:48Z</time>
      </trkpt>
      <trkpt lat="36.822961" lon="-4.940018">
        <ele>631.225</ele>
        <time>2018-03-31T12:06:52Z</time>
      </trkpt>
      <trkpt lat="36.823009" lon="-4.940016">
        <ele>631.608</ele>
        <time>2018-03-31T12:06:56Z</time>
      </trkpt>
      <trkpt lat="36.823067" lon="-4.940008">
        <ele>632.191</ele>
        <time>2018-03-31T12:07:00Z</time>
      </trkpt>
      <trkpt lat="36.823114" lon="-4.940006">
        <ele>632.232</ele>
        <time>2018-03-31T12:07:03Z</time>
      </trkpt>
      <trkpt lat="36.823170" lon="-4.940004">
        <ele>632.155</ele>
        <time>2018-03-31T12:07:07Z</time>
      </trkpt>
      <trkpt lat="36.823216" lon="-4.940008">
        <ele>632.241</ele>
        <time>2018-03-31T12:07:10Z</time>
      </trkpt>
      <trkpt lat="36.823268" lon="-4.940017">
        <ele>632.470</ele>
        <time>2018-03-31T12:07:13Z</time>
      </trkpt>
      <trkpt lat="36.823318" lon="-4.940025">
        <ele>632.537</ele>
        <time>2018-03-31T12:07:16Z</time>
      </trkpt>
      <trkpt lat="36.823365" lon="-4.940024">
        <ele>632.679</ele>
        <time>2018-03-31T12:07:19Z</time>
      </trkpt>
      <trkpt lat="36.823412" lon="-4.940018">
        <ele>632.541</ele>
        <time>2018-03-31T12:07:22Z</time>
      </trkpt>
      <trkpt lat="36.823458" lon="-4.940018">
        <ele>632.493</ele>
        <time>2018-03-31T12:07:25Z</time>
      </trkpt>
      <trkpt lat="36.823505" lon="-4.940032">
        <ele>632.665</ele>
        <time>2018-03-31T12:07:28Z</time>
      </trkpt>
      <trkpt lat="36.823555" lon="-4.940031">
        <ele>632.821</ele>
        <time>2018-03-31T12:07:31Z</time>
      </trkpt>
      <trkpt lat="36.823619" lon="-4.940022">
        <ele>632.608</ele>
        <time>2018-03-31T12:07:34Z</time>
      </trkpt>
      <trkpt lat="36.823676" lon="-4.940014">
        <ele>632.441</ele>
        <time>2018-03-31T12:07:37Z</time>
      </trkpt>
      <trkpt lat="36.823738" lon="-4.939991">
        <ele>632.162</ele>
        <time>2018-03-31T12:07:40Z</time>
      </trkpt>
      <trkpt lat="36.823801" lon="-4.939984">
        <ele>632.075</ele>
        <time>2018-03-31T12:07:43Z</time>
      </trkpt>
      <trkpt lat="36.823858" lon="-4.939991">
        <ele>632.031</ele>
        <time>2018-03-31T12:07:46Z</time>
      </trkpt>
      <trkpt lat="36.823915" lon="-4.940016">
        <ele>634.650</ele>
        <time>2018-03-31T12:07:49Z</time>
      </trkpt>
      <trkpt lat="36.823959" lon="-4.940050">
        <ele>635.517</ele>
        <time>2018-03-31T12:07:51Z</time>
      </trkpt>
      <trkpt lat="36.824007" lon="-4.940086">
        <ele>636.049</ele>
        <time>2018-03-31T12:07:53Z</time>
      </trkpt>
      <trkpt lat="36.824051" lon="-4.940125">
        <ele>636.671</ele>
        <time>2018-03-31T12:07:55Z</time>
      </trkpt>
      <trkpt lat="36.824101" lon="-4.940157">
        <ele>636.292</ele>
        <time>2018-03-31T12:07:58Z</time>
      </trkpt>
      <trkpt lat="36.824162" lon="-4.940198">
        <ele>635.773</ele>
        <time>2018-03-31T12:08:02Z</time>
      </trkpt>
      <trkpt lat="36.824223" lon="-4.940226">
        <ele>636.020</ele>
        <time>2018-03-31T12:08:05Z</time>
      </trkpt>
      <trkpt lat="36.824261" lon="-4.940257">
        <ele>636.008</ele>
        <time>2018-03-31T12:08:07Z</time>
      </trkpt>
      <trkpt lat="36.824315" lon="-4.940274">
        <ele>635.521</ele>
        <time>2018-03-31T12:08:10Z</time>
      </trkpt>
      <trkpt lat="36.824360" lon="-4.940292">
        <ele>634.622</ele>
        <time>2018-03-31T12:08:18Z</time>
      </trkpt>
      <trkpt lat="36.824410" lon="-4.940307">
        <ele>634.425</ele>
        <time>2018-03-31T12:08:22Z</time>
      </trkpt>
      <trkpt lat="36.824462" lon="-4.940324">
        <ele>633.981</ele>
        <time>2018-03-31T12:08:26Z</time>
      </trkpt>
      <trkpt lat="36.824519" lon="-4.940340">
        <ele>634.450</ele>
        <time>2018-03-31T12:08:30Z</time>
      </trkpt>
      <trkpt lat="36.824574" lon="-4.940344">
        <ele>635.747</ele>
        <time>2018-03-31T12:08:34Z</time>
      </trkpt>
      <trkpt lat="36.824627" lon="-4.940334">
        <ele>636.519</ele>
        <time>2018-03-31T12:08:38Z</time>
      </trkpt>
      <trkpt lat="36.824678" lon="-4.940324">
        <ele>637.261</ele>
        <time>2018-03-31T12:08:42Z</time>
      </trkpt>
      <trkpt lat="36.824734" lon="-4.940324">
        <ele>638.245</ele>
        <time>2018-03-31T12:08:47Z</time>
      </trkpt>
      <trkpt lat="36.824785" lon="-4.940345">
        <ele>638.047</ele>
        <time>2018-03-31T12:08:51Z</time>
      </trkpt>
      <trkpt lat="36.824826" lon="-4.940370">
        <ele>636.611</ele>
        <time>2018-03-31T12:08:54Z</time>
      </trkpt>
      <trkpt lat="36.824874" lon="-4.940380">
        <ele>634.908</ele>
        <time>2018-03-31T12:08:58Z</time>
      </trkpt>
      <trkpt lat="36.824934" lon="-4.940380">
        <ele>633.286</ele>
        <time>2018-03-31T12:09:03Z</time>
      </trkpt>
      <trkpt lat="36.824979" lon="-4.940396">
        <ele>632.917</ele>
        <time>2018-03-31T12:09:07Z</time>
      </trkpt>
      <trkpt lat="36.825030" lon="-4.940405">
        <ele>632.860</ele>
        <time>2018-03-31T12:09:14Z</time>
      </trkpt>
      <trkpt lat="36.825079" lon="-4.940405">
        <ele>633.696</ele>
        <time>2018-03-31T12:09:20Z</time>
      </trkpt>
      <trkpt lat="36.825128" lon="-4.940388">
        <ele>632.815</ele>
        <time>2018-03-31T12:09:26Z</time>
      </trkpt>
      <trkpt lat="36.825164" lon="-4.940349">
        <ele>633.132</ele>
        <time>2018-03-31T12:09:31Z</time>
      </trkpt>
      <trkpt lat="36.825216" lon="-4.940334">
        <ele>634.434</ele>
        <time>2018-03-31T12:09:36Z</time>
      </trkpt>
      <trkpt lat="36.825265" lon="-4.940325">
        <ele>636.166</ele>
        <time>2018-03-31T12:09:43Z</time>
      </trkpt>
      <trkpt lat="36.825305" lon="-4.940298">
        <ele>636.867</ele>
        <time>2018-03-31T12:09:48Z</time>
      </trkpt>
      <trkpt lat="36.825350" lon="-4.940256">
        <ele>638.081</ele>
        <time>2018-03-31T12:10:20Z</time>
      </trkpt>
      <trkpt lat="36.825396" lon="-4.940224">
        <ele>636.719</ele>
        <time>2018-03-31T12:10:24Z</time>
      </trkpt>
      <trkpt lat="36.825435" lon="-4.940180">
        <ele>635.808</ele>
        <time>2018-03-31T12:10:28Z</time>
      </trkpt>
      <trkpt lat="36.825475" lon="-4.940146">
        <ele>635.248</ele>
        <time>2018-03-31T12:10:32Z</time>
      </trkpt>
      <trkpt lat="36.825523" lon="-4.940117">
        <ele>636.279</ele>
        <time>2018-03-31T12:10:36Z</time>
      </trkpt>
      <trkpt lat="36.825576" lon="-4.940111">
        <ele>637.752</ele>
        <time>2018-03-31T12:10:40Z</time>
      </trkpt>
      <trkpt lat="36.825626" lon="-4.940133">
        <ele>639.138</ele>
        <time>2018-03-31T12:10:44Z</time>
      </trkpt>
      <trkpt lat="36.825676" lon="-4.940161">
        <ele>640.637</ele>
        <time>2018-03-31T12:10:49Z</time>
      </trkpt>
      <trkpt lat="36.825721" lon="-4.940181">
        <ele>641.494</ele>
        <time>2018-03-31T12:10:53Z</time>
      </trkpt>
      <trkpt lat="36.825764" lon="-4.940222">
        <ele>642.526</ele>
        <time>2018-03-31T12:10:57Z</time>
      </trkpt>
      <trkpt lat="36.825799" lon="-4.940272">
        <ele>643.058</ele>
        <time>2018-03-31T12:11:04Z</time>
      </trkpt>
      <trkpt lat="36.825831" lon="-4.940329">
        <ele>642.825</ele>
        <time>2018-03-31T12:11:08Z</time>
      </trkpt>
      <trkpt lat="36.825888" lon="-4.940338">
        <ele>642.926</ele>
        <time>2018-03-31T12:11:11Z</time>
      </trkpt>
      <trkpt lat="36.825927" lon="-4.940372">
        <ele>644.808</ele>
        <time>2018-03-31T12:11:16Z</time>
      </trkpt>
      <trkpt lat="36.825967" lon="-4.940413">
        <ele>645.508</ele>
        <time>2018-03-31T12:11:20Z</time>
      </trkpt>
      <trkpt lat="36.826012" lon="-4.940449">
        <ele>646.974</ele>
        <time>2018-03-31T12:11:24Z</time>
      </trkpt>
      <trkpt lat="36.826059" lon="-4.940469">
        <ele>648.835</ele>
        <time>2018-03-31T12:11:29Z</time>
      </trkpt>
      <trkpt lat="36.826107" lon="-4.940463">
        <ele>650.438</ele>
        <time>2018-03-31T12:11:33Z</time>
      </trkpt>
      <trkpt lat="36.826150" lon="-4.940436">
        <ele>651.454</ele>
        <time>2018-03-31T12:11:36Z</time>
      </trkpt>
      <trkpt lat="36.826198" lon="-4.940453">
        <ele>652.843</ele>
        <time>2018-03-31T12:11:39Z</time>
      </trkpt>
      <trkpt lat="36.826247" lon="-4.940459">
        <ele>653.030</ele>
        <time>2018-03-31T12:11:43Z</time>
      </trkpt>
      <trkpt lat="36.826291" lon="-4.940474">
        <ele>650.242</ele>
        <time>2018-03-31T12:12:06Z</time>
      </trkpt>
      <trkpt lat="36.826333" lon="-4.940451">
        <ele>648.874</ele>
        <time>2018-03-31T12:12:09Z</time>
      </trkpt>
      <trkpt lat="36.826399" lon="-4.940447">
        <ele>647.842</ele>
        <time>2018-03-31T12:12:12Z</time>
      </trkpt>
      <trkpt lat="36.826453" lon="-4.940426">
        <ele>648.022</ele>
        <time>2018-03-31T12:12:15Z</time>
      </trkpt>
      <trkpt lat="36.826511" lon="-4.940435">
        <ele>647.914</ele>
        <time>2018-03-31T12:12:18Z</time>
      </trkpt>
      <trkpt lat="36.826559" lon="-4.940459">
        <ele>648.808</ele>
        <time>2018-03-31T12:12:22Z</time>
      </trkpt>
      <trkpt lat="36.826594" lon="-4.940500">
        <ele>651.066</ele>
        <time>2018-03-31T12:12:27Z</time>
      </trkpt>
      <trkpt lat="36.826634" lon="-4.940536">
        <ele>652.547</ele>
        <time>2018-03-31T12:12:30Z</time>
      </trkpt>
      <trkpt lat="36.826678" lon="-4.940563">
        <ele>654.870</ele>
        <time>2018-03-31T12:12:33Z</time>
      </trkpt>
      <trkpt lat="36.826731" lon="-4.940583">
        <ele>657.216</ele>
        <time>2018-03-31T12:12:37Z</time>
      </trkpt>
      <trkpt lat="36.826786" lon="-4.940607">
        <ele>658.455</ele>
        <time>2018-03-31T12:12:40Z</time>
      </trkpt>
      <trkpt lat="36.826840" lon="-4.940624">
        <ele>659.172</ele>
        <time>2018-03-31T12:12:43Z</time>
      </trkpt>
      <trkpt lat="36.826889" lon="-4.940634">
        <ele>660.744</ele>
        <time>2018-03-31T12:12:48Z</time>
      </trkpt>
      <trkpt lat="36.826934" lon="-4.940644">
        <ele>661.896</ele>
        <time>2018-03-31T12:12:51Z</time>
      </trkpt>
      <trkpt lat="36.826982" lon="-4.940630">
        <ele>663.453</ele>
        <time>2018-03-31T12:12:54Z</time>
      </trkpt>
      <trkpt lat="36.827035" lon="-4.940615">
        <ele>664.204</ele>
        <time>2018-03-31T12:12:57Z</time>
      </trkpt>
      <trkpt lat="36.827083" lon="-4.940622">
        <ele>665.314</ele>
        <time>2018-03-31T12:13:00Z</time>
      </trkpt>
      <trkpt lat="36.827131" lon="-4.940618">
        <ele>665.808</ele>
        <time>2018-03-31T12:13:03Z</time>
      </trkpt>
      <trkpt lat="36.827187" lon="-4.940617">
        <ele>666.627</ele>
        <time>2018-03-31T12:13:07Z</time>
      </trkpt>
      <trkpt lat="36.827235" lon="-4.940619">
        <ele>667.058</ele>
        <time>2018-03-31T12:13:10Z</time>
      </trkpt>
      <trkpt lat="36.827291" lon="-4.940624">
        <ele>667.551</ele>
        <time>2018-03-31T12:13:13Z</time>
      </trkpt>
      <trkpt lat="36.827347" lon="-4.940625">
        <ele>667.867</ele>
        <time>2018-03-31T12:13:16Z</time>
      </trkpt>
      <trkpt lat="36.827401" lon="-4.940644">
        <ele>668.266</ele>
        <time>2018-03-31T12:13:19Z</time>
      </trkpt>
      <trkpt lat="36.827450" lon="-4.940654">
        <ele>667.763</ele>
        <time>2018-03-31T12:13:22Z</time>
      </trkpt>
      <trkpt lat="36.827501" lon="-4.940678">
        <ele>667.495</ele>
        <time>2018-03-31T12:13:26Z</time>
      </trkpt>
      <trkpt lat="36.827550" lon="-4.940682">
        <ele>668.137</ele>
        <time>2018-03-31T12:13:29Z</time>
      </trkpt>
      <trkpt lat="36.827610" lon="-4.940684">
        <ele>669.154</ele>
        <time>2018-03-31T12:13:33Z</time>
      </trkpt>
      <trkpt lat="36.827663" lon="-4.940688">
        <ele>669.556</ele>
        <time>2018-03-31T12:13:37Z</time>
      </trkpt>
      <trkpt lat="36.827719" lon="-4.940702">
        <ele>670.411</ele>
        <time>2018-03-31T12:13:41Z</time>
      </trkpt>
      <trkpt lat="36.827777" lon="-4.940713">
        <ele>671.008</ele>
        <time>2018-03-31T12:13:44Z</time>
      </trkpt>
      <trkpt lat="36.827829" lon="-4.940721">
        <ele>671.087</ele>
        <time>2018-03-31T12:13:47Z</time>
      </trkpt>
      <trkpt lat="36.827877" lon="-4.940751">
        <ele>671.578</ele>
        <time>2018-03-31T12:13:50Z</time>
      </trkpt>
      <trkpt lat="36.827931" lon="-4.940778">
        <ele>671.611</ele>
        <time>2018-03-31T12:13:53Z</time>
      </trkpt>
      <trkpt lat="36.827973" lon="-4.940799">
        <ele>671.777</ele>
        <time>2018-03-31T12:13:56Z</time>
      </trkpt>
      <trkpt lat="36.828030" lon="-4.940820">
        <ele>672.076</ele>
        <time>2018-03-31T12:14:00Z</time>
      </trkpt>
      <trkpt lat="36.828080" lon="-4.940827">
        <ele>673.163</ele>
        <time>2018-03-31T12:14:04Z</time>
      </trkpt>
      <trkpt lat="36.828135" lon="-4.940833">
        <ele>674.165</ele>
        <time>2018-03-31T12:14:08Z</time>
      </trkpt>
      <trkpt lat="36.828183" lon="-4.940830">
        <ele>675.097</ele>
        <time>2018-03-31T12:14:11Z</time>
      </trkpt>
      <trkpt lat="36.828237" lon="-4.940822">
        <ele>675.668</ele>
        <time>2018-03-31T12:14:14Z</time>
      </trkpt>
      <trkpt lat="36.828286" lon="-4.940814">
        <ele>676.042</ele>
        <time>2018-03-31T12:14:17Z</time>
      </trkpt>
      <trkpt lat="36.828334" lon="-4.940813">
        <ele>676.626</ele>
        <time>2018-03-31T12:14:20Z</time>
      </trkpt>
      <trkpt lat="36.828383" lon="-4.940793">
        <ele>677.408</ele>
        <time>2018-03-31T12:14:23Z</time>
      </trkpt>
      <trkpt lat="36.828430" lon="-4.940780">
        <ele>678.468</ele>
        <time>2018-03-31T12:14:26Z</time>
      </trkpt>
      <trkpt lat="36.828480" lon="-4.940772">
        <ele>679.089</ele>
        <time>2018-03-31T12:14:29Z</time>
      </trkpt>
      <trkpt lat="36.828526" lon="-4.940774">
        <ele>679.852</ele>
        <time>2018-03-31T12:14:32Z</time>
      </trkpt>
      <trkpt lat="36.828582" lon="-4.940758">
        <ele>680.168</ele>
        <time>2018-03-31T12:14:35Z</time>
      </trkpt>
      <trkpt lat="36.828639" lon="-4.940738">
        <ele>680.117</ele>
        <time>2018-03-31T12:14:38Z</time>
      </trkpt>
      <trkpt lat="36.828687" lon="-4.940732">
        <ele>680.964</ele>
        <time>2018-03-31T12:14:41Z</time>
      </trkpt>
      <trkpt lat="36.828736" lon="-4.940731">
        <ele>682.336</ele>
        <time>2018-03-31T12:14:45Z</time>
      </trkpt>
      <trkpt lat="36.828798" lon="-4.940722">
        <ele>684.018</ele>
        <time>2018-03-31T12:14:49Z</time>
      </trkpt>
      <trkpt lat="36.828845" lon="-4.940702">
        <ele>684.663</ele>
        <time>2018-03-31T12:14:52Z</time>
      </trkpt>
      <trkpt lat="36.828890" lon="-4.940681">
        <ele>684.544</ele>
        <time>2018-03-31T12:14:54Z</time>
      </trkpt>
      <trkpt lat="36.828939" lon="-4.940679">
        <ele>684.718</ele>
        <time>2018-03-31T12:14:57Z</time>
      </trkpt>
      <trkpt lat="36.828988" lon="-4.940667">
        <ele>686.108</ele>
        <time>2018-03-31T12:15:01Z</time>
      </trkpt>
      <trkpt lat="36.829039" lon="-4.940641">
        <ele>687.348</ele>
        <time>2018-03-31T12:15:04Z</time>
      </trkpt>
      <trkpt lat="36.829096" lon="-4.940607">
        <ele>688.219</ele>
        <time>2018-03-31T12:15:07Z</time>
      </trkpt>
      <trkpt lat="36.829151" lon="-4.940585">
        <ele>688.462</ele>
        <time>2018-03-31T12:15:10Z</time>
      </trkpt>
      <trkpt lat="36.829208" lon="-4.940561">
        <ele>688.248</ele>
        <time>2018-03-31T12:15:13Z</time>
      </trkpt>
      <trkpt lat="36.829262" lon="-4.940541">
        <ele>687.897</ele>
        <time>2018-03-31T12:15:16Z</time>
      </trkpt>
      <trkpt lat="36.829315" lon="-4.940523">
        <ele>687.434</ele>
        <time>2018-03-31T12:15:19Z</time>
      </trkpt>
      <trkpt lat="36.829376" lon="-4.940508">
        <ele>687.186</ele>
        <time>2018-03-31T12:15:22Z</time>
      </trkpt>
      <trkpt lat="36.829431" lon="-4.940487">
        <ele>687.238</ele>
        <time>2018-03-31T12:15:25Z</time>
      </trkpt>
      <trkpt lat="36.829493" lon="-4.940470">
        <ele>685.836</ele>
        <time>2018-03-31T12:15:29Z</time>
      </trkpt>
      <trkpt lat="36.829542" lon="-4.940478">
        <ele>685.517</ele>
        <time>2018-03-31T12:15:31Z</time>
      </trkpt>
      <trkpt lat="36.829590" lon="-4.940472">
        <ele>685.318</ele>
        <time>2018-03-31T12:15:33Z</time>
      </trkpt>
      <trkpt lat="36.829650" lon="-4.940471">
        <ele>684.508</ele>
        <time>2018-03-31T12:15:37Z</time>
      </trkpt>
      <trkpt lat="36.829704" lon="-4.940468">
        <ele>684.345</ele>
        <time>2018-03-31T12:15:40Z</time>
      </trkpt>
      <trkpt lat="36.829756" lon="-4.940463">
        <ele>683.516</ele>
        <time>2018-03-31T12:15:43Z</time>
      </trkpt>
      <trkpt lat="36.829808" lon="-4.940467">
        <ele>683.159</ele>
        <time>2018-03-31T12:15:46Z</time>
      </trkpt>
      <trkpt lat="36.829856" lon="-4.940461">
        <ele>683.385</ele>
        <time>2018-03-31T12:15:49Z</time>
      </trkpt>
      <trkpt lat="36.829910" lon="-4.940444">
        <ele>683.834</ele>
        <time>2018-03-31T12:15:52Z</time>
      </trkpt>
      <trkpt lat="36.829960" lon="-4.940429">
        <ele>684.141</ele>
        <time>2018-03-31T12:15:55Z</time>
      </trkpt>
      <trkpt lat="36.830012" lon="-4.940418">
        <ele>687.173</ele>
        <time>2018-03-31T12:16:01Z</time>
      </trkpt>
      <trkpt lat="36.830060" lon="-4.940399">
        <ele>687.715</ele>
        <time>2018-03-31T12:16:04Z</time>
      </trkpt>
      <trkpt lat="36.830113" lon="-4.940369">
        <ele>688.929</ele>
        <time>2018-03-31T12:16:08Z</time>
      </trkpt>
      <trkpt lat="36.830159" lon="-4.940349">
        <ele>689.900</ele>
        <time>2018-03-31T12:16:11Z</time>
      </trkpt>
      <trkpt lat="36.830204" lon="-4.940328">
        <ele>690.320</ele>
        <time>2018-03-31T12:16:14Z</time>
      </trkpt>
      <trkpt lat="36.830254" lon="-4.940309">
        <ele>690.608</ele>
        <time>2018-03-31T12:16:18Z</time>
      </trkpt>
      <trkpt lat="36.830307" lon="-4.940303">
        <ele>691.824</ele>
        <time>2018-03-31T12:16:22Z</time>
      </trkpt>
      <trkpt lat="36.830361" lon="-4.940294">
        <ele>693.545</ele>
        <time>2018-03-31T12:16:26Z</time>
      </trkpt>
      <trkpt lat="36.830415" lon="-4.940297">
        <ele>694.548</ele>
        <time>2018-03-31T12:16:30Z</time>
      </trkpt>
      <trkpt lat="36.830460" lon="-4.940305">
        <ele>695.974</ele>
        <time>2018-03-31T12:16:34Z</time>
      </trkpt>
      <trkpt lat="36.830513" lon="-4.940312">
        <ele>697.543</ele>
        <time>2018-03-31T12:16:38Z</time>
      </trkpt>
      <trkpt lat="36.830565" lon="-4.940300">
        <ele>699.740</ele>
        <time>2018-03-31T12:17:21Z</time>
      </trkpt>
      <trkpt lat="36.830616" lon="-4.940312">
        <ele>700.332</ele>
        <time>2018-03-31T12:17:25Z</time>
      </trkpt>
      <trkpt lat="36.830664" lon="-4.940322">
        <ele>701.034</ele>
        <time>2018-03-31T12:17:29Z</time>
      </trkpt>
      <trkpt lat="36.830712" lon="-4.940355">
        <ele>701.741</ele>
        <time>2018-03-31T12:17:32Z</time>
      </trkpt>
      <trkpt lat="36.830758" lon="-4.940373">
        <ele>702.581</ele>
        <time>2018-03-31T12:17:35Z</time>
      </trkpt>
      <trkpt lat="36.830805" lon="-4.940388">
        <ele>703.109</ele>
        <time>2018-03-31T12:17:38Z</time>
      </trkpt>
      <trkpt lat="36.830852" lon="-4.940410">
        <ele>703.708</ele>
        <time>2018-03-31T12:17:41Z</time>
      </trkpt>
      <trkpt lat="36.830898" lon="-4.940426">
        <ele>704.266</ele>
        <time>2018-03-31T12:17:44Z</time>
      </trkpt>
      <trkpt lat="36.830944" lon="-4.940437">
        <ele>704.657</ele>
        <time>2018-03-31T12:17:47Z</time>
      </trkpt>
      <trkpt lat="36.830993" lon="-4.940454">
        <ele>705.110</ele>
        <time>2018-03-31T12:17:50Z</time>
      </trkpt>
      <trkpt lat="36.831038" lon="-4.940475">
        <ele>705.826</ele>
        <time>2018-03-31T12:17:53Z</time>
      </trkpt>
      <trkpt lat="36.831094" lon="-4.940497">
        <ele>706.615</ele>
        <time>2018-03-31T12:17:57Z</time>
      </trkpt>
      <trkpt lat="36.831140" lon="-4.940518">
        <ele>707.582</ele>
        <time>2018-03-31T12:18:00Z</time>
      </trkpt>
      <trkpt lat="36.831189" lon="-4.940540">
        <ele>708.614</ele>
        <time>2018-03-31T12:18:05Z</time>
      </trkpt>
      <trkpt lat="36.831250" lon="-4.940556">
        <ele>709.636</ele>
        <time>2018-03-31T12:18:08Z</time>
      </trkpt>
      <trkpt lat="36.831298" lon="-4.940562">
        <ele>710.334</ele>
        <time>2018-03-31T12:18:11Z</time>
      </trkpt>
      <trkpt lat="36.831352" lon="-4.940562">
        <ele>710.955</ele>
        <time>2018-03-31T12:18:14Z</time>
      </trkpt>
      <trkpt lat="36.831403" lon="-4.940565">
        <ele>711.510</ele>
        <time>2018-03-31T12:18:18Z</time>
      </trkpt>
      <trkpt lat="36.831454" lon="-4.940575">
        <ele>712.108</ele>
        <time>2018-03-31T12:18:22Z</time>
      </trkpt>
      <trkpt lat="36.831521" lon="-4.940574">
        <ele>712.825</ele>
        <time>2018-03-31T12:18:26Z</time>
      </trkpt>
      <trkpt lat="36.831570" lon="-4.940567">
        <ele>713.366</ele>
        <time>2018-03-31T12:18:29Z</time>
      </trkpt>
      <trkpt lat="36.831622" lon="-4.940578">
        <ele>713.989</ele>
        <time>2018-03-31T12:18:33Z</time>
      </trkpt>
      <trkpt lat="36.831670" lon="-4.940567">
        <ele>714.435</ele>
        <time>2018-03-31T12:18:37Z</time>
      </trkpt>
      <trkpt lat="36.831720" lon="-4.940555">
        <ele>714.854</ele>
        <time>2018-03-31T12:18:40Z</time>
      </trkpt>
      <trkpt lat="36.831771" lon="-4.940546">
        <ele>715.321</ele>
        <time>2018-03-31T12:18:43Z</time>
      </trkpt>
      <trkpt lat="36.831817" lon="-4.940546">
        <ele>715.883</ele>
        <time>2018-03-31T12:18:46Z</time>
      </trkpt>
      <trkpt lat="36.831866" lon="-4.940544">
        <ele>716.315</ele>
        <time>2018-03-31T12:18:52Z</time>
      </trkpt>
      <trkpt lat="36.831922" lon="-4.940532">
        <ele>717.053</ele>
        <time>2018-03-31T12:18:57Z</time>
      </trkpt>
      <trkpt lat="36.831973" lon="-4.940519">
        <ele>717.604</ele>
        <time>2018-03-31T12:19:01Z</time>
      </trkpt>
      <trkpt lat="36.832017" lon="-4.940505">
        <ele>718.414</ele>
        <time>2018-03-31T12:19:04Z</time>
      </trkpt>
      <trkpt lat="36.832074" lon="-4.940492">
        <ele>719.508</ele>
        <time>2018-03-31T12:19:09Z</time>
      </trkpt>
      <trkpt lat="36.832119" lon="-4.940483">
        <ele>720.347</ele>
        <time>2018-03-31T12:19:12Z</time>
      </trkpt>
      <trkpt lat="36.832164" lon="-4.940462">
        <ele>721.158</ele>
        <time>2018-03-31T12:19:16Z</time>
      </trkpt>
      <trkpt lat="36.832211" lon="-4.940444">
        <ele>721.741</ele>
        <time>2018-03-31T12:19:19Z</time>
      </trkpt>
      <trkpt lat="36.832257" lon="-4.940432">
        <ele>722.457</ele>
        <time>2018-03-31T12:19:22Z</time>
      </trkpt>
      <trkpt lat="36.832310" lon="-4.940412">
        <ele>723.166</ele>
        <time>2018-03-31T12:19:26Z</time>
      </trkpt>
      <trkpt lat="36.832363" lon="-4.940403">
        <ele>723.863</ele>
        <time>2018-03-31T12:19:29Z</time>
      </trkpt>
      <trkpt lat="36.832424" lon="-4.940400">
        <ele>724.915</ele>
        <time>2018-03-31T12:19:33Z</time>
      </trkpt>
      <trkpt lat="36.832476" lon="-4.940397">
        <ele>725.787</ele>
        <time>2018-03-31T12:19:36Z</time>
      </trkpt>
      <trkpt lat="36.832531" lon="-4.940374">
        <ele>726.798</ele>
        <time>2018-03-31T12:19:39Z</time>
      </trkpt>
      <trkpt lat="36.832577" lon="-4.940362">
        <ele>727.015</ele>
        <time>2018-03-31T12:19:44Z</time>
      </trkpt>
      <trkpt lat="36.832623" lon="-4.940364">
        <ele>727.026</ele>
        <time>2018-03-31T12:19:48Z</time>
      </trkpt>
      <trkpt lat="36.832675" lon="-4.940354">
        <ele>727.008</ele>
        <time>2018-03-31T12:19:51Z</time>
      </trkpt>
      <trkpt lat="36.832728" lon="-4.940346">
        <ele>727.021</ele>
        <time>2018-03-31T12:19:56Z</time>
      </trkpt>
      <trkpt lat="36.832773" lon="-4.940338">
        <ele>727.032</ele>
        <time>2018-03-31T12:20:00Z</time>
      </trkpt>
      <trkpt lat="36.832800" lon="-4.940282">
        <ele>727.065</ele>
        <time>2018-03-31T12:20:04Z</time>
      </trkpt>
      <trkpt lat="36.832816" lon="-4.940221">
        <ele>726.771</ele>
        <time>2018-03-31T12:20:09Z</time>
      </trkpt>
      <trkpt lat="36.832857" lon="-4.940256">
        <ele>726.030</ele>
        <time>2018-03-31T12:20:22Z</time>
      </trkpt>
      <trkpt lat="36.832834" lon="-4.940305">
        <ele>726.387</ele>
        <time>2018-03-31T12:21:18Z</time>
      </trkpt>
      <trkpt lat="36.832822" lon="-4.940250">
        <ele>726.689</ele>
        <time>2018-03-31T12:21:39Z</time>
      </trkpt>
      <trkpt lat="36.832778" lon="-4.940309">
        <ele>727.021</ele>
        <time>2018-03-31T12:21:47Z</time>
      </trkpt>
      <trkpt lat="36.832738" lon="-4.940338">
        <ele>727.045</ele>
        <time>2018-03-31T12:21:54Z</time>
      </trkpt>
      <trkpt lat="36.832689" lon="-4.940347">
        <ele>727.047</ele>
        <time>2018-03-31T12:22:02Z</time>
      </trkpt>
      <trkpt lat="36.832647" lon="-4.940324">
        <ele>727.011</ele>
        <time>2018-03-31T12:22:10Z</time>
      </trkpt>
      <trkpt lat="36.832620" lon="-4.940272">
        <ele>727.008</ele>
        <time>2018-03-31T12:24:09Z</time>
      </trkpt>
      <trkpt lat="36.832640" lon="-4.940322">
        <ele>727.066</ele>
        <time>2018-03-31T12:24:27Z</time>
      </trkpt>
      <trkpt lat="36.832688" lon="-4.940317">
        <ele>727.017</ele>
        <time>2018-03-31T12:24:54Z</time>
      </trkpt>
      <trkpt lat="36.832737" lon="-4.940297">
        <ele>727.070</ele>
        <time>2018-03-31T12:25:04Z</time>
      </trkpt>
      <trkpt lat="36.832783" lon="-4.940288">
        <ele>727.086</ele>
        <time>2018-03-31T12:25:08Z</time>
      </trkpt>
      <trkpt lat="36.832842" lon="-4.940278">
        <ele>726.665</ele>
        <time>2018-03-31T12:25:14Z</time>
      </trkpt>
      <trkpt lat="36.832894" lon="-4.940266">
        <ele>725.362</ele>
        <time>2018-03-31T12:25:22Z</time>
      </trkpt>
      <trkpt lat="36.832848" lon="-4.940263">
        <ele>726.094</ele>
        <time>2018-03-31T12:26:21Z</time>
      </trkpt>
      <trkpt lat="36.832878" lon="-4.940309">
        <ele>725.696</ele>
        <time>2018-03-31T12:28:25Z</time>
      </trkpt>
      <trkpt lat="36.832847" lon="-4.940260">
        <ele>726.083</ele>
        <time>2018-03-31T12:29:34Z</time>
      </trkpt>
      <trkpt lat="36.832829" lon="-4.940206">
        <ele>726.525</ele>
        <time>2018-03-31T12:29:41Z</time>
      </trkpt>
      <trkpt lat="36.832810" lon="-4.940137">
        <ele>726.817</ele>
        <time>2018-03-31T12:29:44Z</time>
      </trkpt>
      <trkpt lat="36.832793" lon="-4.940067">
        <ele>727.108</ele>
        <time>2018-03-31T12:29:47Z</time>
      </trkpt>
      <trkpt lat="36.832765" lon="-4.940005">
        <ele>727.130</ele>
        <time>2018-03-31T12:29:51Z</time>
      </trkpt>
      <trkpt lat="36.832743" lon="-4.939948">
        <ele>726.851</ele>
        <time>2018-03-31T12:29:54Z</time>
      </trkpt>
      <trkpt lat="36.832718" lon="-4.939871">
        <ele>726.364</ele>
        <time>2018-03-31T12:29:57Z</time>
      </trkpt>
      <trkpt lat="36.832689" lon="-4.939809">
        <ele>725.910</ele>
        <time>2018-03-31T12:30:00Z</time>
      </trkpt>
      <trkpt lat="36.832671" lon="-4.939743">
        <ele>725.759</ele>
        <time>2018-03-31T12:30:03Z</time>
      </trkpt>
      <trkpt lat="36.832656" lon="-4.939668">
        <ele>725.596</ele>
        <time>2018-03-31T12:30:06Z</time>
      </trkpt>
      <trkpt lat="36.832652" lon="-4.939595">
        <ele>725.248</ele>
        <time>2018-03-31T12:30:09Z</time>
      </trkpt>
      <trkpt lat="36.832635" lon="-4.939539">
        <ele>725.180</ele>
        <time>2018-03-31T12:30:11Z</time>
      </trkpt>
      <trkpt lat="36.832616" lon="-4.939487">
        <ele>725.351</ele>
        <time>2018-03-31T12:30:13Z</time>
      </trkpt>
      <trkpt lat="36.832598" lon="-4.939432">
        <ele>725.401</ele>
        <time>2018-03-31T12:30:15Z</time>
      </trkpt>
      <trkpt lat="36.832585" lon="-4.939362">
        <ele>725.611</ele>
        <time>2018-03-31T12:30:17Z</time>
      </trkpt>
      <trkpt lat="36.832574" lon="-4.939291">
        <ele>725.908</ele>
        <time>2018-03-31T12:30:19Z</time>
      </trkpt>
      <trkpt lat="36.832563" lon="-4.939233">
        <ele>726.197</ele>
        <time>2018-03-31T12:30:21Z</time>
      </trkpt>
      <trkpt lat="36.832548" lon="-4.939164">
        <ele>726.488</ele>
        <time>2018-03-31T12:30:24Z</time>
      </trkpt>
      <trkpt lat="36.832547" lon="-4.939107">
        <ele>726.271</ele>
        <time>2018-03-31T12:30:27Z</time>
      </trkpt>
      <trkpt lat="36.832545" lon="-4.939031">
        <ele>725.337</ele>
        <time>2018-03-31T12:30:30Z</time>
      </trkpt>
      <trkpt lat="36.832537" lon="-4.938970">
        <ele>724.776</ele>
        <time>2018-03-31T12:30:33Z</time>
      </trkpt>
      <trkpt lat="36.832524" lon="-4.938904">
        <ele>724.363</ele>
        <time>2018-03-31T12:30:36Z</time>
      </trkpt>
      <trkpt lat="36.832533" lon="-4.938844">
        <ele>723.775</ele>
        <time>2018-03-31T12:30:39Z</time>
      </trkpt>
      <trkpt lat="36.832529" lon="-4.938764">
        <ele>723.147</ele>
        <time>2018-03-31T12:31:19Z</time>
      </trkpt>
      <trkpt lat="36.832534" lon="-4.938664">
        <ele>721.955</ele>
        <time>2018-03-31T12:31:21Z</time>
      </trkpt>
      <trkpt lat="36.832525" lon="-4.938575">
        <ele>720.907</ele>
        <time>2018-03-31T12:31:23Z</time>
      </trkpt>
      <trkpt lat="36.832512" lon="-4.938509">
        <ele>720.117</ele>
        <time>2018-03-31T12:31:25Z</time>
      </trkpt>
      <trkpt lat="36.832507" lon="-4.938446">
        <ele>719.308</ele>
        <time>2018-03-31T12:31:27Z</time>
      </trkpt>
      <trkpt lat="36.832509" lon="-4.938363">
        <ele>718.547</ele>
        <time>2018-03-31T12:31:29Z</time>
      </trkpt>
      <trkpt lat="36.832535" lon="-4.938283">
        <ele>718.138</ele>
        <time>2018-03-31T12:31:31Z</time>
      </trkpt>
      <trkpt lat="36.832553" lon="-4.938195">
        <ele>717.431</ele>
        <time>2018-03-31T12:31:33Z</time>
      </trkpt>
      <trkpt lat="36.832573" lon="-4.938115">
        <ele>716.557</ele>
        <time>2018-03-31T12:31:35Z</time>
      </trkpt>
      <trkpt lat="36.832599" lon="-4.938031">
        <ele>715.296</ele>
        <time>2018-03-31T12:31:38Z</time>
      </trkpt>
      <trkpt lat="36.832626" lon="-4.937969">
        <ele>714.513</ele>
        <time>2018-03-31T12:31:41Z</time>
      </trkpt>
      <trkpt lat="36.832656" lon="-4.937889">
        <ele>714.325</ele>
        <time>2018-03-31T12:31:44Z</time>
      </trkpt>
      <trkpt lat="36.832680" lon="-4.937834">
        <ele>714.367</ele>
        <time>2018-03-31T12:31:46Z</time>
      </trkpt>
      <trkpt lat="36.832700" lon="-4.937776">
        <ele>714.512</ele>
        <time>2018-03-31T12:31:48Z</time>
      </trkpt>
      <trkpt lat="36.832722" lon="-4.937721">
        <ele>714.932</ele>
        <time>2018-03-31T12:31:51Z</time>
      </trkpt>
      <trkpt lat="36.832721" lon="-4.937660">
        <ele>715.305</ele>
        <time>2018-03-31T12:31:54Z</time>
      </trkpt>
      <trkpt lat="36.832725" lon="-4.937604">
        <ele>715.908</ele>
        <time>2018-03-31T12:31:58Z</time>
      </trkpt>
      <trkpt lat="36.832735" lon="-4.937542">
        <ele>716.563</ele>
        <time>2018-03-31T12:32:04Z</time>
      </trkpt>
      <trkpt lat="36.832752" lon="-4.937460">
        <ele>717.084</ele>
        <time>2018-03-31T12:32:07Z</time>
      </trkpt>
      <trkpt lat="36.832761" lon="-4.937404">
        <ele>717.557</ele>
        <time>2018-03-31T12:32:09Z</time>
      </trkpt>
      <trkpt lat="36.832782" lon="-4.937346">
        <ele>718.153</ele>
        <time>2018-03-31T12:32:11Z</time>
      </trkpt>
      <trkpt lat="36.832818" lon="-4.937307">
        <ele>719.252</ele>
        <time>2018-03-31T12:32:14Z</time>
      </trkpt>
      <trkpt lat="36.832832" lon="-4.937249">
        <ele>720.449</ele>
        <time>2018-03-31T12:32:40Z</time>
      </trkpt>
      <trkpt lat="36.832863" lon="-4.937205">
        <ele>720.511</ele>
        <time>2018-03-31T12:32:43Z</time>
      </trkpt>
      <trkpt lat="36.832898" lon="-4.937162">
        <ele>720.283</ele>
        <time>2018-03-31T12:32:48Z</time>
      </trkpt>
      <trkpt lat="36.832916" lon="-4.937110">
        <ele>720.365</ele>
        <time>2018-03-31T12:32:57Z</time>
      </trkpt>
      <trkpt lat="36.832936" lon="-4.937052">
        <ele>720.568</ele>
        <time>2018-03-31T12:33:05Z</time>
      </trkpt>
      <trkpt lat="36.832971" lon="-4.936997">
        <ele>720.714</ele>
        <time>2018-03-31T12:33:09Z</time>
      </trkpt>
      <trkpt lat="36.832998" lon="-4.936941">
        <ele>721.108</ele>
        <time>2018-03-31T12:33:13Z</time>
      </trkpt>
      <trkpt lat="36.833029" lon="-4.936897">
        <ele>721.568</ele>
        <time>2018-03-31T12:33:17Z</time>
      </trkpt>
      <trkpt lat="36.833048" lon="-4.936843">
        <ele>721.999</ele>
        <time>2018-03-31T12:33:20Z</time>
      </trkpt>
      <trkpt lat="36.833069" lon="-4.936774">
        <ele>722.652</ele>
        <time>2018-03-31T12:33:23Z</time>
      </trkpt>
      <trkpt lat="36.833089" lon="-4.936715">
        <ele>723.568</ele>
        <time>2018-03-31T12:33:27Z</time>
      </trkpt>
      <trkpt lat="36.833121" lon="-4.936654">
        <ele>724.087</ele>
        <time>2018-03-31T12:33:30Z</time>
      </trkpt>
      <trkpt lat="36.833145" lon="-4.936600">
        <ele>724.284</ele>
        <time>2018-03-31T12:33:33Z</time>
      </trkpt>
      <trkpt lat="36.833157" lon="-4.936533">
        <ele>724.496</ele>
        <time>2018-03-31T12:33:37Z</time>
      </trkpt>
      <trkpt lat="36.833181" lon="-4.936477">
        <ele>724.748</ele>
        <time>2018-03-31T12:33:41Z</time>
      </trkpt>
      <trkpt lat="36.833213" lon="-4.936429">
        <ele>725.172</ele>
        <time>2018-03-31T12:33:44Z</time>
      </trkpt>
      <trkpt lat="36.833234" lon="-4.936368">
        <ele>725.713</ele>
        <time>2018-03-31T12:33:47Z</time>
      </trkpt>
      <trkpt lat="36.833256" lon="-4.936310">
        <ele>726.614</ele>
        <time>2018-03-31T12:33:50Z</time>
      </trkpt>
      <trkpt lat="36.833270" lon="-4.936244">
        <ele>727.608</ele>
        <time>2018-03-31T12:33:54Z</time>
      </trkpt>
      <trkpt lat="36.833290" lon="-4.936188">
        <ele>728.479</ele>
        <time>2018-03-31T12:33:58Z</time>
      </trkpt>
      <trkpt lat="36.833304" lon="-4.936124">
        <ele>729.470</ele>
        <time>2018-03-31T12:34:03Z</time>
      </trkpt>
      <trkpt lat="36.833320" lon="-4.936069">
        <ele>730.033</ele>
        <time>2018-03-31T12:34:07Z</time>
      </trkpt>
      <trkpt lat="36.833319" lon="-4.935998">
        <ele>730.769</ele>
        <time>2018-03-31T12:34:11Z</time>
      </trkpt>
      <trkpt lat="36.833324" lon="-4.935931">
        <ele>731.448</ele>
        <time>2018-03-31T12:34:15Z</time>
      </trkpt>
      <trkpt lat="36.833335" lon="-4.935866">
        <ele>732.265</ele>
        <time>2018-03-31T12:34:19Z</time>
      </trkpt>
      <trkpt lat="36.833337" lon="-4.935794">
        <ele>732.957</ele>
        <time>2018-03-31T12:34:23Z</time>
      </trkpt>
      <trkpt lat="36.833323" lon="-4.935731">
        <ele>732.739</ele>
        <time>2018-03-31T12:34:27Z</time>
      </trkpt>
      <trkpt lat="36.833307" lon="-4.935671">
        <ele>732.287</ele>
        <time>2018-03-31T12:34:31Z</time>
      </trkpt>
      <trkpt lat="36.833309" lon="-4.935615">
        <ele>732.242</ele>
        <time>2018-03-31T12:35:28Z</time>
      </trkpt>
      <trkpt lat="36.833307" lon="-4.935557">
        <ele>732.226</ele>
        <time>2018-03-31T12:35:32Z</time>
      </trkpt>
      <trkpt lat="36.833285" lon="-4.935493">
        <ele>732.408</ele>
        <time>2018-03-31T12:35:35Z</time>
      </trkpt>
      <trkpt lat="36.833253" lon="-4.935429">
        <ele>732.490</ele>
        <time>2018-03-31T12:35:38Z</time>
      </trkpt>
      <trkpt lat="36.833226" lon="-4.935360">
        <ele>732.411</ele>
        <time>2018-03-31T12:35:40Z</time>
      </trkpt>
      <trkpt lat="36.833202" lon="-4.935305">
        <ele>732.574</ele>
        <time>2018-03-31T12:35:42Z</time>
      </trkpt>
      <trkpt lat="36.833174" lon="-4.935230">
        <ele>732.660</ele>
        <time>2018-03-31T12:35:45Z</time>
      </trkpt>
      <trkpt lat="36.833153" lon="-4.935157">
        <ele>732.339</ele>
        <time>2018-03-31T12:35:48Z</time>
      </trkpt>
      <trkpt lat="36.833139" lon="-4.935085">
        <ele>732.086</ele>
        <time>2018-03-31T12:35:51Z</time>
      </trkpt>
      <trkpt lat="36.833137" lon="-4.935018">
        <ele>732.188</ele>
        <time>2018-03-31T12:35:53Z</time>
      </trkpt>
      <trkpt lat="36.833140" lon="-4.934952">
        <ele>732.220</ele>
        <time>2018-03-31T12:35:55Z</time>
      </trkpt>
      <trkpt lat="36.833146" lon="-4.934889">
        <ele>732.482</ele>
        <time>2018-03-31T12:35:58Z</time>
      </trkpt>
      <trkpt lat="36.833122" lon="-4.934832">
        <ele>726.243</ele>
        <time>2018-03-31T12:36:17Z</time>
      </trkpt>
      <trkpt lat="36.833077" lon="-4.934830">
        <ele>727.617</ele>
        <time>2018-03-31T12:36:33Z</time>
      </trkpt>
      <trkpt lat="36.833025" lon="-4.934842">
        <ele>729.108</ele>
        <time>2018-03-31T12:36:44Z</time>
      </trkpt>
      <trkpt lat="36.832985" lon="-4.934814">
        <ele>729.990</ele>
        <time>2018-03-31T12:36:53Z</time>
      </trkpt>
      <trkpt lat="36.832974" lon="-4.934750">
        <ele>729.941</ele>
        <time>2018-03-31T12:36:56Z</time>
      </trkpt>
      <trkpt lat="36.832969" lon="-4.934694">
        <ele>729.544</ele>
        <time>2018-03-31T12:36:58Z</time>
      </trkpt>
      <trkpt lat="36.832958" lon="-4.934638">
        <ele>729.130</ele>
        <time>2018-03-31T12:37:00Z</time>
      </trkpt>
      <trkpt lat="36.832954" lon="-4.934556">
        <ele>729.279</ele>
        <time>2018-03-31T12:37:03Z</time>
      </trkpt>
      <trkpt lat="36.832953" lon="-4.934498">
        <ele>729.236</ele>
        <time>2018-03-31T12:37:05Z</time>
      </trkpt>
      <trkpt lat="36.832953" lon="-4.934429">
        <ele>729.218</ele>
        <time>2018-03-31T12:37:07Z</time>
      </trkpt>
      <trkpt lat="36.832956" lon="-4.934364">
        <ele>729.480</ele>
        <time>2018-03-31T12:37:09Z</time>
      </trkpt>
      <trkpt lat="36.832964" lon="-4.934295">
        <ele>729.562</ele>
        <time>2018-03-31T12:37:11Z</time>
      </trkpt>
      <trkpt lat="36.832966" lon="-4.934234">
        <ele>729.583</ele>
        <time>2018-03-31T12:37:14Z</time>
      </trkpt>
      <trkpt lat="36.832966" lon="-4.934152">
        <ele>730.211</ele>
        <time>2018-03-31T12:37:17Z</time>
      </trkpt>
      <trkpt lat="36.832965" lon="-4.934080">
        <ele>730.608</ele>
        <time>2018-03-31T12:37:20Z</time>
      </trkpt>
      <trkpt lat="36.832950" lon="-4.934015">
        <ele>731.318</ele>
        <time>2018-03-31T12:37:23Z</time>
      </trkpt>
      <trkpt lat="36.832940" lon="-4.933938">
        <ele>732.159</ele>
        <time>2018-03-31T12:37:26Z</time>
      </trkpt>
      <trkpt lat="36.832936" lon="-4.933855">
        <ele>731.972</ele>
        <time>2018-03-31T12:37:29Z</time>
      </trkpt>
      <trkpt lat="36.832932" lon="-4.933781">
        <ele>731.248</ele>
        <time>2018-03-31T12:37:32Z</time>
      </trkpt>
      <trkpt lat="36.832928" lon="-4.933706">
        <ele>731.557</ele>
        <time>2018-03-31T12:37:35Z</time>
      </trkpt>
      <trkpt lat="36.832920" lon="-4.933623">
        <ele>732.344</ele>
        <time>2018-03-31T12:37:38Z</time>
      </trkpt>
      <trkpt lat="36.832907" lon="-4.933562">
        <ele>732.656</ele>
        <time>2018-03-31T12:37:40Z</time>
      </trkpt>
      <trkpt lat="36.832898" lon="-4.933492">
        <ele>732.998</ele>
        <time>2018-03-31T12:37:42Z</time>
      </trkpt>
      <trkpt lat="36.832890" lon="-4.933414">
        <ele>733.052</ele>
        <time>2018-03-31T12:37:45Z</time>
      </trkpt>
      <trkpt lat="36.832878" lon="-4.933353">
        <ele>733.053</ele>
        <time>2018-03-31T12:37:48Z</time>
      </trkpt>
      <trkpt lat="36.832854" lon="-4.933290">
        <ele>734.308</ele>
        <time>2018-03-31T12:37:52Z</time>
      </trkpt>
      <trkpt lat="36.832828" lon="-4.933243">
        <ele>735.608</ele>
        <time>2018-03-31T12:37:55Z</time>
      </trkpt>
      <trkpt lat="36.832814" lon="-4.933181">
        <ele>736.177</ele>
        <time>2018-03-31T12:37:58Z</time>
      </trkpt>
      <trkpt lat="36.832790" lon="-4.933115">
        <ele>736.838</ele>
        <time>2018-03-31T12:38:01Z</time>
      </trkpt>
      <trkpt lat="36.832787" lon="-4.933043">
        <ele>737.271</ele>
        <time>2018-03-31T12:38:04Z</time>
      </trkpt>
      <trkpt lat="36.832792" lon="-4.932987">
        <ele>736.237</ele>
        <time>2018-03-31T12:38:06Z</time>
      </trkpt>
      <trkpt lat="36.832793" lon="-4.932920">
        <ele>735.616</ele>
        <time>2018-03-31T12:38:08Z</time>
      </trkpt>
      <trkpt lat="36.832785" lon="-4.932839">
        <ele>734.713</ele>
        <time>2018-03-31T12:38:11Z</time>
      </trkpt>
      <trkpt lat="36.832772" lon="-4.932765">
        <ele>734.595</ele>
        <time>2018-03-31T12:38:14Z</time>
      </trkpt>
      <trkpt lat="36.832760" lon="-4.932694">
        <ele>735.097</ele>
        <time>2018-03-31T12:38:17Z</time>
      </trkpt>
      <trkpt lat="36.832763" lon="-4.932622">
        <ele>735.763</ele>
        <time>2018-03-31T12:38:20Z</time>
      </trkpt>
      <trkpt lat="36.832770" lon="-4.932546">
        <ele>735.844</ele>
        <time>2018-03-31T12:38:23Z</time>
      </trkpt>
      <trkpt lat="36.832783" lon="-4.932475">
        <ele>736.518</ele>
        <time>2018-03-31T12:38:26Z</time>
      </trkpt>
      <trkpt lat="36.832788" lon="-4.932412">
        <ele>736.808</ele>
        <time>2018-03-31T12:38:29Z</time>
      </trkpt>
      <trkpt lat="36.832793" lon="-4.932352">
        <ele>736.448</ele>
        <time>2018-03-31T12:38:32Z</time>
      </trkpt>
      <trkpt lat="36.832804" lon="-4.932289">
        <ele>736.359</ele>
        <time>2018-03-31T12:38:35Z</time>
      </trkpt>
      <trkpt lat="36.832803" lon="-4.932219">
        <ele>736.872</ele>
        <time>2018-03-31T12:38:38Z</time>
      </trkpt>
      <trkpt lat="36.832817" lon="-4.932157">
        <ele>737.248</ele>
        <time>2018-03-31T12:38:41Z</time>
      </trkpt>
      <trkpt lat="36.832831" lon="-4.932092">
        <ele>738.897</ele>
        <time>2018-03-31T12:38:44Z</time>
      </trkpt>
      <trkpt lat="36.832820" lon="-4.932030">
        <ele>740.214</ele>
        <time>2018-03-31T12:38:47Z</time>
      </trkpt>
      <trkpt lat="36.832822" lon="-4.931949">
        <ele>741.016</ele>
        <time>2018-03-31T12:38:50Z</time>
      </trkpt>
      <trkpt lat="36.832826" lon="-4.931888">
        <ele>742.198</ele>
        <time>2018-03-31T12:38:52Z</time>
      </trkpt>
      <trkpt lat="36.832826" lon="-4.931815">
        <ele>744.065</ele>
        <time>2018-03-31T12:38:55Z</time>
      </trkpt>
      <trkpt lat="36.832825" lon="-4.931726">
        <ele>745.768</ele>
        <time>2018-03-31T12:38:58Z</time>
      </trkpt>
      <trkpt lat="36.832815" lon="-4.931652">
        <ele>746.914</ele>
        <time>2018-03-31T12:39:01Z</time>
      </trkpt>
      <trkpt lat="36.832796" lon="-4.931585">
        <ele>747.808</ele>
        <time>2018-03-31T12:39:04Z</time>
      </trkpt>
      <trkpt lat="36.832796" lon="-4.931505">
        <ele>748.598</ele>
        <time>2018-03-31T12:39:07Z</time>
      </trkpt>
      <trkpt lat="36.832798" lon="-4.931444">
        <ele>748.949</ele>
        <time>2018-03-31T12:39:10Z</time>
      </trkpt>
      <trkpt lat="36.832797" lon="-4.931371">
        <ele>749.142</ele>
        <time>2018-03-31T12:39:14Z</time>
      </trkpt>
      <trkpt lat="36.832780" lon="-4.931316">
        <ele>749.278</ele>
        <time>2018-03-31T12:39:16Z</time>
      </trkpt>
      <trkpt lat="36.832762" lon="-4.931259">
        <ele>748.797</ele>
        <time>2018-03-31T12:39:18Z</time>
      </trkpt>
      <trkpt lat="36.832767" lon="-4.931186">
        <ele>748.044</ele>
        <time>2018-03-31T12:39:21Z</time>
      </trkpt>
      <trkpt lat="36.832764" lon="-4.931105">
        <ele>746.556</ele>
        <time>2018-03-31T12:39:24Z</time>
      </trkpt>
      <trkpt lat="36.832765" lon="-4.931038">
        <ele>745.678</ele>
        <time>2018-03-31T12:39:27Z</time>
      </trkpt>
      <trkpt lat="36.832756" lon="-4.930979">
        <ele>745.696</ele>
        <time>2018-03-31T12:39:29Z</time>
      </trkpt>
      <trkpt lat="36.832731" lon="-4.930905">
        <ele>744.831</ele>
        <time>2018-03-31T12:39:32Z</time>
      </trkpt>
      <trkpt lat="36.832713" lon="-4.930846">
        <ele>744.924</ele>
        <time>2018-03-31T12:39:34Z</time>
      </trkpt>
      <trkpt lat="36.832694" lon="-4.930790">
        <ele>745.708</ele>
        <time>2018-03-31T12:39:36Z</time>
      </trkpt>
      <trkpt lat="36.832667" lon="-4.930733">
        <ele>746.941</ele>
        <time>2018-03-31T12:39:38Z</time>
      </trkpt>
      <trkpt lat="36.832649" lon="-4.930662">
        <ele>747.722</ele>
        <time>2018-03-31T12:39:41Z</time>
      </trkpt>
      <trkpt lat="36.832628" lon="-4.930584">
        <ele>748.155</ele>
        <time>2018-03-31T12:39:44Z</time>
      </trkpt>
      <trkpt lat="36.832612" lon="-4.930520">
        <ele>747.961</ele>
        <time>2018-03-31T12:39:46Z</time>
      </trkpt>
      <trkpt lat="36.832604" lon="-4.930445">
        <ele>748.260</ele>
        <time>2018-03-31T12:39:49Z</time>
      </trkpt>
      <trkpt lat="36.832609" lon="-4.930369">
        <ele>748.957</ele>
        <time>2018-03-31T12:39:52Z</time>
      </trkpt>
      <trkpt lat="36.832607" lon="-4.930310">
        <ele>749.539</ele>
        <time>2018-03-31T12:39:55Z</time>
      </trkpt>
      <trkpt lat="36.832592" lon="-4.930232">
        <ele>750.581</ele>
        <time>2018-03-31T12:39:58Z</time>
      </trkpt>
      <trkpt lat="36.832586" lon="-4.930156">
        <ele>750.629</ele>
        <time>2018-03-31T12:40:01Z</time>
      </trkpt>
      <trkpt lat="36.832573" lon="-4.930100">
        <ele>750.800</ele>
        <time>2018-03-31T12:40:03Z</time>
      </trkpt>
      <trkpt lat="36.832564" lon="-4.930041">
        <ele>751.620</ele>
        <time>2018-03-31T12:40:05Z</time>
      </trkpt>
      <trkpt lat="36.832559" lon="-4.929979">
        <ele>752.708</ele>
        <time>2018-03-31T12:40:07Z</time>
      </trkpt>
      <trkpt lat="36.832551" lon="-4.929923">
        <ele>753.994</ele>
        <time>2018-03-31T12:40:09Z</time>
      </trkpt>
      <trkpt lat="36.832545" lon="-4.929844">
        <ele>755.385</ele>
        <time>2018-03-31T12:40:12Z</time>
      </trkpt>
      <trkpt lat="36.832540" lon="-4.929784">
        <ele>756.298</ele>
        <time>2018-03-31T12:40:14Z</time>
      </trkpt>
      <trkpt lat="36.832529" lon="-4.929726">
        <ele>757.034</ele>
        <time>2018-03-31T12:40:16Z</time>
      </trkpt>
      <trkpt lat="36.832520" lon="-4.929663">
        <ele>757.883</ele>
        <time>2018-03-31T12:40:18Z</time>
      </trkpt>
      <trkpt lat="36.832517" lon="-4.929593">
        <ele>758.530</ele>
        <time>2018-03-31T12:40:20Z</time>
      </trkpt>
      <trkpt lat="36.832519" lon="-4.929531">
        <ele>759.162</ele>
        <time>2018-03-31T12:40:22Z</time>
      </trkpt>
      <trkpt lat="36.832523" lon="-4.929454">
        <ele>759.474</ele>
        <time>2018-03-31T12:40:25Z</time>
      </trkpt>
      <trkpt lat="36.832528" lon="-4.929397">
        <ele>759.719</ele>
        <time>2018-03-31T12:40:27Z</time>
      </trkpt>
      <trkpt lat="36.832536" lon="-4.929331">
        <ele>759.709</ele>
        <time>2018-03-31T12:40:29Z</time>
      </trkpt>
      <trkpt lat="36.832547" lon="-4.929263">
        <ele>759.619</ele>
        <time>2018-03-31T12:40:31Z</time>
      </trkpt>
      <trkpt lat="36.832551" lon="-4.929189">
        <ele>759.508</ele>
        <time>2018-03-31T12:40:33Z</time>
      </trkpt>
      <trkpt lat="36.832550" lon="-4.929117">
        <ele>759.583</ele>
        <time>2018-03-31T12:40:35Z</time>
      </trkpt>
      <trkpt lat="36.832559" lon="-4.929042">
        <ele>759.744</ele>
        <time>2018-03-31T12:40:38Z</time>
      </trkpt>
      <trkpt lat="36.832572" lon="-4.928982">
        <ele>759.557</ele>
        <time>2018-03-31T12:40:40Z</time>
      </trkpt>
      <trkpt lat="36.832589" lon="-4.928914">
        <ele>759.563</ele>
        <time>2018-03-31T12:40:42Z</time>
      </trkpt>
      <trkpt lat="36.832607" lon="-4.928849">
        <ele>759.812</ele>
        <time>2018-03-31T12:40:44Z</time>
      </trkpt>
      <trkpt lat="36.832634" lon="-4.928784">
        <ele>760.359</ele>
        <time>2018-03-31T12:40:46Z</time>
      </trkpt>
      <trkpt lat="36.832656" lon="-4.928730">
        <ele>760.481</ele>
        <time>2018-03-31T12:40:48Z</time>
      </trkpt>
      <trkpt lat="36.832677" lon="-4.928671">
        <ele>760.373</ele>
        <time>2018-03-31T12:40:50Z</time>
      </trkpt>
      <trkpt lat="36.832705" lon="-4.928600">
        <ele>760.283</ele>
        <time>2018-03-31T12:40:52Z</time>
      </trkpt>
      <trkpt lat="36.832739" lon="-4.928521">
        <ele>760.425</ele>
        <time>2018-03-31T12:40:54Z</time>
      </trkpt>
      <trkpt lat="36.832767" lon="-4.928468">
        <ele>760.317</ele>
        <time>2018-03-31T12:40:56Z</time>
      </trkpt>
      <trkpt lat="36.832791" lon="-4.928418">
        <ele>760.408</ele>
        <time>2018-03-31T12:40:58Z</time>
      </trkpt>
      <trkpt lat="36.832818" lon="-4.928363">
        <ele>761.150</ele>
        <time>2018-03-31T12:41:01Z</time>
      </trkpt>
      <trkpt lat="36.832834" lon="-4.928290">
        <ele>761.981</ele>
        <time>2018-03-31T12:41:04Z</time>
      </trkpt>
      <trkpt lat="36.832852" lon="-4.928234">
        <ele>762.824</ele>
        <time>2018-03-31T12:41:06Z</time>
      </trkpt>
      <trkpt lat="36.832881" lon="-4.928190">
        <ele>763.160</ele>
        <time>2018-03-31T12:41:08Z</time>
      </trkpt>
      <trkpt lat="36.832922" lon="-4.928122">
        <ele>762.959</ele>
        <time>2018-03-31T12:41:11Z</time>
      </trkpt>
      <trkpt lat="36.832945" lon="-4.928069">
        <ele>762.326</ele>
        <time>2018-03-31T12:41:16Z</time>
      </trkpt>
      <trkpt lat="36.832968" lon="-4.928012">
        <ele>762.438</ele>
        <time>2018-03-31T12:41:21Z</time>
      </trkpt>
      <trkpt lat="36.832921" lon="-4.928000">
        <ele>754.880</ele>
        <time>2018-03-31T12:41:29Z</time>
      </trkpt>
      <trkpt lat="36.832888" lon="-4.928041">
        <ele>756.527</ele>
        <time>2018-03-31T12:41:44Z</time>
      </trkpt>
      <trkpt lat="36.832932" lon="-4.928014">
        <ele>756.268</ele>
        <time>2018-03-31T12:41:51Z</time>
      </trkpt>
      <trkpt lat="36.832958" lon="-4.927968">
        <ele>755.814</ele>
        <time>2018-03-31T12:41:54Z</time>
      </trkpt>
      <trkpt lat="36.833006" lon="-4.927948">
        <ele>755.208</ele>
        <time>2018-03-31T12:41:59Z</time>
      </trkpt>
      <trkpt lat="36.833046" lon="-4.927910">
        <ele>754.944</ele>
        <time>2018-03-31T12:42:16Z</time>
      </trkpt>
      <trkpt lat="36.833067" lon="-4.927845">
        <ele>754.875</ele>
        <time>2018-03-31T12:42:20Z</time>
      </trkpt>
      <trkpt lat="36.833118" lon="-4.927794">
        <ele>754.738</ele>
        <time>2018-03-31T12:42:22Z</time>
      </trkpt>
      <trkpt lat="36.833163" lon="-4.927727">
        <ele>754.714</ele>
        <time>2018-03-31T12:42:24Z</time>
      </trkpt>
      <trkpt lat="36.833197" lon="-4.927682">
        <ele>754.713</ele>
        <time>2018-03-31T12:42:26Z</time>
      </trkpt>
      <trkpt lat="36.833228" lon="-4.927629">
        <ele>754.770</ele>
        <time>2018-03-31T12:42:28Z</time>
      </trkpt>
      <trkpt lat="36.833258" lon="-4.927567">
        <ele>754.772</ele>
        <time>2018-03-31T12:42:30Z</time>
      </trkpt>
      <trkpt lat="36.833277" lon="-4.927497">
        <ele>754.714</ele>
        <time>2018-03-31T12:42:32Z</time>
      </trkpt>
      <trkpt lat="36.833286" lon="-4.927428">
        <ele>755.187</ele>
        <time>2018-03-31T12:42:34Z</time>
      </trkpt>
      <trkpt lat="36.833314" lon="-4.927378">
        <ele>755.642</ele>
        <time>2018-03-31T12:42:36Z</time>
      </trkpt>
      <trkpt lat="36.833359" lon="-4.927324">
        <ele>756.326</ele>
        <time>2018-03-31T12:42:38Z</time>
      </trkpt>
      <trkpt lat="36.833406" lon="-4.927262">
        <ele>757.108</ele>
        <time>2018-03-31T12:42:40Z</time>
      </trkpt>
      <trkpt lat="36.833444" lon="-4.927219">
        <ele>757.780</ele>
        <time>2018-03-31T12:42:42Z</time>
      </trkpt>
      <trkpt lat="36.833484" lon="-4.927177">
        <ele>758.311</ele>
        <time>2018-03-31T12:42:44Z</time>
      </trkpt>
      <trkpt lat="36.833526" lon="-4.927126">
        <ele>759.114</ele>
        <time>2018-03-31T12:42:46Z</time>
      </trkpt>
      <trkpt lat="36.833558" lon="-4.927083">
        <ele>759.730</ele>
        <time>2018-03-31T12:42:48Z</time>
      </trkpt>
      <trkpt lat="36.833591" lon="-4.927043">
        <ele>760.199</ele>
        <time>2018-03-31T12:42:50Z</time>
      </trkpt>
      <trkpt lat="36.833628" lon="-4.926999">
        <ele>760.486</ele>
        <time>2018-03-31T12:42:52Z</time>
      </trkpt>
      <trkpt lat="36.833661" lon="-4.926959">
        <ele>760.598</ele>
        <time>2018-03-31T12:42:54Z</time>
      </trkpt>
      <trkpt lat="36.833702" lon="-4.926914">
        <ele>760.780</ele>
        <time>2018-03-31T12:42:57Z</time>
      </trkpt>
      <trkpt lat="36.833735" lon="-4.926862">
        <ele>761.318</ele>
        <time>2018-03-31T12:42:59Z</time>
      </trkpt>
      <trkpt lat="36.833775" lon="-4.926812">
        <ele>762.198</ele>
        <time>2018-03-31T12:43:01Z</time>
      </trkpt>
      <trkpt lat="36.833813" lon="-4.926775">
        <ele>762.617</ele>
        <time>2018-03-31T12:43:03Z</time>
      </trkpt>
      <trkpt lat="36.833858" lon="-4.926728">
        <ele>763.308</ele>
        <time>2018-03-31T12:43:06Z</time>
      </trkpt>
      <trkpt lat="36.833897" lon="-4.926690">
        <ele>763.613</ele>
        <time>2018-03-31T12:43:08Z</time>
      </trkpt>
      <trkpt lat="36.833938" lon="-4.926657">
        <ele>763.884</ele>
        <time>2018-03-31T12:43:10Z</time>
      </trkpt>
      <trkpt lat="36.833982" lon="-4.926610">
        <ele>763.897</ele>
        <time>2018-03-31T12:43:12Z</time>
      </trkpt>
      <trkpt lat="36.834020" lon="-4.926565">
        <ele>763.923</ele>
        <time>2018-03-31T12:43:14Z</time>
      </trkpt>
      <trkpt lat="36.834061" lon="-4.926521">
        <ele>764.062</ele>
        <time>2018-03-31T12:43:16Z</time>
      </trkpt>
      <trkpt lat="36.834103" lon="-4.926463">
        <ele>764.369</ele>
        <time>2018-03-31T12:43:18Z</time>
      </trkpt>
      <trkpt lat="36.834146" lon="-4.926415">
        <ele>764.541</ele>
        <time>2018-03-31T12:43:20Z</time>
      </trkpt>
      <trkpt lat="36.834191" lon="-4.926374">
        <ele>764.553</ele>
        <time>2018-03-31T12:43:22Z</time>
      </trkpt>
      <trkpt lat="36.834234" lon="-4.926326">
        <ele>765.087</ele>
        <time>2018-03-31T12:43:24Z</time>
      </trkpt>
      <trkpt lat="36.834272" lon="-4.926281">
        <ele>765.642</ele>
        <time>2018-03-31T12:43:26Z</time>
      </trkpt>
      <trkpt lat="36.834306" lon="-4.926238">
        <ele>766.326</ele>
        <time>2018-03-31T12:43:28Z</time>
      </trkpt>
      <trkpt lat="36.834363" lon="-4.926191">
        <ele>766.808</ele>
        <time>2018-03-31T12:43:31Z</time>
      </trkpt>
      <trkpt lat="36.834420" lon="-4.926153">
        <ele>767.010</ele>
        <time>2018-03-31T12:43:34Z</time>
      </trkpt>
      <trkpt lat="36.834468" lon="-4.926133">
        <ele>766.821</ele>
        <time>2018-03-31T12:43:36Z</time>
      </trkpt>
      <trkpt lat="36.834517" lon="-4.926121">
        <ele>766.254</ele>
        <time>2018-03-31T12:43:38Z</time>
      </trkpt>
      <trkpt lat="36.834568" lon="-4.926101">
        <ele>765.670</ele>
        <time>2018-03-31T12:43:40Z</time>
      </trkpt>
      <trkpt lat="36.834619" lon="-4.926067">
        <ele>765.099</ele>
        <time>2018-03-31T12:43:42Z</time>
      </trkpt>
      <trkpt lat="36.834668" lon="-4.926024">
        <ele>764.716</ele>
        <time>2018-03-31T12:43:44Z</time>
      </trkpt>
      <trkpt lat="36.834716" lon="-4.925991">
        <ele>764.518</ele>
        <time>2018-03-31T12:43:46Z</time>
      </trkpt>
      <trkpt lat="36.834761" lon="-4.925962">
        <ele>764.210</ele>
        <time>2018-03-31T12:43:48Z</time>
      </trkpt>
      <trkpt lat="36.834810" lon="-4.925923">
        <ele>763.874</ele>
        <time>2018-03-31T12:43:50Z</time>
      </trkpt>
      <trkpt lat="36.834841" lon="-4.925875">
        <ele>763.856</ele>
        <time>2018-03-31T12:43:52Z</time>
      </trkpt>
      <trkpt lat="36.834871" lon="-4.925815">
        <ele>764.421</ele>
        <time>2018-03-31T12:43:54Z</time>
      </trkpt>
      <trkpt lat="36.834903" lon="-4.925735">
        <ele>764.908</ele>
        <time>2018-03-31T12:43:57Z</time>
      </trkpt>
      <trkpt lat="36.834926" lon="-4.925680">
        <ele>765.589</ele>
        <time>2018-03-31T12:43:59Z</time>
      </trkpt>
      <trkpt lat="36.834931" lon="-4.925607">
        <ele>766.420</ele>
        <time>2018-03-31T12:44:01Z</time>
      </trkpt>
      <trkpt lat="36.834934" lon="-4.925529">
        <ele>767.973</ele>
        <time>2018-03-31T12:44:04Z</time>
      </trkpt>
      <trkpt lat="36.834936" lon="-4.925445">
        <ele>767.949</ele>
        <time>2018-03-31T12:44:07Z</time>
      </trkpt>
      <trkpt lat="36.834920" lon="-4.925372">
        <ele>768.028</ele>
        <time>2018-03-31T12:44:10Z</time>
      </trkpt>
      <trkpt lat="36.834926" lon="-4.925277">
        <ele>768.155</ele>
        <time>2018-03-31T12:44:13Z</time>
      </trkpt>
      <trkpt lat="36.834951" lon="-4.925206">
        <ele>767.917</ele>
        <time>2018-03-31T12:44:15Z</time>
      </trkpt>
      <trkpt lat="36.834979" lon="-4.925155">
        <ele>767.629</ele>
        <time>2018-03-31T12:44:17Z</time>
      </trkpt>
      <trkpt lat="36.835001" lon="-4.925090">
        <ele>767.227</ele>
        <time>2018-03-31T12:44:20Z</time>
      </trkpt>
      <trkpt lat="36.835017" lon="-4.925031">
        <ele>767.068</ele>
        <time>2018-03-31T12:44:25Z</time>
      </trkpt>
      <trkpt lat="36.835067" lon="-4.925003">
        <ele>766.914</ele>
        <time>2018-03-31T12:44:29Z</time>
      </trkpt>
      <trkpt lat="36.835123" lon="-4.924984">
        <ele>766.808</ele>
        <time>2018-03-31T12:44:33Z</time>
      </trkpt>
      <trkpt lat="36.835173" lon="-4.924967">
        <ele>766.744</ele>
        <time>2018-03-31T12:44:36Z</time>
      </trkpt>
      <trkpt lat="36.835233" lon="-4.924967">
        <ele>766.835</ele>
        <time>2018-03-31T12:44:39Z</time>
      </trkpt>
      <trkpt lat="36.835297" lon="-4.924977">
        <ele>766.988</ele>
        <time>2018-03-31T12:44:42Z</time>
      </trkpt>
      <trkpt lat="36.835347" lon="-4.924996">
        <ele>767.294</ele>
        <time>2018-03-31T12:44:44Z</time>
      </trkpt>
      <trkpt lat="36.835408" lon="-4.924992">
        <ele>767.943</ele>
        <time>2018-03-31T12:44:47Z</time>
      </trkpt>
      <trkpt lat="36.835460" lon="-4.924980">
        <ele>768.540</ele>
        <time>2018-03-31T12:44:50Z</time>
      </trkpt>
      <trkpt lat="36.835524" lon="-4.924976">
        <ele>769.192</ele>
        <time>2018-03-31T12:44:53Z</time>
      </trkpt>
      <trkpt lat="36.835574" lon="-4.924966">
        <ele>769.624</ele>
        <time>2018-03-31T12:44:55Z</time>
      </trkpt>
      <trkpt lat="36.835620" lon="-4.924958">
        <ele>770.072</ele>
        <time>2018-03-31T12:44:57Z</time>
      </trkpt>
      <trkpt lat="36.835675" lon="-4.924956">
        <ele>770.013</ele>
        <time>2018-03-31T12:44:59Z</time>
      </trkpt>
      <trkpt lat="36.835726" lon="-4.924951">
        <ele>770.014</ele>
        <time>2018-03-31T12:45:01Z</time>
      </trkpt>
      <trkpt lat="36.835773" lon="-4.924943">
        <ele>770.008</ele>
        <time>2018-03-31T12:45:03Z</time>
      </trkpt>
      <trkpt lat="36.835825" lon="-4.924930">
        <ele>770.049</ele>
        <time>2018-03-31T12:45:06Z</time>
      </trkpt>
      <trkpt lat="36.835874" lon="-4.924933">
        <ele>770.090</ele>
        <time>2018-03-31T12:45:10Z</time>
      </trkpt>
      <trkpt lat="36.835919" lon="-4.924929">
        <ele>770.063</ele>
        <time>2018-03-31T12:45:24Z</time>
      </trkpt>
      <trkpt lat="36.835963" lon="-4.924942">
        <ele>770.059</ele>
        <time>2018-03-31T12:45:35Z</time>
      </trkpt>
      <trkpt lat="36.836009" lon="-4.924928">
        <ele>770.098</ele>
        <time>2018-03-31T12:45:45Z</time>
      </trkpt>
      <trkpt lat="36.836018" lon="-4.924863">
        <ele>770.025</ele>
        <time>2018-03-31T12:45:53Z</time>
      </trkpt>
      <trkpt lat="36.836039" lon="-4.924805">
        <ele>770.097</ele>
        <time>2018-03-31T12:46:06Z</time>
      </trkpt>
      <trkpt lat="36.836085" lon="-4.924785">
        <ele>770.079</ele>
        <time>2018-03-31T12:46:21Z</time>
      </trkpt>
      <trkpt lat="36.836127" lon="-4.924805">
        <ele>770.033</ele>
        <time>2018-03-31T12:46:26Z</time>
      </trkpt>
      <trkpt lat="36.836175" lon="-4.924815">
        <ele>769.823</ele>
        <time>2018-03-31T12:46:33Z</time>
      </trkpt>
      <trkpt lat="36.836223" lon="-4.924844">
        <ele>769.315</ele>
        <time>2018-03-31T12:46:40Z</time>
      </trkpt>
      <trkpt lat="36.836265" lon="-4.924873">
        <ele>768.508</ele>
        <time>2018-03-31T12:46:49Z</time>
      </trkpt>
      <trkpt lat="36.836216" lon="-4.924880">
        <ele>768.835</ele>
        <time>2018-03-31T12:46:54Z</time>
      </trkpt>
      <trkpt lat="36.836171" lon="-4.924864">
        <ele>769.556</ele>
        <time>2018-03-31T12:47:03Z</time>
      </trkpt>
      <trkpt lat="36.836128" lon="-4.924837">
        <ele>770.039</ele>
        <time>2018-03-31T12:47:51Z</time>
      </trkpt>
      <trkpt lat="36.836080" lon="-4.924831">
        <ele>770.015</ele>
        <time>2018-03-31T12:48:13Z</time>
      </trkpt>
      <trkpt lat="36.836044" lon="-4.924865">
        <ele>770.044</ele>
        <time>2018-03-31T12:55:35Z</time>
      </trkpt>
      <trkpt lat="36.836041" lon="-4.924801">
        <ele>770.051</ele>
        <time>2018-03-31T12:59:25Z</time>
      </trkpt>
      <trkpt lat="36.836083" lon="-4.924755">
        <ele>770.043</ele>
        <time>2018-03-31T12:59:28Z</time>
      </trkpt>
      <trkpt lat="36.836112" lon="-4.924701">
        <ele>770.085</ele>
        <time>2018-03-31T12:59:34Z</time>
      </trkpt>
      <trkpt lat="36.836142" lon="-4.924648">
        <ele>770.078</ele>
        <time>2018-03-31T12:59:39Z</time>
      </trkpt>
      <trkpt lat="36.836136" lon="-4.924592">
        <ele>770.033</ele>
        <time>2018-03-31T12:59:51Z</time>
      </trkpt>
      <trkpt lat="36.836104" lon="-4.924549">
        <ele>769.926</ele>
        <time>2018-03-31T13:00:14Z</time>
      </trkpt>
      <trkpt lat="36.836107" lon="-4.924611">
        <ele>769.908</ele>
        <time>2018-03-31T13:00:38Z</time>
      </trkpt>
      <trkpt lat="36.836086" lon="-4.924669">
        <ele>769.919</ele>
        <time>2018-03-31T13:00:45Z</time>
      </trkpt>
      <trkpt lat="36.836066" lon="-4.924733">
        <ele>770.090</ele>
        <time>2018-03-31T13:00:48Z</time>
      </trkpt>
      <trkpt lat="36.836046" lon="-4.924788">
        <ele>770.053</ele>
        <time>2018-03-31T13:00:52Z</time>
      </trkpt>
      <trkpt lat="36.836049" lon="-4.924844">
        <ele>770.049</ele>
        <time>2018-03-31T13:01:09Z</time>
      </trkpt>
      <trkpt lat="36.836020" lon="-4.924899">
        <ele>770.088</ele>
        <time>2018-03-31T13:02:10Z</time>
      </trkpt>
      <trkpt lat="36.836079" lon="-4.924839">
        <ele>770.025</ele>
        <time>2018-03-31T13:03:35Z</time>
      </trkpt>
      <trkpt lat="36.836142" lon="-4.924802">
        <ele>770.097</ele>
        <time>2018-03-31T13:03:36Z</time>
      </trkpt>
      <trkpt lat="36.836213" lon="-4.924772">
        <ele>770.049</ele>
        <time>2018-03-31T13:03:37Z</time>
      </trkpt>
      <trkpt lat="36.836269" lon="-4.924761">
        <ele>769.846</ele>
        <time>2018-03-31T13:03:38Z</time>
      </trkpt>
      <trkpt lat="36.836322" lon="-4.924742">
        <ele>769.788</ele>
        <time>2018-03-31T13:03:39Z</time>
      </trkpt>
      <trkpt lat="36.836375" lon="-4.924718">
        <ele>769.816</ele>
        <time>2018-03-31T13:03:40Z</time>
      </trkpt>
      <trkpt lat="36.836433" lon="-4.924692">
        <ele>770.008</ele>
        <time>2018-03-31T13:03:41Z</time>
      </trkpt>
      <trkpt lat="36.836496" lon="-4.924664">
        <ele>769.686</ele>
        <time>2018-03-31T13:03:42Z</time>
      </trkpt>
      <trkpt lat="36.836551" lon="-4.924645">
        <ele>768.877</ele>
        <time>2018-03-31T13:03:43Z</time>
      </trkpt>
      <trkpt lat="36.836618" lon="-4.924622">
        <ele>768.240</ele>
        <time>2018-03-31T13:03:44Z</time>
      </trkpt>
      <trkpt lat="36.836683" lon="-4.924604">
        <ele>767.616</ele>
        <time>2018-03-31T13:03:45Z</time>
      </trkpt>
      <trkpt lat="36.836750" lon="-4.924599">
        <ele>767.125</ele>
        <time>2018-03-31T13:03:46Z</time>
      </trkpt>
      <trkpt lat="36.836813" lon="-4.924592">
        <ele>766.742</ele>
        <time>2018-03-31T13:03:47Z</time>
      </trkpt>
      <trkpt lat="36.836869" lon="-4.924595">
        <ele>766.364</ele>
        <time>2018-03-31T13:03:48Z</time>
      </trkpt>
      <trkpt lat="36.836925" lon="-4.924597">
        <ele>765.956</ele>
        <time>2018-03-31T13:03:49Z</time>
      </trkpt>
      <trkpt lat="36.836975" lon="-4.924600">
        <ele>765.787</ele>
        <time>2018-03-31T13:03:50Z</time>
      </trkpt>
      <trkpt lat="36.837043" lon="-4.924594">
        <ele>765.542</ele>
        <time>2018-03-31T13:03:52Z</time>
      </trkpt>
      <trkpt lat="36.837115" lon="-4.924582">
        <ele>765.626</ele>
        <time>2018-03-31T13:03:54Z</time>
      </trkpt>
      <trkpt lat="36.837182" lon="-4.924564">
        <ele>766.208</ele>
        <time>2018-03-31T13:03:57Z</time>
      </trkpt>
      <trkpt lat="36.837233" lon="-4.924554">
        <ele>766.780</ele>
        <time>2018-03-31T13:03:59Z</time>
      </trkpt>
      <trkpt lat="36.837305" lon="-4.924545">
        <ele>767.351</ele>
        <time>2018-03-31T13:04:02Z</time>
      </trkpt>
      <trkpt lat="36.837357" lon="-4.924515">
        <ele>767.624</ele>
        <time>2018-03-31T13:04:04Z</time>
      </trkpt>
      <trkpt lat="36.837405" lon="-4.924494">
        <ele>768.130</ele>
        <time>2018-03-31T13:04:06Z</time>
      </trkpt>
      <trkpt lat="36.837463" lon="-4.924458">
        <ele>768.979</ele>
        <time>2018-03-31T13:04:09Z</time>
      </trkpt>
      <trkpt lat="36.837527" lon="-4.924424">
        <ele>769.666</ele>
        <time>2018-03-31T13:04:12Z</time>
      </trkpt>
      <trkpt lat="36.837585" lon="-4.924406">
        <ele>769.958</ele>
        <time>2018-03-31T13:04:14Z</time>
      </trkpt>
      <trkpt lat="36.837644" lon="-4.924374">
        <ele>769.920</ele>
        <time>2018-03-31T13:04:16Z</time>
      </trkpt>
      <trkpt lat="36.837696" lon="-4.924341">
        <ele>769.995</ele>
        <time>2018-03-31T13:04:18Z</time>
      </trkpt>
      <trkpt lat="36.837744" lon="-4.924316">
        <ele>770.049</ele>
        <time>2018-03-31T13:04:20Z</time>
      </trkpt>
      <trkpt lat="36.837798" lon="-4.924288">
        <ele>770.123</ele>
        <time>2018-03-31T13:04:22Z</time>
      </trkpt>
      <trkpt lat="36.837856" lon="-4.924262">
        <ele>770.308</ele>
        <time>2018-03-31T13:04:24Z</time>
      </trkpt>
      <trkpt lat="36.837915" lon="-4.924251">
        <ele>770.361</ele>
        <time>2018-03-31T13:04:26Z</time>
      </trkpt>
      <trkpt lat="36.837967" lon="-4.924251">
        <ele>770.182</ele>
        <time>2018-03-31T13:04:28Z</time>
      </trkpt>
      <trkpt lat="36.838033" lon="-4.924250">
        <ele>769.765</ele>
        <time>2018-03-31T13:04:30Z</time>
      </trkpt>
      <trkpt lat="36.838098" lon="-4.924227">
        <ele>769.261</ele>
        <time>2018-03-31T13:04:32Z</time>
      </trkpt>
      <trkpt lat="36.838152" lon="-4.924209">
        <ele>768.690</ele>
        <time>2018-03-31T13:04:34Z</time>
      </trkpt>
      <trkpt lat="36.838216" lon="-4.924177">
        <ele>768.077</ele>
        <time>2018-03-31T13:04:36Z</time>
      </trkpt>
      <trkpt lat="36.838274" lon="-4.924153">
        <ele>767.399</ele>
        <time>2018-03-31T13:04:38Z</time>
      </trkpt>
      <trkpt lat="36.838337" lon="-4.924109">
        <ele>766.641</ele>
        <time>2018-03-31T13:04:40Z</time>
      </trkpt>
      <trkpt lat="36.838412" lon="-4.924069">
        <ele>766.164</ele>
        <time>2018-03-31T13:04:42Z</time>
      </trkpt>
      <trkpt lat="36.838480" lon="-4.924035">
        <ele>766.206</ele>
        <time>2018-03-31T13:04:44Z</time>
      </trkpt>
      <trkpt lat="36.838552" lon="-4.924004">
        <ele>766.616</ele>
        <time>2018-03-31T13:04:46Z</time>
      </trkpt>
      <trkpt lat="36.838623" lon="-4.923970">
        <ele>767.008</ele>
        <time>2018-03-31T13:04:48Z</time>
      </trkpt>
      <trkpt lat="36.838693" lon="-4.923949">
        <ele>767.498</ele>
        <time>2018-03-31T13:04:50Z</time>
      </trkpt>
      <trkpt lat="36.838759" lon="-4.923897">
        <ele>767.719</ele>
        <time>2018-03-31T13:04:52Z</time>
      </trkpt>
      <trkpt lat="36.838836" lon="-4.923851">
        <ele>767.652</ele>
        <time>2018-03-31T13:04:54Z</time>
      </trkpt>
      <trkpt lat="36.838907" lon="-4.923820">
        <ele>766.448</ele>
        <time>2018-03-31T13:04:56Z</time>
      </trkpt>
      <trkpt lat="36.838975" lon="-4.923799">
        <ele>766.217</ele>
        <time>2018-03-31T13:04:58Z</time>
      </trkpt>
      <trkpt lat="36.839060" lon="-4.923764">
        <ele>765.644</ele>
        <time>2018-03-31T13:05:00Z</time>
      </trkpt>
      <trkpt lat="36.839104" lon="-4.923739">
        <ele>765.176</ele>
        <time>2018-03-31T13:05:01Z</time>
      </trkpt>
      <trkpt lat="36.839155" lon="-4.923715">
        <ele>764.378</ele>
        <time>2018-03-31T13:05:02Z</time>
      </trkpt>
      <trkpt lat="36.839242" lon="-4.923682">
        <ele>763.121</ele>
        <time>2018-03-31T13:05:04Z</time>
      </trkpt>
      <trkpt lat="36.839317" lon="-4.923654">
        <ele>762.241</ele>
        <time>2018-03-31T13:05:06Z</time>
      </trkpt>
      <trkpt lat="36.839394" lon="-4.923639">
        <ele>760.605</ele>
        <time>2018-03-31T13:05:08Z</time>
      </trkpt>
      <trkpt lat="36.839443" lon="-4.923621">
        <ele>759.908</ele>
        <time>2018-03-31T13:05:09Z</time>
      </trkpt>
      <trkpt lat="36.839489" lon="-4.923605">
        <ele>759.574</ele>
        <time>2018-03-31T13:05:10Z</time>
      </trkpt>
      <trkpt lat="36.839533" lon="-4.923588">
        <ele>759.155</ele>
        <time>2018-03-31T13:05:11Z</time>
      </trkpt>
      <trkpt lat="36.839619" lon="-4.923561">
        <ele>757.998</ele>
        <time>2018-03-31T13:05:13Z</time>
      </trkpt>
      <trkpt lat="36.839666" lon="-4.923546">
        <ele>757.094</ele>
        <time>2018-03-31T13:05:14Z</time>
      </trkpt>
      <trkpt lat="36.839747" lon="-4.923510">
        <ele>754.683</ele>
        <time>2018-03-31T13:05:16Z</time>
      </trkpt>
      <trkpt lat="36.839838" lon="-4.923476">
        <ele>752.550</ele>
        <time>2018-03-31T13:05:18Z</time>
      </trkpt>
      <trkpt lat="36.839882" lon="-4.923455">
        <ele>751.312</ele>
        <time>2018-03-31T13:05:19Z</time>
      </trkpt>
      <trkpt lat="36.839964" lon="-4.923415">
        <ele>749.414</ele>
        <time>2018-03-31T13:05:21Z</time>
      </trkpt>
      <trkpt lat="36.840048" lon="-4.923383">
        <ele>748.057</ele>
        <time>2018-03-31T13:05:23Z</time>
      </trkpt>
      <trkpt lat="36.840134" lon="-4.923346">
        <ele>747.800</ele>
        <time>2018-03-31T13:05:25Z</time>
      </trkpt>
      <trkpt lat="36.840176" lon="-4.923320">
        <ele>747.920</ele>
        <time>2018-03-31T13:05:26Z</time>
      </trkpt>
      <trkpt lat="36.840220" lon="-4.923303">
        <ele>747.708</ele>
        <time>2018-03-31T13:05:27Z</time>
      </trkpt>
      <trkpt lat="36.840289" lon="-4.923259">
        <ele>745.987</ele>
        <time>2018-03-31T13:05:29Z</time>
      </trkpt>
      <trkpt lat="36.840362" lon="-4.923214">
        <ele>743.278</ele>
        <time>2018-03-31T13:05:31Z</time>
      </trkpt>
      <trkpt lat="36.840442" lon="-4.923187">
        <ele>741.371</ele>
        <time>2018-03-31T13:05:33Z</time>
      </trkpt>
      <trkpt lat="36.840516" lon="-4.923171">
        <ele>740.637</ele>
        <time>2018-03-31T13:05:35Z</time>
      </trkpt>
      <trkpt lat="36.840597" lon="-4.923160">
        <ele>740.096</ele>
        <time>2018-03-31T13:05:37Z</time>
      </trkpt>
      <trkpt lat="36.840656" lon="-4.923128">
        <ele>738.883</ele>
        <time>2018-03-31T13:05:39Z</time>
      </trkpt>
      <trkpt lat="36.840715" lon="-4.923075">
        <ele>737.175</ele>
        <time>2018-03-31T13:05:42Z</time>
      </trkpt>
      <trkpt lat="36.840770" lon="-4.923032">
        <ele>737.177</ele>
        <time>2018-03-31T13:05:44Z</time>
      </trkpt>
      <trkpt lat="36.840840" lon="-4.922987">
        <ele>737.512</ele>
        <time>2018-03-31T13:05:46Z</time>
      </trkpt>
      <trkpt lat="36.840880" lon="-4.922954">
        <ele>737.332</ele>
        <time>2018-03-31T13:05:47Z</time>
      </trkpt>
      <trkpt lat="36.840943" lon="-4.922907">
        <ele>737.005</ele>
        <time>2018-03-31T13:05:49Z</time>
      </trkpt>
      <trkpt lat="36.841008" lon="-4.922852">
        <ele>735.808</ele>
        <time>2018-03-31T13:05:51Z</time>
      </trkpt>
      <trkpt lat="36.841065" lon="-4.922799">
        <ele>733.913</ele>
        <time>2018-03-31T13:05:53Z</time>
      </trkpt>
      <trkpt lat="36.841106" lon="-4.922758">
        <ele>733.014</ele>
        <time>2018-03-31T13:05:55Z</time>
      </trkpt>
      <trkpt lat="36.841165" lon="-4.922711">
        <ele>732.127</ele>
        <time>2018-03-31T13:05:57Z</time>
      </trkpt>
      <trkpt lat="36.841234" lon="-4.922657">
        <ele>730.473</ele>
        <time>2018-03-31T13:05:59Z</time>
      </trkpt>
      <trkpt lat="36.841306" lon="-4.922616">
        <ele>728.172</ele>
        <time>2018-03-31T13:06:01Z</time>
      </trkpt>
      <trkpt lat="36.841349" lon="-4.922594">
        <ele>726.849</ele>
        <time>2018-03-31T13:06:02Z</time>
      </trkpt>
      <trkpt lat="36.841391" lon="-4.922572">
        <ele>725.571</ele>
        <time>2018-03-31T13:06:03Z</time>
      </trkpt>
      <trkpt lat="36.841462" lon="-4.922537">
        <ele>724.213</ele>
        <time>2018-03-31T13:06:05Z</time>
      </trkpt>
      <trkpt lat="36.841528" lon="-4.922499">
        <ele>723.126</ele>
        <time>2018-03-31T13:06:07Z</time>
      </trkpt>
      <trkpt lat="36.841603" lon="-4.922456">
        <ele>721.547</ele>
        <time>2018-03-31T13:06:09Z</time>
      </trkpt>
      <trkpt lat="36.841648" lon="-4.922435">
        <ele>720.611</ele>
        <time>2018-03-31T13:06:10Z</time>
      </trkpt>
      <trkpt lat="36.841703" lon="-4.922420">
        <ele>719.608</ele>
        <time>2018-03-31T13:06:11Z</time>
      </trkpt>
      <trkpt lat="36.841762" lon="-4.922411">
        <ele>718.994</ele>
        <time>2018-03-31T13:06:12Z</time>
      </trkpt>
      <trkpt lat="36.841813" lon="-4.922394">
        <ele>718.555</ele>
        <time>2018-03-31T13:06:13Z</time>
      </trkpt>
      <trkpt lat="36.841870" lon="-4.922369">
        <ele>718.338</ele>
        <time>2018-03-31T13:06:14Z</time>
      </trkpt>
      <trkpt lat="36.841923" lon="-4.922350">
        <ele>717.864</ele>
        <time>2018-03-31T13:06:15Z</time>
      </trkpt>
      <trkpt lat="36.841983" lon="-4.922325">
        <ele>717.023</ele>
        <time>2018-03-31T13:06:16Z</time>
      </trkpt>
      <trkpt lat="36.842044" lon="-4.922301">
        <ele>716.290</ele>
        <time>2018-03-31T13:06:17Z</time>
      </trkpt>
      <trkpt lat="36.842106" lon="-4.922269">
        <ele>715.332</ele>
        <time>2018-03-31T13:06:18Z</time>
      </trkpt>
      <trkpt lat="36.842181" lon="-4.922236">
        <ele>714.324</ele>
        <time>2018-03-31T13:06:19Z</time>
      </trkpt>
      <trkpt lat="36.842242" lon="-4.922203">
        <ele>713.468</ele>
        <time>2018-03-31T13:06:20Z</time>
      </trkpt>
      <trkpt lat="36.842303" lon="-4.922168">
        <ele>712.842</ele>
        <time>2018-03-31T13:06:21Z</time>
      </trkpt>
      <trkpt lat="36.842363" lon="-4.922130">
        <ele>712.226</ele>
        <time>2018-03-31T13:06:22Z</time>
      </trkpt>
      <trkpt lat="36.842420" lon="-4.922089">
        <ele>711.408</ele>
        <time>2018-03-31T13:06:23Z</time>
      </trkpt>
      <trkpt lat="36.842468" lon="-4.922055">
        <ele>710.758</ele>
        <time>2018-03-31T13:06:24Z</time>
      </trkpt>
      <trkpt lat="36.842512" lon="-4.922027">
        <ele>710.059</ele>
        <time>2018-03-31T13:06:25Z</time>
      </trkpt>
      <trkpt lat="36.842562" lon="-4.922002">
        <ele>709.522</ele>
        <time>2018-03-31T13:06:26Z</time>
      </trkpt>
      <trkpt lat="36.842613" lon="-4.921976">
        <ele>709.078</ele>
        <time>2018-03-31T13:06:27Z</time>
      </trkpt>
      <trkpt lat="36.842665" lon="-4.921955">
        <ele>708.657</ele>
        <time>2018-03-31T13:06:28Z</time>
      </trkpt>
      <trkpt lat="36.842715" lon="-4.921932">
        <ele>708.374</ele>
        <time>2018-03-31T13:06:29Z</time>
      </trkpt>
      <trkpt lat="36.842765" lon="-4.921908">
        <ele>708.296</ele>
        <time>2018-03-31T13:06:30Z</time>
      </trkpt>
      <trkpt lat="36.842815" lon="-4.921879">
        <ele>708.178</ele>
        <time>2018-03-31T13:06:31Z</time>
      </trkpt>
      <trkpt lat="36.842857" lon="-4.921841">
        <ele>708.015</ele>
        <time>2018-03-31T13:06:32Z</time>
      </trkpt>
      <trkpt lat="36.842914" lon="-4.921780">
        <ele>707.965</ele>
        <time>2018-03-31T13:06:34Z</time>
      </trkpt>
      <trkpt lat="36.842967" lon="-4.921727">
        <ele>708.111</ele>
        <time>2018-03-31T13:06:36Z</time>
      </trkpt>
      <trkpt lat="36.843019" lon="-4.921665">
        <ele>708.608</ele>
        <time>2018-03-31T13:06:38Z</time>
      </trkpt>
      <trkpt lat="36.843062" lon="-4.921620">
        <ele>709.463</ele>
        <time>2018-03-31T13:06:41Z</time>
      </trkpt>
      <trkpt lat="36.843113" lon="-4.921577">
        <ele>709.784</ele>
        <time>2018-03-31T13:06:44Z</time>
      </trkpt>
      <trkpt lat="36.843159" lon="-4.921528">
        <ele>710.217</ele>
        <time>2018-03-31T13:06:46Z</time>
      </trkpt>
      <trkpt lat="36.843208" lon="-4.921504">
        <ele>710.823</ele>
        <time>2018-03-31T13:06:49Z</time>
      </trkpt>
      <trkpt lat="36.843261" lon="-4.921524">
        <ele>704.912</ele>
        <time>2018-03-31T13:07:01Z</time>
      </trkpt>
      <trkpt lat="36.843247" lon="-4.921463">
        <ele>703.919</ele>
        <time>2018-03-31T13:07:10Z</time>
      </trkpt>
      <trkpt lat="36.843301" lon="-4.921452">
        <ele>704.341</ele>
        <time>2018-03-31T13:08:12Z</time>
      </trkpt>
      <trkpt lat="36.843343" lon="-4.921483">
        <ele>704.823</ele>
        <time>2018-03-31T13:08:15Z</time>
      </trkpt>
      <trkpt lat="36.843424" lon="-4.921503">
        <ele>704.743</ele>
        <time>2018-03-31T13:08:18Z</time>
      </trkpt>
      <trkpt lat="36.843494" lon="-4.921506">
        <ele>703.464</ele>
        <time>2018-03-31T13:08:20Z</time>
      </trkpt>
      <trkpt lat="36.843576" lon="-4.921525">
        <ele>702.210</ele>
        <time>2018-03-31T13:08:22Z</time>
      </trkpt>
      <trkpt lat="36.843655" lon="-4.921569">
        <ele>701.108</ele>
        <time>2018-03-31T13:08:24Z</time>
      </trkpt>
      <trkpt lat="36.843698" lon="-4.921598">
        <ele>700.776</ele>
        <time>2018-03-31T13:08:25Z</time>
      </trkpt>
      <trkpt lat="36.843746" lon="-4.921631">
        <ele>700.137</ele>
        <time>2018-03-31T13:08:26Z</time>
      </trkpt>
      <trkpt lat="36.843794" lon="-4.921661">
        <ele>699.440</ele>
        <time>2018-03-31T13:08:27Z</time>
      </trkpt>
      <trkpt lat="36.843870" lon="-4.921741">
        <ele>698.516</ele>
        <time>2018-03-31T13:08:29Z</time>
      </trkpt>
      <trkpt lat="36.843904" lon="-4.921785">
        <ele>698.575</ele>
        <time>2018-03-31T13:08:30Z</time>
      </trkpt>
      <trkpt lat="36.843923" lon="-4.921836">
        <ele>698.622</ele>
        <time>2018-03-31T13:08:31Z</time>
      </trkpt>
      <trkpt lat="36.843941" lon="-4.921902">
        <ele>698.954</ele>
        <time>2018-03-31T13:08:32Z</time>
      </trkpt>
      <trkpt lat="36.843968" lon="-4.921956">
        <ele>699.436</ele>
        <time>2018-03-31T13:08:33Z</time>
      </trkpt>
      <trkpt lat="36.844034" lon="-4.922001">
        <ele>699.899</ele>
        <time>2018-03-31T13:08:35Z</time>
      </trkpt>
      <trkpt lat="36.844098" lon="-4.922004">
        <ele>699.107</ele>
        <time>2018-03-31T13:08:37Z</time>
      </trkpt>
      <trkpt lat="36.844122" lon="-4.921943">
        <ele>696.727</ele>
        <time>2018-03-31T13:08:41Z</time>
      </trkpt>
      <trkpt lat="36.844102" lon="-4.921872">
        <ele>695.908</ele>
        <time>2018-03-31T13:08:43Z</time>
      </trkpt>
      <trkpt lat="36.844073" lon="-4.921772">
        <ele>695.311</ele>
        <time>2018-03-31T13:08:45Z</time>
      </trkpt>
      <trkpt lat="36.844058" lon="-4.921715">
        <ele>695.072</ele>
        <time>2018-03-31T13:08:46Z</time>
      </trkpt>
      <trkpt lat="36.844049" lon="-4.921655">
        <ele>694.615</ele>
        <time>2018-03-31T13:08:47Z</time>
      </trkpt>
      <trkpt lat="36.844041" lon="-4.921557">
        <ele>693.631</ele>
        <time>2018-03-31T13:08:49Z</time>
      </trkpt>
      <trkpt lat="36.844061" lon="-4.921481">
        <ele>692.660</ele>
        <time>2018-03-31T13:08:51Z</time>
      </trkpt>
      <trkpt lat="36.844113" lon="-4.921387">
        <ele>691.477</ele>
        <time>2018-03-31T13:08:53Z</time>
      </trkpt>
      <trkpt lat="36.844145" lon="-4.921324">
        <ele>694.179</ele>
        <time>2018-03-31T13:08:54Z</time>
      </trkpt>
      <trkpt lat="36.844164" lon="-4.921264">
        <ele>696.491</ele>
        <time>2018-03-31T13:08:55Z</time>
      </trkpt>
      <trkpt lat="36.844223" lon="-4.921159">
        <ele>700.042</ele>
        <time>2018-03-31T13:08:57Z</time>
      </trkpt>
      <trkpt lat="36.844267" lon="-4.921059">
        <ele>702.222</ele>
        <time>2018-03-31T13:08:59Z</time>
      </trkpt>
      <trkpt lat="36.844311" lon="-4.920972">
        <ele>684.114</ele>
        <time>2018-03-31T13:09:01Z</time>
      </trkpt>
      <trkpt lat="36.844336" lon="-4.920922">
        <ele>683.208</ele>
        <time>2018-03-31T13:09:02Z</time>
      </trkpt>
      <trkpt lat="36.844363" lon="-4.920833">
        <ele>682.016</ele>
        <time>2018-03-31T13:09:04Z</time>
      </trkpt>
      <trkpt lat="36.844381" lon="-4.920769">
        <ele>681.127</ele>
        <time>2018-03-31T13:09:06Z</time>
      </trkpt>
      <trkpt lat="36.844371" lon="-4.920700">
        <ele>680.270</ele>
        <time>2018-03-31T13:09:08Z</time>
      </trkpt>
      <trkpt lat="36.844348" lon="-4.920632">
        <ele>678.846</ele>
        <time>2018-03-31T13:09:11Z</time>
      </trkpt>
      <trkpt lat="36.844317" lon="-4.920583">
        <ele>677.235</ele>
        <time>2018-03-31T13:09:15Z</time>
      </trkpt>
      <trkpt lat="36.844230" lon="-4.920575">
        <ele>676.682</ele>
        <time>2018-03-31T13:09:17Z</time>
      </trkpt>
      <trkpt lat="36.844229" lon="-4.920518">
        <ele>674.894</ele>
        <time>2018-03-31T13:09:24Z</time>
      </trkpt>
      <trkpt lat="36.844284" lon="-4.920495">
        <ele>674.366</ele>
        <time>2018-03-31T13:09:26Z</time>
      </trkpt>
      <trkpt lat="36.844340" lon="-4.920465">
        <ele>674.054</ele>
        <time>2018-03-31T13:09:29Z</time>
      </trkpt>
      <trkpt lat="36.844384" lon="-4.920428">
        <ele>673.856</ele>
        <time>2018-03-31T13:09:32Z</time>
      </trkpt>
      <trkpt lat="36.844435" lon="-4.920430">
        <ele>673.611</ele>
        <time>2018-03-31T13:09:34Z</time>
      </trkpt>
      <trkpt lat="36.844471" lon="-4.920390">
        <ele>673.908</ele>
        <time>2018-03-31T13:09:39Z</time>
      </trkpt>
      <trkpt lat="36.844528" lon="-4.920361">
        <ele>673.587</ele>
        <time>2018-03-31T13:09:47Z</time>
      </trkpt>
      <trkpt lat="36.844564" lon="-4.920312">
        <ele>672.898</ele>
        <time>2018-03-31T13:09:51Z</time>
      </trkpt>
      <trkpt lat="36.844590" lon="-4.920240">
        <ele>671.741</ele>
        <time>2018-03-31T13:09:54Z</time>
      </trkpt>
      <trkpt lat="36.844634" lon="-4.920206">
        <ele>670.637</ele>
        <time>2018-03-31T13:09:56Z</time>
      </trkpt>
      <trkpt lat="36.844678" lon="-4.920186">
        <ele>669.886</ele>
        <time>2018-03-31T13:09:58Z</time>
      </trkpt>
      <trkpt lat="36.844719" lon="-4.920161">
        <ele>669.293</ele>
        <time>2018-03-31T13:10:00Z</time>
      </trkpt>
      <trkpt lat="36.844762" lon="-4.920126">
        <ele>668.575</ele>
        <time>2018-03-31T13:10:03Z</time>
      </trkpt>
      <trkpt lat="36.844785" lon="-4.920053">
        <ele>667.957</ele>
        <time>2018-03-31T13:10:06Z</time>
      </trkpt>
      <trkpt lat="36.844835" lon="-4.920017">
        <ele>666.176</ele>
        <time>2018-03-31T13:10:49Z</time>
      </trkpt>
      <trkpt lat="36.844888" lon="-4.919988">
        <ele>666.290</ele>
        <time>2018-03-31T13:10:51Z</time>
      </trkpt>
      <trkpt lat="36.844938" lon="-4.919960">
        <ele>666.019</ele>
        <time>2018-03-31T13:10:52Z</time>
      </trkpt>
      <trkpt lat="36.844982" lon="-4.919948">
        <ele>665.608</ele>
        <time>2018-03-31T13:10:53Z</time>
      </trkpt>
      <trkpt lat="36.845026" lon="-4.919929">
        <ele>665.679</ele>
        <time>2018-03-31T13:10:54Z</time>
      </trkpt>
      <trkpt lat="36.845072" lon="-4.919909">
        <ele>665.510</ele>
        <time>2018-03-31T13:10:55Z</time>
      </trkpt>
      <trkpt lat="36.845112" lon="-4.919881">
        <ele>664.833</ele>
        <time>2018-03-31T13:10:56Z</time>
      </trkpt>
      <trkpt lat="36.845195" lon="-4.919826">
        <ele>663.259</ele>
        <time>2018-03-31T13:10:58Z</time>
      </trkpt>
      <trkpt lat="36.845237" lon="-4.919806">
        <ele>662.758</ele>
        <time>2018-03-31T13:10:59Z</time>
      </trkpt>
      <trkpt lat="36.845285" lon="-4.919788">
        <ele>662.455</ele>
        <time>2018-03-31T13:11:00Z</time>
      </trkpt>
      <trkpt lat="36.845330" lon="-4.919762">
        <ele>662.497</ele>
        <time>2018-03-31T13:11:01Z</time>
      </trkpt>
      <trkpt lat="36.845376" lon="-4.919729">
        <ele>662.049</ele>
        <time>2018-03-31T13:11:02Z</time>
      </trkpt>
      <trkpt lat="36.845420" lon="-4.919695">
        <ele>661.274</ele>
        <time>2018-03-31T13:11:03Z</time>
      </trkpt>
      <trkpt lat="36.845464" lon="-4.919668">
        <ele>660.056</ele>
        <time>2018-03-31T13:11:04Z</time>
      </trkpt>
      <trkpt lat="36.845507" lon="-4.919638">
        <ele>659.421</ele>
        <time>2018-03-31T13:11:05Z</time>
      </trkpt>
      <trkpt lat="36.845551" lon="-4.919617">
        <ele>658.908</ele>
        <time>2018-03-31T13:11:06Z</time>
      </trkpt>
      <trkpt lat="36.845598" lon="-4.919603">
        <ele>658.519</ele>
        <time>2018-03-31T13:11:07Z</time>
      </trkpt>
      <trkpt lat="36.845646" lon="-4.919589">
        <ele>658.190</ele>
        <time>2018-03-31T13:11:08Z</time>
      </trkpt>
      <trkpt lat="36.845721" lon="-4.919580">
        <ele>656.993</ele>
        <time>2018-03-31T13:11:10Z</time>
      </trkpt>
      <trkpt lat="36.845769" lon="-4.919605">
        <ele>655.889</ele>
        <time>2018-03-31T13:11:12Z</time>
      </trkpt>
      <trkpt lat="36.845779" lon="-4.919666">
        <ele>655.048</ele>
        <time>2018-03-31T13:11:14Z</time>
      </trkpt>
      <trkpt lat="36.845769" lon="-4.919762">
        <ele>654.755</ele>
        <time>2018-03-31T13:11:16Z</time>
      </trkpt>
      <trkpt lat="36.845756" lon="-4.919868">
        <ele>654.817</ele>
        <time>2018-03-31T13:11:18Z</time>
      </trkpt>
      <trkpt lat="36.845747" lon="-4.919966">
        <ele>655.069</ele>
        <time>2018-03-31T13:11:20Z</time>
      </trkpt>
      <trkpt lat="36.845732" lon="-4.920079">
        <ele>655.253</ele>
        <time>2018-03-31T13:11:22Z</time>
      </trkpt>
      <trkpt lat="36.845721" lon="-4.920188">
        <ele>655.204</ele>
        <time>2018-03-31T13:11:24Z</time>
      </trkpt>
      <trkpt lat="36.845713" lon="-4.920290">
        <ele>655.014</ele>
        <time>2018-03-31T13:11:26Z</time>
      </trkpt>
      <trkpt lat="36.845707" lon="-4.920346">
        <ele>654.908</ele>
        <time>2018-03-31T13:11:27Z</time>
      </trkpt>
      <trkpt lat="36.845702" lon="-4.920439">
        <ele>654.987</ele>
        <time>2018-03-31T13:11:29Z</time>
      </trkpt>
      <trkpt lat="36.845714" lon="-4.920513">
        <ele>655.018</ele>
        <time>2018-03-31T13:11:31Z</time>
      </trkpt>
      <trkpt lat="36.845735" lon="-4.920606">
        <ele>654.721</ele>
        <time>2018-03-31T13:11:33Z</time>
      </trkpt>
      <trkpt lat="36.845758" lon="-4.920706">
        <ele>653.847</ele>
        <time>2018-03-31T13:11:35Z</time>
      </trkpt>
      <trkpt lat="36.845777" lon="-4.920803">
        <ele>652.426</ele>
        <time>2018-03-31T13:11:37Z</time>
      </trkpt>
      <trkpt lat="36.845765" lon="-4.920902">
        <ele>651.023</ele>
        <time>2018-03-31T13:11:39Z</time>
      </trkpt>
      <trkpt lat="36.845747" lon="-4.920956">
        <ele>650.625</ele>
        <time>2018-03-31T13:11:40Z</time>
      </trkpt>
      <trkpt lat="36.845713" lon="-4.921022">
        <ele>650.327</ele>
        <time>2018-03-31T13:11:42Z</time>
      </trkpt>
      <trkpt lat="36.845664" lon="-4.921105">
        <ele>650.542</ele>
        <time>2018-03-31T13:11:44Z</time>
      </trkpt>
      <trkpt lat="36.845637" lon="-4.921189">
        <ele>651.022</ele>
        <time>2018-03-31T13:11:46Z</time>
      </trkpt>
      <trkpt lat="36.845674" lon="-4.921230">
        <ele>651.314</ele>
        <time>2018-03-31T13:11:47Z</time>
      </trkpt>
      <trkpt lat="36.845725" lon="-4.921277">
        <ele>651.508</ele>
        <time>2018-03-31T13:11:49Z</time>
      </trkpt>
      <trkpt lat="36.845801" lon="-4.921259">
        <ele>651.456</ele>
        <time>2018-03-31T13:11:51Z</time>
      </trkpt>
      <trkpt lat="36.845859" lon="-4.921232">
        <ele>651.257</ele>
        <time>2018-03-31T13:11:52Z</time>
      </trkpt>
      <trkpt lat="36.845917" lon="-4.921217">
        <ele>650.720</ele>
        <time>2018-03-31T13:11:53Z</time>
      </trkpt>
      <trkpt lat="36.845969" lon="-4.921194">
        <ele>650.346</ele>
        <time>2018-03-31T13:11:54Z</time>
      </trkpt>
      <trkpt lat="36.846027" lon="-4.921163">
        <ele>649.985</ele>
        <time>2018-03-31T13:11:55Z</time>
      </trkpt>
      <trkpt lat="36.846091" lon="-4.921122">
        <ele>649.462</ele>
        <time>2018-03-31T13:11:56Z</time>
      </trkpt>
      <trkpt lat="36.846142" lon="-4.921083">
        <ele>648.724</ele>
        <time>2018-03-31T13:11:57Z</time>
      </trkpt>
      <trkpt lat="36.846181" lon="-4.921048">
        <ele>648.016</ele>
        <time>2018-03-31T13:11:58Z</time>
      </trkpt>
      <trkpt lat="36.846235" lon="-4.920991">
        <ele>647.066</ele>
        <time>2018-03-31T13:12:00Z</time>
      </trkpt>
      <trkpt lat="36.846299" lon="-4.920939">
        <ele>646.129</ele>
        <time>2018-03-31T13:12:02Z</time>
      </trkpt>
      <trkpt lat="36.846367" lon="-4.920881">
        <ele>645.021</ele>
        <time>2018-03-31T13:12:04Z</time>
      </trkpt>
      <trkpt lat="36.846436" lon="-4.920817">
        <ele>643.408</ele>
        <time>2018-03-31T13:12:06Z</time>
      </trkpt>
      <trkpt lat="36.846481" lon="-4.920791">
        <ele>642.518</ele>
        <time>2018-03-31T13:12:07Z</time>
      </trkpt>
      <trkpt lat="36.846530" lon="-4.920778">
        <ele>641.699</ele>
        <time>2018-03-31T13:12:08Z</time>
      </trkpt>
      <trkpt lat="36.846577" lon="-4.920777">
        <ele>640.882</ele>
        <time>2018-03-31T13:12:09Z</time>
      </trkpt>
      <trkpt lat="36.846650" lon="-4.920765">
        <ele>639.498</ele>
        <time>2018-03-31T13:12:11Z</time>
      </trkpt>
      <trkpt lat="36.846713" lon="-4.920732">
        <ele>638.237</ele>
        <time>2018-03-31T13:12:13Z</time>
      </trkpt>
      <trkpt lat="36.846777" lon="-4.920706">
        <ele>636.974</ele>
        <time>2018-03-31T13:12:15Z</time>
      </trkpt>
      <trkpt lat="36.846865" lon="-4.920646">
        <ele>635.356</ele>
        <time>2018-03-31T13:12:17Z</time>
      </trkpt>
      <trkpt lat="36.846916" lon="-4.920600">
        <ele>637.328</ele>
        <time>2018-03-31T13:12:18Z</time>
      </trkpt>
      <trkpt lat="36.846975" lon="-4.920539">
        <ele>638.936</ele>
        <time>2018-03-31T13:12:19Z</time>
      </trkpt>
      <trkpt lat="36.847032" lon="-4.920477">
        <ele>640.117</ele>
        <time>2018-03-31T13:12:20Z</time>
      </trkpt>
      <trkpt lat="36.847084" lon="-4.920427">
        <ele>641.018</ele>
        <time>2018-03-31T13:12:21Z</time>
      </trkpt>
      <trkpt lat="36.847135" lon="-4.920361">
        <ele>630.608</ele>
        <time>2018-03-31T13:12:22Z</time>
      </trkpt>
      <trkpt lat="36.847191" lon="-4.920297">
        <ele>628.515</ele>
        <time>2018-03-31T13:12:23Z</time>
      </trkpt>
      <trkpt lat="36.847239" lon="-4.920246">
        <ele>627.676</ele>
        <time>2018-03-31T13:12:24Z</time>
      </trkpt>
      <trkpt lat="36.847277" lon="-4.920185">
        <ele>626.969</ele>
        <time>2018-03-31T13:12:25Z</time>
      </trkpt>
      <trkpt lat="36.847313" lon="-4.920124">
        <ele>626.445</ele>
        <time>2018-03-31T13:12:26Z</time>
      </trkpt>
      <trkpt lat="36.847341" lon="-4.920071">
        <ele>626.124</ele>
        <time>2018-03-31T13:12:27Z</time>
      </trkpt>
      <trkpt lat="36.847365" lon="-4.920023">
        <ele>626.061</ele>
        <time>2018-03-31T13:12:28Z</time>
      </trkpt>
      <trkpt lat="36.847389" lon="-4.919961">
        <ele>626.123</ele>
        <time>2018-03-31T13:12:29Z</time>
      </trkpt>
      <trkpt lat="36.847411" lon="-4.919894">
        <ele>626.345</ele>
        <time>2018-03-31T13:12:30Z</time>
      </trkpt>
      <trkpt lat="36.847430" lon="-4.919825">
        <ele>626.532</ele>
        <time>2018-03-31T13:12:31Z</time>
      </trkpt>
      <trkpt lat="36.847446" lon="-4.919749">
        <ele>626.792</ele>
        <time>2018-03-31T13:12:32Z</time>
      </trkpt>
      <trkpt lat="36.847452" lon="-4.919682">
        <ele>626.911</ele>
        <time>2018-03-31T13:12:33Z</time>
      </trkpt>
      <trkpt lat="36.847452" lon="-4.919616">
        <ele>627.008</ele>
        <time>2018-03-31T13:12:34Z</time>
      </trkpt>
      <trkpt lat="36.847454" lon="-4.919526">
        <ele>626.875</ele>
        <time>2018-03-31T13:12:36Z</time>
      </trkpt>
      <trkpt lat="36.847455" lon="-4.919467">
        <ele>626.586</ele>
        <time>2018-03-31T13:12:38Z</time>
      </trkpt>
      <trkpt lat="36.847454" lon="-4.919410">
        <ele>626.169</ele>
        <time>2018-03-31T13:12:40Z</time>
      </trkpt>
      <trkpt lat="36.847466" lon="-4.919332">
        <ele>624.885</ele>
        <time>2018-03-31T13:12:43Z</time>
      </trkpt>
      <trkpt lat="36.847499" lon="-4.919265">
        <ele>623.754</ele>
        <time>2018-03-31T13:12:45Z</time>
      </trkpt>
      <trkpt lat="36.847524" lon="-4.919213">
        <ele>623.111</ele>
        <time>2018-03-31T13:12:46Z</time>
      </trkpt>
      <trkpt lat="36.847551" lon="-4.919168">
        <ele>622.993</ele>
        <time>2018-03-31T13:12:47Z</time>
      </trkpt>
      <trkpt lat="36.847580" lon="-4.919124">
        <ele>622.055</ele>
        <time>2018-03-31T13:12:48Z</time>
      </trkpt>
      <trkpt lat="36.847608" lon="-4.919077">
        <ele>621.455</ele>
        <time>2018-03-31T13:12:49Z</time>
      </trkpt>
      <trkpt lat="36.847636" lon="-4.919030">
        <ele>621.007</ele>
        <time>2018-03-31T13:12:50Z</time>
      </trkpt>
      <trkpt lat="36.847661" lon="-4.918972">
        <ele>620.717</ele>
        <time>2018-03-31T13:12:51Z</time>
      </trkpt>
      <trkpt lat="36.847680" lon="-4.918919">
        <ele>620.308</ele>
        <time>2018-03-31T13:12:52Z</time>
      </trkpt>
      <trkpt lat="36.847694" lon="-4.918863">
        <ele>619.857</ele>
        <time>2018-03-31T13:12:53Z</time>
      </trkpt>
      <trkpt lat="36.847744" lon="-4.918771">
        <ele>618.648</ele>
        <time>2018-03-31T13:12:55Z</time>
      </trkpt>
      <trkpt lat="36.847773" lon="-4.918713">
        <ele>618.231</ele>
        <time>2018-03-31T13:12:56Z</time>
      </trkpt>
      <trkpt lat="36.847796" lon="-4.918658">
        <ele>617.847</ele>
        <time>2018-03-31T13:12:57Z</time>
      </trkpt>
      <trkpt lat="36.847835" lon="-4.918563">
        <ele>617.056</ele>
        <time>2018-03-31T13:12:59Z</time>
      </trkpt>
      <trkpt lat="36.847856" lon="-4.918512">
        <ele>616.523</ele>
        <time>2018-03-31T13:13:00Z</time>
      </trkpt>
      <trkpt lat="36.847898" lon="-4.918424">
        <ele>615.425</ele>
        <time>2018-03-31T13:13:02Z</time>
      </trkpt>
      <trkpt lat="36.847936" lon="-4.918346">
        <ele>614.497</ele>
        <time>2018-03-31T13:13:04Z</time>
      </trkpt>
      <trkpt lat="36.847979" lon="-4.918247">
        <ele>613.462</ele>
        <time>2018-03-31T13:13:06Z</time>
      </trkpt>
      <trkpt lat="36.847997" lon="-4.918189">
        <ele>613.283</ele>
        <time>2018-03-31T13:13:07Z</time>
      </trkpt>
      <trkpt lat="36.848015" lon="-4.918130">
        <ele>612.911</ele>
        <time>2018-03-31T13:13:08Z</time>
      </trkpt>
      <trkpt lat="36.848032" lon="-4.918074">
        <ele>611.608</ele>
        <time>2018-03-31T13:13:09Z</time>
      </trkpt>
      <trkpt lat="36.848048" lon="-4.918020">
        <ele>610.588</ele>
        <time>2018-03-31T13:13:10Z</time>
      </trkpt>
      <trkpt lat="36.848063" lon="-4.917967">
        <ele>609.669</ele>
        <time>2018-03-31T13:13:11Z</time>
      </trkpt>
      <trkpt lat="36.848083" lon="-4.917908">
        <ele>608.882</ele>
        <time>2018-03-31T13:13:12Z</time>
      </trkpt>
      <trkpt lat="36.848098" lon="-4.917854">
        <ele>608.198</ele>
        <time>2018-03-31T13:13:13Z</time>
      </trkpt>
      <trkpt lat="36.848117" lon="-4.917799">
        <ele>607.357</ele>
        <time>2018-03-31T13:13:14Z</time>
      </trkpt>
      <trkpt lat="36.848136" lon="-4.917748">
        <ele>606.564</ele>
        <time>2018-03-31T13:13:15Z</time>
      </trkpt>
      <trkpt lat="36.848172" lon="-4.917662">
        <ele>605.376</ele>
        <time>2018-03-31T13:13:17Z</time>
      </trkpt>
      <trkpt lat="36.848205" lon="-4.917586">
        <ele>604.718</ele>
        <time>2018-03-31T13:13:19Z</time>
      </trkpt>
      <trkpt lat="36.848241" lon="-4.917505">
        <ele>604.341</ele>
        <time>2018-03-31T13:13:21Z</time>
      </trkpt>
      <trkpt lat="36.848285" lon="-4.917435">
        <ele>604.181</ele>
        <time>2018-03-31T13:13:23Z</time>
      </trkpt>
      <trkpt lat="36.848331" lon="-4.917366">
        <ele>604.109</ele>
        <time>2018-03-31T13:13:25Z</time>
      </trkpt>
      <trkpt lat="36.848377" lon="-4.917308">
        <ele>604.308</ele>
        <time>2018-03-31T13:13:27Z</time>
      </trkpt>
      <trkpt lat="36.848416" lon="-4.917250">
        <ele>604.476</ele>
        <time>2018-03-31T13:13:29Z</time>
      </trkpt>
      <trkpt lat="36.848439" lon="-4.917188">
        <ele>604.427</ele>
        <time>2018-03-31T13:13:31Z</time>
      </trkpt>
      <trkpt lat="36.848452" lon="-4.917133">
        <ele>604.710</ele>
        <time>2018-03-31T13:13:33Z</time>
      </trkpt>
      <trkpt lat="36.848470" lon="-4.917055">
        <ele>605.636</ele>
        <time>2018-03-31T13:13:36Z</time>
      </trkpt>
      <trkpt lat="36.848476" lon="-4.916985">
        <ele>606.515</ele>
        <time>2018-03-31T13:13:39Z</time>
      </trkpt>
      <trkpt lat="36.848462" lon="-4.916922">
        <ele>607.122</ele>
        <time>2018-03-31T13:13:41Z</time>
      </trkpt>
      <trkpt lat="36.848438" lon="-4.916841">
        <ele>607.844</ele>
        <time>2018-03-31T13:13:43Z</time>
      </trkpt>
      <trkpt lat="36.848411" lon="-4.916753">
        <ele>608.576</ele>
        <time>2018-03-31T13:13:45Z</time>
      </trkpt>
      <trkpt lat="36.848388" lon="-4.916668">
        <ele>609.246</ele>
        <time>2018-03-31T13:13:48Z</time>
      </trkpt>
      <trkpt lat="36.848362" lon="-4.916596">
        <ele>609.988</ele>
        <time>2018-03-31T13:13:50Z</time>
      </trkpt>
      <trkpt lat="36.848327" lon="-4.916526">
        <ele>610.716</ele>
        <time>2018-03-31T13:13:52Z</time>
      </trkpt>
      <trkpt lat="36.848280" lon="-4.916485">
        <ele>611.108</ele>
        <time>2018-03-31T13:13:54Z</time>
      </trkpt>
      <trkpt lat="36.848236" lon="-4.916450">
        <ele>611.046</ele>
        <time>2018-03-31T13:13:56Z</time>
      </trkpt>
      <trkpt lat="36.848186" lon="-4.916421">
        <ele>610.587</ele>
        <time>2018-03-31T13:13:58Z</time>
      </trkpt>
      <trkpt lat="36.848125" lon="-4.916384">
        <ele>609.850</ele>
        <time>2018-03-31T13:14:00Z</time>
      </trkpt>
      <trkpt lat="36.848057" lon="-4.916338">
        <ele>608.936</ele>
        <time>2018-03-31T13:14:02Z</time>
      </trkpt>
      <trkpt lat="36.848018" lon="-4.916305">
        <ele>608.695</ele>
        <time>2018-03-31T13:14:03Z</time>
      </trkpt>
      <trkpt lat="36.847976" lon="-4.916272">
        <ele>608.442</ele>
        <time>2018-03-31T13:14:04Z</time>
      </trkpt>
      <trkpt lat="36.847933" lon="-4.916237">
        <ele>608.354</ele>
        <time>2018-03-31T13:14:05Z</time>
      </trkpt>
      <trkpt lat="36.847896" lon="-4.916204">
        <ele>608.326</ele>
        <time>2018-03-31T13:14:06Z</time>
      </trkpt>
      <trkpt lat="36.847827" lon="-4.916147">
        <ele>608.516</ele>
        <time>2018-03-31T13:14:08Z</time>
      </trkpt>
      <trkpt lat="36.847749" lon="-4.916114">
        <ele>608.776</ele>
        <time>2018-03-31T13:14:10Z</time>
      </trkpt>
      <trkpt lat="36.847670" lon="-4.916071">
        <ele>607.913</ele>
        <time>2018-03-31T13:14:12Z</time>
      </trkpt>
      <trkpt lat="36.847602" lon="-4.916021">
        <ele>606.008</ele>
        <time>2018-03-31T13:14:14Z</time>
      </trkpt>
      <trkpt lat="36.847563" lon="-4.915973">
        <ele>604.233</ele>
        <time>2018-03-31T13:14:16Z</time>
      </trkpt>
      <trkpt lat="36.847545" lon="-4.915916">
        <ele>602.764</ele>
        <time>2018-03-31T13:14:18Z</time>
      </trkpt>
      <trkpt lat="36.847564" lon="-4.915858">
        <ele>605.737</ele>
        <time>2018-03-31T13:14:20Z</time>
      </trkpt>
      <trkpt lat="36.847609" lon="-4.915782">
        <ele>607.123</ele>
        <time>2018-03-31T13:14:22Z</time>
      </trkpt>
      <trkpt lat="36.847630" lon="-4.915715">
        <ele>607.582</ele>
        <time>2018-03-31T13:14:24Z</time>
      </trkpt>
      <trkpt lat="36.847649" lon="-4.915645">
        <ele>607.159</ele>
        <time>2018-03-31T13:14:26Z</time>
      </trkpt>
      <trkpt lat="36.847668" lon="-4.915574">
        <ele>604.621</ele>
        <time>2018-03-31T13:14:28Z</time>
      </trkpt>
      <trkpt lat="36.847677" lon="-4.915491">
        <ele>603.743</ele>
        <time>2018-03-31T13:14:30Z</time>
      </trkpt>
      <trkpt lat="36.847688" lon="-4.915401">
        <ele>602.471</ele>
        <time>2018-03-31T13:14:32Z</time>
      </trkpt>
      <trkpt lat="36.847715" lon="-4.915319">
        <ele>601.141</ele>
        <time>2018-03-31T13:14:34Z</time>
      </trkpt>
      <trkpt lat="36.847742" lon="-4.915238">
        <ele>600.415</ele>
        <time>2018-03-31T13:14:36Z</time>
      </trkpt>
      <trkpt lat="36.847781" lon="-4.915171">
        <ele>599.808</ele>
        <time>2018-03-31T13:14:38Z</time>
      </trkpt>
      <trkpt lat="36.847829" lon="-4.915126">
        <ele>599.179</ele>
        <time>2018-03-31T13:14:40Z</time>
      </trkpt>
      <trkpt lat="36.847870" lon="-4.915091">
        <ele>598.640</ele>
        <time>2018-03-31T13:14:42Z</time>
      </trkpt>
      <trkpt lat="36.847928" lon="-4.915058">
        <ele>597.993</ele>
        <time>2018-03-31T13:14:44Z</time>
      </trkpt>
      <trkpt lat="36.847988" lon="-4.915053">
        <ele>597.039</ele>
        <time>2018-03-31T13:14:46Z</time>
      </trkpt>
      <trkpt lat="36.848061" lon="-4.915047">
        <ele>596.678</ele>
        <time>2018-03-31T13:14:48Z</time>
      </trkpt>
      <trkpt lat="36.848135" lon="-4.915064">
        <ele>596.735</ele>
        <time>2018-03-31T13:14:50Z</time>
      </trkpt>
      <trkpt lat="36.848204" lon="-4.915076">
        <ele>598.017</ele>
        <time>2018-03-31T13:14:52Z</time>
      </trkpt>
      <trkpt lat="36.848262" lon="-4.915100">
        <ele>600.699</ele>
        <time>2018-03-31T13:14:54Z</time>
      </trkpt>
      <trkpt lat="36.848312" lon="-4.915121">
        <ele>602.948</ele>
        <time>2018-03-31T13:14:56Z</time>
      </trkpt>
      <trkpt lat="36.848383" lon="-4.915145">
        <ele>604.261</ele>
        <time>2018-03-31T13:14:58Z</time>
      </trkpt>
      <trkpt lat="36.848460" lon="-4.915157">
        <ele>605.417</ele>
        <time>2018-03-31T13:15:00Z</time>
      </trkpt>
      <trkpt lat="36.848528" lon="-4.915156">
        <ele>607.508</ele>
        <time>2018-03-31T13:15:02Z</time>
      </trkpt>
      <trkpt lat="36.848489" lon="-4.915108">
        <ele>613.756</ele>
        <time>2018-03-31T13:15:06Z</time>
      </trkpt>
      <trkpt lat="36.848475" lon="-4.915006">
        <ele>615.867</ele>
        <time>2018-03-31T13:15:08Z</time>
      </trkpt>
      <trkpt lat="36.848427" lon="-4.914906">
        <ele>618.420</ele>
        <time>2018-03-31T13:15:10Z</time>
      </trkpt>
      <trkpt lat="36.848413" lon="-4.914797">
        <ele>619.616</ele>
        <time>2018-03-31T13:15:12Z</time>
      </trkpt>
      <trkpt lat="36.848412" lon="-4.914739">
        <ele>620.085</ele>
        <time>2018-03-31T13:15:13Z</time>
      </trkpt>
      <trkpt lat="36.848400" lon="-4.914680">
        <ele>620.162</ele>
        <time>2018-03-31T13:15:14Z</time>
      </trkpt>
      <trkpt lat="36.848400" lon="-4.914621">
        <ele>619.574</ele>
        <time>2018-03-31T13:15:15Z</time>
      </trkpt>
      <trkpt lat="36.848410" lon="-4.914518">
        <ele>617.246</ele>
        <time>2018-03-31T13:15:17Z</time>
      </trkpt>
      <trkpt lat="36.848416" lon="-4.914461">
        <ele>616.387</ele>
        <time>2018-03-31T13:15:18Z</time>
      </trkpt>
      <trkpt lat="36.848434" lon="-4.914365">
        <ele>614.242</ele>
        <time>2018-03-31T13:15:20Z</time>
      </trkpt>
      <trkpt lat="36.848470" lon="-4.914270">
        <ele>612.526</ele>
        <time>2018-03-31T13:15:22Z</time>
      </trkpt>
      <trkpt lat="36.848494" lon="-4.914221">
        <ele>611.708</ele>
        <time>2018-03-31T13:15:23Z</time>
      </trkpt>
      <trkpt lat="36.848531" lon="-4.914178">
        <ele>610.840</ele>
        <time>2018-03-31T13:15:24Z</time>
      </trkpt>
      <trkpt lat="36.848569" lon="-4.914133">
        <ele>610.111</ele>
        <time>2018-03-31T13:15:25Z</time>
      </trkpt>
      <trkpt lat="36.848633" lon="-4.914060">
        <ele>608.854</ele>
        <time>2018-03-31T13:15:27Z</time>
      </trkpt>
      <trkpt lat="36.848654" lon="-4.914006">
        <ele>608.380</ele>
        <time>2018-03-31T13:15:28Z</time>
      </trkpt>
      <trkpt lat="36.848672" lon="-4.913953">
        <ele>607.849</ele>
        <time>2018-03-31T13:15:29Z</time>
      </trkpt>
      <trkpt lat="36.848694" lon="-4.913854">
        <ele>607.146</ele>
        <time>2018-03-31T13:15:31Z</time>
      </trkpt>
      <trkpt lat="36.848700" lon="-4.913798">
        <ele>606.768</ele>
        <time>2018-03-31T13:15:32Z</time>
      </trkpt>
      <trkpt lat="36.848679" lon="-4.913693">
        <ele>605.850</ele>
        <time>2018-03-31T13:15:34Z</time>
      </trkpt>
      <trkpt lat="36.848667" lon="-4.913591">
        <ele>604.764</ele>
        <time>2018-03-31T13:15:36Z</time>
      </trkpt>
      <trkpt lat="36.848652" lon="-4.913508">
        <ele>604.006</ele>
        <time>2018-03-31T13:15:38Z</time>
      </trkpt>
      <trkpt lat="36.848676" lon="-4.913432">
        <ele>603.516</ele>
        <time>2018-03-31T13:15:40Z</time>
      </trkpt>
      <trkpt lat="36.848718" lon="-4.913371">
        <ele>602.708</ele>
        <time>2018-03-31T13:15:42Z</time>
      </trkpt>
      <trkpt lat="36.848750" lon="-4.913294">
        <ele>601.858</ele>
        <time>2018-03-31T13:15:44Z</time>
      </trkpt>
      <trkpt lat="36.848767" lon="-4.913210">
        <ele>600.919</ele>
        <time>2018-03-31T13:15:46Z</time>
      </trkpt>
      <trkpt lat="36.848741" lon="-4.913108">
        <ele>599.572</ele>
        <time>2018-03-31T13:15:48Z</time>
      </trkpt>
      <trkpt lat="36.848717" lon="-4.913052">
        <ele>598.458</ele>
        <time>2018-03-31T13:15:49Z</time>
      </trkpt>
      <trkpt lat="36.848698" lon="-4.912992">
        <ele>597.087</ele>
        <time>2018-03-31T13:15:50Z</time>
      </trkpt>
      <trkpt lat="36.848665" lon="-4.912948">
        <ele>595.834</ele>
        <time>2018-03-31T13:15:51Z</time>
      </trkpt>
      <trkpt lat="36.848628" lon="-4.912904">
        <ele>594.896</ele>
        <time>2018-03-31T13:15:52Z</time>
      </trkpt>
      <trkpt lat="36.848592" lon="-4.912865">
        <ele>593.958</ele>
        <time>2018-03-31T13:15:53Z</time>
      </trkpt>
      <trkpt lat="36.848527" lon="-4.912795">
        <ele>592.437</ele>
        <time>2018-03-31T13:15:55Z</time>
      </trkpt>
      <trkpt lat="36.848461" lon="-4.912728">
        <ele>590.949</ele>
        <time>2018-03-31T13:15:57Z</time>
      </trkpt>
      <trkpt lat="36.848425" lon="-4.912690">
        <ele>590.013</ele>
        <time>2018-03-31T13:15:58Z</time>
      </trkpt>
      <trkpt lat="36.848363" lon="-4.912622">
        <ele>588.208</ele>
        <time>2018-03-31T13:16:00Z</time>
      </trkpt>
      <trkpt lat="36.848319" lon="-4.912538">
        <ele>586.965</ele>
        <time>2018-03-31T13:16:02Z</time>
      </trkpt>
      <trkpt lat="36.848273" lon="-4.912465">
        <ele>585.886</ele>
        <time>2018-03-31T13:16:04Z</time>
      </trkpt>
      <trkpt lat="36.848245" lon="-4.912389">
        <ele>584.159</ele>
        <time>2018-03-31T13:16:06Z</time>
      </trkpt>
      <trkpt lat="36.848238" lon="-4.912313">
        <ele>581.645</ele>
        <time>2018-03-31T13:16:08Z</time>
      </trkpt>
      <trkpt lat="36.848254" lon="-4.912244">
        <ele>579.734</ele>
        <time>2018-03-31T13:16:10Z</time>
      </trkpt>
      <trkpt lat="36.848284" lon="-4.912175">
        <ele>578.231</ele>
        <time>2018-03-31T13:16:12Z</time>
      </trkpt>
      <trkpt lat="36.848298" lon="-4.912107">
        <ele>576.963</ele>
        <time>2018-03-31T13:16:14Z</time>
      </trkpt>
      <trkpt lat="36.848282" lon="-4.912022">
        <ele>576.685</ele>
        <time>2018-03-31T13:16:16Z</time>
      </trkpt>
      <trkpt lat="36.848249" lon="-4.911958">
        <ele>576.953</ele>
        <time>2018-03-31T13:16:18Z</time>
      </trkpt>
      <trkpt lat="36.848222" lon="-4.911893">
        <ele>576.704</ele>
        <time>2018-03-31T13:16:20Z</time>
      </trkpt>
      <trkpt lat="36.848190" lon="-4.911830">
        <ele>577.514</ele>
        <time>2018-03-31T13:16:22Z</time>
      </trkpt>
      <trkpt lat="36.848159" lon="-4.911785">
        <ele>578.508</ele>
        <time>2018-03-31T13:16:24Z</time>
      </trkpt>
      <trkpt lat="36.848128" lon="-4.911737">
        <ele>579.077</ele>
        <time>2018-03-31T13:16:26Z</time>
      </trkpt>
      <trkpt lat="36.848131" lon="-4.911664">
        <ele>579.588</ele>
        <time>2018-03-31T13:16:29Z</time>
      </trkpt>
      <trkpt lat="36.848163" lon="-4.911575">
        <ele>579.221</ele>
        <time>2018-03-31T13:16:31Z</time>
      </trkpt>
      <trkpt lat="36.848186" lon="-4.911523">
        <ele>578.567</ele>
        <time>2018-03-31T13:16:33Z</time>
      </trkpt>
      <trkpt lat="36.848195" lon="-4.911464">
        <ele>578.056</ele>
        <time>2018-03-31T13:16:35Z</time>
      </trkpt>
      <trkpt lat="36.848192" lon="-4.911392">
        <ele>577.413</ele>
        <time>2018-03-31T13:16:37Z</time>
      </trkpt>
      <trkpt lat="36.848202" lon="-4.911337">
        <ele>575.095</ele>
        <time>2018-03-31T13:16:40Z</time>
      </trkpt>
      <trkpt lat="36.848157" lon="-4.911307">
        <ele>572.397</ele>
        <time>2018-03-31T13:16:48Z</time>
      </trkpt>
      <trkpt lat="36.848114" lon="-4.911326">
        <ele>566.345</ele>
        <time>2018-03-31T13:17:22Z</time>
      </trkpt>
      <trkpt lat="36.848152" lon="-4.911276">
        <ele>566.047</ele>
        <time>2018-03-31T13:19:07Z</time>
      </trkpt>
      <trkpt lat="36.848195" lon="-4.911250">
        <ele>566.411</ele>
        <time>2018-03-31T13:19:09Z</time>
      </trkpt>
      <trkpt lat="36.848247" lon="-4.911221">
        <ele>567.108</ele>
        <time>2018-03-31T13:19:11Z</time>
      </trkpt>
      <trkpt lat="36.848294" lon="-4.911190">
        <ele>567.546</ele>
        <time>2018-03-31T13:19:13Z</time>
      </trkpt>
      <trkpt lat="36.848334" lon="-4.911158">
        <ele>567.687</ele>
        <time>2018-03-31T13:19:15Z</time>
      </trkpt>
      <trkpt lat="36.848381" lon="-4.911139">
        <ele>568.060</ele>
        <time>2018-03-31T13:19:17Z</time>
      </trkpt>
      <trkpt lat="36.848429" lon="-4.911130">
        <ele>567.076</ele>
        <time>2018-03-31T13:19:19Z</time>
      </trkpt>
      <trkpt lat="36.848489" lon="-4.911146">
        <ele>566.495</ele>
        <time>2018-03-31T13:19:21Z</time>
      </trkpt>
      <trkpt lat="36.848555" lon="-4.911167">
        <ele>566.122</ele>
        <time>2018-03-31T13:19:23Z</time>
      </trkpt>
      <trkpt lat="36.848609" lon="-4.911198">
        <ele>565.944</ele>
        <time>2018-03-31T13:19:25Z</time>
      </trkpt>
      <trkpt lat="36.848652" lon="-4.911253">
        <ele>566.156</ele>
        <time>2018-03-31T13:19:27Z</time>
      </trkpt>
      <trkpt lat="36.848687" lon="-4.911312">
        <ele>565.789</ele>
        <time>2018-03-31T13:19:29Z</time>
      </trkpt>
      <trkpt lat="36.848719" lon="-4.911373">
        <ele>565.406</ele>
        <time>2018-03-31T13:19:31Z</time>
      </trkpt>
      <trkpt lat="36.848751" lon="-4.911443">
        <ele>564.926</ele>
        <time>2018-03-31T13:19:34Z</time>
      </trkpt>
      <trkpt lat="36.848757" lon="-4.911510">
        <ele>564.808</ele>
        <time>2018-03-31T13:19:36Z</time>
      </trkpt>
      <trkpt lat="36.848769" lon="-4.911573">
        <ele>565.040</ele>
        <time>2018-03-31T13:19:38Z</time>
      </trkpt>
      <trkpt lat="36.848775" lon="-4.911641">
        <ele>565.391</ele>
        <time>2018-03-31T13:19:40Z</time>
      </trkpt>
      <trkpt lat="36.848791" lon="-4.911697">
        <ele>565.894</ele>
        <time>2018-03-31T13:19:42Z</time>
      </trkpt>
      <trkpt lat="36.848820" lon="-4.911762">
        <ele>565.980</ele>
        <time>2018-03-31T13:19:44Z</time>
      </trkpt>
      <trkpt lat="36.848859" lon="-4.911837">
        <ele>565.689</ele>
        <time>2018-03-31T13:19:46Z</time>
      </trkpt>
      <trkpt lat="36.848887" lon="-4.911926">
        <ele>565.146</ele>
        <time>2018-03-31T13:19:48Z</time>
      </trkpt>
      <trkpt lat="36.848896" lon="-4.911983">
        <ele>565.038</ele>
        <time>2018-03-31T13:19:49Z</time>
      </trkpt>
      <trkpt lat="36.848933" lon="-4.912072">
        <ele>565.490</ele>
        <time>2018-03-31T13:19:51Z</time>
      </trkpt>
      <trkpt lat="36.848966" lon="-4.912166">
        <ele>565.422</ele>
        <time>2018-03-31T13:19:53Z</time>
      </trkpt>
      <trkpt lat="36.848983" lon="-4.912220">
        <ele>565.262</ele>
        <time>2018-03-31T13:19:54Z</time>
      </trkpt>
      <trkpt lat="36.848994" lon="-4.912280">
        <ele>565.008</ele>
        <time>2018-03-31T13:19:55Z</time>
      </trkpt>
      <trkpt lat="36.849041" lon="-4.912357">
        <ele>565.008</ele>
        <time>2018-03-31T13:19:57Z</time>
      </trkpt>
      <trkpt lat="36.849092" lon="-4.912409">
        <ele>564.374</ele>
        <time>2018-03-31T13:19:59Z</time>
      </trkpt>
      <trkpt lat="36.849135" lon="-4.912487">
        <ele>563.725</ele>
        <time>2018-03-31T13:20:01Z</time>
      </trkpt>
      <trkpt lat="36.849184" lon="-4.912539">
        <ele>563.538</ele>
        <time>2018-03-31T13:20:03Z</time>
      </trkpt>
      <trkpt lat="36.849244" lon="-4.912538">
        <ele>563.284</ele>
        <time>2018-03-31T13:20:04Z</time>
      </trkpt>
      <trkpt lat="36.849304" lon="-4.912553">
        <ele>563.173</ele>
        <time>2018-03-31T13:20:05Z</time>
      </trkpt>
      <trkpt lat="36.849373" lon="-4.912581">
        <ele>553.920</ele>
        <time>2018-03-31T13:20:07Z</time>
      </trkpt>
      <trkpt lat="36.849414" lon="-4.912616">
        <ele>556.072</ele>
        <time>2018-03-31T13:20:09Z</time>
      </trkpt>
      <trkpt lat="36.849456" lon="-4.912637">
        <ele>555.264</ele>
        <time>2018-03-31T13:20:11Z</time>
      </trkpt>
      <trkpt lat="36.849506" lon="-4.912668">
        <ele>554.169</ele>
        <time>2018-03-31T13:20:13Z</time>
      </trkpt>
      <trkpt lat="36.849562" lon="-4.912727">
        <ele>553.604</ele>
        <time>2018-03-31T13:20:15Z</time>
      </trkpt>
      <trkpt lat="36.849630" lon="-4.912775">
        <ele>553.724</ele>
        <time>2018-03-31T13:20:17Z</time>
      </trkpt>
      <trkpt lat="36.849674" lon="-4.912798">
        <ele>553.608</ele>
        <time>2018-03-31T13:20:18Z</time>
      </trkpt>
      <trkpt lat="36.849712" lon="-4.912832">
        <ele>553.558</ele>
        <time>2018-03-31T13:20:19Z</time>
      </trkpt>
      <trkpt lat="36.849794" lon="-4.912864">
        <ele>552.169</ele>
        <time>2018-03-31T13:20:21Z</time>
      </trkpt>
      <trkpt lat="36.849874" lon="-4.912896">
        <ele>550.632</ele>
        <time>2018-03-31T13:20:23Z</time>
      </trkpt>
      <trkpt lat="36.849912" lon="-4.912927">
        <ele>549.868</ele>
        <time>2018-03-31T13:20:24Z</time>
      </trkpt>
      <trkpt lat="36.849948" lon="-4.912962">
        <ele>549.297</ele>
        <time>2018-03-31T13:20:25Z</time>
      </trkpt>
      <trkpt lat="36.850008" lon="-4.913033">
        <ele>548.554</ele>
        <time>2018-03-31T13:20:27Z</time>
      </trkpt>
      <trkpt lat="36.850057" lon="-4.913097">
        <ele>548.276</ele>
        <time>2018-03-31T13:20:29Z</time>
      </trkpt>
      <trkpt lat="36.850097" lon="-4.913159">
        <ele>547.258</ele>
        <time>2018-03-31T13:20:31Z</time>
      </trkpt>
      <trkpt lat="36.850114" lon="-4.913213">
        <ele>545.896</ele>
        <time>2018-03-31T13:20:33Z</time>
      </trkpt>
      <trkpt lat="36.850124" lon="-4.913274">
        <ele>544.731</ele>
        <time>2018-03-31T13:20:35Z</time>
      </trkpt>
      <trkpt lat="36.850095" lon="-4.913334">
        <ele>543.924</ele>
        <time>2018-03-31T13:20:37Z</time>
      </trkpt>
      <trkpt lat="36.850066" lon="-4.913420">
        <ele>544.208</ele>
        <time>2018-03-31T13:20:39Z</time>
      </trkpt>
      <trkpt lat="36.850042" lon="-4.913504">
        <ele>544.831</ele>
        <time>2018-03-31T13:20:41Z</time>
      </trkpt>
      <trkpt lat="36.850026" lon="-4.913573">
        <ele>545.242</ele>
        <time>2018-03-31T13:20:43Z</time>
      </trkpt>
      <trkpt lat="36.850015" lon="-4.913636">
        <ele>545.555</ele>
        <time>2018-03-31T13:20:45Z</time>
      </trkpt>
      <trkpt lat="36.850045" lon="-4.913686">
        <ele>545.421</ele>
        <time>2018-03-31T13:20:47Z</time>
      </trkpt>
      <trkpt lat="36.850089" lon="-4.913722">
        <ele>538.580</ele>
        <time>2018-03-31T13:20:49Z</time>
      </trkpt>
      <trkpt lat="36.850134" lon="-4.913741">
        <ele>533.657</ele>
        <time>2018-03-31T13:20:51Z</time>
      </trkpt>
      <trkpt lat="36.850179" lon="-4.913778">
        <ele>529.649</ele>
        <time>2018-03-31T13:20:54Z</time>
      </trkpt>
      <trkpt lat="36.850229" lon="-4.913831">
        <ele>526.031</ele>
        <time>2018-03-31T13:20:56Z</time>
      </trkpt>
      <trkpt lat="36.850287" lon="-4.913896">
        <ele>533.788</ele>
        <time>2018-03-31T13:20:58Z</time>
      </trkpt>
      <trkpt lat="36.850353" lon="-4.913929">
        <ele>532.524</ele>
        <time>2018-03-31T13:21:00Z</time>
      </trkpt>
      <trkpt lat="36.850432" lon="-4.913971">
        <ele>530.526</ele>
        <time>2018-03-31T13:21:02Z</time>
      </trkpt>
      <trkpt lat="36.850490" lon="-4.914012">
        <ele>528.708</ele>
        <time>2018-03-31T13:21:04Z</time>
      </trkpt>
      <trkpt lat="36.850536" lon="-4.914074">
        <ele>527.430</ele>
        <time>2018-03-31T13:21:06Z</time>
      </trkpt>
      <trkpt lat="36.850600" lon="-4.914142">
        <ele>526.761</ele>
        <time>2018-03-31T13:21:08Z</time>
      </trkpt>
      <trkpt lat="36.850686" lon="-4.914175">
        <ele>525.864</ele>
        <time>2018-03-31T13:21:10Z</time>
      </trkpt>
      <trkpt lat="36.850737" lon="-4.914186">
        <ele>525.630</ele>
        <time>2018-03-31T13:21:11Z</time>
      </trkpt>
      <trkpt lat="36.850812" lon="-4.914213">
        <ele>523.899</ele>
        <time>2018-03-31T13:21:13Z</time>
      </trkpt>
      <trkpt lat="36.850899" lon="-4.914247">
        <ele>521.766</ele>
        <time>2018-03-31T13:21:15Z</time>
      </trkpt>
      <trkpt lat="36.850942" lon="-4.914266">
        <ele>521.058</ele>
        <time>2018-03-31T13:21:16Z</time>
      </trkpt>
      <trkpt lat="36.850986" lon="-4.914283">
        <ele>520.450</ele>
        <time>2018-03-31T13:21:17Z</time>
      </trkpt>
      <trkpt lat="36.851033" lon="-4.914303">
        <ele>519.929</ele>
        <time>2018-03-31T13:21:18Z</time>
      </trkpt>
      <trkpt lat="36.851089" lon="-4.914324">
        <ele>519.400</ele>
        <time>2018-03-31T13:21:19Z</time>
      </trkpt>
      <trkpt lat="36.851142" lon="-4.914343">
        <ele>518.820</ele>
        <time>2018-03-31T13:21:20Z</time>
      </trkpt>
      <trkpt lat="36.851195" lon="-4.914381">
        <ele>518.108</ele>
        <time>2018-03-31T13:21:21Z</time>
      </trkpt>
      <trkpt lat="36.851249" lon="-4.914420">
        <ele>517.674</ele>
        <time>2018-03-31T13:21:22Z</time>
      </trkpt>
      <trkpt lat="36.851299" lon="-4.914455">
        <ele>517.235</ele>
        <time>2018-03-31T13:21:23Z</time>
      </trkpt>
      <trkpt lat="36.851352" lon="-4.914492">
        <ele>516.858</ele>
        <time>2018-03-31T13:21:24Z</time>
      </trkpt>
      <trkpt lat="36.851408" lon="-4.914527">
        <ele>516.734</ele>
        <time>2018-03-31T13:21:25Z</time>
      </trkpt>
      <trkpt lat="36.851473" lon="-4.914553">
        <ele>516.643</ele>
        <time>2018-03-31T13:21:26Z</time>
      </trkpt>
      <trkpt lat="36.851535" lon="-4.914558">
        <ele>516.890</ele>
        <time>2018-03-31T13:21:27Z</time>
      </trkpt>
      <trkpt lat="36.851582" lon="-4.914570">
        <ele>517.132</ele>
        <time>2018-03-31T13:21:28Z</time>
      </trkpt>
      <trkpt lat="36.851634" lon="-4.914596">
        <ele>517.534</ele>
        <time>2018-03-31T13:21:29Z</time>
      </trkpt>
      <trkpt lat="36.851676" lon="-4.914622">
        <ele>517.861</ele>
        <time>2018-03-31T13:21:30Z</time>
      </trkpt>
      <trkpt lat="36.851751" lon="-4.914682">
        <ele>518.121</ele>
        <time>2018-03-31T13:21:32Z</time>
      </trkpt>
      <trkpt lat="36.851786" lon="-4.914717">
        <ele>518.113</ele>
        <time>2018-03-31T13:21:33Z</time>
      </trkpt>
      <trkpt lat="36.851850" lon="-4.914739">
        <ele>517.808</ele>
        <time>2018-03-31T13:21:35Z</time>
      </trkpt>
      <trkpt lat="36.851896" lon="-4.914718">
        <ele>517.648</ele>
        <time>2018-03-31T13:21:37Z</time>
      </trkpt>
      <trkpt lat="36.851924" lon="-4.914672">
        <ele>517.739</ele>
        <time>2018-03-31T13:21:39Z</time>
      </trkpt>
      <trkpt lat="36.851894" lon="-4.914613">
        <ele>519.232</ele>
        <time>2018-03-31T13:21:45Z</time>
      </trkpt>
      <trkpt lat="36.851861" lon="-4.914560">
        <ele>520.288</ele>
        <time>2018-03-31T13:21:48Z</time>
      </trkpt>
      <trkpt lat="36.851842" lon="-4.914503">
        <ele>521.467</ele>
        <time>2018-03-31T13:21:52Z</time>
      </trkpt>
      <trkpt lat="36.851805" lon="-4.914442">
        <ele>522.214</ele>
        <time>2018-03-31T13:21:55Z</time>
      </trkpt>
      <trkpt lat="36.851766" lon="-4.914396">
        <ele>523.086</ele>
        <time>2018-03-31T13:22:00Z</time>
      </trkpt>
      <trkpt lat="36.851715" lon="-4.914389">
        <ele>522.658</ele>
        <time>2018-03-31T13:22:04Z</time>
      </trkpt>
      <trkpt lat="36.851668" lon="-4.914364">
        <ele>522.068</ele>
        <time>2018-03-31T13:22:09Z</time>
      </trkpt>
      <trkpt lat="36.851618" lon="-4.914332">
        <ele>521.742</ele>
        <time>2018-03-31T13:22:12Z</time>
      </trkpt>
      <trkpt lat="36.851571" lon="-4.914309">
        <ele>521.426</ele>
        <time>2018-03-31T13:22:14Z</time>
      </trkpt>
      <trkpt lat="36.851521" lon="-4.914288">
        <ele>520.708</ele>
        <time>2018-03-31T13:22:17Z</time>
      </trkpt>
      <trkpt lat="36.851471" lon="-4.914251">
        <ele>520.228</ele>
        <time>2018-03-31T13:22:20Z</time>
      </trkpt>
      <trkpt lat="36.851433" lon="-4.914201">
        <ele>520.069</ele>
        <time>2018-03-31T13:22:23Z</time>
      </trkpt>
      <trkpt lat="36.851398" lon="-4.914152">
        <ele>520.252</ele>
        <time>2018-03-31T13:22:27Z</time>
      </trkpt>
      <trkpt lat="36.851429" lon="-4.914193">
        <ele>520.378</ele>
        <time>2018-03-31T13:22:39Z</time>
      </trkpt>
      <trkpt lat="36.851429" lon="-4.914131">
        <ele>520.777</ele>
        <time>2018-03-31T13:22:44Z</time>
      </trkpt>
      <trkpt lat="36.851424" lon="-4.914074">
        <ele>520.854</ele>
        <time>2018-03-31T13:25:33Z</time>
      </trkpt>
      <trkpt lat="36.851456" lon="-4.914023">
        <ele>521.146</ele>
        <time>2018-03-31T13:25:37Z</time>
      </trkpt>
      <trkpt lat="36.851500" lon="-4.913993">
        <ele>521.768</ele>
        <time>2018-03-31T13:25:40Z</time>
      </trkpt>
      <trkpt lat="36.851549" lon="-4.913975">
        <ele>522.513</ele>
        <time>2018-03-31T13:25:44Z</time>
      </trkpt>
      <trkpt lat="36.851594" lon="-4.913956">
        <ele>523.043</ele>
        <time>2018-03-31T13:25:48Z</time>
      </trkpt>
      <trkpt lat="36.851643" lon="-4.913943">
        <ele>523.507</ele>
        <time>2018-03-31T13:25:51Z</time>
      </trkpt>
      <trkpt lat="36.851700" lon="-4.913918">
        <ele>524.108</ele>
        <time>2018-03-31T13:25:55Z</time>
      </trkpt>
      <trkpt lat="36.851749" lon="-4.913887">
        <ele>524.823</ele>
        <time>2018-03-31T13:25:58Z</time>
      </trkpt>
      <trkpt lat="36.851812" lon="-4.913878">
        <ele>525.814</ele>
        <time>2018-03-31T13:26:02Z</time>
      </trkpt>
      <trkpt lat="36.851856" lon="-4.913856">
        <ele>526.397</ele>
        <time>2018-03-31T13:26:05Z</time>
      </trkpt>
      <trkpt lat="36.851904" lon="-4.913833">
        <ele>526.793</ele>
        <time>2018-03-31T13:26:08Z</time>
      </trkpt>
      <trkpt lat="36.851959" lon="-4.913807">
        <ele>527.032</ele>
        <time>2018-03-31T13:26:12Z</time>
      </trkpt>
      <trkpt lat="36.852011" lon="-4.913800">
        <ele>527.369</ele>
        <time>2018-03-31T13:26:18Z</time>
      </trkpt>
      <trkpt lat="36.852057" lon="-4.913787">
        <ele>527.861</ele>
        <time>2018-03-31T13:26:21Z</time>
      </trkpt>
      <trkpt lat="36.852115" lon="-4.913788">
        <ele>528.773</ele>
        <time>2018-03-31T13:26:25Z</time>
      </trkpt>
      <trkpt lat="36.852164" lon="-4.913793">
        <ele>529.463</ele>
        <time>2018-03-31T13:26:31Z</time>
      </trkpt>
      <trkpt lat="36.852214" lon="-4.913792">
        <ele>530.244</ele>
        <time>2018-03-31T13:26:34Z</time>
      </trkpt>
      <trkpt lat="36.852264" lon="-4.913793">
        <ele>530.918</ele>
        <time>2018-03-31T13:26:38Z</time>
      </trkpt>
      <trkpt lat="36.852300" lon="-4.913756">
        <ele>530.908</ele>
        <time>2018-03-31T13:26:44Z</time>
      </trkpt>
      <trkpt lat="36.852352" lon="-4.913730">
        <ele>531.188</ele>
        <time>2018-03-31T13:26:48Z</time>
      </trkpt>
      <trkpt lat="36.852378" lon="-4.913680">
        <ele>531.299</ele>
        <time>2018-03-31T13:26:54Z</time>
      </trkpt>
      <trkpt lat="36.852387" lon="-4.913609">
        <ele>530.272</ele>
        <time>2018-03-31T13:26:58Z</time>
      </trkpt>
      <trkpt lat="36.852407" lon="-4.913548">
        <ele>529.658</ele>
        <time>2018-03-31T13:27:02Z</time>
      </trkpt>
      <trkpt lat="36.852431" lon="-4.913493">
        <ele>529.287</ele>
        <time>2018-03-31T13:27:05Z</time>
      </trkpt>
      <trkpt lat="36.852464" lon="-4.913437">
        <ele>529.364</ele>
        <time>2018-03-31T13:27:10Z</time>
      </trkpt>
      <trkpt lat="36.852515" lon="-4.913422">
        <ele>530.296</ele>
        <time>2018-03-31T13:27:13Z</time>
      </trkpt>
      <trkpt lat="36.852572" lon="-4.913391">
        <ele>531.078</ele>
        <time>2018-03-31T13:27:17Z</time>
      </trkpt>
      <trkpt lat="36.852623" lon="-4.913383">
        <ele>531.491</ele>
        <time>2018-03-31T13:27:20Z</time>
      </trkpt>
      <trkpt lat="36.852673" lon="-4.913373">
        <ele>531.881</ele>
        <time>2018-03-31T13:27:24Z</time>
      </trkpt>
      <trkpt lat="36.852721" lon="-4.913380">
        <ele>532.319</ele>
        <time>2018-03-31T13:27:27Z</time>
      </trkpt>
      <trkpt lat="36.852768" lon="-4.913391">
        <ele>533.108</ele>
        <time>2018-03-31T13:27:30Z</time>
      </trkpt>
      <trkpt lat="36.852822" lon="-4.913405">
        <ele>533.861</ele>
        <time>2018-03-31T13:27:34Z</time>
      </trkpt>
      <trkpt lat="36.852827" lon="-4.913467">
        <ele>534.872</ele>
        <time>2018-03-31T13:27:41Z</time>
      </trkpt>
      <trkpt lat="36.852795" lon="-4.913514">
        <ele>534.925</ele>
        <time>2018-03-31T13:27:46Z</time>
      </trkpt>
      <trkpt lat="36.852755" lon="-4.913540">
        <ele>534.791</ele>
        <time>2018-03-31T13:27:50Z</time>
      </trkpt>
      <trkpt lat="36.852720" lon="-4.913579">
        <ele>534.840</ele>
        <time>2018-03-31T13:27:53Z</time>
      </trkpt>
      <trkpt lat="36.852682" lon="-4.913629">
        <ele>534.937</ele>
        <time>2018-03-31T13:27:57Z</time>
      </trkpt>
      <trkpt lat="36.852668" lon="-4.913689">
        <ele>535.339</ele>
        <time>2018-03-31T13:28:01Z</time>
      </trkpt>
      <trkpt lat="36.852651" lon="-4.913742">
        <ele>535.621</ele>
        <time>2018-03-31T13:28:04Z</time>
      </trkpt>
      <trkpt lat="36.852659" lon="-4.913801">
        <ele>536.261</ele>
        <time>2018-03-31T13:28:07Z</time>
      </trkpt>
      <trkpt lat="36.852694" lon="-4.913861">
        <ele>537.121</ele>
        <time>2018-03-31T13:28:10Z</time>
      </trkpt>
      <trkpt lat="36.852708" lon="-4.913916">
        <ele>537.913</ele>
        <time>2018-03-31T13:28:12Z</time>
      </trkpt>
      <trkpt lat="36.852721" lon="-4.913975">
        <ele>538.908</ele>
        <time>2018-03-31T13:28:16Z</time>
      </trkpt>
      <trkpt lat="36.852715" lon="-4.914039">
        <ele>539.528</ele>
        <time>2018-03-31T13:28:19Z</time>
      </trkpt>
      <trkpt lat="36.852679" lon="-4.914100">
        <ele>539.919</ele>
        <time>2018-03-31T13:28:22Z</time>
      </trkpt>
      <trkpt lat="36.852644" lon="-4.914161">
        <ele>540.282</ele>
        <time>2018-03-31T13:28:25Z</time>
      </trkpt>
      <trkpt lat="36.852619" lon="-4.914225">
        <ele>540.388</ele>
        <time>2018-03-31T13:28:28Z</time>
      </trkpt>
      <trkpt lat="36.852613" lon="-4.914288">
        <ele>540.437</ele>
        <time>2018-03-31T13:28:31Z</time>
      </trkpt>
      <trkpt lat="36.852620" lon="-4.914346">
        <ele>540.774</ele>
        <time>2018-03-31T13:28:34Z</time>
      </trkpt>
      <trkpt lat="36.852640" lon="-4.914397">
        <ele>541.376</ele>
        <time>2018-03-31T13:28:37Z</time>
      </trkpt>
      <trkpt lat="36.852677" lon="-4.914453">
        <ele>542.238</ele>
        <time>2018-03-31T13:28:40Z</time>
      </trkpt>
      <trkpt lat="36.852706" lon="-4.914523">
        <ele>542.086</ele>
        <time>2018-03-31T13:28:43Z</time>
      </trkpt>
      <trkpt lat="36.852740" lon="-4.914587">
        <ele>542.060</ele>
        <time>2018-03-31T13:28:46Z</time>
      </trkpt>
      <trkpt lat="36.852775" lon="-4.914659">
        <ele>541.926</ele>
        <time>2018-03-31T13:28:49Z</time>
      </trkpt>
      <trkpt lat="36.852811" lon="-4.914725">
        <ele>542.108</ele>
        <time>2018-03-31T13:28:52Z</time>
      </trkpt>
      <trkpt lat="36.852856" lon="-4.914763">
        <ele>543.080</ele>
        <time>2018-03-31T13:28:55Z</time>
      </trkpt>
      <trkpt lat="36.852893" lon="-4.914814">
        <ele>543.821</ele>
        <time>2018-03-31T13:28:58Z</time>
      </trkpt>
      <trkpt lat="36.852928" lon="-4.914856">
        <ele>544.634</ele>
        <time>2018-03-31T13:29:01Z</time>
      </trkpt>
      <trkpt lat="36.852959" lon="-4.914897">
        <ele>545.020</ele>
        <time>2018-03-31T13:29:04Z</time>
      </trkpt>
      <trkpt lat="36.853011" lon="-4.914943">
        <ele>546.139</ele>
        <time>2018-03-31T13:29:08Z</time>
      </trkpt>
      <trkpt lat="36.853052" lon="-4.914971">
        <ele>547.176</ele>
        <time>2018-03-31T13:29:11Z</time>
      </trkpt>
      <trkpt lat="36.853101" lon="-4.914985">
        <ele>548.518</ele>
        <time>2018-03-31T13:29:14Z</time>
      </trkpt>
      <trkpt lat="36.853151" lon="-4.915002">
        <ele>550.180</ele>
        <time>2018-03-31T13:29:18Z</time>
      </trkpt>
      <trkpt lat="36.853199" lon="-4.915039">
        <ele>550.878</ele>
        <time>2018-03-31T13:29:21Z</time>
      </trkpt>
      <trkpt lat="36.853237" lon="-4.915070">
        <ele>551.733</ele>
        <time>2018-03-31T13:29:24Z</time>
      </trkpt>
      <trkpt lat="36.853290" lon="-4.915093">
        <ele>552.626</ele>
        <time>2018-03-31T13:29:27Z</time>
      </trkpt>
      <trkpt lat="36.853350" lon="-4.915105">
        <ele>554.308</ele>
        <time>2018-03-31T13:29:30Z</time>
      </trkpt>
      <trkpt lat="36.853389" lon="-4.915139">
        <ele>555.399</ele>
        <time>2018-03-31T13:29:33Z</time>
      </trkpt>
      <trkpt lat="36.853432" lon="-4.915169">
        <ele>555.870</ele>
        <time>2018-03-31T13:29:37Z</time>
      </trkpt>
      <trkpt lat="36.853468" lon="-4.915207">
        <ele>556.563</ele>
        <time>2018-03-31T13:29:41Z</time>
      </trkpt>
      <trkpt lat="36.853497" lon="-4.915259">
        <ele>556.229</ele>
        <time>2018-03-31T13:29:45Z</time>
      </trkpt>
      <trkpt lat="36.853541" lon="-4.915305">
        <ele>556.368</ele>
        <time>2018-03-31T13:29:48Z</time>
      </trkpt>
      <trkpt lat="36.853579" lon="-4.915336">
        <ele>556.065</ele>
        <time>2018-03-31T13:29:51Z</time>
      </trkpt>
      <trkpt lat="36.853630" lon="-4.915366">
        <ele>556.127</ele>
        <time>2018-03-31T13:29:54Z</time>
      </trkpt>
      <trkpt lat="36.853686" lon="-4.915379">
        <ele>556.179</ele>
        <time>2018-03-31T13:29:58Z</time>
      </trkpt>
      <trkpt lat="36.853739" lon="-4.915390">
        <ele>555.711</ele>
        <time>2018-03-31T13:30:02Z</time>
      </trkpt>
      <trkpt lat="36.853787" lon="-4.915412">
        <ele>554.821</ele>
        <time>2018-03-31T13:30:05Z</time>
      </trkpt>
      <trkpt lat="36.853845" lon="-4.915421">
        <ele>554.203</ele>
        <time>2018-03-31T13:30:09Z</time>
      </trkpt>
      <trkpt lat="36.853905" lon="-4.915420">
        <ele>556.908</ele>
        <time>2018-03-31T13:30:12Z</time>
      </trkpt>
      <trkpt lat="36.853950" lon="-4.915420">
        <ele>559.153</ele>
        <time>2018-03-31T13:30:15Z</time>
      </trkpt>
      <trkpt lat="36.853994" lon="-4.915430">
        <ele>559.924</ele>
        <time>2018-03-31T13:30:18Z</time>
      </trkpt>
      <trkpt lat="36.854041" lon="-4.915439">
        <ele>560.577</ele>
        <time>2018-03-31T13:30:21Z</time>
      </trkpt>
      <trkpt lat="36.854089" lon="-4.915442">
        <ele>560.743</ele>
        <time>2018-03-31T13:30:24Z</time>
      </trkpt>
      <trkpt lat="36.854144" lon="-4.915444">
        <ele>560.142</ele>
        <time>2018-03-31T13:30:27Z</time>
      </trkpt>
      <trkpt lat="36.854192" lon="-4.915460">
        <ele>559.049</ele>
        <time>2018-03-31T13:30:30Z</time>
      </trkpt>
      <trkpt lat="36.854248" lon="-4.915458">
        <ele>558.821</ele>
        <time>2018-03-31T13:30:33Z</time>
      </trkpt>
      <trkpt lat="36.854300" lon="-4.915469">
        <ele>559.263</ele>
        <time>2018-03-31T13:30:36Z</time>
      </trkpt>
      <trkpt lat="36.854347" lon="-4.915475">
        <ele>559.323</ele>
        <time>2018-03-31T13:30:39Z</time>
      </trkpt>
      <trkpt lat="36.854404" lon="-4.915483">
        <ele>559.283</ele>
        <time>2018-03-31T13:30:43Z</time>
      </trkpt>
      <trkpt lat="36.854449" lon="-4.915484">
        <ele>559.511</ele>
        <time>2018-03-31T13:30:46Z</time>
      </trkpt>
      <trkpt lat="36.854507" lon="-4.915497">
        <ele>560.208</ele>
        <time>2018-03-31T13:30:49Z</time>
      </trkpt>
      <trkpt lat="36.854564" lon="-4.915502">
        <ele>561.274</ele>
        <time>2018-03-31T13:30:52Z</time>
      </trkpt>
      <trkpt lat="36.854612" lon="-4.915505">
        <ele>561.835</ele>
        <time>2018-03-31T13:30:54Z</time>
      </trkpt>
      <trkpt lat="36.854673" lon="-4.915502">
        <ele>562.488</ele>
        <time>2018-03-31T13:30:57Z</time>
      </trkpt>
      <trkpt lat="36.854726" lon="-4.915500">
        <ele>562.784</ele>
        <time>2018-03-31T13:31:00Z</time>
      </trkpt>
      <trkpt lat="36.854777" lon="-4.915494">
        <ele>563.113</ele>
        <time>2018-03-31T13:31:03Z</time>
      </trkpt>
      <trkpt lat="36.854834" lon="-4.915495">
        <ele>563.660</ele>
        <time>2018-03-31T13:31:06Z</time>
      </trkpt>
      <trkpt lat="36.854892" lon="-4.915496">
        <ele>564.462</ele>
        <time>2018-03-31T13:31:09Z</time>
      </trkpt>
      <trkpt lat="36.854954" lon="-4.915491">
        <ele>565.444</ele>
        <time>2018-03-31T13:31:12Z</time>
      </trkpt>
      <trkpt lat="36.855009" lon="-4.915490">
        <ele>565.864</ele>
        <time>2018-03-31T13:31:15Z</time>
      </trkpt>
      <trkpt lat="36.855074" lon="-4.915500">
        <ele>566.106</ele>
        <time>2018-03-31T13:31:18Z</time>
      </trkpt>
      <trkpt lat="36.855130" lon="-4.915511">
        <ele>566.516</ele>
        <time>2018-03-31T13:31:21Z</time>
      </trkpt>
      <trkpt lat="36.855176" lon="-4.915545">
        <ele>566.808</ele>
        <time>2018-03-31T13:31:24Z</time>
      </trkpt>
      <trkpt lat="36.855195" lon="-4.915597">
        <ele>566.918</ele>
        <time>2018-03-31T13:31:26Z</time>
      </trkpt>
      <trkpt lat="36.855175" lon="-4.915663">
        <ele>566.739</ele>
        <time>2018-03-31T13:31:30Z</time>
      </trkpt>
      <trkpt lat="36.855123" lon="-4.915683">
        <ele>567.092</ele>
        <time>2018-03-31T13:31:33Z</time>
      </trkpt>
      <trkpt lat="36.855078" lon="-4.915705">
        <ele>567.488</ele>
        <time>2018-03-31T13:31:36Z</time>
      </trkpt>
      <trkpt lat="36.855031" lon="-4.915696">
        <ele>566.947</ele>
        <time>2018-03-31T13:31:40Z</time>
      </trkpt>
      <trkpt lat="36.854974" lon="-4.915707">
        <ele>569.454</ele>
        <time>2018-03-31T13:32:09Z</time>
      </trkpt>
      <trkpt lat="36.854918" lon="-4.915763">
        <ele>569.366</ele>
        <time>2018-03-31T13:32:12Z</time>
      </trkpt>
      <trkpt lat="36.854870" lon="-4.915784">
        <ele>569.048</ele>
        <time>2018-03-31T13:32:14Z</time>
      </trkpt>
      <trkpt lat="36.854821" lon="-4.915811">
        <ele>568.446</ele>
        <time>2018-03-31T13:32:16Z</time>
      </trkpt>
      <trkpt lat="36.854756" lon="-4.915863">
        <ele>567.788</ele>
        <time>2018-03-31T13:32:18Z</time>
      </trkpt>
      <trkpt lat="36.854714" lon="-4.915914">
        <ele>568.916</ele>
        <time>2018-03-31T13:32:20Z</time>
      </trkpt>
      <trkpt lat="36.854665" lon="-4.915977">
        <ele>569.808</ele>
        <time>2018-03-31T13:32:22Z</time>
      </trkpt>
      <trkpt lat="36.854622" lon="-4.916022">
        <ele>570.846</ele>
        <time>2018-03-31T13:32:24Z</time>
      </trkpt>
      <trkpt lat="36.854553" lon="-4.916042">
        <ele>570.957</ele>
        <time>2018-03-31T13:32:26Z</time>
      </trkpt>
      <trkpt lat="36.854490" lon="-4.916053">
        <ele>569.890</ele>
        <time>2018-03-31T13:32:28Z</time>
      </trkpt>
      <trkpt lat="36.854423" lon="-4.916051">
        <ele>568.726</ele>
        <time>2018-03-31T13:32:30Z</time>
      </trkpt>
      <trkpt lat="36.854356" lon="-4.916059">
        <ele>567.715</ele>
        <time>2018-03-31T13:32:32Z</time>
      </trkpt>
      <trkpt lat="36.854286" lon="-4.916074">
        <ele>567.062</ele>
        <time>2018-03-31T13:32:34Z</time>
      </trkpt>
      <trkpt lat="36.854228" lon="-4.916101">
        <ele>566.744</ele>
        <time>2018-03-31T13:32:36Z</time>
      </trkpt>
      <trkpt lat="36.854180" lon="-4.916142">
        <ele>566.976</ele>
        <time>2018-03-31T13:32:38Z</time>
      </trkpt>
      <trkpt lat="36.854143" lon="-4.916196">
        <ele>567.357</ele>
        <time>2018-03-31T13:32:40Z</time>
      </trkpt>
      <trkpt lat="36.854109" lon="-4.916253">
        <ele>567.800</ele>
        <time>2018-03-31T13:32:42Z</time>
      </trkpt>
      <trkpt lat="36.854083" lon="-4.916324">
        <ele>568.520</ele>
        <time>2018-03-31T13:32:44Z</time>
      </trkpt>
      <trkpt lat="36.854068" lon="-4.916401">
        <ele>569.708</ele>
        <time>2018-03-31T13:32:46Z</time>
      </trkpt>
      <trkpt lat="36.854055" lon="-4.916488">
        <ele>571.177</ele>
        <time>2018-03-31T13:32:48Z</time>
      </trkpt>
      <trkpt lat="36.854039" lon="-4.916562">
        <ele>572.398</ele>
        <time>2018-03-31T13:32:50Z</time>
      </trkpt>
      <trkpt lat="36.854033" lon="-4.916631">
        <ele>573.331</ele>
        <time>2018-03-31T13:32:52Z</time>
      </trkpt>
      <trkpt lat="36.854031" lon="-4.916689">
        <ele>574.317</ele>
        <time>2018-03-31T13:32:54Z</time>
      </trkpt>
      <trkpt lat="36.854049" lon="-4.916777">
        <ele>575.466</ele>
        <time>2018-03-31T13:32:57Z</time>
      </trkpt>
      <trkpt lat="36.854056" lon="-4.916833">
        <ele>576.113</ele>
        <time>2018-03-31T13:32:59Z</time>
      </trkpt>
      <trkpt lat="36.854072" lon="-4.916886">
        <ele>577.485</ele>
        <time>2018-03-31T13:33:02Z</time>
      </trkpt>
      <trkpt lat="36.854111" lon="-4.916934">
        <ele>577.917</ele>
        <time>2018-03-31T13:33:05Z</time>
      </trkpt>
      <trkpt lat="36.854157" lon="-4.916956">
        <ele>578.132</ele>
        <time>2018-03-31T13:33:08Z</time>
      </trkpt>
      <trkpt lat="36.854215" lon="-4.916957">
        <ele>578.492</ele>
        <time>2018-03-31T13:33:11Z</time>
      </trkpt>
      <trkpt lat="36.854259" lon="-4.916939">
        <ele>578.711</ele>
        <time>2018-03-31T13:33:13Z</time>
      </trkpt>
      <trkpt lat="36.854312" lon="-4.916920">
        <ele>579.208</ele>
        <time>2018-03-31T13:33:16Z</time>
      </trkpt>
      <trkpt lat="36.854368" lon="-4.916897">
        <ele>579.545</ele>
        <time>2018-03-31T13:33:19Z</time>
      </trkpt>
      <trkpt lat="36.854418" lon="-4.916862">
        <ele>580.146</ele>
        <time>2018-03-31T13:33:22Z</time>
      </trkpt>
      <trkpt lat="36.854460" lon="-4.916820">
        <ele>581.259</ele>
        <time>2018-03-31T13:33:25Z</time>
      </trkpt>
      <trkpt lat="36.854501" lon="-4.916782">
        <ele>582.715</ele>
        <time>2018-03-31T13:33:28Z</time>
      </trkpt>
      <trkpt lat="36.854544" lon="-4.916757">
        <ele>584.284</ele>
        <time>2018-03-31T13:33:32Z</time>
      </trkpt>
      <trkpt lat="36.854596" lon="-4.916742">
        <ele>585.771</ele>
        <time>2018-03-31T13:33:35Z</time>
      </trkpt>
      <trkpt lat="36.854643" lon="-4.916736">
        <ele>587.083</ele>
        <time>2018-03-31T13:33:38Z</time>
      </trkpt>
      <trkpt lat="36.854686" lon="-4.916756">
        <ele>587.885</ele>
        <time>2018-03-31T13:33:41Z</time>
      </trkpt>
      <trkpt lat="36.854730" lon="-4.916791">
        <ele>588.188</ele>
        <time>2018-03-31T13:33:44Z</time>
      </trkpt>
      <trkpt lat="36.854781" lon="-4.916841">
        <ele>588.224</ele>
        <time>2018-03-31T13:33:47Z</time>
      </trkpt>
      <trkpt lat="36.854834" lon="-4.916869">
        <ele>589.126</ele>
        <time>2018-03-31T13:33:50Z</time>
      </trkpt>
      <trkpt lat="36.854866" lon="-4.916914">
        <ele>589.708</ele>
        <time>2018-03-31T13:33:54Z</time>
      </trkpt>
      <trkpt lat="36.854875" lon="-4.916976">
        <ele>589.640</ele>
        <time>2018-03-31T13:33:57Z</time>
      </trkpt>
      <trkpt lat="36.854869" lon="-4.917046">
        <ele>589.951</ele>
        <time>2018-03-31T13:34:01Z</time>
      </trkpt>
      <trkpt lat="36.854860" lon="-4.917113">
        <ele>589.944</ele>
        <time>2018-03-31T13:34:05Z</time>
      </trkpt>
      <trkpt lat="36.854856" lon="-4.917172">
        <ele>589.890</ele>
        <time>2018-03-31T13:34:08Z</time>
      </trkpt>
      <trkpt lat="36.854856" lon="-4.917247">
        <ele>590.239</ele>
        <time>2018-03-31T13:34:11Z</time>
      </trkpt>
      <trkpt lat="36.854872" lon="-4.917305">
        <ele>589.356</ele>
        <time>2018-03-31T13:34:14Z</time>
      </trkpt>
      <trkpt lat="36.854892" lon="-4.917358">
        <ele>589.468</ele>
        <time>2018-03-31T13:34:17Z</time>
      </trkpt>
      <trkpt lat="36.854937" lon="-4.917376">
        <ele>590.360</ele>
        <time>2018-03-31T13:34:21Z</time>
      </trkpt>
      <trkpt lat="36.854998" lon="-4.917377">
        <ele>592.367</ele>
        <time>2018-03-31T13:34:24Z</time>
      </trkpt>
      <trkpt lat="36.855055" lon="-4.917355">
        <ele>594.381</ele>
        <time>2018-03-31T13:34:28Z</time>
      </trkpt>
      <trkpt lat="36.855110" lon="-4.917337">
        <ele>595.319</ele>
        <time>2018-03-31T13:34:32Z</time>
      </trkpt>
      <trkpt lat="36.855156" lon="-4.917336">
        <ele>595.808</ele>
        <time>2018-03-31T13:34:35Z</time>
      </trkpt>
      <trkpt lat="36.855208" lon="-4.917342">
        <ele>595.788</ele>
        <time>2018-03-31T13:34:39Z</time>
      </trkpt>
      <trkpt lat="36.855264" lon="-4.917321">
        <ele>596.649</ele>
        <time>2018-03-31T13:34:43Z</time>
      </trkpt>
      <trkpt lat="36.855319" lon="-4.917308">
        <ele>597.662</ele>
        <time>2018-03-31T13:34:47Z</time>
      </trkpt>
      <trkpt lat="36.855367" lon="-4.917289">
        <ele>598.818</ele>
        <time>2018-03-31T13:34:50Z</time>
      </trkpt>
      <trkpt lat="36.855412" lon="-4.917267">
        <ele>600.687</ele>
        <time>2018-03-31T13:34:53Z</time>
      </trkpt>
      <trkpt lat="36.855460" lon="-4.917291">
        <ele>601.464</ele>
        <time>2018-03-31T13:34:58Z</time>
      </trkpt>
      <trkpt lat="36.855513" lon="-4.917299">
        <ele>601.776</ele>
        <time>2018-03-31T13:35:01Z</time>
      </trkpt>
      <trkpt lat="36.855569" lon="-4.917284">
        <ele>603.328</ele>
        <time>2018-03-31T13:35:05Z</time>
      </trkpt>
      <trkpt lat="36.855622" lon="-4.917274">
        <ele>604.539</ele>
        <time>2018-03-31T13:35:09Z</time>
      </trkpt>
      <trkpt lat="36.855670" lon="-4.917276">
        <ele>605.201</ele>
        <time>2018-03-31T13:35:13Z</time>
      </trkpt>
      <trkpt lat="36.855725" lon="-4.917269">
        <ele>605.721</ele>
        <time>2018-03-31T13:35:16Z</time>
      </trkpt>
      <trkpt lat="36.855776" lon="-4.917287">
        <ele>606.408</ele>
        <time>2018-03-31T13:35:19Z</time>
      </trkpt>
      <trkpt lat="36.855826" lon="-4.917314">
        <ele>606.055</ele>
        <time>2018-03-31T13:35:22Z</time>
      </trkpt>
      <trkpt lat="36.855879" lon="-4.917352">
        <ele>604.656</ele>
        <time>2018-03-31T13:35:25Z</time>
      </trkpt>
      <trkpt lat="36.855932" lon="-4.917373">
        <ele>603.299</ele>
        <time>2018-03-31T13:35:28Z</time>
      </trkpt>
      <trkpt lat="36.855991" lon="-4.917386">
        <ele>602.735</ele>
        <time>2018-03-31T13:35:31Z</time>
      </trkpt>
      <trkpt lat="36.856049" lon="-4.917373">
        <ele>602.814</ele>
        <time>2018-03-31T13:35:34Z</time>
      </trkpt>
      <trkpt lat="36.856101" lon="-4.917349">
        <ele>603.791</ele>
        <time>2018-03-31T13:35:37Z</time>
      </trkpt>
      <trkpt lat="36.856150" lon="-4.917329">
        <ele>604.813</ele>
        <time>2018-03-31T13:35:40Z</time>
      </trkpt>
      <trkpt lat="36.856201" lon="-4.917304">
        <ele>604.435</ele>
        <time>2018-03-31T13:35:43Z</time>
      </trkpt>
      <trkpt lat="36.856243" lon="-4.917267">
        <ele>605.135</ele>
        <time>2018-03-31T13:35:46Z</time>
      </trkpt>
      <trkpt lat="36.856298" lon="-4.917234">
        <ele>605.586</ele>
        <time>2018-03-31T13:35:49Z</time>
      </trkpt>
      <trkpt lat="36.856344" lon="-4.917196">
        <ele>605.914</ele>
        <time>2018-03-31T13:35:52Z</time>
      </trkpt>
      <trkpt lat="36.856378" lon="-4.917151">
        <ele>606.608</ele>
        <time>2018-03-31T13:35:55Z</time>
      </trkpt>
      <trkpt lat="36.856419" lon="-4.917112">
        <ele>607.465</ele>
        <time>2018-03-31T13:35:59Z</time>
      </trkpt>
      <trkpt lat="36.856441" lon="-4.917056">
        <ele>608.026</ele>
        <time>2018-03-31T13:36:02Z</time>
      </trkpt>
      <trkpt lat="36.856479" lon="-4.917002">
        <ele>608.669</ele>
        <time>2018-03-31T13:36:06Z</time>
      </trkpt>
      <trkpt lat="36.856504" lon="-4.916946">
        <ele>609.425</ele>
        <time>2018-03-31T13:36:09Z</time>
      </trkpt>
      <trkpt lat="36.856534" lon="-4.916898">
        <ele>610.514</ele>
        <time>2018-03-31T13:36:12Z</time>
      </trkpt>
      <trkpt lat="36.856565" lon="-4.916853">
        <ele>611.361</ele>
        <time>2018-03-31T13:36:15Z</time>
      </trkpt>
      <trkpt lat="36.856589" lon="-4.916791">
        <ele>613.253</ele>
        <time>2018-03-31T13:36:19Z</time>
      </trkpt>
      <trkpt lat="36.856618" lon="-4.916742">
        <ele>614.485</ele>
        <time>2018-03-31T13:36:22Z</time>
      </trkpt>
      <trkpt lat="36.856653" lon="-4.916686">
        <ele>615.934</ele>
        <time>2018-03-31T13:36:26Z</time>
      </trkpt>
      <trkpt lat="36.856699" lon="-4.916646">
        <ele>616.555</ele>
        <time>2018-03-31T13:36:29Z</time>
      </trkpt>
      <trkpt lat="36.856741" lon="-4.916613">
        <ele>616.610</ele>
        <time>2018-03-31T13:36:34Z</time>
      </trkpt>
      <trkpt lat="36.856792" lon="-4.916599">
        <ele>616.208</ele>
        <time>2018-03-31T13:36:37Z</time>
      </trkpt>
      <trkpt lat="36.856838" lon="-4.916599">
        <ele>615.075</ele>
        <time>2018-03-31T13:36:40Z</time>
      </trkpt>
      <trkpt lat="36.856889" lon="-4.916574">
        <ele>614.546</ele>
        <time>2018-03-31T13:36:43Z</time>
      </trkpt>
      <trkpt lat="36.856933" lon="-4.916546">
        <ele>614.359</ele>
        <time>2018-03-31T13:36:46Z</time>
      </trkpt>
      <trkpt lat="36.856987" lon="-4.916508">
        <ele>614.465</ele>
        <time>2018-03-31T13:36:49Z</time>
      </trkpt>
      <trkpt lat="36.857048" lon="-4.916483">
        <ele>615.854</ele>
        <time>2018-03-31T13:36:52Z</time>
      </trkpt>
      <trkpt lat="36.857107" lon="-4.916491">
        <ele>616.211</ele>
        <time>2018-03-31T13:36:55Z</time>
      </trkpt>
      <trkpt lat="36.857160" lon="-4.916503">
        <ele>616.223</ele>
        <time>2018-03-31T13:36:58Z</time>
      </trkpt>
      <trkpt lat="36.857215" lon="-4.916514">
        <ele>616.145</ele>
        <time>2018-03-31T13:37:01Z</time>
      </trkpt>
      <trkpt lat="36.857271" lon="-4.916516">
        <ele>616.012</ele>
        <time>2018-03-31T13:37:04Z</time>
      </trkpt>
      <trkpt lat="36.857329" lon="-4.916494">
        <ele>616.332</ele>
        <time>2018-03-31T13:37:07Z</time>
      </trkpt>
      <trkpt lat="36.857386" lon="-4.916477">
        <ele>617.005</ele>
        <time>2018-03-31T13:37:10Z</time>
      </trkpt>
      <trkpt lat="36.857430" lon="-4.916457">
        <ele>617.708</ele>
        <time>2018-03-31T13:37:12Z</time>
      </trkpt>
      <trkpt lat="36.857496" lon="-4.916436">
        <ele>618.933</ele>
        <time>2018-03-31T13:37:15Z</time>
      </trkpt>
      <trkpt lat="36.857544" lon="-4.916418">
        <ele>619.584</ele>
        <time>2018-03-31T13:37:17Z</time>
      </trkpt>
      <trkpt lat="36.857607" lon="-4.916404">
        <ele>620.197</ele>
        <time>2018-03-31T13:37:20Z</time>
      </trkpt>
      <trkpt lat="36.857657" lon="-4.916381">
        <ele>620.443</ele>
        <time>2018-03-31T13:37:22Z</time>
      </trkpt>
      <trkpt lat="36.857709" lon="-4.916377">
        <ele>620.672</ele>
        <time>2018-03-31T13:37:24Z</time>
      </trkpt>
      <trkpt lat="36.857762" lon="-4.916372">
        <ele>620.119</ele>
        <time>2018-03-31T13:37:26Z</time>
      </trkpt>
      <trkpt lat="36.857817" lon="-4.916354">
        <ele>620.181</ele>
        <time>2018-03-31T13:37:28Z</time>
      </trkpt>
      <trkpt lat="36.857868" lon="-4.916346">
        <ele>620.393</ele>
        <time>2018-03-31T13:37:30Z</time>
      </trkpt>
      <trkpt lat="36.857930" lon="-4.916330">
        <ele>620.014</ele>
        <time>2018-03-31T13:37:32Z</time>
      </trkpt>
      <trkpt lat="36.857980" lon="-4.916324">
        <ele>619.954</ele>
        <time>2018-03-31T13:37:34Z</time>
      </trkpt>
      <trkpt lat="36.858032" lon="-4.916311">
        <ele>619.809</ele>
        <time>2018-03-31T13:37:36Z</time>
      </trkpt>
      <trkpt lat="36.858087" lon="-4.916295">
        <ele>619.808</ele>
        <time>2018-03-31T13:37:38Z</time>
      </trkpt>
      <trkpt lat="36.858133" lon="-4.916286">
        <ele>620.093</ele>
        <time>2018-03-31T13:37:40Z</time>
      </trkpt>
      <trkpt lat="36.858190" lon="-4.916276">
        <ele>620.334</ele>
        <time>2018-03-31T13:37:43Z</time>
      </trkpt>
      <trkpt lat="36.858250" lon="-4.916267">
        <ele>620.587</ele>
        <time>2018-03-31T13:37:46Z</time>
      </trkpt>
      <trkpt lat="36.858312" lon="-4.916248">
        <ele>620.783</ele>
        <time>2018-03-31T13:37:49Z</time>
      </trkpt>
      <trkpt lat="36.858366" lon="-4.916244">
        <ele>620.882</ele>
        <time>2018-03-31T13:37:51Z</time>
      </trkpt>
      <trkpt lat="36.858418" lon="-4.916225">
        <ele>621.069</ele>
        <time>2018-03-31T13:37:53Z</time>
      </trkpt>
      <trkpt lat="36.858483" lon="-4.916213">
        <ele>621.921</ele>
        <time>2018-03-31T13:37:56Z</time>
      </trkpt>
      <trkpt lat="36.858536" lon="-4.916209">
        <ele>622.153</ele>
        <time>2018-03-31T13:37:58Z</time>
      </trkpt>
      <trkpt lat="36.858585" lon="-4.916213">
        <ele>622.222</ele>
        <time>2018-03-31T13:38:00Z</time>
      </trkpt>
      <trkpt lat="36.858640" lon="-4.916258">
        <ele>622.362</ele>
        <time>2018-03-31T13:38:03Z</time>
      </trkpt>
      <trkpt lat="36.858658" lon="-4.916329">
        <ele>622.508</ele>
        <time>2018-03-31T13:38:05Z</time>
      </trkpt>
      <trkpt lat="36.858666" lon="-4.916398">
        <ele>622.608</ele>
        <time>2018-03-31T13:38:07Z</time>
      </trkpt>
      <trkpt lat="36.858670" lon="-4.916461">
        <ele>622.334</ele>
        <time>2018-03-31T13:38:09Z</time>
      </trkpt>
      <trkpt lat="36.858680" lon="-4.916528">
        <ele>621.955</ele>
        <time>2018-03-31T13:38:11Z</time>
      </trkpt>
      <trkpt lat="36.858676" lon="-4.916600">
        <ele>621.578</ele>
        <time>2018-03-31T13:38:13Z</time>
      </trkpt>
      <trkpt lat="36.858670" lon="-4.916664">
        <ele>620.714</ele>
        <time>2018-03-31T13:38:15Z</time>
      </trkpt>
      <trkpt lat="36.858668" lon="-4.916732">
        <ele>621.073</ele>
        <time>2018-03-31T13:38:17Z</time>
      </trkpt>
      <trkpt lat="36.858662" lon="-4.916817">
        <ele>621.840</ele>
        <time>2018-03-31T13:38:20Z</time>
      </trkpt>
      <trkpt lat="36.858655" lon="-4.916897">
        <ele>622.552</ele>
        <time>2018-03-31T13:38:22Z</time>
      </trkpt>
      <trkpt lat="36.858649" lon="-4.916962">
        <ele>623.144</ele>
        <time>2018-03-31T13:38:24Z</time>
      </trkpt>
      <trkpt lat="36.858627" lon="-4.917021">
        <ele>623.712</ele>
        <time>2018-03-31T13:38:26Z</time>
      </trkpt>
      <trkpt lat="36.858612" lon="-4.917085">
        <ele>624.132</ele>
        <time>2018-03-31T13:38:28Z</time>
      </trkpt>
      <trkpt lat="36.858579" lon="-4.917136">
        <ele>624.505</ele>
        <time>2018-03-31T13:38:30Z</time>
      </trkpt>
      <trkpt lat="36.858542" lon="-4.917194">
        <ele>624.908</ele>
        <time>2018-03-31T13:38:33Z</time>
      </trkpt>
      <trkpt lat="36.858507" lon="-4.917233">
        <ele>624.973</ele>
        <time>2018-03-31T13:38:35Z</time>
      </trkpt>
      <trkpt lat="36.858473" lon="-4.917272">
        <ele>624.914</ele>
        <time>2018-03-31T13:38:37Z</time>
      </trkpt>
      <trkpt lat="36.858425" lon="-4.917305">
        <ele>624.887</ele>
        <time>2018-03-31T13:38:39Z</time>
      </trkpt>
      <trkpt lat="36.858382" lon="-4.917323">
        <ele>624.573</ele>
        <time>2018-03-31T13:38:41Z</time>
      </trkpt>
      <trkpt lat="36.858343" lon="-4.917368">
        <ele>624.152</ele>
        <time>2018-03-31T13:38:43Z</time>
      </trkpt>
      <trkpt lat="36.858293" lon="-4.917422">
        <ele>624.119</ele>
        <time>2018-03-31T13:38:45Z</time>
      </trkpt>
      <trkpt lat="36.858255" lon="-4.917459">
        <ele>624.161</ele>
        <time>2018-03-31T13:38:47Z</time>
      </trkpt>
      <trkpt lat="36.858202" lon="-4.917497">
        <ele>623.993</ele>
        <time>2018-03-31T13:38:50Z</time>
      </trkpt>
      <trkpt lat="36.858171" lon="-4.917550">
        <ele>623.216</ele>
        <time>2018-03-31T13:38:53Z</time>
      </trkpt>
      <trkpt lat="36.858161" lon="-4.917610">
        <ele>621.776</ele>
        <time>2018-03-31T13:39:55Z</time>
      </trkpt>
      <trkpt lat="36.858196" lon="-4.917652">
        <ele>622.713</ele>
        <time>2018-03-31T13:39:58Z</time>
      </trkpt>
      <trkpt lat="36.858213" lon="-4.917713">
        <ele>623.408</ele>
        <time>2018-03-31T13:40:00Z</time>
      </trkpt>
      <trkpt lat="36.858251" lon="-4.917748">
        <ele>624.053</ele>
        <time>2018-03-31T13:40:02Z</time>
      </trkpt>
      <trkpt lat="36.858305" lon="-4.917774">
        <ele>625.724</ele>
        <time>2018-03-31T13:40:04Z</time>
      </trkpt>
      <trkpt lat="36.858355" lon="-4.917824">
        <ele>627.277</ele>
        <time>2018-03-31T13:40:06Z</time>
      </trkpt>
      <trkpt lat="36.858388" lon="-4.917893">
        <ele>629.053</ele>
        <time>2018-03-31T13:40:08Z</time>
      </trkpt>
      <trkpt lat="36.858394" lon="-4.917987">
        <ele>629.992</ele>
        <time>2018-03-31T13:40:10Z</time>
      </trkpt>
      <trkpt lat="36.858362" lon="-4.918080">
        <ele>629.539</ele>
        <time>2018-03-31T13:40:12Z</time>
      </trkpt>
      <trkpt lat="36.858333" lon="-4.918131">
        <ele>629.011</ele>
        <time>2018-03-31T13:40:13Z</time>
      </trkpt>
      <trkpt lat="36.858306" lon="-4.918177">
        <ele>628.273</ele>
        <time>2018-03-31T13:40:14Z</time>
      </trkpt>
      <trkpt lat="36.858253" lon="-4.918264">
        <ele>627.317</ele>
        <time>2018-03-31T13:40:16Z</time>
      </trkpt>
      <trkpt lat="36.858192" lon="-4.918337">
        <ele>626.787</ele>
        <time>2018-03-31T13:40:18Z</time>
      </trkpt>
      <trkpt lat="36.858137" lon="-4.918403">
        <ele>625.715</ele>
        <time>2018-03-31T13:40:20Z</time>
      </trkpt>
      <trkpt lat="36.858082" lon="-4.918479">
        <ele>624.708</ele>
        <time>2018-03-31T13:40:22Z</time>
      </trkpt>
      <trkpt lat="36.858055" lon="-4.918532">
        <ele>624.133</ele>
        <time>2018-03-31T13:40:23Z</time>
      </trkpt>
      <trkpt lat="36.857998" lon="-4.918613">
        <ele>623.514</ele>
        <time>2018-03-31T13:40:25Z</time>
      </trkpt>
      <trkpt lat="36.857960" lon="-4.918714">
        <ele>623.977</ele>
        <time>2018-03-31T13:40:27Z</time>
      </trkpt>
      <trkpt lat="36.857914" lon="-4.918771">
        <ele>624.743</ele>
        <time>2018-03-31T13:40:29Z</time>
      </trkpt>
      <trkpt lat="36.857879" lon="-4.918839">
        <ele>625.212</ele>
        <time>2018-03-31T13:40:31Z</time>
      </trkpt>
      <trkpt lat="36.857845" lon="-4.918896">
        <ele>625.739</ele>
        <time>2018-03-31T13:40:33Z</time>
      </trkpt>
      <trkpt lat="36.857812" lon="-4.918977">
        <ele>626.151</ele>
        <time>2018-03-31T13:40:35Z</time>
      </trkpt>
      <trkpt lat="36.857768" lon="-4.919051">
        <ele>626.383</ele>
        <time>2018-03-31T13:40:37Z</time>
      </trkpt>
      <trkpt lat="36.857710" lon="-4.919110">
        <ele>625.598</ele>
        <time>2018-03-31T13:40:39Z</time>
      </trkpt>
      <trkpt lat="36.857668" lon="-4.919168">
        <ele>624.515</ele>
        <time>2018-03-31T13:40:41Z</time>
      </trkpt>
      <trkpt lat="36.857636" lon="-4.919218">
        <ele>624.226</ele>
        <time>2018-03-31T13:40:43Z</time>
      </trkpt>
      <trkpt lat="36.857610" lon="-4.919268">
        <ele>623.908</ele>
        <time>2018-03-31T13:40:45Z</time>
      </trkpt>
      <trkpt lat="36.857581" lon="-4.919311">
        <ele>623.371</ele>
        <time>2018-03-31T13:41:08Z</time>
      </trkpt>
      <trkpt lat="36.857609" lon="-4.919260">
        <ele>623.362</ele>
        <time>2018-03-31T13:42:49Z</time>
      </trkpt>
      <trkpt lat="36.857644" lon="-4.919301">
        <ele>625.125</ele>
        <time>2018-03-31T13:43:32Z</time>
      </trkpt>
      <trkpt lat="36.857620" lon="-4.919369">
        <ele>625.231</ele>
        <time>2018-03-31T13:43:52Z</time>
      </trkpt>
      <trkpt lat="36.857611" lon="-4.919426">
        <ele>625.620</ele>
        <time>2018-03-31T13:43:54Z</time>
      </trkpt>
      <trkpt lat="36.857600" lon="-4.919493">
        <ele>625.887</ele>
        <time>2018-03-31T13:43:57Z</time>
      </trkpt>
      <trkpt lat="36.857599" lon="-4.919551">
        <ele>625.239</ele>
        <time>2018-03-31T13:43:59Z</time>
      </trkpt>
      <trkpt lat="36.857598" lon="-4.919617">
        <ele>625.091</ele>
        <time>2018-03-31T13:44:01Z</time>
      </trkpt>
      <trkpt lat="36.857606" lon="-4.919677">
        <ele>624.977</ele>
        <time>2018-03-31T13:44:03Z</time>
      </trkpt>
      <trkpt lat="36.857631" lon="-4.919728">
        <ele>625.261</ele>
        <time>2018-03-31T13:44:05Z</time>
      </trkpt>
      <trkpt lat="36.857677" lon="-4.919779">
        <ele>625.427</ele>
        <time>2018-03-31T13:44:07Z</time>
      </trkpt>
      <trkpt lat="36.857723" lon="-4.919820">
        <ele>625.508</ele>
        <time>2018-03-31T13:44:09Z</time>
      </trkpt>
      <trkpt lat="36.857769" lon="-4.919862">
        <ele>625.659</ele>
        <time>2018-03-31T13:44:11Z</time>
      </trkpt>
      <trkpt lat="36.857825" lon="-4.919903">
        <ele>625.740</ele>
        <time>2018-03-31T13:44:13Z</time>
      </trkpt>
      <trkpt lat="36.857875" lon="-4.919944">
        <ele>625.043</ele>
        <time>2018-03-31T13:44:15Z</time>
      </trkpt>
      <trkpt lat="36.857927" lon="-4.919977">
        <ele>624.669</ele>
        <time>2018-03-31T13:44:17Z</time>
      </trkpt>
      <trkpt lat="36.857974" lon="-4.920003">
        <ele>624.398</ele>
        <time>2018-03-31T13:44:19Z</time>
      </trkpt>
      <trkpt lat="36.858020" lon="-4.920022">
        <ele>624.075</ele>
        <time>2018-03-31T13:44:21Z</time>
      </trkpt>
      <trkpt lat="36.858079" lon="-4.920028">
        <ele>623.927</ele>
        <time>2018-03-31T13:44:23Z</time>
      </trkpt>
      <trkpt lat="36.858135" lon="-4.920027">
        <ele>624.219</ele>
        <time>2018-03-31T13:44:25Z</time>
      </trkpt>
      <trkpt lat="36.858199" lon="-4.920018">
        <ele>625.274</ele>
        <time>2018-03-31T13:44:27Z</time>
      </trkpt>
      <trkpt lat="36.858263" lon="-4.920028">
        <ele>627.056</ele>
        <time>2018-03-31T13:44:30Z</time>
      </trkpt>
      <trkpt lat="36.858316" lon="-4.920057">
        <ele>628.721</ele>
        <time>2018-03-31T13:44:33Z</time>
      </trkpt>
      <trkpt lat="36.858307" lon="-4.920142">
        <ele>629.608</ele>
        <time>2018-03-31T13:44:36Z</time>
      </trkpt>
      <trkpt lat="36.858291" lon="-4.920216">
        <ele>629.399</ele>
        <time>2018-03-31T13:44:38Z</time>
      </trkpt>
      <trkpt lat="36.858258" lon="-4.920301">
        <ele>628.490</ele>
        <time>2018-03-31T13:44:40Z</time>
      </trkpt>
      <trkpt lat="36.858224" lon="-4.920394">
        <ele>627.473</ele>
        <time>2018-03-31T13:44:42Z</time>
      </trkpt>
      <trkpt lat="36.858201" lon="-4.920443">
        <ele>627.239</ele>
        <time>2018-03-31T13:44:43Z</time>
      </trkpt>
      <trkpt lat="36.858174" lon="-4.920493">
        <ele>627.088</ele>
        <time>2018-03-31T13:44:44Z</time>
      </trkpt>
      <trkpt lat="36.858123" lon="-4.920582">
        <ele>626.595</ele>
        <time>2018-03-31T13:44:46Z</time>
      </trkpt>
      <trkpt lat="36.858092" lon="-4.920629">
        <ele>626.197</ele>
        <time>2018-03-31T13:44:47Z</time>
      </trkpt>
      <trkpt lat="36.858065" lon="-4.920674">
        <ele>625.649</ele>
        <time>2018-03-31T13:44:48Z</time>
      </trkpt>
      <trkpt lat="36.858028" lon="-4.920753">
        <ele>624.791</ele>
        <time>2018-03-31T13:44:50Z</time>
      </trkpt>
      <trkpt lat="36.857990" lon="-4.920843">
        <ele>623.981</ele>
        <time>2018-03-31T13:44:52Z</time>
      </trkpt>
      <trkpt lat="36.857977" lon="-4.920930">
        <ele>622.919</ele>
        <time>2018-03-31T13:44:54Z</time>
      </trkpt>
      <trkpt lat="36.857995" lon="-4.921021">
        <ele>622.308</ele>
        <time>2018-03-31T13:44:56Z</time>
      </trkpt>
      <trkpt lat="36.858036" lon="-4.921117">
        <ele>622.961</ele>
        <time>2018-03-31T13:44:58Z</time>
      </trkpt>
      <trkpt lat="36.858090" lon="-4.921191">
        <ele>624.012</ele>
        <time>2018-03-31T13:45:00Z</time>
      </trkpt>
      <trkpt lat="36.858159" lon="-4.921250">
        <ele>624.435</ele>
        <time>2018-03-31T13:45:02Z</time>
      </trkpt>
      <trkpt lat="36.858231" lon="-4.921296">
        <ele>624.731</ele>
        <time>2018-03-31T13:45:04Z</time>
      </trkpt>
      <trkpt lat="36.858275" lon="-4.921356">
        <ele>625.330</ele>
        <time>2018-03-31T13:45:06Z</time>
      </trkpt>
      <trkpt lat="36.858271" lon="-4.921464">
        <ele>625.457</ele>
        <time>2018-03-31T13:45:08Z</time>
      </trkpt>
      <trkpt lat="36.858255" lon="-4.921550">
        <ele>625.559</ele>
        <time>2018-03-31T13:45:10Z</time>
      </trkpt>
      <trkpt lat="36.858231" lon="-4.921637">
        <ele>623.381</ele>
        <time>2018-03-31T13:45:12Z</time>
      </trkpt>
      <trkpt lat="36.858195" lon="-4.921729">
        <ele>620.366</ele>
        <time>2018-03-31T13:45:14Z</time>
      </trkpt>
      <trkpt lat="36.858163" lon="-4.921829">
        <ele>618.629</ele>
        <time>2018-03-31T13:45:16Z</time>
      </trkpt>
      <trkpt lat="36.858143" lon="-4.921880">
        <ele>618.021</ele>
        <time>2018-03-31T13:45:17Z</time>
      </trkpt>
      <trkpt lat="36.858124" lon="-4.921945">
        <ele>617.608</ele>
        <time>2018-03-31T13:45:18Z</time>
      </trkpt>
      <trkpt lat="36.858106" lon="-4.922001">
        <ele>617.348</ele>
        <time>2018-03-31T13:45:19Z</time>
      </trkpt>
      <trkpt lat="36.858095" lon="-4.922059">
        <ele>615.959</ele>
        <time>2018-03-31T13:45:20Z</time>
      </trkpt>
      <trkpt lat="36.858081" lon="-4.922118">
        <ele>615.632</ele>
        <time>2018-03-31T13:45:21Z</time>
      </trkpt>
      <trkpt lat="36.858078" lon="-4.922181">
        <ele>615.258</ele>
        <time>2018-03-31T13:45:22Z</time>
      </trkpt>
      <trkpt lat="36.858098" lon="-4.922270">
        <ele>614.567</ele>
        <time>2018-03-31T13:45:24Z</time>
      </trkpt>
      <trkpt lat="36.858167" lon="-4.922329">
        <ele>614.094</ele>
        <time>2018-03-31T13:45:26Z</time>
      </trkpt>
      <trkpt lat="36.858230" lon="-4.922351">
        <ele>613.756</ele>
        <time>2018-03-31T13:45:28Z</time>
      </trkpt>
      <trkpt lat="36.858305" lon="-4.922359">
        <ele>613.688</ele>
        <time>2018-03-31T13:45:30Z</time>
      </trkpt>
      <trkpt lat="36.858388" lon="-4.922361">
        <ele>613.421</ele>
        <time>2018-03-31T13:45:32Z</time>
      </trkpt>
      <trkpt lat="36.858433" lon="-4.922361">
        <ele>613.341</ele>
        <time>2018-03-31T13:45:33Z</time>
      </trkpt>
      <trkpt lat="36.858516" lon="-4.922358">
        <ele>612.905</ele>
        <time>2018-03-31T13:45:35Z</time>
      </trkpt>
      <trkpt lat="36.858560" lon="-4.922400">
        <ele>612.908</ele>
        <time>2018-03-31T13:45:37Z</time>
      </trkpt>
      <trkpt lat="36.858590" lon="-4.922478">
        <ele>613.314</ele>
        <time>2018-03-31T13:45:39Z</time>
      </trkpt>
      <trkpt lat="36.858635" lon="-4.922551">
        <ele>612.885</ele>
        <time>2018-03-31T13:45:41Z</time>
      </trkpt>
      <trkpt lat="36.858684" lon="-4.922612">
        <ele>612.458</ele>
        <time>2018-03-31T13:45:43Z</time>
      </trkpt>
      <trkpt lat="36.858717" lon="-4.922669">
        <ele>612.714</ele>
        <time>2018-03-31T13:45:45Z</time>
      </trkpt>
      <trkpt lat="36.858758" lon="-4.922730">
        <ele>613.233</ele>
        <time>2018-03-31T13:45:47Z</time>
      </trkpt>
      <trkpt lat="36.858808" lon="-4.922787">
        <ele>613.090</ele>
        <time>2018-03-31T13:45:49Z</time>
      </trkpt>
      <trkpt lat="36.858860" lon="-4.922835">
        <ele>612.512</ele>
        <time>2018-03-31T13:45:51Z</time>
      </trkpt>
      <trkpt lat="36.858909" lon="-4.922888">
        <ele>612.434</ele>
        <time>2018-03-31T13:45:53Z</time>
      </trkpt>
      <trkpt lat="36.858957" lon="-4.922948">
        <ele>612.718</ele>
        <time>2018-03-31T13:45:55Z</time>
      </trkpt>
      <trkpt lat="36.859006" lon="-4.922995">
        <ele>613.598</ele>
        <time>2018-03-31T13:45:57Z</time>
      </trkpt>
      <trkpt lat="36.859064" lon="-4.923026">
        <ele>613.817</ele>
        <time>2018-03-31T13:45:59Z</time>
      </trkpt>
      <trkpt lat="36.859105" lon="-4.923078">
        <ele>614.208</ele>
        <time>2018-03-31T13:46:01Z</time>
      </trkpt>
      <trkpt lat="36.859140" lon="-4.923139">
        <ele>614.383</ele>
        <time>2018-03-31T13:46:03Z</time>
      </trkpt>
      <trkpt lat="36.859175" lon="-4.923204">
        <ele>614.694</ele>
        <time>2018-03-31T13:46:05Z</time>
      </trkpt>
      <trkpt lat="36.859197" lon="-4.923280">
        <ele>614.867</ele>
        <time>2018-03-31T13:46:07Z</time>
      </trkpt>
      <trkpt lat="36.859199" lon="-4.923370">
        <ele>615.083</ele>
        <time>2018-03-31T13:46:09Z</time>
      </trkpt>
      <trkpt lat="36.859165" lon="-4.923465">
        <ele>615.212</ele>
        <time>2018-03-31T13:46:11Z</time>
      </trkpt>
      <trkpt lat="36.859145" lon="-4.923547">
        <ele>615.229</ele>
        <time>2018-03-31T13:46:13Z</time>
      </trkpt>
      <trkpt lat="36.859133" lon="-4.923625">
        <ele>615.031</ele>
        <time>2018-03-31T13:46:15Z</time>
      </trkpt>
      <trkpt lat="36.859133" lon="-4.923712">
        <ele>615.013</ele>
        <time>2018-03-31T13:46:17Z</time>
      </trkpt>
      <trkpt lat="36.859166" lon="-4.923761">
        <ele>616.391</ele>
        <time>2018-03-31T13:46:19Z</time>
      </trkpt>
      <trkpt lat="36.859228" lon="-4.923772">
        <ele>618.281</ele>
        <time>2018-03-31T13:46:21Z</time>
      </trkpt>
      <trkpt lat="36.859297" lon="-4.923782">
        <ele>619.719</ele>
        <time>2018-03-31T13:46:23Z</time>
      </trkpt>
      <trkpt lat="36.859347" lon="-4.923773">
        <ele>620.408</ele>
        <time>2018-03-31T13:46:25Z</time>
      </trkpt>
      <trkpt lat="36.859400" lon="-4.923761">
        <ele>620.151</ele>
        <time>2018-03-31T13:46:27Z</time>
      </trkpt>
      <trkpt lat="36.859443" lon="-4.923725">
        <ele>619.332</ele>
        <time>2018-03-31T13:46:29Z</time>
      </trkpt>
      <trkpt lat="36.859497" lon="-4.923701">
        <ele>618.655</ele>
        <time>2018-03-31T13:46:31Z</time>
      </trkpt>
      <trkpt lat="36.859540" lon="-4.923724">
        <ele>617.831</ele>
        <time>2018-03-31T13:46:32Z</time>
      </trkpt>
      <trkpt lat="36.859599" lon="-4.923702">
        <ele>616.550</ele>
        <time>2018-03-31T13:46:34Z</time>
      </trkpt>
      <trkpt lat="36.859655" lon="-4.923678">
        <ele>615.427</ele>
        <time>2018-03-31T13:46:36Z</time>
      </trkpt>
      <trkpt lat="36.859715" lon="-4.923658">
        <ele>614.839</ele>
        <time>2018-03-31T13:46:38Z</time>
      </trkpt>
      <trkpt lat="36.859768" lon="-4.923637">
        <ele>614.391</ele>
        <time>2018-03-31T13:46:40Z</time>
      </trkpt>
      <trkpt lat="36.859836" lon="-4.923614">
        <ele>613.588</ele>
        <time>2018-03-31T13:46:42Z</time>
      </trkpt>
      <trkpt lat="36.859903" lon="-4.923611">
        <ele>612.124</ele>
        <time>2018-03-31T13:46:44Z</time>
      </trkpt>
      <trkpt lat="36.859963" lon="-4.923611">
        <ele>610.826</ele>
        <time>2018-03-31T13:46:46Z</time>
      </trkpt>
      <trkpt lat="36.860034" lon="-4.923595">
        <ele>609.308</ele>
        <time>2018-03-31T13:46:48Z</time>
      </trkpt>
      <trkpt lat="36.860113" lon="-4.923578">
        <ele>608.330</ele>
        <time>2018-03-31T13:46:50Z</time>
      </trkpt>
      <trkpt lat="36.860187" lon="-4.923579">
        <ele>607.791</ele>
        <time>2018-03-31T13:46:52Z</time>
      </trkpt>
      <trkpt lat="36.860261" lon="-4.923570">
        <ele>607.214</ele>
        <time>2018-03-31T13:46:54Z</time>
      </trkpt>
      <trkpt lat="36.860316" lon="-4.923570">
        <ele>606.730</ele>
        <time>2018-03-31T13:46:55Z</time>
      </trkpt>
      <trkpt lat="36.860379" lon="-4.923585">
        <ele>606.269</ele>
        <time>2018-03-31T13:46:56Z</time>
      </trkpt>
      <trkpt lat="36.860445" lon="-4.923607">
        <ele>605.556</ele>
        <time>2018-03-31T13:46:57Z</time>
      </trkpt>
      <trkpt lat="36.860526" lon="-4.923639">
        <ele>604.568</ele>
        <time>2018-03-31T13:46:58Z</time>
      </trkpt>
      <trkpt lat="36.860623" lon="-4.923653">
        <ele>603.540</ele>
        <time>2018-03-31T13:46:59Z</time>
      </trkpt>
      <trkpt lat="36.860687" lon="-4.923675">
        <ele>602.912</ele>
        <time>2018-03-31T13:47:00Z</time>
      </trkpt>
      <trkpt lat="36.860736" lon="-4.923687">
        <ele>602.132</ele>
        <time>2018-03-31T13:47:01Z</time>
      </trkpt>
      <trkpt lat="36.860785" lon="-4.923719">
        <ele>601.505</ele>
        <time>2018-03-31T13:47:02Z</time>
      </trkpt>
      <trkpt lat="36.860864" lon="-4.923752">
        <ele>600.408</ele>
        <time>2018-03-31T13:47:04Z</time>
      </trkpt>
      <trkpt lat="36.860920" lon="-4.923804">
        <ele>599.323</ele>
        <time>2018-03-31T13:47:06Z</time>
      </trkpt>
      <trkpt lat="36.860944" lon="-4.923855">
        <ele>598.814</ele>
        <time>2018-03-31T13:47:08Z</time>
      </trkpt>
      <trkpt lat="36.860934" lon="-4.923919">
        <ele>597.587</ele>
        <time>2018-03-31T13:47:11Z</time>
      </trkpt>
      <trkpt lat="36.860902" lon="-4.923984">
        <ele>597.143</ele>
        <time>2018-03-31T13:47:13Z</time>
      </trkpt>
      <trkpt lat="36.860858" lon="-4.924061">
        <ele>596.652</ele>
        <time>2018-03-31T13:47:16Z</time>
      </trkpt>
      <trkpt lat="36.860803" lon="-4.924119">
        <ele>597.449</ele>
        <time>2018-03-31T13:47:18Z</time>
      </trkpt>
      <trkpt lat="36.860744" lon="-4.924165">
        <ele>598.261</ele>
        <time>2018-03-31T13:47:20Z</time>
      </trkpt>
      <trkpt lat="36.860699" lon="-4.924219">
        <ele>598.483</ele>
        <time>2018-03-31T13:47:22Z</time>
      </trkpt>
      <trkpt lat="36.860655" lon="-4.924266">
        <ele>597.814</ele>
        <time>2018-03-31T13:47:25Z</time>
      </trkpt>
      <trkpt lat="36.860606" lon="-4.924275">
        <ele>598.754</ele>
        <time>2018-03-31T13:47:28Z</time>
      </trkpt>
      <trkpt lat="36.860554" lon="-4.924300">
        <ele>601.209</ele>
        <time>2018-03-31T13:47:31Z</time>
      </trkpt>
      <trkpt lat="36.860496" lon="-4.924328">
        <ele>606.108</ele>
        <time>2018-03-31T13:47:34Z</time>
      </trkpt>
      <trkpt lat="36.860439" lon="-4.924364">
        <ele>608.923</ele>
        <time>2018-03-31T13:47:36Z</time>
      </trkpt>
      <trkpt lat="36.860380" lon="-4.924383">
        <ele>611.784</ele>
        <time>2018-03-31T13:47:38Z</time>
      </trkpt>
      <trkpt lat="36.860305" lon="-4.924393">
        <ele>613.527</ele>
        <time>2018-03-31T13:47:40Z</time>
      </trkpt>
      <trkpt lat="36.860222" lon="-4.924396">
        <ele>614.943</ele>
        <time>2018-03-31T13:47:42Z</time>
      </trkpt>
      <trkpt lat="36.860151" lon="-4.924410">
        <ele>616.742</ele>
        <time>2018-03-31T13:47:44Z</time>
      </trkpt>
      <trkpt lat="36.860081" lon="-4.924428">
        <ele>618.939</ele>
        <time>2018-03-31T13:47:46Z</time>
      </trkpt>
      <trkpt lat="36.860018" lon="-4.924444">
        <ele>621.621</ele>
        <time>2018-03-31T13:47:48Z</time>
      </trkpt>
      <trkpt lat="36.859931" lon="-4.924476">
        <ele>623.923</ele>
        <time>2018-03-31T13:47:50Z</time>
      </trkpt>
      <trkpt lat="36.859871" lon="-4.924496">
        <ele>626.499</ele>
        <time>2018-03-31T13:47:52Z</time>
      </trkpt>
      <trkpt lat="36.859808" lon="-4.924505">
        <ele>629.407</ele>
        <time>2018-03-31T13:47:54Z</time>
      </trkpt>
      <trkpt lat="36.859747" lon="-4.924523">
        <ele>633.427</ele>
        <time>2018-03-31T13:47:56Z</time>
      </trkpt>
      <trkpt lat="36.859676" lon="-4.924539">
        <ele>637.608</ele>
        <time>2018-03-31T13:47:58Z</time>
      </trkpt>
      <trkpt lat="36.859606" lon="-4.924582">
        <ele>640.611</ele>
        <time>2018-03-31T13:48:00Z</time>
      </trkpt>
      <trkpt lat="36.859555" lon="-4.924649">
        <ele>643.042</ele>
        <time>2018-03-31T13:48:02Z</time>
      </trkpt>
      <trkpt lat="36.859531" lon="-4.924718">
        <ele>644.645</ele>
        <time>2018-03-31T13:48:04Z</time>
      </trkpt>
      <trkpt lat="36.859510" lon="-4.924805">
        <ele>646.041</ele>
        <time>2018-03-31T13:48:06Z</time>
      </trkpt>
      <trkpt lat="36.859495" lon="-4.924928">
        <ele>646.380</ele>
        <time>2018-03-31T13:48:08Z</time>
      </trkpt>
      <trkpt lat="36.859495" lon="-4.924991">
        <ele>645.357</ele>
        <time>2018-03-31T13:48:09Z</time>
      </trkpt>
      <trkpt lat="36.859505" lon="-4.925090">
        <ele>642.589</ele>
        <time>2018-03-31T13:48:11Z</time>
      </trkpt>
      <trkpt lat="36.859515" lon="-4.925177">
        <ele>639.831</ele>
        <time>2018-03-31T13:48:13Z</time>
      </trkpt>
      <trkpt lat="36.859531" lon="-4.925239">
        <ele>636.521</ele>
        <time>2018-03-31T13:48:15Z</time>
      </trkpt>
      <trkpt lat="36.859550" lon="-4.925300">
        <ele>632.541</ele>
        <time>2018-03-31T13:48:17Z</time>
      </trkpt>
      <trkpt lat="36.859574" lon="-4.925359">
        <ele>628.705</ele>
        <time>2018-03-31T13:48:19Z</time>
      </trkpt>
      <trkpt lat="36.859596" lon="-4.925430">
        <ele>625.808</ele>
        <time>2018-03-31T13:48:21Z</time>
      </trkpt>
      <trkpt lat="36.859614" lon="-4.925501">
        <ele>623.754</ele>
        <time>2018-03-31T13:48:23Z</time>
      </trkpt>
      <trkpt lat="36.859631" lon="-4.925559">
        <ele>622.425</ele>
        <time>2018-03-31T13:48:25Z</time>
      </trkpt>
      <trkpt lat="36.859640" lon="-4.925622">
        <ele>621.638</ele>
        <time>2018-03-31T13:48:27Z</time>
      </trkpt>
      <trkpt lat="36.859643" lon="-4.925679">
        <ele>620.864</ele>
        <time>2018-03-31T13:48:29Z</time>
      </trkpt>
      <trkpt lat="36.859640" lon="-4.925736">
        <ele>619.143</ele>
        <time>2018-03-31T13:48:32Z</time>
      </trkpt>
      <trkpt lat="36.859666" lon="-4.925798">
        <ele>617.430</ele>
        <time>2018-03-31T13:48:35Z</time>
      </trkpt>
      <trkpt lat="36.859711" lon="-4.925861">
        <ele>618.022</ele>
        <time>2018-03-31T13:48:38Z</time>
      </trkpt>
      <trkpt lat="36.859748" lon="-4.925898">
        <ele>619.054</ele>
        <time>2018-03-31T13:48:40Z</time>
      </trkpt>
      <trkpt lat="36.859808" lon="-4.925925">
        <ele>621.441</ele>
        <time>2018-03-31T13:48:43Z</time>
      </trkpt>
      <trkpt lat="36.859859" lon="-4.925943">
        <ele>622.381</ele>
        <time>2018-03-31T13:48:46Z</time>
      </trkpt>
      <trkpt lat="36.859900" lon="-4.925974">
        <ele>622.809</ele>
        <time>2018-03-31T13:48:48Z</time>
      </trkpt>
      <trkpt lat="36.859940" lon="-4.926020">
        <ele>623.108</ele>
        <time>2018-03-31T13:48:50Z</time>
      </trkpt>
      <trkpt lat="36.859985" lon="-4.926053">
        <ele>623.666</ele>
        <time>2018-03-31T13:48:55Z</time>
      </trkpt>
      <trkpt lat="36.859926" lon="-4.926085">
        <ele>626.297</ele>
        <time>2018-03-31T13:49:02Z</time>
      </trkpt>
      <trkpt lat="36.859884" lon="-4.926125">
        <ele>627.340</ele>
        <time>2018-03-31T13:49:04Z</time>
      </trkpt>
      <trkpt lat="36.859836" lon="-4.926180">
        <ele>629.676</ele>
        <time>2018-03-31T13:49:06Z</time>
      </trkpt>
      <trkpt lat="36.859794" lon="-4.926221">
        <ele>631.545</ele>
        <time>2018-03-31T13:49:08Z</time>
      </trkpt>
      <trkpt lat="36.859749" lon="-4.926262">
        <ele>632.462</ele>
        <time>2018-03-31T13:49:10Z</time>
      </trkpt>
      <trkpt lat="36.859711" lon="-4.926292">
        <ele>633.084</ele>
        <time>2018-03-31T13:49:12Z</time>
      </trkpt>
      <trkpt lat="36.859676" lon="-4.926355">
        <ele>634.616</ele>
        <time>2018-03-31T13:49:15Z</time>
      </trkpt>
      <trkpt lat="36.859631" lon="-4.926400">
        <ele>635.788</ele>
        <time>2018-03-31T13:49:17Z</time>
      </trkpt>
      <trkpt lat="36.859608" lon="-4.926451">
        <ele>636.824</ele>
        <time>2018-03-31T13:49:19Z</time>
      </trkpt>
      <trkpt lat="36.859584" lon="-4.926518">
        <ele>636.826</ele>
        <time>2018-03-31T13:49:22Z</time>
      </trkpt>
      <trkpt lat="36.859577" lon="-4.926577">
        <ele>636.208</ele>
        <time>2018-03-31T13:49:25Z</time>
      </trkpt>
      <trkpt lat="36.859595" lon="-4.926647">
        <ele>634.780</ele>
        <time>2018-03-31T13:49:28Z</time>
      </trkpt>
      <trkpt lat="36.859627" lon="-4.926705">
        <ele>632.871</ele>
        <time>2018-03-31T13:49:32Z</time>
      </trkpt>
      <trkpt lat="36.859673" lon="-4.926726">
        <ele>631.024</ele>
        <time>2018-03-31T13:49:35Z</time>
      </trkpt>
      <trkpt lat="36.859727" lon="-4.926729">
        <ele>631.480</ele>
        <time>2018-03-31T13:49:38Z</time>
      </trkpt>
      <trkpt lat="36.859773" lon="-4.926741">
        <ele>632.759</ele>
        <time>2018-03-31T13:49:41Z</time>
      </trkpt>
      <trkpt lat="36.859826" lon="-4.926760">
        <ele>633.746</ele>
        <time>2018-03-31T13:49:44Z</time>
      </trkpt>
      <trkpt lat="36.859875" lon="-4.926783">
        <ele>635.388</ele>
        <time>2018-03-31T13:49:47Z</time>
      </trkpt>
      <trkpt lat="36.859924" lon="-4.926810">
        <ele>636.960</ele>
        <time>2018-03-31T13:49:50Z</time>
      </trkpt>
      <trkpt lat="36.859958" lon="-4.926860">
        <ele>638.019</ele>
        <time>2018-03-31T13:49:53Z</time>
      </trkpt>
      <trkpt lat="36.859971" lon="-4.926920">
        <ele>641.109</ele>
        <time>2018-03-31T13:49:57Z</time>
      </trkpt>
      <trkpt lat="36.859965" lon="-4.926992">
        <ele>642.819</ele>
        <time>2018-03-31T13:50:00Z</time>
      </trkpt>
      <trkpt lat="36.859931" lon="-4.927054">
        <ele>643.708</ele>
        <time>2018-03-31T13:50:03Z</time>
      </trkpt>
      <trkpt lat="36.859891" lon="-4.927111">
        <ele>644.663</ele>
        <time>2018-03-31T13:50:06Z</time>
      </trkpt>
      <trkpt lat="36.859845" lon="-4.927151">
        <ele>645.384</ele>
        <time>2018-03-31T13:50:08Z</time>
      </trkpt>
      <trkpt lat="36.859789" lon="-4.927173">
        <ele>646.017</ele>
        <time>2018-03-31T13:50:11Z</time>
      </trkpt>
      <trkpt lat="36.859767" lon="-4.927225">
        <ele>646.053</ele>
        <time>2018-03-31T13:50:14Z</time>
      </trkpt>
      <trkpt lat="36.859754" lon="-4.927298">
        <ele>645.692</ele>
        <time>2018-03-31T13:50:17Z</time>
      </trkpt>
      <trkpt lat="36.859751" lon="-4.927358">
        <ele>645.379</ele>
        <time>2018-03-31T13:50:19Z</time>
      </trkpt>
      <trkpt lat="36.859753" lon="-4.927415">
        <ele>644.791</ele>
        <time>2018-03-31T13:50:21Z</time>
      </trkpt>
      <trkpt lat="36.859759" lon="-4.927498">
        <ele>643.553</ele>
        <time>2018-03-31T13:50:24Z</time>
      </trkpt>
      <trkpt lat="36.859773" lon="-4.927580">
        <ele>643.164</ele>
        <time>2018-03-31T13:50:27Z</time>
      </trkpt>
      <trkpt lat="36.859814" lon="-4.927632">
        <ele>641.906</ele>
        <time>2018-03-31T13:50:30Z</time>
      </trkpt>
      <trkpt lat="36.859879" lon="-4.927664">
        <ele>640.816</ele>
        <time>2018-03-31T13:50:34Z</time>
      </trkpt>
      <trkpt lat="36.859942" lon="-4.927685">
        <ele>640.308</ele>
        <time>2018-03-31T13:50:37Z</time>
      </trkpt>
      <trkpt lat="36.860007" lon="-4.927676">
        <ele>640.158</ele>
        <time>2018-03-31T13:50:40Z</time>
      </trkpt>
      <trkpt lat="36.860063" lon="-4.927693">
        <ele>639.319</ele>
        <time>2018-03-31T13:50:43Z</time>
      </trkpt>
      <trkpt lat="36.860122" lon="-4.927684">
        <ele>637.652</ele>
        <time>2018-03-31T13:50:46Z</time>
      </trkpt>
      <trkpt lat="36.860176" lon="-4.927692">
        <ele>637.148</ele>
        <time>2018-03-31T13:50:50Z</time>
      </trkpt>
      <trkpt lat="36.860246" lon="-4.927716">
        <ele>637.037</ele>
        <time>2018-03-31T13:50:55Z</time>
      </trkpt>
      <trkpt lat="36.860307" lon="-4.927735">
        <ele>636.074</ele>
        <time>2018-03-31T13:50:58Z</time>
      </trkpt>
      <trkpt lat="36.860349" lon="-4.927771">
        <ele>635.576</ele>
        <time>2018-03-31T13:51:00Z</time>
      </trkpt>
      <trkpt lat="36.860411" lon="-4.927787">
        <ele>635.268</ele>
        <time>2018-03-31T13:51:02Z</time>
      </trkpt>
      <trkpt lat="36.860464" lon="-4.927795">
        <ele>635.223</ele>
        <time>2018-03-31T13:51:04Z</time>
      </trkpt>
      <trkpt lat="36.860533" lon="-4.927803">
        <ele>635.283</ele>
        <time>2018-03-31T13:51:06Z</time>
      </trkpt>
      <trkpt lat="36.860585" lon="-4.927813">
        <ele>635.411</ele>
        <time>2018-03-31T13:51:08Z</time>
      </trkpt>
      <trkpt lat="36.860644" lon="-4.927809">
        <ele>635.808</ele>
        <time>2018-03-31T13:51:10Z</time>
      </trkpt>
      <trkpt lat="36.860703" lon="-4.927816">
        <ele>636.144</ele>
        <time>2018-03-31T13:51:13Z</time>
      </trkpt>
      <trkpt lat="36.860752" lon="-4.927839">
        <ele>636.355</ele>
        <time>2018-03-31T13:51:15Z</time>
      </trkpt>
      <trkpt lat="36.860785" lon="-4.927882">
        <ele>636.258</ele>
        <time>2018-03-31T13:51:17Z</time>
      </trkpt>
      <trkpt lat="36.860777" lon="-4.927958">
        <ele>636.934</ele>
        <time>2018-03-31T13:51:20Z</time>
      </trkpt>
      <trkpt lat="36.860771" lon="-4.928031">
        <ele>637.163</ele>
        <time>2018-03-31T13:51:22Z</time>
      </trkpt>
      <trkpt lat="36.860767" lon="-4.928107">
        <ele>636.910</ele>
        <time>2018-03-31T13:51:24Z</time>
      </trkpt>
      <trkpt lat="36.860757" lon="-4.928194">
        <ele>636.692</ele>
        <time>2018-03-31T13:51:26Z</time>
      </trkpt>
      <trkpt lat="36.860777" lon="-4.928283">
        <ele>637.524</ele>
        <time>2018-03-31T13:51:28Z</time>
      </trkpt>
      <trkpt lat="36.860805" lon="-4.928352">
        <ele>637.671</ele>
        <time>2018-03-31T13:51:31Z</time>
      </trkpt>
      <trkpt lat="36.860812" lon="-4.928433">
        <ele>636.041</ele>
        <time>2018-03-31T13:51:34Z</time>
      </trkpt>
      <trkpt lat="36.860853" lon="-4.928468">
        <ele>635.715</ele>
        <time>2018-03-31T13:51:36Z</time>
      </trkpt>
      <trkpt lat="36.860902" lon="-4.928465">
        <ele>636.508</ele>
        <time>2018-03-31T13:51:38Z</time>
      </trkpt>
      <trkpt lat="36.860966" lon="-4.928442">
        <ele>637.679</ele>
        <time>2018-03-31T13:51:40Z</time>
      </trkpt>
      <trkpt lat="36.861031" lon="-4.928409">
        <ele>638.910</ele>
        <time>2018-03-31T13:51:42Z</time>
      </trkpt>
      <trkpt lat="36.861107" lon="-4.928382">
        <ele>639.423</ele>
        <time>2018-03-31T13:51:44Z</time>
      </trkpt>
      <trkpt lat="36.861171" lon="-4.928348">
        <ele>639.089</ele>
        <time>2018-03-31T13:51:46Z</time>
      </trkpt>
      <trkpt lat="36.861218" lon="-4.928328">
        <ele>638.968</ele>
        <time>2018-03-31T13:51:48Z</time>
      </trkpt>
      <trkpt lat="36.861266" lon="-4.928310">
        <ele>639.645</ele>
        <time>2018-03-31T13:51:50Z</time>
      </trkpt>
      <trkpt lat="36.861347" lon="-4.928320">
        <ele>641.347</ele>
        <time>2018-03-31T13:51:52Z</time>
      </trkpt>
      <trkpt lat="36.861427" lon="-4.928338">
        <ele>641.669</ele>
        <time>2018-03-31T13:51:54Z</time>
      </trkpt>
      <trkpt lat="36.861482" lon="-4.928374">
        <ele>641.639</ele>
        <time>2018-03-31T13:51:56Z</time>
      </trkpt>
      <trkpt lat="36.861548" lon="-4.928410">
        <ele>640.901</ele>
        <time>2018-03-31T13:51:58Z</time>
      </trkpt>
      <trkpt lat="36.861619" lon="-4.928445">
        <ele>639.921</ele>
        <time>2018-03-31T13:52:00Z</time>
      </trkpt>
      <trkpt lat="36.861688" lon="-4.928472">
        <ele>638.608</ele>
        <time>2018-03-31T13:52:02Z</time>
      </trkpt>
      <trkpt lat="36.861754" lon="-4.928504">
        <ele>637.895</ele>
        <time>2018-03-31T13:52:04Z</time>
      </trkpt>
      <trkpt lat="36.861826" lon="-4.928546">
        <ele>637.096</ele>
        <time>2018-03-31T13:52:06Z</time>
      </trkpt>
      <trkpt lat="36.861903" lon="-4.928573">
        <ele>636.149</ele>
        <time>2018-03-31T13:52:08Z</time>
      </trkpt>
      <trkpt lat="36.861954" lon="-4.928594">
        <ele>635.575</ele>
        <time>2018-03-31T13:52:10Z</time>
      </trkpt>
      <trkpt lat="36.861990" lon="-4.928642">
        <ele>634.594</ele>
        <time>2018-03-31T13:52:13Z</time>
      </trkpt>
      <trkpt lat="36.862015" lon="-4.928690">
        <ele>634.031</ele>
        <time>2018-03-31T13:52:16Z</time>
      </trkpt>
      <trkpt lat="36.862024" lon="-4.928773">
        <ele>635.383</ele>
        <time>2018-03-31T13:52:19Z</time>
      </trkpt>
      <trkpt lat="36.862037" lon="-4.928845">
        <ele>636.915</ele>
        <time>2018-03-31T13:52:22Z</time>
      </trkpt>
      <trkpt lat="36.862052" lon="-4.928900">
        <ele>638.543</ele>
        <time>2018-03-31T13:52:24Z</time>
      </trkpt>
      <trkpt lat="36.862053" lon="-4.928967">
        <ele>640.464</ele>
        <time>2018-03-31T13:52:26Z</time>
      </trkpt>
      <trkpt lat="36.862008" lon="-4.928969">
        <ele>640.510</ele>
        <time>2018-03-31T13:52:29Z</time>
      </trkpt>
      <trkpt lat="36.861953" lon="-4.928919">
        <ele>639.708</ele>
        <time>2018-03-31T13:52:32Z</time>
      </trkpt>
      <trkpt lat="36.861893" lon="-4.928884">
        <ele>638.966</ele>
        <time>2018-03-31T13:52:35Z</time>
      </trkpt>
      <trkpt lat="36.861848" lon="-4.928877">
        <ele>639.047</ele>
        <time>2018-03-31T13:52:37Z</time>
      </trkpt>
      <trkpt lat="36.861800" lon="-4.928870">
        <ele>638.120</ele>
        <time>2018-03-31T13:52:39Z</time>
      </trkpt>
      <trkpt lat="36.861749" lon="-4.928875">
        <ele>636.456</ele>
        <time>2018-03-31T13:52:41Z</time>
      </trkpt>
      <trkpt lat="36.861702" lon="-4.928861">
        <ele>635.825</ele>
        <time>2018-03-31T13:52:43Z</time>
      </trkpt>
      <trkpt lat="36.861646" lon="-4.928852">
        <ele>635.622</ele>
        <time>2018-03-31T13:52:45Z</time>
      </trkpt>
      <trkpt lat="36.861600" lon="-4.928833">
        <ele>634.564</ele>
        <time>2018-03-31T13:52:47Z</time>
      </trkpt>
      <trkpt lat="36.861541" lon="-4.928829">
        <ele>633.356</ele>
        <time>2018-03-31T13:52:50Z</time>
      </trkpt>
      <trkpt lat="36.861498" lon="-4.928855">
        <ele>632.775</ele>
        <time>2018-03-31T13:52:52Z</time>
      </trkpt>
      <trkpt lat="36.861448" lon="-4.928879">
        <ele>632.628</ele>
        <time>2018-03-31T13:52:56Z</time>
      </trkpt>
      <trkpt lat="36.861407" lon="-4.928905">
        <ele>633.020</ele>
        <time>2018-03-31T13:52:58Z</time>
      </trkpt>
      <trkpt lat="36.861355" lon="-4.928933">
        <ele>634.008</ele>
        <time>2018-03-31T13:53:00Z</time>
      </trkpt>
      <trkpt lat="36.861289" lon="-4.928990">
        <ele>635.379</ele>
        <time>2018-03-31T13:53:02Z</time>
      </trkpt>
      <trkpt lat="36.861236" lon="-4.929050">
        <ele>636.970</ele>
        <time>2018-03-31T13:53:04Z</time>
      </trkpt>
      <trkpt lat="36.861195" lon="-4.929109">
        <ele>639.563</ele>
        <time>2018-03-31T13:53:06Z</time>
      </trkpt>
      <trkpt lat="36.861152" lon="-4.929165">
        <ele>642.329</ele>
        <time>2018-03-31T13:53:08Z</time>
      </trkpt>
      <trkpt lat="36.861098" lon="-4.929218">
        <ele>644.398</ele>
        <time>2018-03-31T13:53:10Z</time>
      </trkpt>
      <trkpt lat="36.861040" lon="-4.929279">
        <ele>644.745</ele>
        <time>2018-03-31T13:53:12Z</time>
      </trkpt>
      <trkpt lat="36.860991" lon="-4.929324">
        <ele>645.217</ele>
        <time>2018-03-31T13:53:14Z</time>
      </trkpt>
      <trkpt lat="36.860941" lon="-4.929346">
        <ele>645.969</ele>
        <time>2018-03-31T13:53:16Z</time>
      </trkpt>
      <trkpt lat="36.860875" lon="-4.929364">
        <ele>645.881</ele>
        <time>2018-03-31T13:53:18Z</time>
      </trkpt>
      <trkpt lat="36.860793" lon="-4.929360">
        <ele>645.061</ele>
        <time>2018-03-31T13:53:20Z</time>
      </trkpt>
      <trkpt lat="36.860717" lon="-4.929378">
        <ele>644.017</ele>
        <time>2018-03-31T13:53:22Z</time>
      </trkpt>
      <trkpt lat="36.860643" lon="-4.929412">
        <ele>643.408</ele>
        <time>2018-03-31T13:53:24Z</time>
      </trkpt>
      <trkpt lat="36.860582" lon="-4.929459">
        <ele>644.540</ele>
        <time>2018-03-31T13:53:26Z</time>
      </trkpt>
      <trkpt lat="36.860522" lon="-4.929515">
        <ele>645.481</ele>
        <time>2018-03-31T13:53:28Z</time>
      </trkpt>
      <trkpt lat="36.860474" lon="-4.929576">
        <ele>646.284</ele>
        <time>2018-03-31T13:53:30Z</time>
      </trkpt>
      <trkpt lat="36.860433" lon="-4.929635">
        <ele>646.880</ele>
        <time>2018-03-31T13:53:32Z</time>
      </trkpt>
      <trkpt lat="36.860391" lon="-4.929669">
        <ele>647.279</ele>
        <time>2018-03-31T13:53:34Z</time>
      </trkpt>
      <trkpt lat="36.860344" lon="-4.929659">
        <ele>646.416</ele>
        <time>2018-03-31T13:53:36Z</time>
      </trkpt>
      <trkpt lat="36.860323" lon="-4.929571">
        <ele>645.238</ele>
        <time>2018-03-31T13:53:38Z</time>
      </trkpt>
      <trkpt lat="36.860319" lon="-4.929509">
        <ele>644.530</ele>
        <time>2018-03-31T13:53:39Z</time>
      </trkpt>
      <trkpt lat="36.860315" lon="-4.929443">
        <ele>643.753</ele>
        <time>2018-03-31T13:53:40Z</time>
      </trkpt>
      <trkpt lat="36.860304" lon="-4.929367">
        <ele>643.004</ele>
        <time>2018-03-31T13:53:41Z</time>
      </trkpt>
      <trkpt lat="36.860291" lon="-4.929289">
        <ele>641.914</ele>
        <time>2018-03-31T13:53:42Z</time>
      </trkpt>
      <trkpt lat="36.860275" lon="-4.929211">
        <ele>641.208</ele>
        <time>2018-03-31T13:53:43Z</time>
      </trkpt>
      <trkpt lat="36.860260" lon="-4.929130">
        <ele>640.497</ele>
        <time>2018-03-31T13:53:44Z</time>
      </trkpt>
      <trkpt lat="36.860246" lon="-4.929056">
        <ele>639.768</ele>
        <time>2018-03-31T13:53:45Z</time>
      </trkpt>
      <trkpt lat="36.860231" lon="-4.928990">
        <ele>639.391</ele>
        <time>2018-03-31T13:53:46Z</time>
      </trkpt>
      <trkpt lat="36.860215" lon="-4.928920">
        <ele>639.027</ele>
        <time>2018-03-31T13:53:47Z</time>
      </trkpt>
      <trkpt lat="36.860191" lon="-4.928858">
        <ele>638.776</ele>
        <time>2018-03-31T13:53:48Z</time>
      </trkpt>
      <trkpt lat="36.860155" lon="-4.928813">
        <ele>638.223</ele>
        <time>2018-03-31T13:53:49Z</time>
      </trkpt>
      <trkpt lat="36.860109" lon="-4.928773">
        <ele>637.485</ele>
        <time>2018-03-31T13:53:50Z</time>
      </trkpt>
      <trkpt lat="36.860061" lon="-4.928760">
        <ele>636.417</ele>
        <time>2018-03-31T13:53:51Z</time>
      </trkpt>
      <trkpt lat="36.859988" lon="-4.928750">
        <ele>635.078</ele>
        <time>2018-03-31T13:53:53Z</time>
      </trkpt>
      <trkpt lat="36.859917" lon="-4.928776">
        <ele>634.933</ele>
        <time>2018-03-31T13:53:55Z</time>
      </trkpt>
      <trkpt lat="36.859860" lon="-4.928805">
        <ele>636.326</ele>
        <time>2018-03-31T13:53:57Z</time>
      </trkpt>
      <trkpt lat="36.859793" lon="-4.928855">
        <ele>638.108</ele>
        <time>2018-03-31T13:53:59Z</time>
      </trkpt>
      <trkpt lat="36.859718" lon="-4.928899">
        <ele>638.779</ele>
        <time>2018-03-31T13:54:01Z</time>
      </trkpt>
      <trkpt lat="36.859657" lon="-4.928946">
        <ele>638.930</ele>
        <time>2018-03-31T13:54:03Z</time>
      </trkpt>
      <trkpt lat="36.859588" lon="-4.928976">
        <ele>639.233</ele>
        <time>2018-03-31T13:54:05Z</time>
      </trkpt>
      <trkpt lat="36.859535" lon="-4.929010">
        <ele>639.219</ele>
        <time>2018-03-31T13:54:07Z</time>
      </trkpt>
      <trkpt lat="36.859487" lon="-4.929047">
        <ele>639.318</ele>
        <time>2018-03-31T13:54:09Z</time>
      </trkpt>
      <trkpt lat="36.859440" lon="-4.929076">
        <ele>640.485</ele>
        <time>2018-03-31T13:54:12Z</time>
      </trkpt>
      <trkpt lat="36.859416" lon="-4.929142">
        <ele>643.757</ele>
        <time>2018-03-31T13:54:16Z</time>
      </trkpt>
      <trkpt lat="36.859370" lon="-4.929164">
        <ele>644.499</ele>
        <time>2018-03-31T13:54:18Z</time>
      </trkpt>
      <trkpt lat="36.859309" lon="-4.929138">
        <ele>646.512</ele>
        <time>2018-03-31T13:54:22Z</time>
      </trkpt>
      <trkpt lat="36.859273" lon="-4.929098">
        <ele>647.032</ele>
        <time>2018-03-31T13:54:24Z</time>
      </trkpt>
      <trkpt lat="36.859242" lon="-4.929044">
        <ele>646.205</ele>
        <time>2018-03-31T13:54:27Z</time>
      </trkpt>
      <trkpt lat="36.859190" lon="-4.929009">
        <ele>643.208</ele>
        <time>2018-03-31T13:54:30Z</time>
      </trkpt>
      <trkpt lat="36.859148" lon="-4.928967">
        <ele>640.143</ele>
        <time>2018-03-31T13:54:33Z</time>
      </trkpt>
      <trkpt lat="36.859086" lon="-4.928951">
        <ele>639.934</ele>
        <time>2018-03-31T13:54:36Z</time>
      </trkpt>
      <trkpt lat="36.859011" lon="-4.928937">
        <ele>639.897</ele>
        <time>2018-03-31T13:54:39Z</time>
      </trkpt>
      <trkpt lat="36.858956" lon="-4.928910">
        <ele>640.023</ele>
        <time>2018-03-31T13:54:41Z</time>
      </trkpt>
      <trkpt lat="36.858898" lon="-4.928907">
        <ele>641.352</ele>
        <time>2018-03-31T13:54:43Z</time>
      </trkpt>
      <trkpt lat="36.858832" lon="-4.928905">
        <ele>642.779</ele>
        <time>2018-03-31T13:54:45Z</time>
      </trkpt>
      <trkpt lat="36.858780" lon="-4.928904">
        <ele>643.631</ele>
        <time>2018-03-31T13:54:47Z</time>
      </trkpt>
      <trkpt lat="36.858719" lon="-4.928918">
        <ele>644.273</ele>
        <time>2018-03-31T13:54:50Z</time>
      </trkpt>
      <trkpt lat="36.858664" lon="-4.928898">
        <ele>644.659</ele>
        <time>2018-03-31T13:54:53Z</time>
      </trkpt>
      <trkpt lat="36.858608" lon="-4.928914">
        <ele>645.703</ele>
        <time>2018-03-31T13:54:56Z</time>
      </trkpt>
      <trkpt lat="36.858559" lon="-4.928929">
        <ele>646.223</ele>
        <time>2018-03-31T13:54:58Z</time>
      </trkpt>
      <trkpt lat="36.858501" lon="-4.928926">
        <ele>646.508</ele>
        <time>2018-03-31T13:55:01Z</time>
      </trkpt>
      <trkpt lat="36.858452" lon="-4.928921">
        <ele>645.947</ele>
        <time>2018-03-31T13:55:04Z</time>
      </trkpt>
      <trkpt lat="36.858401" lon="-4.928905">
        <ele>646.078</ele>
        <time>2018-03-31T13:55:07Z</time>
      </trkpt>
      <trkpt lat="36.858344" lon="-4.928901">
        <ele>646.011</ele>
        <time>2018-03-31T13:55:11Z</time>
      </trkpt>
      <trkpt lat="36.858296" lon="-4.928914">
        <ele>646.337</ele>
        <time>2018-03-31T13:55:14Z</time>
      </trkpt>
      <trkpt lat="36.858249" lon="-4.928936">
        <ele>646.786</ele>
        <time>2018-03-31T13:55:16Z</time>
      </trkpt>
      <trkpt lat="36.858199" lon="-4.928956">
        <ele>647.373</ele>
        <time>2018-03-31T13:55:19Z</time>
      </trkpt>
      <trkpt lat="36.858133" lon="-4.928977">
        <ele>646.425</ele>
        <time>2018-03-31T13:55:22Z</time>
      </trkpt>
      <trkpt lat="36.858083" lon="-4.928998">
        <ele>645.237</ele>
        <time>2018-03-31T13:55:24Z</time>
      </trkpt>
      <trkpt lat="36.858040" lon="-4.929021">
        <ele>643.935</ele>
        <time>2018-03-31T13:55:26Z</time>
      </trkpt>
      <trkpt lat="36.857997" lon="-4.929060">
        <ele>643.286</ele>
        <time>2018-03-31T13:55:29Z</time>
      </trkpt>
      <trkpt lat="36.857960" lon="-4.929116">
        <ele>643.514</ele>
        <time>2018-03-31T13:55:33Z</time>
      </trkpt>
      <trkpt lat="36.857955" lon="-4.929199">
        <ele>644.508</ele>
        <time>2018-03-31T13:55:37Z</time>
      </trkpt>
      <trkpt lat="36.857934" lon="-4.929267">
        <ele>644.565</ele>
        <time>2018-03-31T13:55:41Z</time>
      </trkpt>
      <trkpt lat="36.857927" lon="-4.929326">
        <ele>644.896</ele>
        <time>2018-03-31T13:55:43Z</time>
      </trkpt>
      <trkpt lat="36.857899" lon="-4.929390">
        <ele>648.339</ele>
        <time>2018-03-31T13:55:47Z</time>
      </trkpt>
      <trkpt lat="36.857857" lon="-4.929458">
        <ele>650.795</ele>
        <time>2018-03-31T13:55:50Z</time>
      </trkpt>
      <trkpt lat="36.857823" lon="-4.929505">
        <ele>652.354</ele>
        <time>2018-03-31T13:55:53Z</time>
      </trkpt>
      <trkpt lat="36.857791" lon="-4.929555">
        <ele>653.171</ele>
        <time>2018-03-31T13:55:55Z</time>
      </trkpt>
      <trkpt lat="36.857751" lon="-4.929610">
        <ele>653.913</ele>
        <time>2018-03-31T13:55:57Z</time>
      </trkpt>
      <trkpt lat="36.857696" lon="-4.929664">
        <ele>655.795</ele>
        <time>2018-03-31T13:56:00Z</time>
      </trkpt>
      <trkpt lat="36.857659" lon="-4.929707">
        <ele>656.825</ele>
        <time>2018-03-31T13:56:02Z</time>
      </trkpt>
      <trkpt lat="36.857613" lon="-4.929769">
        <ele>657.726</ele>
        <time>2018-03-31T13:56:05Z</time>
      </trkpt>
      <trkpt lat="36.857575" lon="-4.929848">
        <ele>658.608</ele>
        <time>2018-03-31T13:56:08Z</time>
      </trkpt>
      <trkpt lat="36.857555" lon="-4.929925">
        <ele>659.308</ele>
        <time>2018-03-31T13:56:11Z</time>
      </trkpt>
      <trkpt lat="36.857518" lon="-4.929968">
        <ele>659.864</ele>
        <time>2018-03-31T13:56:13Z</time>
      </trkpt>
      <trkpt lat="36.857482" lon="-4.930019">
        <ele>660.485</ele>
        <time>2018-03-31T13:56:15Z</time>
      </trkpt>
      <trkpt lat="36.857431" lon="-4.930066">
        <ele>660.968</ele>
        <time>2018-03-31T13:56:18Z</time>
      </trkpt>
      <trkpt lat="36.857372" lon="-4.930103">
        <ele>659.774</ele>
        <time>2018-03-31T13:56:21Z</time>
      </trkpt>
      <trkpt lat="36.857317" lon="-4.930127">
        <ele>659.423</ele>
        <time>2018-03-31T13:56:23Z</time>
      </trkpt>
      <trkpt lat="36.857264" lon="-4.930163">
        <ele>659.330</ele>
        <time>2018-03-31T13:56:25Z</time>
      </trkpt>
      <trkpt lat="36.857220" lon="-4.930208">
        <ele>659.042</ele>
        <time>2018-03-31T13:56:27Z</time>
      </trkpt>
      <trkpt lat="36.857176" lon="-4.930284">
        <ele>658.474</ele>
        <time>2018-03-31T13:56:29Z</time>
      </trkpt>
      <trkpt lat="36.857137" lon="-4.930338">
        <ele>658.339</ele>
        <time>2018-03-31T13:56:31Z</time>
      </trkpt>
      <trkpt lat="36.857085" lon="-4.930392">
        <ele>659.001</ele>
        <time>2018-03-31T13:56:34Z</time>
      </trkpt>
      <trkpt lat="36.857048" lon="-4.930438">
        <ele>659.321</ele>
        <time>2018-03-31T13:56:36Z</time>
      </trkpt>
      <trkpt lat="36.857006" lon="-4.930487">
        <ele>659.708</ele>
        <time>2018-03-31T13:56:38Z</time>
      </trkpt>
      <trkpt lat="36.856959" lon="-4.930528">
        <ele>660.135</ele>
        <time>2018-03-31T13:56:40Z</time>
      </trkpt>
      <trkpt lat="36.856922" lon="-4.930582">
        <ele>660.166</ele>
        <time>2018-03-31T13:56:42Z</time>
      </trkpt>
      <trkpt lat="36.856896" lon="-4.930657">
        <ele>659.849</ele>
        <time>2018-03-31T13:56:44Z</time>
      </trkpt>
      <trkpt lat="36.856880" lon="-4.930738">
        <ele>659.535</ele>
        <time>2018-03-31T13:56:46Z</time>
      </trkpt>
      <trkpt lat="36.856862" lon="-4.930809">
        <ele>659.564</ele>
        <time>2018-03-31T13:56:48Z</time>
      </trkpt>
      <trkpt lat="36.856841" lon="-4.930895">
        <ele>659.221</ele>
        <time>2018-03-31T13:56:51Z</time>
      </trkpt>
      <trkpt lat="36.856851" lon="-4.930956">
        <ele>658.833</ele>
        <time>2018-03-31T13:56:53Z</time>
      </trkpt>
      <trkpt lat="36.856861" lon="-4.931015">
        <ele>658.135</ele>
        <time>2018-03-31T13:56:55Z</time>
      </trkpt>
      <trkpt lat="36.856869" lon="-4.931071">
        <ele>657.511</ele>
        <time>2018-03-31T13:56:57Z</time>
      </trkpt>
      <trkpt lat="36.856872" lon="-4.931134">
        <ele>657.421</ele>
        <time>2018-03-31T13:56:59Z</time>
      </trkpt>
      <trkpt lat="36.856874" lon="-4.931212">
        <ele>657.003</ele>
        <time>2018-03-31T13:57:01Z</time>
      </trkpt>
      <trkpt lat="36.856865" lon="-4.931291">
        <ele>655.708</ele>
        <time>2018-03-31T13:57:03Z</time>
      </trkpt>
      <trkpt lat="36.856846" lon="-4.931353">
        <ele>657.183</ele>
        <time>2018-03-31T13:57:05Z</time>
      </trkpt>
      <trkpt lat="36.856838" lon="-4.931433">
        <ele>657.644</ele>
        <time>2018-03-31T13:57:07Z</time>
      </trkpt>
      <trkpt lat="36.856837" lon="-4.931498">
        <ele>658.347</ele>
        <time>2018-03-31T13:57:09Z</time>
      </trkpt>
      <trkpt lat="36.856844" lon="-4.931566">
        <ele>659.353</ele>
        <time>2018-03-31T13:57:11Z</time>
      </trkpt>
      <trkpt lat="36.856846" lon="-4.931644">
        <ele>659.992</ele>
        <time>2018-03-31T13:57:13Z</time>
      </trkpt>
      <trkpt lat="36.856848" lon="-4.931724">
        <ele>659.579</ele>
        <time>2018-03-31T13:57:15Z</time>
      </trkpt>
      <trkpt lat="36.856846" lon="-4.931810">
        <ele>659.191</ele>
        <time>2018-03-31T13:57:17Z</time>
      </trkpt>
      <trkpt lat="36.856856" lon="-4.931892">
        <ele>659.693</ele>
        <time>2018-03-31T13:57:19Z</time>
      </trkpt>
      <trkpt lat="36.856897" lon="-4.931955">
        <ele>659.879</ele>
        <time>2018-03-31T13:57:21Z</time>
      </trkpt>
      <trkpt lat="36.856960" lon="-4.931992">
        <ele>659.805</ele>
        <time>2018-03-31T13:57:23Z</time>
      </trkpt>
      <trkpt lat="36.857028" lon="-4.932032">
        <ele>660.825</ele>
        <time>2018-03-31T13:57:25Z</time>
      </trkpt>
      <trkpt lat="36.857090" lon="-4.932086">
        <ele>661.908</ele>
        <time>2018-03-31T13:57:27Z</time>
      </trkpt>
      <trkpt lat="36.857170" lon="-4.932121">
        <ele>662.299</ele>
        <time>2018-03-31T13:57:29Z</time>
      </trkpt>
      <trkpt lat="36.857239" lon="-4.932155">
        <ele>661.970</ele>
        <time>2018-03-31T13:57:31Z</time>
      </trkpt>
      <trkpt lat="36.857258" lon="-4.932215">
        <ele>661.223</ele>
        <time>2018-03-31T13:57:33Z</time>
      </trkpt>
      <trkpt lat="36.857232" lon="-4.932274">
        <ele>660.489</ele>
        <time>2018-03-31T13:57:35Z</time>
      </trkpt>
      <trkpt lat="36.857208" lon="-4.932342">
        <ele>660.638</ele>
        <time>2018-03-31T13:57:37Z</time>
      </trkpt>
      <trkpt lat="36.857183" lon="-4.932398">
        <ele>661.885</ele>
        <time>2018-03-31T13:57:39Z</time>
      </trkpt>
      <trkpt lat="36.857171" lon="-4.932461">
        <ele>667.517</ele>
        <time>2018-03-31T13:57:49Z</time>
      </trkpt>
      <trkpt lat="36.857159" lon="-4.932517">
        <ele>667.449</ele>
        <time>2018-03-31T13:57:54Z</time>
      </trkpt>
      <trkpt lat="36.857163" lon="-4.932604">
        <ele>666.532</ele>
        <time>2018-03-31T13:58:38Z</time>
      </trkpt>
      <trkpt lat="36.857180" lon="-4.932699">
        <ele>666.892</ele>
        <time>2018-03-31T13:58:40Z</time>
      </trkpt>
      <trkpt lat="36.857204" lon="-4.932776">
        <ele>667.711</ele>
        <time>2018-03-31T13:58:42Z</time>
      </trkpt>
      <trkpt lat="36.857218" lon="-4.932854">
        <ele>668.608</ele>
        <time>2018-03-31T13:58:44Z</time>
      </trkpt>
      <trkpt lat="36.857219" lon="-4.932916">
        <ele>669.595</ele>
        <time>2018-03-31T13:58:46Z</time>
      </trkpt>
      <trkpt lat="36.857189" lon="-4.932968">
        <ele>670.356</ele>
        <time>2018-03-31T13:58:48Z</time>
      </trkpt>
      <trkpt lat="36.857129" lon="-4.932996">
        <ele>671.229</ele>
        <time>2018-03-31T13:58:51Z</time>
      </trkpt>
      <trkpt lat="36.857076" lon="-4.932980">
        <ele>671.525</ele>
        <time>2018-03-31T13:58:55Z</time>
      </trkpt>
      <trkpt lat="36.857023" lon="-4.932942">
        <ele>670.984</ele>
        <time>2018-03-31T13:58:58Z</time>
      </trkpt>
      <trkpt lat="36.856969" lon="-4.932900">
        <ele>669.841</ele>
        <time>2018-03-31T13:59:01Z</time>
      </trkpt>
      <trkpt lat="36.856915" lon="-4.932887">
        <ele>669.083</ele>
        <time>2018-03-31T13:59:04Z</time>
      </trkpt>
      <trkpt lat="36.856852" lon="-4.932876">
        <ele>668.635</ele>
        <time>2018-03-31T13:59:07Z</time>
      </trkpt>
      <trkpt lat="36.856798" lon="-4.932870">
        <ele>668.392</ele>
        <time>2018-03-31T13:59:09Z</time>
      </trkpt>
      <trkpt lat="36.856736" lon="-4.932863">
        <ele>668.073</ele>
        <time>2018-03-31T13:59:11Z</time>
      </trkpt>
      <trkpt lat="36.856683" lon="-4.932874">
        <ele>668.020</ele>
        <time>2018-03-31T13:59:13Z</time>
      </trkpt>
      <trkpt lat="36.856618" lon="-4.932881">
        <ele>668.008</ele>
        <time>2018-03-31T13:59:16Z</time>
      </trkpt>
      <trkpt lat="36.856566" lon="-4.932908">
        <ele>667.651</ele>
        <time>2018-03-31T13:59:18Z</time>
      </trkpt>
      <trkpt lat="36.856523" lon="-4.932956">
        <ele>667.652</ele>
        <time>2018-03-31T13:59:20Z</time>
      </trkpt>
      <trkpt lat="36.856496" lon="-4.933005">
        <ele>667.675</ele>
        <time>2018-03-31T13:59:22Z</time>
      </trkpt>
      <trkpt lat="36.856517" lon="-4.933062">
        <ele>668.131</ele>
        <time>2018-03-31T13:59:24Z</time>
      </trkpt>
      <trkpt lat="36.856536" lon="-4.933118">
        <ele>669.190</ele>
        <time>2018-03-31T13:59:26Z</time>
      </trkpt>
      <trkpt lat="36.856558" lon="-4.933192">
        <ele>669.897</ele>
        <time>2018-03-31T13:59:28Z</time>
      </trkpt>
      <trkpt lat="36.856573" lon="-4.933274">
        <ele>670.889</ele>
        <time>2018-03-31T13:59:30Z</time>
      </trkpt>
      <trkpt lat="36.856590" lon="-4.933365">
        <ele>671.711</ele>
        <time>2018-03-31T13:59:32Z</time>
      </trkpt>
      <trkpt lat="36.856602" lon="-4.933438">
        <ele>672.124</ele>
        <time>2018-03-31T13:59:34Z</time>
      </trkpt>
      <trkpt lat="36.856619" lon="-4.933521">
        <ele>672.704</ele>
        <time>2018-03-31T13:59:36Z</time>
      </trkpt>
      <trkpt lat="36.856630" lon="-4.933608">
        <ele>673.014</ele>
        <time>2018-03-31T13:59:38Z</time>
      </trkpt>
      <trkpt lat="36.856632" lon="-4.933684">
        <ele>673.508</ele>
        <time>2018-03-31T13:59:40Z</time>
      </trkpt>
      <trkpt lat="36.856627" lon="-4.933757">
        <ele>673.034</ele>
        <time>2018-03-31T13:59:42Z</time>
      </trkpt>
      <trkpt lat="36.856631" lon="-4.933831">
        <ele>673.475</ele>
        <time>2018-03-31T13:59:44Z</time>
      </trkpt>
      <trkpt lat="36.856632" lon="-4.933910">
        <ele>673.358</ele>
        <time>2018-03-31T13:59:46Z</time>
      </trkpt>
      <trkpt lat="36.856625" lon="-4.933980">
        <ele>673.624</ele>
        <time>2018-03-31T13:59:48Z</time>
      </trkpt>
      <trkpt lat="36.856613" lon="-4.934049">
        <ele>674.083</ele>
        <time>2018-03-31T13:59:50Z</time>
      </trkpt>
      <trkpt lat="36.856596" lon="-4.934129">
        <ele>674.420</ele>
        <time>2018-03-31T13:59:52Z</time>
      </trkpt>
      <trkpt lat="36.856566" lon="-4.934201">
        <ele>674.792</ele>
        <time>2018-03-31T13:59:54Z</time>
      </trkpt>
      <trkpt lat="36.856534" lon="-4.934268">
        <ele>675.364</ele>
        <time>2018-03-31T13:59:56Z</time>
      </trkpt>
      <trkpt lat="36.856480" lon="-4.934308">
        <ele>675.984</ele>
        <time>2018-03-31T13:59:58Z</time>
      </trkpt>
      <trkpt lat="36.856417" lon="-4.934348">
        <ele>675.407</ele>
        <time>2018-03-31T14:00:00Z</time>
      </trkpt>
      <trkpt lat="36.856355" lon="-4.934387">
        <ele>674.417</ele>
        <time>2018-03-31T14:00:02Z</time>
      </trkpt>
      <trkpt lat="36.856294" lon="-4.934428">
        <ele>673.708</ele>
        <time>2018-03-31T14:00:04Z</time>
      </trkpt>
      <trkpt lat="36.856239" lon="-4.934477">
        <ele>673.360</ele>
        <time>2018-03-31T14:00:06Z</time>
      </trkpt>
      <trkpt lat="36.856198" lon="-4.934528">
        <ele>672.951</ele>
        <time>2018-03-31T14:00:08Z</time>
      </trkpt>
      <trkpt lat="36.856165" lon="-4.934589">
        <ele>672.364</ele>
        <time>2018-03-31T14:00:10Z</time>
      </trkpt>
      <trkpt lat="36.856159" lon="-4.934669">
        <ele>672.010</ele>
        <time>2018-03-31T14:00:12Z</time>
      </trkpt>
      <trkpt lat="36.856171" lon="-4.934752">
        <ele>672.459</ele>
        <time>2018-03-31T14:00:14Z</time>
      </trkpt>
      <trkpt lat="36.856175" lon="-4.934823">
        <ele>672.936</ele>
        <time>2018-03-31T14:00:16Z</time>
      </trkpt>
      <trkpt lat="36.856195" lon="-4.934907">
        <ele>673.118</ele>
        <time>2018-03-31T14:00:18Z</time>
      </trkpt>
      <trkpt lat="36.856202" lon="-4.934987">
        <ele>673.310</ele>
        <time>2018-03-31T14:00:20Z</time>
      </trkpt>
      <trkpt lat="36.856203" lon="-4.935075">
        <ele>673.476</ele>
        <time>2018-03-31T14:00:22Z</time>
      </trkpt>
      <trkpt lat="36.856196" lon="-4.935154">
        <ele>673.790</ele>
        <time>2018-03-31T14:00:24Z</time>
      </trkpt>
      <trkpt lat="36.856184" lon="-4.935238">
        <ele>674.119</ele>
        <time>2018-03-31T14:00:26Z</time>
      </trkpt>
      <trkpt lat="36.856191" lon="-4.935321">
        <ele>674.508</ele>
        <time>2018-03-31T14:00:28Z</time>
      </trkpt>
      <trkpt lat="36.856211" lon="-4.935393">
        <ele>674.929</ele>
        <time>2018-03-31T14:00:30Z</time>
      </trkpt>
      <trkpt lat="36.856230" lon="-4.935481">
        <ele>675.350</ele>
        <time>2018-03-31T14:00:32Z</time>
      </trkpt>
      <trkpt lat="36.856249" lon="-4.935563">
        <ele>675.623</ele>
        <time>2018-03-31T14:00:34Z</time>
      </trkpt>
      <trkpt lat="36.856256" lon="-4.935639">
        <ele>676.149</ele>
        <time>2018-03-31T14:00:36Z</time>
      </trkpt>
      <trkpt lat="36.856252" lon="-4.935716">
        <ele>676.798</ele>
        <time>2018-03-31T14:00:38Z</time>
      </trkpt>
      <trkpt lat="36.856231" lon="-4.935775">
        <ele>677.045</ele>
        <time>2018-03-31T14:00:40Z</time>
      </trkpt>
      <trkpt lat="36.856199" lon="-4.935840">
        <ele>676.687</ele>
        <time>2018-03-31T14:00:42Z</time>
      </trkpt>
      <trkpt lat="36.856174" lon="-4.935902">
        <ele>675.989</ele>
        <time>2018-03-31T14:00:44Z</time>
      </trkpt>
      <trkpt lat="36.856153" lon="-4.935970">
        <ele>675.694</ele>
        <time>2018-03-31T14:00:46Z</time>
      </trkpt>
      <trkpt lat="36.856120" lon="-4.936043">
        <ele>675.657</ele>
        <time>2018-03-31T14:00:48Z</time>
      </trkpt>
      <trkpt lat="36.856084" lon="-4.936111">
        <ele>675.622</ele>
        <time>2018-03-31T14:00:50Z</time>
      </trkpt>
      <trkpt lat="36.856063" lon="-4.936184">
        <ele>675.208</ele>
        <time>2018-03-31T14:00:52Z</time>
      </trkpt>
      <trkpt lat="36.856041" lon="-4.936247">
        <ele>674.961</ele>
        <time>2018-03-31T14:00:54Z</time>
      </trkpt>
      <trkpt lat="36.856013" lon="-4.936343">
        <ele>674.562</ele>
        <time>2018-03-31T14:00:56Z</time>
      </trkpt>
      <trkpt lat="36.855991" lon="-4.936400">
        <ele>674.385</ele>
        <time>2018-03-31T14:00:57Z</time>
      </trkpt>
      <trkpt lat="36.855971" lon="-4.936463">
        <ele>674.051</ele>
        <time>2018-03-31T14:00:58Z</time>
      </trkpt>
      <trkpt lat="36.855954" lon="-4.936530">
        <ele>673.660</ele>
        <time>2018-03-31T14:00:59Z</time>
      </trkpt>
      <trkpt lat="36.855934" lon="-4.936593">
        <ele>673.297</ele>
        <time>2018-03-31T14:01:00Z</time>
      </trkpt>
      <trkpt lat="36.855907" lon="-4.936651">
        <ele>672.719</ele>
        <time>2018-03-31T14:01:01Z</time>
      </trkpt>
      <trkpt lat="36.855881" lon="-4.936710">
        <ele>672.251</ele>
        <time>2018-03-31T14:01:02Z</time>
      </trkpt>
      <trkpt lat="36.855868" lon="-4.936776">
        <ele>671.576</ele>
        <time>2018-03-31T14:01:03Z</time>
      </trkpt>
      <trkpt lat="36.855866" lon="-4.936848">
        <ele>670.890</ele>
        <time>2018-03-31T14:01:04Z</time>
      </trkpt>
      <trkpt lat="36.855869" lon="-4.936917">
        <ele>670.319</ele>
        <time>2018-03-31T14:01:05Z</time>
      </trkpt>
      <trkpt lat="36.855884" lon="-4.936984">
        <ele>670.008</ele>
        <time>2018-03-31T14:01:06Z</time>
      </trkpt>
      <trkpt lat="36.855897" lon="-4.937042">
        <ele>669.979</ele>
        <time>2018-03-31T14:01:07Z</time>
      </trkpt>
      <trkpt lat="36.855908" lon="-4.937100">
        <ele>669.970</ele>
        <time>2018-03-31T14:01:08Z</time>
      </trkpt>
      <trkpt lat="36.855926" lon="-4.937157">
        <ele>670.033</ele>
        <time>2018-03-31T14:01:09Z</time>
      </trkpt>
      <trkpt lat="36.855949" lon="-4.937218">
        <ele>670.139</ele>
        <time>2018-03-31T14:01:10Z</time>
      </trkpt>
      <trkpt lat="36.855979" lon="-4.937271">
        <ele>670.368</ele>
        <time>2018-03-31T14:01:11Z</time>
      </trkpt>
      <trkpt lat="36.856012" lon="-4.937321">
        <ele>670.675</ele>
        <time>2018-03-31T14:01:12Z</time>
      </trkpt>
      <trkpt lat="36.856047" lon="-4.937363">
        <ele>671.097</ele>
        <time>2018-03-31T14:01:13Z</time>
      </trkpt>
      <trkpt lat="36.856109" lon="-4.937430">
        <ele>671.779</ele>
        <time>2018-03-31T14:01:15Z</time>
      </trkpt>
      <trkpt lat="36.856162" lon="-4.937483">
        <ele>672.053</ele>
        <time>2018-03-31T14:01:17Z</time>
      </trkpt>
      <trkpt lat="36.856189" lon="-4.937550">
        <ele>672.104</ele>
        <time>2018-03-31T14:01:19Z</time>
      </trkpt>
      <trkpt lat="36.856180" lon="-4.937606">
        <ele>672.214</ele>
        <time>2018-03-31T14:01:22Z</time>
      </trkpt>
      <trkpt lat="36.856134" lon="-4.937598">
        <ele>672.108</ele>
        <time>2018-03-31T14:01:24Z</time>
      </trkpt>
      <trkpt lat="36.856067" lon="-4.937591">
        <ele>671.997</ele>
        <time>2018-03-31T14:01:26Z</time>
      </trkpt>
      <trkpt lat="36.856012" lon="-4.937567">
        <ele>671.958</ele>
        <time>2018-03-31T14:01:29Z</time>
      </trkpt>
      <trkpt lat="36.855969" lon="-4.937506">
        <ele>671.811</ele>
        <time>2018-03-31T14:01:32Z</time>
      </trkpt>
      <trkpt lat="36.855919" lon="-4.937440">
        <ele>671.627</ele>
        <time>2018-03-31T14:01:35Z</time>
      </trkpt>
      <trkpt lat="36.855897" lon="-4.937387">
        <ele>671.386</ele>
        <time>2018-03-31T14:01:37Z</time>
      </trkpt>
      <trkpt lat="36.855847" lon="-4.937344">
        <ele>670.983</ele>
        <time>2018-03-31T14:01:39Z</time>
      </trkpt>
      <trkpt lat="36.855798" lon="-4.937301">
        <ele>670.325</ele>
        <time>2018-03-31T14:01:41Z</time>
      </trkpt>
      <trkpt lat="36.855732" lon="-4.937249">
        <ele>669.747</ele>
        <time>2018-03-31T14:01:43Z</time>
      </trkpt>
      <trkpt lat="36.855652" lon="-4.937221">
        <ele>669.285</ele>
        <time>2018-03-31T14:01:45Z</time>
      </trkpt>
      <trkpt lat="36.855606" lon="-4.937217">
        <ele>669.089</ele>
        <time>2018-03-31T14:01:46Z</time>
      </trkpt>
      <trkpt lat="36.855521" lon="-4.937218">
        <ele>668.717</ele>
        <time>2018-03-31T14:01:48Z</time>
      </trkpt>
      <trkpt lat="36.855436" lon="-4.937224">
        <ele>668.608</ele>
        <time>2018-03-31T14:01:50Z</time>
      </trkpt>
      <trkpt lat="36.855361" lon="-4.937233">
        <ele>668.630</ele>
        <time>2018-03-31T14:01:52Z</time>
      </trkpt>
      <trkpt lat="36.855295" lon="-4.937235">
        <ele>668.691</ele>
        <time>2018-03-31T14:01:54Z</time>
      </trkpt>
      <trkpt lat="36.855247" lon="-4.937225">
        <ele>668.744</ele>
        <time>2018-03-31T14:01:56Z</time>
      </trkpt>
      <trkpt lat="36.855231" lon="-4.937161">
        <ele>669.090</ele>
        <time>2018-03-31T14:01:59Z</time>
      </trkpt>
      <trkpt lat="36.855264" lon="-4.937106">
        <ele>669.279</ele>
        <time>2018-03-31T14:02:02Z</time>
      </trkpt>
      <trkpt lat="36.855305" lon="-4.937059">
        <ele>668.936</ele>
        <time>2018-03-31T14:02:05Z</time>
      </trkpt>
      <trkpt lat="36.855329" lon="-4.937001">
        <ele>668.698</ele>
        <time>2018-03-31T14:02:07Z</time>
      </trkpt>
      <trkpt lat="36.855350" lon="-4.936946">
        <ele>668.240</ele>
        <time>2018-03-31T14:02:10Z</time>
      </trkpt>
      <trkpt lat="36.855366" lon="-4.936893">
        <ele>668.032</ele>
        <time>2018-03-31T14:02:13Z</time>
      </trkpt>
      <trkpt lat="36.855386" lon="-4.936840">
        <ele>668.092</ele>
        <time>2018-03-31T14:02:15Z</time>
      </trkpt>
      <trkpt lat="36.855407" lon="-4.936785">
        <ele>667.911</ele>
        <time>2018-03-31T14:02:17Z</time>
      </trkpt>
      <trkpt lat="36.855435" lon="-4.936716">
        <ele>667.508</ele>
        <time>2018-03-31T14:02:20Z</time>
      </trkpt>
      <trkpt lat="36.855452" lon="-4.936645">
        <ele>667.015</ele>
        <time>2018-03-31T14:02:23Z</time>
      </trkpt>
      <trkpt lat="36.855471" lon="-4.936577">
        <ele>666.846</ele>
        <time>2018-03-31T14:02:25Z</time>
      </trkpt>
      <trkpt lat="36.855484" lon="-4.936514">
        <ele>666.869</ele>
        <time>2018-03-31T14:02:27Z</time>
      </trkpt>
      <trkpt lat="36.855500" lon="-4.936448">
        <ele>666.965</ele>
        <time>2018-03-31T14:02:29Z</time>
      </trkpt>
      <trkpt lat="36.855521" lon="-4.936387">
        <ele>667.084</ele>
        <time>2018-03-31T14:02:31Z</time>
      </trkpt>
      <trkpt lat="36.855525" lon="-4.936318">
        <ele>667.391</ele>
        <time>2018-03-31T14:02:34Z</time>
      </trkpt>
      <trkpt lat="36.855547" lon="-4.936267">
        <ele>667.553</ele>
        <time>2018-03-31T14:02:36Z</time>
      </trkpt>
      <trkpt lat="36.855541" lon="-4.936194">
        <ele>667.775</ele>
        <time>2018-03-31T14:02:39Z</time>
      </trkpt>
      <trkpt lat="36.855487" lon="-4.936151">
        <ele>668.876</ele>
        <time>2018-03-31T14:02:42Z</time>
      </trkpt>
      <trkpt lat="36.855400" lon="-4.936118">
        <ele>672.490</ele>
        <time>2018-03-31T14:02:44Z</time>
      </trkpt>
      <trkpt lat="36.855355" lon="-4.936115">
        <ele>677.419</ele>
        <time>2018-03-31T14:02:46Z</time>
      </trkpt>
      <trkpt lat="36.855311" lon="-4.936140">
        <ele>674.808</ele>
        <time>2018-03-31T14:02:49Z</time>
      </trkpt>
      <trkpt lat="36.855269" lon="-4.936178">
        <ele>676.459</ele>
        <time>2018-03-31T14:02:52Z</time>
      </trkpt>
      <trkpt lat="36.855223" lon="-4.936239">
        <ele>677.550</ele>
        <time>2018-03-31T14:02:55Z</time>
      </trkpt>
      <trkpt lat="36.855180" lon="-4.936294">
        <ele>678.563</ele>
        <time>2018-03-31T14:02:58Z</time>
      </trkpt>
      <trkpt lat="36.855142" lon="-4.936328">
        <ele>679.319</ele>
        <time>2018-03-31T14:03:01Z</time>
      </trkpt>
      <trkpt lat="36.855093" lon="-4.936362">
        <ele>680.538</ele>
        <time>2018-03-31T14:03:05Z</time>
      </trkpt>
      <trkpt lat="36.855044" lon="-4.936406">
        <ele>681.795</ele>
        <time>2018-03-31T14:03:09Z</time>
      </trkpt>
      <trkpt lat="36.855009" lon="-4.936456">
        <ele>682.587</ele>
        <time>2018-03-31T14:03:12Z</time>
      </trkpt>
      <trkpt lat="36.854968" lon="-4.936482">
        <ele>683.139</ele>
        <time>2018-03-31T14:03:15Z</time>
      </trkpt>
      <trkpt lat="36.854923" lon="-4.936500">
        <ele>683.899</ele>
        <time>2018-03-31T14:03:19Z</time>
      </trkpt>
      <trkpt lat="36.854878" lon="-4.936511">
        <ele>684.307</ele>
        <time>2018-03-31T14:03:22Z</time>
      </trkpt>
      <trkpt lat="36.854837" lon="-4.936536">
        <ele>684.727</ele>
        <time>2018-03-31T14:03:25Z</time>
      </trkpt>
      <trkpt lat="36.854792" lon="-4.936575">
        <ele>685.008</ele>
        <time>2018-03-31T14:03:28Z</time>
      </trkpt>
      <trkpt lat="36.854750" lon="-4.936598">
        <ele>685.141</ele>
        <time>2018-03-31T14:03:31Z</time>
      </trkpt>
      <trkpt lat="36.854699" lon="-4.936595">
        <ele>685.492</ele>
        <time>2018-03-31T14:03:34Z</time>
      </trkpt>
      <trkpt lat="36.854652" lon="-4.936582">
        <ele>686.325</ele>
        <time>2018-03-31T14:03:37Z</time>
      </trkpt>
      <trkpt lat="36.854604" lon="-4.936599">
        <ele>687.891</ele>
        <time>2018-03-31T14:03:42Z</time>
      </trkpt>
      <trkpt lat="36.854548" lon="-4.936609">
        <ele>688.650</ele>
        <time>2018-03-31T14:03:46Z</time>
      </trkpt>
      <trkpt lat="36.854499" lon="-4.936629">
        <ele>689.417</ele>
        <time>2018-03-31T14:03:50Z</time>
      </trkpt>
      <trkpt lat="36.854452" lon="-4.936629">
        <ele>690.049</ele>
        <time>2018-03-31T14:03:53Z</time>
      </trkpt>
      <trkpt lat="36.854400" lon="-4.936622">
        <ele>691.611</ele>
        <time>2018-03-31T14:03:57Z</time>
      </trkpt>
      <trkpt lat="36.854345" lon="-4.936648">
        <ele>693.018</ele>
        <time>2018-03-31T14:04:00Z</time>
      </trkpt>
      <trkpt lat="36.854296" lon="-4.936669">
        <ele>693.898</ele>
        <time>2018-03-31T14:04:02Z</time>
      </trkpt>
      <trkpt lat="36.854242" lon="-4.936697">
        <ele>695.417</ele>
        <time>2018-03-31T14:04:05Z</time>
      </trkpt>
      <trkpt lat="36.854229" lon="-4.936751">
        <ele>696.408</ele>
        <time>2018-03-31T14:04:08Z</time>
      </trkpt>
      <trkpt lat="36.854219" lon="-4.936810">
        <ele>696.573</ele>
        <time>2018-03-31T14:04:10Z</time>
      </trkpt>
      <trkpt lat="36.854211" lon="-4.936889">
        <ele>696.384</ele>
        <time>2018-03-31T14:04:13Z</time>
      </trkpt>
      <trkpt lat="36.854213" lon="-4.936948">
        <ele>695.987</ele>
        <time>2018-03-31T14:04:15Z</time>
      </trkpt>
      <trkpt lat="36.854221" lon="-4.937015">
        <ele>695.423</ele>
        <time>2018-03-31T14:04:17Z</time>
      </trkpt>
      <trkpt lat="36.854212" lon="-4.937080">
        <ele>694.912</ele>
        <time>2018-03-31T14:04:20Z</time>
      </trkpt>
      <trkpt lat="36.854196" lon="-4.937143">
        <ele>695.029</ele>
        <time>2018-03-31T14:04:23Z</time>
      </trkpt>
      <trkpt lat="36.854151" lon="-4.937178">
        <ele>696.041</ele>
        <time>2018-03-31T14:04:29Z</time>
      </trkpt>
      <trkpt lat="36.854104" lon="-4.937204">
        <ele>697.583</ele>
        <time>2018-03-31T14:04:33Z</time>
      </trkpt>
      <trkpt lat="36.854062" lon="-4.937245">
        <ele>698.815</ele>
        <time>2018-03-31T14:04:37Z</time>
      </trkpt>
      <trkpt lat="36.854021" lon="-4.937285">
        <ele>699.565</ele>
        <time>2018-03-31T14:04:40Z</time>
      </trkpt>
      <trkpt lat="36.853976" lon="-4.937310">
        <ele>700.211</ele>
        <time>2018-03-31T14:04:43Z</time>
      </trkpt>
      <trkpt lat="36.853933" lon="-4.937349">
        <ele>701.008</ele>
        <time>2018-03-31T14:04:46Z</time>
      </trkpt>
      <trkpt lat="36.853896" lon="-4.937381">
        <ele>701.513</ele>
        <time>2018-03-31T14:04:49Z</time>
      </trkpt>
      <trkpt lat="36.853844" lon="-4.937413">
        <ele>702.194</ele>
        <time>2018-03-31T14:04:52Z</time>
      </trkpt>
      <trkpt lat="36.853800" lon="-4.937433">
        <ele>703.017</ele>
        <time>2018-03-31T14:04:55Z</time>
      </trkpt>
      <trkpt lat="36.853754" lon="-4.937486">
        <ele>704.063</ele>
        <time>2018-03-31T14:04:59Z</time>
      </trkpt>
      <trkpt lat="36.853710" lon="-4.937518">
        <ele>704.692</ele>
        <time>2018-03-31T14:05:02Z</time>
      </trkpt>
      <trkpt lat="36.853682" lon="-4.937565">
        <ele>705.399</ele>
        <time>2018-03-31T14:05:06Z</time>
      </trkpt>
      <trkpt lat="36.853644" lon="-4.937594">
        <ele>705.721</ele>
        <time>2018-03-31T14:05:08Z</time>
      </trkpt>
      <trkpt lat="36.853606" lon="-4.937644">
        <ele>706.673</ele>
        <time>2018-03-31T14:05:11Z</time>
      </trkpt>
      <trkpt lat="36.853576" lon="-4.937688">
        <ele>707.194</ele>
        <time>2018-03-31T14:05:14Z</time>
      </trkpt>
      <trkpt lat="36.853526" lon="-4.937733">
        <ele>707.657</ele>
        <time>2018-03-31T14:05:17Z</time>
      </trkpt>
      <trkpt lat="36.853475" lon="-4.937760">
        <ele>708.322</ele>
        <time>2018-03-31T14:05:21Z</time>
      </trkpt>
      <trkpt lat="36.853422" lon="-4.937781">
        <ele>709.108</ele>
        <time>2018-03-31T14:05:25Z</time>
      </trkpt>
      <trkpt lat="36.853367" lon="-4.937799">
        <ele>709.961</ele>
        <time>2018-03-31T14:05:30Z</time>
      </trkpt>
      <trkpt lat="36.853320" lon="-4.937829">
        <ele>710.552</ele>
        <time>2018-03-31T14:05:34Z</time>
      </trkpt>
      <trkpt lat="36.853266" lon="-4.937839">
        <ele>710.755</ele>
        <time>2018-03-31T14:05:37Z</time>
      </trkpt>
      <trkpt lat="36.853212" lon="-4.937836">
        <ele>711.191</ele>
        <time>2018-03-31T14:05:41Z</time>
      </trkpt>
      <trkpt lat="36.853157" lon="-4.937833">
        <ele>711.960</ele>
        <time>2018-03-31T14:05:45Z</time>
      </trkpt>
      <trkpt lat="36.853113" lon="-4.937849">
        <ele>712.447</ele>
        <time>2018-03-31T14:05:50Z</time>
      </trkpt>
      <trkpt lat="36.853067" lon="-4.937851">
        <ele>712.679</ele>
        <time>2018-03-31T14:05:54Z</time>
      </trkpt>
      <trkpt lat="36.853016" lon="-4.937834">
        <ele>713.191</ele>
        <time>2018-03-31T14:05:58Z</time>
      </trkpt>
      <trkpt lat="36.852961" lon="-4.937824">
        <ele>714.395</ele>
        <time>2018-03-31T14:06:06Z</time>
      </trkpt>
      <trkpt lat="36.852910" lon="-4.937833">
        <ele>714.749</ele>
        <time>2018-03-31T14:06:13Z</time>
      </trkpt>
      <trkpt lat="36.852861" lon="-4.937816">
        <ele>715.423</ele>
        <time>2018-03-31T14:06:18Z</time>
      </trkpt>
      <trkpt lat="36.852814" lon="-4.937781">
        <ele>716.208</ele>
        <time>2018-03-31T14:06:21Z</time>
      </trkpt>
      <trkpt lat="36.852756" lon="-4.937767">
        <ele>717.211</ele>
        <time>2018-03-31T14:06:24Z</time>
      </trkpt>
      <trkpt lat="36.852697" lon="-4.937775">
        <ele>718.492</ele>
        <time>2018-03-31T14:06:27Z</time>
      </trkpt>
      <trkpt lat="36.852640" lon="-4.937805">
        <ele>719.595</ele>
        <time>2018-03-31T14:06:30Z</time>
      </trkpt>
      <trkpt lat="36.852599" lon="-4.937848">
        <ele>719.991</ele>
        <time>2018-03-31T14:06:32Z</time>
      </trkpt>
      <trkpt lat="36.852558" lon="-4.937887">
        <ele>720.240</ele>
        <time>2018-03-31T14:06:35Z</time>
      </trkpt>
      <trkpt lat="36.852516" lon="-4.937939">
        <ele>720.347</ele>
        <time>2018-03-31T14:06:38Z</time>
      </trkpt>
      <trkpt lat="36.852493" lon="-4.938007">
        <ele>719.999</ele>
        <time>2018-03-31T14:06:42Z</time>
      </trkpt>
      <trkpt lat="36.852463" lon="-4.938057">
        <ele>719.731</ele>
        <time>2018-03-31T14:06:45Z</time>
      </trkpt>
      <trkpt lat="36.852430" lon="-4.938114">
        <ele>719.922</ele>
        <time>2018-03-31T14:06:49Z</time>
      </trkpt>
      <trkpt lat="36.852378" lon="-4.938144">
        <ele>720.962</ele>
        <time>2018-03-31T14:06:53Z</time>
      </trkpt>
      <trkpt lat="36.852323" lon="-4.938159">
        <ele>722.608</ele>
        <time>2018-03-31T14:06:57Z</time>
      </trkpt>
      <trkpt lat="36.852294" lon="-4.938211">
        <ele>723.808</ele>
        <time>2018-03-31T14:07:01Z</time>
      </trkpt>
      <trkpt lat="36.852253" lon="-4.938250">
        <ele>724.364</ele>
        <time>2018-03-31T14:07:05Z</time>
      </trkpt>
      <trkpt lat="36.852211" lon="-4.938279">
        <ele>724.915</ele>
        <time>2018-03-31T14:07:08Z</time>
      </trkpt>
      <trkpt lat="36.852160" lon="-4.938306">
        <ele>725.818</ele>
        <time>2018-03-31T14:07:12Z</time>
      </trkpt>
      <trkpt lat="36.852129" lon="-4.938353">
        <ele>726.514</ele>
        <time>2018-03-31T14:07:15Z</time>
      </trkpt>
      <trkpt lat="36.852093" lon="-4.938391">
        <ele>726.993</ele>
        <time>2018-03-31T14:07:18Z</time>
      </trkpt>
      <trkpt lat="36.852060" lon="-4.938431">
        <ele>727.470</ele>
        <time>2018-03-31T14:07:21Z</time>
      </trkpt>
      <trkpt lat="36.852024" lon="-4.938471">
        <ele>727.842</ele>
        <time>2018-03-31T14:07:25Z</time>
      </trkpt>
      <trkpt lat="36.851977" lon="-4.938481">
        <ele>728.174</ele>
        <time>2018-03-31T14:07:28Z</time>
      </trkpt>
      <trkpt lat="36.851931" lon="-4.938489">
        <ele>729.091</ele>
        <time>2018-03-31T14:07:31Z</time>
      </trkpt>
      <trkpt lat="36.851872" lon="-4.938516">
        <ele>730.281</ele>
        <time>2018-03-31T14:07:35Z</time>
      </trkpt>
      <trkpt lat="36.851831" lon="-4.938551">
        <ele>732.719</ele>
        <time>2018-03-31T14:07:39Z</time>
      </trkpt>
      <trkpt lat="36.851780" lon="-4.938593">
        <ele>735.408</ele>
        <time>2018-03-31T14:07:43Z</time>
      </trkpt>
      <trkpt lat="36.851729" lon="-4.938627">
        <ele>737.561</ele>
        <time>2018-03-31T14:07:46Z</time>
      </trkpt>
      <trkpt lat="36.851672" lon="-4.938635">
        <ele>736.432</ele>
        <time>2018-03-31T14:07:49Z</time>
      </trkpt>
      <trkpt lat="36.851624" lon="-4.938662">
        <ele>735.955</ele>
        <time>2018-03-31T14:07:53Z</time>
      </trkpt>
      <trkpt lat="36.851576" lon="-4.938695">
        <ele>736.361</ele>
        <time>2018-03-31T14:07:56Z</time>
      </trkpt>
      <trkpt lat="36.851533" lon="-4.938732">
        <ele>736.860</ele>
        <time>2018-03-31T14:07:59Z</time>
      </trkpt>
      <trkpt lat="36.851478" lon="-4.938763">
        <ele>737.857</ele>
        <time>2018-03-31T14:08:03Z</time>
      </trkpt>
      <trkpt lat="36.851433" lon="-4.938786">
        <ele>739.229</ele>
        <time>2018-03-31T14:08:07Z</time>
      </trkpt>
      <trkpt lat="36.851387" lon="-4.938841">
        <ele>740.171</ele>
        <time>2018-03-31T14:08:11Z</time>
      </trkpt>
      <trkpt lat="36.851370" lon="-4.938893">
        <ele>740.482</ele>
        <time>2018-03-31T14:08:14Z</time>
      </trkpt>
      <trkpt lat="36.851384" lon="-4.938960">
        <ele>740.043</ele>
        <time>2018-03-31T14:08:22Z</time>
      </trkpt>
      <trkpt lat="36.851427" lon="-4.938988">
        <ele>736.817</ele>
        <time>2018-03-31T14:08:27Z</time>
      </trkpt>
      <trkpt lat="36.851465" lon="-4.939026">
        <ele>732.008</ele>
        <time>2018-03-31T14:09:16Z</time>
      </trkpt>
      <trkpt lat="36.851418" lon="-4.939057">
        <ele>732.540</ele>
        <time>2018-03-31T14:09:55Z</time>
      </trkpt>
      <trkpt lat="36.851429" lon="-4.939113">
        <ele>732.511</ele>
        <time>2018-03-31T14:10:04Z</time>
      </trkpt>
      <trkpt lat="36.851376" lon="-4.939135">
        <ele>725.374</ele>
        <time>2018-03-31T14:10:43Z</time>
      </trkpt>
      <trkpt lat="36.851339" lon="-4.939170">
        <ele>732.970</ele>
        <time>2018-03-31T14:11:01Z</time>
      </trkpt>
      <trkpt lat="36.851338" lon="-4.939226">
        <ele>733.069</ele>
        <time>2018-03-31T14:11:28Z</time>
      </trkpt>
      <trkpt lat="36.851306" lon="-4.939266">
        <ele>733.226</ele>
        <time>2018-03-31T14:12:19Z</time>
      </trkpt>
      <trkpt lat="36.851326" lon="-4.939202">
        <ele>733.098</ele>
        <time>2018-03-31T14:12:39Z</time>
      </trkpt>
      <trkpt lat="36.851367" lon="-4.939171">
        <ele>732.960</ele>
        <time>2018-03-31T14:12:51Z</time>
      </trkpt>
      <trkpt lat="36.851321" lon="-4.939177">
        <ele>732.948</ele>
        <time>2018-03-31T14:13:24Z</time>
      </trkpt>
      <trkpt lat="36.851291" lon="-4.939134">
        <ele>732.961</ele>
        <time>2018-03-31T14:13:52Z</time>
      </trkpt>
      <trkpt lat="36.851279" lon="-4.939192">
        <ele>733.017</ele>
        <time>2018-03-31T14:14:19Z</time>
      </trkpt>
      <trkpt lat="36.851243" lon="-4.939237">
        <ele>733.308</ele>
        <time>2018-03-31T14:14:23Z</time>
      </trkpt>
      <trkpt lat="36.851222" lon="-4.939291">
        <ele>733.676</ele>
        <time>2018-03-31T14:14:27Z</time>
      </trkpt>
      <trkpt lat="36.851189" lon="-4.939355">
        <ele>734.267</ele>
        <time>2018-03-31T14:14:30Z</time>
      </trkpt>
      <trkpt lat="36.851145" lon="-4.939400">
        <ele>735.110</ele>
        <time>2018-03-31T14:14:33Z</time>
      </trkpt>
      <trkpt lat="36.851103" lon="-4.939448">
        <ele>735.746</ele>
        <time>2018-03-31T14:14:36Z</time>
      </trkpt>
      <trkpt lat="36.851068" lon="-4.939488">
        <ele>735.555</ele>
        <time>2018-03-31T14:14:38Z</time>
      </trkpt>
      <trkpt lat="36.851031" lon="-4.939539">
        <ele>735.452</ele>
        <time>2018-03-31T14:14:41Z</time>
      </trkpt>
      <trkpt lat="36.850993" lon="-4.939571">
        <ele>735.264</ele>
        <time>2018-03-31T14:14:44Z</time>
      </trkpt>
      <trkpt lat="36.850937" lon="-4.939605">
        <ele>735.016</ele>
        <time>2018-03-31T14:14:47Z</time>
      </trkpt>
      <trkpt lat="36.850892" lon="-4.939666">
        <ele>735.116</ele>
        <time>2018-03-31T14:14:50Z</time>
      </trkpt>
      <trkpt lat="36.850847" lon="-4.939714">
        <ele>735.676</ele>
        <time>2018-03-31T14:14:52Z</time>
      </trkpt>
      <trkpt lat="36.850793" lon="-4.939772">
        <ele>736.013</ele>
        <time>2018-03-31T14:14:54Z</time>
      </trkpt>
      <trkpt lat="36.850746" lon="-4.939821">
        <ele>736.108</ele>
        <time>2018-03-31T14:14:56Z</time>
      </trkpt>
      <trkpt lat="36.850708" lon="-4.939860">
        <ele>736.193</ele>
        <time>2018-03-31T14:14:58Z</time>
      </trkpt>
      <trkpt lat="36.850667" lon="-4.939904">
        <ele>736.254</ele>
        <time>2018-03-31T14:15:00Z</time>
      </trkpt>
      <trkpt lat="36.850620" lon="-4.939942">
        <ele>736.257</ele>
        <time>2018-03-31T14:15:02Z</time>
      </trkpt>
      <trkpt lat="36.850565" lon="-4.939991">
        <ele>735.993</ele>
        <time>2018-03-31T14:15:04Z</time>
      </trkpt>
      <trkpt lat="36.850523" lon="-4.940032">
        <ele>736.212</ele>
        <time>2018-03-31T14:15:06Z</time>
      </trkpt>
      <trkpt lat="36.850482" lon="-4.940071">
        <ele>736.689</ele>
        <time>2018-03-31T14:15:08Z</time>
      </trkpt>
      <trkpt lat="36.850446" lon="-4.940115">
        <ele>737.131</ele>
        <time>2018-03-31T14:15:10Z</time>
      </trkpt>
      <trkpt lat="36.850405" lon="-4.940177">
        <ele>737.933</ele>
        <time>2018-03-31T14:15:13Z</time>
      </trkpt>
      <trkpt lat="36.850359" lon="-4.940236">
        <ele>738.769</ele>
        <time>2018-03-31T14:15:16Z</time>
      </trkpt>
      <trkpt lat="36.850332" lon="-4.940293">
        <ele>739.604</ele>
        <time>2018-03-31T14:15:18Z</time>
      </trkpt>
      <trkpt lat="36.850299" lon="-4.940364">
        <ele>739.524</ele>
        <time>2018-03-31T14:15:21Z</time>
      </trkpt>
      <trkpt lat="36.850274" lon="-4.940412">
        <ele>739.208</ele>
        <time>2018-03-31T14:15:23Z</time>
      </trkpt>
      <trkpt lat="36.850262" lon="-4.940473">
        <ele>739.068</ele>
        <time>2018-03-31T14:15:25Z</time>
      </trkpt>
      <trkpt lat="36.850260" lon="-4.940533">
        <ele>738.919</ele>
        <time>2018-03-31T14:15:27Z</time>
      </trkpt>
      <trkpt lat="36.850291" lon="-4.940620">
        <ele>739.012</ele>
        <time>2018-03-31T14:15:29Z</time>
      </trkpt>
      <trkpt lat="36.850320" lon="-4.940699">
        <ele>739.628</ele>
        <time>2018-03-31T14:15:31Z</time>
      </trkpt>
      <trkpt lat="36.850330" lon="-4.940762">
        <ele>740.087</ele>
        <time>2018-03-31T14:15:33Z</time>
      </trkpt>
      <trkpt lat="36.850341" lon="-4.940837">
        <ele>740.294</ele>
        <time>2018-03-31T14:15:36Z</time>
      </trkpt>
      <trkpt lat="36.850343" lon="-4.940909">
        <ele>739.966</ele>
        <time>2018-03-31T14:15:39Z</time>
      </trkpt>
      <trkpt lat="36.850326" lon="-4.940989">
        <ele>739.078</ele>
        <time>2018-03-31T14:15:42Z</time>
      </trkpt>
      <trkpt lat="36.850300" lon="-4.941087">
        <ele>737.771</ele>
        <time>2018-03-31T14:15:44Z</time>
      </trkpt>
      <trkpt lat="36.850272" lon="-4.941175">
        <ele>736.141</ele>
        <time>2018-03-31T14:15:46Z</time>
      </trkpt>
      <trkpt lat="36.850255" lon="-4.941275">
        <ele>735.415</ele>
        <time>2018-03-31T14:15:48Z</time>
      </trkpt>
      <trkpt lat="36.850249" lon="-4.941338">
        <ele>735.108</ele>
        <time>2018-03-31T14:15:49Z</time>
      </trkpt>
      <trkpt lat="36.850245" lon="-4.941407">
        <ele>734.819</ele>
        <time>2018-03-31T14:15:50Z</time>
      </trkpt>
      <trkpt lat="36.850243" lon="-4.941473">
        <ele>734.620</ele>
        <time>2018-03-31T14:15:51Z</time>
      </trkpt>
      <trkpt lat="36.850246" lon="-4.941531">
        <ele>734.583</ele>
        <time>2018-03-31T14:15:52Z</time>
      </trkpt>
      <trkpt lat="36.850261" lon="-4.941627">
        <ele>734.829</ele>
        <time>2018-03-31T14:15:54Z</time>
      </trkpt>
      <trkpt lat="36.850260" lon="-4.941720">
        <ele>735.328</ele>
        <time>2018-03-31T14:15:56Z</time>
      </trkpt>
      <trkpt lat="36.850240" lon="-4.941801">
        <ele>735.185</ele>
        <time>2018-03-31T14:15:58Z</time>
      </trkpt>
      <trkpt lat="36.850225" lon="-4.941880">
        <ele>734.787</ele>
        <time>2018-03-31T14:16:00Z</time>
      </trkpt>
      <trkpt lat="36.850225" lon="-4.941952">
        <ele>734.329</ele>
        <time>2018-03-31T14:16:02Z</time>
      </trkpt>
      <trkpt lat="36.850253" lon="-4.942032">
        <ele>734.176</ele>
        <time>2018-03-31T14:16:04Z</time>
      </trkpt>
      <trkpt lat="36.850294" lon="-4.942116">
        <ele>734.190</ele>
        <time>2018-03-31T14:16:06Z</time>
      </trkpt>
      <trkpt lat="36.850337" lon="-4.942201">
        <ele>734.319</ele>
        <time>2018-03-31T14:16:08Z</time>
      </trkpt>
      <trkpt lat="36.850366" lon="-4.942283">
        <ele>734.708</ele>
        <time>2018-03-31T14:16:10Z</time>
      </trkpt>
      <trkpt lat="36.850370" lon="-4.942339">
        <ele>735.589</ele>
        <time>2018-03-31T14:16:12Z</time>
      </trkpt>
      <trkpt lat="36.850328" lon="-4.942386">
        <ele>736.140</ele>
        <time>2018-03-31T14:16:15Z</time>
      </trkpt>
      <trkpt lat="36.850288" lon="-4.942449">
        <ele>735.973</ele>
        <time>2018-03-31T14:16:17Z</time>
      </trkpt>
      <trkpt lat="36.850260" lon="-4.942496">
        <ele>735.899</ele>
        <time>2018-03-31T14:16:18Z</time>
      </trkpt>
      <trkpt lat="36.850226" lon="-4.942542">
        <ele>735.198</ele>
        <time>2018-03-31T14:16:19Z</time>
      </trkpt>
      <trkpt lat="36.850166" lon="-4.942624">
        <ele>734.045</ele>
        <time>2018-03-31T14:16:21Z</time>
      </trkpt>
      <trkpt lat="36.850119" lon="-4.942691">
        <ele>732.827</ele>
        <time>2018-03-31T14:16:23Z</time>
      </trkpt>
      <trkpt lat="36.850084" lon="-4.942769">
        <ele>732.249</ele>
        <time>2018-03-31T14:16:25Z</time>
      </trkpt>
      <trkpt lat="36.850044" lon="-4.942834">
        <ele>731.918</ele>
        <time>2018-03-31T14:16:27Z</time>
      </trkpt>
      <trkpt lat="36.850005" lon="-4.942892">
        <ele>731.298</ele>
        <time>2018-03-31T14:16:29Z</time>
      </trkpt>
      <trkpt lat="36.849969" lon="-4.942957">
        <ele>731.217</ele>
        <time>2018-03-31T14:16:31Z</time>
      </trkpt>
      <trkpt lat="36.849935" lon="-4.943012">
        <ele>731.408</ele>
        <time>2018-03-31T14:16:33Z</time>
      </trkpt>
      <trkpt lat="36.849875" lon="-4.943080">
        <ele>731.633</ele>
        <time>2018-03-31T14:16:35Z</time>
      </trkpt>
      <trkpt lat="36.849819" lon="-4.943141">
        <ele>731.784</ele>
        <time>2018-03-31T14:16:37Z</time>
      </trkpt>
      <trkpt lat="36.849752" lon="-4.943192">
        <ele>731.757</ele>
        <time>2018-03-31T14:16:39Z</time>
      </trkpt>
      <trkpt lat="36.849674" lon="-4.943237">
        <ele>731.683</ele>
        <time>2018-03-31T14:16:41Z</time>
      </trkpt>
      <trkpt lat="36.849628" lon="-4.943266">
        <ele>731.562</ele>
        <time>2018-03-31T14:16:42Z</time>
      </trkpt>
      <trkpt lat="36.849586" lon="-4.943303">
        <ele>731.479</ele>
        <time>2018-03-31T14:16:43Z</time>
      </trkpt>
      <trkpt lat="36.849548" lon="-4.943348">
        <ele>731.151</ele>
        <time>2018-03-31T14:16:44Z</time>
      </trkpt>
      <trkpt lat="36.849508" lon="-4.943383">
        <ele>731.193</ele>
        <time>2018-03-31T14:16:45Z</time>
      </trkpt>
      <trkpt lat="36.849473" lon="-4.943421">
        <ele>731.143</ele>
        <time>2018-03-31T14:16:46Z</time>
      </trkpt>
      <trkpt lat="36.849414" lon="-4.943489">
        <ele>731.264</ele>
        <time>2018-03-31T14:16:48Z</time>
      </trkpt>
      <trkpt lat="36.849394" lon="-4.943543">
        <ele>731.410</ele>
        <time>2018-03-31T14:16:49Z</time>
      </trkpt>
      <trkpt lat="36.849368" lon="-4.943593">
        <ele>731.708</ele>
        <time>2018-03-31T14:16:50Z</time>
      </trkpt>
      <trkpt lat="36.849323" lon="-4.943645">
        <ele>732.546</ele>
        <time>2018-03-31T14:16:52Z</time>
      </trkpt>
      <trkpt lat="36.849276" lon="-4.943666">
        <ele>733.347</ele>
        <time>2018-03-31T14:16:54Z</time>
      </trkpt>
      <trkpt lat="36.849231" lon="-4.943684">
        <ele>733.980</ele>
        <time>2018-03-31T14:16:56Z</time>
      </trkpt>
      <trkpt lat="36.849177" lon="-4.943691">
        <ele>734.386</ele>
        <time>2018-03-31T14:16:58Z</time>
      </trkpt>
      <trkpt lat="36.849118" lon="-4.943703">
        <ele>735.215</ele>
        <time>2018-03-31T14:17:00Z</time>
      </trkpt>
      <trkpt lat="36.849056" lon="-4.943707">
        <ele>735.852</ele>
        <time>2018-03-31T14:17:02Z</time>
      </trkpt>
      <trkpt lat="36.848995" lon="-4.943719">
        <ele>736.444</ele>
        <time>2018-03-31T14:17:04Z</time>
      </trkpt>
      <trkpt lat="36.848941" lon="-4.943718">
        <ele>737.126</ele>
        <time>2018-03-31T14:17:07Z</time>
      </trkpt>
      <trkpt lat="36.848874" lon="-4.943680">
        <ele>737.082</ele>
        <time>2018-03-31T14:17:09Z</time>
      </trkpt>
      <trkpt lat="36.848828" lon="-4.943624">
        <ele>737.743</ele>
        <time>2018-03-31T14:17:11Z</time>
      </trkpt>
      <trkpt lat="36.848793" lon="-4.943567">
        <ele>737.817</ele>
        <time>2018-03-31T14:17:13Z</time>
      </trkpt>
      <trkpt lat="36.848759" lon="-4.943510">
        <ele>738.108</ele>
        <time>2018-03-31T14:17:15Z</time>
      </trkpt>
      <trkpt lat="36.848735" lon="-4.943457">
        <ele>738.010</ele>
        <time>2018-03-31T14:17:17Z</time>
      </trkpt>
      <trkpt lat="36.848715" lon="-4.943404">
        <ele>738.061</ele>
        <time>2018-03-31T14:17:19Z</time>
      </trkpt>
      <trkpt lat="36.848691" lon="-4.943331">
        <ele>737.794</ele>
        <time>2018-03-31T14:17:22Z</time>
      </trkpt>
      <trkpt lat="36.848664" lon="-4.943254">
        <ele>737.460</ele>
        <time>2018-03-31T14:17:25Z</time>
      </trkpt>
      <trkpt lat="36.848640" lon="-4.943182">
        <ele>737.249</ele>
        <time>2018-03-31T14:17:27Z</time>
      </trkpt>
      <trkpt lat="36.848618" lon="-4.943132">
        <ele>737.046</ele>
        <time>2018-03-31T14:17:29Z</time>
      </trkpt>
      <trkpt lat="36.848575" lon="-4.943070">
        <ele>737.258</ele>
        <time>2018-03-31T14:17:32Z</time>
      </trkpt>
      <trkpt lat="36.848538" lon="-4.943030">
        <ele>737.510</ele>
        <time>2018-03-31T14:17:34Z</time>
      </trkpt>
      <trkpt lat="36.848502" lon="-4.942984">
        <ele>737.872</ele>
        <time>2018-03-31T14:17:36Z</time>
      </trkpt>
      <trkpt lat="36.848453" lon="-4.942928">
        <ele>738.213</ele>
        <time>2018-03-31T14:17:40Z</time>
      </trkpt>
      <trkpt lat="36.848411" lon="-4.942887">
        <ele>738.614</ele>
        <time>2018-03-31T14:17:42Z</time>
      </trkpt>
      <trkpt lat="36.848367" lon="-4.942846">
        <ele>739.108</ele>
        <time>2018-03-31T14:17:44Z</time>
      </trkpt>
      <trkpt lat="36.848319" lon="-4.942798">
        <ele>739.749</ele>
        <time>2018-03-31T14:17:46Z</time>
      </trkpt>
      <trkpt lat="36.848277" lon="-4.942746">
        <ele>740.090</ele>
        <time>2018-03-31T14:17:48Z</time>
      </trkpt>
      <trkpt lat="36.848239" lon="-4.942696">
        <ele>740.413</ele>
        <time>2018-03-31T14:17:50Z</time>
      </trkpt>
      <trkpt lat="36.848203" lon="-4.942643">
        <ele>740.559</ele>
        <time>2018-03-31T14:17:52Z</time>
      </trkpt>
      <trkpt lat="36.848148" lon="-4.942603">
        <ele>741.198</ele>
        <time>2018-03-31T14:17:54Z</time>
      </trkpt>
      <trkpt lat="36.848103" lon="-4.942553">
        <ele>741.765</ele>
        <time>2018-03-31T14:17:56Z</time>
      </trkpt>
      <trkpt lat="36.848059" lon="-4.942508">
        <ele>742.257</ele>
        <time>2018-03-31T14:17:59Z</time>
      </trkpt>
      <trkpt lat="36.848016" lon="-4.942462">
        <ele>742.869</ele>
        <time>2018-03-31T14:18:02Z</time>
      </trkpt>
      <trkpt lat="36.847928" lon="-4.942387">
        <ele>742.812</ele>
        <time>2018-03-31T14:18:03Z</time>
      </trkpt>
      <trkpt lat="36.847896" lon="-4.942346">
        <ele>743.332</ele>
        <time>2018-03-31T14:18:21Z</time>
      </trkpt>
      <trkpt lat="36.847857" lon="-4.942304">
        <ele>743.105</ele>
        <time>2018-03-31T14:18:26Z</time>
      </trkpt>
      <trkpt lat="36.847814" lon="-4.942282">
        <ele>743.108</ele>
        <time>2018-03-31T14:19:00Z</time>
      </trkpt>
      <trkpt lat="36.847824" lon="-4.942338">
        <ele>744.093</ele>
        <time>2018-03-31T14:19:29Z</time>
      </trkpt>
      <trkpt lat="36.847811" lon="-4.942392">
        <ele>745.574</ele>
        <time>2018-03-31T14:19:57Z</time>
      </trkpt>
      <trkpt lat="36.847787" lon="-4.942342">
        <ele>744.827</ele>
        <time>2018-03-31T14:22:22Z</time>
      </trkpt>
      <trkpt lat="36.847741" lon="-4.942308">
        <ele>745.053</ele>
        <time>2018-03-31T14:22:39Z</time>
      </trkpt>
      <trkpt lat="36.847688" lon="-4.942299">
        <ele>745.692</ele>
        <time>2018-03-31T14:22:43Z</time>
      </trkpt>
      <trkpt lat="36.847633" lon="-4.942287">
        <ele>746.339</ele>
        <time>2018-03-31T14:22:46Z</time>
      </trkpt>
      <trkpt lat="36.847584" lon="-4.942286">
        <ele>747.391</ele>
        <time>2018-03-31T14:22:49Z</time>
      </trkpt>
      <trkpt lat="36.847526" lon="-4.942283">
        <ele>748.383</ele>
        <time>2018-03-31T14:22:53Z</time>
      </trkpt>
      <trkpt lat="36.847472" lon="-4.942267">
        <ele>749.185</ele>
        <time>2018-03-31T14:22:57Z</time>
      </trkpt>
      <trkpt lat="36.847414" lon="-4.942236">
        <ele>749.489</ele>
        <time>2018-03-31T14:23:04Z</time>
      </trkpt>
      <trkpt lat="36.847371" lon="-4.942218">
        <ele>749.717</ele>
        <time>2018-03-31T14:23:06Z</time>
      </trkpt>
      <trkpt lat="36.847316" lon="-4.942201">
        <ele>749.908</ele>
        <time>2018-03-31T14:23:10Z</time>
      </trkpt>
      <trkpt lat="36.847264" lon="-4.942183">
        <ele>750.120</ele>
        <time>2018-03-31T14:23:14Z</time>
      </trkpt>
      <trkpt lat="36.847209" lon="-4.942183">
        <ele>750.641</ele>
        <time>2018-03-31T14:23:18Z</time>
      </trkpt>
      <trkpt lat="36.847145" lon="-4.942194">
        <ele>750.874</ele>
        <time>2018-03-31T14:23:21Z</time>
      </trkpt>
      <trkpt lat="36.847102" lon="-4.942226">
        <ele>751.130</ele>
        <time>2018-03-31T14:23:23Z</time>
      </trkpt>
      <trkpt lat="36.847063" lon="-4.942275">
        <ele>751.439</ele>
        <time>2018-03-31T14:23:25Z</time>
      </trkpt>
      <trkpt lat="36.847033" lon="-4.942324">
        <ele>751.546</ele>
        <time>2018-03-31T14:23:28Z</time>
      </trkpt>
      <trkpt lat="36.847030" lon="-4.942381">
        <ele>751.728</ele>
        <time>2018-03-31T14:23:34Z</time>
      </trkpt>
      <trkpt lat="36.847022" lon="-4.942436">
        <ele>751.820</ele>
        <time>2018-03-31T14:24:56Z</time>
      </trkpt>
      <trkpt lat="36.846984" lon="-4.942467">
        <ele>751.583</ele>
        <time>2018-03-31T14:27:38Z</time>
      </trkpt>
      <trkpt lat="36.846974" lon="-4.942546">
        <ele>751.525</ele>
        <time>2018-03-31T14:30:20Z</time>
      </trkpt>
      <trkpt lat="36.846964" lon="-4.942617">
        <ele>751.317</ele>
        <time>2018-03-31T14:30:24Z</time>
      </trkpt>
      <trkpt lat="36.846966" lon="-4.942695">
        <ele>751.408</ele>
        <time>2018-03-31T14:30:28Z</time>
      </trkpt>
      <trkpt lat="36.846967" lon="-4.942751">
        <ele>751.420</ele>
        <time>2018-03-31T14:30:30Z</time>
      </trkpt>
      <trkpt lat="36.846969" lon="-4.942812">
        <ele>751.571</ele>
        <time>2018-03-31T14:30:32Z</time>
      </trkpt>
      <trkpt lat="36.846982" lon="-4.942891">
        <ele>751.734</ele>
        <time>2018-03-31T14:30:34Z</time>
      </trkpt>
      <trkpt lat="36.846993" lon="-4.942958">
        <ele>752.040</ele>
        <time>2018-03-31T14:30:36Z</time>
      </trkpt>
      <trkpt lat="36.846997" lon="-4.943033">
        <ele>752.219</ele>
        <time>2018-03-31T14:30:38Z</time>
      </trkpt>
      <trkpt lat="36.846989" lon="-4.943102">
        <ele>752.466</ele>
        <time>2018-03-31T14:30:40Z</time>
      </trkpt>
      <trkpt lat="36.846966" lon="-4.943186">
        <ele>753.078</ele>
        <time>2018-03-31T14:30:42Z</time>
      </trkpt>
      <trkpt lat="36.846925" lon="-4.943259">
        <ele>752.910</ele>
        <time>2018-03-31T14:30:44Z</time>
      </trkpt>
      <trkpt lat="36.846863" lon="-4.943324">
        <ele>751.962</ele>
        <time>2018-03-31T14:30:46Z</time>
      </trkpt>
      <trkpt lat="36.846799" lon="-4.943386">
        <ele>751.283</ele>
        <time>2018-03-31T14:30:48Z</time>
      </trkpt>
      <trkpt lat="36.846736" lon="-4.943423">
        <ele>750.511</ele>
        <time>2018-03-31T14:30:50Z</time>
      </trkpt>
      <trkpt lat="36.846681" lon="-4.943449">
        <ele>749.908</ele>
        <time>2018-03-31T14:30:52Z</time>
      </trkpt>
      <trkpt lat="36.846619" lon="-4.943463">
        <ele>749.458</ele>
        <time>2018-03-31T14:30:54Z</time>
      </trkpt>
      <trkpt lat="36.846563" lon="-4.943466">
        <ele>748.739</ele>
        <time>2018-03-31T14:30:56Z</time>
      </trkpt>
      <trkpt lat="36.846492" lon="-4.943476">
        <ele>747.862</ele>
        <time>2018-03-31T14:30:58Z</time>
      </trkpt>
      <trkpt lat="36.846439" lon="-4.943475">
        <ele>746.728</ele>
        <time>2018-03-31T14:31:00Z</time>
      </trkpt>
      <trkpt lat="36.846368" lon="-4.943486">
        <ele>745.267</ele>
        <time>2018-03-31T14:31:03Z</time>
      </trkpt>
      <trkpt lat="36.846318" lon="-4.943503">
        <ele>744.314</ele>
        <time>2018-03-31T14:31:05Z</time>
      </trkpt>
      <trkpt lat="36.846267" lon="-4.943518">
        <ele>743.566</ele>
        <time>2018-03-31T14:31:07Z</time>
      </trkpt>
      <trkpt lat="36.846218" lon="-4.943547">
        <ele>742.928</ele>
        <time>2018-03-31T14:31:09Z</time>
      </trkpt>
      <trkpt lat="36.846149" lon="-4.943580">
        <ele>742.537</ele>
        <time>2018-03-31T14:31:11Z</time>
      </trkpt>
      <trkpt lat="36.846108" lon="-4.943608">
        <ele>742.349</ele>
        <time>2018-03-31T14:31:12Z</time>
      </trkpt>
      <trkpt lat="36.846042" lon="-4.943657">
        <ele>742.113</ele>
        <time>2018-03-31T14:31:14Z</time>
      </trkpt>
      <trkpt lat="36.845981" lon="-4.943717">
        <ele>742.008</ele>
        <time>2018-03-31T14:31:16Z</time>
      </trkpt>
      <trkpt lat="36.845918" lon="-4.943771">
        <ele>742.025</ele>
        <time>2018-03-31T14:31:18Z</time>
      </trkpt>
      <trkpt lat="36.845876" lon="-4.943833">
        <ele>741.926</ele>
        <time>2018-03-31T14:31:20Z</time>
      </trkpt>
      <trkpt lat="36.845822" lon="-4.943887">
        <ele>741.949</ele>
        <time>2018-03-31T14:31:23Z</time>
      </trkpt>
      <trkpt lat="36.845780" lon="-4.943916">
        <ele>741.875</ele>
        <time>2018-03-31T14:31:25Z</time>
      </trkpt>
      <trkpt lat="36.845728" lon="-4.943950">
        <ele>741.834</ele>
        <time>2018-03-31T14:31:28Z</time>
      </trkpt>
      <trkpt lat="36.845683" lon="-4.943975">
        <ele>742.051</ele>
        <time>2018-03-31T14:31:30Z</time>
      </trkpt>
      <trkpt lat="36.845624" lon="-4.944023">
        <ele>742.643</ele>
        <time>2018-03-31T14:31:32Z</time>
      </trkpt>
      <trkpt lat="36.845582" lon="-4.944075">
        <ele>744.085</ele>
        <time>2018-03-31T14:31:35Z</time>
      </trkpt>
      <trkpt lat="36.845538" lon="-4.944101">
        <ele>744.947</ele>
        <time>2018-03-31T14:31:37Z</time>
      </trkpt>
      <trkpt lat="36.845483" lon="-4.944110">
        <ele>747.529</ele>
        <time>2018-03-31T14:31:40Z</time>
      </trkpt>
      <trkpt lat="36.845430" lon="-4.944128">
        <ele>750.121</ele>
        <time>2018-03-31T14:31:44Z</time>
      </trkpt>
      <trkpt lat="36.845377" lon="-4.944153">
        <ele>751.608</ele>
        <time>2018-03-31T14:31:47Z</time>
      </trkpt>
      <trkpt lat="36.845345" lon="-4.944200">
        <ele>751.366</ele>
        <time>2018-03-31T14:31:52Z</time>
      </trkpt>
      <trkpt lat="36.845306" lon="-4.944242">
        <ele>750.977</ele>
        <time>2018-03-31T14:31:56Z</time>
      </trkpt>
      <trkpt lat="36.845266" lon="-4.944293">
        <ele>750.330</ele>
        <time>2018-03-31T14:32:00Z</time>
      </trkpt>
      <trkpt lat="36.845230" lon="-4.944333">
        <ele>750.196</ele>
        <time>2018-03-31T14:32:03Z</time>
      </trkpt>
      <trkpt lat="36.845183" lon="-4.944369">
        <ele>749.765</ele>
        <time>2018-03-31T14:32:06Z</time>
      </trkpt>
      <trkpt lat="36.845141" lon="-4.944415">
        <ele>749.862</ele>
        <time>2018-03-31T14:32:09Z</time>
      </trkpt>
      <trkpt lat="36.845101" lon="-4.944480">
        <ele>750.724</ele>
        <time>2018-03-31T14:32:12Z</time>
      </trkpt>
      <trkpt lat="36.845067" lon="-4.944528">
        <ele>750.966</ele>
        <time>2018-03-31T14:32:14Z</time>
      </trkpt>
      <trkpt lat="36.845040" lon="-4.944588">
        <ele>751.013</ele>
        <time>2018-03-31T14:32:16Z</time>
      </trkpt>
      <trkpt lat="36.845017" lon="-4.944651">
        <ele>750.843</ele>
        <time>2018-03-31T14:32:18Z</time>
      </trkpt>
      <trkpt lat="36.844980" lon="-4.944703">
        <ele>750.107</ele>
        <time>2018-03-31T14:32:20Z</time>
      </trkpt>
      <trkpt lat="36.844918" lon="-4.944758">
        <ele>749.008</ele>
        <time>2018-03-31T14:32:22Z</time>
      </trkpt>
      <trkpt lat="36.844873" lon="-4.944774">
        <ele>748.643</ele>
        <time>2018-03-31T14:32:23Z</time>
      </trkpt>
      <trkpt lat="36.844793" lon="-4.944805">
        <ele>748.664</ele>
        <time>2018-03-31T14:32:25Z</time>
      </trkpt>
      <trkpt lat="36.844732" lon="-4.944815">
        <ele>748.657</ele>
        <time>2018-03-31T14:32:27Z</time>
      </trkpt>
      <trkpt lat="36.844679" lon="-4.944827">
        <ele>748.923</ele>
        <time>2018-03-31T14:32:29Z</time>
      </trkpt>
      <trkpt lat="36.844632" lon="-4.944830">
        <ele>749.572</ele>
        <time>2018-03-31T14:32:31Z</time>
      </trkpt>
      <trkpt lat="36.844582" lon="-4.944834">
        <ele>749.689</ele>
        <time>2018-03-31T14:32:33Z</time>
      </trkpt>
      <trkpt lat="36.844516" lon="-4.944845">
        <ele>749.021</ele>
        <time>2018-03-31T14:32:36Z</time>
      </trkpt>
      <trkpt lat="36.844468" lon="-4.944811">
        <ele>748.253</ele>
        <time>2018-03-31T14:32:39Z</time>
      </trkpt>
      <trkpt lat="36.844424" lon="-4.944775">
        <ele>749.416</ele>
        <time>2018-03-31T14:32:42Z</time>
      </trkpt>
      <trkpt lat="36.844374" lon="-4.944760">
        <ele>749.776</ele>
        <time>2018-03-31T14:32:44Z</time>
      </trkpt>
      <trkpt lat="36.844320" lon="-4.944755">
        <ele>750.113</ele>
        <time>2018-03-31T14:32:46Z</time>
      </trkpt>
      <trkpt lat="36.844263" lon="-4.944750">
        <ele>750.708</ele>
        <time>2018-03-31T14:32:49Z</time>
      </trkpt>
      <trkpt lat="36.844218" lon="-4.944759">
        <ele>750.853</ele>
        <time>2018-03-31T14:32:51Z</time>
      </trkpt>
      <trkpt lat="36.844173" lon="-4.944768">
        <ele>750.774</ele>
        <time>2018-03-31T14:32:53Z</time>
      </trkpt>
      <trkpt lat="36.844127" lon="-4.944784">
        <ele>750.277</ele>
        <time>2018-03-31T14:32:55Z</time>
      </trkpt>
      <trkpt lat="36.844078" lon="-4.944804">
        <ele>749.943</ele>
        <time>2018-03-31T14:32:57Z</time>
      </trkpt>
      <trkpt lat="36.844016" lon="-4.944834">
        <ele>750.022</ele>
        <time>2018-03-31T14:33:00Z</time>
      </trkpt>
      <trkpt lat="36.843957" lon="-4.944850">
        <ele>750.399</ele>
        <time>2018-03-31T14:33:04Z</time>
      </trkpt>
      <trkpt lat="36.843908" lon="-4.944843">
        <ele>750.661</ele>
        <time>2018-03-31T14:33:11Z</time>
      </trkpt>
      <trkpt lat="36.843885" lon="-4.944769">
        <ele>750.143</ele>
        <time>2018-03-31T14:33:15Z</time>
      </trkpt>
      <trkpt lat="36.843880" lon="-4.944689">
        <ele>750.169</ele>
        <time>2018-03-31T14:33:17Z</time>
      </trkpt>
      <trkpt lat="36.843874" lon="-4.944604">
        <ele>750.404</ele>
        <time>2018-03-31T14:33:19Z</time>
      </trkpt>
      <trkpt lat="36.843864" lon="-4.944535">
        <ele>751.024</ele>
        <time>2018-03-31T14:33:21Z</time>
      </trkpt>
      <trkpt lat="36.843856" lon="-4.944470">
        <ele>751.808</ele>
        <time>2018-03-31T14:33:25Z</time>
      </trkpt>
      <trkpt lat="36.843879" lon="-4.944403">
        <ele>752.618</ele>
        <time>2018-03-31T14:33:29Z</time>
      </trkpt>
      <trkpt lat="36.843908" lon="-4.944353">
        <ele>752.769</ele>
        <time>2018-03-31T14:33:33Z</time>
      </trkpt>
      <trkpt lat="36.843916" lon="-4.944297">
        <ele>752.732</ele>
        <time>2018-03-31T14:33:36Z</time>
      </trkpt>
      <trkpt lat="36.843922" lon="-4.944232">
        <ele>752.638</ele>
        <time>2018-03-31T14:33:39Z</time>
      </trkpt>
      <trkpt lat="36.843931" lon="-4.944148">
        <ele>752.647</ele>
        <time>2018-03-31T14:33:42Z</time>
      </trkpt>
      <trkpt lat="36.843926" lon="-4.944055">
        <ele>752.694</ele>
        <time>2018-03-31T14:33:44Z</time>
      </trkpt>
      <trkpt lat="36.843926" lon="-4.943960">
        <ele>752.736</ele>
        <time>2018-03-31T14:33:46Z</time>
      </trkpt>
      <trkpt lat="36.843919" lon="-4.943851">
        <ele>752.798</ele>
        <time>2018-03-31T14:33:48Z</time>
      </trkpt>
      <trkpt lat="36.843927" lon="-4.943791">
        <ele>752.676</ele>
        <time>2018-03-31T14:33:49Z</time>
      </trkpt>
      <trkpt lat="36.843943" lon="-4.943723">
        <ele>752.590</ele>
        <time>2018-03-31T14:33:50Z</time>
      </trkpt>
      <trkpt lat="36.843958" lon="-4.943662">
        <ele>752.419</ele>
        <time>2018-03-31T14:33:51Z</time>
      </trkpt>
      <trkpt lat="36.843969" lon="-4.943607">
        <ele>752.208</ele>
        <time>2018-03-31T14:33:52Z</time>
      </trkpt>
      <trkpt lat="36.843967" lon="-4.943501">
        <ele>751.899</ele>
        <time>2018-03-31T14:33:54Z</time>
      </trkpt>
      <trkpt lat="36.843930" lon="-4.943409">
        <ele>751.040</ele>
        <time>2018-03-31T14:33:56Z</time>
      </trkpt>
      <trkpt lat="36.843860" lon="-4.943358">
        <ele>750.423</ele>
        <time>2018-03-31T14:33:58Z</time>
      </trkpt>
      <trkpt lat="36.843778" lon="-4.943339">
        <ele>749.629</ele>
        <time>2018-03-31T14:34:00Z</time>
      </trkpt>
      <trkpt lat="36.843732" lon="-4.943341">
        <ele>749.118</ele>
        <time>2018-03-31T14:34:01Z</time>
      </trkpt>
      <trkpt lat="36.843643" lon="-4.943358">
        <ele>748.455</ele>
        <time>2018-03-31T14:34:03Z</time>
      </trkpt>
      <trkpt lat="36.843570" lon="-4.943379">
        <ele>748.477</ele>
        <time>2018-03-31T14:34:05Z</time>
      </trkpt>
      <trkpt lat="36.843524" lon="-4.943387">
        <ele>748.219</ele>
        <time>2018-03-31T14:34:06Z</time>
      </trkpt>
      <trkpt lat="36.843474" lon="-4.943394">
        <ele>747.968</ele>
        <time>2018-03-31T14:34:07Z</time>
      </trkpt>
      <trkpt lat="36.843391" lon="-4.943413">
        <ele>747.142</ele>
        <time>2018-03-31T14:34:09Z</time>
      </trkpt>
      <trkpt lat="36.843315" lon="-4.943440">
        <ele>746.526</ele>
        <time>2018-03-31T14:34:11Z</time>
      </trkpt>
      <trkpt lat="36.843247" lon="-4.943459">
        <ele>745.808</ele>
        <time>2018-03-31T14:34:13Z</time>
      </trkpt>
      <trkpt lat="36.843176" lon="-4.943474">
        <ele>744.868</ele>
        <time>2018-03-31T14:34:15Z</time>
      </trkpt>
      <trkpt lat="36.843109" lon="-4.943488">
        <ele>744.089</ele>
        <time>2018-03-31T14:34:17Z</time>
      </trkpt>
      <trkpt lat="36.843061" lon="-4.943505">
        <ele>743.952</ele>
        <time>2018-03-31T14:34:19Z</time>
      </trkpt>
      <trkpt lat="36.843019" lon="-4.943527">
        <ele>742.948</ele>
        <time>2018-03-31T14:34:22Z</time>
      </trkpt>
      <trkpt lat="36.842966" lon="-4.943552">
        <ele>739.887</ele>
        <time>2018-03-31T14:34:28Z</time>
      </trkpt>
      <trkpt lat="36.842996" lon="-4.943607">
        <ele>739.554</ele>
        <time>2018-03-31T14:34:33Z</time>
      </trkpt>
      <trkpt lat="36.842961" lon="-4.943571">
        <ele>746.926</ele>
        <time>2018-03-31T14:34:54Z</time>
      </trkpt>
      <trkpt lat="36.842897" lon="-4.943574">
        <ele>745.888</ele>
        <time>2018-03-31T14:35:42Z</time>
      </trkpt>
      <trkpt lat="36.842857" lon="-4.943617">
        <ele>746.287</ele>
        <time>2018-03-31T14:35:44Z</time>
      </trkpt>
      <trkpt lat="36.842812" lon="-4.943657">
        <ele>746.542</ele>
        <time>2018-03-31T14:35:46Z</time>
      </trkpt>
      <trkpt lat="36.842768" lon="-4.943688">
        <ele>746.926</ele>
        <time>2018-03-31T14:35:48Z</time>
      </trkpt>
      <trkpt lat="36.842720" lon="-4.943713">
        <ele>747.008</ele>
        <time>2018-03-31T14:35:50Z</time>
      </trkpt>
      <trkpt lat="36.842667" lon="-4.943747">
        <ele>747.240</ele>
        <time>2018-03-31T14:35:53Z</time>
      </trkpt>
      <trkpt lat="36.842619" lon="-4.943796">
        <ele>747.611</ele>
        <time>2018-03-31T14:35:56Z</time>
      </trkpt>
      <trkpt lat="36.842575" lon="-4.943830">
        <ele>747.944</ele>
        <time>2018-03-31T14:35:59Z</time>
      </trkpt>
      <trkpt lat="36.842529" lon="-4.943869">
        <ele>748.320</ele>
        <time>2018-03-31T14:36:04Z</time>
      </trkpt>
      <trkpt lat="36.842497" lon="-4.943912">
        <ele>748.629</ele>
        <time>2018-03-31T14:36:07Z</time>
      </trkpt>
      <trkpt lat="36.842471" lon="-4.943961">
        <ele>748.876</ele>
        <time>2018-03-31T14:36:10Z</time>
      </trkpt>
      <trkpt lat="36.842433" lon="-4.944009">
        <ele>749.028</ele>
        <time>2018-03-31T14:36:13Z</time>
      </trkpt>
      <trkpt lat="36.842395" lon="-4.944051">
        <ele>749.010</ele>
        <time>2018-03-31T14:36:16Z</time>
      </trkpt>
      <trkpt lat="36.842353" lon="-4.944103">
        <ele>749.234</ele>
        <time>2018-03-31T14:36:19Z</time>
      </trkpt>
      <trkpt lat="36.842308" lon="-4.944142">
        <ele>749.255</ele>
        <time>2018-03-31T14:36:22Z</time>
      </trkpt>
      <trkpt lat="36.842263" lon="-4.944184">
        <ele>749.210</ele>
        <time>2018-03-31T14:36:25Z</time>
      </trkpt>
      <trkpt lat="36.842221" lon="-4.944243">
        <ele>749.808</ele>
        <time>2018-03-31T14:36:28Z</time>
      </trkpt>
      <trkpt lat="36.842176" lon="-4.944302">
        <ele>750.795</ele>
        <time>2018-03-31T14:36:31Z</time>
      </trkpt>
      <trkpt lat="36.842136" lon="-4.944348">
        <ele>751.346</ele>
        <time>2018-03-31T14:36:33Z</time>
      </trkpt>
      <trkpt lat="36.842097" lon="-4.944397">
        <ele>751.839</ele>
        <time>2018-03-31T14:36:35Z</time>
      </trkpt>
      <trkpt lat="36.842058" lon="-4.944432">
        <ele>752.445</ele>
        <time>2018-03-31T14:36:37Z</time>
      </trkpt>
      <trkpt lat="36.842017" lon="-4.944461">
        <ele>752.724</ele>
        <time>2018-03-31T14:36:39Z</time>
      </trkpt>
      <trkpt lat="36.841967" lon="-4.944493">
        <ele>752.811</ele>
        <time>2018-03-31T14:36:41Z</time>
      </trkpt>
      <trkpt lat="36.841922" lon="-4.944541">
        <ele>753.153</ele>
        <time>2018-03-31T14:36:43Z</time>
      </trkpt>
      <trkpt lat="36.841881" lon="-4.944583">
        <ele>753.845</ele>
        <time>2018-03-31T14:36:45Z</time>
      </trkpt>
      <trkpt lat="36.841839" lon="-4.944611">
        <ele>754.166</ele>
        <time>2018-03-31T14:36:47Z</time>
      </trkpt>
      <trkpt lat="36.841799" lon="-4.944639">
        <ele>754.229</ele>
        <time>2018-03-31T14:36:49Z</time>
      </trkpt>
      <trkpt lat="36.841748" lon="-4.944678">
        <ele>754.421</ele>
        <time>2018-03-31T14:36:52Z</time>
      </trkpt>
      <trkpt lat="36.841693" lon="-4.944704">
        <ele>754.508</ele>
        <time>2018-03-31T14:36:55Z</time>
      </trkpt>
      <trkpt lat="36.841643" lon="-4.944732">
        <ele>754.668</ele>
        <time>2018-03-31T14:36:58Z</time>
      </trkpt>
      <trkpt lat="36.841592" lon="-4.944775">
        <ele>755.299</ele>
        <time>2018-03-31T14:37:01Z</time>
      </trkpt>
      <trkpt lat="36.841550" lon="-4.944806">
        <ele>755.972</ele>
        <time>2018-03-31T14:37:04Z</time>
      </trkpt>
      <trkpt lat="36.841503" lon="-4.944821">
        <ele>756.578</ele>
        <time>2018-03-31T14:37:07Z</time>
      </trkpt>
      <trkpt lat="36.841462" lon="-4.944846">
        <ele>757.017</ele>
        <time>2018-03-31T14:37:10Z</time>
      </trkpt>
      <trkpt lat="36.841408" lon="-4.944843">
        <ele>757.874</ele>
        <time>2018-03-31T14:37:16Z</time>
      </trkpt>
      <trkpt lat="36.841355" lon="-4.944835">
        <ele>757.946</ele>
        <time>2018-03-31T14:37:21Z</time>
      </trkpt>
      <trkpt lat="36.841310" lon="-4.944817">
        <ele>758.358</ele>
        <time>2018-03-31T14:37:24Z</time>
      </trkpt>
      <trkpt lat="36.841259" lon="-4.944796">
        <ele>759.068</ele>
        <time>2018-03-31T14:37:28Z</time>
      </trkpt>
      <trkpt lat="36.841210" lon="-4.944778">
        <ele>759.542</ele>
        <time>2018-03-31T14:37:32Z</time>
      </trkpt>
      <trkpt lat="36.841177" lon="-4.944721">
        <ele>759.826</ele>
        <time>2018-03-31T14:37:36Z</time>
      </trkpt>
      <trkpt lat="36.841121" lon="-4.944741">
        <ele>760.408</ele>
        <time>2018-03-31T14:37:43Z</time>
      </trkpt>
      <trkpt lat="36.841065" lon="-4.944739">
        <ele>761.938</ele>
        <time>2018-03-31T14:37:49Z</time>
      </trkpt>
      <trkpt lat="36.841023" lon="-4.944709">
        <ele>762.839</ele>
        <time>2018-03-31T14:37:54Z</time>
      </trkpt>
      <trkpt lat="36.840970" lon="-4.944692">
        <ele>763.412</ele>
        <time>2018-03-31T14:37:58Z</time>
      </trkpt>
      <trkpt lat="36.840911" lon="-4.944673">
        <ele>764.248</ele>
        <time>2018-03-31T14:38:02Z</time>
      </trkpt>
      <trkpt lat="36.840864" lon="-4.944684">
        <ele>765.697</ele>
        <time>2018-03-31T14:38:12Z</time>
      </trkpt>
      <trkpt lat="36.840814" lon="-4.944713">
        <ele>766.694</ele>
        <time>2018-03-31T14:38:17Z</time>
      </trkpt>
      <trkpt lat="36.840757" lon="-4.944733">
        <ele>767.756</ele>
        <time>2018-03-31T14:38:23Z</time>
      </trkpt>
      <trkpt lat="36.840721" lon="-4.944777">
        <ele>768.878</ele>
        <time>2018-03-31T14:38:29Z</time>
      </trkpt>
      <trkpt lat="36.840675" lon="-4.944785">
        <ele>769.912</ele>
        <time>2018-03-31T14:38:34Z</time>
      </trkpt>
      <trkpt lat="36.840629" lon="-4.944803">
        <ele>770.732</ele>
        <time>2018-03-31T14:38:40Z</time>
      </trkpt>
      <trkpt lat="36.840580" lon="-4.944825">
        <ele>771.905</ele>
        <time>2018-03-31T14:38:46Z</time>
      </trkpt>
      <trkpt lat="36.840537" lon="-4.944808">
        <ele>772.408</ele>
        <time>2018-03-31T14:38:52Z</time>
      </trkpt>
      <trkpt lat="36.840503" lon="-4.944771">
        <ele>771.513</ele>
        <time>2018-03-31T14:42:47Z</time>
      </trkpt>
      <trkpt lat="36.840485" lon="-4.944833">
        <ele>772.644</ele>
        <time>2018-03-31T14:45:36Z</time>
      </trkpt>
      <trkpt lat="36.840421" lon="-4.944856">
        <ele>773.397</ele>
        <time>2018-03-31T14:45:40Z</time>
      </trkpt>
      <trkpt lat="36.840373" lon="-4.944866">
        <ele>773.483</ele>
        <time>2018-03-31T14:45:42Z</time>
      </trkpt>
      <trkpt lat="36.840320" lon="-4.944858">
        <ele>773.472</ele>
        <time>2018-03-31T14:45:45Z</time>
      </trkpt>
      <trkpt lat="36.840266" lon="-4.944849">
        <ele>773.159</ele>
        <time>2018-03-31T14:45:48Z</time>
      </trkpt>
      <trkpt lat="36.840205" lon="-4.944859">
        <ele>772.691</ele>
        <time>2018-03-31T14:45:51Z</time>
      </trkpt>
      <trkpt lat="36.840144" lon="-4.944878">
        <ele>772.253</ele>
        <time>2018-03-31T14:45:54Z</time>
      </trkpt>
      <trkpt lat="36.840097" lon="-4.944901">
        <ele>772.116</ele>
        <time>2018-03-31T14:45:56Z</time>
      </trkpt>
      <trkpt lat="36.840054" lon="-4.944928">
        <ele>772.276</ele>
        <time>2018-03-31T14:45:58Z</time>
      </trkpt>
      <trkpt lat="36.840003" lon="-4.944951">
        <ele>772.213</ele>
        <time>2018-03-31T14:46:00Z</time>
      </trkpt>
      <trkpt lat="36.839957" lon="-4.944972">
        <ele>772.108</ele>
        <time>2018-03-31T14:46:02Z</time>
      </trkpt>
      <trkpt lat="36.839910" lon="-4.945002">
        <ele>772.183</ele>
        <time>2018-03-31T14:46:04Z</time>
      </trkpt>
      <trkpt lat="36.839854" lon="-4.945059">
        <ele>772.774</ele>
        <time>2018-03-31T14:46:06Z</time>
      </trkpt>
      <trkpt lat="36.839800" lon="-4.945120">
        <ele>773.677</ele>
        <time>2018-03-31T14:46:08Z</time>
      </trkpt>
      <trkpt lat="36.839750" lon="-4.945176">
        <ele>773.953</ele>
        <time>2018-03-31T14:46:10Z</time>
      </trkpt>
      <trkpt lat="36.839689" lon="-4.945255">
        <ele>774.132</ele>
        <time>2018-03-31T14:46:12Z</time>
      </trkpt>
      <trkpt lat="36.839639" lon="-4.945346">
        <ele>774.179</ele>
        <time>2018-03-31T14:46:14Z</time>
      </trkpt>
      <trkpt lat="36.839605" lon="-4.945449">
        <ele>774.131</ele>
        <time>2018-03-31T14:46:16Z</time>
      </trkpt>
      <trkpt lat="36.839575" lon="-4.945498">
        <ele>774.343</ele>
        <time>2018-03-31T14:46:17Z</time>
      </trkpt>
      <trkpt lat="36.839551" lon="-4.945551">
        <ele>774.483</ele>
        <time>2018-03-31T14:46:18Z</time>
      </trkpt>
      <trkpt lat="36.839536" lon="-4.945609">
        <ele>774.625</ele>
        <time>2018-03-31T14:46:19Z</time>
      </trkpt>
      <trkpt lat="36.839507" lon="-4.945662">
        <ele>774.917</ele>
        <time>2018-03-31T14:46:20Z</time>
      </trkpt>
      <trkpt lat="36.839483" lon="-4.945721">
        <ele>775.108</ele>
        <time>2018-03-31T14:46:21Z</time>
      </trkpt>
      <trkpt lat="36.839460" lon="-4.945781">
        <ele>775.330</ele>
        <time>2018-03-31T14:46:22Z</time>
      </trkpt>
      <trkpt lat="36.839441" lon="-4.945847">
        <ele>775.481</ele>
        <time>2018-03-31T14:46:23Z</time>
      </trkpt>
      <trkpt lat="36.839415" lon="-4.945914">
        <ele>775.524</ele>
        <time>2018-03-31T14:46:24Z</time>
      </trkpt>
      <trkpt lat="36.839388" lon="-4.945986">
        <ele>775.550</ele>
        <time>2018-03-31T14:46:25Z</time>
      </trkpt>
      <trkpt lat="36.839357" lon="-4.946057">
        <ele>775.519</ele>
        <time>2018-03-31T14:46:26Z</time>
      </trkpt>
      <trkpt lat="36.839322" lon="-4.946125">
        <ele>775.446</ele>
        <time>2018-03-31T14:46:27Z</time>
      </trkpt>
      <trkpt lat="36.839283" lon="-4.946192">
        <ele>775.328</ele>
        <time>2018-03-31T14:46:28Z</time>
      </trkpt>
      <trkpt lat="36.839244" lon="-4.946255">
        <ele>775.340</ele>
        <time>2018-03-31T14:46:29Z</time>
      </trkpt>
      <trkpt lat="36.839203" lon="-4.946313">
        <ele>775.362</ele>
        <time>2018-03-31T14:46:30Z</time>
      </trkpt>
      <trkpt lat="36.839152" lon="-4.946361">
        <ele>775.283</ele>
        <time>2018-03-31T14:46:31Z</time>
      </trkpt>
      <trkpt lat="36.839089" lon="-4.946409">
        <ele>774.911</ele>
        <time>2018-03-31T14:46:32Z</time>
      </trkpt>
      <trkpt lat="36.839008" lon="-4.946442">
        <ele>774.908</ele>
        <time>2018-03-31T14:46:33Z</time>
      </trkpt>
      <trkpt lat="36.838925" lon="-4.946483">
        <ele>774.388</ele>
        <time>2018-03-31T14:46:34Z</time>
      </trkpt>
      <trkpt lat="36.838854" lon="-4.946510">
        <ele>773.739</ele>
        <time>2018-03-31T14:46:35Z</time>
      </trkpt>
      <trkpt lat="36.838783" lon="-4.946511">
        <ele>773.562</ele>
        <time>2018-03-31T14:46:36Z</time>
      </trkpt>
      <trkpt lat="36.838713" lon="-4.946479">
        <ele>772.858</ele>
        <time>2018-03-31T14:46:37Z</time>
      </trkpt>
      <trkpt lat="36.838646" lon="-4.946432">
        <ele>771.187</ele>
        <time>2018-03-31T14:46:38Z</time>
      </trkpt>
      <trkpt lat="36.838582" lon="-4.946383">
        <ele>768.964</ele>
        <time>2018-03-31T14:46:39Z</time>
      </trkpt>
      <trkpt lat="36.838522" lon="-4.946332">
        <ele>768.416</ele>
        <time>2018-03-31T14:46:40Z</time>
      </trkpt>
      <trkpt lat="36.838467" lon="-4.946279">
        <ele>768.938</ele>
        <time>2018-03-31T14:46:41Z</time>
      </trkpt>
      <trkpt lat="36.838411" lon="-4.946225">
        <ele>769.133</ele>
        <time>2018-03-31T14:46:42Z</time>
      </trkpt>
      <trkpt lat="36.838362" lon="-4.946160">
        <ele>769.123</ele>
        <time>2018-03-31T14:46:43Z</time>
      </trkpt>
      <trkpt lat="36.838311" lon="-4.946098">
        <ele>768.815</ele>
        <time>2018-03-31T14:46:44Z</time>
      </trkpt>
      <trkpt lat="36.838248" lon="-4.946040">
        <ele>768.408</ele>
        <time>2018-03-31T14:46:45Z</time>
      </trkpt>
      <trkpt lat="36.838187" lon="-4.945979">
        <ele>768.125</ele>
        <time>2018-03-31T14:46:46Z</time>
      </trkpt>
      <trkpt lat="36.838125" lon="-4.945914">
        <ele>767.796</ele>
        <time>2018-03-31T14:46:47Z</time>
      </trkpt>
      <trkpt lat="36.838056" lon="-4.945855">
        <ele>767.249</ele>
        <time>2018-03-31T14:46:48Z</time>
      </trkpt>
      <trkpt lat="36.837980" lon="-4.945807">
        <ele>766.575</ele>
        <time>2018-03-31T14:46:49Z</time>
      </trkpt>
      <trkpt lat="36.837900" lon="-4.945764">
        <ele>765.894</ele>
        <time>2018-03-31T14:46:50Z</time>
      </trkpt>
      <trkpt lat="36.837816" lon="-4.945731">
        <ele>765.191</ele>
        <time>2018-03-31T14:46:51Z</time>
      </trkpt>
      <trkpt lat="36.837727" lon="-4.945715">
        <ele>764.663</ele>
        <time>2018-03-31T14:46:52Z</time>
      </trkpt>
      <trkpt lat="36.837634" lon="-4.945697">
        <ele>764.155</ele>
        <time>2018-03-31T14:46:53Z</time>
      </trkpt>
      <trkpt lat="36.837538" lon="-4.945691">
        <ele>763.458</ele>
        <time>2018-03-31T14:46:54Z</time>
      </trkpt>
      <trkpt lat="36.837440" lon="-4.945701">
        <ele>762.752</ele>
        <time>2018-03-31T14:46:55Z</time>
      </trkpt>
      <trkpt lat="36.837338" lon="-4.945713">
        <ele>761.917</ele>
        <time>2018-03-31T14:46:56Z</time>
      </trkpt>
      <trkpt lat="36.837233" lon="-4.945736">
        <ele>759.008</ele>
        <time>2018-03-31T14:46:57Z</time>
      </trkpt>
      <trkpt lat="36.837125" lon="-4.945764">
        <ele>757.767</ele>
        <time>2018-03-31T14:46:58Z</time>
      </trkpt>
      <trkpt lat="36.837016" lon="-4.945792">
        <ele>756.398</ele>
        <time>2018-03-31T14:46:59Z</time>
      </trkpt>
      <trkpt lat="36.836908" lon="-4.945834">
        <ele>757.341</ele>
        <time>2018-03-31T14:47:00Z</time>
      </trkpt>
      <trkpt lat="36.836794" lon="-4.945869">
        <ele>758.197</ele>
        <time>2018-03-31T14:47:01Z</time>
      </trkpt>
      <trkpt lat="36.836680" lon="-4.945901">
        <ele>758.786</ele>
        <time>2018-03-31T14:47:02Z</time>
      </trkpt>
      <trkpt lat="36.836567" lon="-4.945944">
        <ele>759.143</ele>
        <time>2018-03-31T14:47:03Z</time>
      </trkpt>
      <trkpt lat="36.836447" lon="-4.945979">
        <ele>759.495</ele>
        <time>2018-03-31T14:47:04Z</time>
      </trkpt>
      <trkpt lat="36.836325" lon="-4.946023">
        <ele>759.587</ele>
        <time>2018-03-31T14:47:05Z</time>
      </trkpt>
      <trkpt lat="36.836199" lon="-4.946065">
        <ele>759.699</ele>
        <time>2018-03-31T14:47:06Z</time>
      </trkpt>
      <trkpt lat="36.836069" lon="-4.946107">
        <ele>759.607</ele>
        <time>2018-03-31T14:47:07Z</time>
      </trkpt>
      <trkpt lat="36.835943" lon="-4.946136">
        <ele>759.327</ele>
        <time>2018-03-31T14:47:08Z</time>
      </trkpt>
      <trkpt lat="36.835823" lon="-4.946167">
        <ele>759.008</ele>
        <time>2018-03-31T14:47:09Z</time>
      </trkpt>
      <trkpt lat="36.835708" lon="-4.946182">
        <ele>758.961</ele>
        <time>2018-03-31T14:47:10Z</time>
      </trkpt>
      <trkpt lat="36.835598" lon="-4.946189">
        <ele>759.032</ele>
        <time>2018-03-31T14:47:11Z</time>
      </trkpt>
      <trkpt lat="36.835491" lon="-4.946198">
        <ele>758.845</ele>
        <time>2018-03-31T14:47:12Z</time>
      </trkpt>
      <trkpt lat="36.835393" lon="-4.946212">
        <ele>758.531</ele>
        <time>2018-03-31T14:47:13Z</time>
      </trkpt>
      <trkpt lat="36.835294" lon="-4.946215">
        <ele>758.330</ele>
        <time>2018-03-31T14:47:14Z</time>
      </trkpt>
      <trkpt lat="36.835207" lon="-4.946235">
        <ele>758.237</ele>
        <time>2018-03-31T14:47:15Z</time>
      </trkpt>
      <trkpt lat="36.835126" lon="-4.946258">
        <ele>757.999</ele>
        <time>2018-03-31T14:47:16Z</time>
      </trkpt>
      <trkpt lat="36.835039" lon="-4.946272">
        <ele>757.641</ele>
        <time>2018-03-31T14:47:17Z</time>
      </trkpt>
      <trkpt lat="36.834956" lon="-4.946291">
        <ele>757.445</ele>
        <time>2018-03-31T14:47:18Z</time>
      </trkpt>
      <trkpt lat="36.834872" lon="-4.946301">
        <ele>757.347</ele>
        <time>2018-03-31T14:47:19Z</time>
      </trkpt>
      <trkpt lat="36.834787" lon="-4.946320">
        <ele>757.111</ele>
        <time>2018-03-31T14:47:20Z</time>
      </trkpt>
      <trkpt lat="36.834697" lon="-4.946343">
        <ele>756.708</ele>
        <time>2018-03-31T14:47:21Z</time>
      </trkpt>
      <trkpt lat="36.834605" lon="-4.946368">
        <ele>756.416</ele>
        <time>2018-03-31T14:47:22Z</time>
      </trkpt>
      <trkpt lat="36.834511" lon="-4.946406">
        <ele>755.997</ele>
        <time>2018-03-31T14:47:23Z</time>
      </trkpt>
      <trkpt lat="36.834419" lon="-4.946443">
        <ele>755.440</ele>
        <time>2018-03-31T14:47:24Z</time>
      </trkpt>
      <trkpt lat="36.834324" lon="-4.946486">
        <ele>754.916</ele>
        <time>2018-03-31T14:47:25Z</time>
      </trkpt>
      <trkpt lat="36.834231" lon="-4.946516">
        <ele>754.865</ele>
        <time>2018-03-31T14:47:26Z</time>
      </trkpt>
      <trkpt lat="36.834138" lon="-4.946517">
        <ele>755.432</ele>
        <time>2018-03-31T14:47:27Z</time>
      </trkpt>
      <trkpt lat="36.834046" lon="-4.946526">
        <ele>755.774</ele>
        <time>2018-03-31T14:47:28Z</time>
      </trkpt>
      <trkpt lat="36.833959" lon="-4.946534">
        <ele>755.516</ele>
        <time>2018-03-31T14:47:29Z</time>
      </trkpt>
      <trkpt lat="36.833873" lon="-4.946543">
        <ele>755.037</ele>
        <time>2018-03-31T14:47:30Z</time>
      </trkpt>
      <trkpt lat="36.833785" lon="-4.946559">
        <ele>754.549</ele>
        <time>2018-03-31T14:47:31Z</time>
      </trkpt>
      <trkpt lat="36.833699" lon="-4.946567">
        <ele>754.113</ele>
        <time>2018-03-31T14:47:32Z</time>
      </trkpt>
      <trkpt lat="36.833624" lon="-4.946578">
        <ele>753.708</ele>
        <time>2018-03-31T14:47:33Z</time>
      </trkpt>
      <trkpt lat="36.833550" lon="-4.946597">
        <ele>753.295</ele>
        <time>2018-03-31T14:47:34Z</time>
      </trkpt>
      <trkpt lat="36.833471" lon="-4.946620">
        <ele>752.616</ele>
        <time>2018-03-31T14:47:35Z</time>
      </trkpt>
      <trkpt lat="36.833397" lon="-4.946653">
        <ele>752.029</ele>
        <time>2018-03-31T14:47:36Z</time>
      </trkpt>
      <trkpt lat="36.833324" lon="-4.946685">
        <ele>751.455</ele>
        <time>2018-03-31T14:47:37Z</time>
      </trkpt>
      <trkpt lat="36.833248" lon="-4.946733">
        <ele>750.824</ele>
        <time>2018-03-31T14:47:38Z</time>
      </trkpt>
      <trkpt lat="36.833171" lon="-4.946777">
        <ele>750.261</ele>
        <time>2018-03-31T14:47:39Z</time>
      </trkpt>
      <trkpt lat="36.833096" lon="-4.946820">
        <ele>749.553</ele>
        <time>2018-03-31T14:47:40Z</time>
      </trkpt>
      <trkpt lat="36.833021" lon="-4.946859">
        <ele>749.045</ele>
        <time>2018-03-31T14:47:41Z</time>
      </trkpt>
      <trkpt lat="36.832936" lon="-4.946890">
        <ele>748.625</ele>
        <time>2018-03-31T14:47:42Z</time>
      </trkpt>
      <trkpt lat="36.832850" lon="-4.946938">
        <ele>748.226</ele>
        <time>2018-03-31T14:47:43Z</time>
      </trkpt>
      <trkpt lat="36.832760" lon="-4.946977">
        <ele>747.908</ele>
        <time>2018-03-31T14:47:44Z</time>
      </trkpt>
      <trkpt lat="36.832665" lon="-4.947000">
        <ele>747.708</ele>
        <time>2018-03-31T14:47:45Z</time>
      </trkpt>
      <trkpt lat="36.832577" lon="-4.947037">
        <ele>747.514</ele>
        <time>2018-03-31T14:47:46Z</time>
      </trkpt>
      <trkpt lat="36.832493" lon="-4.947071">
        <ele>747.215</ele>
        <time>2018-03-31T14:47:47Z</time>
      </trkpt>
      <trkpt lat="36.832419" lon="-4.947106">
        <ele>747.088</ele>
        <time>2018-03-31T14:47:48Z</time>
      </trkpt>
      <trkpt lat="36.832351" lon="-4.947134">
        <ele>747.154</ele>
        <time>2018-03-31T14:47:49Z</time>
      </trkpt>
      <trkpt lat="36.832296" lon="-4.947159">
        <ele>747.483</ele>
        <time>2018-03-31T14:47:50Z</time>
      </trkpt>
      <trkpt lat="36.832247" lon="-4.947176">
        <ele>747.850</ele>
        <time>2018-03-31T14:47:51Z</time>
      </trkpt>
      <trkpt lat="36.832167" lon="-4.947201">
        <ele>749.022</ele>
        <time>2018-03-31T14:47:53Z</time>
      </trkpt>
      <trkpt lat="36.832090" lon="-4.947220">
        <ele>750.414</ele>
        <time>2018-03-31T14:47:55Z</time>
      </trkpt>
      <trkpt lat="36.832040" lon="-4.947241">
        <ele>751.091</ele>
        <time>2018-03-31T14:47:56Z</time>
      </trkpt>
      <trkpt lat="36.831960" lon="-4.947287">
        <ele>751.481</ele>
        <time>2018-03-31T14:47:58Z</time>
      </trkpt>
      <trkpt lat="36.831926" lon="-4.947330">
        <ele>751.419</ele>
        <time>2018-03-31T14:47:59Z</time>
      </trkpt>
      <trkpt lat="36.831886" lon="-4.947362">
        <ele>751.408</ele>
        <time>2018-03-31T14:48:00Z</time>
      </trkpt>
      <trkpt lat="36.831842" lon="-4.947386">
        <ele>751.531</ele>
        <time>2018-03-31T14:48:01Z</time>
      </trkpt>
      <trkpt lat="36.831795" lon="-4.947411">
        <ele>751.532</ele>
        <time>2018-03-31T14:48:02Z</time>
      </trkpt>
      <trkpt lat="36.831754" lon="-4.947450">
        <ele>751.425</ele>
        <time>2018-03-31T14:48:03Z</time>
      </trkpt>
      <trkpt lat="36.831712" lon="-4.947497">
        <ele>751.351</ele>
        <time>2018-03-31T14:48:04Z</time>
      </trkpt>
      <trkpt lat="36.831663" lon="-4.947516">
        <ele>751.110</ele>
        <time>2018-03-31T14:48:05Z</time>
      </trkpt>
      <trkpt lat="36.831614" lon="-4.947545">
        <ele>750.887</ele>
        <time>2018-03-31T14:48:06Z</time>
      </trkpt>
      <trkpt lat="36.831561" lon="-4.947584">
        <ele>750.379</ele>
        <time>2018-03-31T14:48:07Z</time>
      </trkpt>
      <trkpt lat="36.831505" lon="-4.947609">
        <ele>749.891</ele>
        <time>2018-03-31T14:48:08Z</time>
      </trkpt>
      <trkpt lat="36.831456" lon="-4.947637">
        <ele>749.416</ele>
        <time>2018-03-31T14:48:09Z</time>
      </trkpt>
      <trkpt lat="36.831409" lon="-4.947663">
        <ele>749.076</ele>
        <time>2018-03-31T14:48:10Z</time>
      </trkpt>
      <trkpt lat="36.831354" lon="-4.947691">
        <ele>748.813</ele>
        <time>2018-03-31T14:48:11Z</time>
      </trkpt>
      <trkpt lat="36.831298" lon="-4.947716">
        <ele>748.608</ele>
        <time>2018-03-31T14:48:12Z</time>
      </trkpt>
      <trkpt lat="36.831233" lon="-4.947739">
        <ele>748.533</ele>
        <time>2018-03-31T14:48:13Z</time>
      </trkpt>
      <trkpt lat="36.831158" lon="-4.947760">
        <ele>748.324</ele>
        <time>2018-03-31T14:48:14Z</time>
      </trkpt>
      <trkpt lat="36.831080" lon="-4.947780">
        <ele>748.357</ele>
        <time>2018-03-31T14:48:15Z</time>
      </trkpt>
      <trkpt lat="36.830993" lon="-4.947805">
        <ele>748.093</ele>
        <time>2018-03-31T14:48:16Z</time>
      </trkpt>
      <trkpt lat="36.830911" lon="-4.947817">
        <ele>747.492</ele>
        <time>2018-03-31T14:48:17Z</time>
      </trkpt>
      <trkpt lat="36.830821" lon="-4.947825">
        <ele>746.849</ele>
        <time>2018-03-31T14:48:18Z</time>
      </trkpt>
      <trkpt lat="36.830727" lon="-4.947831">
        <ele>746.261</ele>
        <time>2018-03-31T14:48:19Z</time>
      </trkpt>
      <trkpt lat="36.830628" lon="-4.947840">
        <ele>745.593</ele>
        <time>2018-03-31T14:48:20Z</time>
      </trkpt>
      <trkpt lat="36.830517" lon="-4.947846">
        <ele>744.628</ele>
        <time>2018-03-31T14:48:21Z</time>
      </trkpt>
      <trkpt lat="36.830402" lon="-4.947857">
        <ele>743.689</ele>
        <time>2018-03-31T14:48:22Z</time>
      </trkpt>
      <trkpt lat="36.830278" lon="-4.947866">
        <ele>742.417</ele>
        <time>2018-03-31T14:48:23Z</time>
      </trkpt>
      <trkpt lat="36.830147" lon="-4.947877">
        <ele>741.208</ele>
        <time>2018-03-31T14:48:24Z</time>
      </trkpt>
      <trkpt lat="36.830008" lon="-4.947884">
        <ele>740.044</ele>
        <time>2018-03-31T14:48:25Z</time>
      </trkpt>
      <trkpt lat="36.829867" lon="-4.947897">
        <ele>738.825</ele>
        <time>2018-03-31T14:48:26Z</time>
      </trkpt>
      <trkpt lat="36.829733" lon="-4.947914">
        <ele>737.678</ele>
        <time>2018-03-31T14:48:27Z</time>
      </trkpt>
      <trkpt lat="36.829602" lon="-4.947927">
        <ele>736.754</ele>
        <time>2018-03-31T14:48:28Z</time>
      </trkpt>
      <trkpt lat="36.829476" lon="-4.947945">
        <ele>735.993</ele>
        <time>2018-03-31T14:48:29Z</time>
      </trkpt>
      <trkpt lat="36.829350" lon="-4.947949">
        <ele>735.020</ele>
        <time>2018-03-31T14:48:30Z</time>
      </trkpt>
      <trkpt lat="36.829230" lon="-4.947948">
        <ele>734.142</ele>
        <time>2018-03-31T14:48:31Z</time>
      </trkpt>
      <trkpt lat="36.829118" lon="-4.947961">
        <ele>733.054</ele>
        <time>2018-03-31T14:48:32Z</time>
      </trkpt>
      <trkpt lat="36.829010" lon="-4.947975">
        <ele>731.991</ele>
        <time>2018-03-31T14:48:33Z</time>
      </trkpt>
      <trkpt lat="36.828906" lon="-4.948005">
        <ele>730.881</ele>
        <time>2018-03-31T14:48:34Z</time>
      </trkpt>
      <trkpt lat="36.828801" lon="-4.948039">
        <ele>729.819</ele>
        <time>2018-03-31T14:48:35Z</time>
      </trkpt>
      <trkpt lat="36.828692" lon="-4.948063">
        <ele>728.908</ele>
        <time>2018-03-31T14:48:36Z</time>
      </trkpt>
      <trkpt lat="36.828580" lon="-4.948088">
        <ele>728.111</ele>
        <time>2018-03-31T14:48:37Z</time>
      </trkpt>
      <trkpt lat="36.828473" lon="-4.948114">
        <ele>727.362</ele>
        <time>2018-03-31T14:48:38Z</time>
      </trkpt>
      <trkpt lat="36.828368" lon="-4.948143">
        <ele>726.515</ele>
        <time>2018-03-31T14:48:39Z</time>
      </trkpt>
      <trkpt lat="36.828261" lon="-4.948157">
        <ele>726.071</ele>
        <time>2018-03-31T14:48:40Z</time>
      </trkpt>
      <trkpt lat="36.828158" lon="-4.948168">
        <ele>725.510</ele>
        <time>2018-03-31T14:48:41Z</time>
      </trkpt>
      <trkpt lat="36.828067" lon="-4.948191">
        <ele>724.747</ele>
        <time>2018-03-31T14:48:42Z</time>
      </trkpt>
      <trkpt lat="36.827990" lon="-4.948235">
        <ele>723.819</ele>
        <time>2018-03-31T14:48:43Z</time>
      </trkpt>
      <trkpt lat="36.827918" lon="-4.948276">
        <ele>722.941</ele>
        <time>2018-03-31T14:48:44Z</time>
      </trkpt>
      <trkpt lat="36.827866" lon="-4.948338">
        <ele>722.226</ele>
        <time>2018-03-31T14:48:45Z</time>
      </trkpt>
      <trkpt lat="36.827828" lon="-4.948406">
        <ele>721.947</ele>
        <time>2018-03-31T14:48:46Z</time>
      </trkpt>
      <trkpt lat="36.827804" lon="-4.948487">
        <ele>721.611</ele>
        <time>2018-03-31T14:48:47Z</time>
      </trkpt>
      <trkpt lat="36.827813" lon="-4.948587">
        <ele>721.408</ele>
        <time>2018-03-31T14:48:48Z</time>
      </trkpt>
      <trkpt lat="36.827839" lon="-4.948686">
        <ele>721.154</ele>
        <time>2018-03-31T14:48:49Z</time>
      </trkpt>
      <trkpt lat="36.827868" lon="-4.948788">
        <ele>720.755</ele>
        <time>2018-03-31T14:48:50Z</time>
      </trkpt>
      <trkpt lat="36.827892" lon="-4.948902">
        <ele>720.198</ele>
        <time>2018-03-31T14:48:51Z</time>
      </trkpt>
      <trkpt lat="36.827898" lon="-4.949015">
        <ele>719.654</ele>
        <time>2018-03-31T14:48:52Z</time>
      </trkpt>
      <trkpt lat="36.827903" lon="-4.949127">
        <ele>719.473</ele>
        <time>2018-03-31T14:48:53Z</time>
      </trkpt>
      <trkpt lat="36.827887" lon="-4.949228">
        <ele>719.330</ele>
        <time>2018-03-31T14:48:54Z</time>
      </trkpt>
      <trkpt lat="36.827873" lon="-4.949326">
        <ele>719.292</ele>
        <time>2018-03-31T14:48:55Z</time>
      </trkpt>
      <trkpt lat="36.827847" lon="-4.949409">
        <ele>719.234</ele>
        <time>2018-03-31T14:48:56Z</time>
      </trkpt>
      <trkpt lat="36.827795" lon="-4.949467">
        <ele>719.391</ele>
        <time>2018-03-31T14:48:57Z</time>
      </trkpt>
      <trkpt lat="36.827741" lon="-4.949504">
        <ele>719.681</ele>
        <time>2018-03-31T14:48:58Z</time>
      </trkpt>
      <trkpt lat="36.827662" lon="-4.949512">
        <ele>719.419</ele>
        <time>2018-03-31T14:48:59Z</time>
      </trkpt>
      <trkpt lat="36.827574" lon="-4.949494">
        <ele>719.008</ele>
        <time>2018-03-31T14:49:00Z</time>
      </trkpt>
      <trkpt lat="36.827488" lon="-4.949456">
        <ele>718.511</ele>
        <time>2018-03-31T14:49:01Z</time>
      </trkpt>
      <trkpt lat="36.827413" lon="-4.949405">
        <ele>717.682</ele>
        <time>2018-03-31T14:49:02Z</time>
      </trkpt>
      <trkpt lat="36.827334" lon="-4.949348">
        <ele>716.585</ele>
        <time>2018-03-31T14:49:03Z</time>
      </trkpt>
      <trkpt lat="36.827261" lon="-4.949282">
        <ele>715.141</ele>
        <time>2018-03-31T14:49:04Z</time>
      </trkpt>
      <trkpt lat="36.827193" lon="-4.949202">
        <ele>713.720</ele>
        <time>2018-03-31T14:49:05Z</time>
      </trkpt>
      <trkpt lat="36.827116" lon="-4.949120">
        <ele>712.477</ele>
        <time>2018-03-31T14:49:06Z</time>
      </trkpt>
      <trkpt lat="36.827039" lon="-4.949027">
        <ele>711.499</ele>
        <time>2018-03-31T14:49:07Z</time>
      </trkpt>
      <trkpt lat="36.826950" lon="-4.948951">
        <ele>710.451</ele>
        <time>2018-03-31T14:49:08Z</time>
      </trkpt>
      <trkpt lat="36.826862" lon="-4.948876">
        <ele>709.249</ele>
        <time>2018-03-31T14:49:09Z</time>
      </trkpt>
      <trkpt lat="36.826783" lon="-4.948786">
        <ele>708.002</ele>
        <time>2018-03-31T14:49:10Z</time>
      </trkpt>
      <trkpt lat="36.826696" lon="-4.948701">
        <ele>706.722</ele>
        <time>2018-03-31T14:49:11Z</time>
      </trkpt>
      <trkpt lat="36.826615" lon="-4.948609">
        <ele>705.508</ele>
        <time>2018-03-31T14:49:12Z</time>
      </trkpt>
      <trkpt lat="36.826539" lon="-4.948516">
        <ele>704.586</ele>
        <time>2018-03-31T14:49:13Z</time>
      </trkpt>
      <trkpt lat="36.826466" lon="-4.948419">
        <ele>703.487</ele>
        <time>2018-03-31T14:49:14Z</time>
      </trkpt>
      <trkpt lat="36.826392" lon="-4.948320">
        <ele>702.360</ele>
        <time>2018-03-31T14:49:15Z</time>
      </trkpt>
      <trkpt lat="36.826312" lon="-4.948220">
        <ele>701.286</ele>
        <time>2018-03-31T14:49:16Z</time>
      </trkpt>
      <trkpt lat="36.826227" lon="-4.948124">
        <ele>700.185</ele>
        <time>2018-03-31T14:49:17Z</time>
      </trkpt>
      <trkpt lat="36.826129" lon="-4.948034">
        <ele>699.042</ele>
        <time>2018-03-31T14:49:18Z</time>
      </trkpt>
      <trkpt lat="36.826030" lon="-4.947961">
        <ele>698.084</ele>
        <time>2018-03-31T14:49:19Z</time>
      </trkpt>
      <trkpt lat="36.825925" lon="-4.947906">
        <ele>697.116</ele>
        <time>2018-03-31T14:49:20Z</time>
      </trkpt>
      <trkpt lat="36.825816" lon="-4.947869">
        <ele>696.371</ele>
        <time>2018-03-31T14:49:21Z</time>
      </trkpt>
      <trkpt lat="36.825716" lon="-4.947852">
        <ele>695.841</ele>
        <time>2018-03-31T14:49:22Z</time>
      </trkpt>
      <trkpt lat="36.825607" lon="-4.947831">
        <ele>695.115</ele>
        <time>2018-03-31T14:49:23Z</time>
      </trkpt>
      <trkpt lat="36.825502" lon="-4.947815">
        <ele>694.508</ele>
        <time>2018-03-31T14:49:24Z</time>
      </trkpt>
      <trkpt lat="36.825400" lon="-4.947798">
        <ele>693.779</ele>
        <time>2018-03-31T14:49:25Z</time>
      </trkpt>
      <trkpt lat="36.825296" lon="-4.947775">
        <ele>692.910</ele>
        <time>2018-03-31T14:49:26Z</time>
      </trkpt>
      <trkpt lat="36.825199" lon="-4.947766">
        <ele>692.053</ele>
        <time>2018-03-31T14:49:27Z</time>
      </trkpt>
      <trkpt lat="36.825107" lon="-4.947763">
        <ele>691.089</ele>
        <time>2018-03-31T14:49:28Z</time>
      </trkpt>
      <trkpt lat="36.825019" lon="-4.947768">
        <ele>689.838</ele>
        <time>2018-03-31T14:49:29Z</time>
      </trkpt>
      <trkpt lat="36.824941" lon="-4.947775">
        <ele>688.915</ele>
        <time>2018-03-31T14:49:30Z</time>
      </trkpt>
      <trkpt lat="36.824857" lon="-4.947790">
        <ele>688.157</ele>
        <time>2018-03-31T14:49:31Z</time>
      </trkpt>
      <trkpt lat="36.824763" lon="-4.947799">
        <ele>687.679</ele>
        <time>2018-03-31T14:49:32Z</time>
      </trkpt>
      <trkpt lat="36.824665" lon="-4.947803">
        <ele>687.081</ele>
        <time>2018-03-31T14:49:33Z</time>
      </trkpt>
      <trkpt lat="36.824560" lon="-4.947804">
        <ele>686.261</ele>
        <time>2018-03-31T14:49:34Z</time>
      </trkpt>
      <trkpt lat="36.824438" lon="-4.947792">
        <ele>685.017</ele>
        <time>2018-03-31T14:49:35Z</time>
      </trkpt>
      <trkpt lat="36.824324" lon="-4.947784">
        <ele>683.608</ele>
        <time>2018-03-31T14:49:36Z</time>
      </trkpt>
      <trkpt lat="36.824217" lon="-4.947785">
        <ele>682.230</ele>
        <time>2018-03-31T14:49:37Z</time>
      </trkpt>
      <trkpt lat="36.824112" lon="-4.947795">
        <ele>680.831</ele>
        <time>2018-03-31T14:49:38Z</time>
      </trkpt>
      <trkpt lat="36.824011" lon="-4.947811">
        <ele>679.514</ele>
        <time>2018-03-31T14:49:39Z</time>
      </trkpt>
      <trkpt lat="36.823917" lon="-4.947841">
        <ele>678.340</ele>
        <time>2018-03-31T14:49:40Z</time>
      </trkpt>
      <trkpt lat="36.823830" lon="-4.947875">
        <ele>677.179</ele>
        <time>2018-03-31T14:49:41Z</time>
      </trkpt>
      <trkpt lat="36.823746" lon="-4.947931">
        <ele>676.146</ele>
        <time>2018-03-31T14:49:42Z</time>
      </trkpt>
      <trkpt lat="36.823675" lon="-4.947994">
        <ele>675.318</ele>
        <time>2018-03-31T14:49:43Z</time>
      </trkpt>
      <trkpt lat="36.823617" lon="-4.948075">
        <ele>675.080</ele>
        <time>2018-03-31T14:49:44Z</time>
      </trkpt>
      <trkpt lat="36.823573" lon="-4.948170">
        <ele>675.044</ele>
        <time>2018-03-31T14:49:45Z</time>
      </trkpt>
      <trkpt lat="36.823539" lon="-4.948269">
        <ele>675.205</ele>
        <time>2018-03-31T14:49:46Z</time>
      </trkpt>
      <trkpt lat="36.823509" lon="-4.948362">
        <ele>675.415</ele>
        <time>2018-03-31T14:49:47Z</time>
      </trkpt>
      <trkpt lat="36.823483" lon="-4.948454">
        <ele>675.608</ele>
        <time>2018-03-31T14:49:48Z</time>
      </trkpt>
      <trkpt lat="36.823457" lon="-4.948538">
        <ele>675.876</ele>
        <time>2018-03-31T14:49:49Z</time>
      </trkpt>
      <trkpt lat="36.823432" lon="-4.948616">
        <ele>676.047</ele>
        <time>2018-03-31T14:49:50Z</time>
      </trkpt>
      <trkpt lat="36.823421" lon="-4.948698">
        <ele>676.230</ele>
        <time>2018-03-31T14:49:51Z</time>
      </trkpt>
      <trkpt lat="36.823419" lon="-4.948791">
        <ele>676.416</ele>
        <time>2018-03-31T14:49:52Z</time>
      </trkpt>
      <trkpt lat="36.823426" lon="-4.948882">
        <ele>676.415</ele>
        <time>2018-03-31T14:49:53Z</time>
      </trkpt>
      <trkpt lat="36.823437" lon="-4.948963">
        <ele>676.472</ele>
        <time>2018-03-31T14:49:54Z</time>
      </trkpt>
      <trkpt lat="36.823452" lon="-4.949044">
        <ele>676.164</ele>
        <time>2018-03-31T14:49:55Z</time>
      </trkpt>
      <trkpt lat="36.823466" lon="-4.949121">
        <ele>675.886</ele>
        <time>2018-03-31T14:49:56Z</time>
      </trkpt>
      <trkpt lat="36.823485" lon="-4.949203">
        <ele>675.726</ele>
        <time>2018-03-31T14:49:57Z</time>
      </trkpt>
      <trkpt lat="36.823501" lon="-4.949286">
        <ele>675.747</ele>
        <time>2018-03-31T14:49:58Z</time>
      </trkpt>
      <trkpt lat="36.823513" lon="-4.949373">
        <ele>675.611</ele>
        <time>2018-03-31T14:49:59Z</time>
      </trkpt>
      <trkpt lat="36.823523" lon="-4.949460">
        <ele>675.508</ele>
        <time>2018-03-31T14:50:00Z</time>
      </trkpt>
      <trkpt lat="36.823529" lon="-4.949550">
        <ele>675.324</ele>
        <time>2018-03-31T14:50:01Z</time>
      </trkpt>
      <trkpt lat="36.823533" lon="-4.949634">
        <ele>674.965</ele>
        <time>2018-03-31T14:50:02Z</time>
      </trkpt>
      <trkpt lat="36.823534" lon="-4.949720">
        <ele>674.538</ele>
        <time>2018-03-31T14:50:03Z</time>
      </trkpt>
      <trkpt lat="36.823523" lon="-4.949810">
        <ele>674.184</ele>
        <time>2018-03-31T14:50:04Z</time>
      </trkpt>
      <trkpt lat="36.823510" lon="-4.949897">
        <ele>673.783</ele>
        <time>2018-03-31T14:50:05Z</time>
      </trkpt>
      <trkpt lat="36.823490" lon="-4.949993">
        <ele>673.120</ele>
        <time>2018-03-31T14:50:06Z</time>
      </trkpt>
      <trkpt lat="36.823467" lon="-4.950073">
        <ele>672.652</ele>
        <time>2018-03-31T14:50:07Z</time>
      </trkpt>
      <trkpt lat="36.823437" lon="-4.950132">
        <ele>672.474</ele>
        <time>2018-03-31T14:50:08Z</time>
      </trkpt>
      <trkpt lat="36.823409" lon="-4.950190">
        <ele>672.665</ele>
        <time>2018-03-31T14:50:09Z</time>
      </trkpt>
      <trkpt lat="36.823373" lon="-4.950236">
        <ele>673.868</ele>
        <time>2018-03-31T14:50:10Z</time>
      </trkpt>
      <trkpt lat="36.823348" lon="-4.950294">
        <ele>674.914</ele>
        <time>2018-03-31T14:50:11Z</time>
      </trkpt>
      <trkpt lat="36.823304" lon="-4.950394">
        <ele>676.508</ele>
        <time>2018-03-31T14:50:13Z</time>
      </trkpt>
      <trkpt lat="36.823254" lon="-4.950484">
        <ele>677.968</ele>
        <time>2018-03-31T14:50:15Z</time>
      </trkpt>
      <trkpt lat="36.823184" lon="-4.950563">
        <ele>679.399</ele>
        <time>2018-03-31T14:50:17Z</time>
      </trkpt>
      <trkpt lat="36.823147" lon="-4.950596">
        <ele>680.172</ele>
        <time>2018-03-31T14:50:18Z</time>
      </trkpt>
      <trkpt lat="36.823101" lon="-4.950623">
        <ele>680.798</ele>
        <time>2018-03-31T14:50:19Z</time>
      </trkpt>
      <trkpt lat="36.823028" lon="-4.950608">
        <ele>680.927</ele>
        <time>2018-03-31T14:50:21Z</time>
      </trkpt>
      <trkpt lat="36.822958" lon="-4.950550">
        <ele>680.714</ele>
        <time>2018-03-31T14:50:23Z</time>
      </trkpt>
      <trkpt lat="36.822905" lon="-4.950482">
        <ele>681.686</ele>
        <time>2018-03-31T14:50:25Z</time>
      </trkpt>
      <trkpt lat="36.822871" lon="-4.950419">
        <ele>681.618</ele>
        <time>2018-03-31T14:50:29Z</time>
      </trkpt>
      <trkpt lat="36.822865" lon="-4.950346">
        <ele>681.264</ele>
        <time>2018-03-31T14:50:32Z</time>
      </trkpt>
      <trkpt lat="36.822882" lon="-4.950270">
        <ele>682.006</ele>
        <time>2018-03-31T14:50:35Z</time>
      </trkpt>
      <trkpt lat="36.822905" lon="-4.950211">
        <ele>682.616</ele>
        <time>2018-03-31T14:50:37Z</time>
      </trkpt>
      <trkpt lat="36.822915" lon="-4.950155">
        <ele>683.608</ele>
        <time>2018-03-31T14:50:39Z</time>
      </trkpt>
      <trkpt lat="36.822927" lon="-4.950092">
        <ele>685.098</ele>
        <time>2018-03-31T14:50:41Z</time>
      </trkpt>
      <trkpt lat="36.822932" lon="-4.950024">
        <ele>686.469</ele>
        <time>2018-03-31T14:50:43Z</time>
      </trkpt>
      <trkpt lat="36.822923" lon="-4.949967">
        <ele>687.872</ele>
        <time>2018-03-31T14:50:45Z</time>
      </trkpt>
      <trkpt lat="36.822901" lon="-4.949918">
        <ele>689.768</ele>
        <time>2018-03-31T14:50:47Z</time>
      </trkpt>
      <trkpt lat="36.822881" lon="-4.949857">
        <ele>691.537</ele>
        <time>2018-03-31T14:50:49Z</time>
      </trkpt>
      <trkpt lat="36.822854" lon="-4.949792">
        <ele>693.624</ele>
        <time>2018-03-31T14:50:52Z</time>
      </trkpt>
      <trkpt lat="36.822842" lon="-4.949730">
        <ele>694.516</ele>
        <time>2018-03-31T14:50:54Z</time>
      </trkpt>
      <trkpt lat="36.822812" lon="-4.949671">
        <ele>695.338</ele>
        <time>2018-03-31T14:50:56Z</time>
      </trkpt>
      <trkpt lat="36.822798" lon="-4.949616">
        <ele>696.159</ele>
        <time>2018-03-31T14:50:58Z</time>
      </trkpt>
      <trkpt lat="36.822766" lon="-4.949546">
        <ele>696.703</ele>
        <time>2018-03-31T14:51:01Z</time>
      </trkpt>
      <trkpt lat="36.822744" lon="-4.949474">
        <ele>698.523</ele>
        <time>2018-03-31T14:51:04Z</time>
      </trkpt>
      <trkpt lat="36.822701" lon="-4.949414">
        <ele>700.108</ele>
        <time>2018-03-31T14:51:07Z</time>
      </trkpt>
      <trkpt lat="36.822648" lon="-4.949383">
        <ele>700.427</ele>
        <time>2018-03-31T14:51:09Z</time>
      </trkpt>
      <trkpt lat="36.822586" lon="-4.949344">
        <ele>700.058</ele>
        <time>2018-03-31T14:51:12Z</time>
      </trkpt>
      <trkpt lat="36.822531" lon="-4.949317">
        <ele>699.951</ele>
        <time>2018-03-31T14:51:14Z</time>
      </trkpt>
      <trkpt lat="36.822471" lon="-4.949293">
        <ele>699.227</ele>
        <time>2018-03-31T14:51:16Z</time>
      </trkpt>
      <trkpt lat="36.822421" lon="-4.949272">
        <ele>698.376</ele>
        <time>2018-03-31T14:51:18Z</time>
      </trkpt>
      <trkpt lat="36.822363" lon="-4.949237">
        <ele>697.843</ele>
        <time>2018-03-31T14:51:20Z</time>
      </trkpt>
      <trkpt lat="36.822315" lon="-4.949210">
        <ele>697.535</ele>
        <time>2018-03-31T14:51:22Z</time>
      </trkpt>
      <trkpt lat="36.822264" lon="-4.949197">
        <ele>697.037</ele>
        <time>2018-03-31T14:51:24Z</time>
      </trkpt>
      <trkpt lat="36.822205" lon="-4.949187">
        <ele>696.835</ele>
        <time>2018-03-31T14:51:26Z</time>
      </trkpt>
      <trkpt lat="36.822136" lon="-4.949193">
        <ele>697.186</ele>
        <time>2018-03-31T14:51:28Z</time>
      </trkpt>
      <trkpt lat="36.822066" lon="-4.949193">
        <ele>697.114</ele>
        <time>2018-03-31T14:51:30Z</time>
      </trkpt>
      <trkpt lat="36.822005" lon="-4.949190">
        <ele>696.708</ele>
        <time>2018-03-31T14:51:32Z</time>
      </trkpt>
      <trkpt lat="36.821957" lon="-4.949189">
        <ele>696.025</ele>
        <time>2018-03-31T14:51:34Z</time>
      </trkpt>
      <trkpt lat="36.821897" lon="-4.949188">
        <ele>695.516</ele>
        <time>2018-03-31T14:51:36Z</time>
      </trkpt>
      <trkpt lat="36.821835" lon="-4.949199">
        <ele>695.619</ele>
        <time>2018-03-31T14:51:38Z</time>
      </trkpt>
      <trkpt lat="36.821777" lon="-4.949210">
        <ele>696.015</ele>
        <time>2018-03-31T14:51:40Z</time>
      </trkpt>
      <trkpt lat="36.821719" lon="-4.949234">
        <ele>696.064</ele>
        <time>2018-03-31T14:51:42Z</time>
      </trkpt>
      <trkpt lat="36.821647" lon="-4.949259">
        <ele>696.861</ele>
        <time>2018-03-31T14:51:44Z</time>
      </trkpt>
      <trkpt lat="36.821571" lon="-4.949288">
        <ele>697.593</ele>
        <time>2018-03-31T14:51:46Z</time>
      </trkpt>
      <trkpt lat="36.821505" lon="-4.949324">
        <ele>698.095</ele>
        <time>2018-03-31T14:51:48Z</time>
      </trkpt>
      <trkpt lat="36.821444" lon="-4.949353">
        <ele>698.676</ele>
        <time>2018-03-31T14:51:50Z</time>
      </trkpt>
      <trkpt lat="36.821381" lon="-4.949389">
        <ele>698.890</ele>
        <time>2018-03-31T14:51:52Z</time>
      </trkpt>
      <trkpt lat="36.821319" lon="-4.949442">
        <ele>699.419</ele>
        <time>2018-03-31T14:51:54Z</time>
      </trkpt>
      <trkpt lat="36.821282" lon="-4.949474">
        <ele>699.708</ele>
        <time>2018-03-31T14:51:55Z</time>
      </trkpt>
      <trkpt lat="36.821241" lon="-4.949506">
        <ele>699.849</ele>
        <time>2018-03-31T14:51:56Z</time>
      </trkpt>
      <trkpt lat="36.821197" lon="-4.949540">
        <ele>699.930</ele>
        <time>2018-03-31T14:51:57Z</time>
      </trkpt>
      <trkpt lat="36.821149" lon="-4.949578">
        <ele>699.923</ele>
        <time>2018-03-31T14:51:58Z</time>
      </trkpt>
      <trkpt lat="36.821096" lon="-4.949623">
        <ele>699.879</ele>
        <time>2018-03-31T14:51:59Z</time>
      </trkpt>
      <trkpt lat="36.821037" lon="-4.949670">
        <ele>699.598</ele>
        <time>2018-03-31T14:52:00Z</time>
      </trkpt>
      <trkpt lat="36.820974" lon="-4.949720">
        <ele>699.285</ele>
        <time>2018-03-31T14:52:01Z</time>
      </trkpt>
      <trkpt lat="36.820904" lon="-4.949771">
        <ele>698.867</ele>
        <time>2018-03-31T14:52:02Z</time>
      </trkpt>
      <trkpt lat="36.820828" lon="-4.949830">
        <ele>698.459</ele>
        <time>2018-03-31T14:52:03Z</time>
      </trkpt>
      <trkpt lat="36.820746" lon="-4.949887">
        <ele>697.948</ele>
        <time>2018-03-31T14:52:04Z</time>
      </trkpt>
      <trkpt lat="36.820658" lon="-4.949938">
        <ele>697.361</ele>
        <time>2018-03-31T14:52:05Z</time>
      </trkpt>
      <trkpt lat="36.820575" lon="-4.949989">
        <ele>696.617</ele>
        <time>2018-03-31T14:52:06Z</time>
      </trkpt>
      <trkpt lat="36.820479" lon="-4.950043">
        <ele>696.008</ele>
        <time>2018-03-31T14:52:07Z</time>
      </trkpt>
      <trkpt lat="36.820381" lon="-4.950103">
        <ele>695.556</ele>
        <time>2018-03-31T14:52:08Z</time>
      </trkpt>
      <trkpt lat="36.820281" lon="-4.950175">
        <ele>694.977</ele>
        <time>2018-03-31T14:52:09Z</time>
      </trkpt>
      <trkpt lat="36.820175" lon="-4.950245">
        <ele>694.350</ele>
        <time>2018-03-31T14:52:10Z</time>
      </trkpt>
      <trkpt lat="36.820072" lon="-4.950311">
        <ele>693.676</ele>
        <time>2018-03-31T14:52:11Z</time>
      </trkpt>
      <trkpt lat="36.819966" lon="-4.950365">
        <ele>692.935</ele>
        <time>2018-03-31T14:52:12Z</time>
      </trkpt>
      <trkpt lat="36.819860" lon="-4.950431">
        <ele>692.262</ele>
        <time>2018-03-31T14:52:13Z</time>
      </trkpt>
      <trkpt lat="36.819758" lon="-4.950505">
        <ele>691.554</ele>
        <time>2018-03-31T14:52:14Z</time>
      </trkpt>
      <trkpt lat="36.819657" lon="-4.950583">
        <ele>690.856</ele>
        <time>2018-03-31T14:52:15Z</time>
      </trkpt>
      <trkpt lat="36.819556" lon="-4.950646">
        <ele>690.383</ele>
        <time>2018-03-31T14:52:16Z</time>
      </trkpt>
      <trkpt lat="36.819451" lon="-4.950691">
        <ele>690.025</ele>
        <time>2018-03-31T14:52:17Z</time>
      </trkpt>
      <trkpt lat="36.819353" lon="-4.950753">
        <ele>689.717</ele>
        <time>2018-03-31T14:52:18Z</time>
      </trkpt>
      <trkpt lat="36.819256" lon="-4.950815">
        <ele>689.408</ele>
        <time>2018-03-31T14:52:19Z</time>
      </trkpt>
      <trkpt lat="36.819156" lon="-4.950872">
        <ele>688.930</ele>
        <time>2018-03-31T14:52:20Z</time>
      </trkpt>
      <trkpt lat="36.819057" lon="-4.950929">
        <ele>688.571</ele>
        <time>2018-03-31T14:52:21Z</time>
      </trkpt>
      <trkpt lat="36.818959" lon="-4.950988">
        <ele>688.284</ele>
        <time>2018-03-31T14:52:22Z</time>
      </trkpt>
      <trkpt lat="36.818871" lon="-4.951053">
        <ele>687.960</ele>
        <time>2018-03-31T14:52:23Z</time>
      </trkpt>
      <trkpt lat="36.818787" lon="-4.951097">
        <ele>687.769</ele>
        <time>2018-03-31T14:52:24Z</time>
      </trkpt>
      <trkpt lat="36.818711" lon="-4.951144">
        <ele>687.656</ele>
        <time>2018-03-31T14:52:25Z</time>
      </trkpt>
      <trkpt lat="36.818647" lon="-4.951198">
        <ele>687.548</ele>
        <time>2018-03-31T14:52:26Z</time>
      </trkpt>
      <trkpt lat="36.818587" lon="-4.951243">
        <ele>687.580</ele>
        <time>2018-03-31T14:52:27Z</time>
      </trkpt>
      <trkpt lat="36.818540" lon="-4.951301">
        <ele>687.548</ele>
        <time>2018-03-31T14:52:28Z</time>
      </trkpt>
      <trkpt lat="36.818503" lon="-4.951365">
        <ele>687.661</ele>
        <time>2018-03-31T14:52:29Z</time>
      </trkpt>
      <trkpt lat="36.818467" lon="-4.951422">
        <ele>687.517</ele>
        <time>2018-03-31T14:52:30Z</time>
      </trkpt>
      <trkpt lat="36.818440" lon="-4.951484">
        <ele>687.408</ele>
        <time>2018-03-31T14:52:31Z</time>
      </trkpt>
      <trkpt lat="36.818419" lon="-4.951552">
        <ele>687.336</ele>
        <time>2018-03-31T14:52:32Z</time>
      </trkpt>
      <trkpt lat="36.818393" lon="-4.951621">
        <ele>687.237</ele>
        <time>2018-03-31T14:52:33Z</time>
      </trkpt>
      <trkpt lat="36.818371" lon="-4.951696">
        <ele>687.290</ele>
        <time>2018-03-31T14:52:34Z</time>
      </trkpt>
      <trkpt lat="36.818349" lon="-4.951775">
        <ele>687.186</ele>
        <time>2018-03-31T14:52:35Z</time>
      </trkpt>
      <trkpt lat="36.818328" lon="-4.951859">
        <ele>687.045</ele>
        <time>2018-03-31T14:52:36Z</time>
      </trkpt>
      <trkpt lat="36.818306" lon="-4.951945">
        <ele>686.872</ele>
        <time>2018-03-31T14:52:37Z</time>
      </trkpt>
      <trkpt lat="36.818283" lon="-4.952032">
        <ele>686.294</ele>
        <time>2018-03-31T14:52:38Z</time>
      </trkpt>
      <trkpt lat="36.818259" lon="-4.952115">
        <ele>685.726</ele>
        <time>2018-03-31T14:52:39Z</time>
      </trkpt>
      <trkpt lat="36.818227" lon="-4.952191">
        <ele>685.315</ele>
        <time>2018-03-31T14:52:40Z</time>
      </trkpt>
      <trkpt lat="36.818181" lon="-4.952257">
        <ele>685.065</ele>
        <time>2018-03-31T14:52:41Z</time>
      </trkpt>
      <trkpt lat="36.818145" lon="-4.952327">
        <ele>684.811</ele>
        <time>2018-03-31T14:52:42Z</time>
      </trkpt>
      <trkpt lat="36.818095" lon="-4.952399">
        <ele>684.708</ele>
        <time>2018-03-31T14:52:43Z</time>
      </trkpt>
      <trkpt lat="36.818041" lon="-4.952471">
        <ele>684.933</ele>
        <time>2018-03-31T14:52:44Z</time>
      </trkpt>
      <trkpt lat="36.817987" lon="-4.952542">
        <ele>685.064</ele>
        <time>2018-03-31T14:52:45Z</time>
      </trkpt>
      <trkpt lat="36.817933" lon="-4.952608">
        <ele>685.227</ele>
        <time>2018-03-31T14:52:46Z</time>
      </trkpt>
      <trkpt lat="36.817865" lon="-4.952671">
        <ele>685.683</ele>
        <time>2018-03-31T14:52:47Z</time>
      </trkpt>
      <trkpt lat="36.817806" lon="-4.952722">
        <ele>686.392</ele>
        <time>2018-03-31T14:52:48Z</time>
      </trkpt>
      <trkpt lat="36.817745" lon="-4.952771">
        <ele>686.929</ele>
        <time>2018-03-31T14:52:49Z</time>
      </trkpt>
      <trkpt lat="36.817688" lon="-4.952816">
        <ele>687.521</ele>
        <time>2018-03-31T14:52:50Z</time>
      </trkpt>
      <trkpt lat="36.817625" lon="-4.952858">
        <ele>687.453</ele>
        <time>2018-03-31T14:52:51Z</time>
      </trkpt>
      <trkpt lat="36.817570" lon="-4.952890">
        <ele>687.232</ele>
        <time>2018-03-31T14:52:52Z</time>
      </trkpt>
      <trkpt lat="36.817517" lon="-4.952908">
        <ele>687.292</ele>
        <time>2018-03-31T14:52:53Z</time>
      </trkpt>
      <trkpt lat="36.817466" lon="-4.952914">
        <ele>687.311</ele>
        <time>2018-03-31T14:52:54Z</time>
      </trkpt>
      <trkpt lat="36.817420" lon="-4.952916">
        <ele>687.108</ele>
        <time>2018-03-31T14:52:55Z</time>
      </trkpt>
      <trkpt lat="36.817358" lon="-4.952884">
        <ele>686.565</ele>
        <time>2018-03-31T14:52:57Z</time>
      </trkpt>
      <trkpt lat="36.817302" lon="-4.952861">
        <ele>685.066</ele>
        <time>2018-03-31T14:52:59Z</time>
      </trkpt>
      <trkpt lat="36.817246" lon="-4.952833">
        <ele>683.259</ele>
        <time>2018-03-31T14:53:01Z</time>
      </trkpt>
      <trkpt lat="36.817211" lon="-4.952788">
        <ele>682.135</ele>
        <time>2018-03-31T14:53:04Z</time>
      </trkpt>
      <trkpt lat="36.817206" lon="-4.952723">
        <ele>680.844</ele>
        <time>2018-03-31T14:53:08Z</time>
      </trkpt>
      <trkpt lat="36.817179" lon="-4.952667">
        <ele>681.021</ele>
        <time>2018-03-31T14:53:10Z</time>
      </trkpt>
      <trkpt lat="36.817145" lon="-4.952612">
        <ele>681.073</ele>
        <time>2018-03-31T14:53:12Z</time>
      </trkpt>
      <trkpt lat="36.817113" lon="-4.952556">
        <ele>680.865</ele>
        <time>2018-03-31T14:53:14Z</time>
      </trkpt>
      <trkpt lat="36.817091" lon="-4.952482">
        <ele>680.098</ele>
        <time>2018-03-31T14:53:17Z</time>
      </trkpt>
      <trkpt lat="36.817073" lon="-4.952427">
        <ele>679.615</ele>
        <time>2018-03-31T14:53:19Z</time>
      </trkpt>
      <trkpt lat="36.817058" lon="-4.952369">
        <ele>679.926</ele>
        <time>2018-03-31T14:53:21Z</time>
      </trkpt>
      <trkpt lat="36.817033" lon="-4.952307">
        <ele>680.308</ele>
        <time>2018-03-31T14:53:23Z</time>
      </trkpt>
      <trkpt lat="36.817008" lon="-4.952254">
        <ele>679.731</ele>
        <time>2018-03-31T14:53:25Z</time>
      </trkpt>
      <trkpt lat="36.816984" lon="-4.952196">
        <ele>679.362</ele>
        <time>2018-03-31T14:53:27Z</time>
      </trkpt>
      <trkpt lat="36.816965" lon="-4.952145">
        <ele>679.375</ele>
        <time>2018-03-31T14:53:29Z</time>
      </trkpt>
      <trkpt lat="36.816945" lon="-4.952077">
        <ele>680.341</ele>
        <time>2018-03-31T14:53:32Z</time>
      </trkpt>
      <trkpt lat="36.816925" lon="-4.952025">
        <ele>681.310</ele>
        <time>2018-03-31T14:53:34Z</time>
      </trkpt>
      <trkpt lat="36.816888" lon="-4.951961">
        <ele>681.827</ele>
        <time>2018-03-31T14:53:37Z</time>
      </trkpt>
      <trkpt lat="36.816844" lon="-4.951893">
        <ele>681.859</ele>
        <time>2018-03-31T14:53:40Z</time>
      </trkpt>
      <trkpt lat="36.816799" lon="-4.951828">
        <ele>681.881</ele>
        <time>2018-03-31T14:53:43Z</time>
      </trkpt>
      <trkpt lat="36.816757" lon="-4.951783">
        <ele>682.127</ele>
        <time>2018-03-31T14:53:45Z</time>
      </trkpt>
      <trkpt lat="36.816717" lon="-4.951735">
        <ele>682.568</ele>
        <time>2018-03-31T14:53:47Z</time>
      </trkpt>
      <trkpt lat="36.816665" lon="-4.951698">
        <ele>682.714</ele>
        <time>2018-03-31T14:53:49Z</time>
      </trkpt>
      <trkpt lat="36.816607" lon="-4.951649">
        <ele>682.508</ele>
        <time>2018-03-31T14:53:51Z</time>
      </trkpt>
      <trkpt lat="36.816550" lon="-4.951586">
        <ele>682.474</ele>
        <time>2018-03-31T14:53:53Z</time>
      </trkpt>
      <trkpt lat="36.816510" lon="-4.951559">
        <ele>682.475</ele>
        <time>2018-03-31T14:53:54Z</time>
      </trkpt>
      <trkpt lat="36.816466" lon="-4.951530">
        <ele>682.448</ele>
        <time>2018-03-31T14:53:55Z</time>
      </trkpt>
      <trkpt lat="36.816420" lon="-4.951508">
        <ele>682.474</ele>
        <time>2018-03-31T14:53:56Z</time>
      </trkpt>
      <trkpt lat="36.816370" lon="-4.951495">
        <ele>682.153</ele>
        <time>2018-03-31T14:53:57Z</time>
      </trkpt>
      <trkpt lat="36.816311" lon="-4.951497">
        <ele>681.810</ele>
        <time>2018-03-31T14:53:58Z</time>
      </trkpt>
      <trkpt lat="36.816247" lon="-4.951495">
        <ele>681.342</ele>
        <time>2018-03-31T14:53:59Z</time>
      </trkpt>
      <trkpt lat="36.816177" lon="-4.951495">
        <ele>680.414</ele>
        <time>2018-03-31T14:54:00Z</time>
      </trkpt>
      <trkpt lat="36.816111" lon="-4.951498">
        <ele>679.884</ele>
        <time>2018-03-31T14:54:01Z</time>
      </trkpt>
      <trkpt lat="36.816042" lon="-4.951500">
        <ele>679.707</ele>
        <time>2018-03-31T14:54:02Z</time>
      </trkpt>
      <trkpt lat="36.815973" lon="-4.951513">
        <ele>679.617</ele>
        <time>2018-03-31T14:54:03Z</time>
      </trkpt>
      <trkpt lat="36.815899" lon="-4.951533">
        <ele>679.108</ele>
        <time>2018-03-31T14:54:04Z</time>
      </trkpt>
      <trkpt lat="36.815819" lon="-4.951568">
        <ele>678.210</ele>
        <time>2018-03-31T14:54:05Z</time>
      </trkpt>
      <trkpt lat="36.815736" lon="-4.951603">
        <ele>677.221</ele>
        <time>2018-03-31T14:54:06Z</time>
      </trkpt>
      <trkpt lat="36.815650" lon="-4.951635">
        <ele>676.274</ele>
        <time>2018-03-31T14:54:07Z</time>
      </trkpt>
      <trkpt lat="36.815550" lon="-4.951668">
        <ele>675.250</ele>
        <time>2018-03-31T14:54:08Z</time>
      </trkpt>
      <trkpt lat="36.815446" lon="-4.951702">
        <ele>674.359</ele>
        <time>2018-03-31T14:54:09Z</time>
      </trkpt>
      <trkpt lat="36.815341" lon="-4.951731">
        <ele>673.476</ele>
        <time>2018-03-31T14:54:10Z</time>
      </trkpt>
      <trkpt lat="36.815235" lon="-4.951764">
        <ele>672.578</ele>
        <time>2018-03-31T14:54:11Z</time>
      </trkpt>
      <trkpt lat="36.815124" lon="-4.951797">
        <ele>671.670</ele>
        <time>2018-03-31T14:54:12Z</time>
      </trkpt>
      <trkpt lat="36.815010" lon="-4.951833">
        <ele>670.586</ele>
        <time>2018-03-31T14:54:13Z</time>
      </trkpt>
      <trkpt lat="36.814891" lon="-4.951874">
        <ele>669.560</ele>
        <time>2018-03-31T14:54:14Z</time>
      </trkpt>
      <trkpt lat="36.814769" lon="-4.951912">
        <ele>668.726</ele>
        <time>2018-03-31T14:54:15Z</time>
      </trkpt>
      <trkpt lat="36.814645" lon="-4.951952">
        <ele>668.008</ele>
        <time>2018-03-31T14:54:16Z</time>
      </trkpt>
      <trkpt lat="36.814523" lon="-4.951986">
        <ele>667.490</ele>
        <time>2018-03-31T14:54:17Z</time>
      </trkpt>
      <trkpt lat="36.814404" lon="-4.952020">
        <ele>666.961</ele>
        <time>2018-03-31T14:54:18Z</time>
      </trkpt>
      <trkpt lat="36.814286" lon="-4.952049">
        <ele>666.534</ele>
        <time>2018-03-31T14:54:19Z</time>
      </trkpt>
      <trkpt lat="36.814172" lon="-4.952073">
        <ele>666.180</ele>
        <time>2018-03-31T14:54:20Z</time>
      </trkpt>
      <trkpt lat="36.814066" lon="-4.952094">
        <ele>665.889</ele>
        <time>2018-03-31T14:54:21Z</time>
      </trkpt>
      <trkpt lat="36.813968" lon="-4.952112">
        <ele>665.696</ele>
        <time>2018-03-31T14:54:22Z</time>
      </trkpt>
      <trkpt lat="36.813877" lon="-4.952129">
        <ele>665.468</ele>
        <time>2018-03-31T14:54:23Z</time>
      </trkpt>
      <trkpt lat="36.813787" lon="-4.952146">
        <ele>665.350</ele>
        <time>2018-03-31T14:54:24Z</time>
      </trkpt>
      <trkpt lat="36.813701" lon="-4.952159">
        <ele>665.374</ele>
        <time>2018-03-31T14:54:25Z</time>
      </trkpt>
      <trkpt lat="36.813620" lon="-4.952168">
        <ele>665.456</ele>
        <time>2018-03-31T14:54:26Z</time>
      </trkpt>
      <trkpt lat="36.813545" lon="-4.952175">
        <ele>665.621</ele>
        <time>2018-03-31T14:54:27Z</time>
      </trkpt>
      <trkpt lat="36.813471" lon="-4.952181">
        <ele>665.808</ele>
        <time>2018-03-31T14:54:28Z</time>
      </trkpt>
      <trkpt lat="36.813400" lon="-4.952185">
        <ele>666.049</ele>
        <time>2018-03-31T14:54:29Z</time>
      </trkpt>
      <trkpt lat="36.813331" lon="-4.952192">
        <ele>666.320</ele>
        <time>2018-03-31T14:54:30Z</time>
      </trkpt>
      <trkpt lat="36.813263" lon="-4.952203">
        <ele>666.623</ele>
        <time>2018-03-31T14:54:31Z</time>
      </trkpt>
      <trkpt lat="36.813195" lon="-4.952212">
        <ele>666.999</ele>
        <time>2018-03-31T14:54:32Z</time>
      </trkpt>
      <trkpt lat="36.813130" lon="-4.952227">
        <ele>667.248</ele>
        <time>2018-03-31T14:54:33Z</time>
      </trkpt>
      <trkpt lat="36.813066" lon="-4.952248">
        <ele>667.515</ele>
        <time>2018-03-31T14:54:34Z</time>
      </trkpt>
      <trkpt lat="36.813003" lon="-4.952268">
        <ele>667.887</ele>
        <time>2018-03-31T14:54:35Z</time>
      </trkpt>
      <trkpt lat="36.812944" lon="-4.952290">
        <ele>668.019</ele>
        <time>2018-03-31T14:54:36Z</time>
      </trkpt>
      <trkpt lat="36.812885" lon="-4.952315">
        <ele>668.146</ele>
        <time>2018-03-31T14:54:37Z</time>
      </trkpt>
      <trkpt lat="36.812824" lon="-4.952335">
        <ele>668.588</ele>
        <time>2018-03-31T14:54:38Z</time>
      </trkpt>
      <trkpt lat="36.812771" lon="-4.952363">
        <ele>668.816</ele>
        <time>2018-03-31T14:54:39Z</time>
      </trkpt>
      <trkpt lat="36.812721" lon="-4.952397">
        <ele>669.008</ele>
        <time>2018-03-31T14:54:40Z</time>
      </trkpt>
      <trkpt lat="36.812678" lon="-4.952438">
        <ele>669.286</ele>
        <time>2018-03-31T14:54:41Z</time>
      </trkpt>
      <trkpt lat="36.812627" lon="-4.952484">
        <ele>669.677</ele>
        <time>2018-03-31T14:54:42Z</time>
      </trkpt>
      <trkpt lat="36.812585" lon="-4.952533">
        <ele>670.080</ele>
        <time>2018-03-31T14:54:43Z</time>
      </trkpt>
      <trkpt lat="36.812544" lon="-4.952589">
        <ele>670.276</ele>
        <time>2018-03-31T14:54:44Z</time>
      </trkpt>
      <trkpt lat="36.812501" lon="-4.952652">
        <ele>670.715</ele>
        <time>2018-03-31T14:54:45Z</time>
      </trkpt>
      <trkpt lat="36.812471" lon="-4.952711">
        <ele>670.852</ele>
        <time>2018-03-31T14:54:46Z</time>
      </trkpt>
      <trkpt lat="36.812441" lon="-4.952773">
        <ele>670.964</ele>
        <time>2018-03-31T14:54:47Z</time>
      </trkpt>
      <trkpt lat="36.812416" lon="-4.952837">
        <ele>670.966</ele>
        <time>2018-03-31T14:54:48Z</time>
      </trkpt>
      <trkpt lat="36.812393" lon="-4.952897">
        <ele>670.732</ele>
        <time>2018-03-31T14:54:49Z</time>
      </trkpt>
      <trkpt lat="36.812367" lon="-4.952985">
        <ele>670.892</ele>
        <time>2018-03-31T14:54:50Z</time>
      </trkpt>
      <trkpt lat="36.812347" lon="-4.953069">
        <ele>670.811</ele>
        <time>2018-03-31T14:54:51Z</time>
      </trkpt>
      <trkpt lat="36.812347" lon="-4.953141">
        <ele>670.508</ele>
        <time>2018-03-31T14:54:52Z</time>
      </trkpt>
      <trkpt lat="36.812340" lon="-4.953222">
        <ele>670.035</ele>
        <time>2018-03-31T14:54:53Z</time>
      </trkpt>
      <trkpt lat="36.812332" lon="-4.953306">
        <ele>669.446</ele>
        <time>2018-03-31T14:54:54Z</time>
      </trkpt>
      <trkpt lat="36.812318" lon="-4.953392">
        <ele>669.059</ele>
        <time>2018-03-31T14:54:55Z</time>
      </trkpt>
      <trkpt lat="36.812309" lon="-4.953492">
        <ele>668.885</ele>
        <time>2018-03-31T14:54:56Z</time>
      </trkpt>
      <trkpt lat="36.812298" lon="-4.953593">
        <ele>668.894</ele>
        <time>2018-03-31T14:54:57Z</time>
      </trkpt>
      <trkpt lat="36.812293" lon="-4.953694">
        <ele>668.641</ele>
        <time>2018-03-31T14:54:58Z</time>
      </trkpt>
      <trkpt lat="36.812287" lon="-4.953804">
        <ele>668.363</ele>
        <time>2018-03-31T14:54:59Z</time>
      </trkpt>
      <trkpt lat="36.812273" lon="-4.953903">
        <ele>668.185</ele>
        <time>2018-03-31T14:55:00Z</time>
      </trkpt>
      <trkpt lat="36.812264" lon="-4.953994">
        <ele>667.841</ele>
        <time>2018-03-31T14:55:01Z</time>
      </trkpt>
      <trkpt lat="36.812257" lon="-4.954080">
        <ele>667.781</ele>
        <time>2018-03-31T14:55:02Z</time>
      </trkpt>
      <trkpt lat="36.812250" lon="-4.954144">
        <ele>667.709</ele>
        <time>2018-03-31T14:55:03Z</time>
      </trkpt>
      <trkpt lat="36.812237" lon="-4.954256">
        <ele>667.408</ele>
        <time>2018-03-31T14:55:05Z</time>
      </trkpt>
      <trkpt lat="36.812213" lon="-4.954333">
        <ele>667.026</ele>
        <time>2018-03-31T14:55:07Z</time>
      </trkpt>
      <trkpt lat="36.812204" lon="-4.954410">
        <ele>666.127</ele>
        <time>2018-03-31T14:55:10Z</time>
      </trkpt>
      <trkpt lat="36.812197" lon="-4.954468">
        <ele>665.350</ele>
        <time>2018-03-31T14:55:12Z</time>
      </trkpt>
      <trkpt lat="36.812178" lon="-4.954549">
        <ele>665.566</ele>
        <time>2018-03-31T14:55:15Z</time>
      </trkpt>
      <trkpt lat="36.812183" lon="-4.954628">
        <ele>664.955</ele>
        <time>2018-03-31T14:55:18Z</time>
      </trkpt>
      <trkpt lat="36.812169" lon="-4.954705">
        <ele>663.642</ele>
        <time>2018-03-31T14:55:21Z</time>
      </trkpt>
      <trkpt lat="36.812177" lon="-4.954776">
        <ele>662.954</ele>
        <time>2018-03-31T14:55:24Z</time>
      </trkpt>
      <trkpt lat="36.812187" lon="-4.954836">
        <ele>662.256</ele>
        <time>2018-03-31T14:55:26Z</time>
      </trkpt>
      <trkpt lat="36.812195" lon="-4.954911">
        <ele>662.311</ele>
        <time>2018-03-31T14:55:29Z</time>
      </trkpt>
      <trkpt lat="36.812196" lon="-4.954976">
        <ele>662.621</ele>
        <time>2018-03-31T14:55:31Z</time>
      </trkpt>
      <trkpt lat="36.812186" lon="-4.955049">
        <ele>662.603</ele>
        <time>2018-03-31T14:55:33Z</time>
      </trkpt>
      <trkpt lat="36.812164" lon="-4.955114">
        <ele>663.308</ele>
        <time>2018-03-31T14:55:35Z</time>
      </trkpt>
      <trkpt lat="36.812134" lon="-4.955173">
        <ele>664.293</ele>
        <time>2018-03-31T14:55:37Z</time>
      </trkpt>
      <trkpt lat="36.812114" lon="-4.955253">
        <ele>664.924</ele>
        <time>2018-03-31T14:55:39Z</time>
      </trkpt>
      <trkpt lat="36.812114" lon="-4.955352">
        <ele>665.547</ele>
        <time>2018-03-31T14:55:41Z</time>
      </trkpt>
      <trkpt lat="36.812118" lon="-4.955411">
        <ele>665.863</ele>
        <time>2018-03-31T14:55:42Z</time>
      </trkpt>
      <trkpt lat="36.812122" lon="-4.955473">
        <ele>666.082</ele>
        <time>2018-03-31T14:55:43Z</time>
      </trkpt>
      <trkpt lat="36.812124" lon="-4.955538">
        <ele>666.219</ele>
        <time>2018-03-31T14:55:44Z</time>
      </trkpt>
      <trkpt lat="36.812133" lon="-4.955597">
        <ele>666.541</ele>
        <time>2018-03-31T14:55:45Z</time>
      </trkpt>
      <trkpt lat="36.812139" lon="-4.955656">
        <ele>666.753</ele>
        <time>2018-03-31T14:55:46Z</time>
      </trkpt>
      <trkpt lat="36.812145" lon="-4.955720">
        <ele>667.095</ele>
        <time>2018-03-31T14:55:47Z</time>
      </trkpt>
      <trkpt lat="36.812144" lon="-4.955780">
        <ele>667.349</ele>
        <time>2018-03-31T14:55:48Z</time>
      </trkpt>
      <trkpt lat="36.812141" lon="-4.955842">
        <ele>667.823</ele>
        <time>2018-03-31T14:55:49Z</time>
      </trkpt>
      <trkpt lat="36.812125" lon="-4.955902">
        <ele>667.908</ele>
        <time>2018-03-31T14:55:50Z</time>
      </trkpt>
      <trkpt lat="36.812110" lon="-4.955962">
        <ele>667.851</ele>
        <time>2018-03-31T14:55:51Z</time>
      </trkpt>
      <trkpt lat="36.812087" lon="-4.956010">
        <ele>667.722</ele>
        <time>2018-03-31T14:55:52Z</time>
      </trkpt>
      <trkpt lat="36.812030" lon="-4.956087">
        <ele>667.465</ele>
        <time>2018-03-31T14:55:54Z</time>
      </trkpt>
      <trkpt lat="36.811994" lon="-4.956145">
        <ele>667.171</ele>
        <time>2018-03-31T14:55:56Z</time>
      </trkpt>
      <trkpt lat="36.811935" lon="-4.956183">
        <ele>667.560</ele>
        <time>2018-03-31T14:55:58Z</time>
      </trkpt>
      <trkpt lat="36.811877" lon="-4.956215">
        <ele>668.297</ele>
        <time>2018-03-31T14:56:00Z</time>
      </trkpt>
      <trkpt lat="36.811821" lon="-4.956236">
        <ele>669.359</ele>
        <time>2018-03-31T14:56:02Z</time>
      </trkpt>
      <trkpt lat="36.811771" lon="-4.956251">
        <ele>670.851</ele>
        <time>2018-03-31T14:56:04Z</time>
      </trkpt>
      <trkpt lat="36.811704" lon="-4.956275">
        <ele>672.319</ele>
        <time>2018-03-31T14:56:06Z</time>
      </trkpt>
      <trkpt lat="36.811646" lon="-4.956297">
        <ele>673.609</ele>
        <time>2018-03-31T14:56:08Z</time>
      </trkpt>
      <trkpt lat="36.811587" lon="-4.956301">
        <ele>674.919</ele>
        <time>2018-03-31T14:56:10Z</time>
      </trkpt>
      <trkpt lat="36.811505" lon="-4.956321">
        <ele>675.708</ele>
        <time>2018-03-31T14:56:12Z</time>
      </trkpt>
      <trkpt lat="36.811440" lon="-4.956350">
        <ele>675.943</ele>
        <time>2018-03-31T14:56:14Z</time>
      </trkpt>
      <trkpt lat="36.811359" lon="-4.956390">
        <ele>675.964</ele>
        <time>2018-03-31T14:56:16Z</time>
      </trkpt>
      <trkpt lat="36.811304" lon="-4.956411">
        <ele>676.197</ele>
        <time>2018-03-31T14:56:17Z</time>
      </trkpt>
      <trkpt lat="36.811249" lon="-4.956434">
        <ele>676.363</ele>
        <time>2018-03-31T14:56:18Z</time>
      </trkpt>
      <trkpt lat="36.811189" lon="-4.956464">
        <ele>676.352</ele>
        <time>2018-03-31T14:56:19Z</time>
      </trkpt>
      <trkpt lat="36.811128" lon="-4.956494">
        <ele>676.229</ele>
        <time>2018-03-31T14:56:20Z</time>
      </trkpt>
      <trkpt lat="36.811055" lon="-4.956537">
        <ele>676.121</ele>
        <time>2018-03-31T14:56:21Z</time>
      </trkpt>
      <trkpt lat="36.810980" lon="-4.956584">
        <ele>675.993</ele>
        <time>2018-03-31T14:56:22Z</time>
      </trkpt>
      <trkpt lat="36.810894" lon="-4.956643">
        <ele>675.468</ele>
        <time>2018-03-31T14:56:23Z</time>
      </trkpt>
      <trkpt lat="36.810801" lon="-4.956701">
        <ele>674.842</ele>
        <time>2018-03-31T14:56:24Z</time>
      </trkpt>
      <trkpt lat="36.810706" lon="-4.956759">
        <ele>674.226</ele>
        <time>2018-03-31T14:56:25Z</time>
      </trkpt>
      <trkpt lat="36.810603" lon="-4.956819">
        <ele>673.508</ele>
        <time>2018-03-31T14:56:26Z</time>
      </trkpt>
      <trkpt lat="36.810493" lon="-4.956881">
        <ele>672.718</ele>
        <time>2018-03-31T14:56:27Z</time>
      </trkpt>
      <trkpt lat="36.810385" lon="-4.956940">
        <ele>671.879</ele>
        <time>2018-03-31T14:56:28Z</time>
      </trkpt>
      <trkpt lat="36.810270" lon="-4.956995">
        <ele>670.742</ele>
        <time>2018-03-31T14:56:29Z</time>
      </trkpt>
      <trkpt lat="36.810144" lon="-4.957048">
        <ele>669.858</ele>
        <time>2018-03-31T14:56:30Z</time>
      </trkpt>
      <trkpt lat="36.810015" lon="-4.957098">
        <ele>668.987</ele>
        <time>2018-03-31T14:56:31Z</time>
      </trkpt>
      <trkpt lat="36.809887" lon="-4.957145">
        <ele>667.974</ele>
        <time>2018-03-31T14:56:32Z</time>
      </trkpt>
      <trkpt lat="36.809767" lon="-4.957184">
        <ele>666.986</ele>
        <time>2018-03-31T14:56:33Z</time>
      </trkpt>
      <trkpt lat="36.809658" lon="-4.957220">
        <ele>666.098</ele>
        <time>2018-03-31T14:56:34Z</time>
      </trkpt>
      <trkpt lat="36.809549" lon="-4.957243">
        <ele>665.312</ele>
        <time>2018-03-31T14:56:35Z</time>
      </trkpt>
      <trkpt lat="36.809445" lon="-4.957240">
        <ele>664.432</ele>
        <time>2018-03-31T14:56:36Z</time>
      </trkpt>
      <trkpt lat="36.809352" lon="-4.957216">
        <ele>663.705</ele>
        <time>2018-03-31T14:56:37Z</time>
      </trkpt>
      <trkpt lat="36.809260" lon="-4.957183">
        <ele>663.108</ele>
        <time>2018-03-31T14:56:38Z</time>
      </trkpt>
      <trkpt lat="36.809183" lon="-4.957124">
        <ele>662.823</ele>
        <time>2018-03-31T14:56:39Z</time>
      </trkpt>
      <trkpt lat="36.809107" lon="-4.957065">
        <ele>662.534</ele>
        <time>2018-03-31T14:56:40Z</time>
      </trkpt>
      <trkpt lat="36.809033" lon="-4.957011">
        <ele>662.127</ele>
        <time>2018-03-31T14:56:41Z</time>
      </trkpt>
      <trkpt lat="36.808956" lon="-4.956955">
        <ele>661.843</ele>
        <time>2018-03-31T14:56:42Z</time>
      </trkpt>
      <trkpt lat="36.808879" lon="-4.956895">
        <ele>661.562</ele>
        <time>2018-03-31T14:56:43Z</time>
      </trkpt>
      <trkpt lat="36.808802" lon="-4.956831">
        <ele>661.239</ele>
        <time>2018-03-31T14:56:44Z</time>
      </trkpt>
      <trkpt lat="36.808729" lon="-4.956774">
        <ele>661.061</ele>
        <time>2018-03-31T14:56:45Z</time>
      </trkpt>
      <trkpt lat="36.808651" lon="-4.956728">
        <ele>661.053</ele>
        <time>2018-03-31T14:56:46Z</time>
      </trkpt>
      <trkpt lat="36.808571" lon="-4.956691">
        <ele>660.971</ele>
        <time>2018-03-31T14:56:47Z</time>
      </trkpt>
      <trkpt lat="36.808487" lon="-4.956653">
        <ele>660.741</ele>
        <time>2018-03-31T14:56:48Z</time>
      </trkpt>
      <trkpt lat="36.808409" lon="-4.956632">
        <ele>660.615</ele>
        <time>2018-03-31T14:56:49Z</time>
      </trkpt>
      <trkpt lat="36.808328" lon="-4.956617">
        <ele>660.308</ele>
        <time>2018-03-31T14:56:50Z</time>
      </trkpt>
      <trkpt lat="36.808243" lon="-4.956595">
        <ele>660.199</ele>
        <time>2018-03-31T14:56:51Z</time>
      </trkpt>
      <trkpt lat="36.808158" lon="-4.956550">
        <ele>660.060</ele>
        <time>2018-03-31T14:56:52Z</time>
      </trkpt>
      <trkpt lat="36.808081" lon="-4.956479">
        <ele>659.993</ele>
        <time>2018-03-31T14:56:53Z</time>
      </trkpt>
      <trkpt lat="36.808014" lon="-4.956396">
        <ele>659.989</ele>
        <time>2018-03-31T14:56:54Z</time>
      </trkpt>
      <trkpt lat="36.807943" lon="-4.956318">
        <ele>660.018</ele>
        <time>2018-03-31T14:56:55Z</time>
      </trkpt>
      <trkpt lat="36.807877" lon="-4.956240">
        <ele>660.015</ele>
        <time>2018-03-31T14:56:56Z</time>
      </trkpt>
      <trkpt lat="36.807806" lon="-4.956165">
        <ele>659.757</ele>
        <time>2018-03-31T14:56:57Z</time>
      </trkpt>
      <trkpt lat="36.807732" lon="-4.956091">
        <ele>659.299</ele>
        <time>2018-03-31T14:56:58Z</time>
      </trkpt>
      <trkpt lat="36.807655" lon="-4.956031">
        <ele>658.174</ele>
        <time>2018-03-31T14:56:59Z</time>
      </trkpt>
      <trkpt lat="36.807578" lon="-4.955973">
        <ele>657.056</ele>
        <time>2018-03-31T14:57:00Z</time>
      </trkpt>
      <trkpt lat="36.807504" lon="-4.955908">
        <ele>655.821</ele>
        <time>2018-03-31T14:57:01Z</time>
      </trkpt>
      <trkpt lat="36.807420" lon="-4.955864">
        <ele>654.708</ele>
        <time>2018-03-31T14:57:02Z</time>
      </trkpt>
      <trkpt lat="36.807336" lon="-4.955846">
        <ele>654.099</ele>
        <time>2018-03-31T14:57:03Z</time>
      </trkpt>
      <trkpt lat="36.807246" lon="-4.955838">
        <ele>653.340</ele>
        <time>2018-03-31T14:57:04Z</time>
      </trkpt>
      <trkpt lat="36.807152" lon="-4.955830">
        <ele>652.783</ele>
        <time>2018-03-31T14:57:05Z</time>
      </trkpt>
      <trkpt lat="36.807065" lon="-4.955818">
        <ele>652.479</ele>
        <time>2018-03-31T14:57:06Z</time>
      </trkpt>
      <trkpt lat="36.806979" lon="-4.955808">
        <ele>652.488</ele>
        <time>2018-03-31T14:57:07Z</time>
      </trkpt>
      <trkpt lat="36.806902" lon="-4.955800">
        <ele>652.775</ele>
        <time>2018-03-31T14:57:08Z</time>
      </trkpt>
      <trkpt lat="36.806823" lon="-4.955796">
        <ele>653.197</ele>
        <time>2018-03-31T14:57:09Z</time>
      </trkpt>
      <trkpt lat="36.806748" lon="-4.955801">
        <ele>653.669</ele>
        <time>2018-03-31T14:57:10Z</time>
      </trkpt>
      <trkpt lat="36.806671" lon="-4.955802">
        <ele>653.828</ele>
        <time>2018-03-31T14:57:11Z</time>
      </trkpt>
      <trkpt lat="36.806603" lon="-4.955804">
        <ele>654.289</ele>
        <time>2018-03-31T14:57:12Z</time>
      </trkpt>
      <trkpt lat="36.806535" lon="-4.955807">
        <ele>654.717</ele>
        <time>2018-03-31T14:57:13Z</time>
      </trkpt>
      <trkpt lat="36.806473" lon="-4.955817">
        <ele>655.408</ele>
        <time>2018-03-31T14:57:14Z</time>
      </trkpt>
      <trkpt lat="36.806406" lon="-4.955818">
        <ele>656.064</ele>
        <time>2018-03-31T14:57:15Z</time>
      </trkpt>
      <trkpt lat="36.806339" lon="-4.955820">
        <ele>656.615</ele>
        <time>2018-03-31T14:57:16Z</time>
      </trkpt>
      <trkpt lat="36.806278" lon="-4.955818">
        <ele>657.198</ele>
        <time>2018-03-31T14:57:17Z</time>
      </trkpt>
      <trkpt lat="36.806221" lon="-4.955818">
        <ele>657.534</ele>
        <time>2018-03-31T14:57:18Z</time>
      </trkpt>
      <trkpt lat="36.806153" lon="-4.955820">
        <ele>657.733</ele>
        <time>2018-03-31T14:57:19Z</time>
      </trkpt>
      <trkpt lat="36.806088" lon="-4.955833">
        <ele>657.530</ele>
        <time>2018-03-31T14:57:20Z</time>
      </trkpt>
      <trkpt lat="36.806018" lon="-4.955840">
        <ele>657.342</ele>
        <time>2018-03-31T14:57:21Z</time>
      </trkpt>
      <trkpt lat="36.805949" lon="-4.955849">
        <ele>657.094</ele>
        <time>2018-03-31T14:57:22Z</time>
      </trkpt>
      <trkpt lat="36.805882" lon="-4.955869">
        <ele>656.569</ele>
        <time>2018-03-31T14:57:23Z</time>
      </trkpt>
      <trkpt lat="36.805804" lon="-4.955864">
        <ele>656.104</ele>
        <time>2018-03-31T14:57:24Z</time>
      </trkpt>
      <trkpt lat="36.805731" lon="-4.955867">
        <ele>655.524</ele>
        <time>2018-03-31T14:57:25Z</time>
      </trkpt>
      <trkpt lat="36.805656" lon="-4.955856">
        <ele>655.608</ele>
        <time>2018-03-31T14:57:26Z</time>
      </trkpt>
      <trkpt lat="36.805579" lon="-4.955867">
        <ele>655.588</ele>
        <time>2018-03-31T14:57:27Z</time>
      </trkpt>
      <trkpt lat="36.805494" lon="-4.955868">
        <ele>655.199</ele>
        <time>2018-03-31T14:57:28Z</time>
      </trkpt>
      <trkpt lat="36.805409" lon="-4.955873">
        <ele>654.772</ele>
        <time>2018-03-31T14:57:29Z</time>
      </trkpt>
      <trkpt lat="36.805326" lon="-4.955870">
        <ele>654.558</ele>
        <time>2018-03-31T14:57:30Z</time>
      </trkpt>
      <trkpt lat="36.805239" lon="-4.955868">
        <ele>654.137</ele>
        <time>2018-03-31T14:57:31Z</time>
      </trkpt>
      <trkpt lat="36.805147" lon="-4.955862">
        <ele>653.424</ele>
        <time>2018-03-31T14:57:32Z</time>
      </trkpt>
      <trkpt lat="36.805055" lon="-4.955855">
        <ele>652.426</ele>
        <time>2018-03-31T14:57:33Z</time>
      </trkpt>
      <trkpt lat="36.804958" lon="-4.955848">
        <ele>651.428</ele>
        <time>2018-03-31T14:57:34Z</time>
      </trkpt>
      <trkpt lat="36.804858" lon="-4.955836">
        <ele>650.269</ele>
        <time>2018-03-31T14:57:35Z</time>
      </trkpt>
      <trkpt lat="36.804756" lon="-4.955824">
        <ele>648.904</ele>
        <time>2018-03-31T14:57:36Z</time>
      </trkpt>
      <trkpt lat="36.804650" lon="-4.955808">
        <ele>647.624</ele>
        <time>2018-03-31T14:57:37Z</time>
      </trkpt>
      <trkpt lat="36.804539" lon="-4.955786">
        <ele>646.308</ele>
        <time>2018-03-31T14:57:38Z</time>
      </trkpt>
      <trkpt lat="36.804428" lon="-4.955770">
        <ele>645.188</ele>
        <time>2018-03-31T14:57:39Z</time>
      </trkpt>
      <trkpt lat="36.804319" lon="-4.955755">
        <ele>643.959</ele>
        <time>2018-03-31T14:57:40Z</time>
      </trkpt>
      <trkpt lat="36.804209" lon="-4.955740">
        <ele>642.722</ele>
        <time>2018-03-31T14:57:41Z</time>
      </trkpt>
      <trkpt lat="36.804102" lon="-4.955719">
        <ele>641.748</ele>
        <time>2018-03-31T14:57:42Z</time>
      </trkpt>
      <trkpt lat="36.803993" lon="-4.955701">
        <ele>640.867</ele>
        <time>2018-03-31T14:57:43Z</time>
      </trkpt>
      <trkpt lat="36.803883" lon="-4.955685">
        <ele>639.814</ele>
        <time>2018-03-31T14:57:44Z</time>
      </trkpt>
      <trkpt lat="36.803775" lon="-4.955670">
        <ele>638.856</ele>
        <time>2018-03-31T14:57:45Z</time>
      </trkpt>
      <trkpt lat="36.803671" lon="-4.955653">
        <ele>637.728</ele>
        <time>2018-03-31T14:57:46Z</time>
      </trkpt>
      <trkpt lat="36.803563" lon="-4.955639">
        <ele>636.679</ele>
        <time>2018-03-31T14:57:47Z</time>
      </trkpt>
      <trkpt lat="36.803455" lon="-4.955621">
        <ele>635.605</ele>
        <time>2018-03-31T14:57:48Z</time>
      </trkpt>
      <trkpt lat="36.803348" lon="-4.955619">
        <ele>634.825</ele>
        <time>2018-03-31T14:57:49Z</time>
      </trkpt>
      <trkpt lat="36.803244" lon="-4.955615">
        <ele>634.108</ele>
        <time>2018-03-31T14:57:50Z</time>
      </trkpt>
      <trkpt lat="36.803141" lon="-4.955598">
        <ele>633.429</ele>
        <time>2018-03-31T14:57:51Z</time>
      </trkpt>
      <trkpt lat="36.803040" lon="-4.955579">
        <ele>632.540</ele>
        <time>2018-03-31T14:57:52Z</time>
      </trkpt>
      <trkpt lat="36.802935" lon="-4.955560">
        <ele>631.553</ele>
        <time>2018-03-31T14:57:53Z</time>
      </trkpt>
      <trkpt lat="36.802825" lon="-4.955542">
        <ele>630.679</ele>
        <time>2018-03-31T14:57:54Z</time>
      </trkpt>
      <trkpt lat="36.802712" lon="-4.955524">
        <ele>629.738</ele>
        <time>2018-03-31T14:57:55Z</time>
      </trkpt>
      <trkpt lat="36.802594" lon="-4.955508">
        <ele>628.895</ele>
        <time>2018-03-31T14:57:56Z</time>
      </trkpt>
      <trkpt lat="36.802471" lon="-4.955498">
        <ele>628.017</ele>
        <time>2018-03-31T14:57:57Z</time>
      </trkpt>
      <trkpt lat="36.802343" lon="-4.955481">
        <ele>627.489</ele>
        <time>2018-03-31T14:57:58Z</time>
      </trkpt>
      <trkpt lat="36.802212" lon="-4.955454">
        <ele>626.972</ele>
        <time>2018-03-31T14:57:59Z</time>
      </trkpt>
      <trkpt lat="36.802079" lon="-4.955418">
        <ele>626.513</ele>
        <time>2018-03-31T14:58:00Z</time>
      </trkpt>
      <trkpt lat="36.801943" lon="-4.955399">
        <ele>626.114</ele>
        <time>2018-03-31T14:58:01Z</time>
      </trkpt>
      <trkpt lat="36.801810" lon="-4.955380">
        <ele>625.708</ele>
        <time>2018-03-31T14:58:02Z</time>
      </trkpt>
      <trkpt lat="36.801680" lon="-4.955362">
        <ele>625.359</ele>
        <time>2018-03-31T14:58:03Z</time>
      </trkpt>
      <trkpt lat="36.801552" lon="-4.955346">
        <ele>624.960</ele>
        <time>2018-03-31T14:58:04Z</time>
      </trkpt>
      <trkpt lat="36.801428" lon="-4.955320">
        <ele>624.553</ele>
        <time>2018-03-31T14:58:05Z</time>
      </trkpt>
      <trkpt lat="36.801307" lon="-4.955294">
        <ele>624.049</ele>
        <time>2018-03-31T14:58:06Z</time>
      </trkpt>
      <trkpt lat="36.801190" lon="-4.955279">
        <ele>623.418</ele>
        <time>2018-03-31T14:58:07Z</time>
      </trkpt>
      <trkpt lat="36.801076" lon="-4.955258">
        <ele>622.875</ele>
        <time>2018-03-31T14:58:08Z</time>
      </trkpt>
      <trkpt lat="36.800966" lon="-4.955248">
        <ele>622.137</ele>
        <time>2018-03-31T14:58:09Z</time>
      </trkpt>
      <trkpt lat="36.800861" lon="-4.955225">
        <ele>621.519</ele>
        <time>2018-03-31T14:58:10Z</time>
      </trkpt>
      <trkpt lat="36.800759" lon="-4.955202">
        <ele>620.918</ele>
        <time>2018-03-31T14:58:11Z</time>
      </trkpt>
      <trkpt lat="36.800658" lon="-4.955178">
        <ele>620.398</ele>
        <time>2018-03-31T14:58:12Z</time>
      </trkpt>
      <trkpt lat="36.800558" lon="-4.955157">
        <ele>619.717</ele>
        <time>2018-03-31T14:58:13Z</time>
      </trkpt>
      <trkpt lat="36.800460" lon="-4.955145">
        <ele>619.208</ele>
        <time>2018-03-31T14:58:14Z</time>
      </trkpt>
      <trkpt lat="36.800366" lon="-4.955128">
        <ele>618.753</ele>
        <time>2018-03-31T14:58:15Z</time>
      </trkpt>
      <trkpt lat="36.800275" lon="-4.955116">
        <ele>618.254</ele>
        <time>2018-03-31T14:58:16Z</time>
      </trkpt>
      <trkpt lat="36.800190" lon="-4.955092">
        <ele>617.727</ele>
        <time>2018-03-31T14:58:17Z</time>
      </trkpt>
      <trkpt lat="36.800109" lon="-4.955077">
        <ele>617.213</ele>
        <time>2018-03-31T14:58:18Z</time>
      </trkpt>
      <trkpt lat="36.800034" lon="-4.955065">
        <ele>616.982</ele>
        <time>2018-03-31T14:58:19Z</time>
      </trkpt>
      <trkpt lat="36.799965" lon="-4.955048">
        <ele>616.629</ele>
        <time>2018-03-31T14:58:20Z</time>
      </trkpt>
      <trkpt lat="36.799900" lon="-4.955032">
        <ele>600.481</ele>
        <time>2018-03-31T14:58:21Z</time>
      </trkpt>
      <trkpt lat="36.799839" lon="-4.955018">
        <ele>599.033</ele>
        <time>2018-03-31T14:58:22Z</time>
      </trkpt>
      <trkpt lat="36.799780" lon="-4.955011">
        <ele>599.379</ele>
        <time>2018-03-31T14:58:23Z</time>
      </trkpt>
      <trkpt lat="36.799724" lon="-4.955001">
        <ele>599.805</ele>
        <time>2018-03-31T14:58:24Z</time>
      </trkpt>
      <trkpt lat="36.799671" lon="-4.954979">
        <ele>600.325</ele>
        <time>2018-03-31T14:58:25Z</time>
      </trkpt>
      <trkpt lat="36.799619" lon="-4.954959">
        <ele>600.708</ele>
        <time>2018-03-31T14:58:26Z</time>
      </trkpt>
      <trkpt lat="36.799569" lon="-4.954942">
        <ele>601.069</ele>
        <time>2018-03-31T14:58:27Z</time>
      </trkpt>
      <trkpt lat="36.799521" lon="-4.954923">
        <ele>602.030</ele>
        <time>2018-03-31T14:58:28Z</time>
      </trkpt>
      <trkpt lat="36.799473" lon="-4.954909">
        <ele>602.123</ele>
        <time>2018-03-31T14:58:29Z</time>
      </trkpt>
      <trkpt lat="36.799426" lon="-4.954890">
        <ele>602.169</ele>
        <time>2018-03-31T14:58:30Z</time>
      </trkpt>
      <trkpt lat="36.799376" lon="-4.954878">
        <ele>602.188</ele>
        <time>2018-03-31T14:58:31Z</time>
      </trkpt>
      <trkpt lat="36.799322" lon="-4.954862">
        <ele>602.145</ele>
        <time>2018-03-31T14:58:32Z</time>
      </trkpt>
      <trkpt lat="36.799267" lon="-4.954850">
        <ele>602.177</ele>
        <time>2018-03-31T14:58:33Z</time>
      </trkpt>
      <trkpt lat="36.799212" lon="-4.954828">
        <ele>602.139</ele>
        <time>2018-03-31T14:58:34Z</time>
      </trkpt>
      <trkpt lat="36.799152" lon="-4.954801">
        <ele>602.165</ele>
        <time>2018-03-31T14:58:35Z</time>
      </trkpt>
      <trkpt lat="36.799092" lon="-4.954774">
        <ele>602.168</ele>
        <time>2018-03-31T14:58:36Z</time>
      </trkpt>
      <trkpt lat="36.799026" lon="-4.954743">
        <ele>602.114</ele>
        <time>2018-03-31T14:58:37Z</time>
      </trkpt>
      <trkpt lat="36.798962" lon="-4.954712">
        <ele>602.108</ele>
        <time>2018-03-31T14:58:38Z</time>
      </trkpt>
      <trkpt lat="36.798904" lon="-4.954684">
        <ele>602.148</ele>
        <time>2018-03-31T14:58:39Z</time>
      </trkpt>
      <trkpt lat="36.798845" lon="-4.954666">
        <ele>602.179</ele>
        <time>2018-03-31T14:58:40Z</time>
      </trkpt>
      <trkpt lat="36.798778" lon="-4.954636">
        <ele>602.192</ele>
        <time>2018-03-31T14:58:41Z</time>
      </trkpt>
      <trkpt lat="36.798713" lon="-4.954604">
        <ele>602.178</ele>
        <time>2018-03-31T14:58:42Z</time>
      </trkpt>
      <trkpt lat="36.798654" lon="-4.954574">
        <ele>602.167</ele>
        <time>2018-03-31T14:58:43Z</time>
      </trkpt>
      <trkpt lat="36.798550" lon="-4.954525">
        <ele>602.124</ele>
        <time>2018-03-31T14:58:45Z</time>
      </trkpt>
      <trkpt lat="36.798484" lon="-4.954491">
        <ele>602.116</ele>
        <time>2018-03-31T14:58:46Z</time>
      </trkpt>
      <trkpt lat="36.798417" lon="-4.954460">
        <ele>602.118</ele>
        <time>2018-03-31T14:58:47Z</time>
      </trkpt>
      <trkpt lat="36.798358" lon="-4.954429">
        <ele>602.199</ele>
        <time>2018-03-31T14:58:48Z</time>
      </trkpt>
      <trkpt lat="36.798295" lon="-4.954393">
        <ele>602.107</ele>
        <time>2018-03-31T14:58:49Z</time>
      </trkpt>
      <trkpt lat="36.798241" lon="-4.954370">
        <ele>602.127</ele>
        <time>2018-03-31T14:58:50Z</time>
      </trkpt>
      <trkpt lat="36.798189" lon="-4.954348">
        <ele>602.108</ele>
        <time>2018-03-31T14:58:51Z</time>
      </trkpt>
      <trkpt lat="36.798134" lon="-4.954325">
        <ele>602.161</ele>
        <time>2018-03-31T14:58:52Z</time>
      </trkpt>
      <trkpt lat="36.798072" lon="-4.954297">
        <ele>602.162</ele>
        <time>2018-03-31T14:58:53Z</time>
      </trkpt>
      <trkpt lat="36.798006" lon="-4.954268">
        <ele>602.155</ele>
        <time>2018-03-31T14:58:54Z</time>
      </trkpt>
      <trkpt lat="36.797946" lon="-4.954238">
        <ele>602.181</ele>
        <time>2018-03-31T14:58:55Z</time>
      </trkpt>
      <trkpt lat="36.797889" lon="-4.954208">
        <ele>602.180</ele>
        <time>2018-03-31T14:58:56Z</time>
      </trkpt>
      <trkpt lat="36.797834" lon="-4.954185">
        <ele>602.177</ele>
        <time>2018-03-31T14:58:57Z</time>
      </trkpt>
      <trkpt lat="36.797770" lon="-4.954149">
        <ele>602.199</ele>
        <time>2018-03-31T14:58:58Z</time>
      </trkpt>
      <trkpt lat="36.797707" lon="-4.954121">
        <ele>602.141</ele>
        <time>2018-03-31T14:58:59Z</time>
      </trkpt>
      <trkpt lat="36.797637" lon="-4.954086">
        <ele>602.119</ele>
        <time>2018-03-31T14:59:00Z</time>
      </trkpt>
      <trkpt lat="36.797571" lon="-4.954050">
        <ele>602.109</ele>
        <time>2018-03-31T14:59:01Z</time>
      </trkpt>
      <trkpt lat="36.797507" lon="-4.954018">
        <ele>602.119</ele>
        <time>2018-03-31T14:59:02Z</time>
      </trkpt>
      <trkpt lat="36.797439" lon="-4.953981">
        <ele>602.108</ele>
        <time>2018-03-31T14:59:03Z</time>
      </trkpt>
      <trkpt lat="36.797373" lon="-4.953948">
        <ele>601.873</ele>
        <time>2018-03-31T14:59:04Z</time>
      </trkpt>
      <trkpt lat="36.797308" lon="-4.953915">
        <ele>601.394</ele>
        <time>2018-03-31T14:59:05Z</time>
      </trkpt>
      <trkpt lat="36.797246" lon="-4.953880">
        <ele>601.997</ele>
        <time>2018-03-31T14:59:06Z</time>
      </trkpt>
      <trkpt lat="36.797183" lon="-4.953839">
        <ele>600.083</ele>
        <time>2018-03-31T14:59:07Z</time>
      </trkpt>
      <trkpt lat="36.797120" lon="-4.953799">
        <ele>599.272</ele>
        <time>2018-03-31T14:59:08Z</time>
      </trkpt>
      <trkpt lat="36.797056" lon="-4.953761">
        <ele>598.699</ele>
        <time>2018-03-31T14:59:09Z</time>
      </trkpt>
      <trkpt lat="36.796991" lon="-4.953722">
        <ele>598.231</ele>
        <time>2018-03-31T14:59:10Z</time>
      </trkpt>
      <trkpt lat="36.796911" lon="-4.953681">
        <ele>597.823</ele>
        <time>2018-03-31T14:59:11Z</time>
      </trkpt>
      <trkpt lat="36.796840" lon="-4.953644">
        <ele>597.555</ele>
        <time>2018-03-31T14:59:12Z</time>
      </trkpt>
      <trkpt lat="36.796767" lon="-4.953607">
        <ele>597.307</ele>
        <time>2018-03-31T14:59:13Z</time>
      </trkpt>
      <trkpt lat="36.796699" lon="-4.953571">
        <ele>597.117</ele>
        <time>2018-03-31T14:59:14Z</time>
      </trkpt>
      <trkpt lat="36.796638" lon="-4.953544">
        <ele>597.008</ele>
        <time>2018-03-31T14:59:15Z</time>
      </trkpt>
      <trkpt lat="36.796576" lon="-4.953516">
        <ele>597.067</ele>
        <time>2018-03-31T14:59:16Z</time>
      </trkpt>
      <trkpt lat="36.796510" lon="-4.953486">
        <ele>597.068</ele>
        <time>2018-03-31T14:59:17Z</time>
      </trkpt>
      <trkpt lat="36.796444" lon="-4.953456">
        <ele>597.031</ele>
        <time>2018-03-31T14:59:18Z</time>
      </trkpt>
      <trkpt lat="36.796384" lon="-4.953429">
        <ele>596.967</ele>
        <time>2018-03-31T14:59:19Z</time>
      </trkpt>
      <trkpt lat="36.796327" lon="-4.953408">
        <ele>596.896</ele>
        <time>2018-03-31T14:59:20Z</time>
      </trkpt>
      <trkpt lat="36.796266" lon="-4.953381">
        <ele>596.763</ele>
        <time>2018-03-31T14:59:21Z</time>
      </trkpt>
      <trkpt lat="36.796203" lon="-4.953349">
        <ele>596.665</ele>
        <time>2018-03-31T14:59:22Z</time>
      </trkpt>
      <trkpt lat="36.796138" lon="-4.953321">
        <ele>596.537</ele>
        <time>2018-03-31T14:59:23Z</time>
      </trkpt>
      <trkpt lat="36.796084" lon="-4.953300">
        <ele>596.463</ele>
        <time>2018-03-31T14:59:24Z</time>
      </trkpt>
      <trkpt lat="36.796017" lon="-4.953263">
        <ele>596.544</ele>
        <time>2018-03-31T14:59:26Z</time>
      </trkpt>
      <trkpt lat="36.795954" lon="-4.953235">
        <ele>596.618</ele>
        <time>2018-03-31T14:59:28Z</time>
      </trkpt>
      <trkpt lat="36.795994" lon="-4.953278">
        <ele>596.608</ele>
        <time>2018-03-31T14:59:32Z</time>
      </trkpt>
      <trkpt lat="36.796030" lon="-4.953314">
        <ele>596.558</ele>
        <time>2018-03-31T14:59:36Z</time>
      </trkpt>
      <trkpt lat="36.795980" lon="-4.953322">
        <ele>596.099</ele>
        <time>2018-03-31T15:00:19Z</time>
      </trkpt>
      <trkpt lat="36.795935" lon="-4.953312">
        <ele>596.112</ele>
        <time>2018-03-31T15:00:42Z</time>
      </trkpt>
      <trkpt lat="36.795868" lon="-4.953296">
        <ele>596.128</ele>
        <time>2018-03-31T15:00:56Z</time>
      </trkpt>
      <trkpt lat="36.795793" lon="-4.953274">
        <ele>595.837</ele>
        <time>2018-03-31T15:00:58Z</time>
      </trkpt>
      <trkpt lat="36.795714" lon="-4.953248">
        <ele>594.694</ele>
        <time>2018-03-31T15:01:00Z</time>
      </trkpt>
      <trkpt lat="36.795670" lon="-4.953226">
        <ele>594.116</ele>
        <time>2018-03-31T15:01:01Z</time>
      </trkpt>
      <trkpt lat="36.795618" lon="-4.953190">
        <ele>593.618</ele>
        <time>2018-03-31T15:01:03Z</time>
      </trkpt>
      <trkpt lat="36.795582" lon="-4.953135">
        <ele>594.155</ele>
        <time>2018-03-31T15:01:23Z</time>
      </trkpt>
      <trkpt lat="36.795512" lon="-4.953111">
        <ele>594.107</ele>
        <time>2018-03-31T15:01:25Z</time>
      </trkpt>
      <trkpt lat="36.795466" lon="-4.953087">
        <ele>593.817</ele>
        <time>2018-03-31T15:01:26Z</time>
      </trkpt>
      <trkpt lat="36.795423" lon="-4.953066">
        <ele>593.408</ele>
        <time>2018-03-31T15:01:27Z</time>
      </trkpt>
      <trkpt lat="36.795380" lon="-4.953038">
        <ele>592.817</ele>
        <time>2018-03-31T15:01:28Z</time>
      </trkpt>
      <trkpt lat="36.795339" lon="-4.953012">
        <ele>592.228</ele>
        <time>2018-03-31T15:01:29Z</time>
      </trkpt>
      <trkpt lat="36.795290" lon="-4.952984">
        <ele>591.871</ele>
        <time>2018-03-31T15:01:30Z</time>
      </trkpt>
      <trkpt lat="36.795241" lon="-4.952952">
        <ele>591.587</ele>
        <time>2018-03-31T15:01:31Z</time>
      </trkpt>
      <trkpt lat="36.795191" lon="-4.952922">
        <ele>591.126</ele>
        <time>2018-03-31T15:01:32Z</time>
      </trkpt>
      <trkpt lat="36.795135" lon="-4.952892">
        <ele>590.743</ele>
        <time>2018-03-31T15:01:33Z</time>
      </trkpt>
      <trkpt lat="36.795080" lon="-4.952862">
        <ele>590.215</ele>
        <time>2018-03-31T15:01:34Z</time>
      </trkpt>
      <trkpt lat="36.795027" lon="-4.952833">
        <ele>589.727</ele>
        <time>2018-03-31T15:01:35Z</time>
      </trkpt>
      <trkpt lat="36.794971" lon="-4.952801">
        <ele>589.468</ele>
        <time>2018-03-31T15:01:36Z</time>
      </trkpt>
      <trkpt lat="36.794917" lon="-4.952776">
        <ele>589.242</ele>
        <time>2018-03-31T15:01:37Z</time>
      </trkpt>
      <trkpt lat="36.794862" lon="-4.952742">
        <ele>588.926</ele>
        <time>2018-03-31T15:01:38Z</time>
      </trkpt>
      <trkpt lat="36.794807" lon="-4.952709">
        <ele>588.508</ele>
        <time>2018-03-31T15:01:39Z</time>
      </trkpt>
      <trkpt lat="36.794753" lon="-4.952677">
        <ele>588.148</ele>
        <time>2018-03-31T15:01:40Z</time>
      </trkpt>
      <trkpt lat="36.794706" lon="-4.952646">
        <ele>587.879</ele>
        <time>2018-03-31T15:01:41Z</time>
      </trkpt>
      <trkpt lat="36.794659" lon="-4.952612">
        <ele>587.532</ele>
        <time>2018-03-31T15:01:42Z</time>
      </trkpt>
      <trkpt lat="36.794609" lon="-4.952575">
        <ele>587.238</ele>
        <time>2018-03-31T15:01:43Z</time>
      </trkpt>
      <trkpt lat="36.794559" lon="-4.952541">
        <ele>586.997</ele>
        <time>2018-03-31T15:01:44Z</time>
      </trkpt>
      <trkpt lat="36.794515" lon="-4.952507">
        <ele>586.654</ele>
        <time>2018-03-31T15:01:45Z</time>
      </trkpt>
      <trkpt lat="36.794470" lon="-4.952465">
        <ele>586.326</ele>
        <time>2018-03-31T15:01:46Z</time>
      </trkpt>
      <trkpt lat="36.794426" lon="-4.952419">
        <ele>586.088</ele>
        <time>2018-03-31T15:01:47Z</time>
      </trkpt>
      <trkpt lat="36.794383" lon="-4.952373">
        <ele>585.663</ele>
        <time>2018-03-31T15:01:48Z</time>
      </trkpt>
      <trkpt lat="36.794334" lon="-4.952325">
        <ele>585.144</ele>
        <time>2018-03-31T15:01:49Z</time>
      </trkpt>
      <trkpt lat="36.794285" lon="-4.952280">
        <ele>584.518</ele>
        <time>2018-03-31T15:01:50Z</time>
      </trkpt>
      <trkpt lat="36.794240" lon="-4.952230">
        <ele>584.008</ele>
        <time>2018-03-31T15:01:51Z</time>
      </trkpt>
      <trkpt lat="36.794198" lon="-4.952183">
        <ele>583.578</ele>
        <time>2018-03-31T15:01:52Z</time>
      </trkpt>
      <trkpt lat="36.794155" lon="-4.952136">
        <ele>582.929</ele>
        <time>2018-03-31T15:01:53Z</time>
      </trkpt>
      <trkpt lat="36.794109" lon="-4.952089">
        <ele>582.412</ele>
        <time>2018-03-31T15:01:54Z</time>
      </trkpt>
      <trkpt lat="36.794065" lon="-4.952043">
        <ele>581.958</ele>
        <time>2018-03-31T15:01:55Z</time>
      </trkpt>
      <trkpt lat="36.794018" lon="-4.952002">
        <ele>581.567</ele>
        <time>2018-03-31T15:01:56Z</time>
      </trkpt>
      <trkpt lat="36.793969" lon="-4.951962">
        <ele>581.294</ele>
        <time>2018-03-31T15:01:57Z</time>
      </trkpt>
      <trkpt lat="36.793921" lon="-4.951916">
        <ele>580.926</ele>
        <time>2018-03-31T15:01:58Z</time>
      </trkpt>
      <trkpt lat="36.793868" lon="-4.951873">
        <ele>580.668</ele>
        <time>2018-03-31T15:01:59Z</time>
      </trkpt>
      <trkpt lat="36.793813" lon="-4.951830">
        <ele>576.848</ele>
        <time>2018-03-31T15:02:00Z</time>
      </trkpt>
      <trkpt lat="36.793753" lon="-4.951789">
        <ele>575.861</ele>
        <time>2018-03-31T15:02:01Z</time>
      </trkpt>
      <trkpt lat="36.793683" lon="-4.951749">
        <ele>575.217</ele>
        <time>2018-03-31T15:02:02Z</time>
      </trkpt>
      <trkpt lat="36.793617" lon="-4.951706">
        <ele>574.708</ele>
        <time>2018-03-31T15:02:03Z</time>
      </trkpt>
      <trkpt lat="36.793547" lon="-4.951670">
        <ele>574.316</ele>
        <time>2018-03-31T15:02:04Z</time>
      </trkpt>
      <trkpt lat="36.793477" lon="-4.951636">
        <ele>572.787</ele>
        <time>2018-03-31T15:02:05Z</time>
      </trkpt>
      <trkpt lat="36.793404" lon="-4.951598">
        <ele>572.630</ele>
        <time>2018-03-31T15:02:06Z</time>
      </trkpt>
      <trkpt lat="36.793332" lon="-4.951563">
        <ele>572.636</ele>
        <time>2018-03-31T15:02:07Z</time>
      </trkpt>
      <trkpt lat="36.793263" lon="-4.951524">
        <ele>572.315</ele>
        <time>2018-03-31T15:02:08Z</time>
      </trkpt>
      <trkpt lat="36.793191" lon="-4.951487">
        <ele>571.042</ele>
        <time>2018-03-31T15:02:09Z</time>
      </trkpt>
      <trkpt lat="36.793122" lon="-4.951447">
        <ele>569.584</ele>
        <time>2018-03-31T15:02:10Z</time>
      </trkpt>
      <trkpt lat="36.793056" lon="-4.951405">
        <ele>568.756</ele>
        <time>2018-03-31T15:02:11Z</time>
      </trkpt>
      <trkpt lat="36.792987" lon="-4.951360">
        <ele>568.047</ele>
        <time>2018-03-31T15:02:12Z</time>
      </trkpt>
      <trkpt lat="36.792920" lon="-4.951312">
        <ele>567.629</ele>
        <time>2018-03-31T15:02:13Z</time>
      </trkpt>
      <trkpt lat="36.792851" lon="-4.951262">
        <ele>567.421</ele>
        <time>2018-03-31T15:02:14Z</time>
      </trkpt>
      <trkpt lat="36.792782" lon="-4.951214">
        <ele>567.308</ele>
        <time>2018-03-31T15:02:15Z</time>
      </trkpt>
      <trkpt lat="36.792714" lon="-4.951162">
        <ele>567.276</ele>
        <time>2018-03-31T15:02:16Z</time>
      </trkpt>
      <trkpt lat="36.792643" lon="-4.951113">
        <ele>567.157</ele>
        <time>2018-03-31T15:02:17Z</time>
      </trkpt>
      <trkpt lat="36.792571" lon="-4.951058">
        <ele>567.070</ele>
        <time>2018-03-31T15:02:18Z</time>
      </trkpt>
      <trkpt lat="36.792503" lon="-4.951000">
        <ele>567.096</ele>
        <time>2018-03-31T15:02:19Z</time>
      </trkpt>
      <trkpt lat="36.792442" lon="-4.950944">
        <ele>566.915</ele>
        <time>2018-03-31T15:02:20Z</time>
      </trkpt>
      <trkpt lat="36.792377" lon="-4.950892">
        <ele>566.662</ele>
        <time>2018-03-31T15:02:21Z</time>
      </trkpt>
      <trkpt lat="36.792310" lon="-4.950835">
        <ele>566.144</ele>
        <time>2018-03-31T15:02:22Z</time>
      </trkpt>
      <trkpt lat="36.792251" lon="-4.950776">
        <ele>565.516</ele>
        <time>2018-03-31T15:02:23Z</time>
      </trkpt>
      <trkpt lat="36.792190" lon="-4.950721">
        <ele>564.839</ele>
        <time>2018-03-31T15:02:24Z</time>
      </trkpt>
      <trkpt lat="36.792140" lon="-4.950665">
        <ele>564.101</ele>
        <time>2018-03-31T15:02:25Z</time>
      </trkpt>
      <trkpt lat="36.792089" lon="-4.950615">
        <ele>563.521</ele>
        <time>2018-03-31T15:02:26Z</time>
      </trkpt>
      <trkpt lat="36.792040" lon="-4.950564">
        <ele>563.008</ele>
        <time>2018-03-31T15:02:27Z</time>
      </trkpt>
      <trkpt lat="36.791994" lon="-4.950509">
        <ele>562.625</ele>
        <time>2018-03-31T15:02:28Z</time>
      </trkpt>
      <trkpt lat="36.791948" lon="-4.950449">
        <ele>562.336</ele>
        <time>2018-03-31T15:02:29Z</time>
      </trkpt>
      <trkpt lat="36.791897" lon="-4.950394">
        <ele>562.099</ele>
        <time>2018-03-31T15:02:30Z</time>
      </trkpt>
      <trkpt lat="36.791851" lon="-4.950339">
        <ele>561.885</ele>
        <time>2018-03-31T15:02:31Z</time>
      </trkpt>
      <trkpt lat="36.791803" lon="-4.950285">
        <ele>561.684</ele>
        <time>2018-03-31T15:02:32Z</time>
      </trkpt>
      <trkpt lat="36.791752" lon="-4.950224">
        <ele>561.581</ele>
        <time>2018-03-31T15:02:33Z</time>
      </trkpt>
      <trkpt lat="36.791702" lon="-4.950165">
        <ele>561.493</ele>
        <time>2018-03-31T15:02:34Z</time>
      </trkpt>
      <trkpt lat="36.791653" lon="-4.950115">
        <ele>561.395</ele>
        <time>2018-03-31T15:02:35Z</time>
      </trkpt>
      <trkpt lat="36.791602" lon="-4.950073">
        <ele>561.243</ele>
        <time>2018-03-31T15:02:36Z</time>
      </trkpt>
      <trkpt lat="36.791548" lon="-4.950044">
        <ele>560.964</ele>
        <time>2018-03-31T15:02:37Z</time>
      </trkpt>
      <trkpt lat="36.791502" lon="-4.950019">
        <ele>560.510</ele>
        <time>2018-03-31T15:02:38Z</time>
      </trkpt>
      <trkpt lat="36.791425" lon="-4.949977">
        <ele>559.808</ele>
        <time>2018-03-31T15:02:40Z</time>
      </trkpt>
      <trkpt lat="36.791360" lon="-4.949932">
        <ele>558.216</ele>
        <time>2018-03-31T15:02:42Z</time>
      </trkpt>
      <trkpt lat="36.791298" lon="-4.949907">
        <ele>557.267</ele>
        <time>2018-03-31T15:02:44Z</time>
      </trkpt>
      <trkpt lat="36.791246" lon="-4.949872">
        <ele>556.560</ele>
        <time>2018-03-31T15:02:46Z</time>
      </trkpt>
      <trkpt lat="36.791195" lon="-4.949851">
        <ele>556.066</ele>
        <time>2018-03-31T15:02:48Z</time>
      </trkpt>
      <trkpt lat="36.791146" lon="-4.949823">
        <ele>555.775</ele>
        <time>2018-03-31T15:02:50Z</time>
      </trkpt>
      <trkpt lat="36.791078" lon="-4.949804">
        <ele>555.592</ele>
        <time>2018-03-31T15:02:52Z</time>
      </trkpt>
      <trkpt lat="36.791005" lon="-4.949779">
        <ele>555.414</ele>
        <time>2018-03-31T15:02:54Z</time>
      </trkpt>
      <trkpt lat="36.790945" lon="-4.949747">
        <ele>555.396</ele>
        <time>2018-03-31T15:02:56Z</time>
      </trkpt>
      <trkpt lat="36.790874" lon="-4.949716">
        <ele>555.289</ele>
        <time>2018-03-31T15:02:58Z</time>
      </trkpt>
      <trkpt lat="36.790807" lon="-4.949697">
        <ele>555.206</ele>
        <time>2018-03-31T15:03:00Z</time>
      </trkpt>
      <trkpt lat="36.790761" lon="-4.949700">
        <ele>555.226</ele>
        <time>2018-03-31T15:03:02Z</time>
      </trkpt>
      <trkpt lat="36.790741" lon="-4.949752">
        <ele>555.208</ele>
        <time>2018-03-31T15:03:04Z</time>
      </trkpt>
      <trkpt lat="36.790740" lon="-4.949852">
        <ele>555.270</ele>
        <time>2018-03-31T15:03:06Z</time>
      </trkpt>
      <trkpt lat="36.790736" lon="-4.949968">
        <ele>555.291</ele>
        <time>2018-03-31T15:03:08Z</time>
      </trkpt>
      <trkpt lat="36.790746" lon="-4.950027">
        <ele>555.264</ele>
        <time>2018-03-31T15:03:09Z</time>
      </trkpt>
      <trkpt lat="36.790753" lon="-4.950110">
        <ele>555.280</ele>
        <time>2018-03-31T15:03:11Z</time>
      </trkpt>
      <trkpt lat="36.790745" lon="-4.950219">
        <ele>555.249</ele>
        <time>2018-03-31T15:03:13Z</time>
      </trkpt>
      <trkpt lat="36.790745" lon="-4.950314">
        <ele>555.216</ele>
        <time>2018-03-31T15:03:15Z</time>
      </trkpt>
      <trkpt lat="36.790749" lon="-4.950382">
        <ele>555.298</ele>
        <time>2018-03-31T15:03:17Z</time>
      </trkpt>
      <trkpt lat="36.790777" lon="-4.950431">
        <ele>555.280</ele>
        <time>2018-03-31T15:03:20Z</time>
      </trkpt>
      <trkpt lat="36.790764" lon="-4.950374">
        <ele>555.286</ele>
        <time>2018-03-31T15:03:27Z</time>
      </trkpt>
      <trkpt lat="36.790790" lon="-4.950320">
        <ele>555.260</ele>
        <time>2018-03-31T15:03:35Z</time>
      </trkpt>
      <trkpt lat="36.789517" lon="-4.949579">
        <ele>553.959</ele>
        <time>2011-06-05T08:09:16Z</time>
      </trkpt>
      <trkpt lat="36.789517" lon="-4.949579">
        <ele>553.903</ele>
        <time>2011-06-05T08:09:17Z</time>
      </trkpt>
      <trkpt lat="36.789511" lon="-4.949575">
        <ele>553.923</ele>
        <time>2011-06-05T08:09:18Z</time>
      </trkpt>
      <trkpt lat="36.789494" lon="-4.949570">
        <ele>554.107</ele>
        <time>2011-06-05T08:09:20Z</time>
      </trkpt>
      <trkpt lat="36.789367" lon="-4.949518">
        <ele>553.896</ele>
        <time>2011-06-05T08:09:25Z</time>
      </trkpt>
      <trkpt lat="36.789292" lon="-4.949491">
        <ele>553.132</ele>
        <time>2011-06-05T08:09:27Z</time>
      </trkpt>
      <trkpt lat="36.789153" lon="-4.949492">
        <ele>553.180</ele>
        <time>2011-06-05T08:09:30Z</time>
      </trkpt>
      <trkpt lat="36.788869" lon="-4.949429">
        <ele>553.555</ele>
        <time>2011-06-05T08:09:36Z</time>
      </trkpt>
      <trkpt lat="36.788526" lon="-4.949297">
        <ele>552.386</ele>
        <time>2011-06-05T08:09:44Z</time>
      </trkpt>
      <trkpt lat="36.788172" lon="-4.949149">
        <ele>553.126</ele>
        <time>2011-06-05T08:09:53Z</time>
      </trkpt>
      <trkpt lat="36.787990" lon="-4.949031">
        <ele>554.482</ele>
        <time>2011-06-05T08:10:00Z</time>
      </trkpt>
      <trkpt lat="36.787856" lon="-4.948824">
        <ele>556.249</ele>
        <time>2011-06-05T08:10:08Z</time>
      </trkpt>
      <trkpt lat="36.787721" lon="-4.948508">
        <ele>557.702</ele>
        <time>2011-06-05T08:10:19Z</time>
      </trkpt>
      <trkpt lat="36.787683" lon="-4.948405">
        <ele>559.122</ele>
        <time>2011-06-05T08:10:23Z</time>
      </trkpt>
      <trkpt lat="36.787566" lon="-4.948127">
        <ele>560.407</ele>
        <time>2011-06-05T08:10:34Z</time>
      </trkpt>
      <trkpt lat="36.787438" lon="-4.947845">
        <ele>562.495</ele>
        <time>2011-06-05T08:10:45Z</time>
      </trkpt>
      <trkpt lat="36.787301" lon="-4.947580">
        <ele>564.161</ele>
        <time>2011-06-05T08:10:56Z</time>
      </trkpt>
      <trkpt lat="36.787160" lon="-4.947367">
        <ele>565.729</ele>
        <time>2011-06-05T08:11:06Z</time>
      </trkpt>
      <trkpt lat="36.786977" lon="-4.947145">
        <ele>567.024</ele>
        <time>2011-06-05T08:11:17Z</time>
      </trkpt>
      <trkpt lat="36.786836" lon="-4.946994">
        <ele>567.055</ele>
        <time>2011-06-05T08:11:25Z</time>
      </trkpt>
      <trkpt lat="36.786696" lon="-4.946853">
        <ele>566.415</ele>
        <time>2011-06-05T08:11:32Z</time>
      </trkpt>
      <trkpt lat="36.786437" lon="-4.946601">
        <ele>567.541</ele>
        <time>2011-06-05T08:11:43Z</time>
      </trkpt>
      <trkpt lat="36.786205" lon="-4.946372">
        <ele>568.583</ele>
        <time>2011-06-05T08:11:54Z</time>
      </trkpt>
      <trkpt lat="36.786069" lon="-4.946235">
        <ele>568.425</ele>
        <time>2011-06-05T08:12:02Z</time>
      </trkpt>
      <trkpt lat="36.785876" lon="-4.946047">
        <ele>571.417</ele>
        <time>2011-06-05T08:12:13Z</time>
      </trkpt>
      <trkpt lat="36.785710" lon="-4.945879">
        <ele>573.507</ele>
        <time>2011-06-05T08:12:23Z</time>
      </trkpt>
      <trkpt lat="36.785501" lon="-4.945667">
        <ele>576.699</ele>
        <time>2011-06-05T08:12:36Z</time>
      </trkpt>
      <trkpt lat="36.785485" lon="-4.945652">
        <ele>576.815</ele>
        <time>2011-06-05T08:12:37Z</time>
      </trkpt>
      <trkpt lat="36.785297" lon="-4.945465">
        <ele>579.383</ele>
        <time>2011-06-05T08:12:49Z</time>
      </trkpt>
      <trkpt lat="36.785152" lon="-4.945331">
        <ele>580.548</ele>
        <time>2011-06-05T08:12:58Z</time>
      </trkpt>
      <trkpt lat="36.784985" lon="-4.945216">
        <ele>580.719</ele>
        <time>2011-06-05T08:13:07Z</time>
      </trkpt>
      <trkpt lat="36.784802" lon="-4.945165">
        <ele>581.889</ele>
        <time>2011-06-05T08:13:16Z</time>
      </trkpt>
      <trkpt lat="36.784603" lon="-4.945135">
        <ele>581.655</ele>
        <time>2011-06-05T08:13:25Z</time>
      </trkpt>
      <trkpt lat="36.784419" lon="-4.945021">
        <ele>581.915</ele>
        <time>2011-06-05T08:13:34Z</time>
      </trkpt>
      <trkpt lat="36.784282" lon="-4.944842">
        <ele>582.765</ele>
        <time>2011-06-05T08:13:43Z</time>
      </trkpt>
      <trkpt lat="36.784166" lon="-4.944645">
        <ele>584.011</ele>
        <time>2011-06-05T08:13:53Z</time>
      </trkpt>
      <trkpt lat="36.784075" lon="-4.944482">
        <ele>584.807</ele>
        <time>2011-06-05T08:14:02Z</time>
      </trkpt>
      <trkpt lat="36.783983" lon="-4.944298">
        <ele>586.242</ele>
        <time>2011-06-05T08:14:12Z</time>
      </trkpt>
      <trkpt lat="36.783919" lon="-4.944115">
        <ele>587.218</ele>
        <time>2011-06-05T08:14:21Z</time>
      </trkpt>
      <trkpt lat="36.783877" lon="-4.943888">
        <ele>588.676</ele>
        <time>2011-06-05T08:14:31Z</time>
      </trkpt>
      <trkpt lat="36.783840" lon="-4.943715">
        <ele>590.781</ele>
        <time>2011-06-05T08:14:39Z</time>
      </trkpt>
      <trkpt lat="36.783832" lon="-4.943672">
        <ele>591.832</ele>
        <time>2011-06-05T08:14:41Z</time>
      </trkpt>
      <trkpt lat="36.783783" lon="-4.943418">
        <ele>593.372</ele>
        <time>2011-06-05T08:14:53Z</time>
      </trkpt>
      <trkpt lat="36.783762" lon="-4.943204">
        <ele>594.948</ele>
        <time>2011-06-05T08:15:03Z</time>
      </trkpt>
      <trkpt lat="36.783793" lon="-4.942982">
        <ele>595.761</ele>
        <time>2011-06-05T08:15:13Z</time>
      </trkpt>
      <trkpt lat="36.783815" lon="-4.942739">
        <ele>595.721</ele>
        <time>2011-06-05T08:15:24Z</time>
      </trkpt>
      <trkpt lat="36.783802" lon="-4.942500">
        <ele>597.913</ele>
        <time>2011-06-05T08:15:35Z</time>
      </trkpt>
      <trkpt lat="36.783759" lon="-4.942317">
        <ele>599.907</ele>
        <time>2011-06-05T08:15:44Z</time>
      </trkpt>
      <trkpt lat="36.783678" lon="-4.942124">
        <ele>602.047</ele>
        <time>2011-06-05T08:15:54Z</time>
      </trkpt>
      <trkpt lat="36.783602" lon="-4.941957">
        <ele>603.183</ele>
        <time>2011-06-05T08:16:03Z</time>
      </trkpt>
      <trkpt lat="36.783483" lon="-4.941771">
        <ele>603.471</ele>
        <time>2011-06-05T08:16:14Z</time>
      </trkpt>
      <trkpt lat="36.783339" lon="-4.941619">
        <ele>604.916</ele>
        <time>2011-06-05T08:16:24Z</time>
      </trkpt>
      <trkpt lat="36.783165" lon="-4.941519">
        <ele>606.447</ele>
        <time>2011-06-05T08:16:32Z</time>
      </trkpt>
      <trkpt lat="36.782940" lon="-4.941428">
        <ele>605.917</ele>
        <time>2011-06-05T08:16:39Z</time>
      </trkpt>
      <trkpt lat="36.782553" lon="-4.941277">
        <ele>605.553</ele>
        <time>2011-06-05T08:16:49Z</time>
      </trkpt>
      <trkpt lat="36.782083" lon="-4.941073">
        <ele>606.363</ele>
        <time>2011-06-05T08:17:01Z</time>
      </trkpt>
      <trkpt lat="36.781773" lon="-4.940855">
        <ele>604.344</ele>
        <time>2011-06-05T08:17:09Z</time>
      </trkpt>
      <trkpt lat="36.781452" lon="-4.940607">
        <ele>603.218</ele>
        <time>2011-06-05T08:17:15Z</time>
      </trkpt>
      <trkpt lat="36.781253" lon="-4.940452">
        <ele>601.607</ele>
        <time>2011-06-05T08:17:18Z</time>
      </trkpt>
      <trkpt lat="36.780937" lon="-4.940357">
        <ele>600.717</ele>
        <time>2011-06-05T08:17:22Z</time>
      </trkpt>
      <trkpt lat="36.780779" lon="-4.940421">
        <ele>599.733</ele>
        <time>2011-06-05T08:17:24Z</time>
      </trkpt>
      <trkpt lat="36.780474" lon="-4.940609">
        <ele>596.751</ele>
        <time>2011-06-05T08:17:28Z</time>
      </trkpt>
      <trkpt lat="36.780141" lon="-4.940626">
        <ele>595.016</ele>
        <time>2011-06-05T08:17:32Z</time>
      </trkpt>
      <trkpt lat="36.780062" lon="-4.940577">
        <ele>594.877</ele>
        <time>2011-06-05T08:17:33Z</time>
      </trkpt>
      <trkpt lat="36.779986" lon="-4.940514">
        <ele>593.897</ele>
        <time>2011-06-05T08:17:34Z</time>
      </trkpt>
      <trkpt lat="36.779755" lon="-4.940312">
        <ele>591.713</ele>
        <time>2011-06-05T08:17:37Z</time>
      </trkpt>
      <trkpt lat="36.779484" lon="-4.940215">
        <ele>589.675</ele>
        <time>2011-06-05T08:17:40Z</time>
      </trkpt>
      <trkpt lat="36.779275" lon="-4.940336">
        <ele>587.228</ele>
        <time>2011-06-05T08:17:42Z</time>
      </trkpt>
      <trkpt lat="36.778974" lon="-4.940540">
        <ele>584.520</ele>
        <time>2011-06-05T08:17:45Z</time>
      </trkpt>
      <trkpt lat="36.778862" lon="-4.940570">
        <ele>584.507</ele>
        <time>2011-06-05T08:17:46Z</time>
      </trkpt>
      <trkpt lat="36.778750" lon="-4.940589">
        <ele>583.398</ele>
        <time>2011-06-05T08:17:47Z</time>
      </trkpt>
      <trkpt lat="36.778126" lon="-4.940677">
        <ele>577.714</ele>
        <time>2011-06-05T08:17:53Z</time>
      </trkpt>
      <trkpt lat="36.777956" lon="-4.940786">
        <ele>575.992</ele>
        <time>2011-06-05T08:17:57Z</time>
      </trkpt>
      <trkpt lat="36.777909" lon="-4.940842">
        <ele>575.387</ele>
        <time>2011-06-05T08:18:01Z</time>
      </trkpt>
      <trkpt lat="36.777907" lon="-4.940846">
        <ele>575.138</ele>
        <time>2011-06-05T08:18:02Z</time>
      </trkpt>
      <trkpt lat="36.777900" lon="-4.940874">
        <ele>577.948</ele>
        <time>2011-06-05T08:24:33Z</time>
      </trkpt>
      <trkpt lat="36.777836" lon="-4.940900">
        <ele>576.434</ele>
        <time>2011-06-05T08:24:40Z</time>
      </trkpt>
      <trkpt lat="36.777807" lon="-4.940924">
        <ele>577.386</ele>
        <time>2011-06-05T08:24:56Z</time>
      </trkpt>
      <trkpt lat="36.777792" lon="-4.940939">
        <ele>575.460</ele>
        <time>2011-06-05T08:24:57Z</time>
      </trkpt>
      <trkpt lat="36.777675" lon="-4.941082">
        <ele>576.126</ele>
        <time>2011-06-05T08:25:03Z</time>
      </trkpt>
      <trkpt lat="36.777623" lon="-4.941149">
        <ele>575.807</ele>
        <time>2011-06-05T08:25:05Z</time>
      </trkpt>
      <trkpt lat="36.777501" lon="-4.941349">
        <ele>576.449</ele>
        <time>2011-06-05T08:25:12Z</time>
      </trkpt>
      <trkpt lat="36.777376" lon="-4.941528">
        <ele>577.425</ele>
        <time>2011-06-05T08:25:19Z</time>
      </trkpt>
      <trkpt lat="36.777229" lon="-4.941757">
        <ele>576.973</ele>
        <time>2011-06-05T08:25:27Z</time>
      </trkpt>
      <trkpt lat="36.777114" lon="-4.941921">
        <ele>577.538</ele>
        <time>2011-06-05T08:25:33Z</time>
      </trkpt>
      <trkpt lat="36.776960" lon="-4.942124">
        <ele>578.369</ele>
        <time>2011-06-05T08:25:40Z</time>
      </trkpt>
      <trkpt lat="36.776775" lon="-4.942304">
        <ele>578.359</ele>
        <time>2011-06-05T08:25:46Z</time>
      </trkpt>
      <trkpt lat="36.776557" lon="-4.942399">
        <ele>578.275</ele>
        <time>2011-06-05T08:25:52Z</time>
      </trkpt>
      <trkpt lat="36.776311" lon="-4.942362">
        <ele>578.691</ele>
        <time>2011-06-05T08:25:59Z</time>
      </trkpt>
      <trkpt lat="36.776111" lon="-4.942241">
        <ele>578.581</ele>
        <time>2011-06-05T08:26:05Z</time>
      </trkpt>
      <trkpt lat="36.775836" lon="-4.942145">
        <ele>577.719</ele>
        <time>2011-06-05T08:26:12Z</time>
      </trkpt>
      <trkpt lat="36.775547" lon="-4.942150">
        <ele>578.207</ele>
        <time>2011-06-05T08:26:20Z</time>
      </trkpt>
      <trkpt lat="36.775318" lon="-4.942192">
        <ele>578.770</ele>
        <time>2011-06-05T08:26:27Z</time>
      </trkpt>
      <trkpt lat="36.775166" lon="-4.942323">
        <ele>578.826</ele>
        <time>2011-06-05T08:26:33Z</time>
      </trkpt>
      <trkpt lat="36.775059" lon="-4.942542">
        <ele>579.384</ele>
        <time>2011-06-05T08:26:39Z</time>
      </trkpt>
      <trkpt lat="36.775061" lon="-4.942791">
        <ele>580.099</ele>
        <time>2011-06-05T08:26:45Z</time>
      </trkpt>
      <trkpt lat="36.775141" lon="-4.943033">
        <ele>580.130</ele>
        <time>2011-06-05T08:26:51Z</time>
      </trkpt>
      <trkpt lat="36.775242" lon="-4.943270">
        <ele>580.570</ele>
        <time>2011-06-05T08:26:57Z</time>
      </trkpt>
      <trkpt lat="36.775341" lon="-4.943508">
        <ele>581.346</ele>
        <time>2011-06-05T08:27:03Z</time>
      </trkpt>
      <trkpt lat="36.775434" lon="-4.943752">
        <ele>581.352</ele>
        <time>2011-06-05T08:27:09Z</time>
      </trkpt>
      <trkpt lat="36.775577" lon="-4.944015">
        <ele>581.753</ele>
        <time>2011-06-05T08:27:16Z</time>
      </trkpt>
      <trkpt lat="36.775714" lon="-4.944129">
        <ele>582.108</ele>
        <time>2011-06-05T08:27:21Z</time>
      </trkpt>
      <trkpt lat="36.775865" lon="-4.944236">
        <ele>581.907</ele>
        <time>2011-06-05T08:27:26Z</time>
      </trkpt>
      <trkpt lat="36.776045" lon="-4.944400">
        <ele>582.656</ele>
        <time>2011-06-05T08:27:32Z</time>
      </trkpt>
      <trkpt lat="36.776130" lon="-4.944561">
        <ele>583.062</ele>
        <time>2011-06-05T08:27:37Z</time>
      </trkpt>
      <trkpt lat="36.776267" lon="-4.944821">
        <ele>584.030</ele>
        <time>2011-06-05T08:27:44Z</time>
      </trkpt>
      <trkpt lat="36.776390" lon="-4.945096">
        <ele>584.385</ele>
        <time>2011-06-05T08:27:51Z</time>
      </trkpt>
      <trkpt lat="36.776467" lon="-4.945442">
        <ele>585.246</ele>
        <time>2011-06-05T08:27:59Z</time>
      </trkpt>
      <trkpt lat="36.776544" lon="-4.945750">
        <ele>585.896</ele>
        <time>2011-06-05T08:28:06Z</time>
      </trkpt>
      <trkpt lat="36.776638" lon="-4.946048">
        <ele>586.942</ele>
        <time>2011-06-05T08:28:13Z</time>
      </trkpt>
      <trkpt lat="36.776713" lon="-4.946354">
        <ele>586.295</ele>
        <time>2011-06-05T08:28:20Z</time>
      </trkpt>
      <trkpt lat="36.776739" lon="-4.946695">
        <ele>585.949</ele>
        <time>2011-06-05T08:28:28Z</time>
      </trkpt>
      <trkpt lat="36.776691" lon="-4.946970">
        <ele>586.623</ele>
        <time>2011-06-05T08:28:35Z</time>
      </trkpt>
      <trkpt lat="36.776630" lon="-4.947197">
        <ele>586.707</ele>
        <time>2011-06-05T08:28:40Z</time>
      </trkpt>
      <trkpt lat="36.776545" lon="-4.947507">
        <ele>586.420</ele>
        <time>2011-06-05T08:28:46Z</time>
      </trkpt>
      <trkpt lat="36.776512" lon="-4.947788">
        <ele>586.856</ele>
        <time>2011-06-05T08:28:52Z</time>
      </trkpt>
      <trkpt lat="36.776524" lon="-4.948089">
        <ele>587.854</ele>
        <time>2011-06-05T08:28:59Z</time>
      </trkpt>
      <trkpt lat="36.776544" lon="-4.948259">
        <ele>587.829</ele>
        <time>2011-06-05T08:29:03Z</time>
      </trkpt>
      <trkpt lat="36.776544" lon="-4.948522">
        <ele>587.390</ele>
        <time>2011-06-05T08:29:09Z</time>
      </trkpt>
      <trkpt lat="36.776467" lon="-4.948757">
        <ele>587.550</ele>
        <time>2011-06-05T08:29:15Z</time>
      </trkpt>
      <trkpt lat="36.776314" lon="-4.948893">
        <ele>587.686</ele>
        <time>2011-06-05T08:29:20Z</time>
      </trkpt>
      <trkpt lat="36.776191" lon="-4.948910">
        <ele>588.079</ele>
        <time>2011-06-05T08:29:24Z</time>
      </trkpt>
      <trkpt lat="36.776038" lon="-4.948903">
        <ele>588.205</ele>
        <time>2011-06-05T08:29:29Z</time>
      </trkpt>
      <trkpt lat="36.775782" lon="-4.948985">
        <ele>588.825</ele>
        <time>2011-06-05T08:29:36Z</time>
      </trkpt>
      <trkpt lat="36.775636" lon="-4.949092">
        <ele>589.407</ele>
        <time>2011-06-05T08:29:41Z</time>
      </trkpt>
      <trkpt lat="36.775548" lon="-4.949278">
        <ele>589.828</ele>
        <time>2011-06-05T08:29:46Z</time>
      </trkpt>
      <trkpt lat="36.775541" lon="-4.949488">
        <ele>589.864</ele>
        <time>2011-06-05T08:29:51Z</time>
      </trkpt>
      <trkpt lat="36.775452" lon="-4.949734">
        <ele>590.512</ele>
        <time>2011-06-05T08:29:56Z</time>
      </trkpt>
      <trkpt lat="36.775376" lon="-4.949958">
        <ele>591.947</ele>
        <time>2011-06-05T08:30:01Z</time>
      </trkpt>
      <trkpt lat="36.775259" lon="-4.950189">
        <ele>591.788</ele>
        <time>2011-06-05T08:30:08Z</time>
      </trkpt>
      <trkpt lat="36.775135" lon="-4.950323">
        <ele>593.378</ele>
        <time>2011-06-05T08:30:14Z</time>
      </trkpt>
      <trkpt lat="36.774996" lon="-4.950375">
        <ele>593.894</ele>
        <time>2011-06-05T08:30:19Z</time>
      </trkpt>
      <trkpt lat="36.774770" lon="-4.950399">
        <ele>594.586</ele>
        <time>2011-06-05T08:30:26Z</time>
      </trkpt>
      <trkpt lat="36.774515" lon="-4.950406">
        <ele>596.360</ele>
        <time>2011-06-05T08:30:34Z</time>
      </trkpt>
      <trkpt lat="36.774408" lon="-4.950413">
        <ele>595.826</ele>
        <time>2011-06-05T08:30:38Z</time>
      </trkpt>
      <trkpt lat="36.774253" lon="-4.950459">
        <ele>596.007</ele>
        <time>2011-06-05T08:30:43Z</time>
      </trkpt>
      <trkpt lat="36.774157" lon="-4.950578">
        <ele>594.349</ele>
        <time>2011-06-05T08:30:47Z</time>
      </trkpt>
      <trkpt lat="36.774131" lon="-4.950752">
        <ele>595.215</ele>
        <time>2011-06-05T08:30:51Z</time>
      </trkpt>
      <trkpt lat="36.774095" lon="-4.950931">
        <ele>594.763</ele>
        <time>2011-06-05T08:30:56Z</time>
      </trkpt>
      <trkpt lat="36.774126" lon="-4.951070">
        <ele>595.258</ele>
        <time>2011-06-05T08:31:00Z</time>
      </trkpt>
      <trkpt lat="36.774255" lon="-4.951202">
        <ele>595.799</ele>
        <time>2011-06-05T08:31:05Z</time>
      </trkpt>
      <trkpt lat="36.774398" lon="-4.951273">
        <ele>595.679</ele>
        <time>2011-06-05T08:31:10Z</time>
      </trkpt>
      <trkpt lat="36.774600" lon="-4.951364">
        <ele>595.555</ele>
        <time>2011-06-05T08:31:16Z</time>
      </trkpt>
      <trkpt lat="36.774732" lon="-4.951439">
        <ele>596.492</ele>
        <time>2011-06-05T08:31:21Z</time>
      </trkpt>
      <trkpt lat="36.774880" lon="-4.951548">
        <ele>597.373</ele>
        <time>2011-06-05T08:31:27Z</time>
      </trkpt>
      <trkpt lat="36.775051" lon="-4.951701">
        <ele>597.320</ele>
        <time>2011-06-05T08:31:33Z</time>
      </trkpt>
      <trkpt lat="36.775161" lon="-4.951816">
        <ele>597.907</ele>
        <time>2011-06-05T08:31:38Z</time>
      </trkpt>
      <trkpt lat="36.775341" lon="-4.952017">
        <ele>597.810</ele>
        <time>2011-06-05T08:31:45Z</time>
      </trkpt>
      <trkpt lat="36.775481" lon="-4.952178">
        <ele>598.566</ele>
        <time>2011-06-05T08:31:51Z</time>
      </trkpt>
      <trkpt lat="36.775585" lon="-4.952389">
        <ele>598.484</ele>
        <time>2011-06-05T08:31:57Z</time>
      </trkpt>
      <trkpt lat="36.775533" lon="-4.952549">
        <ele>598.179</ele>
        <time>2011-06-05T08:32:01Z</time>
      </trkpt>
      <trkpt lat="36.775383" lon="-4.952641">
        <ele>598.690</ele>
        <time>2011-06-05T08:32:06Z</time>
      </trkpt>
      <trkpt lat="36.775186" lon="-4.952626">
        <ele>598.990</ele>
        <time>2011-06-05T08:32:12Z</time>
      </trkpt>
      <trkpt lat="36.775028" lon="-4.952596">
        <ele>600.416</ele>
        <time>2011-06-05T08:32:17Z</time>
      </trkpt>
      <trkpt lat="36.774993" lon="-4.952589">
        <ele>600.363</ele>
        <time>2011-06-05T08:32:18Z</time>
      </trkpt>
      <trkpt lat="36.774762" lon="-4.952545">
        <ele>601.544</ele>
        <time>2011-06-05T08:32:25Z</time>
      </trkpt>
      <trkpt lat="36.774548" lon="-4.952526">
        <ele>601.118</ele>
        <time>2011-06-05T08:32:32Z</time>
      </trkpt>
      <trkpt lat="36.774338" lon="-4.952574">
        <ele>601.707</ele>
        <time>2011-06-05T08:32:39Z</time>
      </trkpt>
      <trkpt lat="36.774242" lon="-4.952740">
        <ele>601.457</ele>
        <time>2011-06-05T08:32:44Z</time>
      </trkpt>
      <trkpt lat="36.774145" lon="-4.952904">
        <ele>602.033</ele>
        <time>2011-06-05T08:32:50Z</time>
      </trkpt>
      <trkpt lat="36.774067" lon="-4.953061">
        <ele>602.781</ele>
        <time>2011-06-05T08:32:55Z</time>
      </trkpt>
      <trkpt lat="36.774086" lon="-4.953228">
        <ele>602.976</ele>
        <time>2011-06-05T08:33:00Z</time>
      </trkpt>
      <trkpt lat="36.774174" lon="-4.953347">
        <ele>603.247</ele>
        <time>2011-06-05T08:33:05Z</time>
      </trkpt>
      <trkpt lat="36.774281" lon="-4.953384">
        <ele>604.177</ele>
        <time>2011-06-05T08:33:08Z</time>
      </trkpt>
      <trkpt lat="36.774582" lon="-4.953469">
        <ele>605.873</ele>
        <time>2011-06-05T08:33:15Z</time>
      </trkpt>
      <trkpt lat="36.774706" lon="-4.953534">
        <ele>605.363</ele>
        <time>2011-06-05T08:33:18Z</time>
      </trkpt>
      <trkpt lat="36.775021" lon="-4.953853">
        <ele>605.944</ele>
        <time>2011-06-05T08:33:27Z</time>
      </trkpt>
      <trkpt lat="36.775044" lon="-4.953890">
        <ele>605.618</ele>
        <time>2011-06-05T08:33:28Z</time>
      </trkpt>
      <trkpt lat="36.775150" lon="-4.954112">
        <ele>606.707</ele>
        <time>2011-06-05T08:33:33Z</time>
      </trkpt>
      <trkpt lat="36.775135" lon="-4.954350">
        <ele>606.437</ele>
        <time>2011-06-05T08:33:38Z</time>
      </trkpt>
      <trkpt lat="36.774997" lon="-4.954537">
        <ele>607.613</ele>
        <time>2011-06-05T08:33:43Z</time>
      </trkpt>
      <trkpt lat="36.774925" lon="-4.954580">
        <ele>608.661</ele>
        <time>2011-06-05T08:33:45Z</time>
      </trkpt>
      <trkpt lat="36.774818" lon="-4.954625">
        <ele>608.786</ele>
        <time>2011-06-05T08:33:48Z</time>
      </trkpt>
      <trkpt lat="36.774579" lon="-4.954688">
        <ele>609.867</ele>
        <time>2011-06-05T08:33:54Z</time>
      </trkpt>
      <trkpt lat="36.774419" lon="-4.954857">
        <ele>608.567</ele>
        <time>2011-06-05T08:34:00Z</time>
      </trkpt>
      <trkpt lat="36.774384" lon="-4.954900">
        <ele>609.013</ele>
        <time>2011-06-05T08:34:04Z</time>
      </trkpt>
      <trkpt lat="36.774372" lon="-4.954898">
        <ele>609.182</ele>
        <time>2011-06-05T08:34:18Z</time>
      </trkpt>
      <trkpt lat="36.774345" lon="-4.955022">
        <ele>610.443</ele>
        <time>2011-06-05T08:41:48Z</time>
      </trkpt>
      <trkpt lat="36.774296" lon="-4.955164">
        <ele>609.517</ele>
        <time>2011-06-05T08:41:53Z</time>
      </trkpt>
      <trkpt lat="36.774260" lon="-4.955382">
        <ele>610.007</ele>
        <time>2011-06-05T08:41:58Z</time>
      </trkpt>
      <trkpt lat="36.774257" lon="-4.955537">
        <ele>609.679</ele>
        <time>2011-06-05T08:42:01Z</time>
      </trkpt>
      <trkpt lat="36.774335" lon="-4.955890">
        <ele>608.745</ele>
        <time>2011-06-05T08:42:08Z</time>
      </trkpt>
      <trkpt lat="36.774416" lon="-4.956089">
        <ele>609.243</ele>
        <time>2011-06-05T08:42:13Z</time>
      </trkpt>
      <trkpt lat="36.774433" lon="-4.956130">
        <ele>609.458</ele>
        <time>2011-06-05T08:42:14Z</time>
      </trkpt>
      <trkpt lat="36.774447" lon="-4.956320">
        <ele>609.979</ele>
        <time>2011-06-05T08:42:19Z</time>
      </trkpt>
      <trkpt lat="36.774371" lon="-4.956540">
        <ele>610.679</ele>
        <time>2011-06-05T08:42:24Z</time>
      </trkpt>
      <trkpt lat="36.774265" lon="-4.956808">
        <ele>611.325</ele>
        <time>2011-06-05T08:42:30Z</time>
      </trkpt>
      <trkpt lat="36.774275" lon="-4.957059">
        <ele>611.768</ele>
        <time>2011-06-05T08:42:36Z</time>
      </trkpt>
      <trkpt lat="36.774357" lon="-4.957258">
        <ele>612.142</ele>
        <time>2011-06-05T08:42:41Z</time>
      </trkpt>
      <trkpt lat="36.774440" lon="-4.957476">
        <ele>612.226</ele>
        <time>2011-06-05T08:42:46Z</time>
      </trkpt>
      <trkpt lat="36.774522" lon="-4.957855">
        <ele>613.507</ele>
        <time>2011-06-05T08:42:54Z</time>
      </trkpt>
      <trkpt lat="36.774548" lon="-4.958086">
        <ele>613.097</ele>
        <time>2011-06-05T08:42:59Z</time>
      </trkpt>
      <trkpt lat="36.774548" lon="-4.958379">
        <ele>613.453</ele>
        <time>2011-06-05T08:43:06Z</time>
      </trkpt>
      <trkpt lat="36.774545" lon="-4.958581">
        <ele>614.741</ele>
        <time>2011-06-05T08:43:11Z</time>
      </trkpt>
      <trkpt lat="36.774441" lon="-4.958857">
        <ele>615.176</ele>
        <time>2011-06-05T08:43:17Z</time>
      </trkpt>
      <trkpt lat="36.774277" lon="-4.959165">
        <ele>616.987</ele>
        <time>2011-06-05T08:43:25Z</time>
      </trkpt>
      <trkpt lat="36.774185" lon="-4.959441">
        <ele>617.657</ele>
        <time>2011-06-05T08:43:32Z</time>
      </trkpt>
      <trkpt lat="36.774096" lon="-4.959773">
        <ele>619.393</ele>
        <time>2011-06-05T08:43:41Z</time>
      </trkpt>
      <trkpt lat="36.774039" lon="-4.960032">
        <ele>621.111</ele>
        <time>2011-06-05T08:43:48Z</time>
      </trkpt>
      <trkpt lat="36.773982" lon="-4.960358">
        <ele>622.121</ele>
        <time>2011-06-05T08:43:57Z</time>
      </trkpt>
      <trkpt lat="36.773943" lon="-4.960764">
        <ele>623.703</ele>
        <time>2011-06-05T08:44:07Z</time>
      </trkpt>
      <trkpt lat="36.773935" lon="-4.961059">
        <ele>624.407</ele>
        <time>2011-06-05T08:44:14Z</time>
      </trkpt>
      <trkpt lat="36.773910" lon="-4.961482">
        <ele>623.122</ele>
        <time>2011-06-05T08:44:23Z</time>
      </trkpt>
      <trkpt lat="36.773870" lon="-4.961874">
        <ele>623.678</ele>
        <time>2011-06-05T08:44:31Z</time>
      </trkpt>
      <trkpt lat="36.773890" lon="-4.962231">
        <ele>623.276</ele>
        <time>2011-06-05T08:44:38Z</time>
      </trkpt>
      <trkpt lat="36.773918" lon="-4.962374">
        <ele>623.551</ele>
        <time>2011-06-05T08:44:41Z</time>
      </trkpt>
      <trkpt lat="36.773980" lon="-4.962616">
        <ele>623.542</ele>
        <time>2011-06-05T08:44:46Z</time>
      </trkpt>
      <trkpt lat="36.773981" lon="-4.962816">
        <ele>624.322</ele>
        <time>2011-06-05T08:44:50Z</time>
      </trkpt>
      <trkpt lat="36.773918" lon="-4.963246">
        <ele>624.518</ele>
        <time>2011-06-05T08:45:00Z</time>
      </trkpt>
      <trkpt lat="36.773908" lon="-4.963437">
        <ele>624.858</ele>
        <time>2011-06-05T08:45:04Z</time>
      </trkpt>
      <trkpt lat="36.773859" lon="-4.963917">
        <ele>625.952</ele>
        <time>2011-06-05T08:45:14Z</time>
      </trkpt>
      <trkpt lat="36.773842" lon="-4.964103">
        <ele>627.017</ele>
        <time>2011-06-05T08:45:18Z</time>
      </trkpt>
      <trkpt lat="36.773799" lon="-4.964346">
        <ele>627.407</ele>
        <time>2011-06-05T08:45:23Z</time>
      </trkpt>
      <trkpt lat="36.773756" lon="-4.964587">
        <ele>627.436</ele>
        <time>2011-06-05T08:45:28Z</time>
      </trkpt>
      <trkpt lat="36.773665" lon="-4.964839">
        <ele>628.442</ele>
        <time>2011-06-05T08:45:33Z</time>
      </trkpt>
      <trkpt lat="36.773594" lon="-4.965041">
        <ele>627.630</ele>
        <time>2011-06-05T08:45:37Z</time>
      </trkpt>
      <trkpt lat="36.773498" lon="-4.965306">
        <ele>627.125</ele>
        <time>2011-06-05T08:45:42Z</time>
      </trkpt>
      <trkpt lat="36.773454" lon="-4.965515">
        <ele>627.846</ele>
        <time>2011-06-05T08:45:46Z</time>
      </trkpt>
      <trkpt lat="36.773454" lon="-4.965846">
        <ele>627.826</ele>
        <time>2011-06-05T08:45:52Z</time>
      </trkpt>
      <trkpt lat="36.773579" lon="-4.966195">
        <ele>627.472</ele>
        <time>2011-06-05T08:45:58Z</time>
      </trkpt>
      <trkpt lat="36.773641" lon="-4.966307">
        <ele>627.722</ele>
        <time>2011-06-05T08:46:00Z</time>
      </trkpt>
      <trkpt lat="36.773702" lon="-4.966410">
        <ele>627.662</ele>
        <time>2011-06-05T08:46:02Z</time>
      </trkpt>
      <trkpt lat="36.773903" lon="-4.966675">
        <ele>627.408</ele>
        <time>2011-06-05T08:46:09Z</time>
      </trkpt>
      <trkpt lat="36.773944" lon="-4.966741">
        <ele>628.507</ele>
        <time>2011-06-05T08:46:11Z</time>
      </trkpt>
      <trkpt lat="36.773986" lon="-4.966807">
        <ele>627.863</ele>
        <time>2011-06-05T08:46:13Z</time>
      </trkpt>
      <trkpt lat="36.774031" lon="-4.967020">
        <ele>628.599</ele>
        <time>2011-06-05T08:46:18Z</time>
      </trkpt>
      <trkpt lat="36.774012" lon="-4.967247">
        <ele>630.077</ele>
        <time>2011-06-05T08:46:23Z</time>
      </trkpt>
      <trkpt lat="36.773938" lon="-4.967395">
        <ele>631.042</ele>
        <time>2011-06-05T08:46:26Z</time>
      </trkpt>
      <trkpt lat="36.773698" lon="-4.967553">
        <ele>631.023</ele>
        <time>2011-06-05T08:46:32Z</time>
      </trkpt>
      <trkpt lat="36.773519" lon="-4.967550">
        <ele>631.173</ele>
        <time>2011-06-05T08:46:36Z</time>
      </trkpt>
      <trkpt lat="36.773313" lon="-4.967554">
        <ele>631.569</ele>
        <time>2011-06-05T08:46:42Z</time>
      </trkpt>
      <trkpt lat="36.773150" lon="-4.967537">
        <ele>632.254</ele>
        <time>2011-06-05T08:46:47Z</time>
      </trkpt>
      <trkpt lat="36.773010" lon="-4.967506">
        <ele>632.156</ele>
        <time>2011-06-05T08:46:51Z</time>
      </trkpt>
      <trkpt lat="36.772801" lon="-4.967429">
        <ele>632.911</ele>
        <time>2011-06-05T08:46:58Z</time>
      </trkpt>
      <trkpt lat="36.772606" lon="-4.967397">
        <ele>635.107</ele>
        <time>2011-06-05T08:47:05Z</time>
      </trkpt>
      <trkpt lat="36.772438" lon="-4.967485">
        <ele>635.826</ele>
        <time>2011-06-05T08:47:11Z</time>
      </trkpt>
      <trkpt lat="36.772255" lon="-4.967682">
        <ele>636.372</ele>
        <time>2011-06-05T08:47:18Z</time>
      </trkpt>
      <trkpt lat="36.772100" lon="-4.967742">
        <ele>637.060</ele>
        <time>2011-06-05T08:47:23Z</time>
      </trkpt>
      <trkpt lat="36.771991" lon="-4.967723">
        <ele>636.635</ele>
        <time>2011-06-05T08:47:27Z</time>
      </trkpt>
      <trkpt lat="36.771827" lon="-4.967731">
        <ele>636.766</ele>
        <time>2011-06-05T08:47:32Z</time>
      </trkpt>
      <trkpt lat="36.771613" lon="-4.967738">
        <ele>637.326</ele>
        <time>2011-06-05T08:47:38Z</time>
      </trkpt>
      <trkpt lat="36.771428" lon="-4.967690">
        <ele>637.942</ele>
        <time>2011-06-05T08:47:44Z</time>
      </trkpt>
      <trkpt lat="36.771227" lon="-4.967580">
        <ele>638.915</ele>
        <time>2011-06-05T08:47:50Z</time>
      </trkpt>
      <trkpt lat="36.771059" lon="-4.967444">
        <ele>638.865</ele>
        <time>2011-06-05T08:47:56Z</time>
      </trkpt>
      <trkpt lat="36.770947" lon="-4.967383">
        <ele>639.611</ele>
        <time>2011-06-05T08:48:00Z</time>
      </trkpt>
      <trkpt lat="36.770769" lon="-4.967422">
        <ele>640.007</ele>
        <time>2011-06-05T08:48:06Z</time>
      </trkpt>
      <trkpt lat="36.770721" lon="-4.967483">
        <ele>640.092</ele>
        <time>2011-06-05T08:48:08Z</time>
      </trkpt>
      <trkpt lat="36.770601" lon="-4.967749">
        <ele>640.018</ele>
        <time>2011-06-05T08:48:15Z</time>
      </trkpt>
      <trkpt lat="36.770525" lon="-4.967988">
        <ele>641.066</ele>
        <time>2011-06-05T08:48:21Z</time>
      </trkpt>
      <trkpt lat="36.770484" lon="-4.968258">
        <ele>641.921</ele>
        <time>2011-06-05T08:48:28Z</time>
      </trkpt>
      <trkpt lat="36.770416" lon="-4.968574">
        <ele>641.992</ele>
        <time>2011-06-05T08:48:36Z</time>
      </trkpt>
      <trkpt lat="36.770328" lon="-4.968846">
        <ele>642.912</ele>
        <time>2011-06-05T08:48:43Z</time>
      </trkpt>
      <trkpt lat="36.770220" lon="-4.969106">
        <ele>644.328</ele>
        <time>2011-06-05T08:48:50Z</time>
      </trkpt>
      <trkpt lat="36.770103" lon="-4.969345">
        <ele>643.845</ele>
        <time>2011-06-05T08:48:56Z</time>
      </trkpt>
      <trkpt lat="36.769968" lon="-4.969504">
        <ele>643.947</ele>
        <time>2011-06-05T08:49:01Z</time>
      </trkpt>
      <trkpt lat="36.769843" lon="-4.969616">
        <ele>643.611</ele>
        <time>2011-06-05T08:49:05Z</time>
      </trkpt>
      <trkpt lat="36.769612" lon="-4.969819">
        <ele>644.207</ele>
        <time>2011-06-05T08:49:13Z</time>
      </trkpt>
      <trkpt lat="36.769462" lon="-4.969900">
        <ele>645.355</ele>
        <time>2011-06-05T08:49:18Z</time>
      </trkpt>
      <trkpt lat="36.769285" lon="-4.970057">
        <ele>645.241</ele>
        <time>2011-06-05T08:49:24Z</time>
      </trkpt>
      <trkpt lat="36.769076" lon="-4.970237">
        <ele>645.689</ele>
        <time>2011-06-05T08:49:31Z</time>
      </trkpt>
      <trkpt lat="36.768788" lon="-4.970361">
        <ele>645.774</ele>
        <time>2011-06-05T08:49:39Z</time>
      </trkpt>
      <trkpt lat="36.768747" lon="-4.970373">
        <ele>646.575</ele>
        <time>2011-06-05T08:49:40Z</time>
      </trkpt>
      <trkpt lat="36.768514" lon="-4.970374">
        <ele>647.155</ele>
        <time>2011-06-05T08:49:46Z</time>
      </trkpt>
      <trkpt lat="36.768158" lon="-4.970343">
        <ele>647.291</ele>
        <time>2011-06-05T08:49:55Z</time>
      </trkpt>
      <trkpt lat="36.767865" lon="-4.970316">
        <ele>648.245</ele>
        <time>2011-06-05T08:50:03Z</time>
      </trkpt>
      <trkpt lat="36.767619" lon="-4.970273">
        <ele>648.647</ele>
        <time>2011-06-05T08:50:09Z</time>
      </trkpt>
      <trkpt lat="36.767491" lon="-4.970245">
        <ele>648.611</ele>
        <time>2011-06-05T08:50:12Z</time>
      </trkpt>
      <trkpt lat="36.767121" lon="-4.970197">
        <ele>648.507</ele>
        <time>2011-06-05T08:50:21Z</time>
      </trkpt>
      <trkpt lat="36.766844" lon="-4.970129">
        <ele>648.985</ele>
        <time>2011-06-05T08:50:29Z</time>
      </trkpt>
      <trkpt lat="36.766686" lon="-4.970080">
        <ele>649.691</ele>
        <time>2011-06-05T08:50:35Z</time>
      </trkpt>
      <trkpt lat="36.766518" lon="-4.970121">
        <ele>650.239</ele>
        <time>2011-06-05T08:50:41Z</time>
      </trkpt>
      <trkpt lat="36.766313" lon="-4.970235">
        <ele>651.294</ele>
        <time>2011-06-05T08:50:48Z</time>
      </trkpt>
      <trkpt lat="36.766049" lon="-4.970380">
        <ele>651.775</ele>
        <time>2011-06-05T08:50:57Z</time>
      </trkpt>
      <trkpt lat="36.765877" lon="-4.970478">
        <ele>652.225</ele>
        <time>2011-06-05T08:51:03Z</time>
      </trkpt>
      <trkpt lat="36.765687" lon="-4.970639">
        <ele>653.091</ele>
        <time>2011-06-05T08:51:10Z</time>
      </trkpt>
      <trkpt lat="36.765608" lon="-4.970850">
        <ele>654.159</ele>
        <time>2011-06-05T08:51:16Z</time>
      </trkpt>
      <trkpt lat="36.765573" lon="-4.971114">
        <ele>655.003</ele>
        <time>2011-06-05T08:51:23Z</time>
      </trkpt>
      <trkpt lat="36.765503" lon="-4.971386">
        <ele>655.423</ele>
        <time>2011-06-05T08:51:30Z</time>
      </trkpt>
      <trkpt lat="36.765449" lon="-4.971555">
        <ele>654.707</ele>
        <time>2011-06-05T08:51:34Z</time>
      </trkpt>
      <trkpt lat="36.765363" lon="-4.971854">
        <ele>656.046</ele>
        <time>2011-06-05T08:51:41Z</time>
      </trkpt>
      <trkpt lat="36.765207" lon="-4.972153">
        <ele>656.062</ele>
        <time>2011-06-05T08:51:49Z</time>
      </trkpt>
      <trkpt lat="36.765041" lon="-4.972491">
        <ele>656.370</ele>
        <time>2011-06-05T08:51:58Z</time>
      </trkpt>
      <trkpt lat="36.764934" lon="-4.972827">
        <ele>657.175</ele>
        <time>2011-06-05T08:52:07Z</time>
      </trkpt>
      <trkpt lat="36.764880" lon="-4.973012">
        <ele>657.236</ele>
        <time>2011-06-05T08:52:12Z</time>
      </trkpt>
      <trkpt lat="36.764710" lon="-4.973275">
        <ele>658.446</ele>
        <time>2011-06-05T08:52:21Z</time>
      </trkpt>
      <trkpt lat="36.764588" lon="-4.973443">
        <ele>658.812</ele>
        <time>2011-06-05T08:52:27Z</time>
      </trkpt>
      <trkpt lat="36.764459" lon="-4.973648">
        <ele>659.453</ele>
        <time>2011-06-05T08:52:33Z</time>
      </trkpt>
      <trkpt lat="36.764385" lon="-4.973879">
        <ele>660.404</ele>
        <time>2011-06-05T08:52:39Z</time>
      </trkpt>
      <trkpt lat="36.764423" lon="-4.974049">
        <ele>660.114</ele>
        <time>2011-06-05T08:52:44Z</time>
      </trkpt>
      <trkpt lat="36.764530" lon="-4.974248">
        <ele>660.707</ele>
        <time>2011-06-05T08:52:50Z</time>
      </trkpt>
      <trkpt lat="36.764680" lon="-4.974511">
        <ele>661.386</ele>
        <time>2011-06-05T08:52:58Z</time>
      </trkpt>
      <trkpt lat="36.764832" lon="-4.974817">
        <ele>662.382</ele>
        <time>2011-06-05T08:53:07Z</time>
      </trkpt>
      <trkpt lat="36.764977" lon="-4.974957">
        <ele>662.930</ele>
        <time>2011-06-05T08:53:14Z</time>
      </trkpt>
      <trkpt lat="36.765187" lon="-4.975066">
        <ele>663.045</ele>
        <time>2011-06-05T08:53:22Z</time>
      </trkpt>
      <trkpt lat="36.765369" lon="-4.975132">
        <ele>663.776</ele>
        <time>2011-06-05T08:53:29Z</time>
      </trkpt>
      <trkpt lat="36.765512" lon="-4.975154">
        <ele>664.786</ele>
        <time>2011-06-05T08:53:35Z</time>
      </trkpt>
      <trkpt lat="36.765681" lon="-4.975220">
        <ele>664.862</ele>
        <time>2011-06-05T08:53:41Z</time>
      </trkpt>
      <trkpt lat="36.765788" lon="-4.975350">
        <ele>666.488</ele>
        <time>2011-06-05T08:53:46Z</time>
      </trkpt>
      <trkpt lat="36.765874" lon="-4.975529">
        <ele>666.424</ele>
        <time>2011-06-05T08:53:52Z</time>
      </trkpt>
      <trkpt lat="36.765951" lon="-4.975707">
        <ele>667.326</ele>
        <time>2011-06-05T08:53:57Z</time>
      </trkpt>
      <trkpt lat="36.766004" lon="-4.975894">
        <ele>667.607</ele>
        <time>2011-06-05T08:54:02Z</time>
      </trkpt>
      <trkpt lat="36.766020" lon="-4.976214">
        <ele>667.629</ele>
        <time>2011-06-05T08:54:10Z</time>
      </trkpt>
      <trkpt lat="36.765983" lon="-4.976401">
        <ele>667.695</ele>
        <time>2011-06-05T08:54:15Z</time>
      </trkpt>
      <trkpt lat="36.765892" lon="-4.976619">
        <ele>668.563</ele>
        <time>2011-06-05T08:54:21Z</time>
      </trkpt>
      <trkpt lat="36.765760" lon="-4.976853">
        <ele>669.048</ele>
        <time>2011-06-05T08:54:28Z</time>
      </trkpt>
      <trkpt lat="36.765703" lon="-4.976973">
        <ele>669.719</ele>
        <time>2011-06-05T08:54:32Z</time>
      </trkpt>
      <trkpt lat="36.765600" lon="-4.977160">
        <ele>670.419</ele>
        <time>2011-06-05T08:54:38Z</time>
      </trkpt>
      <trkpt lat="36.765473" lon="-4.977358">
        <ele>670.995</ele>
        <time>2011-06-05T08:54:44Z</time>
      </trkpt>
      <trkpt lat="36.765414" lon="-4.977599">
        <ele>670.752</ele>
        <time>2011-06-05T08:54:50Z</time>
      </trkpt>
      <trkpt lat="36.765382" lon="-4.977838">
        <ele>671.953</ele>
        <time>2011-06-05T08:54:57Z</time>
      </trkpt>
      <trkpt lat="36.765366" lon="-4.978040">
        <ele>672.508</ele>
        <time>2011-06-05T08:55:03Z</time>
      </trkpt>
      <trkpt lat="36.765357" lon="-4.978252">
        <ele>673.507</ele>
        <time>2011-06-05T08:55:09Z</time>
      </trkpt>
      <trkpt lat="36.765353" lon="-4.978520">
        <ele>674.256</ele>
        <time>2011-06-05T08:55:16Z</time>
      </trkpt>
      <trkpt lat="36.765353" lon="-4.978923">
        <ele>675.112</ele>
        <time>2011-06-05T08:55:26Z</time>
      </trkpt>
      <trkpt lat="36.765356" lon="-4.979145">
        <ele>675.420</ele>
        <time>2011-06-05T08:55:32Z</time>
      </trkpt>
      <trkpt lat="36.765320" lon="-4.979424">
        <ele>676.125</ele>
        <time>2011-06-05T08:55:39Z</time>
      </trkpt>
      <trkpt lat="36.765277" lon="-4.979659">
        <ele>676.926</ele>
        <time>2011-06-05T08:55:45Z</time>
      </trkpt>
      <trkpt lat="36.765242" lon="-4.979879">
        <ele>676.296</ele>
        <time>2011-06-05T08:55:51Z</time>
      </trkpt>
      <trkpt lat="36.765183" lon="-4.980138">
        <ele>677.052</ele>
        <time>2011-06-05T08:55:58Z</time>
      </trkpt>
      <trkpt lat="36.765135" lon="-4.980334">
        <ele>677.942</ele>
        <time>2011-06-05T08:56:04Z</time>
      </trkpt>
      <trkpt lat="36.765044" lon="-4.980594">
        <ele>678.422</ele>
        <time>2011-06-05T08:56:12Z</time>
      </trkpt>
      <trkpt lat="36.764910" lon="-4.980824">
        <ele>680.514</ele>
        <time>2011-06-05T08:56:20Z</time>
      </trkpt>
      <trkpt lat="36.764726" lon="-4.980958">
        <ele>681.007</ele>
        <time>2011-06-05T08:56:27Z</time>
      </trkpt>
      <trkpt lat="36.764531" lon="-4.981029">
        <ele>682.565</ele>
        <time>2011-06-05T08:56:35Z</time>
      </trkpt>
      <trkpt lat="36.764409" lon="-4.981125">
        <ele>684.051</ele>
        <time>2011-06-05T08:56:41Z</time>
      </trkpt>
      <trkpt lat="36.764325" lon="-4.981247">
        <ele>683.899</ele>
        <time>2011-06-05T08:56:46Z</time>
      </trkpt>
      <trkpt lat="36.764235" lon="-4.981499">
        <ele>685.334</ele>
        <time>2011-06-05T08:56:53Z</time>
      </trkpt>
      <trkpt lat="36.764164" lon="-4.981748">
        <ele>686.215</ele>
        <time>2011-06-05T08:57:01Z</time>
      </trkpt>
      <trkpt lat="36.764185" lon="-4.981939">
        <ele>686.725</ele>
        <time>2011-06-05T08:57:07Z</time>
      </trkpt>
      <trkpt lat="36.764260" lon="-4.982120">
        <ele>687.191</ele>
        <time>2011-06-05T08:57:13Z</time>
      </trkpt>
      <trkpt lat="36.764329" lon="-4.982288">
        <ele>687.036</ele>
        <time>2011-06-05T08:57:18Z</time>
      </trkpt>
      <trkpt lat="36.764355" lon="-4.982357">
        <ele>688.317</ele>
        <time>2011-06-05T08:57:20Z</time>
      </trkpt>
      <trkpt lat="36.764378" lon="-4.982574">
        <ele>688.318</ele>
        <time>2011-06-05T08:57:26Z</time>
      </trkpt>
      <trkpt lat="36.764340" lon="-4.982836">
        <ele>689.007</ele>
        <time>2011-06-05T08:57:33Z</time>
      </trkpt>
      <trkpt lat="36.764209" lon="-4.983048">
        <ele>689.344</ele>
        <time>2011-06-05T08:57:39Z</time>
      </trkpt>
      <trkpt lat="36.764046" lon="-4.983315">
        <ele>690.180</ele>
        <time>2011-06-05T08:57:47Z</time>
      </trkpt>
      <trkpt lat="36.763960" lon="-4.983548">
        <ele>690.088</ele>
        <time>2011-06-05T08:57:54Z</time>
      </trkpt>
      <trkpt lat="36.763825" lon="-4.983677">
        <ele>691.043</ele>
        <time>2011-06-05T08:58:00Z</time>
      </trkpt>
      <trkpt lat="36.763690" lon="-4.983756">
        <ele>691.914</ele>
        <time>2011-06-05T08:58:06Z</time>
      </trkpt>
      <trkpt lat="36.763486" lon="-4.983827">
        <ele>692.984</ele>
        <time>2011-06-05T08:58:13Z</time>
      </trkpt>
      <trkpt lat="36.763265" lon="-4.983894">
        <ele>694.510</ele>
        <time>2011-06-05T08:58:20Z</time>
      </trkpt>
      <trkpt lat="36.763059" lon="-4.983996">
        <ele>695.382</ele>
        <time>2011-06-05T08:58:27Z</time>
      </trkpt>
      <trkpt lat="36.762889" lon="-4.984144">
        <ele>696.743</ele>
        <time>2011-06-05T08:58:33Z</time>
      </trkpt>
      <trkpt lat="36.762785" lon="-4.984334">
        <ele>697.417</ele>
        <time>2011-06-05T08:58:39Z</time>
      </trkpt>
      <trkpt lat="36.762628" lon="-4.984535">
        <ele>698.107</ele>
        <time>2011-06-05T08:58:47Z</time>
      </trkpt>
      <trkpt lat="36.762548" lon="-4.984638">
        <ele>699.569</ele>
        <time>2011-06-05T08:58:53Z</time>
      </trkpt>
      <trkpt lat="36.762480" lon="-4.984699">
        <ele>699.965</ele>
        <time>2011-06-05T08:58:57Z</time>
      </trkpt>
      <trkpt lat="36.762383" lon="-4.984808">
        <ele>701.163</ele>
        <time>2011-06-05T08:59:03Z</time>
      </trkpt>
      <trkpt lat="36.762367" lon="-4.984827">
        <ele>701.488</ele>
        <time>2011-06-05T08:59:04Z</time>
      </trkpt>
      <trkpt lat="36.762265" lon="-4.984942">
        <ele>701.639</ele>
        <time>2011-06-05T08:59:09Z</time>
      </trkpt>
      <trkpt lat="36.762093" lon="-4.985123">
        <ele>703.919</ele>
        <time>2011-06-05T08:59:16Z</time>
      </trkpt>
      <trkpt lat="36.761969" lon="-4.985240">
        <ele>704.955</ele>
        <time>2011-06-05T08:59:22Z</time>
      </trkpt>
      <trkpt lat="36.761821" lon="-4.985340">
        <ele>705.965</ele>
        <time>2011-06-05T08:59:28Z</time>
      </trkpt>
      <trkpt lat="36.761703" lon="-4.985422">
        <ele>707.368</ele>
        <time>2011-06-05T08:59:33Z</time>
      </trkpt>
      <trkpt lat="36.761596" lon="-4.985492">
        <ele>707.714</ele>
        <time>2011-06-05T08:59:39Z</time>
      </trkpt>
      <trkpt lat="36.761455" lon="-4.985592">
        <ele>708.307</ele>
        <time>2011-06-05T08:59:46Z</time>
      </trkpt>
      <trkpt lat="36.761316" lon="-4.985729">
        <ele>708.737</ele>
        <time>2011-06-05T08:59:52Z</time>
      </trkpt>
      <trkpt lat="36.761201" lon="-4.985862">
        <ele>707.923</ele>
        <time>2011-06-05T08:59:57Z</time>
      </trkpt>
      <trkpt lat="36.761005" lon="-4.986022">
        <ele>707.871</ele>
        <time>2011-06-05T09:00:04Z</time>
      </trkpt>
      <trkpt lat="36.760810" lon="-4.986023">
        <ele>707.726</ele>
        <time>2011-06-05T09:00:11Z</time>
      </trkpt>
      <trkpt lat="36.760622" lon="-4.986020">
        <ele>707.667</ele>
        <time>2011-06-05T09:00:17Z</time>
      </trkpt>
      <trkpt lat="36.760431" lon="-4.986042">
        <ele>708.257</ele>
        <time>2011-06-05T09:00:23Z</time>
      </trkpt>
      <trkpt lat="36.760287" lon="-4.986063">
        <ele>707.863</ele>
        <time>2011-06-05T09:00:28Z</time>
      </trkpt>
      <trkpt lat="36.760157" lon="-4.986087">
        <ele>708.227</ele>
        <time>2011-06-05T09:00:32Z</time>
      </trkpt>
      <trkpt lat="36.759968" lon="-4.986131">
        <ele>708.268</ele>
        <time>2011-06-05T09:00:38Z</time>
      </trkpt>
      <trkpt lat="36.759792" lon="-4.986161">
        <ele>708.914</ele>
        <time>2011-06-05T09:00:44Z</time>
      </trkpt>
      <trkpt lat="36.759576" lon="-4.986203">
        <ele>709.507</ele>
        <time>2011-06-05T09:00:51Z</time>
      </trkpt>
      <trkpt lat="36.759396" lon="-4.986230">
        <ele>708.993</ele>
        <time>2011-06-05T09:00:57Z</time>
      </trkpt>
      <trkpt lat="36.759168" lon="-4.986238">
        <ele>709.699</ele>
        <time>2011-06-05T09:01:03Z</time>
      </trkpt>
      <trkpt lat="36.758956" lon="-4.986276">
        <ele>709.437</ele>
        <time>2011-06-05T09:01:09Z</time>
      </trkpt>
      <trkpt lat="36.758730" lon="-4.986387">
        <ele>710.322</ele>
        <time>2011-06-05T09:01:16Z</time>
      </trkpt>
      <trkpt lat="36.758521" lon="-4.986563">
        <ele>710.333</ele>
        <time>2011-06-05T09:01:23Z</time>
      </trkpt>
      <trkpt lat="36.758391" lon="-4.986756">
        <ele>710.033</ele>
        <time>2011-06-05T09:01:29Z</time>
      </trkpt>
      <trkpt lat="36.758306" lon="-4.986923">
        <ele>711.089</ele>
        <time>2011-06-05T09:01:34Z</time>
      </trkpt>
      <trkpt lat="36.758188" lon="-4.987133">
        <ele>711.379</ele>
        <time>2011-06-05T09:01:40Z</time>
      </trkpt>
      <trkpt lat="36.758052" lon="-4.987303">
        <ele>711.905</ele>
        <time>2011-06-05T09:01:46Z</time>
      </trkpt>
      <trkpt lat="36.757900" lon="-4.987464">
        <ele>713.225</ele>
        <time>2011-06-05T09:01:52Z</time>
      </trkpt>
      <trkpt lat="36.757719" lon="-4.987647">
        <ele>713.307</ele>
        <time>2011-06-05T09:01:59Z</time>
      </trkpt>
      <trkpt lat="36.757525" lon="-4.987816">
        <ele>715.318</ele>
        <time>2011-06-05T09:02:06Z</time>
      </trkpt>
      <trkpt lat="36.757294" lon="-4.987958">
        <ele>717.044</ele>
        <time>2011-06-05T09:02:12Z</time>
      </trkpt>
      <trkpt lat="36.757205" lon="-4.987997">
        <ele>717.032</ele>
        <time>2011-06-05T09:02:14Z</time>
      </trkpt>
      <trkpt lat="36.756919" lon="-4.988103">
        <ele>718.617</ele>
        <time>2011-06-05T09:02:21Z</time>
      </trkpt>
      <trkpt lat="36.756786" lon="-4.988190">
        <ele>719.028</ele>
        <time>2011-06-05T09:02:27Z</time>
      </trkpt>
      <trkpt lat="36.756767" lon="-4.988231">
        <ele>718.998</ele>
        <time>2011-06-05T09:02:31Z</time>
      </trkpt>
      <trkpt lat="36.756783" lon="-4.988217">
        <ele>720.964</ele>
        <time>2011-06-05T09:02:38Z</time>
      </trkpt>
      <trkpt lat="36.756721" lon="-4.988233">
        <ele>720.174</ele>
        <time>2011-06-05T09:06:16Z</time>
      </trkpt>
      <trkpt lat="36.756713" lon="-4.988260">
        <ele>720.456</ele>
        <time>2011-06-05T09:06:20Z</time>
      </trkpt>
      <trkpt lat="36.756711" lon="-4.988280">
        <ele>720.621</ele>
        <time>2011-06-05T09:06:27Z</time>
      </trkpt>
      <trkpt lat="36.756729" lon="-4.988189">
        <ele>720.407</ele>
        <time>2011-06-05T09:06:44Z</time>
      </trkpt>
      <trkpt lat="36.756795" lon="-4.988177">
        <ele>720.458</ele>
        <time>2011-06-05T09:06:50Z</time>
      </trkpt>
      <trkpt lat="36.756899" lon="-4.988117">
        <ele>720.594</ele>
        <time>2011-06-05T09:06:57Z</time>
      </trkpt>
      <trkpt lat="36.757042" lon="-4.988053">
        <ele>719.642</ele>
        <time>2011-06-05T09:07:02Z</time>
      </trkpt>
      <trkpt lat="36.757233" lon="-4.987973">
        <ele>718.087</ele>
        <time>2011-06-05T09:07:08Z</time>
      </trkpt>
      <trkpt lat="36.757393" lon="-4.987925">
        <ele>717.898</ele>
        <time>2011-06-05T09:07:12Z</time>
      </trkpt>
      <trkpt lat="36.757520" lon="-4.987855">
        <ele>717.328</ele>
        <time>2011-06-05T09:07:15Z</time>
      </trkpt>
      <trkpt lat="36.757853" lon="-4.987565">
        <ele>716.144</ele>
        <time>2011-06-05T09:07:22Z</time>
      </trkpt>
      <trkpt lat="36.757903" lon="-4.987514">
        <ele>716.163</ele>
        <time>2011-06-05T09:07:23Z</time>
      </trkpt>
      <trkpt lat="36.758204" lon="-4.987163">
        <ele>714.444</ele>
        <time>2011-06-05T09:07:29Z</time>
      </trkpt>
      <trkpt lat="36.758392" lon="-4.986762">
        <ele>712.418</ele>
        <time>2011-06-05T09:07:35Z</time>
      </trkpt>
      <trkpt lat="36.758415" lon="-4.986709">
        <ele>712.407</ele>
        <time>2011-06-05T09:07:36Z</time>
      </trkpt>
      <trkpt lat="36.758609" lon="-4.986444">
        <ele>711.417</ele>
        <time>2011-06-05T09:07:42Z</time>
      </trkpt>
      <trkpt lat="36.758849" lon="-4.986284">
        <ele>711.573</ele>
        <time>2011-06-05T09:07:48Z</time>
      </trkpt>
      <trkpt lat="36.759176" lon="-4.986214">
        <ele>711.131</ele>
        <time>2011-06-05T09:07:55Z</time>
      </trkpt>
      <trkpt lat="36.759225" lon="-4.986202">
        <ele>711.586</ele>
        <time>2011-06-05T09:07:56Z</time>
      </trkpt>
      <trkpt lat="36.759601" lon="-4.986160">
        <ele>709.867</ele>
        <time>2011-06-05T09:08:04Z</time>
      </trkpt>
      <trkpt lat="36.759654" lon="-4.986155">
        <ele>709.947</ele>
        <time>2011-06-05T09:08:05Z</time>
      </trkpt>
      <trkpt lat="36.759805" lon="-4.986156">
        <ele>709.993</ele>
        <time>2011-06-05T09:08:08Z</time>
      </trkpt>
      <trkpt lat="36.760097" lon="-4.986094">
        <ele>711.265</ele>
        <time>2011-06-05T09:08:14Z</time>
      </trkpt>
      <trkpt lat="36.760400" lon="-4.986041">
        <ele>708.568</ele>
        <time>2011-06-05T09:08:20Z</time>
      </trkpt>
      <trkpt lat="36.760698" lon="-4.986039">
        <ele>708.614</ele>
        <time>2011-06-05T09:08:26Z</time>
      </trkpt>
      <trkpt lat="36.760968" lon="-4.986071">
        <ele>708.507</ele>
        <time>2011-06-05T09:08:31Z</time>
      </trkpt>
      <trkpt lat="36.761160" lon="-4.985986">
        <ele>708.337</ele>
        <time>2011-06-05T09:08:35Z</time>
      </trkpt>
      <trkpt lat="36.761303" lon="-4.985807">
        <ele>709.243</ele>
        <time>2011-06-05T09:08:39Z</time>
      </trkpt>
      <trkpt lat="36.761470" lon="-4.985643">
        <ele>708.231</ele>
        <time>2011-06-05T09:08:43Z</time>
      </trkpt>
      <trkpt lat="36.761779" lon="-4.985429">
        <ele>706.826</ele>
        <time>2011-06-05T09:08:50Z</time>
      </trkpt>
      <trkpt lat="36.761982" lon="-4.985291">
        <ele>706.027</ele>
        <time>2011-06-05T09:08:54Z</time>
      </trkpt>
      <trkpt lat="36.762334" lon="-4.984939">
        <ele>703.717</ele>
        <time>2011-06-05T09:09:00Z</time>
      </trkpt>
      <trkpt lat="36.762587" lon="-4.984649">
        <ele>701.623</ele>
        <time>2011-06-05T09:09:04Z</time>
      </trkpt>
      <trkpt lat="36.762655" lon="-4.984577">
        <ele>702.141</ele>
        <time>2011-06-05T09:09:05Z</time>
      </trkpt>
      <trkpt lat="36.762880" lon="-4.984231">
        <ele>699.281</ele>
        <time>2011-06-05T09:09:09Z</time>
      </trkpt>
      <trkpt lat="36.763047" lon="-4.984004">
        <ele>697.609</ele>
        <time>2011-06-05T09:09:12Z</time>
      </trkpt>
      <trkpt lat="36.763378" lon="-4.983844">
        <ele>696.007</ele>
        <time>2011-06-05T09:09:16Z</time>
      </trkpt>
      <trkpt lat="36.763739" lon="-4.983744">
        <ele>695.425</ele>
        <time>2011-06-05T09:09:20Z</time>
      </trkpt>
      <trkpt lat="36.763947" lon="-4.983610">
        <ele>693.711</ele>
        <time>2011-06-05T09:09:23Z</time>
      </trkpt>
      <trkpt lat="36.764076" lon="-4.983357">
        <ele>692.479</ele>
        <time>2011-06-05T09:09:26Z</time>
      </trkpt>
      <trkpt lat="36.764160" lon="-4.983191">
        <ele>691.184</ele>
        <time>2011-06-05T09:09:28Z</time>
      </trkpt>
      <trkpt lat="36.764349" lon="-4.982810">
        <ele>691.095</ele>
        <time>2011-06-05T09:09:33Z</time>
      </trkpt>
      <trkpt lat="36.764388" lon="-4.982402">
        <ele>688.835</ele>
        <time>2011-06-05T09:09:38Z</time>
      </trkpt>
      <trkpt lat="36.764302" lon="-4.982168">
        <ele>688.611</ele>
        <time>2011-06-05T09:09:41Z</time>
      </trkpt>
      <trkpt lat="36.764212" lon="-4.981953">
        <ele>688.796</ele>
        <time>2011-06-05T09:09:44Z</time>
      </trkpt>
      <trkpt lat="36.764218" lon="-4.981634">
        <ele>687.131</ele>
        <time>2011-06-05T09:09:48Z</time>
      </trkpt>
      <trkpt lat="36.764366" lon="-4.981193">
        <ele>686.124</ele>
        <time>2011-06-05T09:09:53Z</time>
      </trkpt>
      <trkpt lat="36.764410" lon="-4.981122">
        <ele>686.007</ele>
        <time>2011-06-05T09:09:54Z</time>
      </trkpt>
      <trkpt lat="36.764502" lon="-4.980993">
        <ele>684.450</ele>
        <time>2011-06-05T09:09:56Z</time>
      </trkpt>
      <trkpt lat="36.764730" lon="-4.980912">
        <ele>683.576</ele>
        <time>2011-06-05T09:09:59Z</time>
      </trkpt>
      <trkpt lat="36.765001" lon="-4.980684">
        <ele>681.334</ele>
        <time>2011-06-05T09:10:03Z</time>
      </trkpt>
      <trkpt lat="36.765163" lon="-4.980244">
        <ele>679.929</ele>
        <time>2011-06-05T09:10:08Z</time>
      </trkpt>
      <trkpt lat="36.765300" lon="-4.979578">
        <ele>678.220</ele>
        <time>2011-06-05T09:10:15Z</time>
      </trkpt>
      <trkpt lat="36.765337" lon="-4.979393">
        <ele>678.310</ele>
        <time>2011-06-05T09:10:17Z</time>
      </trkpt>
      <trkpt lat="36.765347" lon="-4.979128">
        <ele>677.216</ele>
        <time>2011-06-05T09:10:20Z</time>
      </trkpt>
      <trkpt lat="36.765344" lon="-4.978620">
        <ele>676.915</ele>
        <time>2011-06-05T09:10:26Z</time>
      </trkpt>
      <trkpt lat="36.765364" lon="-4.978133">
        <ele>675.765</ele>
        <time>2011-06-05T09:10:32Z</time>
      </trkpt>
      <trkpt lat="36.765415" lon="-4.977726">
        <ele>674.311</ele>
        <time>2011-06-05T09:10:37Z</time>
      </trkpt>
      <trkpt lat="36.765428" lon="-4.977642">
        <ele>674.107</ele>
        <time>2011-06-05T09:10:38Z</time>
      </trkpt>
      <trkpt lat="36.765586" lon="-4.977251">
        <ele>672.832</ele>
        <time>2011-06-05T09:10:43Z</time>
      </trkpt>
      <trkpt lat="36.765854" lon="-4.976756">
        <ele>671.738</ele>
        <time>2011-06-05T09:10:50Z</time>
      </trkpt>
      <trkpt lat="36.765961" lon="-4.976533">
        <ele>670.816</ele>
        <time>2011-06-05T09:10:53Z</time>
      </trkpt>
      <trkpt lat="36.766003" lon="-4.976380">
        <ele>670.671</ele>
        <time>2011-06-05T09:10:55Z</time>
      </trkpt>
      <trkpt lat="36.766025" lon="-4.976070">
        <ele>669.842</ele>
        <time>2011-06-05T09:10:59Z</time>
      </trkpt>
      <trkpt lat="36.766012" lon="-4.975920">
        <ele>669.952</ele>
        <time>2011-06-05T09:11:01Z</time>
      </trkpt>
      <trkpt lat="36.765916" lon="-4.975606">
        <ele>669.568</ele>
        <time>2011-06-05T09:11:06Z</time>
      </trkpt>
      <trkpt lat="36.765867" lon="-4.975495">
        <ele>669.188</ele>
        <time>2011-06-05T09:11:08Z</time>
      </trkpt>
      <trkpt lat="36.765838" lon="-4.975436">
        <ele>668.824</ele>
        <time>2011-06-05T09:11:09Z</time>
      </trkpt>
      <trkpt lat="36.765810" lon="-4.975378">
        <ele>669.026</ele>
        <time>2011-06-05T09:11:10Z</time>
      </trkpt>
      <trkpt lat="36.765628" lon="-4.975170">
        <ele>668.307</ele>
        <time>2011-06-05T09:11:14Z</time>
      </trkpt>
      <trkpt lat="36.765428" lon="-4.975135">
        <ele>666.489</ele>
        <time>2011-06-05T09:11:17Z</time>
      </trkpt>
      <trkpt lat="36.765014" lon="-4.975014">
        <ele>665.945</ele>
        <time>2011-06-05T09:11:23Z</time>
      </trkpt>
      <trkpt lat="36.764785" lon="-4.974821">
        <ele>664.693</ele>
        <time>2011-06-05T09:11:27Z</time>
      </trkpt>
      <trkpt lat="36.764701" lon="-4.974669">
        <ele>663.768</ele>
        <time>2011-06-05T09:11:29Z</time>
      </trkpt>
      <trkpt lat="36.764422" lon="-4.974119">
        <ele>662.159</ele>
        <time>2011-06-05T09:11:36Z</time>
      </trkpt>
      <trkpt lat="36.764373" lon="-4.973797">
        <ele>661.699</ele>
        <time>2011-06-05T09:11:40Z</time>
      </trkpt>
      <trkpt lat="36.764500" lon="-4.973518">
        <ele>661.265</ele>
        <time>2011-06-05T09:11:44Z</time>
      </trkpt>
      <trkpt lat="36.764590" lon="-4.973411">
        <ele>660.959</ele>
        <time>2011-06-05T09:11:46Z</time>
      </trkpt>
      <trkpt lat="36.764843" lon="-4.973075">
        <ele>660.003</ele>
        <time>2011-06-05T09:11:52Z</time>
      </trkpt>
      <trkpt lat="36.765017" lon="-4.972624">
        <ele>659.623</ele>
        <time>2011-06-05T09:11:58Z</time>
      </trkpt>
      <trkpt lat="36.765073" lon="-4.972469">
        <ele>659.007</ele>
        <time>2011-06-05T09:12:00Z</time>
      </trkpt>
      <trkpt lat="36.765313" lon="-4.972000">
        <ele>658.846</ele>
        <time>2011-06-05T09:12:07Z</time>
      </trkpt>
      <trkpt lat="36.765485" lon="-4.971516">
        <ele>657.632</ele>
        <time>2011-06-05T09:12:15Z</time>
      </trkpt>
      <trkpt lat="36.765513" lon="-4.971394">
        <ele>657.710</ele>
        <time>2011-06-05T09:12:17Z</time>
      </trkpt>
      <trkpt lat="36.765581" lon="-4.970997">
        <ele>657.255</ele>
        <time>2011-06-05T09:12:23Z</time>
      </trkpt>
      <trkpt lat="36.765617" lon="-4.970779">
        <ele>656.256</ele>
        <time>2011-06-05T09:12:26Z</time>
      </trkpt>
      <trkpt lat="36.765754" lon="-4.970528">
        <ele>656.136</ele>
        <time>2011-06-05T09:12:30Z</time>
      </trkpt>
      <trkpt lat="36.765803" lon="-4.970482">
        <ele>655.432</ele>
        <time>2011-06-05T09:12:31Z</time>
      </trkpt>
      <trkpt lat="36.766135" lon="-4.970259">
        <ele>653.731</ele>
        <time>2011-06-05T09:12:37Z</time>
      </trkpt>
      <trkpt lat="36.766485" lon="-4.970068">
        <ele>653.761</ele>
        <time>2011-06-05T09:12:43Z</time>
      </trkpt>
      <trkpt lat="36.766797" lon="-4.970076">
        <ele>653.207</ele>
        <time>2011-06-05T09:12:48Z</time>
      </trkpt>
      <trkpt lat="36.766863" lon="-4.970105">
        <ele>652.207</ele>
        <time>2011-06-05T09:12:49Z</time>
      </trkpt>
      <trkpt lat="36.767039" lon="-4.970178">
        <ele>649.914</ele>
        <time>2011-06-05T09:12:52Z</time>
      </trkpt>
      <trkpt lat="36.767217" lon="-4.970202">
        <ele>649.730</ele>
        <time>2011-06-05T09:12:58Z</time>
      </trkpt>
      <trkpt lat="36.767240" lon="-4.970117">
        <ele>649.288</ele>
        <time>2011-06-05T09:13:02Z</time>
      </trkpt>
      <trkpt lat="36.767242" lon="-4.970016">
        <ele>649.253</ele>
        <time>2011-06-05T09:13:05Z</time>
      </trkpt>
      <trkpt lat="36.767344" lon="-4.969963">
        <ele>650.534</ele>
        <time>2011-06-05T09:13:11Z</time>
      </trkpt>
      <trkpt lat="36.767394" lon="-4.969974">
        <ele>650.434</ele>
        <time>2011-06-05T09:13:17Z</time>
      </trkpt>
      <trkpt lat="36.767433" lon="-4.969991">
        <ele>650.260</ele>
        <time>2011-06-05T09:13:24Z</time>
      </trkpt>
      <trkpt lat="36.767477" lon="-4.969988">
        <ele>650.741</ele>
        <time>2011-06-05T09:13:33Z</time>
      </trkpt>
      <trkpt lat="36.767576" lon="-4.969978">
        <ele>651.781</ele>
        <time>2011-06-05T09:13:38Z</time>
      </trkpt>
      <trkpt lat="36.767688" lon="-4.969937">
        <ele>652.409</ele>
        <time>2011-06-05T09:13:43Z</time>
      </trkpt>
      <trkpt lat="36.767821" lon="-4.969813">
        <ele>653.407</ele>
        <time>2011-06-05T09:13:50Z</time>
      </trkpt>
      <trkpt lat="36.767962" lon="-4.969606">
        <ele>654.895</ele>
        <time>2011-06-05T09:13:59Z</time>
      </trkpt>
      <trkpt lat="36.768044" lon="-4.969402">
        <ele>656.351</ele>
        <time>2011-06-05T09:14:07Z</time>
      </trkpt>
      <trkpt lat="36.767993" lon="-4.969306">
        <ele>657.039</ele>
        <time>2011-06-05T09:14:11Z</time>
      </trkpt>
      <trkpt lat="36.767884" lon="-4.969308">
        <ele>657.874</ele>
        <time>2011-06-05T09:14:15Z</time>
      </trkpt>
      <trkpt lat="36.767754" lon="-4.969379">
        <ele>657.775</ele>
        <time>2011-06-05T09:14:21Z</time>
      </trkpt>
      <trkpt lat="36.767599" lon="-4.969452">
        <ele>659.185</ele>
        <time>2011-06-05T09:14:28Z</time>
      </trkpt>
      <trkpt lat="36.767422" lon="-4.969481">
        <ele>660.141</ele>
        <time>2011-06-05T09:14:36Z</time>
      </trkpt>
      <trkpt lat="36.767216" lon="-4.969416">
        <ele>660.836</ele>
        <time>2011-06-05T09:14:45Z</time>
      </trkpt>
      <trkpt lat="36.767007" lon="-4.969275">
        <ele>662.017</ele>
        <time>2011-06-05T09:14:55Z</time>
      </trkpt>
      <trkpt lat="36.766854" lon="-4.969113">
        <ele>663.018</ele>
        <time>2011-06-05T09:15:03Z</time>
      </trkpt>
      <trkpt lat="36.766760" lon="-4.968841">
        <ele>664.007</ele>
        <time>2011-06-05T09:15:12Z</time>
      </trkpt>
      <trkpt lat="36.766700" lon="-4.968568">
        <ele>663.744</ele>
        <time>2011-06-05T09:15:21Z</time>
      </trkpt>
      <trkpt lat="36.766691" lon="-4.968296">
        <ele>664.670</ele>
        <time>2011-06-05T09:15:30Z</time>
      </trkpt>
      <trkpt lat="36.766704" lon="-4.967997">
        <ele>666.438</ele>
        <time>2011-06-05T09:15:39Z</time>
      </trkpt>
      <trkpt lat="36.766689" lon="-4.967759">
        <ele>667.573</ele>
        <time>2011-06-05T09:15:47Z</time>
      </trkpt>
      <trkpt lat="36.766682" lon="-4.967497">
        <ele>667.354</ele>
        <time>2011-06-05T09:15:56Z</time>
      </trkpt>
      <trkpt lat="36.766664" lon="-4.967294">
        <ele>668.494</ele>
        <time>2011-06-05T09:16:03Z</time>
      </trkpt>
      <trkpt lat="36.766622" lon="-4.967075">
        <ele>668.930</ele>
        <time>2011-06-05T09:16:11Z</time>
      </trkpt>
      <trkpt lat="36.766525" lon="-4.966923">
        <ele>670.279</ele>
        <time>2011-06-05T09:16:18Z</time>
      </trkpt>
      <trkpt lat="36.766356" lon="-4.966806">
        <ele>670.705</ele>
        <time>2011-06-05T09:16:26Z</time>
      </trkpt>
      <trkpt lat="36.766211" lon="-4.966725">
        <ele>671.825</ele>
        <time>2011-06-05T09:16:33Z</time>
      </trkpt>
      <trkpt lat="36.766087" lon="-4.966592">
        <ele>673.007</ele>
        <time>2011-06-05T09:16:40Z</time>
      </trkpt>
      <trkpt lat="36.765981" lon="-4.966450">
        <ele>672.898</ele>
        <time>2011-06-05T09:16:46Z</time>
      </trkpt>
      <trkpt lat="36.765887" lon="-4.966282">
        <ele>673.614</ele>
        <time>2011-06-05T09:16:53Z</time>
      </trkpt>
      <trkpt lat="36.765814" lon="-4.966048">
        <ele>674.182</ele>
        <time>2011-06-05T09:17:01Z</time>
      </trkpt>
      <trkpt lat="36.765807" lon="-4.965825">
        <ele>675.717</ele>
        <time>2011-06-05T09:17:09Z</time>
      </trkpt>
      <trkpt lat="36.765820" lon="-4.965557">
        <ele>676.968</ele>
        <time>2011-06-05T09:17:18Z</time>
      </trkpt>
      <trkpt lat="36.765786" lon="-4.965286">
        <ele>677.728</ele>
        <time>2011-06-05T09:17:27Z</time>
      </trkpt>
      <trkpt lat="36.765675" lon="-4.965116">
        <ele>678.434</ele>
        <time>2011-06-05T09:17:34Z</time>
      </trkpt>
      <trkpt lat="36.765483" lon="-4.964982">
        <ele>680.539</ele>
        <time>2011-06-05T09:17:43Z</time>
      </trkpt>
      <trkpt lat="36.765246" lon="-4.964950">
        <ele>681.101</ele>
        <time>2011-06-05T09:17:53Z</time>
      </trkpt>
      <trkpt lat="36.765046" lon="-4.964963">
        <ele>681.521</ele>
        <time>2011-06-05T09:18:01Z</time>
      </trkpt>
      <trkpt lat="36.764848" lon="-4.964964">
        <ele>682.607</ele>
        <time>2011-06-05T09:18:09Z</time>
      </trkpt>
      <trkpt lat="36.764620" lon="-4.965011">
        <ele>684.114</ele>
        <time>2011-06-05T09:18:18Z</time>
      </trkpt>
      <trkpt lat="36.764472" lon="-4.965117">
        <ele>684.330</ele>
        <time>2011-06-05T09:18:25Z</time>
      </trkpt>
      <trkpt lat="36.764352" lon="-4.965338">
        <ele>684.598</ele>
        <time>2011-06-05T09:18:33Z</time>
      </trkpt>
      <trkpt lat="36.764214" lon="-4.965546">
        <ele>686.693</ele>
        <time>2011-06-05T09:18:42Z</time>
      </trkpt>
      <trkpt lat="36.764077" lon="-4.965707">
        <ele>686.664</ele>
        <time>2011-06-05T09:18:50Z</time>
      </trkpt>
      <trkpt lat="36.764027" lon="-4.965776">
        <ele>687.874</ele>
        <time>2011-06-05T09:18:53Z</time>
      </trkpt>
      <trkpt lat="36.763911" lon="-4.965865">
        <ele>688.320</ele>
        <time>2011-06-05T09:18:59Z</time>
      </trkpt>
      <trkpt lat="36.763788" lon="-4.965909">
        <ele>689.157</ele>
        <time>2011-06-05T09:19:05Z</time>
      </trkpt>
      <trkpt lat="36.763626" lon="-4.965974">
        <ele>690.500</ele>
        <time>2011-06-05T09:19:13Z</time>
      </trkpt>
      <trkpt lat="36.763455" lon="-4.966054">
        <ele>690.320</ele>
        <time>2011-06-05T09:19:21Z</time>
      </trkpt>
      <trkpt lat="36.763312" lon="-4.966104">
        <ele>691.307</ele>
        <time>2011-06-05T09:19:27Z</time>
      </trkpt>
      <trkpt lat="36.763173" lon="-4.966133">
        <ele>692.066</ele>
        <time>2011-06-05T09:19:33Z</time>
      </trkpt>
      <trkpt lat="36.763016" lon="-4.966174">
        <ele>693.492</ele>
        <time>2011-06-05T09:19:40Z</time>
      </trkpt>
      <trkpt lat="36.762874" lon="-4.966234">
        <ele>695.640</ele>
        <time>2011-06-05T09:19:47Z</time>
      </trkpt>
      <trkpt lat="36.762737" lon="-4.966284">
        <ele>696.645</ele>
        <time>2011-06-05T09:19:54Z</time>
      </trkpt>
      <trkpt lat="36.762526" lon="-4.966302">
        <ele>697.986</ele>
        <time>2011-06-05T09:20:03Z</time>
      </trkpt>
      <trkpt lat="36.762376" lon="-4.966268">
        <ele>699.526</ele>
        <time>2011-06-05T09:20:10Z</time>
      </trkpt>
      <trkpt lat="36.762226" lon="-4.966288">
        <ele>700.942</ele>
        <time>2011-06-05T09:20:16Z</time>
      </trkpt>
      <trkpt lat="36.762036" lon="-4.966343">
        <ele>702.487</ele>
        <time>2011-06-05T09:20:24Z</time>
      </trkpt>
      <trkpt lat="36.761880" lon="-4.966470">
        <ele>702.642</ele>
        <time>2011-06-05T09:20:32Z</time>
      </trkpt>
      <trkpt lat="36.761791" lon="-4.966611">
        <ele>703.226</ele>
        <time>2011-06-05T09:20:39Z</time>
      </trkpt>
      <trkpt lat="36.761751" lon="-4.966805">
        <ele>703.107</ele>
        <time>2011-06-05T09:20:46Z</time>
      </trkpt>
      <trkpt lat="36.761683" lon="-4.966937">
        <ele>704.149</ele>
        <time>2011-06-05T09:20:52Z</time>
      </trkpt>
      <trkpt lat="36.761548" lon="-4.967055">
        <ele>705.935</ele>
        <time>2011-06-05T09:21:00Z</time>
      </trkpt>
      <trkpt lat="36.761464" lon="-4.967145">
        <ele>706.273</ele>
        <time>2011-06-05T09:21:06Z</time>
      </trkpt>
      <trkpt lat="36.761326" lon="-4.967306">
        <ele>706.898</ele>
        <time>2011-06-05T09:21:14Z</time>
      </trkpt>
      <trkpt lat="36.761208" lon="-4.967448">
        <ele>707.189</ele>
        <time>2011-06-05T09:21:21Z</time>
      </trkpt>
      <trkpt lat="36.761069" lon="-4.967602">
        <ele>708.399</ele>
        <time>2011-06-05T09:21:28Z</time>
      </trkpt>
      <trkpt lat="36.760953" lon="-4.967751">
        <ele>709.115</ele>
        <time>2011-06-05T09:21:35Z</time>
      </trkpt>
      <trkpt lat="36.760870" lon="-4.967920">
        <ele>710.418</ele>
        <time>2011-06-05T09:21:42Z</time>
      </trkpt>
      <trkpt lat="36.760847" lon="-4.968116">
        <ele>712.098</ele>
        <time>2011-06-05T09:21:49Z</time>
      </trkpt>
      <trkpt lat="36.760860" lon="-4.968307">
        <ele>713.517</ele>
        <time>2011-06-05T09:21:56Z</time>
      </trkpt>
      <trkpt lat="36.760804" lon="-4.968466">
        <ele>713.907</ele>
        <time>2011-06-05T09:22:02Z</time>
      </trkpt>
      <trkpt lat="36.760725" lon="-4.968633">
        <ele>714.972</ele>
        <time>2011-06-05T09:22:09Z</time>
      </trkpt>
      <trkpt lat="36.760628" lon="-4.968779">
        <ele>717.128</ele>
        <time>2011-06-05T09:22:16Z</time>
      </trkpt>
      <trkpt lat="36.760518" lon="-4.968983">
        <ele>718.386</ele>
        <time>2011-06-05T09:22:24Z</time>
      </trkpt>
      <trkpt lat="36.760433" lon="-4.969155">
        <ele>718.331</ele>
        <time>2011-06-05T09:22:31Z</time>
      </trkpt>
      <trkpt lat="36.760315" lon="-4.969401">
        <ele>718.682</ele>
        <time>2011-06-05T09:22:40Z</time>
      </trkpt>
      <trkpt lat="36.760279" lon="-4.969558">
        <ele>719.962</ele>
        <time>2011-06-05T09:22:46Z</time>
      </trkpt>
      <trkpt lat="36.760231" lon="-4.969788">
        <ele>720.878</ele>
        <time>2011-06-05T09:22:54Z</time>
      </trkpt>
      <trkpt lat="36.760196" lon="-4.969988">
        <ele>721.856</ele>
        <time>2011-06-05T09:23:01Z</time>
      </trkpt>
      <trkpt lat="36.760173" lon="-4.970224">
        <ele>723.659</ele>
        <time>2011-06-05T09:23:09Z</time>
      </trkpt>
      <trkpt lat="36.760188" lon="-4.970498">
        <ele>723.714</ele>
        <time>2011-06-05T09:23:18Z</time>
      </trkpt>
      <trkpt lat="36.760232" lon="-4.970798">
        <ele>724.607</ele>
        <time>2011-06-05T09:23:28Z</time>
      </trkpt>
      <trkpt lat="36.760281" lon="-4.971071">
        <ele>725.146</ele>
        <time>2011-06-05T09:23:37Z</time>
      </trkpt>
      <trkpt lat="36.760277" lon="-4.971305">
        <ele>725.412</ele>
        <time>2011-06-05T09:23:46Z</time>
      </trkpt>
      <trkpt lat="36.760270" lon="-4.971515">
        <ele>726.210</ele>
        <time>2011-06-05T09:23:53Z</time>
      </trkpt>
      <trkpt lat="36.760260" lon="-4.971808">
        <ele>727.875</ele>
        <time>2011-06-05T09:24:03Z</time>
      </trkpt>
      <trkpt lat="36.760237" lon="-4.972034">
        <ele>729.396</ele>
        <time>2011-06-05T09:24:11Z</time>
      </trkpt>
      <trkpt lat="36.760174" lon="-4.972259">
        <ele>730.676</ele>
        <time>2011-06-05T09:24:19Z</time>
      </trkpt>
      <trkpt lat="36.760127" lon="-4.972507">
        <ele>730.732</ele>
        <time>2011-06-05T09:24:28Z</time>
      </trkpt>
      <trkpt lat="36.760104" lon="-4.972749">
        <ele>732.128</ele>
        <time>2011-06-05T09:24:37Z</time>
      </trkpt>
      <trkpt lat="36.760113" lon="-4.972944">
        <ele>733.289</ele>
        <time>2011-06-05T09:24:44Z</time>
      </trkpt>
      <trkpt lat="36.760132" lon="-4.973121">
        <ele>734.017</ele>
        <time>2011-06-05T09:24:50Z</time>
      </trkpt>
      <trkpt lat="36.760186" lon="-4.973400">
        <ele>735.007</ele>
        <time>2011-06-05T09:24:59Z</time>
      </trkpt>
      <trkpt lat="36.760221" lon="-4.973577">
        <ele>735.673</ele>
        <time>2011-06-05T09:25:05Z</time>
      </trkpt>
      <trkpt lat="36.760254" lon="-4.973772">
        <ele>735.849</ele>
        <time>2011-06-05T09:25:11Z</time>
      </trkpt>
      <trkpt lat="36.760290" lon="-4.974027">
        <ele>736.557</ele>
        <time>2011-06-05T09:25:19Z</time>
      </trkpt>
      <trkpt lat="36.760310" lon="-4.974256">
        <ele>737.052</ele>
        <time>2011-06-05T09:25:27Z</time>
      </trkpt>
      <trkpt lat="36.760329" lon="-4.974487">
        <ele>737.673</ele>
        <time>2011-06-05T09:25:35Z</time>
      </trkpt>
      <trkpt lat="36.760360" lon="-4.974696">
        <ele>738.243</ele>
        <time>2011-06-05T09:25:42Z</time>
      </trkpt>
      <trkpt lat="36.760384" lon="-4.974908">
        <ele>739.279</ele>
        <time>2011-06-05T09:25:49Z</time>
      </trkpt>
      <trkpt lat="36.760379" lon="-4.975084">
        <ele>740.049</ele>
        <time>2011-06-05T09:25:55Z</time>
      </trkpt>
      <trkpt lat="36.760369" lon="-4.975310">
        <ele>740.802</ele>
        <time>2011-06-05T09:26:02Z</time>
      </trkpt>
      <trkpt lat="36.760367" lon="-4.975493">
        <ele>742.622</ele>
        <time>2011-06-05T09:26:08Z</time>
      </trkpt>
      <trkpt lat="36.760369" lon="-4.975693">
        <ele>742.807</ele>
        <time>2011-06-05T09:26:15Z</time>
      </trkpt>
      <trkpt lat="36.760392" lon="-4.975873">
        <ele>743.955</ele>
        <time>2011-06-05T09:26:22Z</time>
      </trkpt>
      <trkpt lat="36.760385" lon="-4.976088">
        <ele>745.711</ele>
        <time>2011-06-05T09:26:29Z</time>
      </trkpt>
      <trkpt lat="36.760391" lon="-4.976251">
        <ele>747.149</ele>
        <time>2011-06-05T09:26:35Z</time>
      </trkpt>
      <trkpt lat="36.760399" lon="-4.976480">
        <ele>747.924</ele>
        <time>2011-06-05T09:26:43Z</time>
      </trkpt>
      <trkpt lat="36.760391" lon="-4.976748">
        <ele>748.135</ele>
        <time>2011-06-05T09:26:52Z</time>
      </trkpt>
      <trkpt lat="36.760367" lon="-4.977043">
        <ele>750.025</ele>
        <time>2011-06-05T09:27:03Z</time>
      </trkpt>
      <trkpt lat="36.760326" lon="-4.977185">
        <ele>751.671</ele>
        <time>2011-06-05T09:27:10Z</time>
      </trkpt>
      <trkpt lat="36.760296" lon="-4.977309">
        <ele>752.529</ele>
        <time>2011-06-05T09:27:15Z</time>
      </trkpt>
      <trkpt lat="36.760272" lon="-4.977594">
        <ele>753.700</ele>
        <time>2011-06-05T09:27:25Z</time>
      </trkpt>
      <trkpt lat="36.760273" lon="-4.977792">
        <ele>756.020</ele>
        <time>2011-06-05T09:27:33Z</time>
      </trkpt>
      <trkpt lat="36.760277" lon="-4.978011">
        <ele>757.507</ele>
        <time>2011-06-05T09:27:41Z</time>
      </trkpt>
      <trkpt lat="36.760268" lon="-4.978246">
        <ele>757.933</ele>
        <time>2011-06-05T09:27:49Z</time>
      </trkpt>
      <trkpt lat="36.760251" lon="-4.978383">
        <ele>759.119</ele>
        <time>2011-06-05T09:27:54Z</time>
      </trkpt>
      <trkpt lat="36.760203" lon="-4.978672">
        <ele>760.667</ele>
        <time>2011-06-05T09:28:03Z</time>
      </trkpt>
      <trkpt lat="36.760126" lon="-4.978904">
        <ele>761.842</ele>
        <time>2011-06-05T09:28:11Z</time>
      </trkpt>
      <trkpt lat="36.760041" lon="-4.979096">
        <ele>764.033</ele>
        <time>2011-06-05T09:28:19Z</time>
      </trkpt>
      <trkpt lat="36.759974" lon="-4.979241">
        <ele>766.173</ele>
        <time>2011-06-05T09:28:25Z</time>
      </trkpt>
      <trkpt lat="36.759894" lon="-4.979416">
        <ele>767.219</ele>
        <time>2011-06-05T09:28:32Z</time>
      </trkpt>
      <trkpt lat="36.759780" lon="-4.979573">
        <ele>768.863</ele>
        <time>2011-06-05T09:28:39Z</time>
      </trkpt>
      <trkpt lat="36.759692" lon="-4.979701">
        <ele>770.044</ele>
        <time>2011-06-05T09:28:45Z</time>
      </trkpt>
      <trkpt lat="36.759600" lon="-4.979903">
        <ele>770.418</ele>
        <time>2011-06-05T09:28:52Z</time>
      </trkpt>
      <trkpt lat="36.759507" lon="-4.980074">
        <ele>772.307</ele>
        <time>2011-06-05T09:29:00Z</time>
      </trkpt>
      <trkpt lat="36.759388" lon="-4.980136">
        <ele>773.217</ele>
        <time>2011-06-05T09:29:06Z</time>
      </trkpt>
      <trkpt lat="36.759325" lon="-4.980168">
        <ele>774.553</ele>
        <time>2011-06-05T09:29:09Z</time>
      </trkpt>
      <trkpt lat="36.759163" lon="-4.980290">
        <ele>774.881</ele>
        <time>2011-06-05T09:29:17Z</time>
      </trkpt>
      <trkpt lat="36.759006" lon="-4.980384">
        <ele>776.146</ele>
        <time>2011-06-05T09:29:24Z</time>
      </trkpt>
      <trkpt lat="36.758897" lon="-4.980323">
        <ele>776.667</ele>
        <time>2011-06-05T09:29:29Z</time>
      </trkpt>
      <trkpt lat="36.758756" lon="-4.980169">
        <ele>777.737</ele>
        <time>2011-06-05T09:29:36Z</time>
      </trkpt>
      <trkpt lat="36.758697" lon="-4.980072">
        <ele>778.193</ele>
        <time>2011-06-05T09:29:40Z</time>
      </trkpt>
      <trkpt lat="36.758755" lon="-4.979967">
        <ele>778.738</ele>
        <time>2011-06-05T09:29:45Z</time>
      </trkpt>
      <trkpt lat="36.758927" lon="-4.979881">
        <ele>780.870</ele>
        <time>2011-06-05T09:29:53Z</time>
      </trkpt>
      <trkpt lat="36.759110" lon="-4.979678">
        <ele>782.517</ele>
        <time>2011-06-05T09:30:03Z</time>
      </trkpt>
      <trkpt lat="36.759225" lon="-4.979461">
        <ele>782.807</ele>
        <time>2011-06-05T09:30:11Z</time>
      </trkpt>
      <trkpt lat="36.759274" lon="-4.979232">
        <ele>783.914</ele>
        <time>2011-06-05T09:30:19Z</time>
      </trkpt>
      <trkpt lat="36.759298" lon="-4.978911">
        <ele>786.320</ele>
        <time>2011-06-05T09:30:29Z</time>
      </trkpt>
      <trkpt lat="36.759234" lon="-4.978682">
        <ele>786.268</ele>
        <time>2011-06-05T09:30:36Z</time>
      </trkpt>
      <trkpt lat="36.759102" lon="-4.978437">
        <ele>786.613</ele>
        <time>2011-06-05T09:30:45Z</time>
      </trkpt>
      <trkpt lat="36.759048" lon="-4.978190">
        <ele>787.074</ele>
        <time>2011-06-05T09:30:52Z</time>
      </trkpt>
      <trkpt lat="36.759133" lon="-4.978085">
        <ele>788.764</ele>
        <time>2011-06-05T09:30:56Z</time>
      </trkpt>
      <trkpt lat="36.759157" lon="-4.978065">
        <ele>788.620</ele>
        <time>2011-06-05T09:30:57Z</time>
      </trkpt>
      <trkpt lat="36.759285" lon="-4.977916">
        <ele>790.372</ele>
        <time>2011-06-05T09:31:04Z</time>
      </trkpt>
      <trkpt lat="36.759292" lon="-4.977884">
        <ele>790.413</ele>
        <time>2011-06-05T09:31:05Z</time>
      </trkpt>
      <trkpt lat="36.759269" lon="-4.977709">
        <ele>790.214</ele>
        <time>2011-06-05T09:31:10Z</time>
      </trkpt>
      <trkpt lat="36.759151" lon="-4.977617">
        <ele>790.807</ele>
        <time>2011-06-05T09:31:15Z</time>
      </trkpt>
      <trkpt lat="36.758930" lon="-4.977569">
        <ele>791.218</ele>
        <time>2011-06-05T09:31:23Z</time>
      </trkpt>
      <trkpt lat="36.758760" lon="-4.977449">
        <ele>792.464</ele>
        <time>2011-06-05T09:31:30Z</time>
      </trkpt>
      <trkpt lat="36.758572" lon="-4.977378">
        <ele>793.282</ele>
        <time>2011-06-05T09:31:37Z</time>
      </trkpt>
      <trkpt lat="36.758401" lon="-4.977250">
        <ele>794.317</ele>
        <time>2011-06-05T09:31:44Z</time>
      </trkpt>
      <trkpt lat="36.758229" lon="-4.977134">
        <ele>795.498</ele>
        <time>2011-06-05T09:31:51Z</time>
      </trkpt>
      <trkpt lat="36.758217" lon="-4.977009">
        <ele>796.118</ele>
        <time>2011-06-05T09:31:55Z</time>
      </trkpt>
      <trkpt lat="36.758242" lon="-4.976829">
        <ele>798.074</ele>
        <time>2011-06-05T09:32:01Z</time>
      </trkpt>
      <trkpt lat="36.758242" lon="-4.976620">
        <ele>799.088</ele>
        <time>2011-06-05T09:32:07Z</time>
      </trkpt>
      <trkpt lat="36.758220" lon="-4.976376">
        <ele>798.724</ele>
        <time>2011-06-05T09:32:14Z</time>
      </trkpt>
      <trkpt lat="36.758196" lon="-4.976314">
        <ele>798.726</ele>
        <time>2011-06-05T09:32:16Z</time>
      </trkpt>
      <trkpt lat="36.758081" lon="-4.976305">
        <ele>800.207</ele>
        <time>2011-06-05T09:32:22Z</time>
      </trkpt>
      <trkpt lat="36.757973" lon="-4.976376">
        <ele>801.329</ele>
        <time>2011-06-05T09:32:28Z</time>
      </trkpt>
      <trkpt lat="36.757883" lon="-4.976430">
        <ele>802.745</ele>
        <time>2011-06-05T09:32:34Z</time>
      </trkpt>
      <trkpt lat="36.757817" lon="-4.976469">
        <ele>804.293</ele>
        <time>2011-06-05T09:32:38Z</time>
      </trkpt>
      <trkpt lat="36.757778" lon="-4.976495">
        <ele>805.488</ele>
        <time>2011-06-05T09:32:41Z</time>
      </trkpt>
      <trkpt lat="36.757686" lon="-4.976537">
        <ele>806.859</ele>
        <time>2011-06-05T09:32:47Z</time>
      </trkpt>
      <trkpt lat="36.757616" lon="-4.976588">
        <ele>807.829</ele>
        <time>2011-06-05T09:32:52Z</time>
      </trkpt>
      <trkpt lat="36.757598" lon="-4.976590">
        <ele>808.245</ele>
        <time>2011-06-05T09:33:03Z</time>
      </trkpt>
      <trkpt lat="36.757595" lon="-4.976626">
        <ele>807.498</ele>
        <time>2011-06-05T09:33:11Z</time>
      </trkpt>
      <trkpt lat="36.757590" lon="-4.976636">
        <ele>807.615</ele>
        <time>2011-06-05T09:33:14Z</time>
      </trkpt>
      <trkpt lat="36.757592" lon="-4.976610">
        <ele>807.326</ele>
        <time>2011-06-05T09:34:32Z</time>
      </trkpt>
      <trkpt lat="36.757510" lon="-4.976730">
        <ele>808.607</ele>
        <time>2011-06-05T09:34:41Z</time>
      </trkpt>
      <trkpt lat="36.757469" lon="-4.976782">
        <ele>809.770</ele>
        <time>2011-06-05T09:34:45Z</time>
      </trkpt>
      <trkpt lat="36.757389" lon="-4.976882">
        <ele>810.966</ele>
        <time>2011-06-05T09:34:52Z</time>
      </trkpt>
      <trkpt lat="36.757334" lon="-4.976952">
        <ele>812.734</ele>
        <time>2011-06-05T09:34:58Z</time>
      </trkpt>
      <trkpt lat="36.757253" lon="-4.977035">
        <ele>813.569</ele>
        <time>2011-06-05T09:35:05Z</time>
      </trkpt>
      <trkpt lat="36.757159" lon="-4.977111">
        <ele>815.810</ele>
        <time>2011-06-05T09:35:13Z</time>
      </trkpt>
      <trkpt lat="36.757066" lon="-4.977214">
        <ele>817.350</ele>
        <time>2011-06-05T09:35:22Z</time>
      </trkpt>
      <trkpt lat="36.756953" lon="-4.977308">
        <ele>818.876</ele>
        <time>2011-06-05T09:35:32Z</time>
      </trkpt>
      <trkpt lat="36.756872" lon="-4.977374">
        <ele>821.177</ele>
        <time>2011-06-05T09:35:39Z</time>
      </trkpt>
      <trkpt lat="36.756859" lon="-4.977383">
        <ele>821.761</ele>
        <time>2011-06-05T09:35:40Z</time>
      </trkpt>
      <trkpt lat="36.756791" lon="-4.977461">
        <ele>823.827</ele>
        <time>2011-06-05T09:35:47Z</time>
      </trkpt>
      <trkpt lat="36.756672" lon="-4.977529">
        <ele>825.107</ele>
        <time>2011-06-05T09:35:56Z</time>
      </trkpt>
      <trkpt lat="36.756599" lon="-4.977572">
        <ele>825.788</ele>
        <time>2011-06-05T09:36:02Z</time>
      </trkpt>
      <trkpt lat="36.756517" lon="-4.977594">
        <ele>827.554</ele>
        <time>2011-06-05T09:36:08Z</time>
      </trkpt>
      <trkpt lat="36.756420" lon="-4.977650">
        <ele>828.732</ele>
        <time>2011-06-05T09:36:16Z</time>
      </trkpt>
      <trkpt lat="36.756329" lon="-4.977708">
        <ele>830.217</ele>
        <time>2011-06-05T09:36:24Z</time>
      </trkpt>
      <trkpt lat="36.756216" lon="-4.977721">
        <ele>830.938</ele>
        <time>2011-06-05T09:36:32Z</time>
      </trkpt>
      <trkpt lat="36.756176" lon="-4.977706">
        <ele>832.228</ele>
        <time>2011-06-05T09:36:35Z</time>
      </trkpt>
      <trkpt lat="36.756067" lon="-4.977659">
        <ele>833.754</ele>
        <time>2011-06-05T09:36:43Z</time>
      </trkpt>
      <trkpt lat="36.755963" lon="-4.977661">
        <ele>834.079</ele>
        <time>2011-06-05T09:36:50Z</time>
      </trkpt>
      <trkpt lat="36.755844" lon="-4.977729">
        <ele>836.305</ele>
        <time>2011-06-05T09:36:59Z</time>
      </trkpt>
      <trkpt lat="36.755749" lon="-4.977815">
        <ele>837.625</ele>
        <time>2011-06-05T09:37:07Z</time>
      </trkpt>
      <trkpt lat="36.755661" lon="-4.977919">
        <ele>839.907</ele>
        <time>2011-06-05T09:37:15Z</time>
      </trkpt>
      <trkpt lat="36.755551" lon="-4.978039">
        <ele>841.768</ele>
        <time>2011-06-05T09:37:24Z</time>
      </trkpt>
      <trkpt lat="36.755501" lon="-4.978078">
        <ele>842.064</ele>
        <time>2011-06-05T09:37:28Z</time>
      </trkpt>
      <trkpt lat="36.755347" lon="-4.978134">
        <ele>844.692</ele>
        <time>2011-06-05T09:37:38Z</time>
      </trkpt>
      <trkpt lat="36.755286" lon="-4.978176">
        <ele>845.457</ele>
        <time>2011-06-05T09:37:43Z</time>
      </trkpt>
      <trkpt lat="36.755193" lon="-4.978308">
        <ele>847.558</ele>
        <time>2011-06-05T09:37:52Z</time>
      </trkpt>
      <trkpt lat="36.755097" lon="-4.978423">
        <ele>847.988</ele>
        <time>2011-06-05T09:38:00Z</time>
      </trkpt>
      <trkpt lat="36.754966" lon="-4.978488">
        <ele>848.564</ele>
        <time>2011-06-05T09:38:07Z</time>
      </trkpt>
      <trkpt lat="36.754934" lon="-4.978533">
        <ele>848.651</ele>
        <time>2011-06-05T09:38:11Z</time>
      </trkpt>
      <trkpt lat="36.754918" lon="-4.978522">
        <ele>845.701</ele>
        <time>2011-06-05T09:45:50Z</time>
      </trkpt>
      <trkpt lat="36.754879" lon="-4.978529">
        <ele>847.911</ele>
        <time>2011-06-05T09:45:53Z</time>
      </trkpt>
      <trkpt lat="36.754761" lon="-4.978581">
        <ele>848.007</ele>
        <time>2011-06-05T09:46:00Z</time>
      </trkpt>
      <trkpt lat="36.754597" lon="-4.978697">
        <ele>849.636</ele>
        <time>2011-06-05T09:46:10Z</time>
      </trkpt>
      <trkpt lat="36.754455" lon="-4.978802">
        <ele>850.022</ele>
        <time>2011-06-05T09:46:19Z</time>
      </trkpt>
      <trkpt lat="36.754317" lon="-4.978886">
        <ele>851.280</ele>
        <time>2011-06-05T09:46:27Z</time>
      </trkpt>
      <trkpt lat="36.754162" lon="-4.978996">
        <ele>852.285</ele>
        <time>2011-06-05T09:46:36Z</time>
      </trkpt>
      <trkpt lat="36.754031" lon="-4.979122">
        <ele>853.586</ele>
        <time>2011-06-05T09:46:45Z</time>
      </trkpt>
      <trkpt lat="36.753928" lon="-4.979250">
        <ele>854.816</ele>
        <time>2011-06-05T09:46:54Z</time>
      </trkpt>
      <trkpt lat="36.753833" lon="-4.979338">
        <ele>855.612</ele>
        <time>2011-06-05T09:47:01Z</time>
      </trkpt>
      <trkpt lat="36.753698" lon="-4.979399">
        <ele>856.793</ele>
        <time>2011-06-05T09:47:09Z</time>
      </trkpt>
      <trkpt lat="36.753564" lon="-4.979433">
        <ele>858.665</ele>
        <time>2011-06-05T09:47:17Z</time>
      </trkpt>
      <trkpt lat="36.753452" lon="-4.979491">
        <ele>859.221</ele>
        <time>2011-06-05T09:47:24Z</time>
      </trkpt>
      <trkpt lat="36.753296" lon="-4.979583">
        <ele>860.807</ele>
        <time>2011-06-05T09:47:35Z</time>
      </trkpt>
      <trkpt lat="36.753206" lon="-4.979666">
        <ele>861.790</ele>
        <time>2011-06-05T09:47:41Z</time>
      </trkpt>
      <trkpt lat="36.753192" lon="-4.979761">
        <ele>862.466</ele>
        <time>2011-06-05T09:47:46Z</time>
      </trkpt>
      <trkpt lat="36.753234" lon="-4.979933">
        <ele>863.864</ele>
        <time>2011-06-05T09:47:55Z</time>
      </trkpt>
      <trkpt lat="36.753263" lon="-4.980103">
        <ele>864.019</ele>
        <time>2011-06-05T09:48:03Z</time>
      </trkpt>
      <trkpt lat="36.753228" lon="-4.980268">
        <ele>865.220</ele>
        <time>2011-06-05T09:48:11Z</time>
      </trkpt>
      <trkpt lat="36.753123" lon="-4.980342">
        <ele>865.930</ele>
        <time>2011-06-05T09:48:17Z</time>
      </trkpt>
      <trkpt lat="36.752972" lon="-4.980372">
        <ele>866.696</ele>
        <time>2011-06-05T09:48:25Z</time>
      </trkpt>
      <trkpt lat="36.752852" lon="-4.980417">
        <ele>868.352</ele>
        <time>2011-06-05T09:48:32Z</time>
      </trkpt>
      <trkpt lat="36.752662" lon="-4.980428">
        <ele>869.553</ele>
        <time>2011-06-05T09:48:42Z</time>
      </trkpt>
      <trkpt lat="36.752451" lon="-4.980403">
        <ele>869.308</ele>
        <time>2011-06-05T09:48:53Z</time>
      </trkpt>
      <trkpt lat="36.752297" lon="-4.980452">
        <ele>870.607</ele>
        <time>2011-06-05T09:49:02Z</time>
      </trkpt>
      <trkpt lat="36.752203" lon="-4.980552">
        <ele>871.516</ele>
        <time>2011-06-05T09:49:09Z</time>
      </trkpt>
      <trkpt lat="36.752131" lon="-4.980694">
        <ele>872.952</ele>
        <time>2011-06-05T09:49:16Z</time>
      </trkpt>
      <trkpt lat="36.752080" lon="-4.980830">
        <ele>872.680</ele>
        <time>2011-06-05T09:49:23Z</time>
      </trkpt>
      <trkpt lat="36.751985" lon="-4.980970">
        <ele>873.655</ele>
        <time>2011-06-05T09:49:31Z</time>
      </trkpt>
      <trkpt lat="36.751823" lon="-4.981036">
        <ele>875.146</ele>
        <time>2011-06-05T09:49:40Z</time>
      </trkpt>
      <trkpt lat="36.751648" lon="-4.981057">
        <ele>875.376</ele>
        <time>2011-06-05T09:49:49Z</time>
      </trkpt>
      <trkpt lat="36.751429" lon="-4.981003">
        <ele>876.782</ele>
        <time>2011-06-05T09:49:59Z</time>
      </trkpt>
      <trkpt lat="36.751257" lon="-4.980953">
        <ele>878.695</ele>
        <time>2011-06-05T09:50:07Z</time>
      </trkpt>
      <trkpt lat="36.751094" lon="-4.980919">
        <ele>878.849</ele>
        <time>2011-06-05T09:50:14Z</time>
      </trkpt>
      <trkpt lat="36.751013" lon="-4.981030">
        <ele>879.823</ele>
        <time>2011-06-05T09:50:19Z</time>
      </trkpt>
      <trkpt lat="36.750889" lon="-4.981227">
        <ele>880.807</ele>
        <time>2011-06-05T09:50:28Z</time>
      </trkpt>
      <trkpt lat="36.750866" lon="-4.981256">
        <ele>880.430</ele>
        <time>2011-06-05T09:50:30Z</time>
      </trkpt>
      <trkpt lat="36.750848" lon="-4.981268">
        <ele>880.276</ele>
        <time>2011-06-05T09:50:32Z</time>
      </trkpt>
      <trkpt lat="36.750845" lon="-4.981244">
        <ele>880.154</ele>
        <time>2011-06-05T09:51:00Z</time>
      </trkpt>
      <trkpt lat="36.750834" lon="-4.981265">
        <ele>880.559</ele>
        <time>2011-06-05T09:52:54Z</time>
      </trkpt>
      <trkpt lat="36.750742" lon="-4.981271">
        <ele>881.590</ele>
        <time>2011-06-05T09:53:01Z</time>
      </trkpt>
      <trkpt lat="36.750684" lon="-4.981250">
        <ele>881.240</ele>
        <time>2011-06-05T09:53:05Z</time>
      </trkpt>
      <trkpt lat="36.750601" lon="-4.981114">
        <ele>879.836</ele>
        <time>2011-06-05T09:53:11Z</time>
      </trkpt>
      <trkpt lat="36.750577" lon="-4.981074">
        <ele>879.464</ele>
        <time>2011-06-05T09:53:12Z</time>
      </trkpt>
      <trkpt lat="36.750354" lon="-4.980898">
        <ele>878.006</ele>
        <time>2011-06-05T09:53:17Z</time>
      </trkpt>
      <trkpt lat="36.750242" lon="-4.980823">
        <ele>876.416</ele>
        <time>2011-06-05T09:53:21Z</time>
      </trkpt>
      <trkpt lat="36.750165" lon="-4.980691">
        <ele>874.707</ele>
        <time>2011-06-05T09:53:26Z</time>
      </trkpt>
      <trkpt lat="36.750003" lon="-4.980614">
        <ele>874.277</ele>
        <time>2011-06-05T09:53:30Z</time>
      </trkpt>
      <trkpt lat="36.749925" lon="-4.980719">
        <ele>875.193</ele>
        <time>2011-06-05T09:53:33Z</time>
      </trkpt>
      <trkpt lat="36.749868" lon="-4.980899">
        <ele>876.971</ele>
        <time>2011-06-05T09:53:38Z</time>
      </trkpt>
      <trkpt lat="36.749767" lon="-4.981210">
        <ele>876.966</ele>
        <time>2011-06-05T09:53:46Z</time>
      </trkpt>
      <trkpt lat="36.749640" lon="-4.981315">
        <ele>876.167</ele>
        <time>2011-06-05T09:53:50Z</time>
      </trkpt>
      <trkpt lat="36.749379" lon="-4.981313">
        <ele>873.727</ele>
        <time>2011-06-05T09:53:55Z</time>
      </trkpt>
      <trkpt lat="36.749121" lon="-4.981251">
        <ele>872.353</ele>
        <time>2011-06-05T09:54:00Z</time>
      </trkpt>
      <trkpt lat="36.748832" lon="-4.981307">
        <ele>870.942</ele>
        <time>2011-06-05T09:54:05Z</time>
      </trkpt>
      <trkpt lat="36.748769" lon="-4.981325">
        <ele>871.022</ele>
        <time>2011-06-05T09:54:06Z</time>
      </trkpt>
      <trkpt lat="36.748641" lon="-4.981332">
        <ele>868.714</ele>
        <time>2011-06-05T09:54:08Z</time>
      </trkpt>
      <trkpt lat="36.748395" lon="-4.981290">
        <ele>866.207</ele>
        <time>2011-06-05T09:54:12Z</time>
      </trkpt>
      <trkpt lat="36.748131" lon="-4.981351">
        <ele>864.665</ele>
        <time>2011-06-05T09:54:17Z</time>
      </trkpt>
      <trkpt lat="36.748040" lon="-4.981451">
        <ele>863.041</ele>
        <time>2011-06-05T09:54:19Z</time>
      </trkpt>
      <trkpt lat="36.747770" lon="-4.981697">
        <ele>859.739</ele>
        <time>2011-06-05T09:54:25Z</time>
      </trkpt>
      <trkpt lat="36.747732" lon="-4.981740">
        <ele>859.474</ele>
        <time>2011-06-05T09:54:26Z</time>
      </trkpt>
      <trkpt lat="36.747603" lon="-4.981992">
        <ele>856.635</ele>
        <time>2011-06-05T09:54:31Z</time>
      </trkpt>
      <trkpt lat="36.747624" lon="-4.982048">
        <ele>856.255</ele>
        <time>2011-06-05T09:54:32Z</time>
      </trkpt>
      <trkpt lat="36.747742" lon="-4.982319">
        <ele>853.861</ele>
        <time>2011-06-05T09:54:36Z</time>
      </trkpt>
      <trkpt lat="36.747958" lon="-4.982643">
        <ele>852.113</ele>
        <time>2011-06-05T09:54:41Z</time>
      </trkpt>
      <trkpt lat="36.748126" lon="-4.982822">
        <ele>848.743</ele>
        <time>2011-06-05T09:54:45Z</time>
      </trkpt>
      <trkpt lat="36.748158" lon="-4.982854">
        <ele>848.207</ele>
        <time>2011-06-05T09:54:47Z</time>
      </trkpt>
      <trkpt lat="36.748168" lon="-4.982868">
        <ele>847.707</ele>
        <time>2011-06-05T09:54:52Z</time>
      </trkpt>
      <trkpt lat="36.748171" lon="-4.982904">
        <ele>847.752</ele>
        <time>2011-06-05T09:54:57Z</time>
      </trkpt>
      <trkpt lat="36.748236" lon="-4.982982">
        <ele>846.698</ele>
        <time>2011-06-05T09:55:02Z</time>
      </trkpt>
      <trkpt lat="36.748221" lon="-4.983083">
        <ele>844.956</ele>
        <time>2011-06-05T09:55:05Z</time>
      </trkpt>
      <trkpt lat="36.748116" lon="-4.983324">
        <ele>843.631</ele>
        <time>2011-06-05T09:55:12Z</time>
      </trkpt>
      <trkpt lat="36.748091" lon="-4.983375">
        <ele>843.532</ele>
        <time>2011-06-05T09:55:14Z</time>
      </trkpt>
      <trkpt lat="36.748050" lon="-4.983419">
        <ele>843.052</ele>
        <time>2011-06-05T09:55:20Z</time>
      </trkpt>
      <trkpt lat="36.747995" lon="-4.983444">
        <ele>843.678</ele>
        <time>2011-06-05T09:56:17Z</time>
      </trkpt>
      <trkpt lat="36.747931" lon="-4.983463">
        <ele>843.816</ele>
        <time>2011-06-05T09:56:21Z</time>
      </trkpt>
      <trkpt lat="36.747789" lon="-4.983423">
        <ele>843.976</ele>
        <time>2011-06-05T09:56:28Z</time>
      </trkpt>
      <trkpt lat="36.747617" lon="-4.983397">
        <ele>843.713</ele>
        <time>2011-06-05T09:56:35Z</time>
      </trkpt>
      <trkpt lat="36.747557" lon="-4.983398">
        <ele>844.807</ele>
        <time>2011-06-05T09:56:37Z</time>
      </trkpt>
      <trkpt lat="36.747305" lon="-4.983444">
        <ele>843.072</ele>
        <time>2011-06-05T09:56:44Z</time>
      </trkpt>
      <trkpt lat="36.747055" lon="-4.983468">
        <ele>842.188</ele>
        <time>2011-06-05T09:56:50Z</time>
      </trkpt>
      <trkpt lat="36.746963" lon="-4.983475">
        <ele>842.076</ele>
        <time>2011-06-05T09:56:52Z</time>
      </trkpt>
      <trkpt lat="36.746769" lon="-4.983355">
        <ele>841.631</ele>
        <time>2011-06-05T09:56:57Z</time>
      </trkpt>
      <trkpt lat="36.746608" lon="-4.983190">
        <ele>842.462</ele>
        <time>2011-06-05T09:57:03Z</time>
      </trkpt>
      <trkpt lat="36.746456" lon="-4.983031">
        <ele>842.042</ele>
        <time>2011-06-05T09:57:09Z</time>
      </trkpt>
      <trkpt lat="36.746295" lon="-4.982855">
        <ele>842.598</ele>
        <time>2011-06-05T09:57:15Z</time>
      </trkpt>
      <trkpt lat="36.746163" lon="-4.982682">
        <ele>843.772</ele>
        <time>2011-06-05T09:57:21Z</time>
      </trkpt>
      <trkpt lat="36.745968" lon="-4.982549">
        <ele>843.713</ele>
        <time>2011-06-05T09:57:28Z</time>
      </trkpt>
      <trkpt lat="36.745711" lon="-4.982524">
        <ele>843.814</ele>
        <time>2011-06-05T09:57:35Z</time>
      </trkpt>
      <trkpt lat="36.745425" lon="-4.982478">
        <ele>843.407</ele>
        <time>2011-06-05T09:57:43Z</time>
      </trkpt>
      <trkpt lat="36.745167" lon="-4.982385">
        <ele>845.038</ele>
        <time>2011-06-05T09:57:51Z</time>
      </trkpt>
      <trkpt lat="36.744968" lon="-4.982311">
        <ele>846.134</ele>
        <time>2011-06-05T09:57:59Z</time>
      </trkpt>
      <trkpt lat="36.744837" lon="-4.982210">
        <ele>846.032</ele>
        <time>2011-06-05T09:58:06Z</time>
      </trkpt>
      <trkpt lat="36.744685" lon="-4.982094">
        <ele>847.177</ele>
        <time>2011-06-05T09:58:14Z</time>
      </trkpt>
      <trkpt lat="36.744537" lon="-4.982016">
        <ele>848.818</ele>
        <time>2011-06-05T09:58:22Z</time>
      </trkpt>
      <trkpt lat="36.744385" lon="-4.981916">
        <ele>850.748</ele>
        <time>2011-06-05T09:58:31Z</time>
      </trkpt>
      <trkpt lat="36.744343" lon="-4.981783">
        <ele>851.564</ele>
        <time>2011-06-05T09:58:37Z</time>
      </trkpt>
      <trkpt lat="36.744344" lon="-4.981548">
        <ele>853.393</ele>
        <time>2011-06-05T09:58:47Z</time>
      </trkpt>
      <trkpt lat="36.744382" lon="-4.981376">
        <ele>854.965</ele>
        <time>2011-06-05T09:58:55Z</time>
      </trkpt>
      <trkpt lat="36.744394" lon="-4.981207">
        <ele>855.621</ele>
        <time>2011-06-05T09:59:03Z</time>
      </trkpt>
      <trkpt lat="36.744368" lon="-4.981015">
        <ele>857.607</ele>
        <time>2011-06-05T09:59:12Z</time>
      </trkpt>
      <trkpt lat="36.744341" lon="-4.980825">
        <ele>859.150</ele>
        <time>2011-06-05T09:59:21Z</time>
      </trkpt>
      <trkpt lat="36.744291" lon="-4.980688">
        <ele>860.356</ele>
        <time>2011-06-05T09:59:28Z</time>
      </trkpt>
      <trkpt lat="36.744247" lon="-4.980670">
        <ele>861.344</ele>
        <time>2011-06-05T09:59:31Z</time>
      </trkpt>
      <trkpt lat="36.744185" lon="-4.980766">
        <ele>862.629</ele>
        <time>2011-06-05T09:59:38Z</time>
      </trkpt>
      <trkpt lat="36.744167" lon="-4.980846">
        <ele>863.160</ele>
        <time>2011-06-05T09:59:43Z</time>
      </trkpt>
      <trkpt lat="36.744115" lon="-4.981007">
        <ele>865.350</ele>
        <time>2011-06-05T09:59:53Z</time>
      </trkpt>
      <trkpt lat="36.744107" lon="-4.981040">
        <ele>865.956</ele>
        <time>2011-06-05T09:59:55Z</time>
      </trkpt>
      <trkpt lat="36.744084" lon="-4.981164">
        <ele>867.481</ele>
        <time>2011-06-05T10:00:02Z</time>
      </trkpt>
      <trkpt lat="36.744044" lon="-4.981323">
        <ele>870.061</ele>
        <time>2011-06-05T10:00:11Z</time>
      </trkpt>
      <trkpt lat="36.744021" lon="-4.981430">
        <ele>870.217</ele>
        <time>2011-06-05T10:00:17Z</time>
      </trkpt>
      <trkpt lat="36.743974" lon="-4.981579">
        <ele>872.607</ele>
        <time>2011-06-05T10:00:25Z</time>
      </trkpt>
      <trkpt lat="36.743927" lon="-4.981725">
        <ele>873.989</ele>
        <time>2011-06-05T10:00:33Z</time>
      </trkpt>
      <trkpt lat="36.743891" lon="-4.981890">
        <ele>874.865</ele>
        <time>2011-06-05T10:00:42Z</time>
      </trkpt>
      <trkpt lat="36.743834" lon="-4.982057">
        <ele>875.833</ele>
        <time>2011-06-05T10:00:51Z</time>
      </trkpt>
      <trkpt lat="36.743751" lon="-4.982256">
        <ele>877.238</ele>
        <time>2011-06-05T10:01:02Z</time>
      </trkpt>
      <trkpt lat="36.743669" lon="-4.982406">
        <ele>877.929</ele>
        <time>2011-06-05T10:01:10Z</time>
      </trkpt>
      <trkpt lat="36.743631" lon="-4.982546">
        <ele>878.949</ele>
        <time>2011-06-05T10:01:18Z</time>
      </trkpt>
      <trkpt lat="36.743633" lon="-4.982679">
        <ele>879.755</ele>
        <time>2011-06-05T10:01:25Z</time>
      </trkpt>
      <trkpt lat="36.743673" lon="-4.982773">
        <ele>880.946</ele>
        <time>2011-06-05T10:01:31Z</time>
      </trkpt>
      <trkpt lat="36.743731" lon="-4.982907">
        <ele>882.988</ele>
        <time>2011-06-05T10:01:39Z</time>
      </trkpt>
      <trkpt lat="36.743770" lon="-4.983005">
        <ele>883.516</ele>
        <time>2011-06-05T10:01:45Z</time>
      </trkpt>
      <trkpt lat="36.743783" lon="-4.983078">
        <ele>884.107</ele>
        <time>2011-06-05T10:01:49Z</time>
      </trkpt>
      <trkpt lat="36.743735" lon="-4.983155">
        <ele>885.325</ele>
        <time>2011-06-05T10:01:54Z</time>
      </trkpt>
      <trkpt lat="36.743624" lon="-4.983130">
        <ele>886.011</ele>
        <time>2011-06-05T10:02:01Z</time>
      </trkpt>
      <trkpt lat="36.743554" lon="-4.983042">
        <ele>887.129</ele>
        <time>2011-06-05T10:02:07Z</time>
      </trkpt>
      <trkpt lat="36.743434" lon="-4.982906">
        <ele>889.644</ele>
        <time>2011-06-05T10:02:17Z</time>
      </trkpt>
      <trkpt lat="36.743376" lon="-4.982876">
        <ele>890.975</ele>
        <time>2011-06-05T10:02:21Z</time>
      </trkpt>
      <trkpt lat="36.743360" lon="-4.982877">
        <ele>890.615</ele>
        <time>2011-06-05T10:02:22Z</time>
      </trkpt>
      <trkpt lat="36.743303" lon="-4.982958">
        <ele>892.041</ele>
        <time>2011-06-05T10:02:28Z</time>
      </trkpt>
      <trkpt lat="36.743350" lon="-4.983154">
        <ele>893.027</ele>
        <time>2011-06-05T10:02:38Z</time>
      </trkpt>
      <trkpt lat="36.743406" lon="-4.983338">
        <ele>893.968</ele>
        <time>2011-06-05T10:02:47Z</time>
      </trkpt>
      <trkpt lat="36.743432" lon="-4.983542">
        <ele>895.414</ele>
        <time>2011-06-05T10:02:57Z</time>
      </trkpt>
      <trkpt lat="36.743424" lon="-4.983578">
        <ele>896.007</ele>
        <time>2011-06-05T10:02:59Z</time>
      </trkpt>
      <trkpt lat="36.743324" lon="-4.983627">
        <ele>896.863</ele>
        <time>2011-06-05T10:03:06Z</time>
      </trkpt>
      <trkpt lat="36.743291" lon="-4.983624">
        <ele>897.189</ele>
        <time>2011-06-05T10:03:08Z</time>
      </trkpt>
      <trkpt lat="36.743235" lon="-4.983590">
        <ele>898.467</ele>
        <time>2011-06-05T10:03:12Z</time>
      </trkpt>
      <trkpt lat="36.743164" lon="-4.983451">
        <ele>899.722</ele>
        <time>2011-06-05T10:03:21Z</time>
      </trkpt>
      <trkpt lat="36.743102" lon="-4.983328">
        <ele>901.433</ele>
        <time>2011-06-05T10:03:28Z</time>
      </trkpt>
      <trkpt lat="36.743042" lon="-4.983204">
        <ele>902.613</ele>
        <time>2011-06-05T10:03:35Z</time>
      </trkpt>
      <trkpt lat="36.742975" lon="-4.983082">
        <ele>903.439</ele>
        <time>2011-06-05T10:03:42Z</time>
      </trkpt>
      <trkpt lat="36.742886" lon="-4.983094">
        <ele>904.132</ele>
        <time>2011-06-05T10:03:48Z</time>
      </trkpt>
      <trkpt lat="36.742875" lon="-4.983189">
        <ele>904.392</ele>
        <time>2011-06-05T10:03:53Z</time>
      </trkpt>
      <trkpt lat="36.742905" lon="-4.983318">
        <ele>906.111</ele>
        <time>2011-06-05T10:04:00Z</time>
      </trkpt>
      <trkpt lat="36.742932" lon="-4.983453">
        <ele>907.507</ele>
        <time>2011-06-05T10:04:07Z</time>
      </trkpt>
      <trkpt lat="36.742952" lon="-4.983637">
        <ele>908.534</ele>
        <time>2011-06-05T10:04:17Z</time>
      </trkpt>
      <trkpt lat="36.742950" lon="-4.983759">
        <ele>909.620</ele>
        <time>2011-06-05T10:04:23Z</time>
      </trkpt>
      <trkpt lat="36.742945" lon="-4.983916">
        <ele>911.478</ele>
        <time>2011-06-05T10:04:31Z</time>
      </trkpt>
      <trkpt lat="36.742966" lon="-4.984084">
        <ele>912.353</ele>
        <time>2011-06-05T10:04:40Z</time>
      </trkpt>
      <trkpt lat="36.742964" lon="-4.984102">
        <ele>911.974</ele>
        <time>2011-06-05T10:04:41Z</time>
      </trkpt>
      <trkpt lat="36.742930" lon="-4.984144">
        <ele>912.574</ele>
        <time>2011-06-05T10:04:44Z</time>
      </trkpt>
      <trkpt lat="36.742864" lon="-4.984152">
        <ele>913.320</ele>
        <time>2011-06-05T10:04:50Z</time>
      </trkpt>
      <trkpt lat="36.742874" lon="-4.984152">
        <ele>913.286</ele>
        <time>2011-06-05T10:05:00Z</time>
      </trkpt>
      <trkpt lat="36.742856" lon="-4.984131">
        <ele>911.860</ele>
        <time>2011-06-05T10:06:10Z</time>
      </trkpt>
      <trkpt lat="36.742809" lon="-4.984113">
        <ele>912.426</ele>
        <time>2011-06-05T10:06:15Z</time>
      </trkpt>
      <trkpt lat="36.742791" lon="-4.984095">
        <ele>913.107</ele>
        <time>2011-06-05T10:06:29Z</time>
      </trkpt>
      <trkpt lat="36.742767" lon="-4.984135">
        <ele>914.629</ele>
        <time>2011-06-05T10:11:17Z</time>
      </trkpt>
      <trkpt lat="36.742777" lon="-4.984136">
        <ele>914.745</ele>
        <time>2011-06-05T10:11:37Z</time>
      </trkpt>
      <trkpt lat="36.742770" lon="-4.984135">
        <ele>913.973</ele>
        <time>2011-06-05T10:11:40Z</time>
      </trkpt>
      <trkpt lat="36.742754" lon="-4.984070">
        <ele>915.828</ele>
        <time>2011-06-05T10:11:46Z</time>
      </trkpt>
      <trkpt lat="36.742741" lon="-4.984002">
        <ele>916.519</ele>
        <time>2011-06-05T10:11:49Z</time>
      </trkpt>
      <trkpt lat="36.742699" lon="-4.983802">
        <ele>916.919</ele>
        <time>2011-06-05T10:11:58Z</time>
      </trkpt>
      <trkpt lat="36.742606" lon="-4.983637">
        <ele>919.195</ele>
        <time>2011-06-05T10:12:07Z</time>
      </trkpt>
      <trkpt lat="36.742543" lon="-4.983505">
        <ele>919.369</ele>
        <time>2011-06-05T10:12:14Z</time>
      </trkpt>
      <trkpt lat="36.742465" lon="-4.983338">
        <ele>920.904</ele>
        <time>2011-06-05T10:12:23Z</time>
      </trkpt>
      <trkpt lat="36.742456" lon="-4.983175">
        <ele>920.624</ele>
        <time>2011-06-05T10:12:30Z</time>
      </trkpt>
      <trkpt lat="36.742502" lon="-4.982978">
        <ele>922.407</ele>
        <time>2011-06-05T10:12:39Z</time>
      </trkpt>
      <trkpt lat="36.742538" lon="-4.982874">
        <ele>921.977</ele>
        <time>2011-06-05T10:12:43Z</time>
      </trkpt>
      <trkpt lat="36.742640" lon="-4.982671">
        <ele>922.673</ele>
        <time>2011-06-05T10:12:51Z</time>
      </trkpt>
      <trkpt lat="36.742759" lon="-4.982493">
        <ele>921.961</ele>
        <time>2011-06-05T10:12:59Z</time>
      </trkpt>
      <trkpt lat="36.742857" lon="-4.982252">
        <ele>920.356</ele>
        <time>2011-06-05T10:13:06Z</time>
      </trkpt>
      <trkpt lat="36.742986" lon="-4.982008">
        <ele>919.557</ele>
        <time>2011-06-05T10:13:13Z</time>
      </trkpt>
      <trkpt lat="36.743114" lon="-4.981800">
        <ele>918.217</ele>
        <time>2011-06-05T10:13:20Z</time>
      </trkpt>
      <trkpt lat="36.743211" lon="-4.981640">
        <ele>916.893</ele>
        <time>2011-06-05T10:13:26Z</time>
      </trkpt>
      <trkpt lat="36.743279" lon="-4.981498">
        <ele>915.128</ele>
        <time>2011-06-05T10:13:31Z</time>
      </trkpt>
      <trkpt lat="36.743327" lon="-4.981266">
        <ele>913.389</ele>
        <time>2011-06-05T10:13:37Z</time>
      </trkpt>
      <trkpt lat="36.743357" lon="-4.980953">
        <ele>910.517</ele>
        <time>2011-06-05T10:13:43Z</time>
      </trkpt>
      <trkpt lat="36.743381" lon="-4.980562">
        <ele>909.707</ele>
        <time>2011-06-05T10:13:49Z</time>
      </trkpt>
      <trkpt lat="36.743378" lon="-4.980105">
        <ele>906.363</ele>
        <time>2011-06-05T10:13:55Z</time>
      </trkpt>
      <trkpt lat="36.743416" lon="-4.979775">
        <ele>904.759</ele>
        <time>2011-06-05T10:13:59Z</time>
      </trkpt>
      <trkpt lat="36.743475" lon="-4.979425">
        <ele>902.697</ele>
        <time>2011-06-05T10:14:03Z</time>
      </trkpt>
      <trkpt lat="36.743455" lon="-4.979138">
        <ele>899.942</ele>
        <time>2011-06-05T10:14:07Z</time>
      </trkpt>
      <trkpt lat="36.743430" lon="-4.979081">
        <ele>900.023</ele>
        <time>2011-06-05T10:14:08Z</time>
      </trkpt>
      <trkpt lat="36.743374" lon="-4.978985">
        <ele>898.993</ele>
        <time>2011-06-05T10:14:10Z</time>
      </trkpt>
      <trkpt lat="36.743313" lon="-4.978902">
        <ele>898.119</ele>
        <time>2011-06-05T10:14:12Z</time>
      </trkpt>
      <trkpt lat="36.743151" lon="-4.978754">
        <ele>896.231</ele>
        <time>2011-06-05T10:14:18Z</time>
      </trkpt>
      <trkpt lat="36.742976" lon="-4.978633">
        <ele>894.661</ele>
        <time>2011-06-05T10:14:25Z</time>
      </trkpt>
      <trkpt lat="36.742843" lon="-4.978604">
        <ele>891.707</ele>
        <time>2011-06-05T10:14:30Z</time>
      </trkpt>
      <trkpt lat="36.742667" lon="-4.978634">
        <ele>890.607</ele>
        <time>2011-06-05T10:14:36Z</time>
      </trkpt>
      <trkpt lat="36.742586" lon="-4.978652">
        <ele>891.224</ele>
        <time>2011-06-05T10:14:41Z</time>
      </trkpt>
      <trkpt lat="36.742507" lon="-4.978662">
        <ele>888.530</ele>
        <time>2011-06-05T10:14:48Z</time>
      </trkpt>
      <trkpt lat="36.742497" lon="-4.978653">
        <ele>888.718</ele>
        <time>2011-06-05T10:14:49Z</time>
      </trkpt>
      <trkpt lat="36.742413" lon="-4.978545">
        <ele>889.053</ele>
        <time>2011-06-05T10:14:57Z</time>
      </trkpt>
      <trkpt lat="36.742285" lon="-4.978423">
        <ele>887.564</ele>
        <time>2011-06-05T10:15:03Z</time>
      </trkpt>
      <trkpt lat="36.742151" lon="-4.978366">
        <ele>885.814</ele>
        <time>2011-06-05T10:15:08Z</time>
      </trkpt>
      <trkpt lat="36.741992" lon="-4.978249">
        <ele>884.050</ele>
        <time>2011-06-05T10:15:14Z</time>
      </trkpt>
      <trkpt lat="36.741785" lon="-4.978251">
        <ele>882.721</ele>
        <time>2011-06-05T10:15:20Z</time>
      </trkpt>
      <trkpt lat="36.741743" lon="-4.978248">
        <ele>882.441</ele>
        <time>2011-06-05T10:15:21Z</time>
      </trkpt>
      <trkpt lat="36.741557" lon="-4.978265">
        <ele>881.105</ele>
        <time>2011-06-05T10:15:25Z</time>
      </trkpt>
      <trkpt lat="36.741376" lon="-4.978257">
        <ele>880.107</ele>
        <time>2011-06-05T10:15:29Z</time>
      </trkpt>
      <trkpt lat="36.741215" lon="-4.978266">
        <ele>879.013</ele>
        <time>2011-06-05T10:15:34Z</time>
      </trkpt>
      <trkpt lat="36.741088" lon="-4.978297">
        <ele>879.599</ele>
        <time>2011-06-05T10:15:41Z</time>
      </trkpt>
      <trkpt lat="36.741054" lon="-4.978271">
        <ele>880.377</ele>
        <time>2011-06-05T10:15:45Z</time>
      </trkpt>
      <trkpt lat="36.741123" lon="-4.978261">
        <ele>876.932</ele>
        <time>2011-06-05T10:18:50Z</time>
      </trkpt>
      <trkpt lat="36.741331" lon="-4.978231">
        <ele>877.213</ele>
        <time>2011-06-05T10:19:01Z</time>
      </trkpt>
      <trkpt lat="36.741524" lon="-4.978261">
        <ele>877.733</ele>
        <time>2011-06-05T10:19:08Z</time>
      </trkpt>
      <trkpt lat="36.741629" lon="-4.978273">
        <ele>877.889</ele>
        <time>2011-06-05T10:19:13Z</time>
      </trkpt>
      <trkpt lat="36.741764" lon="-4.978247">
        <ele>879.253</ele>
        <time>2011-06-05T10:19:22Z</time>
      </trkpt>
      <trkpt lat="36.741856" lon="-4.978259">
        <ele>880.304</ele>
        <time>2011-06-05T10:19:28Z</time>
      </trkpt>
      <trkpt lat="36.741887" lon="-4.978259">
        <ele>881.114</ele>
        <time>2011-06-05T10:19:30Z</time>
      </trkpt>
      <trkpt lat="36.742007" lon="-4.978261">
        <ele>883.007</ele>
        <time>2011-06-05T10:19:38Z</time>
      </trkpt>
      <trkpt lat="36.742112" lon="-4.978325">
        <ele>883.916</ele>
        <time>2011-06-05T10:19:46Z</time>
      </trkpt>
      <trkpt lat="36.742221" lon="-4.978418">
        <ele>884.862</ele>
        <time>2011-06-05T10:19:55Z</time>
      </trkpt>
      <trkpt lat="36.742326" lon="-4.978470">
        <ele>887.270</ele>
        <time>2011-06-05T10:20:03Z</time>
      </trkpt>
      <trkpt lat="36.742443" lon="-4.978576">
        <ele>885.915</ele>
        <time>2011-06-05T10:20:13Z</time>
      </trkpt>
      <trkpt lat="36.742524" lon="-4.978688">
        <ele>886.856</ele>
        <time>2011-06-05T10:20:21Z</time>
      </trkpt>
      <trkpt lat="36.742626" lon="-4.978715">
        <ele>886.736</ele>
        <time>2011-06-05T10:20:28Z</time>
      </trkpt>
      <trkpt lat="36.742752" lon="-4.978697">
        <ele>887.992</ele>
        <time>2011-06-05T10:20:36Z</time>
      </trkpt>
      <trkpt lat="36.742895" lon="-4.978638">
        <ele>890.038</ele>
        <time>2011-06-05T10:20:46Z</time>
      </trkpt>
      <trkpt lat="36.743033" lon="-4.978681">
        <ele>892.170</ele>
        <time>2011-06-05T10:20:56Z</time>
      </trkpt>
      <trkpt lat="36.743139" lon="-4.978765">
        <ele>892.617</ele>
        <time>2011-06-05T10:21:04Z</time>
      </trkpt>
      <trkpt lat="36.743264" lon="-4.978900">
        <ele>895.107</ele>
        <time>2011-06-05T10:21:14Z</time>
      </trkpt>
      <trkpt lat="36.743347" lon="-4.979023">
        <ele>896.184</ele>
        <time>2011-06-05T10:21:21Z</time>
      </trkpt>
      <trkpt lat="36.743455" lon="-4.979173">
        <ele>897.510</ele>
        <time>2011-06-05T10:21:30Z</time>
      </trkpt>
      <trkpt lat="36.743499" lon="-4.979361">
        <ele>898.958</ele>
        <time>2011-06-05T10:21:39Z</time>
      </trkpt>
      <trkpt lat="36.743473" lon="-4.979555">
        <ele>899.733</ele>
        <time>2011-06-05T10:21:48Z</time>
      </trkpt>
      <trkpt lat="36.743440" lon="-4.979748">
        <ele>901.124</ele>
        <time>2011-06-05T10:21:57Z</time>
      </trkpt>
      <trkpt lat="36.743417" lon="-4.979912">
        <ele>902.814</ele>
        <time>2011-06-05T10:22:05Z</time>
      </trkpt>
      <trkpt lat="36.743388" lon="-4.980152">
        <ele>904.160</ele>
        <time>2011-06-05T10:22:16Z</time>
      </trkpt>
      <trkpt lat="36.743398" lon="-4.980332">
        <ele>904.919</ele>
        <time>2011-06-05T10:22:24Z</time>
      </trkpt>
      <trkpt lat="36.743406" lon="-4.980486">
        <ele>906.109</ele>
        <time>2011-06-05T10:22:31Z</time>
      </trkpt>
      <trkpt lat="36.743402" lon="-4.980709">
        <ele>906.319</ele>
        <time>2011-06-05T10:22:41Z</time>
      </trkpt>
      <trkpt lat="36.743388" lon="-4.980883">
        <ele>908.107</ele>
        <time>2011-06-05T10:22:49Z</time>
      </trkpt>
      <trkpt lat="36.743370" lon="-4.981153">
        <ele>910.972</ele>
        <time>2011-06-05T10:23:01Z</time>
      </trkpt>
      <trkpt lat="36.743354" lon="-4.981296">
        <ele>911.688</ele>
        <time>2011-06-05T10:23:08Z</time>
      </trkpt>
      <trkpt lat="36.743323" lon="-4.981523">
        <ele>913.176</ele>
        <time>2011-06-05T10:23:19Z</time>
      </trkpt>
      <trkpt lat="36.743259" lon="-4.981673">
        <ele>914.091</ele>
        <time>2011-06-05T10:23:27Z</time>
      </trkpt>
      <trkpt lat="36.743141" lon="-4.981872">
        <ele>915.172</ele>
        <time>2011-06-05T10:23:38Z</time>
      </trkpt>
      <trkpt lat="36.743031" lon="-4.982061">
        <ele>916.982</ele>
        <time>2011-06-05T10:23:48Z</time>
      </trkpt>
      <trkpt lat="36.742933" lon="-4.982253">
        <ele>918.998</ele>
        <time>2011-06-05T10:23:58Z</time>
      </trkpt>
      <trkpt lat="36.742848" lon="-4.982428">
        <ele>919.592</ele>
        <time>2011-06-05T10:24:07Z</time>
      </trkpt>
      <trkpt lat="36.742769" lon="-4.982587">
        <ele>921.373</ele>
        <time>2011-06-05T10:24:16Z</time>
      </trkpt>
      <trkpt lat="36.742695" lon="-4.982706">
        <ele>920.920</ele>
        <time>2011-06-05T10:24:23Z</time>
      </trkpt>
      <trkpt lat="36.742686" lon="-4.982722">
        <ele>920.407</ele>
        <time>2011-06-05T10:24:25Z</time>
      </trkpt>
      <trkpt lat="36.742673" lon="-4.982729">
        <ele>920.430</ele>
        <time>2011-06-05T10:24:50Z</time>
      </trkpt>
      <trkpt lat="36.742637" lon="-4.982791">
        <ele>920.326</ele>
        <time>2011-06-05T10:24:54Z</time>
      </trkpt>
      <trkpt lat="36.742564" lon="-4.982934">
        <ele>920.754</ele>
        <time>2011-06-05T10:25:01Z</time>
      </trkpt>
      <trkpt lat="36.742505" lon="-4.983115">
        <ele>920.029</ele>
        <time>2011-06-05T10:25:08Z</time>
      </trkpt>
      <trkpt lat="36.742457" lon="-4.983300">
        <ele>918.740</ele>
        <time>2011-06-05T10:25:17Z</time>
      </trkpt>
      <trkpt lat="36.742461" lon="-4.983343">
        <ele>918.540</ele>
        <time>2011-06-05T10:25:23Z</time>
      </trkpt>
      <trkpt lat="36.742462" lon="-4.983318">
        <ele>918.356</ele>
        <time>2011-06-05T10:25:51Z</time>
      </trkpt>
      <trkpt lat="36.742461" lon="-4.983317">
        <ele>918.118</ele>
        <time>2011-06-05T10:26:12Z</time>
      </trkpt>
      <trkpt lat="36.742424" lon="-4.983343">
        <ele>917.898</ele>
        <time>2011-06-05T10:26:36Z</time>
      </trkpt>
      <trkpt lat="36.742448" lon="-4.983353">
        <ele>917.517</ele>
        <time>2011-06-05T10:26:47Z</time>
      </trkpt>
      <trkpt lat="36.742456" lon="-4.983312">
        <ele>917.607</ele>
        <time>2011-06-05T10:26:52Z</time>
      </trkpt>
      <trkpt lat="36.742468" lon="-4.983297">
        <ele>917.732</ele>
        <time>2011-06-05T10:26:56Z</time>
      </trkpt>
      <trkpt lat="36.742472" lon="-4.983296">
        <ele>916.518</ele>
        <time>2011-06-05T10:26:58Z</time>
      </trkpt>
      <trkpt lat="36.742478" lon="-4.983363">
        <ele>917.426</ele>
        <time>2011-06-05T10:30:05Z</time>
      </trkpt>
      <trkpt lat="36.742485" lon="-4.983405">
        <ele>917.491</ele>
        <time>2011-06-05T10:30:10Z</time>
      </trkpt>
      <trkpt lat="36.742494" lon="-4.983427">
        <ele>917.232</ele>
        <time>2011-06-05T10:30:11Z</time>
      </trkpt>
      <trkpt lat="36.742512" lon="-4.983448">
        <ele>917.172</ele>
        <time>2011-06-05T10:30:12Z</time>
      </trkpt>
      <trkpt lat="36.742610" lon="-4.983598">
        <ele>916.618</ele>
        <time>2011-06-05T10:30:17Z</time>
      </trkpt>
      <trkpt lat="36.742733" lon="-4.983911">
        <ele>914.933</ele>
        <time>2011-06-05T10:30:23Z</time>
      </trkpt>
      <trkpt lat="36.742783" lon="-4.984057">
        <ele>913.323</ele>
        <time>2011-06-05T10:30:26Z</time>
      </trkpt>
      <trkpt lat="36.742872" lon="-4.984193">
        <ele>911.415</ele>
        <time>2011-06-05T10:30:30Z</time>
      </trkpt>
      <trkpt lat="36.742908" lon="-4.984198">
        <ele>911.907</ele>
        <time>2011-06-05T10:30:31Z</time>
      </trkpt>
      <trkpt lat="36.742985" lon="-4.984091">
        <ele>910.194</ele>
        <time>2011-06-05T10:30:35Z</time>
      </trkpt>
      <trkpt lat="36.742983" lon="-4.984044">
        <ele>909.550</ele>
        <time>2011-06-05T10:30:36Z</time>
      </trkpt>
      <trkpt lat="36.742959" lon="-4.983879">
        <ele>908.228</ele>
        <time>2011-06-05T10:30:39Z</time>
      </trkpt>
      <trkpt lat="36.742947" lon="-4.983634">
        <ele>907.653</ele>
        <time>2011-06-05T10:30:43Z</time>
      </trkpt>
      <trkpt lat="36.742938" lon="-4.983512">
        <ele>906.844</ele>
        <time>2011-06-05T10:30:45Z</time>
      </trkpt>
      <trkpt lat="36.742909" lon="-4.983313">
        <ele>905.034</ele>
        <time>2011-06-05T10:30:48Z</time>
      </trkpt>
      <trkpt lat="36.742937" lon="-4.983064">
        <ele>902.580</ele>
        <time>2011-06-05T10:30:53Z</time>
      </trkpt>
      <trkpt lat="36.743009" lon="-4.983144">
        <ele>901.477</ele>
        <time>2011-06-05T10:30:55Z</time>
      </trkpt>
      <trkpt lat="36.743203" lon="-4.983517">
        <ele>897.461</ele>
        <time>2011-06-05T10:31:01Z</time>
      </trkpt>
      <trkpt lat="36.743266" lon="-4.983620">
        <ele>896.027</ele>
        <time>2011-06-05T10:31:03Z</time>
      </trkpt>
      <trkpt lat="36.743421" lon="-4.983625">
        <ele>894.207</ele>
        <time>2011-06-05T10:31:07Z</time>
      </trkpt>
      <trkpt lat="36.743445" lon="-4.983442">
        <ele>892.418</ele>
        <time>2011-06-05T10:31:10Z</time>
      </trkpt>
      <trkpt lat="36.743425" lon="-4.983369">
        <ele>892.044</ele>
        <time>2011-06-05T10:31:11Z</time>
      </trkpt>
      <trkpt lat="36.743368" lon="-4.983128">
        <ele>892.062</ele>
        <time>2011-06-05T10:31:14Z</time>
      </trkpt>
      <trkpt lat="36.743402" lon="-4.982906">
        <ele>888.377</ele>
        <time>2011-06-05T10:31:18Z</time>
      </trkpt>
      <trkpt lat="36.743482" lon="-4.982929">
        <ele>887.788</ele>
        <time>2011-06-05T10:31:20Z</time>
      </trkpt>
      <trkpt lat="36.743555" lon="-4.983025">
        <ele>887.098</ele>
        <time>2011-06-05T10:31:22Z</time>
      </trkpt>
      <trkpt lat="36.743749" lon="-4.983198">
        <ele>884.014</ele>
        <time>2011-06-05T10:31:27Z</time>
      </trkpt>
      <trkpt lat="36.743797" lon="-4.983151">
        <ele>882.256</ele>
        <time>2011-06-05T10:31:30Z</time>
      </trkpt>
      <trkpt lat="36.743787" lon="-4.983124">
        <ele>881.459</ele>
        <time>2011-06-05T10:31:34Z</time>
      </trkpt>
      <trkpt lat="36.743748" lon="-4.982959">
        <ele>881.214</ele>
        <time>2011-06-05T10:32:29Z</time>
      </trkpt>
      <trkpt lat="36.743673" lon="-4.982744">
        <ele>878.607</ele>
        <time>2011-06-05T10:32:35Z</time>
      </trkpt>
      <trkpt lat="36.743647" lon="-4.982651">
        <ele>878.896</ele>
        <time>2011-06-05T10:32:37Z</time>
      </trkpt>
      <trkpt lat="36.743670" lon="-4.982383">
        <ele>876.782</ele>
        <time>2011-06-05T10:32:42Z</time>
      </trkpt>
      <trkpt lat="36.743772" lon="-4.982193">
        <ele>876.170</ele>
        <time>2011-06-05T10:32:46Z</time>
      </trkpt>
      <trkpt lat="36.743894" lon="-4.981863">
        <ele>872.735</ele>
        <time>2011-06-05T10:32:52Z</time>
      </trkpt>
      <trkpt lat="36.743927" lon="-4.981703">
        <ele>871.296</ele>
        <time>2011-06-05T10:32:55Z</time>
      </trkpt>
      <trkpt lat="36.744056" lon="-4.981241">
        <ele>867.256</ele>
        <time>2011-06-05T10:33:04Z</time>
      </trkpt>
      <trkpt lat="36.744125" lon="-4.980970">
        <ele>863.982</ele>
        <time>2011-06-05T10:33:09Z</time>
      </trkpt>
      <trkpt lat="36.744183" lon="-4.980733">
        <ele>861.196</ele>
        <time>2011-06-05T10:33:14Z</time>
      </trkpt>
      <trkpt lat="36.744248" lon="-4.980615">
        <ele>858.931</ele>
        <time>2011-06-05T10:33:19Z</time>
      </trkpt>
      <trkpt lat="36.744257" lon="-4.980611">
        <ele>858.924</ele>
        <time>2011-06-05T10:33:20Z</time>
      </trkpt>
      <trkpt lat="36.744261" lon="-4.980673">
        <ele>860.007</ele>
        <time>2011-06-05T10:34:16Z</time>
      </trkpt>
      <trkpt lat="36.744328" lon="-4.980762">
        <ele>857.920</ele>
        <time>2011-06-05T10:34:20Z</time>
      </trkpt>
      <trkpt lat="36.744384" lon="-4.981057">
        <ele>855.146</ele>
        <time>2011-06-05T10:34:25Z</time>
      </trkpt>
      <trkpt lat="36.744403" lon="-4.981291">
        <ele>854.224</ele>
        <time>2011-06-05T10:34:28Z</time>
      </trkpt>
      <trkpt lat="36.744361" lon="-4.981593">
        <ele>850.599</ele>
        <time>2011-06-05T10:34:32Z</time>
      </trkpt>
      <trkpt lat="36.744404" lon="-4.981942">
        <ele>848.310</ele>
        <time>2011-06-05T10:34:37Z</time>
      </trkpt>
      <trkpt lat="36.744500" lon="-4.982019">
        <ele>847.320</ele>
        <time>2011-06-05T10:34:39Z</time>
      </trkpt>
      <trkpt lat="36.744894" lon="-4.982264">
        <ele>845.136</ele>
        <time>2011-06-05T10:34:45Z</time>
      </trkpt>
      <trkpt lat="36.745055" lon="-4.982370">
        <ele>844.139</ele>
        <time>2011-06-05T10:34:47Z</time>
      </trkpt>
      <trkpt lat="36.745554" lon="-4.982547">
        <ele>841.701</ele>
        <time>2011-06-05T10:34:53Z</time>
      </trkpt>
      <trkpt lat="36.745919" lon="-4.982584">
        <ele>841.321</ele>
        <time>2011-06-05T10:34:58Z</time>
      </trkpt>
      <trkpt lat="36.746199" lon="-4.982695">
        <ele>840.407</ele>
        <time>2011-06-05T10:35:03Z</time>
      </trkpt>
      <trkpt lat="36.746244" lon="-4.982742">
        <ele>840.214</ele>
        <time>2011-06-05T10:35:04Z</time>
      </trkpt>
      <trkpt lat="36.746653" lon="-4.983194">
        <ele>838.960</ele>
        <time>2011-06-05T10:35:13Z</time>
      </trkpt>
      <trkpt lat="36.746900" lon="-4.983441">
        <ele>838.648</ele>
        <time>2011-06-05T10:35:18Z</time>
      </trkpt>
      <trkpt lat="36.747132" lon="-4.983490">
        <ele>838.873</ele>
        <time>2011-06-05T10:35:22Z</time>
      </trkpt>
      <trkpt lat="36.747559" lon="-4.983411">
        <ele>839.694</ele>
        <time>2011-06-05T10:35:30Z</time>
      </trkpt>
      <trkpt lat="36.747821" lon="-4.983431">
        <ele>840.044</ele>
        <time>2011-06-05T10:35:35Z</time>
      </trkpt>
      <trkpt lat="36.747968" lon="-4.983466">
        <ele>840.130</ele>
        <time>2011-06-05T10:35:38Z</time>
      </trkpt>
      <trkpt lat="36.748152" lon="-4.983579">
        <ele>839.699</ele>
        <time>2011-06-05T10:35:42Z</time>
      </trkpt>
      <trkpt lat="36.748390" lon="-4.983735">
        <ele>838.407</ele>
        <time>2011-06-05T10:35:46Z</time>
      </trkpt>
      <trkpt lat="36.748494" lon="-4.983879">
        <ele>839.127</ele>
        <time>2011-06-05T10:35:48Z</time>
      </trkpt>
      <trkpt lat="36.748907" lon="-4.984527">
        <ele>831.107</ele>
        <time>2011-06-05T10:35:56Z</time>
      </trkpt>
      <trkpt lat="36.748974" lon="-4.984597">
        <ele>831.640</ele>
        <time>2011-06-05T10:35:57Z</time>
      </trkpt>
      <trkpt lat="36.749043" lon="-4.984663">
        <ele>831.556</ele>
        <time>2011-06-05T10:35:58Z</time>
      </trkpt>
      <trkpt lat="36.749322" lon="-4.984865">
        <ele>828.494</ele>
        <time>2011-06-05T10:36:02Z</time>
      </trkpt>
      <trkpt lat="36.749550" lon="-4.985181">
        <ele>824.449</ele>
        <time>2011-06-05T10:36:07Z</time>
      </trkpt>
      <trkpt lat="36.749553" lon="-4.985308">
        <ele>823.280</ele>
        <time>2011-06-05T10:36:09Z</time>
      </trkpt>
      <trkpt lat="36.749443" lon="-4.985389">
        <ele>822.530</ele>
        <time>2011-06-05T10:36:12Z</time>
      </trkpt>
      <trkpt lat="36.749260" lon="-4.985397">
        <ele>820.956</ele>
        <time>2011-06-05T10:36:15Z</time>
      </trkpt>
      <trkpt lat="36.749124" lon="-4.985436">
        <ele>820.257</ele>
        <time>2011-06-05T10:36:17Z</time>
      </trkpt>
      <trkpt lat="36.748958" lon="-4.985582">
        <ele>817.900</ele>
        <time>2011-06-05T10:36:20Z</time>
      </trkpt>
      <trkpt lat="36.748872" lon="-4.985686">
        <ele>816.920</ele>
        <time>2011-06-05T10:36:22Z</time>
      </trkpt>
      <trkpt lat="36.748812" lon="-4.985805">
        <ele>816.107</ele>
        <time>2011-06-05T10:36:24Z</time>
      </trkpt>
      <trkpt lat="36.748786" lon="-4.986093">
        <ele>814.816</ele>
        <time>2011-06-05T10:36:28Z</time>
      </trkpt>
      <trkpt lat="36.748759" lon="-4.986377">
        <ele>811.942</ele>
        <time>2011-06-05T10:36:32Z</time>
      </trkpt>
      <trkpt lat="36.748689" lon="-4.986502">
        <ele>811.680</ele>
        <time>2011-06-05T10:36:34Z</time>
      </trkpt>
      <trkpt lat="36.748551" lon="-4.986842">
        <ele>809.565</ele>
        <time>2011-06-05T10:36:39Z</time>
      </trkpt>
      <trkpt lat="36.748460" lon="-4.987063">
        <ele>808.016</ele>
        <time>2011-06-05T10:36:42Z</time>
      </trkpt>
      <trkpt lat="36.748426" lon="-4.987137">
        <ele>807.586</ele>
        <time>2011-06-05T10:36:43Z</time>
      </trkpt>
      <trkpt lat="36.748372" lon="-4.987292">
        <ele>806.592</ele>
        <time>2011-06-05T10:36:45Z</time>
      </trkpt>
      <trkpt lat="36.748221" lon="-4.987578">
        <ele>802.464</ele>
        <time>2011-06-05T10:36:49Z</time>
      </trkpt>
      <trkpt lat="36.748138" lon="-4.987698">
        <ele>801.806</ele>
        <time>2011-06-05T10:36:51Z</time>
      </trkpt>
      <trkpt lat="36.747927" lon="-4.988236">
        <ele>799.816</ele>
        <time>2011-06-05T10:36:58Z</time>
      </trkpt>
      <trkpt lat="36.747702" lon="-4.988776">
        <ele>796.107</ele>
        <time>2011-06-05T10:37:05Z</time>
      </trkpt>
      <trkpt lat="36.747587" lon="-4.988958">
        <ele>794.357</ele>
        <time>2011-06-05T10:37:08Z</time>
      </trkpt>
      <trkpt lat="36.747587" lon="-4.989170">
        <ele>791.013</ele>
        <time>2011-06-05T10:37:12Z</time>
      </trkpt>
      <trkpt lat="36.747721" lon="-4.989200">
        <ele>791.181</ele>
        <time>2011-06-05T10:37:15Z</time>
      </trkpt>
      <trkpt lat="36.747966" lon="-4.989168">
        <ele>789.646</ele>
        <time>2011-06-05T10:37:19Z</time>
      </trkpt>
      <trkpt lat="36.748033" lon="-4.989146">
        <ele>789.197</ele>
        <time>2011-06-05T10:37:20Z</time>
      </trkpt>
      <trkpt lat="36.748344" lon="-4.989032">
        <ele>784.167</ele>
        <time>2011-06-05T10:37:26Z</time>
      </trkpt>
      <trkpt lat="36.748439" lon="-4.988993">
        <ele>782.323</ele>
        <time>2011-06-05T10:37:29Z</time>
      </trkpt>
      <trkpt lat="36.748464" lon="-4.988975">
        <ele>781.794</ele>
        <time>2011-06-05T10:37:31Z</time>
      </trkpt>
      <trkpt lat="36.748459" lon="-4.988963">
        <ele>781.557</ele>
        <time>2011-06-05T10:37:50Z</time>
      </trkpt>
      <trkpt lat="36.748481" lon="-4.988932">
        <ele>781.822</ele>
        <time>2011-06-05T10:38:10Z</time>
      </trkpt>
      <trkpt lat="36.748488" lon="-4.988907">
        <ele>782.407</ele>
        <time>2011-06-05T10:38:12Z</time>
      </trkpt>
      <trkpt lat="36.748542" lon="-4.988795">
        <ele>782.120</ele>
        <time>2011-06-05T10:38:18Z</time>
      </trkpt>
      <trkpt lat="36.748655" lon="-4.988664">
        <ele>782.646</ele>
        <time>2011-06-05T10:38:24Z</time>
      </trkpt>
      <trkpt lat="36.748893" lon="-4.988444">
        <ele>782.754</ele>
        <time>2011-06-05T10:38:32Z</time>
      </trkpt>
      <trkpt lat="36.748968" lon="-4.988405">
        <ele>781.589</ele>
        <time>2011-06-05T10:38:34Z</time>
      </trkpt>
      <trkpt lat="36.749256" lon="-4.988203">
        <ele>782.520</ele>
        <time>2011-06-05T10:38:42Z</time>
      </trkpt>
      <trkpt lat="36.749518" lon="-4.988038">
        <ele>781.720</ele>
        <time>2011-06-05T10:38:49Z</time>
      </trkpt>
      <trkpt lat="36.749600" lon="-4.988004">
        <ele>781.686</ele>
        <time>2011-06-05T10:38:51Z</time>
      </trkpt>
      <trkpt lat="36.749682" lon="-4.987974">
        <ele>781.741</ele>
        <time>2011-06-05T10:38:53Z</time>
      </trkpt>
      <trkpt lat="36.749870" lon="-4.987804">
        <ele>781.381</ele>
        <time>2011-06-05T10:38:58Z</time>
      </trkpt>
      <trkpt lat="36.749990" lon="-4.987664">
        <ele>782.309</ele>
        <time>2011-06-05T10:39:01Z</time>
      </trkpt>
      <trkpt lat="36.750268" lon="-4.987518">
        <ele>780.207</ele>
        <time>2011-06-05T10:39:06Z</time>
      </trkpt>
      <trkpt lat="36.750396" lon="-4.987440">
        <ele>779.575</ele>
        <time>2011-06-05T10:39:08Z</time>
      </trkpt>
      <trkpt lat="36.750616" lon="-4.987203">
        <ele>777.281</ele>
        <time>2011-06-05T10:39:12Z</time>
      </trkpt>
      <trkpt lat="36.750802" lon="-4.986928">
        <ele>774.539</ele>
        <time>2011-06-05T10:39:16Z</time>
      </trkpt>
      <trkpt lat="36.750824" lon="-4.986850">
        <ele>774.524</ele>
        <time>2011-06-05T10:39:17Z</time>
      </trkpt>
      <trkpt lat="36.751023" lon="-4.986722">
        <ele>772.255</ele>
        <time>2011-06-05T10:39:21Z</time>
      </trkpt>
      <trkpt lat="36.751100" lon="-4.986715">
        <ele>772.235</ele>
        <time>2011-06-05T10:39:22Z</time>
      </trkpt>
      <trkpt lat="36.751176" lon="-4.986705">
        <ele>771.561</ele>
        <time>2011-06-05T10:39:23Z</time>
      </trkpt>
      <trkpt lat="36.751253" lon="-4.986694">
        <ele>770.723</ele>
        <time>2011-06-05T10:39:24Z</time>
      </trkpt>
      <trkpt lat="36.751650" lon="-4.986775">
        <ele>764.383</ele>
        <time>2011-06-05T10:39:29Z</time>
      </trkpt>
      <trkpt lat="36.751791" lon="-4.986837">
        <ele>761.911</ele>
        <time>2011-06-05T10:39:31Z</time>
      </trkpt>
      <trkpt lat="36.751975" lon="-4.986794">
        <ele>759.407</ele>
        <time>2011-06-05T10:39:34Z</time>
      </trkpt>
      <trkpt lat="36.752165" lon="-4.986707">
        <ele>758.553</ele>
        <time>2011-06-05T10:39:37Z</time>
      </trkpt>
      <trkpt lat="36.752379" lon="-4.986803">
        <ele>756.679</ele>
        <time>2011-06-05T10:39:40Z</time>
      </trkpt>
      <trkpt lat="36.752441" lon="-4.986855">
        <ele>755.887</ele>
        <time>2011-06-05T10:39:41Z</time>
      </trkpt>
      <trkpt lat="36.752580" lon="-4.987176">
        <ele>753.852</ele>
        <time>2011-06-05T10:39:46Z</time>
      </trkpt>
      <trkpt lat="36.752517" lon="-4.987313">
        <ele>753.323</ele>
        <time>2011-06-05T10:39:48Z</time>
      </trkpt>
      <trkpt lat="36.752380" lon="-4.987734">
        <ele>752.643</ele>
        <time>2011-06-05T10:39:54Z</time>
      </trkpt>
      <trkpt lat="36.752448" lon="-4.987901">
        <ele>752.679</ele>
        <time>2011-06-05T10:39:57Z</time>
      </trkpt>
      <trkpt lat="36.752561" lon="-4.987920">
        <ele>752.383</ele>
        <time>2011-06-05T10:39:59Z</time>
      </trkpt>
      <trkpt lat="36.752626" lon="-4.987904">
        <ele>752.525</ele>
        <time>2011-06-05T10:40:00Z</time>
      </trkpt>
      <trkpt lat="36.753149" lon="-4.987723">
        <ele>746.617</ele>
        <time>2011-06-05T10:40:06Z</time>
      </trkpt>
      <trkpt lat="36.753240" lon="-4.987668">
        <ele>745.907</ele>
        <time>2011-06-05T10:40:07Z</time>
      </trkpt>
      <trkpt lat="36.753464" lon="-4.987484">
        <ele>742.299</ele>
        <time>2011-06-05T10:40:10Z</time>
      </trkpt>
      <trkpt lat="36.753599" lon="-4.987344">
        <ele>740.895</ele>
        <time>2011-06-05T10:40:12Z</time>
      </trkpt>
      <trkpt lat="36.753836" lon="-4.987149">
        <ele>738.173</ele>
        <time>2011-06-05T10:40:15Z</time>
      </trkpt>
      <trkpt lat="36.754256" lon="-4.986989">
        <ele>733.378</ele>
        <time>2011-06-05T10:40:20Z</time>
      </trkpt>
      <trkpt lat="36.754454" lon="-4.987063">
        <ele>732.659</ele>
        <time>2011-06-05T10:40:23Z</time>
      </trkpt>
      <trkpt lat="36.754551" lon="-4.987205">
        <ele>730.599</ele>
        <time>2011-06-05T10:40:25Z</time>
      </trkpt>
      <trkpt lat="36.754699" lon="-4.987455">
        <ele>729.125</ele>
        <time>2011-06-05T10:40:28Z</time>
      </trkpt>
      <trkpt lat="36.755089" lon="-4.987909">
        <ele>726.845</ele>
        <time>2011-06-05T10:40:34Z</time>
      </trkpt>
      <trkpt lat="36.755240" lon="-4.988029">
        <ele>726.547</ele>
        <time>2011-06-05T10:40:36Z</time>
      </trkpt>
      <trkpt lat="36.755649" lon="-4.988250">
        <ele>721.711</ele>
        <time>2011-06-05T10:40:41Z</time>
      </trkpt>
      <trkpt lat="36.755817" lon="-4.988311">
        <ele>720.607</ele>
        <time>2011-06-05T10:40:43Z</time>
      </trkpt>
      <trkpt lat="36.755996" lon="-4.988350">
        <ele>719.955</ele>
        <time>2011-06-05T10:40:45Z</time>
      </trkpt>
      <trkpt lat="36.756257" lon="-4.988379">
        <ele>718.021</ele>
        <time>2011-06-05T10:40:48Z</time>
      </trkpt>
      <trkpt lat="36.756573" lon="-4.988349">
        <ele>716.629</ele>
        <time>2011-06-05T10:40:52Z</time>
      </trkpt>
      <trkpt lat="36.756930" lon="-4.988333">
        <ele>714.454</ele>
        <time>2011-06-05T10:40:57Z</time>
      </trkpt>
      <trkpt lat="36.757156" lon="-4.988273">
        <ele>716.135</ele>
        <time>2011-06-05T10:41:02Z</time>
      </trkpt>
      <trkpt lat="36.757277" lon="-4.988238">
        <ele>716.925</ele>
        <time>2011-06-05T10:41:07Z</time>
      </trkpt>
      <trkpt lat="36.757461" lon="-4.988203">
        <ele>717.611</ele>
        <time>2011-06-05T10:41:15Z</time>
      </trkpt>
      <trkpt lat="36.757602" lon="-4.988205">
        <ele>719.426</ele>
        <time>2011-06-05T10:41:22Z</time>
      </trkpt>
      <trkpt lat="36.757733" lon="-4.988199">
        <ele>720.747</ele>
        <time>2011-06-05T10:41:28Z</time>
      </trkpt>
      <trkpt lat="36.757902" lon="-4.988204">
        <ele>722.611</ele>
        <time>2011-06-05T10:41:35Z</time>
      </trkpt>
      <trkpt lat="36.758014" lon="-4.988123">
        <ele>723.707</ele>
        <time>2011-06-05T10:41:41Z</time>
      </trkpt>
      <trkpt lat="36.758098" lon="-4.988004">
        <ele>723.773</ele>
        <time>2011-06-05T10:41:48Z</time>
      </trkpt>
      <trkpt lat="36.758220" lon="-4.987915">
        <ele>724.949</ele>
        <time>2011-06-05T10:41:56Z</time>
      </trkpt>
      <trkpt lat="36.758329" lon="-4.987800">
        <ele>726.947</ele>
        <time>2011-06-05T10:42:05Z</time>
      </trkpt>
      <trkpt lat="36.758405" lon="-4.987653">
        <ele>728.382</ele>
        <time>2011-06-05T10:42:13Z</time>
      </trkpt>
      <trkpt lat="36.758489" lon="-4.987513">
        <ele>729.833</ele>
        <time>2011-06-05T10:42:21Z</time>
      </trkpt>
      <trkpt lat="36.758575" lon="-4.987380">
        <ele>732.183</ele>
        <time>2011-06-05T10:42:29Z</time>
      </trkpt>
      <trkpt lat="36.758699" lon="-4.987236">
        <ele>733.099</ele>
        <time>2011-06-05T10:42:39Z</time>
      </trkpt>
      <trkpt lat="36.758832" lon="-4.987122">
        <ele>734.878</ele>
        <time>2011-06-05T10:42:49Z</time>
      </trkpt>
      <trkpt lat="36.758986" lon="-4.987075">
        <ele>736.533</ele>
        <time>2011-06-05T10:42:58Z</time>
      </trkpt>
      <trkpt lat="36.759108" lon="-4.987047">
        <ele>737.926</ele>
        <time>2011-06-05T10:43:05Z</time>
      </trkpt>
      <trkpt lat="36.759249" lon="-4.987032">
        <ele>739.607</ele>
        <time>2011-06-05T10:43:13Z</time>
      </trkpt>
      <trkpt lat="36.759355" lon="-4.987077">
        <ele>739.888</ele>
        <time>2011-06-05T10:43:19Z</time>
      </trkpt>
      <trkpt lat="36.759457" lon="-4.987082">
        <ele>742.534</ele>
        <time>2011-06-05T10:43:25Z</time>
      </trkpt>
      <trkpt lat="36.759581" lon="-4.987049">
        <ele>742.942</ele>
        <time>2011-06-05T10:43:32Z</time>
      </trkpt>
      <trkpt lat="36.759717" lon="-4.987076">
        <ele>743.887</ele>
        <time>2011-06-05T10:43:40Z</time>
      </trkpt>
      <trkpt lat="36.759873" lon="-4.987105">
        <ele>745.248</ele>
        <time>2011-06-05T10:43:48Z</time>
      </trkpt>
      <trkpt lat="36.759989" lon="-4.987152">
        <ele>746.078</ele>
        <time>2011-06-05T10:43:54Z</time>
      </trkpt>
      <trkpt lat="36.760161" lon="-4.987179">
        <ele>747.464</ele>
        <time>2011-06-05T10:44:04Z</time>
      </trkpt>
      <trkpt lat="36.760315" lon="-4.987245">
        <ele>748.881</ele>
        <time>2011-06-05T10:44:12Z</time>
      </trkpt>
      <trkpt lat="36.760444" lon="-4.987380">
        <ele>749.761</ele>
        <time>2011-06-05T10:44:20Z</time>
      </trkpt>
      <trkpt lat="36.760470" lon="-4.987416">
        <ele>750.717</ele>
        <time>2011-06-05T10:44:22Z</time>
      </trkpt>
      <trkpt lat="36.760542" lon="-4.987571">
        <ele>752.207</ele>
        <time>2011-06-05T10:44:30Z</time>
      </trkpt>
      <trkpt lat="36.760598" lon="-4.987745">
        <ele>753.989</ele>
        <time>2011-06-05T10:44:39Z</time>
      </trkpt>
      <trkpt lat="36.760631" lon="-4.987858">
        <ele>754.175</ele>
        <time>2011-06-05T10:44:45Z</time>
      </trkpt>
      <trkpt lat="36.760690" lon="-4.988045">
        <ele>754.973</ele>
        <time>2011-06-05T10:44:53Z</time>
      </trkpt>
      <trkpt lat="36.760784" lon="-4.988223">
        <ele>757.178</ele>
        <time>2011-06-05T10:45:02Z</time>
      </trkpt>
      <trkpt lat="36.760824" lon="-4.988339">
        <ele>758.799</ele>
        <time>2011-06-05T10:45:08Z</time>
      </trkpt>
      <trkpt lat="36.760885" lon="-4.988531">
        <ele>759.559</ele>
        <time>2011-06-05T10:45:17Z</time>
      </trkpt>
      <trkpt lat="36.760906" lon="-4.988750">
        <ele>760.865</ele>
        <time>2011-06-05T10:45:26Z</time>
      </trkpt>
      <trkpt lat="36.760950" lon="-4.988932">
        <ele>762.097</ele>
        <time>2011-06-05T10:45:35Z</time>
      </trkpt>
      <trkpt lat="36.760995" lon="-4.989078">
        <ele>763.823</ele>
        <time>2011-06-05T10:45:42Z</time>
      </trkpt>
      <trkpt lat="36.761067" lon="-4.989255">
        <ele>765.225</ele>
        <time>2011-06-05T10:45:51Z</time>
      </trkpt>
      <trkpt lat="36.761127" lon="-4.989398">
        <ele>767.607</ele>
        <time>2011-06-05T10:45:58Z</time>
      </trkpt>
      <trkpt lat="36.761187" lon="-4.989563">
        <ele>769.180</ele>
        <time>2011-06-05T10:46:06Z</time>
      </trkpt>
      <trkpt lat="36.761248" lon="-4.989793">
        <ele>770.486</ele>
        <time>2011-06-05T10:46:17Z</time>
      </trkpt>
      <trkpt lat="36.761300" lon="-4.990018">
        <ele>772.254</ele>
        <time>2011-06-05T10:46:27Z</time>
      </trkpt>
      <trkpt lat="36.761356" lon="-4.990222">
        <ele>772.839</ele>
        <time>2011-06-05T10:46:36Z</time>
      </trkpt>
      <trkpt lat="36.761386" lon="-4.990408">
        <ele>774.150</ele>
        <time>2011-06-05T10:46:44Z</time>
      </trkpt>
      <trkpt lat="36.761433" lon="-4.990619">
        <ele>776.630</ele>
        <time>2011-06-05T10:46:53Z</time>
      </trkpt>
      <trkpt lat="36.761458" lon="-4.990831">
        <ele>777.356</ele>
        <time>2011-06-05T10:47:02Z</time>
      </trkpt>
      <trkpt lat="36.761486" lon="-4.991071">
        <ele>778.512</ele>
        <time>2011-06-05T10:47:12Z</time>
      </trkpt>
      <trkpt lat="36.761509" lon="-4.991266">
        <ele>779.932</ele>
        <time>2011-06-05T10:47:20Z</time>
      </trkpt>
      <trkpt lat="36.761543" lon="-4.991457">
        <ele>781.105</ele>
        <time>2011-06-05T10:47:28Z</time>
      </trkpt>
      <trkpt lat="36.761596" lon="-4.991685">
        <ele>781.707</ele>
        <time>2011-06-05T10:47:38Z</time>
      </trkpt>
      <trkpt lat="36.761666" lon="-4.991830">
        <ele>782.142</ele>
        <time>2011-06-05T10:47:45Z</time>
      </trkpt>
      <trkpt lat="36.761761" lon="-4.992007">
        <ele>783.718</ele>
        <time>2011-06-05T10:47:53Z</time>
      </trkpt>
      <trkpt lat="36.761832" lon="-4.992141">
        <ele>785.176</ele>
        <time>2011-06-05T10:47:59Z</time>
      </trkpt>
      <trkpt lat="36.761883" lon="-4.992270">
        <ele>786.481</ele>
        <time>2011-06-05T10:48:06Z</time>
      </trkpt>
      <trkpt lat="36.761930" lon="-4.992458">
        <ele>787.552</ele>
        <time>2011-06-05T10:48:15Z</time>
      </trkpt>
      <trkpt lat="36.762006" lon="-4.992633">
        <ele>788.892</ele>
        <time>2011-06-05T10:48:23Z</time>
      </trkpt>
      <trkpt lat="36.762110" lon="-4.992751">
        <ele>790.168</ele>
        <time>2011-06-05T10:48:30Z</time>
      </trkpt>
      <trkpt lat="36.762191" lon="-4.992835">
        <ele>791.594</ele>
        <time>2011-06-05T10:48:36Z</time>
      </trkpt>
      <trkpt lat="36.762289" lon="-4.992960">
        <ele>791.857</ele>
        <time>2011-06-05T10:48:45Z</time>
      </trkpt>
      <trkpt lat="36.762318" lon="-4.993083">
        <ele>793.622</ele>
        <time>2011-06-05T10:48:52Z</time>
      </trkpt>
      <trkpt lat="36.762321" lon="-4.993113">
        <ele>794.007</ele>
        <time>2011-06-05T10:48:54Z</time>
      </trkpt>
      <trkpt lat="36.762318" lon="-4.993121">
        <ele>795.760</ele>
        <time>2011-06-05T10:49:01Z</time>
      </trkpt>
      <trkpt lat="36.762313" lon="-4.993103">
        <ele>796.886</ele>
        <time>2011-06-05T10:50:58Z</time>
      </trkpt>
      <trkpt lat="36.762313" lon="-4.993103">
        <ele>794.974</ele>
        <time>2011-06-05T10:51:02Z</time>
      </trkpt>
      <trkpt lat="36.762304" lon="-4.993136">
        <ele>794.669</ele>
        <time>2011-06-05T10:51:36Z</time>
      </trkpt>
      <trkpt lat="36.762298" lon="-4.993155">
        <ele>794.520</ele>
        <time>2011-06-05T10:51:37Z</time>
      </trkpt>
      <trkpt lat="36.762292" lon="-4.993292">
        <ele>794.340</ele>
        <time>2011-06-05T10:51:44Z</time>
      </trkpt>
      <trkpt lat="36.762280" lon="-4.993333">
        <ele>795.676</ele>
        <time>2011-06-05T10:51:46Z</time>
      </trkpt>
      <trkpt lat="36.762237" lon="-4.993502">
        <ele>796.895</ele>
        <time>2011-06-05T10:51:54Z</time>
      </trkpt>
      <trkpt lat="36.762169" lon="-4.993706">
        <ele>798.549</ele>
        <time>2011-06-05T10:52:04Z</time>
      </trkpt>
      <trkpt lat="36.762160" lon="-4.993726">
        <ele>798.723</ele>
        <time>2011-06-05T10:52:05Z</time>
      </trkpt>
      <trkpt lat="36.762077" lon="-4.993903">
        <ele>799.807</ele>
        <time>2011-06-05T10:52:14Z</time>
      </trkpt>
      <trkpt lat="36.761965" lon="-4.994094">
        <ele>801.940</ele>
        <time>2011-06-05T10:52:25Z</time>
      </trkpt>
      <trkpt lat="36.761887" lon="-4.994234">
        <ele>802.756</ele>
        <time>2011-06-05T10:52:33Z</time>
      </trkpt>
      <trkpt lat="36.761828" lon="-4.994335">
        <ele>803.624</ele>
        <time>2011-06-05T10:52:39Z</time>
      </trkpt>
      <trkpt lat="36.761727" lon="-4.994441">
        <ele>804.639</ele>
        <time>2011-06-05T10:52:47Z</time>
      </trkpt>
      <trkpt lat="36.761652" lon="-4.994514">
        <ele>805.690</ele>
        <time>2011-06-05T10:52:53Z</time>
      </trkpt>
      <trkpt lat="36.761566" lon="-4.994598">
        <ele>806.350</ele>
        <time>2011-06-05T10:53:00Z</time>
      </trkpt>
      <trkpt lat="36.761443" lon="-4.994710">
        <ele>806.866</ele>
        <time>2011-06-05T10:53:08Z</time>
      </trkpt>
      <trkpt lat="36.761366" lon="-4.994776">
        <ele>807.478</ele>
        <time>2011-06-05T10:53:14Z</time>
      </trkpt>
      <trkpt lat="36.761241" lon="-4.994896">
        <ele>808.433</ele>
        <time>2011-06-05T10:53:23Z</time>
      </trkpt>
      <trkpt lat="36.761079" lon="-4.995010">
        <ele>810.126</ele>
        <time>2011-06-05T10:53:33Z</time>
      </trkpt>
      <trkpt lat="36.760950" lon="-4.995095">
        <ele>810.907</ele>
        <time>2011-06-05T10:53:41Z</time>
      </trkpt>
      <trkpt lat="36.760814" lon="-4.995207">
        <ele>812.188</ele>
        <time>2011-06-05T10:53:50Z</time>
      </trkpt>
      <trkpt lat="36.760653" lon="-4.995336">
        <ele>813.344</ele>
        <time>2011-06-05T10:54:00Z</time>
      </trkpt>
      <trkpt lat="36.760496" lon="-4.995429">
        <ele>814.662</ele>
        <time>2011-06-05T10:54:09Z</time>
      </trkpt>
      <trkpt lat="36.760349" lon="-4.995560">
        <ele>815.987</ele>
        <time>2011-06-05T10:54:19Z</time>
      </trkpt>
      <trkpt lat="36.760222" lon="-4.995681">
        <ele>817.188</ele>
        <time>2011-06-05T10:54:28Z</time>
      </trkpt>
      <trkpt lat="36.760107" lon="-4.995788">
        <ele>819.078</ele>
        <time>2011-06-05T10:54:35Z</time>
      </trkpt>
      <trkpt lat="36.759974" lon="-4.995899">
        <ele>819.994</ele>
        <time>2011-06-05T10:54:43Z</time>
      </trkpt>
      <trkpt lat="36.759886" lon="-4.996009">
        <ele>820.879</ele>
        <time>2011-06-05T10:54:50Z</time>
      </trkpt>
      <trkpt lat="36.759776" lon="-4.996083">
        <ele>821.605</ele>
        <time>2011-06-05T10:54:57Z</time>
      </trkpt>
      <trkpt lat="36.759703" lon="-4.996141">
        <ele>820.825</ele>
        <time>2011-06-05T10:55:02Z</time>
      </trkpt>
      <trkpt lat="36.759684" lon="-4.996193">
        <ele>822.907</ele>
        <time>2011-06-05T10:59:53Z</time>
      </trkpt>
      <trkpt lat="36.759580" lon="-4.996240">
        <ele>823.768</ele>
        <time>2011-06-05T11:00:00Z</time>
      </trkpt>
      <trkpt lat="36.759444" lon="-4.996291">
        <ele>824.754</ele>
        <time>2011-06-05T11:00:07Z</time>
      </trkpt>
      <trkpt lat="36.759364" lon="-4.996397">
        <ele>825.262</ele>
        <time>2011-06-05T11:00:13Z</time>
      </trkpt>
      <trkpt lat="36.759358" lon="-4.996420">
        <ele>825.587</ele>
        <time>2011-06-05T11:00:14Z</time>
      </trkpt>
      <trkpt lat="36.759434" lon="-4.996506">
        <ele>826.898</ele>
        <time>2011-06-05T11:00:20Z</time>
      </trkpt>
      <trkpt lat="36.759478" lon="-4.996504">
        <ele>827.448</ele>
        <time>2011-06-05T11:00:23Z</time>
      </trkpt>
      <trkpt lat="36.759654" lon="-4.996457">
        <ele>829.794</ele>
        <time>2011-06-05T11:00:32Z</time>
      </trkpt>
      <trkpt lat="36.759764" lon="-4.996414">
        <ele>830.315</ele>
        <time>2011-06-05T11:00:38Z</time>
      </trkpt>
      <trkpt lat="36.759897" lon="-4.996370">
        <ele>832.965</ele>
        <time>2011-06-05T11:00:46Z</time>
      </trkpt>
      <trkpt lat="36.760059" lon="-4.996349">
        <ele>834.511</ele>
        <time>2011-06-05T11:00:56Z</time>
      </trkpt>
      <trkpt lat="36.760160" lon="-4.996343">
        <ele>835.107</ele>
        <time>2011-06-05T11:01:03Z</time>
      </trkpt>
      <trkpt lat="36.760261" lon="-4.996314">
        <ele>836.692</ele>
        <time>2011-06-05T11:01:10Z</time>
      </trkpt>
      <trkpt lat="36.760382" lon="-4.996290">
        <ele>837.968</ele>
        <time>2011-06-05T11:01:18Z</time>
      </trkpt>
      <trkpt lat="36.760495" lon="-4.996282">
        <ele>838.886</ele>
        <time>2011-06-05T11:01:25Z</time>
      </trkpt>
      <trkpt lat="36.760647" lon="-4.996254">
        <ele>839.861</ele>
        <time>2011-06-05T11:01:35Z</time>
      </trkpt>
      <trkpt lat="36.760796" lon="-4.996242">
        <ele>841.862</ele>
        <time>2011-06-05T11:01:44Z</time>
      </trkpt>
      <trkpt lat="36.760913" lon="-4.996227">
        <ele>842.972</ele>
        <time>2011-06-05T11:01:51Z</time>
      </trkpt>
      <trkpt lat="36.761082" lon="-4.996195">
        <ele>843.888</ele>
        <time>2011-06-05T11:02:02Z</time>
      </trkpt>
      <trkpt lat="36.761197" lon="-4.996136">
        <ele>845.775</ele>
        <time>2011-06-05T11:02:10Z</time>
      </trkpt>
      <trkpt lat="36.761294" lon="-4.996062">
        <ele>847.528</ele>
        <time>2011-06-05T11:02:17Z</time>
      </trkpt>
      <trkpt lat="36.761398" lon="-4.995992">
        <ele>848.420</ele>
        <time>2011-06-05T11:02:24Z</time>
      </trkpt>
      <trkpt lat="36.761522" lon="-4.995979">
        <ele>850.307</ele>
        <time>2011-06-05T11:02:32Z</time>
      </trkpt>
      <trkpt lat="36.761571" lon="-4.995983">
        <ele>851.368</ele>
        <time>2011-06-05T11:02:35Z</time>
      </trkpt>
      <trkpt lat="36.761686" lon="-4.996011">
        <ele>851.364</ele>
        <time>2011-06-05T11:02:42Z</time>
      </trkpt>
      <trkpt lat="36.761813" lon="-4.996033">
        <ele>852.432</ele>
        <time>2011-06-05T11:02:49Z</time>
      </trkpt>
      <trkpt lat="36.761971" lon="-4.996071">
        <ele>853.627</ele>
        <time>2011-06-05T11:02:57Z</time>
      </trkpt>
      <trkpt lat="36.762162" lon="-4.996166">
        <ele>855.228</ele>
        <time>2011-06-05T11:03:07Z</time>
      </trkpt>
      <trkpt lat="36.762281" lon="-4.996229">
        <ele>857.468</ele>
        <time>2011-06-05T11:03:14Z</time>
      </trkpt>
      <trkpt lat="36.762296" lon="-4.996241">
        <ele>857.474</ele>
        <time>2011-06-05T11:03:15Z</time>
      </trkpt>
      <trkpt lat="36.762396" lon="-4.996385">
        <ele>859.551</ele>
        <time>2011-06-05T11:03:23Z</time>
      </trkpt>
      <trkpt lat="36.762530" lon="-4.996539">
        <ele>861.101</ele>
        <time>2011-06-05T11:03:33Z</time>
      </trkpt>
      <trkpt lat="36.762662" lon="-4.996608">
        <ele>862.411</ele>
        <time>2011-06-05T11:03:41Z</time>
      </trkpt>
      <trkpt lat="36.762817" lon="-4.996603">
        <ele>864.107</ele>
        <time>2011-06-05T11:03:50Z</time>
      </trkpt>
      <trkpt lat="36.762989" lon="-4.996526">
        <ele>866.446</ele>
        <time>2011-06-05T11:04:01Z</time>
      </trkpt>
      <trkpt lat="36.763133" lon="-4.996414">
        <ele>867.892</ele>
        <time>2011-06-05T11:04:11Z</time>
      </trkpt>
      <trkpt lat="36.763247" lon="-4.996325">
        <ele>870.240</ele>
        <time>2011-06-05T11:04:19Z</time>
      </trkpt>
      <trkpt lat="36.763367" lon="-4.996243">
        <ele>871.175</ele>
        <time>2011-06-05T11:04:27Z</time>
      </trkpt>
      <trkpt lat="36.763479" lon="-4.996158">
        <ele>872.526</ele>
        <time>2011-06-05T11:04:35Z</time>
      </trkpt>
      <trkpt lat="36.763597" lon="-4.996066">
        <ele>874.146</ele>
        <time>2011-06-05T11:04:43Z</time>
      </trkpt>
      <trkpt lat="36.763642" lon="-4.996010">
        <ele>874.072</ele>
        <time>2011-06-05T11:04:47Z</time>
      </trkpt>
      <trkpt lat="36.763612" lon="-4.996050">
        <ele>876.338</ele>
        <time>2011-06-05T11:11:07Z</time>
      </trkpt>
      <trkpt lat="36.763615" lon="-4.996080">
        <ele>875.270</ele>
        <time>2011-06-05T11:11:09Z</time>
      </trkpt>
      <trkpt lat="36.763686" lon="-4.996157">
        <ele>875.317</ele>
        <time>2011-06-05T11:11:15Z</time>
      </trkpt>
      <trkpt lat="36.763778" lon="-4.996278">
        <ele>875.007</ele>
        <time>2011-06-05T11:11:23Z</time>
      </trkpt>
      <trkpt lat="36.763788" lon="-4.996456">
        <ele>874.354</ele>
        <time>2011-06-05T11:11:28Z</time>
      </trkpt>
      <trkpt lat="36.763687" lon="-4.996752">
        <ele>872.610</ele>
        <time>2011-06-05T11:11:32Z</time>
      </trkpt>
      <trkpt lat="36.763514" lon="-4.997102">
        <ele>869.398</ele>
        <time>2011-06-05T11:11:36Z</time>
      </trkpt>
      <trkpt lat="36.763387" lon="-4.997339">
        <ele>867.753</ele>
        <time>2011-06-05T11:11:39Z</time>
      </trkpt>
      <trkpt lat="36.763341" lon="-4.997421">
        <ele>867.194</ele>
        <time>2011-06-05T11:11:40Z</time>
      </trkpt>
      <trkpt lat="36.763180" lon="-4.997819">
        <ele>864.074</ele>
        <time>2011-06-05T11:11:44Z</time>
      </trkpt>
      <trkpt lat="36.763070" lon="-4.998034">
        <ele>862.820</ele>
        <time>2011-06-05T11:11:46Z</time>
      </trkpt>
      <trkpt lat="36.762912" lon="-4.998476">
        <ele>856.596</ele>
        <time>2011-06-05T11:11:50Z</time>
      </trkpt>
      <trkpt lat="36.762889" lon="-4.998570">
        <ele>856.131</ele>
        <time>2011-06-05T11:11:51Z</time>
      </trkpt>
      <trkpt lat="36.762858" lon="-4.998746">
        <ele>854.024</ele>
        <time>2011-06-05T11:11:53Z</time>
      </trkpt>
      <trkpt lat="36.762700" lon="-4.999105">
        <ele>849.407</ele>
        <time>2011-06-05T11:11:58Z</time>
      </trkpt>
      <trkpt lat="36.762447" lon="-4.999293">
        <ele>847.030</ele>
        <time>2011-06-05T11:12:02Z</time>
      </trkpt>
      <trkpt lat="36.762369" lon="-4.999326">
        <ele>846.486</ele>
        <time>2011-06-05T11:12:03Z</time>
      </trkpt>
      <trkpt lat="36.761855" lon="-4.999500">
        <ele>841.574</ele>
        <time>2011-06-05T11:12:09Z</time>
      </trkpt>
      <trkpt lat="36.761402" lon="-4.999484">
        <ele>835.469</ele>
        <time>2011-06-05T11:12:14Z</time>
      </trkpt>
      <trkpt lat="36.761099" lon="-4.999553">
        <ele>832.450</ele>
        <time>2011-06-05T11:12:18Z</time>
      </trkpt>
      <trkpt lat="36.760993" lon="-4.999793">
        <ele>830.330</ele>
        <time>2011-06-05T11:12:21Z</time>
      </trkpt>
      <trkpt lat="36.760991" lon="-4.999906">
        <ele>830.226</ele>
        <time>2011-06-05T11:12:22Z</time>
      </trkpt>
      <trkpt lat="36.760992" lon="-5.000150">
        <ele>828.092</ele>
        <time>2011-06-05T11:12:24Z</time>
      </trkpt>
      <trkpt lat="36.760949" lon="-5.000950">
        <ele>822.773</ele>
        <time>2011-06-05T11:12:30Z</time>
      </trkpt>
      <trkpt lat="36.760962" lon="-5.001690">
        <ele>814.220</ele>
        <time>2011-06-05T11:12:35Z</time>
      </trkpt>
      <trkpt lat="36.760956" lon="-5.001928">
        <ele>811.407</ele>
        <time>2011-06-05T11:12:37Z</time>
      </trkpt>
      <trkpt lat="36.760866" lon="-5.002263">
        <ele>807.840</ele>
        <time>2011-06-05T11:12:41Z</time>
      </trkpt>
      <trkpt lat="36.760808" lon="-5.002295">
        <ele>808.216</ele>
        <time>2011-06-05T11:12:42Z</time>
      </trkpt>
      <trkpt lat="36.760741" lon="-5.002298">
        <ele>807.254</ele>
        <time>2011-06-05T11:12:43Z</time>
      </trkpt>
      <trkpt lat="36.760577" lon="-5.002240">
        <ele>806.089</ele>
        <time>2011-06-05T11:12:45Z</time>
      </trkpt>
      <trkpt lat="36.760419" lon="-5.002214">
        <ele>804.270</ele>
        <time>2011-06-05T11:12:47Z</time>
      </trkpt>
      <trkpt lat="36.760237" lon="-5.002353">
        <ele>802.740</ele>
        <time>2011-06-05T11:12:50Z</time>
      </trkpt>
      <trkpt lat="36.760090" lon="-5.002566">
        <ele>802.966</ele>
        <time>2011-06-05T11:12:53Z</time>
      </trkpt>
      <trkpt lat="36.759701" lon="-5.002942">
        <ele>799.057</ele>
        <time>2011-06-05T11:12:59Z</time>
      </trkpt>
      <trkpt lat="36.759483" lon="-5.003089">
        <ele>797.400</ele>
        <time>2011-06-05T11:13:02Z</time>
      </trkpt>
      <trkpt lat="36.759314" lon="-5.003272">
        <ele>796.120</ele>
        <time>2011-06-05T11:13:05Z</time>
      </trkpt>
      <trkpt lat="36.759126" lon="-5.003306">
        <ele>794.007</ele>
        <time>2011-06-05T11:13:08Z</time>
      </trkpt>
      <trkpt lat="36.758955" lon="-5.003156">
        <ele>792.936</ele>
        <time>2011-06-05T11:13:11Z</time>
      </trkpt>
      <trkpt lat="36.758913" lon="-5.003080">
        <ele>792.322</ele>
        <time>2011-06-05T11:13:12Z</time>
      </trkpt>
      <trkpt lat="36.758843" lon="-5.002942">
        <ele>791.780</ele>
        <time>2011-06-05T11:13:14Z</time>
      </trkpt>
      <trkpt lat="36.758693" lon="-5.002940">
        <ele>790.495</ele>
        <time>2011-06-05T11:13:17Z</time>
      </trkpt>
      <trkpt lat="36.758636" lon="-5.002977">
        <ele>790.876</ele>
        <time>2011-06-05T11:13:18Z</time>
      </trkpt>
      <trkpt lat="36.758446" lon="-5.002996">
        <ele>790.076</ele>
        <time>2011-06-05T11:13:21Z</time>
      </trkpt>
      <trkpt lat="36.758390" lon="-5.002956">
        <ele>789.732</ele>
        <time>2011-06-05T11:13:22Z</time>
      </trkpt>
      <trkpt lat="36.758076" lon="-5.002878">
        <ele>788.328</ele>
        <time>2011-06-05T11:13:27Z</time>
      </trkpt>
      <trkpt lat="36.757855" lon="-5.002960">
        <ele>785.289</ele>
        <time>2011-06-05T11:13:30Z</time>
      </trkpt>
      <trkpt lat="36.757731" lon="-5.003174">
        <ele>782.017</ele>
        <time>2011-06-05T11:13:34Z</time>
      </trkpt>
      <trkpt lat="36.757761" lon="-5.003251">
        <ele>781.807</ele>
        <time>2011-06-05T11:13:35Z</time>
      </trkpt>
      <trkpt lat="36.757814" lon="-5.003321">
        <ele>781.593</ele>
        <time>2011-06-05T11:13:36Z</time>
      </trkpt>
      <trkpt lat="36.757949" lon="-5.003462">
        <ele>779.769</ele>
        <time>2011-06-05T11:13:38Z</time>
      </trkpt>
      <trkpt lat="36.758286" lon="-5.003612">
        <ele>773.397</ele>
        <time>2011-06-05T11:13:42Z</time>
      </trkpt>
      <trkpt lat="36.758460" lon="-5.003626">
        <ele>770.732</ele>
        <time>2011-06-05T11:13:44Z</time>
      </trkpt>
      <trkpt lat="36.758761" lon="-5.003800">
        <ele>768.353</ele>
        <time>2011-06-05T11:13:48Z</time>
      </trkpt>
      <trkpt lat="36.758898" lon="-5.003941">
        <ele>765.793</ele>
        <time>2011-06-05T11:13:50Z</time>
      </trkpt>
      <trkpt lat="36.759103" lon="-5.004016">
        <ele>762.659</ele>
        <time>2011-06-05T11:13:53Z</time>
      </trkpt>
      <trkpt lat="36.759183" lon="-5.003984">
        <ele>761.523</ele>
        <time>2011-06-05T11:13:54Z</time>
      </trkpt>
      <trkpt lat="36.759358" lon="-5.003905">
        <ele>759.083</ele>
        <time>2011-06-05T11:13:56Z</time>
      </trkpt>
      <trkpt lat="36.759554" lon="-5.003860">
        <ele>757.611</ele>
        <time>2011-06-05T11:13:58Z</time>
      </trkpt>
      <trkpt lat="36.759845" lon="-5.003903">
        <ele>752.007</ele>
        <time>2011-06-05T11:14:01Z</time>
      </trkpt>
      <trkpt lat="36.759932" lon="-5.003950">
        <ele>752.143</ele>
        <time>2011-06-05T11:14:02Z</time>
      </trkpt>
      <trkpt lat="36.760082" lon="-5.004093">
        <ele>751.369</ele>
        <time>2011-06-05T11:14:04Z</time>
      </trkpt>
      <trkpt lat="36.760201" lon="-5.004217">
        <ele>749.137</ele>
        <time>2011-06-05T11:14:06Z</time>
      </trkpt>
      <trkpt lat="36.760359" lon="-5.004171">
        <ele>747.352</ele>
        <time>2011-06-05T11:14:09Z</time>
      </trkpt>
      <trkpt lat="36.760490" lon="-5.003890">
        <ele>743.543</ele>
        <time>2011-06-05T11:14:13Z</time>
      </trkpt>
      <trkpt lat="36.760496" lon="-5.003815">
        <ele>743.353</ele>
        <time>2011-06-05T11:14:14Z</time>
      </trkpt>
      <trkpt lat="36.760524" lon="-5.003622">
        <ele>741.739</ele>
        <time>2011-06-05T11:14:17Z</time>
      </trkpt>
      <trkpt lat="36.760603" lon="-5.003549">
        <ele>740.737</ele>
        <time>2011-06-05T11:14:19Z</time>
      </trkpt>
      <trkpt lat="36.760702" lon="-5.003554">
        <ele>740.249</ele>
        <time>2011-06-05T11:14:21Z</time>
      </trkpt>
      <trkpt lat="36.760775" lon="-5.003583">
        <ele>740.313</ele>
        <time>2011-06-05T11:14:22Z</time>
      </trkpt>
      <trkpt lat="36.760935" lon="-5.003639">
        <ele>739.407</ele>
        <time>2011-06-05T11:14:24Z</time>
      </trkpt>
      <trkpt lat="36.761076" lon="-5.003737">
        <ele>737.714</ele>
        <time>2011-06-05T11:14:26Z</time>
      </trkpt>
      <trkpt lat="36.761125" lon="-5.003796">
        <ele>736.720</ele>
        <time>2011-06-05T11:14:27Z</time>
      </trkpt>
      <trkpt lat="36.761439" lon="-5.004012">
        <ele>732.628</ele>
        <time>2011-06-05T11:14:32Z</time>
      </trkpt>
      <trkpt lat="36.761561" lon="-5.004062">
        <ele>731.463</ele>
        <time>2011-06-05T11:14:34Z</time>
      </trkpt>
      <trkpt lat="36.761728" lon="-5.004183">
        <ele>730.864</ele>
        <time>2011-06-05T11:14:37Z</time>
      </trkpt>
      <trkpt lat="36.761957" lon="-5.004191">
        <ele>729.784</ele>
        <time>2011-06-05T11:14:41Z</time>
      </trkpt>
      <trkpt lat="36.762157" lon="-5.004005">
        <ele>729.290</ele>
        <time>2011-06-05T11:14:45Z</time>
      </trkpt>
      <trkpt lat="36.762283" lon="-5.003697">
        <ele>728.278</ele>
        <time>2011-06-05T11:14:49Z</time>
      </trkpt>
      <trkpt lat="36.762321" lon="-5.003434">
        <ele>726.433</ele>
        <time>2011-06-05T11:14:52Z</time>
      </trkpt>
      <trkpt lat="36.762327" lon="-5.003341">
        <ele>724.426</ele>
        <time>2011-06-05T11:14:53Z</time>
      </trkpt>
      <trkpt lat="36.762366" lon="-5.003160">
        <ele>723.507</ele>
        <time>2011-06-05T11:14:55Z</time>
      </trkpt>
      <trkpt lat="36.762509" lon="-5.002975">
        <ele>721.868</ele>
        <time>2011-06-05T11:14:58Z</time>
      </trkpt>
      <trkpt lat="36.762616" lon="-5.002985">
        <ele>721.384</ele>
        <time>2011-06-05T11:15:00Z</time>
      </trkpt>
      <trkpt lat="36.762680" lon="-5.003116">
        <ele>721.742</ele>
        <time>2011-06-05T11:15:03Z</time>
      </trkpt>
      <trkpt lat="36.762747" lon="-5.003356">
        <ele>722.127</ele>
        <time>2011-06-05T11:15:10Z</time>
      </trkpt>
      <trkpt lat="36.762804" lon="-5.003528">
        <ele>723.098</ele>
        <time>2011-06-05T11:15:17Z</time>
      </trkpt>
      <trkpt lat="36.762853" lon="-5.003620">
        <ele>723.798</ele>
        <time>2011-06-05T11:15:23Z</time>
      </trkpt>
      <trkpt lat="36.762909" lon="-5.003660">
        <ele>724.034</ele>
        <time>2011-06-05T11:15:27Z</time>
      </trkpt>
      <trkpt lat="36.762927" lon="-5.003688">
        <ele>724.158</ele>
        <time>2011-06-05T11:15:29Z</time>
      </trkpt>
      <trkpt lat="36.762933" lon="-5.003696">
        <ele>723.852</ele>
        <time>2011-06-05T11:15:32Z</time>
      </trkpt>
      <trkpt lat="36.762948" lon="-5.003769">
        <ele>721.217</ele>
        <time>2011-06-05T11:16:43Z</time>
      </trkpt>
      <trkpt lat="36.763047" lon="-5.003896">
        <ele>723.707</ele>
        <time>2011-06-05T11:16:48Z</time>
      </trkpt>
      <trkpt lat="36.763154" lon="-5.004109">
        <ele>722.366</ele>
        <time>2011-06-05T11:16:53Z</time>
      </trkpt>
      <trkpt lat="36.763153" lon="-5.004252">
        <ele>721.092</ele>
        <time>2011-06-05T11:16:56Z</time>
      </trkpt>
      <trkpt lat="36.763153" lon="-5.004292">
        <ele>719.320</ele>
        <time>2011-06-05T11:16:57Z</time>
      </trkpt>
      <trkpt lat="36.763308" lon="-5.004631">
        <ele>719.945</ele>
        <time>2011-06-05T11:17:05Z</time>
      </trkpt>
      <trkpt lat="36.763349" lon="-5.004688">
        <ele>719.126</ele>
        <time>2011-06-05T11:17:06Z</time>
      </trkpt>
      <trkpt lat="36.763469" lon="-5.004966">
        <ele>718.596</ele>
        <time>2011-06-05T11:17:10Z</time>
      </trkpt>
      <trkpt lat="36.763596" lon="-5.005389">
        <ele>717.252</ele>
        <time>2011-06-05T11:17:15Z</time>
      </trkpt>
      <trkpt lat="36.763889" lon="-5.005796">
        <ele>718.821</ele>
        <time>2011-06-05T11:17:21Z</time>
      </trkpt>
      <trkpt lat="36.764033" lon="-5.005969">
        <ele>718.841</ele>
        <time>2011-06-05T11:17:24Z</time>
      </trkpt>
      <trkpt lat="36.764187" lon="-5.006033">
        <ele>720.505</ele>
        <time>2011-06-05T11:17:27Z</time>
      </trkpt>
      <trkpt lat="36.764307" lon="-5.005879">
        <ele>719.707</ele>
        <time>2011-06-05T11:17:30Z</time>
      </trkpt>
      <trkpt lat="36.764426" lon="-5.005543">
        <ele>716.063</ele>
        <time>2011-06-05T11:17:34Z</time>
      </trkpt>
      <trkpt lat="36.764588" lon="-5.005034">
        <ele>713.089</ele>
        <time>2011-06-05T11:17:39Z</time>
      </trkpt>
      <trkpt lat="36.764750" lon="-5.004726">
        <ele>710.887</ele>
        <time>2011-06-05T11:17:42Z</time>
      </trkpt>
      <trkpt lat="36.764989" lon="-5.004516">
        <ele>708.182</ele>
        <time>2011-06-05T11:17:45Z</time>
      </trkpt>
      <trkpt lat="36.765260" lon="-5.004317">
        <ele>704.033</ele>
        <time>2011-06-05T11:17:49Z</time>
      </trkpt>
      <trkpt lat="36.765345" lon="-5.004332">
        <ele>704.143</ele>
        <time>2011-06-05T11:17:51Z</time>
      </trkpt>
      <trkpt lat="36.765464" lon="-5.004473">
        <ele>703.579</ele>
        <time>2011-06-05T11:17:55Z</time>
      </trkpt>
      <trkpt lat="36.765661" lon="-5.004620">
        <ele>704.621</ele>
        <time>2011-06-05T11:18:00Z</time>
      </trkpt>
      <trkpt lat="36.765711" lon="-5.004617">
        <ele>704.741</ele>
        <time>2011-06-05T11:18:01Z</time>
      </trkpt>
      <trkpt lat="36.765812" lon="-5.004601">
        <ele>703.705</ele>
        <time>2011-06-05T11:18:03Z</time>
      </trkpt>
      <trkpt lat="36.766009" lon="-5.004479">
        <ele>703.807</ele>
        <time>2011-06-05T11:18:07Z</time>
      </trkpt>
      <trkpt lat="36.766131" lon="-5.004290">
        <ele>701.143</ele>
        <time>2011-06-05T11:18:10Z</time>
      </trkpt>
      <trkpt lat="36.766171" lon="-5.003948">
        <ele>697.279</ele>
        <time>2011-06-05T11:18:14Z</time>
      </trkpt>
      <trkpt lat="36.766257" lon="-5.003513">
        <ele>694.837</ele>
        <time>2011-06-05T11:18:18Z</time>
      </trkpt>
      <trkpt lat="36.766274" lon="-5.003272">
        <ele>693.232</ele>
        <time>2011-06-05T11:18:20Z</time>
      </trkpt>
      <trkpt lat="36.766299" lon="-5.002701">
        <ele>686.313</ele>
        <time>2011-06-05T11:18:25Z</time>
      </trkpt>
      <trkpt lat="36.766421" lon="-5.002161">
        <ele>682.173</ele>
        <time>2011-06-05T11:18:30Z</time>
      </trkpt>
      <trkpt lat="36.766406" lon="-5.001801">
        <ele>676.619</ele>
        <time>2011-06-05T11:18:34Z</time>
      </trkpt>
      <trkpt lat="36.766379" lon="-5.001682">
        <ele>675.462</ele>
        <time>2011-06-05T11:18:36Z</time>
      </trkpt>
      <trkpt lat="36.766453" lon="-5.001532">
        <ele>674.783</ele>
        <time>2011-06-05T11:18:39Z</time>
      </trkpt>
      <trkpt lat="36.766500" lon="-5.001496">
        <ele>674.311</ele>
        <time>2011-06-05T11:18:40Z</time>
      </trkpt>
      <trkpt lat="36.766608" lon="-5.001420">
        <ele>673.707</ele>
        <time>2011-06-05T11:18:42Z</time>
      </trkpt>
      <trkpt lat="36.766666" lon="-5.001376">
        <ele>673.127</ele>
        <time>2011-06-05T11:18:43Z</time>
      </trkpt>
      <trkpt lat="36.766789" lon="-5.001277">
        <ele>672.273</ele>
        <time>2011-06-05T11:18:45Z</time>
      </trkpt>
      <trkpt lat="36.766975" lon="-5.000966">
        <ele>668.431</ele>
        <time>2011-06-05T11:18:49Z</time>
      </trkpt>
      <trkpt lat="36.767014" lon="-5.000889">
        <ele>667.836</ele>
        <time>2011-06-05T11:18:50Z</time>
      </trkpt>
      <trkpt lat="36.767311" lon="-5.000626">
        <ele>667.227</ele>
        <time>2011-06-05T11:18:55Z</time>
      </trkpt>
      <trkpt lat="36.767456" lon="-5.000492">
        <ele>664.247</ele>
        <time>2011-06-05T11:18:57Z</time>
      </trkpt>
      <trkpt lat="36.767609" lon="-5.000380">
        <ele>662.993</ele>
        <time>2011-06-05T11:18:59Z</time>
      </trkpt>
      <trkpt lat="36.768023" lon="-5.000089">
        <ele>662.187</ele>
        <time>2011-06-05T11:19:05Z</time>
      </trkpt>
      <trkpt lat="36.768367" lon="-4.999943">
        <ele>662.042</ele>
        <time>2011-06-05T11:19:11Z</time>
      </trkpt>
      <trkpt lat="36.768622" lon="-4.999891">
        <ele>663.626</ele>
        <time>2011-06-05T11:19:17Z</time>
      </trkpt>
      <trkpt lat="36.768821" lon="-4.999804">
        <ele>665.707</ele>
        <time>2011-06-05T11:19:23Z</time>
      </trkpt>
      <trkpt lat="36.768892" lon="-4.999704">
        <ele>665.819</ele>
        <time>2011-06-05T11:19:29Z</time>
      </trkpt>
      <trkpt lat="36.768910" lon="-4.999685">
        <ele>665.845</ele>
        <time>2011-06-05T11:19:31Z</time>
      </trkpt>
      <trkpt lat="36.768903" lon="-4.999647">
        <ele>665.213</ele>
        <time>2011-06-05T11:19:34Z</time>
      </trkpt>
      <trkpt lat="36.768880" lon="-4.999549">
        <ele>664.888</ele>
        <time>2011-06-05T11:19:40Z</time>
      </trkpt>
      <trkpt lat="36.768898" lon="-4.999354">
        <ele>662.269</ele>
        <time>2011-06-05T11:19:45Z</time>
      </trkpt>
      <trkpt lat="36.768936" lon="-4.999141">
        <ele>661.329</ele>
        <time>2011-06-05T11:19:49Z</time>
      </trkpt>
      <trkpt lat="36.769005" lon="-4.998959">
        <ele>660.015</ele>
        <time>2011-06-05T11:19:52Z</time>
      </trkpt>
      <trkpt lat="36.769034" lon="-4.998892">
        <ele>660.021</ele>
        <time>2011-06-05T11:19:53Z</time>
      </trkpt>
      <trkpt lat="36.769128" lon="-4.998672">
        <ele>660.141</ele>
        <time>2011-06-05T11:19:56Z</time>
      </trkpt>
      <trkpt lat="36.769263" lon="-4.998489">
        <ele>658.805</ele>
        <time>2011-06-05T11:19:59Z</time>
      </trkpt>
      <trkpt lat="36.769540" lon="-4.998226">
        <ele>658.107</ele>
        <time>2011-06-05T11:20:05Z</time>
      </trkpt>
      <trkpt lat="36.769584" lon="-4.998190">
        <ele>657.723</ele>
        <time>2011-06-05T11:20:06Z</time>
      </trkpt>
      <trkpt lat="36.769793" lon="-4.998087">
        <ele>658.969</ele>
        <time>2011-06-05T11:20:11Z</time>
      </trkpt>
      <trkpt lat="36.769897" lon="-4.998065">
        <ele>660.827</ele>
        <time>2011-06-05T11:20:14Z</time>
      </trkpt>
      <trkpt lat="36.770153" lon="-4.998072">
        <ele>662.262</ele>
        <time>2011-06-05T11:20:21Z</time>
      </trkpt>
      <trkpt lat="36.770388" lon="-4.998115">
        <ele>663.893</ele>
        <time>2011-06-05T11:20:29Z</time>
      </trkpt>
      <trkpt lat="36.770523" lon="-4.998115">
        <ele>664.833</ele>
        <time>2011-06-05T11:20:34Z</time>
      </trkpt>
      <trkpt lat="36.770661" lon="-4.998072">
        <ele>665.279</ele>
        <time>2011-06-05T11:20:40Z</time>
      </trkpt>
      <trkpt lat="36.770805" lon="-4.998022">
        <ele>665.613</ele>
        <time>2011-06-05T11:20:46Z</time>
      </trkpt>
      <trkpt lat="36.771006" lon="-4.997956">
        <ele>667.043</ele>
        <time>2011-06-05T11:20:54Z</time>
      </trkpt>
      <trkpt lat="36.771108" lon="-4.997951">
        <ele>669.107</ele>
        <time>2011-06-05T11:21:00Z</time>
      </trkpt>
      <trkpt lat="36.771260" lon="-4.997942">
        <ele>670.107</ele>
        <time>2011-06-05T11:21:07Z</time>
      </trkpt>
      <trkpt lat="36.771451" lon="-4.997953">
        <ele>671.632</ele>
        <time>2011-06-05T11:21:16Z</time>
      </trkpt>
      <trkpt lat="36.771625" lon="-4.997843">
        <ele>671.348</ele>
        <time>2011-06-05T11:21:24Z</time>
      </trkpt>
      <trkpt lat="36.771800" lon="-4.997674">
        <ele>672.716</ele>
        <time>2011-06-05T11:21:33Z</time>
      </trkpt>
      <trkpt lat="36.771943" lon="-4.997559">
        <ele>673.671</ele>
        <time>2011-06-05T11:21:40Z</time>
      </trkpt>
      <trkpt lat="36.772122" lon="-4.997343">
        <ele>674.772</ele>
        <time>2011-06-05T11:21:50Z</time>
      </trkpt>
      <trkpt lat="36.772174" lon="-4.997160">
        <ele>676.362</ele>
        <time>2011-06-05T11:21:56Z</time>
      </trkpt>
      <trkpt lat="36.772200" lon="-4.996978">
        <ele>677.858</ele>
        <time>2011-06-05T11:22:03Z</time>
      </trkpt>
      <trkpt lat="36.772188" lon="-4.996819">
        <ele>678.444</ele>
        <time>2011-06-05T11:22:09Z</time>
      </trkpt>
      <trkpt lat="36.772158" lon="-4.996624">
        <ele>678.305</ele>
        <time>2011-06-05T11:22:15Z</time>
      </trkpt>
      <trkpt lat="36.772139" lon="-4.996293">
        <ele>676.515</ele>
        <time>2011-06-05T11:22:22Z</time>
      </trkpt>
      <trkpt lat="36.772149" lon="-4.996155">
        <ele>675.807</ele>
        <time>2011-06-05T11:22:24Z</time>
      </trkpt>
      <trkpt lat="36.772264" lon="-4.995725">
        <ele>674.465</ele>
        <time>2011-06-05T11:22:30Z</time>
      </trkpt>
      <trkpt lat="36.772302" lon="-4.995621">
        <ele>673.261</ele>
        <time>2011-06-05T11:22:32Z</time>
      </trkpt>
      <trkpt lat="36.772375" lon="-4.995436">
        <ele>672.559</ele>
        <time>2011-06-05T11:22:37Z</time>
      </trkpt>
      <trkpt lat="36.772515" lon="-4.995298">
        <ele>671.914</ele>
        <time>2011-06-05T11:22:42Z</time>
      </trkpt>
      <trkpt lat="36.772690" lon="-4.995105">
        <ele>671.985</ele>
        <time>2011-06-05T11:22:47Z</time>
      </trkpt>
      <trkpt lat="36.772997" lon="-4.994724">
        <ele>671.535</ele>
        <time>2011-06-05T11:22:55Z</time>
      </trkpt>
      <trkpt lat="36.773071" lon="-4.994620">
        <ele>670.671</ele>
        <time>2011-06-05T11:22:57Z</time>
      </trkpt>
      <trkpt lat="36.773146" lon="-4.994293">
        <ele>670.954</ele>
        <time>2011-06-05T11:23:02Z</time>
      </trkpt>
      <trkpt lat="36.773027" lon="-4.994113">
        <ele>670.956</ele>
        <time>2011-06-05T11:23:05Z</time>
      </trkpt>
      <trkpt lat="36.772966" lon="-4.994076">
        <ele>670.511</ele>
        <time>2011-06-05T11:23:06Z</time>
      </trkpt>
      <trkpt lat="36.772832" lon="-4.994011">
        <ele>670.007</ele>
        <time>2011-06-05T11:23:08Z</time>
      </trkpt>
      <trkpt lat="36.772575" lon="-4.993756">
        <ele>669.656</ele>
        <time>2011-06-05T11:23:13Z</time>
      </trkpt>
      <trkpt lat="36.772519" lon="-4.993634">
        <ele>669.932</ele>
        <time>2011-06-05T11:23:15Z</time>
      </trkpt>
      <trkpt lat="36.772423" lon="-4.993304">
        <ele>670.180</ele>
        <time>2011-06-05T11:23:20Z</time>
      </trkpt>
      <trkpt lat="36.772408" lon="-4.992843">
        <ele>669.645</ele>
        <time>2011-06-05T11:23:26Z</time>
      </trkpt>
      <trkpt lat="36.772424" lon="-4.992556">
        <ele>668.316</ele>
        <time>2011-06-05T11:23:30Z</time>
      </trkpt>
      <trkpt lat="36.772429" lon="-4.992171">
        <ele>666.056</ele>
        <time>2011-06-05T11:23:35Z</time>
      </trkpt>
      <trkpt lat="36.772483" lon="-4.991898">
        <ele>665.632</ele>
        <time>2011-06-05T11:23:38Z</time>
      </trkpt>
      <trkpt lat="36.772562" lon="-4.991507">
        <ele>663.689</ele>
        <time>2011-06-05T11:23:42Z</time>
      </trkpt>
      <trkpt lat="36.772625" lon="-4.991211">
        <ele>662.606</ele>
        <time>2011-06-05T11:23:45Z</time>
      </trkpt>
      <trkpt lat="36.772814" lon="-4.990790">
        <ele>662.826</ele>
        <time>2011-06-05T11:23:50Z</time>
      </trkpt>
      <trkpt lat="36.772834" lon="-4.990652">
        <ele>663.507</ele>
        <time>2011-06-05T11:23:52Z</time>
      </trkpt>
      <trkpt lat="36.772825" lon="-4.990486">
        <ele>663.869</ele>
        <time>2011-06-05T11:23:55Z</time>
      </trkpt>
      <trkpt lat="36.772898" lon="-4.990320">
        <ele>664.465</ele>
        <time>2011-06-05T11:23:59Z</time>
      </trkpt>
      <trkpt lat="36.772968" lon="-4.990312">
        <ele>664.923</ele>
        <time>2011-06-05T11:24:01Z</time>
      </trkpt>
      <trkpt lat="36.773105" lon="-4.990338">
        <ele>666.178</ele>
        <time>2011-06-05T11:24:05Z</time>
      </trkpt>
      <trkpt lat="36.773338" lon="-4.990256">
        <ele>668.019</ele>
        <time>2011-06-05T11:24:11Z</time>
      </trkpt>
      <trkpt lat="36.773500" lon="-4.990046">
        <ele>666.999</ele>
        <time>2011-06-05T11:24:17Z</time>
      </trkpt>
      <trkpt lat="36.773645" lon="-4.989792">
        <ele>668.795</ele>
        <time>2011-06-05T11:24:24Z</time>
      </trkpt>
      <trkpt lat="36.773794" lon="-4.989611">
        <ele>670.625</ele>
        <time>2011-06-05T11:24:31Z</time>
      </trkpt>
      <trkpt lat="36.773897" lon="-4.989455">
        <ele>671.426</ele>
        <time>2011-06-05T11:24:38Z</time>
      </trkpt>
      <trkpt lat="36.774003" lon="-4.989298">
        <ele>672.708</ele>
        <time>2011-06-05T11:24:44Z</time>
      </trkpt>
      <trkpt lat="36.774077" lon="-4.989139">
        <ele>673.907</ele>
        <time>2011-06-05T11:24:50Z</time>
      </trkpt>
      <trkpt lat="36.774116" lon="-4.989056">
        <ele>674.383</ele>
        <time>2011-06-05T11:24:53Z</time>
      </trkpt>
      <trkpt lat="36.774174" lon="-4.988865">
        <ele>675.549</ele>
        <time>2011-06-05T11:24:59Z</time>
      </trkpt>
      <trkpt lat="36.774267" lon="-4.988538">
        <ele>676.597</ele>
        <time>2011-06-05T11:25:08Z</time>
      </trkpt>
      <trkpt lat="36.774334" lon="-4.988248">
        <ele>678.562</ele>
        <time>2011-06-05T11:25:16Z</time>
      </trkpt>
      <trkpt lat="36.774474" lon="-4.987934">
        <ele>679.343</ele>
        <time>2011-06-05T11:25:25Z</time>
      </trkpt>
      <trkpt lat="36.774522" lon="-4.987595">
        <ele>678.753</ele>
        <time>2011-06-05T11:25:33Z</time>
      </trkpt>
      <trkpt lat="36.774559" lon="-4.987367">
        <ele>679.219</ele>
        <time>2011-06-05T11:25:38Z</time>
      </trkpt>
      <trkpt lat="36.774726" lon="-4.987059">
        <ele>678.924</ele>
        <time>2011-06-05T11:25:45Z</time>
      </trkpt>
      <trkpt lat="36.774960" lon="-4.986678">
        <ele>679.404</ele>
        <time>2011-06-05T11:25:54Z</time>
      </trkpt>
      <trkpt lat="36.775087" lon="-4.986462">
        <ele>680.614</ele>
        <time>2011-06-05T11:25:59Z</time>
      </trkpt>
      <trkpt lat="36.775099" lon="-4.986245">
        <ele>678.907</ele>
        <time>2011-06-05T11:26:03Z</time>
      </trkpt>
      <trkpt lat="36.775037" lon="-4.986135">
        <ele>677.473</ele>
        <time>2011-06-05T11:26:05Z</time>
      </trkpt>
      <trkpt lat="36.774955" lon="-4.985916">
        <ele>676.799</ele>
        <time>2011-06-05T11:26:08Z</time>
      </trkpt>
      <trkpt lat="36.774937" lon="-4.985655">
        <ele>675.017</ele>
        <time>2011-06-05T11:26:11Z</time>
      </trkpt>
      <trkpt lat="36.774856" lon="-4.985301">
        <ele>673.482</ele>
        <time>2011-06-05T11:26:15Z</time>
      </trkpt>
      <trkpt lat="36.774815" lon="-4.985220">
        <ele>673.213</ele>
        <time>2011-06-05T11:26:16Z</time>
      </trkpt>
      <trkpt lat="36.774590" lon="-4.984806">
        <ele>673.143</ele>
        <time>2011-06-05T11:26:21Z</time>
      </trkpt>
      <trkpt lat="36.774313" lon="-4.984572">
        <ele>670.599</ele>
        <time>2011-06-05T11:26:25Z</time>
      </trkpt>
      <trkpt lat="36.774096" lon="-4.984420">
        <ele>668.748</ele>
        <time>2011-06-05T11:26:28Z</time>
      </trkpt>
      <trkpt lat="36.774042" lon="-4.984370">
        <ele>667.661</ele>
        <time>2011-06-05T11:26:29Z</time>
      </trkpt>
      <trkpt lat="36.773997" lon="-4.984225">
        <ele>667.617</ele>
        <time>2011-06-05T11:26:32Z</time>
      </trkpt>
      <trkpt lat="36.774109" lon="-4.984175">
        <ele>667.407</ele>
        <time>2011-06-05T11:26:35Z</time>
      </trkpt>
      <trkpt lat="36.774153" lon="-4.984180">
        <ele>668.355</ele>
        <time>2011-06-05T11:26:36Z</time>
      </trkpt>
      <trkpt lat="36.774409" lon="-4.984217">
        <ele>668.931</ele>
        <time>2011-06-05T11:26:43Z</time>
      </trkpt>
      <trkpt lat="36.774662" lon="-4.984184">
        <ele>670.249</ele>
        <time>2011-06-05T11:26:51Z</time>
      </trkpt>
      <trkpt lat="36.774834" lon="-4.984124">
        <ele>671.614</ele>
        <time>2011-06-05T11:26:57Z</time>
      </trkpt>
      <trkpt lat="36.774968" lon="-4.984143">
        <ele>672.965</ele>
        <time>2011-06-05T11:27:03Z</time>
      </trkpt>
      <trkpt lat="36.775016" lon="-4.984198">
        <ele>674.685</ele>
        <time>2011-06-05T11:27:06Z</time>
      </trkpt>
      <trkpt lat="36.775146" lon="-4.984355">
        <ele>676.661</ele>
        <time>2011-06-05T11:27:14Z</time>
      </trkpt>
      <trkpt lat="36.775291" lon="-4.984465">
        <ele>677.754</ele>
        <time>2011-06-05T11:27:22Z</time>
      </trkpt>
      <trkpt lat="36.775374" lon="-4.984493">
        <ele>678.356</ele>
        <time>2011-06-05T11:27:27Z</time>
      </trkpt>
      <trkpt lat="36.775497" lon="-4.984509">
        <ele>679.611</ele>
        <time>2011-06-05T11:27:33Z</time>
      </trkpt>
      <trkpt lat="36.775627" lon="-4.984526">
        <ele>680.407</ele>
        <time>2011-06-05T11:27:40Z</time>
      </trkpt>
      <trkpt lat="36.775762" lon="-4.984566">
        <ele>681.176</ele>
        <time>2011-06-05T11:27:47Z</time>
      </trkpt>
      <trkpt lat="36.775854" lon="-4.984602">
        <ele>682.222</ele>
        <time>2011-06-05T11:27:52Z</time>
      </trkpt>
      <trkpt lat="36.775968" lon="-4.984628">
        <ele>682.790</ele>
        <time>2011-06-05T11:27:58Z</time>
      </trkpt>
      <trkpt lat="36.776126" lon="-4.984581">
        <ele>683.855</ele>
        <time>2011-06-05T11:28:06Z</time>
      </trkpt>
      <trkpt lat="36.776273" lon="-4.984486">
        <ele>683.976</ele>
        <time>2011-06-05T11:28:13Z</time>
      </trkpt>
      <trkpt lat="36.776481" lon="-4.984339">
        <ele>685.236</ele>
        <time>2011-06-05T11:28:23Z</time>
      </trkpt>
      <trkpt lat="36.776598" lon="-4.984288">
        <ele>686.052</ele>
        <time>2011-06-05T11:28:29Z</time>
      </trkpt>
      <trkpt lat="36.776784" lon="-4.984262">
        <ele>687.919</ele>
        <time>2011-06-05T11:28:38Z</time>
      </trkpt>
      <trkpt lat="36.776870" lon="-4.984165">
        <ele>688.209</ele>
        <time>2011-06-05T11:28:43Z</time>
      </trkpt>
      <trkpt lat="36.776873" lon="-4.984039">
        <ele>687.719</ele>
        <time>2011-06-05T11:28:47Z</time>
      </trkpt>
      <trkpt lat="36.776838" lon="-4.983960">
        <ele>686.907</ele>
        <time>2011-06-05T11:28:49Z</time>
      </trkpt>
      <trkpt lat="36.776689" lon="-4.983763">
        <ele>686.512</ele>
        <time>2011-06-05T11:28:53Z</time>
      </trkpt>
      <trkpt lat="36.776586" lon="-4.983657">
        <ele>685.648</ele>
        <time>2011-06-05T11:28:55Z</time>
      </trkpt>
      <trkpt lat="36.776305" lon="-4.983306">
        <ele>682.276</ele>
        <time>2011-06-05T11:29:00Z</time>
      </trkpt>
      <trkpt lat="36.776077" lon="-4.982965">
        <ele>679.891</ele>
        <time>2011-06-05T11:29:04Z</time>
      </trkpt>
      <trkpt lat="36.775951" lon="-4.982664">
        <ele>677.042</ele>
        <time>2011-06-05T11:29:07Z</time>
      </trkpt>
      <trkpt lat="36.775901" lon="-4.982470">
        <ele>676.162</ele>
        <time>2011-06-05T11:29:09Z</time>
      </trkpt>
      <trkpt lat="36.775952" lon="-4.982243">
        <ele>675.078</ele>
        <time>2011-06-05T11:29:13Z</time>
      </trkpt>
      <trkpt lat="36.776088" lon="-4.982301">
        <ele>674.534</ele>
        <time>2011-06-05T11:29:16Z</time>
      </trkpt>
      <trkpt lat="36.776177" lon="-4.982383">
        <ele>673.755</ele>
        <time>2011-06-05T11:29:18Z</time>
      </trkpt>
      <trkpt lat="36.776472" lon="-4.982507">
        <ele>673.110</ele>
        <time>2011-06-05T11:29:23Z</time>
      </trkpt>
      <trkpt lat="36.776730" lon="-4.982455">
        <ele>672.507</ele>
        <time>2011-06-05T11:29:27Z</time>
      </trkpt>
      <trkpt lat="36.776835" lon="-4.982352">
        <ele>672.064</ele>
        <time>2011-06-05T11:29:29Z</time>
      </trkpt>
      <trkpt lat="36.777180" lon="-4.981907">
        <ele>669.720</ele>
        <time>2011-06-05T11:29:35Z</time>
      </trkpt>
      <trkpt lat="36.777505" lon="-4.981499">
        <ele>665.468</ele>
        <time>2011-06-05T11:29:40Z</time>
      </trkpt>
      <trkpt lat="36.777732" lon="-4.981300">
        <ele>665.093</ele>
        <time>2011-06-05T11:29:43Z</time>
      </trkpt>
      <trkpt lat="36.777920" lon="-4.980995">
        <ele>662.354</ele>
        <time>2011-06-05T11:29:47Z</time>
      </trkpt>
      <trkpt lat="36.777899" lon="-4.980826">
        <ele>660.384</ele>
        <time>2011-06-05T11:29:49Z</time>
      </trkpt>
      <trkpt lat="36.777772" lon="-4.980586">
        <ele>657.990</ele>
        <time>2011-06-05T11:29:52Z</time>
      </trkpt>
      <trkpt lat="36.777641" lon="-4.980450">
        <ele>656.519</ele>
        <time>2011-06-05T11:29:54Z</time>
      </trkpt>
      <trkpt lat="36.777437" lon="-4.980309">
        <ele>654.709</ele>
        <time>2011-06-05T11:29:57Z</time>
      </trkpt>
      <trkpt lat="36.777295" lon="-4.980288">
        <ele>652.119</ele>
        <time>2011-06-05T11:29:59Z</time>
      </trkpt>
      <trkpt lat="36.777072" lon="-4.980115">
        <ele>651.107</ele>
        <time>2011-06-05T11:30:03Z</time>
      </trkpt>
      <trkpt lat="36.777044" lon="-4.979899">
        <ele>650.512</ele>
        <time>2011-06-05T11:30:05Z</time>
      </trkpt>
      <trkpt lat="36.777048" lon="-4.979799">
        <ele>650.728</ele>
        <time>2011-06-05T11:30:06Z</time>
      </trkpt>
      <trkpt lat="36.777062" lon="-4.979518">
        <ele>650.166</ele>
        <time>2011-06-05T11:30:09Z</time>
      </trkpt>
      <trkpt lat="36.777099" lon="-4.979261">
        <ele>649.971</ele>
        <time>2011-06-05T11:30:12Z</time>
      </trkpt>
      <trkpt lat="36.777028" lon="-4.978991">
        <ele>648.932</ele>
        <time>2011-06-05T11:30:16Z</time>
      </trkpt>
      <trkpt lat="36.777001" lon="-4.978927">
        <ele>649.022</ele>
        <time>2011-06-05T11:30:17Z</time>
      </trkpt>
      <trkpt lat="36.776989" lon="-4.978785">
        <ele>648.668</ele>
        <time>2011-06-05T11:30:19Z</time>
      </trkpt>
      <trkpt lat="36.776948" lon="-4.978384">
        <ele>649.221</ele>
        <time>2011-06-05T11:30:24Z</time>
      </trkpt>
      <trkpt lat="36.776912" lon="-4.978310">
        <ele>649.041</ele>
        <time>2011-06-05T11:30:25Z</time>
      </trkpt>
      <trkpt lat="36.776842" lon="-4.978167">
        <ele>647.905</ele>
        <time>2011-06-05T11:30:27Z</time>
      </trkpt>
      <trkpt lat="36.776805" lon="-4.978101">
        <ele>647.407</ele>
        <time>2011-06-05T11:30:28Z</time>
      </trkpt>
      <trkpt lat="36.776791" lon="-4.977897">
        <ele>645.993</ele>
        <time>2011-06-05T11:30:32Z</time>
      </trkpt>
      <trkpt lat="36.776881" lon="-4.977880">
        <ele>644.929</ele>
        <time>2011-06-05T11:30:35Z</time>
      </trkpt>
      <trkpt lat="36.776919" lon="-4.977907">
        <ele>644.297</ele>
        <time>2011-06-05T11:30:37Z</time>
      </trkpt>
      <trkpt lat="36.776939" lon="-4.977922">
        <ele>644.222</ele>
        <time>2011-06-05T11:30:41Z</time>
      </trkpt>
      <trkpt lat="36.776958" lon="-4.978011">
        <ele>642.473</ele>
        <time>2011-06-05T11:34:04Z</time>
      </trkpt>
      <trkpt lat="36.776966" lon="-4.978033">
        <ele>643.753</ele>
        <time>2011-06-05T11:34:06Z</time>
      </trkpt>
      <trkpt lat="36.777052" lon="-4.978101">
        <ele>642.819</ele>
        <time>2011-06-05T11:34:11Z</time>
      </trkpt>
      <trkpt lat="36.777205" lon="-4.978196">
        <ele>643.123</ele>
        <time>2011-06-05T11:34:15Z</time>
      </trkpt>
      <trkpt lat="36.777295" lon="-4.978268">
        <ele>641.583</ele>
        <time>2011-06-05T11:34:17Z</time>
      </trkpt>
      <trkpt lat="36.777495" lon="-4.978338">
        <ele>640.511</ele>
        <time>2011-06-05T11:34:21Z</time>
      </trkpt>
      <trkpt lat="36.777630" lon="-4.978242">
        <ele>639.307</ele>
        <time>2011-06-05T11:34:24Z</time>
      </trkpt>
      <trkpt lat="36.777712" lon="-4.978117">
        <ele>638.143</ele>
        <time>2011-06-05T11:34:26Z</time>
      </trkpt>
      <trkpt lat="36.777806" lon="-4.977963">
        <ele>636.389</ele>
        <time>2011-06-05T11:34:28Z</time>
      </trkpt>
      <trkpt lat="36.777923" lon="-4.977809">
        <ele>635.457</ele>
        <time>2011-06-05T11:34:30Z</time>
      </trkpt>
      <trkpt lat="36.778184" lon="-4.977523">
        <ele>633.042</ele>
        <time>2011-06-05T11:34:34Z</time>
      </trkpt>
      <trkpt lat="36.778325" lon="-4.977290">
        <ele>630.883</ele>
        <time>2011-06-05T11:34:37Z</time>
      </trkpt>
      <trkpt lat="36.778541" lon="-4.977086">
        <ele>627.973</ele>
        <time>2011-06-05T11:34:41Z</time>
      </trkpt>
      <trkpt lat="36.778666" lon="-4.977025">
        <ele>627.029</ele>
        <time>2011-06-05T11:34:43Z</time>
      </trkpt>
      <trkpt lat="36.778905" lon="-4.977072">
        <ele>626.549</ele>
        <time>2011-06-05T11:34:47Z</time>
      </trkpt>
      <trkpt lat="36.779082" lon="-4.977232">
        <ele>627.402</ele>
        <time>2011-06-05T11:34:51Z</time>
      </trkpt>
      <trkpt lat="36.779244" lon="-4.977321">
        <ele>627.522</ele>
        <time>2011-06-05T11:34:54Z</time>
      </trkpt>
      <trkpt lat="36.779373" lon="-4.977359">
        <ele>625.507</ele>
        <time>2011-06-05T11:34:56Z</time>
      </trkpt>
      <trkpt lat="36.779882" lon="-4.977377">
        <ele>623.895</ele>
        <time>2011-06-05T11:35:03Z</time>
      </trkpt>
      <trkpt lat="36.779959" lon="-4.977371">
        <ele>622.511</ele>
        <time>2011-06-05T11:35:04Z</time>
      </trkpt>
      <trkpt lat="36.780168" lon="-4.977182">
        <ele>617.639</ele>
        <time>2011-06-05T11:35:08Z</time>
      </trkpt>
      <trkpt lat="36.780138" lon="-4.976878">
        <ele>616.484</ele>
        <time>2011-06-05T11:35:11Z</time>
      </trkpt>
      <trkpt lat="36.780101" lon="-4.976773">
        <ele>615.865</ele>
        <time>2011-06-05T11:35:12Z</time>
      </trkpt>
      <trkpt lat="36.779983" lon="-4.976420">
        <ele>613.735</ele>
        <time>2011-06-05T11:35:15Z</time>
      </trkpt>
      <trkpt lat="36.779905" lon="-4.976173">
        <ele>612.521</ele>
        <time>2011-06-05T11:35:17Z</time>
      </trkpt>
      <trkpt lat="36.779769" lon="-4.975873">
        <ele>609.424</ele>
        <time>2011-06-05T11:35:20Z</time>
      </trkpt>
      <trkpt lat="36.779718" lon="-4.975633">
        <ele>607.704</ele>
        <time>2011-06-05T11:35:23Z</time>
      </trkpt>
      <trkpt lat="36.779777" lon="-4.975475">
        <ele>606.614</ele>
        <time>2011-06-05T11:35:25Z</time>
      </trkpt>
      <trkpt lat="36.779863" lon="-4.975312">
        <ele>605.807</ele>
        <time>2011-06-05T11:35:27Z</time>
      </trkpt>
      <trkpt lat="36.780010" lon="-4.975043">
        <ele>603.893</ele>
        <time>2011-06-05T11:35:30Z</time>
      </trkpt>
      <trkpt lat="36.780324" lon="-4.974753">
        <ele>601.439</ele>
        <time>2011-06-05T11:35:34Z</time>
      </trkpt>
      <trkpt lat="36.780417" lon="-4.974711">
        <ele>602.147</ele>
        <time>2011-06-05T11:35:35Z</time>
      </trkpt>
      <trkpt lat="36.780598" lon="-4.974650">
        <ele>601.712</ele>
        <time>2011-06-05T11:35:37Z</time>
      </trkpt>
      <trkpt lat="36.780946" lon="-4.974678">
        <ele>600.713</ele>
        <time>2011-06-05T11:35:41Z</time>
      </trkpt>
      <trkpt lat="36.781314" lon="-4.974835">
        <ele>600.473</ele>
        <time>2011-06-05T11:35:46Z</time>
      </trkpt>
      <trkpt lat="36.781660" lon="-4.974835">
        <ele>599.319</ele>
        <time>2011-06-05T11:35:51Z</time>
      </trkpt>
      <trkpt lat="36.781788" lon="-4.974631">
        <ele>597.895</ele>
        <time>2011-06-05T11:35:54Z</time>
      </trkpt>
      <trkpt lat="36.781862" lon="-4.974310">
        <ele>594.649</ele>
        <time>2011-06-05T11:35:57Z</time>
      </trkpt>
      <trkpt lat="36.781867" lon="-4.974187">
        <ele>594.023</ele>
        <time>2011-06-05T11:35:58Z</time>
      </trkpt>
      <trkpt lat="36.781861" lon="-4.973924">
        <ele>592.007</ele>
        <time>2011-06-05T11:36:00Z</time>
      </trkpt>
      <trkpt lat="36.781799" lon="-4.973532">
        <ele>590.550</ele>
        <time>2011-06-05T11:36:03Z</time>
      </trkpt>
      <trkpt lat="36.781768" lon="-4.973417">
        <ele>590.086</ele>
        <time>2011-06-05T11:36:04Z</time>
      </trkpt>
      <trkpt lat="36.781730" lon="-4.973204">
        <ele>588.444</ele>
        <time>2011-06-05T11:36:06Z</time>
      </trkpt>
      <trkpt lat="36.781771" lon="-4.972913">
        <ele>586.969</ele>
        <time>2011-06-05T11:36:09Z</time>
      </trkpt>
      <trkpt lat="36.781924" lon="-4.972668">
        <ele>586.020</ele>
        <time>2011-06-05T11:36:12Z</time>
      </trkpt>
      <trkpt lat="36.782121" lon="-4.972477">
        <ele>584.040</ele>
        <time>2011-06-05T11:36:15Z</time>
      </trkpt>
      <trkpt lat="36.782176" lon="-4.972413">
        <ele>583.866</ele>
        <time>2011-06-05T11:36:16Z</time>
      </trkpt>
      <trkpt lat="36.782353" lon="-4.972265">
        <ele>585.164</ele>
        <time>2011-06-05T11:36:20Z</time>
      </trkpt>
      <trkpt lat="36.782541" lon="-4.972203">
        <ele>587.406</ele>
        <time>2011-06-05T11:36:27Z</time>
      </trkpt>
      <trkpt lat="36.782712" lon="-4.972157">
        <ele>590.416</ele>
        <time>2011-06-05T11:36:34Z</time>
      </trkpt>
      <trkpt lat="36.782736" lon="-4.972142">
        <ele>590.607</ele>
        <time>2011-06-05T11:36:35Z</time>
      </trkpt>
      <trkpt lat="36.782903" lon="-4.971990">
        <ele>590.847</ele>
        <time>2011-06-05T11:36:43Z</time>
      </trkpt>
      <trkpt lat="36.783026" lon="-4.971867">
        <ele>593.273</ele>
        <time>2011-06-05T11:36:50Z</time>
      </trkpt>
      <trkpt lat="36.783103" lon="-4.971819">
        <ele>593.521</ele>
        <time>2011-06-05T11:36:54Z</time>
      </trkpt>
      <trkpt lat="36.783260" lon="-4.971741">
        <ele>594.336</ele>
        <time>2011-06-05T11:37:03Z</time>
      </trkpt>
      <trkpt lat="36.783391" lon="-4.971660">
        <ele>595.927</ele>
        <time>2011-06-05T11:37:10Z</time>
      </trkpt>
      <trkpt lat="36.783568" lon="-4.971618">
        <ele>597.537</ele>
        <time>2011-06-05T11:37:19Z</time>
      </trkpt>
      <trkpt lat="36.783713" lon="-4.971639">
        <ele>597.973</ele>
        <time>2011-06-05T11:37:27Z</time>
      </trkpt>
      <trkpt lat="36.783873" lon="-4.971664">
        <ele>599.769</ele>
        <time>2011-06-05T11:37:35Z</time>
      </trkpt>
      <trkpt lat="36.783963" lon="-4.971667">
        <ele>598.704</ele>
        <time>2011-06-05T11:37:39Z</time>
      </trkpt>
      <trkpt lat="36.784149" lon="-4.971680">
        <ele>600.024</ele>
        <time>2011-06-05T11:37:47Z</time>
      </trkpt>
      <trkpt lat="36.784342" lon="-4.971697">
        <ele>598.907</ele>
        <time>2011-06-05T11:37:55Z</time>
      </trkpt>
      <trkpt lat="36.784545" lon="-4.971726">
        <ele>598.587</ele>
        <time>2011-06-05T11:38:01Z</time>
      </trkpt>
      <trkpt lat="36.784689" lon="-4.971761">
        <ele>598.333</ele>
        <time>2011-06-05T11:38:04Z</time>
      </trkpt>
      <trkpt lat="36.784974" lon="-4.971726">
        <ele>596.551</ele>
        <time>2011-06-05T11:38:09Z</time>
      </trkpt>
      <trkpt lat="36.785162" lon="-4.971530">
        <ele>594.026</ele>
        <time>2011-06-05T11:38:13Z</time>
      </trkpt>
      <trkpt lat="36.785308" lon="-4.971192">
        <ele>592.047</ele>
        <time>2011-06-05T11:38:17Z</time>
      </trkpt>
      <trkpt lat="36.785304" lon="-4.970931">
        <ele>589.617</ele>
        <time>2011-06-05T11:38:20Z</time>
      </trkpt>
      <trkpt lat="36.785219" lon="-4.970768">
        <ele>588.783</ele>
        <time>2011-06-05T11:38:22Z</time>
      </trkpt>
      <trkpt lat="36.785123" lon="-4.970613">
        <ele>586.121</ele>
        <time>2011-06-05T11:38:24Z</time>
      </trkpt>
      <trkpt lat="36.785059" lon="-4.970256">
        <ele>583.441</ele>
        <time>2011-06-05T11:38:28Z</time>
      </trkpt>
      <trkpt lat="36.785068" lon="-4.969756">
        <ele>582.005</ele>
        <time>2011-06-05T11:38:33Z</time>
      </trkpt>
      <trkpt lat="36.785001" lon="-4.969559">
        <ele>579.407</ele>
        <time>2011-06-05T11:38:36Z</time>
      </trkpt>
      <trkpt lat="36.784952" lon="-4.969540">
        <ele>579.513</ele>
        <time>2011-06-05T11:38:37Z</time>
      </trkpt>
      <trkpt lat="36.784721" lon="-4.969532">
        <ele>577.829</ele>
        <time>2011-06-05T11:38:41Z</time>
      </trkpt>
      <trkpt lat="36.784650" lon="-4.969510">
        <ele>577.527</ele>
        <time>2011-06-05T11:38:42Z</time>
      </trkpt>
      <trkpt lat="36.784319" lon="-4.969263">
        <ele>574.572</ele>
        <time>2011-06-05T11:38:47Z</time>
      </trkpt>
      <trkpt lat="36.784257" lon="-4.969098">
        <ele>573.923</ele>
        <time>2011-06-05T11:38:49Z</time>
      </trkpt>
      <trkpt lat="36.784210" lon="-4.968712">
        <ele>570.113</ele>
        <time>2011-06-05T11:38:53Z</time>
      </trkpt>
      <trkpt lat="36.784300" lon="-4.968493">
        <ele>568.279</ele>
        <time>2011-06-05T11:38:56Z</time>
      </trkpt>
      <trkpt lat="36.784344" lon="-4.968267">
        <ele>568.513</ele>
        <time>2011-06-05T11:38:59Z</time>
      </trkpt>
      <trkpt lat="36.784370" lon="-4.967983">
        <ele>568.343</ele>
        <time>2011-06-05T11:39:03Z</time>
      </trkpt>
      <trkpt lat="36.784385" lon="-4.967745">
        <ele>568.207</ele>
        <time>2011-06-05T11:39:07Z</time>
      </trkpt>
      <trkpt lat="36.784342" lon="-4.967519">
        <ele>568.907</ele>
        <time>2011-06-05T11:39:13Z</time>
      </trkpt>
      <trkpt lat="36.784248" lon="-4.967289">
        <ele>569.922</ele>
        <time>2011-06-05T11:39:19Z</time>
      </trkpt>
      <trkpt lat="36.784183" lon="-4.967132">
        <ele>569.998</ele>
        <time>2011-06-05T11:39:22Z</time>
      </trkpt>
      <trkpt lat="36.784122" lon="-4.966737">
        <ele>568.436</ele>
        <time>2011-06-05T11:39:28Z</time>
      </trkpt>
      <trkpt lat="36.784194" lon="-4.966358">
        <ele>568.781</ele>
        <time>2011-06-05T11:39:33Z</time>
      </trkpt>
      <trkpt lat="36.784211" lon="-4.966283">
        <ele>568.952</ele>
        <time>2011-06-05T11:39:34Z</time>
      </trkpt>
      <trkpt lat="36.784338" lon="-4.965602">
        <ele>565.492</ele>
        <time>2011-06-05T11:39:43Z</time>
      </trkpt>
      <trkpt lat="36.784432" lon="-4.965209">
        <ele>564.898</ele>
        <time>2011-06-05T11:39:49Z</time>
      </trkpt>
      <trkpt lat="36.784536" lon="-4.964937">
        <ele>565.334</ele>
        <time>2011-06-05T11:39:54Z</time>
      </trkpt>
      <trkpt lat="36.784625" lon="-4.964497">
        <ele>565.155</ele>
        <time>2011-06-05T11:40:01Z</time>
      </trkpt>
      <trkpt lat="36.784684" lon="-4.964150">
        <ele>565.210</ele>
        <time>2011-06-05T11:40:07Z</time>
      </trkpt>
      <trkpt lat="36.784735" lon="-4.963912">
        <ele>568.607</ele>
        <time>2011-06-05T11:40:12Z</time>
      </trkpt>
      <trkpt lat="36.784777" lon="-4.963583">
        <ele>569.244</ele>
        <time>2011-06-05T11:40:18Z</time>
      </trkpt>
      <trkpt lat="36.784793" lon="-4.963125">
        <ele>570.460</ele>
        <time>2011-06-05T11:40:26Z</time>
      </trkpt>
      <trkpt lat="36.784802" lon="-4.962748">
        <ele>569.348</ele>
        <time>2011-06-05T11:40:34Z</time>
      </trkpt>
      <trkpt lat="36.784817" lon="-4.962480">
        <ele>569.593</ele>
        <time>2011-06-05T11:40:41Z</time>
      </trkpt>
      <trkpt lat="36.784816" lon="-4.962250">
        <ele>568.844</ele>
        <time>2011-06-05T11:40:48Z</time>
      </trkpt>
      <trkpt lat="36.784864" lon="-4.962099">
        <ele>570.544</ele>
        <time>2011-06-05T11:40:54Z</time>
      </trkpt>
      <trkpt lat="36.784950" lon="-4.961978">
        <ele>570.480</ele>
        <time>2011-06-05T11:41:00Z</time>
      </trkpt>
      <trkpt lat="36.785024" lon="-4.961890">
        <ele>570.456</ele>
        <time>2011-06-05T11:41:05Z</time>
      </trkpt>
      <trkpt lat="36.785098" lon="-4.961771">
        <ele>570.159</ele>
        <time>2011-06-05T11:41:12Z</time>
      </trkpt>
      <trkpt lat="36.785122" lon="-4.961728">
        <ele>570.214</ele>
        <time>2011-06-05T11:41:15Z</time>
      </trkpt>
      <trkpt lat="36.785102" lon="-4.961740">
        <ele>569.407</ele>
        <time>2011-06-05T11:41:36Z</time>
      </trkpt>
      <trkpt lat="36.785103" lon="-4.961741">
        <ele>569.146</ele>
        <time>2011-06-05T11:43:06Z</time>
      </trkpt>
      <trkpt lat="36.785118" lon="-4.961695">
        <ele>570.622</ele>
        <time>2011-06-05T11:43:08Z</time>
      </trkpt>
      <trkpt lat="36.785144" lon="-4.961501">
        <ele>571.570</ele>
        <time>2011-06-05T11:43:14Z</time>
      </trkpt>
      <trkpt lat="36.785123" lon="-4.961276">
        <ele>569.165</ele>
        <time>2011-06-05T11:43:20Z</time>
      </trkpt>
      <trkpt lat="36.785072" lon="-4.961055">
        <ele>567.566</ele>
        <time>2011-06-05T11:43:25Z</time>
      </trkpt>
      <trkpt lat="36.785063" lon="-4.961001">
        <ele>567.126</ele>
        <time>2011-06-05T11:43:26Z</time>
      </trkpt>
      <trkpt lat="36.784961" lon="-4.960544">
        <ele>563.462</ele>
        <time>2011-06-05T11:43:33Z</time>
      </trkpt>
      <trkpt lat="36.784900" lon="-4.960252">
        <ele>562.018</ele>
        <time>2011-06-05T11:43:37Z</time>
      </trkpt>
      <trkpt lat="36.784939" lon="-4.959899">
        <ele>562.898</ele>
        <time>2011-06-05T11:43:42Z</time>
      </trkpt>
      <trkpt lat="36.785131" lon="-4.959680">
        <ele>562.817</ele>
        <time>2011-06-05T11:43:48Z</time>
      </trkpt>
      <trkpt lat="36.785166" lon="-4.959667">
        <ele>562.607</ele>
        <time>2011-06-05T11:43:49Z</time>
      </trkpt>
      <trkpt lat="36.785402" lon="-4.959619">
        <ele>562.892</ele>
        <time>2011-06-05T11:43:56Z</time>
      </trkpt>
      <trkpt lat="36.785526" lon="-4.959626">
        <ele>563.478</ele>
        <time>2011-06-05T11:44:01Z</time>
      </trkpt>
      <trkpt lat="36.785664" lon="-4.959620">
        <ele>563.686</ele>
        <time>2011-06-05T11:44:07Z</time>
      </trkpt>
      <trkpt lat="36.785843" lon="-4.959602">
        <ele>564.271</ele>
        <time>2011-06-05T11:44:16Z</time>
      </trkpt>
      <trkpt lat="36.786060" lon="-4.959618">
        <ele>564.562</ele>
        <time>2011-06-05T11:44:26Z</time>
      </trkpt>
      <trkpt lat="36.786265" lon="-4.959667">
        <ele>565.032</ele>
        <time>2011-06-05T11:44:34Z</time>
      </trkpt>
      <trkpt lat="36.786524" lon="-4.959715">
        <ele>565.618</ele>
        <time>2011-06-05T11:44:43Z</time>
      </trkpt>
      <trkpt lat="36.786719" lon="-4.959642">
        <ele>567.079</ele>
        <time>2011-06-05T11:44:49Z</time>
      </trkpt>
      <trkpt lat="36.786750" lon="-4.959609">
        <ele>566.005</ele>
        <time>2011-06-05T11:44:50Z</time>
      </trkpt>
      <trkpt lat="36.786832" lon="-4.959417">
        <ele>566.425</ele>
        <time>2011-06-05T11:44:54Z</time>
      </trkpt>
      <trkpt lat="36.786905" lon="-4.959031">
        <ele>564.907</ele>
        <time>2011-06-05T11:45:01Z</time>
      </trkpt>
      <trkpt lat="36.786973" lon="-4.958565">
        <ele>564.978</ele>
        <time>2011-06-05T11:45:09Z</time>
      </trkpt>
      <trkpt lat="36.787011" lon="-4.958104">
        <ele>562.554</ele>
        <time>2011-06-05T11:45:16Z</time>
      </trkpt>
      <trkpt lat="36.787020" lon="-4.957967">
        <ele>562.312</ele>
        <time>2011-06-05T11:45:18Z</time>
      </trkpt>
      <trkpt lat="36.787121" lon="-4.957736">
        <ele>562.177</ele>
        <time>2011-06-05T11:45:22Z</time>
      </trkpt>
      <trkpt lat="36.787178" lon="-4.957646">
        <ele>562.558</ele>
        <time>2011-06-05T11:45:24Z</time>
      </trkpt>
      <trkpt lat="36.787227" lon="-4.957553">
        <ele>563.688</ele>
        <time>2011-06-05T11:45:26Z</time>
      </trkpt>
      <trkpt lat="36.787323" lon="-4.957237">
        <ele>561.814</ele>
        <time>2011-06-05T11:45:33Z</time>
      </trkpt>
      <trkpt lat="36.787370" lon="-4.956955">
        <ele>561.493</ele>
        <time>2011-06-05T11:45:40Z</time>
      </trkpt>
      <trkpt lat="36.787410" lon="-4.956781">
        <ele>561.665</ele>
        <time>2011-06-05T11:45:45Z</time>
      </trkpt>
      <trkpt lat="36.787481" lon="-4.956561">
        <ele>562.621</ele>
        <time>2011-06-05T11:45:51Z</time>
      </trkpt>
      <trkpt lat="36.787584" lon="-4.956269">
        <ele>563.407</ele>
        <time>2011-06-05T11:45:59Z</time>
      </trkpt>
      <trkpt lat="36.787684" lon="-4.955925">
        <ele>563.560</ele>
        <time>2011-06-05T11:46:08Z</time>
      </trkpt>
      <trkpt lat="36.787801" lon="-4.955558">
        <ele>562.676</ele>
        <time>2011-06-05T11:46:17Z</time>
      </trkpt>
      <trkpt lat="36.787909" lon="-4.955320">
        <ele>563.594</ele>
        <time>2011-06-05T11:46:23Z</time>
      </trkpt>
      <trkpt lat="36.788014" lon="-4.955014">
        <ele>562.069</ele>
        <time>2011-06-05T11:46:29Z</time>
      </trkpt>
      <trkpt lat="36.788035" lon="-4.954887">
        <ele>562.290</ele>
        <time>2011-06-05T11:46:31Z</time>
      </trkpt>
      <trkpt lat="36.788069" lon="-4.954577">
        <ele>561.530</ele>
        <time>2011-06-05T11:46:36Z</time>
      </trkpt>
      <trkpt lat="36.788071" lon="-4.954225">
        <ele>561.766</ele>
        <time>2011-06-05T11:46:42Z</time>
      </trkpt>
      <trkpt lat="36.788062" lon="-4.953839">
        <ele>559.345</ele>
        <time>2011-06-05T11:46:48Z</time>
      </trkpt>
      <trkpt lat="36.788063" lon="-4.953770">
        <ele>559.347</ele>
        <time>2011-06-05T11:46:49Z</time>
      </trkpt>
      <trkpt lat="36.788054" lon="-4.953629">
        <ele>558.011</ele>
        <time>2011-06-05T11:46:51Z</time>
      </trkpt>
      <trkpt lat="36.788020" lon="-4.953179">
        <ele>557.207</ele>
        <time>2011-06-05T11:46:57Z</time>
      </trkpt>
      <trkpt lat="36.787960" lon="-4.952756">
        <ele>554.885</ele>
        <time>2011-06-05T11:47:03Z</time>
      </trkpt>
      <trkpt lat="36.787887" lon="-4.952487">
        <ele>557.341</ele>
        <time>2011-06-05T11:47:07Z</time>
      </trkpt>
      <trkpt lat="36.787869" lon="-4.952429">
        <ele>556.029</ele>
        <time>2011-06-05T11:47:08Z</time>
      </trkpt>
      <trkpt lat="36.787715" lon="-4.952139">
        <ele>553.864</ele>
        <time>2011-06-05T11:47:15Z</time>
      </trkpt>
      <trkpt lat="36.787583" lon="-4.951894">
        <ele>553.885</ele>
        <time>2011-06-05T11:47:23Z</time>
      </trkpt>
      <trkpt lat="36.787493" lon="-4.951639">
        <ele>553.795</ele>
        <time>2011-06-05T11:47:30Z</time>
      </trkpt>
      <trkpt lat="36.787499" lon="-4.951428">
        <ele>552.811</ele>
        <time>2011-06-05T11:47:36Z</time>
      </trkpt>
      <trkpt lat="36.787526" lon="-4.951203">
        <ele>553.377</ele>
        <time>2011-06-05T11:47:42Z</time>
      </trkpt>
      <trkpt lat="36.787631" lon="-4.950960">
        <ele>553.461</ele>
        <time>2011-06-05T11:47:48Z</time>
      </trkpt>
      <trkpt lat="36.787774" lon="-4.950751">
        <ele>552.827</ele>
        <time>2011-06-05T11:47:53Z</time>
      </trkpt>
      <trkpt lat="36.787905" lon="-4.950583">
        <ele>553.207</ele>
        <time>2011-06-05T11:47:57Z</time>
      </trkpt>
      <trkpt lat="36.787964" lon="-4.950499">
        <ele>551.958</ele>
        <time>2011-06-05T11:47:59Z</time>
      </trkpt>
      <trkpt lat="36.788173" lon="-4.950053">
        <ele>551.124</ele>
        <time>2011-06-05T11:48:09Z</time>
      </trkpt>
      <trkpt lat="36.788267" lon="-4.949809">
        <ele>551.432</ele>
        <time>2011-06-05T11:48:15Z</time>
      </trkpt>
      <trkpt lat="36.788331" lon="-4.949559">
        <ele>552.117</ele>
        <time>2011-06-05T11:48:21Z</time>
      </trkpt>
      <trkpt lat="36.788331" lon="-4.949419">
        <ele>552.298</ele>
        <time>2011-06-05T11:48:26Z</time>
      </trkpt>
      <trkpt lat="36.788253" lon="-4.949323">
        <ele>553.988</ele>
        <time>2011-06-05T11:48:31Z</time>
      </trkpt>
      <trkpt lat="36.788141" lon="-4.949248">
        <ele>555.814</ele>
        <time>2011-06-05T11:48:36Z</time>
      </trkpt>
      <trkpt lat="36.788092" lon="-4.949201">
        <ele>557.049</ele>
        <time>2011-06-05T11:48:39Z</time>
      </trkpt>
      <trkpt lat="36.788127" lon="-4.949112">
        <ele>557.102</ele>
        <time>2011-06-05T11:48:43Z</time>
      </trkpt>
      <trkpt lat="36.788227" lon="-4.949133">
        <ele>556.422</ele>
        <time>2011-06-05T11:48:46Z</time>
      </trkpt>
      <trkpt lat="36.788560" lon="-4.949271">
        <ele>555.307</ele>
        <time>2011-06-05T11:48:53Z</time>
      </trkpt>
      <trkpt lat="36.788928" lon="-4.949416">
        <ele>556.245</ele>
        <time>2011-06-05T11:49:01Z</time>
      </trkpt>
      <trkpt lat="36.789138" lon="-4.949495">
        <ele>556.131</ele>
        <time>2011-06-05T11:49:06Z</time>
      </trkpt>
      <trkpt lat="36.789287" lon="-4.949475">
        <ele>556.789</ele>
        <time>2011-06-05T11:49:10Z</time>
      </trkpt>
      <trkpt lat="36.789315" lon="-4.949486">
        <ele>556.374</ele>
        <time>2011-06-05T11:49:11Z</time>
      </trkpt>
      <trkpt lat="36.789525" lon="-4.949577">
        <ele>557.245</ele>
        <time>2011-06-05T11:49:19Z</time>
      </trkpt>
      <trkpt lat="36.789568" lon="-4.949590">
        <ele>558.285</ele>
        <time>2011-06-05T11:49:21Z</time>
      </trkpt>
    </trkseg>
  </trk>
</gpx>
